<?xml version='1.0' encoding='UTF-8'?><gpx version="1.1" creator="JPX - https://github.com/jenetics/jpx" xmlns="http://www.topografix.com/GPX/1/1"><trk><trkseg><trkpt lat="41.2301336" lon="14.5336514"><ele>117.16666666666667</ele><time>2026-04-26T08:23:13.94Z</time></trkpt><trkpt lat="41.2301352" lon="14.5337456"><ele>116.33333333333334</ele><time>2026-04-26T08:23:15.961Z</time></trkpt><trkpt lat="41.2301602" lon="14.5338355"><ele>115.5</ele><time>2026-04-26T08:23:17.953Z</time></trkpt><trkpt lat="41.2301916" lon="14.5339384"><ele>114.66666666666666</ele><time>2026-04-26T08:23:19.937Z</time></trkpt><trkpt lat="41.2302435" lon="14.5340359"><ele>113.83333333333333</ele><time>2026-04-26T08:23:21.939Z</time></trkpt><trkpt lat="41.2303334" lon="14.534046"><ele>113.0</ele><time>2026-04-26T08:23:23.943Z</time></trkpt><trkpt lat="41.2304318" lon="14.5340134"><ele>112.99999999999999</ele><time>2026-04-26T08:23:25.966Z</time></trkpt><trkpt lat="41.2305388" lon="14.5339918"><ele>113.0</ele><time>2026-04-26T08:23:27.954Z</time></trkpt><trkpt lat="41.2306542" lon="14.533985"><ele>113.0</ele><time>2026-04-26T08:23:29.937Z</time></trkpt><trkpt lat="41.2307396" lon="14.5339816"><ele>113.0</ele><time>2026-04-26T08:23:31.94Z</time></trkpt><trkpt lat="41.2307677" lon="14.53406"><ele>112.99999999999999</ele><time>2026-04-26T08:23:34.946Z</time></trkpt><trkpt lat="41.230715" lon="14.5341298"><ele>113.0</ele><time>2026-04-26T08:23:36.938Z</time></trkpt><trkpt lat="41.2305978" lon="14.5341993"><ele>113.0</ele><time>2026-04-26T08:23:38.941Z</time></trkpt><trkpt lat="41.2305158" lon="14.5342421"><ele>113.00000000000001</ele><time>2026-04-26T08:23:39.941Z</time></trkpt><trkpt lat="41.2304214" lon="14.5342949"><ele>113.00000000000001</ele><time>2026-04-26T08:23:40.938Z</time></trkpt><trkpt lat="41.2303163" lon="14.5343563"><ele>113.0</ele><time>2026-04-26T08:23:41.947Z</time></trkpt><trkpt lat="41.2302008" lon="14.534427"><ele>113.0</ele><time>2026-04-26T08:23:42.936Z</time></trkpt><trkpt lat="41.2300771" lon="14.5344991"><ele>112.0</ele><time>2026-04-26T08:23:43.937Z</time></trkpt><trkpt lat="41.2299466" lon="14.5345642"><ele>111.0</ele><time>2026-04-26T08:23:44.938Z</time></trkpt><trkpt lat="41.2298196" lon="14.5346195"><ele>110.0</ele><time>2026-04-26T08:23:45.939Z</time></trkpt><trkpt lat="41.2296962" lon="14.5346531"><ele>109.0</ele><time>2026-04-26T08:23:46.94Z</time></trkpt><trkpt lat="41.229577" lon="14.534666"><ele>109.0</ele><time>2026-04-26T08:23:47.944Z</time></trkpt><trkpt lat="41.2294652" lon="14.5346602"><ele>109.0</ele><time>2026-04-26T08:23:48.941Z</time></trkpt><trkpt lat="41.2293541" lon="14.5346417"><ele>109.0</ele><time>2026-04-26T08:23:49.95Z</time></trkpt><trkpt lat="41.2292384" lon="14.5346132"><ele>109.0</ele><time>2026-04-26T08:23:50.936Z</time></trkpt><trkpt lat="41.2291239" lon="14.5345845"><ele>109.25</ele><time>2026-04-26T08:23:51.955Z</time></trkpt><trkpt lat="41.2290057" lon="14.534547"><ele>109.5</ele><time>2026-04-26T08:23:52.946Z</time></trkpt><trkpt lat="41.2288776" lon="14.5344885"><ele>109.75</ele><time>2026-04-26T08:23:53.936Z</time></trkpt><trkpt lat="41.2287595" lon="14.5344315"><ele>110.0</ele><time>2026-04-26T08:23:54.948Z</time></trkpt><trkpt lat="41.2286504" lon="14.5343787"><ele>109.66666666666666</ele><time>2026-04-26T08:23:55.946Z</time></trkpt><trkpt lat="41.228552" lon="14.5343334"><ele>109.33333333333333</ele><time>2026-04-26T08:23:56.939Z</time></trkpt><trkpt lat="41.2284779" lon="14.5342729"><ele>109.0</ele><time>2026-04-26T08:23:57.95Z</time></trkpt><trkpt lat="41.2284208" lon="14.5341992"><ele>108.66666666666666</ele><time>2026-04-26T08:23:58.934Z</time></trkpt><trkpt lat="41.2283745" lon="14.5341071"><ele>108.33333333333333</ele><time>2026-04-26T08:23:59.94Z</time></trkpt><trkpt lat="41.2283486" lon="14.5339966"><ele>108.0</ele><time>2026-04-26T08:24:00.942Z</time></trkpt><trkpt lat="41.2283211" lon="14.5338797"><ele>108.0</ele><time>2026-04-26T08:24:01.939Z</time></trkpt><trkpt lat="41.2283426" lon="14.5337369"><ele>108.0</ele><time>2026-04-26T08:24:02.936Z</time></trkpt><trkpt lat="41.2283786" lon="14.5335848"><ele>108.0</ele><time>2026-04-26T08:24:03.938Z</time></trkpt><trkpt lat="41.2284185" lon="14.5334228"><ele>108.0</ele><time>2026-04-26T08:24:04.934Z</time></trkpt><trkpt lat="41.228465" lon="14.5332524"><ele>108.25</ele><time>2026-04-26T08:24:05.932Z</time></trkpt><trkpt lat="41.22851" lon="14.5330751"><ele>108.5</ele><time>2026-04-26T08:24:06.938Z</time></trkpt><trkpt lat="41.2285519" lon="14.5328938"><ele>108.75</ele><time>2026-04-26T08:24:07.935Z</time></trkpt><trkpt lat="41.2285996" lon="14.5327152"><ele>109.0</ele><time>2026-04-26T08:24:08.938Z</time></trkpt><trkpt lat="41.2286494" lon="14.532539"><ele>109.5</ele><time>2026-04-26T08:24:09.939Z</time></trkpt><trkpt lat="41.2287002" lon="14.5323616"><ele>110.0</ele><time>2026-04-26T08:24:10.935Z</time></trkpt><trkpt lat="41.2287616" lon="14.5321916"><ele>110.5</ele><time>2026-04-26T08:24:11.937Z</time></trkpt><trkpt lat="41.2288365" lon="14.5320332"><ele>111.0</ele><time>2026-04-26T08:24:12.938Z</time></trkpt><trkpt lat="41.2289281" lon="14.5318948"><ele>110.5</ele><time>2026-04-26T08:24:13.943Z</time></trkpt><trkpt lat="41.2290354" lon="14.5317798"><ele>110.0</ele><time>2026-04-26T08:24:14.934Z</time></trkpt><trkpt lat="41.2291554" lon="14.5316858"><ele>109.5</ele><time>2026-04-26T08:24:15.947Z</time></trkpt><trkpt lat="41.2292806" lon="14.5316064"><ele>109.0</ele><time>2026-04-26T08:24:16.942Z</time></trkpt><trkpt lat="41.2293979" lon="14.5315371"><ele>109.0</ele><time>2026-04-26T08:24:17.938Z</time></trkpt><trkpt lat="41.2295062" lon="14.531472"><ele>109.0</ele><time>2026-04-26T08:24:18.935Z</time></trkpt><trkpt lat="41.2296082" lon="14.5314122"><ele>109.0</ele><time>2026-04-26T08:24:19.934Z</time></trkpt><trkpt lat="41.229708" lon="14.5313555"><ele>109.0</ele><time>2026-04-26T08:24:20.951Z</time></trkpt><trkpt lat="41.2298024" lon="14.5312917"><ele>109.0</ele><time>2026-04-26T08:24:21.943Z</time></trkpt><trkpt lat="41.2298813" lon="14.5312071"><ele>109.2</ele><time>2026-04-26T08:24:22.936Z</time></trkpt><trkpt lat="41.2299383" lon="14.5311015"><ele>109.4</ele><time>2026-04-26T08:24:23.938Z</time></trkpt><trkpt lat="41.2299706" lon="14.5309824"><ele>109.6</ele><time>2026-04-26T08:24:24.945Z</time></trkpt><trkpt lat="41.2299755" lon="14.5308595"><ele>109.8</ele><time>2026-04-26T08:24:25.941Z</time></trkpt><trkpt lat="41.2299545" lon="14.5307425"><ele>110.0</ele><time>2026-04-26T08:24:26.941Z</time></trkpt><trkpt lat="41.2299232" lon="14.5306428"><ele>109.99999999999999</ele><time>2026-04-26T08:24:27.94Z</time></trkpt><trkpt lat="41.2298862" lon="14.530563"><ele>110.0</ele><time>2026-04-26T08:24:28.937Z</time></trkpt><trkpt lat="41.2298391" lon="14.5304868"><ele>110.0</ele><time>2026-04-26T08:24:29.949Z</time></trkpt><trkpt lat="41.2297952" lon="14.5303968"><ele>110.0</ele><time>2026-04-26T08:24:30.959Z</time></trkpt><trkpt lat="41.2297744" lon="14.530287"><ele>109.99999999999999</ele><time>2026-04-26T08:24:31.954Z</time></trkpt><trkpt lat="41.2297836" lon="14.530165"><ele>110.0</ele><time>2026-04-26T08:24:32.946Z</time></trkpt><trkpt lat="41.2298215" lon="14.5300381"><ele>110.25</ele><time>2026-04-26T08:24:33.937Z</time></trkpt><trkpt lat="41.2298871" lon="14.5299102"><ele>110.5</ele><time>2026-04-26T08:24:34.946Z</time></trkpt><trkpt lat="41.229977" lon="14.5297763"><ele>110.75</ele><time>2026-04-26T08:24:35.941Z</time></trkpt><trkpt lat="41.2300856" lon="14.5296298"><ele>111.0</ele><time>2026-04-26T08:24:36.94Z</time></trkpt><trkpt lat="41.2302059" lon="14.5294687"><ele>111.33333333333334</ele><time>2026-04-26T08:24:37.939Z</time></trkpt><trkpt lat="41.2303335" lon="14.5292932"><ele>111.66666666666667</ele><time>2026-04-26T08:24:38.935Z</time></trkpt><trkpt lat="41.2304721" lon="14.5291079"><ele>112.0</ele><time>2026-04-26T08:24:39.94Z</time></trkpt><trkpt lat="41.2306156" lon="14.5289198"><ele>112.0</ele><time>2026-04-26T08:24:40.952Z</time></trkpt><trkpt lat="41.2307635" lon="14.5287241"><ele>112.0</ele><time>2026-04-26T08:24:41.937Z</time></trkpt><trkpt lat="41.2309146" lon="14.5285303"><ele>112.0</ele><time>2026-04-26T08:24:42.941Z</time></trkpt><trkpt lat="41.2310681" lon="14.5283279"><ele>112.0</ele><time>2026-04-26T08:24:43.94Z</time></trkpt><trkpt lat="41.2312266" lon="14.5281227"><ele>112.0</ele><time>2026-04-26T08:24:44.939Z</time></trkpt><trkpt lat="41.2313893" lon="14.5279161"><ele>112.0</ele><time>2026-04-26T08:24:45.947Z</time></trkpt><trkpt lat="41.2315506" lon="14.5277072"><ele>113.0</ele><time>2026-04-26T08:24:46.942Z</time></trkpt><trkpt lat="41.2317128" lon="14.5274988"><ele>114.0</ele><time>2026-04-26T08:24:47.966Z</time></trkpt><trkpt lat="41.2318752" lon="14.5272914"><ele>114.0</ele><time>2026-04-26T08:24:48.969Z</time></trkpt><trkpt lat="41.2320369" lon="14.5270822"><ele>114.0</ele><time>2026-04-26T08:24:49.938Z</time></trkpt><trkpt lat="41.2321978" lon="14.5268738"><ele>114.5</ele><time>2026-04-26T08:24:50.955Z</time></trkpt><trkpt lat="41.2323585" lon="14.526665"><ele>115.0</ele><time>2026-04-26T08:24:51.94Z</time></trkpt><trkpt lat="41.2325193" lon="14.5264536"><ele>115.0</ele><time>2026-04-26T08:24:52.949Z</time></trkpt><trkpt lat="41.232681" lon="14.52624"><ele>115.0</ele><time>2026-04-26T08:24:53.94Z</time></trkpt><trkpt lat="41.232842" lon="14.5260257"><ele>115.0</ele><time>2026-04-26T08:24:54.939Z</time></trkpt><trkpt lat="41.2330046" lon="14.5258134"><ele>115.0</ele><time>2026-04-26T08:24:55.948Z</time></trkpt><trkpt lat="41.2331636" lon="14.525599"><ele>116.33333333333334</ele><time>2026-04-26T08:24:56.939Z</time></trkpt><trkpt lat="41.233315" lon="14.5253765"><ele>117.66666666666666</ele><time>2026-04-26T08:24:57.939Z</time></trkpt><trkpt lat="41.2334612" lon="14.5251511"><ele>119.0</ele><time>2026-04-26T08:24:58.937Z</time></trkpt><trkpt lat="41.2336049" lon="14.5249201"><ele>119.0</ele><time>2026-04-26T08:24:59.946Z</time></trkpt><trkpt lat="41.2337471" lon="14.5246807"><ele>119.0</ele><time>2026-04-26T08:25:00.948Z</time></trkpt><trkpt lat="41.2338852" lon="14.5244319"><ele>117.5</ele><time>2026-04-26T08:25:01.941Z</time></trkpt><trkpt lat="41.2340175" lon="14.524173"><ele>116.0</ele><time>2026-04-26T08:25:02.939Z</time></trkpt><trkpt lat="41.2341456" lon="14.5239061"><ele>116.0</ele><time>2026-04-26T08:25:03.939Z</time></trkpt><trkpt lat="41.2342673" lon="14.5236303"><ele>116.0</ele><time>2026-04-26T08:25:04.942Z</time></trkpt><trkpt lat="41.2343816" lon="14.5233483"><ele>116.0</ele><time>2026-04-26T08:25:05.941Z</time></trkpt><trkpt lat="41.2344876" lon="14.5230612"><ele>116.0</ele><time>2026-04-26T08:25:06.938Z</time></trkpt><trkpt lat="41.2345862" lon="14.5227695"><ele>116.5</ele><time>2026-04-26T08:25:07.939Z</time></trkpt><trkpt lat="41.2346795" lon="14.5224737"><ele>117.0</ele><time>2026-04-26T08:25:08.947Z</time></trkpt><trkpt lat="41.2347657" lon="14.5221749"><ele>118.5</ele><time>2026-04-26T08:25:09.952Z</time></trkpt><trkpt lat="41.2348444" lon="14.5218728"><ele>120.0</ele><time>2026-04-26T08:25:10.937Z</time></trkpt><trkpt lat="41.2349142" lon="14.5215676"><ele>120.0</ele><time>2026-04-26T08:25:11.938Z</time></trkpt><trkpt lat="41.2349831" lon="14.5212635"><ele>120.0</ele><time>2026-04-26T08:25:12.938Z</time></trkpt><trkpt lat="41.2350321" lon="14.5209558"><ele>121.5</ele><time>2026-04-26T08:25:13.945Z</time></trkpt><trkpt lat="41.2350747" lon="14.5206462"><ele>123.0</ele><time>2026-04-26T08:25:14.936Z</time></trkpt><trkpt lat="41.2351094" lon="14.5203332"><ele>123.0</ele><time>2026-04-26T08:25:15.945Z</time></trkpt><trkpt lat="41.2351362" lon="14.5200182"><ele>123.0</ele><time>2026-04-26T08:25:16.944Z</time></trkpt><trkpt lat="41.2351499" lon="14.5197033"><ele>123.0</ele><time>2026-04-26T08:25:17.937Z</time></trkpt><trkpt lat="41.2351608" lon="14.5193838"><ele>123.0</ele><time>2026-04-26T08:25:18.947Z</time></trkpt><trkpt lat="41.2351653" lon="14.5190637"><ele>123.0</ele><time>2026-04-26T08:25:19.947Z</time></trkpt><trkpt lat="41.235164" lon="14.5187438"><ele>123.0</ele><time>2026-04-26T08:25:20.933Z</time></trkpt><trkpt lat="41.2351527" lon="14.5184229"><ele>120.0</ele><time>2026-04-26T08:25:21.945Z</time></trkpt><trkpt lat="41.2351317" lon="14.5181023"><ele>117.0</ele><time>2026-04-26T08:25:22.965Z</time></trkpt><trkpt lat="41.2351025" lon="14.5177818"><ele>115.5</ele><time>2026-04-26T08:25:23.932Z</time></trkpt><trkpt lat="41.2350654" lon="14.517463"><ele>114.0</ele><time>2026-04-26T08:25:24.937Z</time></trkpt><trkpt lat="41.2350201" lon="14.5171447"><ele>113.0</ele><time>2026-04-26T08:25:25.933Z</time></trkpt><trkpt lat="41.2349711" lon="14.5168343"><ele>112.0</ele><time>2026-04-26T08:25:26.942Z</time></trkpt><trkpt lat="41.2349052" lon="14.5165206"><ele>111.5</ele><time>2026-04-26T08:25:27.94Z</time></trkpt><trkpt lat="41.2348337" lon="14.5162099"><ele>111.0</ele><time>2026-04-26T08:25:28.934Z</time></trkpt><trkpt lat="41.2347527" lon="14.5159051"><ele>111.5</ele><time>2026-04-26T08:25:29.939Z</time></trkpt><trkpt lat="41.2346659" lon="14.5156072"><ele>112.0</ele><time>2026-04-26T08:25:30.939Z</time></trkpt><trkpt lat="41.2345732" lon="14.515317"><ele>112.0</ele><time>2026-04-26T08:25:31.953Z</time></trkpt><trkpt lat="41.2344717" lon="14.5150356"><ele>112.0</ele><time>2026-04-26T08:25:32.952Z</time></trkpt><trkpt lat="41.2343642" lon="14.5147587"><ele>108.0</ele><time>2026-04-26T08:25:33.942Z</time></trkpt><trkpt lat="41.2342519" lon="14.5144836"><ele>104.0</ele><time>2026-04-26T08:25:34.935Z</time></trkpt><trkpt lat="41.2341334" lon="14.5142118"><ele>104.0</ele><time>2026-04-26T08:25:35.946Z</time></trkpt><trkpt lat="41.2340129" lon="14.513939"><ele>104.0</ele><time>2026-04-26T08:25:36.934Z</time></trkpt><trkpt lat="41.2338856" lon="14.513668"><ele>104.0</ele><time>2026-04-26T08:25:37.934Z</time></trkpt><trkpt lat="41.2337558" lon="14.5133966"><ele>104.0</ele><time>2026-04-26T08:25:38.935Z</time></trkpt><trkpt lat="41.2336266" lon="14.5131207"><ele>101.0</ele><time>2026-04-26T08:25:39.936Z</time></trkpt><trkpt lat="41.2335029" lon="14.5128443"><ele>98.0</ele><time>2026-04-26T08:25:40.956Z</time></trkpt><trkpt lat="41.2333822" lon="14.5125637"><ele>98.0</ele><time>2026-04-26T08:25:41.949Z</time></trkpt><trkpt lat="41.2332662" lon="14.5122799"><ele>98.0</ele><time>2026-04-26T08:25:42.941Z</time></trkpt><trkpt lat="41.2331614" lon="14.5119909"><ele>96.5</ele><time>2026-04-26T08:25:43.936Z</time></trkpt><trkpt lat="41.2330654" lon="14.511696"><ele>95.0</ele><time>2026-04-26T08:25:44.94Z</time></trkpt><trkpt lat="41.2329769" lon="14.5113977"><ele>91.5</ele><time>2026-04-26T08:25:45.938Z</time></trkpt><trkpt lat="41.232896" lon="14.5110969"><ele>88.0</ele><time>2026-04-26T08:25:46.935Z</time></trkpt><trkpt lat="41.2328245" lon="14.5107928"><ele>88.0</ele><time>2026-04-26T08:25:47.938Z</time></trkpt><trkpt lat="41.232763" lon="14.5104867"><ele>88.0</ele><time>2026-04-26T08:25:48.941Z</time></trkpt><trkpt lat="41.2327087" lon="14.5101787"><ele>85.5</ele><time>2026-04-26T08:25:49.944Z</time></trkpt><trkpt lat="41.2326578" lon="14.509868"><ele>83.0</ele><time>2026-04-26T08:25:50.937Z</time></trkpt><trkpt lat="41.2326071" lon="14.5095583"><ele>82.0</ele><time>2026-04-26T08:25:51.933Z</time></trkpt><trkpt lat="41.232554" lon="14.509249"><ele>81.0</ele><time>2026-04-26T08:25:52.935Z</time></trkpt><trkpt lat="41.232498" lon="14.5089402"><ele>80.5</ele><time>2026-04-26T08:25:53.937Z</time></trkpt><trkpt lat="41.2324408" lon="14.508632"><ele>80.0</ele><time>2026-04-26T08:25:54.96Z</time></trkpt><trkpt lat="41.2323797" lon="14.5083218"><ele>80.0</ele><time>2026-04-26T08:25:55.937Z</time></trkpt><trkpt lat="41.2323095" lon="14.5080131"><ele>80.0</ele><time>2026-04-26T08:25:56.94Z</time></trkpt><trkpt lat="41.232227" lon="14.5077083"><ele>79.5</ele><time>2026-04-26T08:25:57.943Z</time></trkpt><trkpt lat="41.2321333" lon="14.5074082"><ele>79.0</ele><time>2026-04-26T08:25:58.941Z</time></trkpt><trkpt lat="41.2320311" lon="14.5071111"><ele>80.0</ele><time>2026-04-26T08:25:59.94Z</time></trkpt><trkpt lat="41.2319242" lon="14.5068172"><ele>81.0</ele><time>2026-04-26T08:26:00.934Z</time></trkpt><trkpt lat="41.2318122" lon="14.5065247"><ele>81.5</ele><time>2026-04-26T08:26:01.943Z</time></trkpt><trkpt lat="41.2316976" lon="14.506233"><ele>82.0</ele><time>2026-04-26T08:26:02.962Z</time></trkpt><trkpt lat="41.2315832" lon="14.5059395"><ele>80.5</ele><time>2026-04-26T08:26:03.942Z</time></trkpt><trkpt lat="41.2314696" lon="14.5056448"><ele>79.0</ele><time>2026-04-26T08:26:04.948Z</time></trkpt><trkpt lat="41.2313557" lon="14.50535"><ele>79.0</ele><time>2026-04-26T08:26:05.944Z</time></trkpt><trkpt lat="41.23124" lon="14.5050562"><ele>79.0</ele><time>2026-04-26T08:26:06.949Z</time></trkpt><trkpt lat="41.2311233" lon="14.5047631"><ele>80.0</ele><time>2026-04-26T08:26:07.975Z</time></trkpt><trkpt lat="41.2310068" lon="14.5044694"><ele>81.0</ele><time>2026-04-26T08:26:08.957Z</time></trkpt><trkpt lat="41.2308915" lon="14.5041755"><ele>81.0</ele><time>2026-04-26T08:26:09.95Z</time></trkpt><trkpt lat="41.2307775" lon="14.5038816"><ele>81.0</ele><time>2026-04-26T08:26:10.942Z</time></trkpt><trkpt lat="41.2306631" lon="14.5035897"><ele>80.5</ele><time>2026-04-26T08:26:11.968Z</time></trkpt><trkpt lat="41.2305482" lon="14.5033018"><ele>80.0</ele><time>2026-04-26T08:26:12.946Z</time></trkpt><trkpt lat="41.2304348" lon="14.5030171"><ele>80.5</ele><time>2026-04-26T08:26:13.954Z</time></trkpt><trkpt lat="41.2303236" lon="14.5027351"><ele>81.0</ele><time>2026-04-26T08:26:14.944Z</time></trkpt><trkpt lat="41.2302151" lon="14.5024546"><ele>81.0</ele><time>2026-04-26T08:26:15.937Z</time></trkpt><trkpt lat="41.2301112" lon="14.5021737"><ele>81.0</ele><time>2026-04-26T08:26:16.947Z</time></trkpt><trkpt lat="41.2300118" lon="14.5018908"><ele>82.0</ele><time>2026-04-26T08:26:17.948Z</time></trkpt><trkpt lat="41.2299171" lon="14.5016069"><ele>83.0</ele><time>2026-04-26T08:26:18.945Z</time></trkpt><trkpt lat="41.2298258" lon="14.5013212"><ele>82.0</ele><time>2026-04-26T08:26:19.941Z</time></trkpt><trkpt lat="41.2297379" lon="14.5010314"><ele>81.0</ele><time>2026-04-26T08:26:20.947Z</time></trkpt><trkpt lat="41.2296561" lon="14.5007365"><ele>81.0</ele><time>2026-04-26T08:26:21.943Z</time></trkpt><trkpt lat="41.2295796" lon="14.5004378"><ele>81.0</ele><time>2026-04-26T08:26:22.947Z</time></trkpt><trkpt lat="41.2295095" lon="14.5001361"><ele>80.5</ele><time>2026-04-26T08:26:23.954Z</time></trkpt><trkpt lat="41.2294472" lon="14.4998369"><ele>80.0</ele><time>2026-04-26T08:26:24.942Z</time></trkpt><trkpt lat="41.2293931" lon="14.4995406"><ele>80.0</ele><time>2026-04-26T08:26:25.939Z</time></trkpt><trkpt lat="41.2293454" lon="14.499248"><ele>80.0</ele><time>2026-04-26T08:26:26.936Z</time></trkpt><trkpt lat="41.2293021" lon="14.4989599"><ele>80.0</ele><time>2026-04-26T08:26:27.963Z</time></trkpt><trkpt lat="41.2292637" lon="14.4986765"><ele>80.0</ele><time>2026-04-26T08:26:28.95Z</time></trkpt><trkpt lat="41.229229" lon="14.4983951"><ele>80.0</ele><time>2026-04-26T08:26:29.94Z</time></trkpt><trkpt lat="41.2291967" lon="14.4981151"><ele>80.0</ele><time>2026-04-26T08:26:30.934Z</time></trkpt><trkpt lat="41.2291671" lon="14.4978366"><ele>80.0</ele><time>2026-04-26T08:26:31.94Z</time></trkpt><trkpt lat="41.2291399" lon="14.4975587"><ele>80.0</ele><time>2026-04-26T08:26:32.938Z</time></trkpt><trkpt lat="41.2291141" lon="14.4972799"><ele>80.0</ele><time>2026-04-26T08:26:33.937Z</time></trkpt><trkpt lat="41.2290899" lon="14.4969988"><ele>80.66666666666667</ele><time>2026-04-26T08:26:34.964Z</time></trkpt><trkpt lat="41.2290698" lon="14.4967144"><ele>81.33333333333333</ele><time>2026-04-26T08:26:35.947Z</time></trkpt><trkpt lat="41.229053" lon="14.4964278"><ele>82.0</ele><time>2026-04-26T08:26:36.947Z</time></trkpt><trkpt lat="41.2290379" lon="14.4961384"><ele>82.0</ele><time>2026-04-26T08:26:37.937Z</time></trkpt><trkpt lat="41.2290255" lon="14.4958464"><ele>82.0</ele><time>2026-04-26T08:26:38.938Z</time></trkpt><trkpt lat="41.2290173" lon="14.4955516"><ele>82.0</ele><time>2026-04-26T08:26:39.955Z</time></trkpt><trkpt lat="41.2290123" lon="14.4952547"><ele>81.0</ele><time>2026-04-26T08:26:40.949Z</time></trkpt><trkpt lat="41.2290091" lon="14.4949557"><ele>80.0</ele><time>2026-04-26T08:26:41.943Z</time></trkpt><trkpt lat="41.2290088" lon="14.4946553"><ele>80.0</ele><time>2026-04-26T08:26:42.928Z</time></trkpt><trkpt lat="41.2290117" lon="14.4943545"><ele>80.0</ele><time>2026-04-26T08:26:43.94Z</time></trkpt><trkpt lat="41.2290174" lon="14.494054"><ele>80.0</ele><time>2026-04-26T08:26:44.94Z</time></trkpt><trkpt lat="41.2290263" lon="14.4937541"><ele>80.0</ele><time>2026-04-26T08:26:45.938Z</time></trkpt><trkpt lat="41.2290381" lon="14.4934549"><ele>80.0</ele><time>2026-04-26T08:26:46.933Z</time></trkpt><trkpt lat="41.2290528" lon="14.493156"><ele>80.0</ele><time>2026-04-26T08:26:47.946Z</time></trkpt><trkpt lat="41.229071" lon="14.4928578"><ele>80.66666666666667</ele><time>2026-04-26T08:26:48.935Z</time></trkpt><trkpt lat="41.2290926" lon="14.4925614"><ele>81.33333333333333</ele><time>2026-04-26T08:26:49.947Z</time></trkpt><trkpt lat="41.2291162" lon="14.4922663"><ele>82.0</ele><time>2026-04-26T08:26:50.957Z</time></trkpt><trkpt lat="41.22914" lon="14.4919734"><ele>82.33333333333333</ele><time>2026-04-26T08:26:51.949Z</time></trkpt><trkpt lat="41.2291656" lon="14.4916843"><ele>82.66666666666667</ele><time>2026-04-26T08:26:52.931Z</time></trkpt><trkpt lat="41.2291958" lon="14.4913985"><ele>83.0</ele><time>2026-04-26T08:26:53.939Z</time></trkpt><trkpt lat="41.2292302" lon="14.4911174"><ele>83.33333333333334</ele><time>2026-04-26T08:26:54.94Z</time></trkpt><trkpt lat="41.2292653" lon="14.4908409"><ele>83.66666666666667</ele><time>2026-04-26T08:26:55.929Z</time></trkpt><trkpt lat="41.2293009" lon="14.4905674"><ele>84.0</ele><time>2026-04-26T08:26:56.936Z</time></trkpt><trkpt lat="41.2293385" lon="14.4902946"><ele>84.33333333333333</ele><time>2026-04-26T08:26:57.935Z</time></trkpt><trkpt lat="41.2293755" lon="14.4900394"><ele>84.66666666666666</ele><time>2026-04-26T08:26:58.936Z</time></trkpt><trkpt lat="41.2294155" lon="14.4897741"><ele>85.0</ele><time>2026-04-26T08:26:59.941Z</time></trkpt><trkpt lat="41.2294613" lon="14.4895036"><ele>86.0</ele><time>2026-04-26T08:27:00.938Z</time></trkpt><trkpt lat="41.2295131" lon="14.4892315"><ele>87.0</ele><time>2026-04-26T08:27:01.938Z</time></trkpt><trkpt lat="41.2295662" lon="14.4889591"><ele>88.0</ele><time>2026-04-26T08:27:02.94Z</time></trkpt><trkpt lat="41.2296196" lon="14.4886888"><ele>88.0</ele><time>2026-04-26T08:27:03.948Z</time></trkpt><trkpt lat="41.2296773" lon="14.4884155"><ele>88.0</ele><time>2026-04-26T08:27:04.934Z</time></trkpt><trkpt lat="41.2297383" lon="14.4881403"><ele>88.0</ele><time>2026-04-26T08:27:05.937Z</time></trkpt><trkpt lat="41.2298038" lon="14.4878621"><ele>88.0</ele><time>2026-04-26T08:27:06.937Z</time></trkpt><trkpt lat="41.229871" lon="14.4875834"><ele>88.0</ele><time>2026-04-26T08:27:07.931Z</time></trkpt><trkpt lat="41.2299442" lon="14.4873051"><ele>88.0</ele><time>2026-04-26T08:27:08.936Z</time></trkpt><trkpt lat="41.2300198" lon="14.4870259"><ele>90.0</ele><time>2026-04-26T08:27:09.942Z</time></trkpt><trkpt lat="41.2300977" lon="14.4867468"><ele>92.0</ele><time>2026-04-26T08:27:10.936Z</time></trkpt><trkpt lat="41.2301794" lon="14.4864661"><ele>93.5</ele><time>2026-04-26T08:27:11.939Z</time></trkpt><trkpt lat="41.2302628" lon="14.4861837"><ele>95.0</ele><time>2026-04-26T08:27:12.936Z</time></trkpt><trkpt lat="41.2303494" lon="14.4859027"><ele>95.0</ele><time>2026-04-26T08:27:13.94Z</time></trkpt><trkpt lat="41.2304379" lon="14.4856208"><ele>95.0</ele><time>2026-04-26T08:27:14.937Z</time></trkpt><trkpt lat="41.2305255" lon="14.4853387"><ele>95.0</ele><time>2026-04-26T08:27:15.933Z</time></trkpt><trkpt lat="41.2306145" lon="14.4850586"><ele>95.0</ele><time>2026-04-26T08:27:16.938Z</time></trkpt><trkpt lat="41.2307026" lon="14.4847793"><ele>96.5</ele><time>2026-04-26T08:27:17.94Z</time></trkpt><trkpt lat="41.2307892" lon="14.4845014"><ele>98.0</ele><time>2026-04-26T08:27:18.938Z</time></trkpt><trkpt lat="41.2308754" lon="14.4842253"><ele>98.0</ele><time>2026-04-26T08:27:19.945Z</time></trkpt><trkpt lat="41.2309602" lon="14.483952"><ele>98.0</ele><time>2026-04-26T08:27:20.929Z</time></trkpt><trkpt lat="41.2310451" lon="14.4836805"><ele>98.0</ele><time>2026-04-26T08:27:21.934Z</time></trkpt><trkpt lat="41.2311305" lon="14.4834109"><ele>98.66666666666666</ele><time>2026-04-26T08:27:22.951Z</time></trkpt><trkpt lat="41.2312159" lon="14.4831435"><ele>99.33333333333334</ele><time>2026-04-26T08:27:23.928Z</time></trkpt><trkpt lat="41.2313014" lon="14.4828838"><ele>100.0</ele><time>2026-04-26T08:27:24.938Z</time></trkpt><trkpt lat="41.2313893" lon="14.4826134"><ele>100.66666666666667</ele><time>2026-04-26T08:27:25.933Z</time></trkpt><trkpt lat="41.23147" lon="14.482353"><ele>101.33333333333334</ele><time>2026-04-26T08:27:26.935Z</time></trkpt><trkpt lat="41.2315536" lon="14.482094"><ele>102.0</ele><time>2026-04-26T08:27:27.932Z</time></trkpt><trkpt lat="41.2316375" lon="14.4818308"><ele>102.33333333333334</ele><time>2026-04-26T08:27:28.938Z</time></trkpt><trkpt lat="41.2317201" lon="14.4815658"><ele>102.66666666666667</ele><time>2026-04-26T08:27:29.935Z</time></trkpt><trkpt lat="41.2318041" lon="14.4812998"><ele>103.0</ele><time>2026-04-26T08:27:30.934Z</time></trkpt><trkpt lat="41.2318878" lon="14.4810321"><ele>102.33333333333334</ele><time>2026-04-26T08:27:31.941Z</time></trkpt><trkpt lat="41.2319731" lon="14.4807656"><ele>101.66666666666666</ele><time>2026-04-26T08:27:32.937Z</time></trkpt><trkpt lat="41.2320562" lon="14.4804978"><ele>101.0</ele><time>2026-04-26T08:27:33.938Z</time></trkpt><trkpt lat="41.2321372" lon="14.4802353"><ele>100.66666666666666</ele><time>2026-04-26T08:27:34.941Z</time></trkpt><trkpt lat="41.2322183" lon="14.4799733"><ele>100.33333333333334</ele><time>2026-04-26T08:27:35.939Z</time></trkpt><trkpt lat="41.2323" lon="14.4797153"><ele>100.0</ele><time>2026-04-26T08:27:36.958Z</time></trkpt><trkpt lat="41.2323809" lon="14.4794589"><ele>100.0</ele><time>2026-04-26T08:27:37.943Z</time></trkpt><trkpt lat="41.2324612" lon="14.4792071"><ele>100.0</ele><time>2026-04-26T08:27:38.938Z</time></trkpt><trkpt lat="41.2325428" lon="14.4789573"><ele>100.0</ele><time>2026-04-26T08:27:39.936Z</time></trkpt><trkpt lat="41.2326249" lon="14.4787059"><ele>99.33333333333334</ele><time>2026-04-26T08:27:40.943Z</time></trkpt><trkpt lat="41.232707" lon="14.4784486"><ele>98.66666666666666</ele><time>2026-04-26T08:27:41.947Z</time></trkpt><trkpt lat="41.2327904" lon="14.478204"><ele>98.0</ele><time>2026-04-26T08:27:42.942Z</time></trkpt><trkpt lat="41.2328698" lon="14.4779512"><ele>97.0</ele><time>2026-04-26T08:27:43.943Z</time></trkpt><trkpt lat="41.2329464" lon="14.4776988"><ele>96.0</ele><time>2026-04-26T08:27:44.936Z</time></trkpt><trkpt lat="41.2330237" lon="14.4774477"><ele>95.0</ele><time>2026-04-26T08:27:45.947Z</time></trkpt><trkpt lat="41.2331009" lon="14.477195"><ele>96.33333333333334</ele><time>2026-04-26T08:27:46.939Z</time></trkpt><trkpt lat="41.2331786" lon="14.4769421"><ele>97.66666666666667</ele><time>2026-04-26T08:27:47.939Z</time></trkpt><trkpt lat="41.2332576" lon="14.4766885"><ele>99.0</ele><time>2026-04-26T08:27:48.939Z</time></trkpt><trkpt lat="41.2333366" lon="14.4764351"><ele>98.0</ele><time>2026-04-26T08:27:49.933Z</time></trkpt><trkpt lat="41.2334126" lon="14.4761821"><ele>97.0</ele><time>2026-04-26T08:27:50.94Z</time></trkpt><trkpt lat="41.2334922" lon="14.4759284"><ele>96.0</ele><time>2026-04-26T08:27:51.931Z</time></trkpt><trkpt lat="41.2335731" lon="14.4756751"><ele>95.33333333333333</ele><time>2026-04-26T08:27:52.937Z</time></trkpt><trkpt lat="41.2336541" lon="14.4754229"><ele>94.66666666666666</ele><time>2026-04-26T08:27:53.936Z</time></trkpt><trkpt lat="41.2337344" lon="14.4751722"><ele>94.0</ele><time>2026-04-26T08:27:54.949Z</time></trkpt><trkpt lat="41.2338135" lon="14.4749194"><ele>94.0</ele><time>2026-04-26T08:27:55.936Z</time></trkpt><trkpt lat="41.2338903" lon="14.4746659"><ele>94.0</ele><time>2026-04-26T08:27:56.935Z</time></trkpt><trkpt lat="41.2339668" lon="14.4744147"><ele>94.0</ele><time>2026-04-26T08:27:57.937Z</time></trkpt><trkpt lat="41.234044" lon="14.4741723"><ele>94.0</ele><time>2026-04-26T08:27:58.935Z</time></trkpt><trkpt lat="41.2341216" lon="14.4739285"><ele>94.0</ele><time>2026-04-26T08:27:59.933Z</time></trkpt><trkpt lat="41.2341969" lon="14.4736905"><ele>94.0</ele><time>2026-04-26T08:28:00.938Z</time></trkpt><trkpt lat="41.2342691" lon="14.473456"><ele>93.33333333333333</ele><time>2026-04-26T08:28:01.936Z</time></trkpt><trkpt lat="41.2343414" lon="14.4732218"><ele>92.66666666666667</ele><time>2026-04-26T08:28:02.932Z</time></trkpt><trkpt lat="41.234413" lon="14.4729922"><ele>92.0</ele><time>2026-04-26T08:28:03.935Z</time></trkpt><trkpt lat="41.2344833" lon="14.4727665"><ele>91.66666666666667</ele><time>2026-04-26T08:28:04.948Z</time></trkpt><trkpt lat="41.2345525" lon="14.4725486"><ele>91.33333333333333</ele><time>2026-04-26T08:28:05.94Z</time></trkpt><trkpt lat="41.2346189" lon="14.4723371"><ele>91.0</ele><time>2026-04-26T08:28:06.931Z</time></trkpt><trkpt lat="41.2346871" lon="14.4721284"><ele>91.0</ele><time>2026-04-26T08:28:07.944Z</time></trkpt><trkpt lat="41.2347518" lon="14.4719243"><ele>91.0</ele><time>2026-04-26T08:28:08.953Z</time></trkpt><trkpt lat="41.2348151" lon="14.4717175"><ele>91.0</ele><time>2026-04-26T08:28:09.939Z</time></trkpt><trkpt lat="41.2348796" lon="14.4715153"><ele>91.33333333333333</ele><time>2026-04-26T08:28:10.947Z</time></trkpt><trkpt lat="41.2349425" lon="14.4713139"><ele>91.66666666666667</ele><time>2026-04-26T08:28:11.95Z</time></trkpt><trkpt lat="41.2350032" lon="14.4711106"><ele>92.0</ele><time>2026-04-26T08:28:12.937Z</time></trkpt><trkpt lat="41.2350673" lon="14.4709101"><ele>91.33333333333334</ele><time>2026-04-26T08:28:13.945Z</time></trkpt><trkpt lat="41.2351302" lon="14.4707122"><ele>90.66666666666667</ele><time>2026-04-26T08:28:14.945Z</time></trkpt><trkpt lat="41.2351901" lon="14.4705194"><ele>90.0</ele><time>2026-04-26T08:28:15.941Z</time></trkpt><trkpt lat="41.2352498" lon="14.4703365"><ele>89.25</ele><time>2026-04-26T08:28:16.937Z</time></trkpt><trkpt lat="41.2353053" lon="14.4701613"><ele>88.5</ele><time>2026-04-26T08:28:17.942Z</time></trkpt><trkpt lat="41.2353591" lon="14.46999"><ele>87.75</ele><time>2026-04-26T08:28:18.943Z</time></trkpt><trkpt lat="41.2354128" lon="14.4698121"><ele>87.0</ele><time>2026-04-26T08:28:19.946Z</time></trkpt><trkpt lat="41.2354705" lon="14.4696301"><ele>87.33333333333333</ele><time>2026-04-26T08:28:20.943Z</time></trkpt><trkpt lat="41.2355303" lon="14.4694431"><ele>87.66666666666666</ele><time>2026-04-26T08:28:21.938Z</time></trkpt><trkpt lat="41.2355905" lon="14.4692521"><ele>88.0</ele><time>2026-04-26T08:28:22.941Z</time></trkpt><trkpt lat="41.235653" lon="14.4690532"><ele>88.0</ele><time>2026-04-26T08:28:23.943Z</time></trkpt><trkpt lat="41.2357167" lon="14.4688407"><ele>88.0</ele><time>2026-04-26T08:28:24.943Z</time></trkpt><trkpt lat="41.2357843" lon="14.4686182"><ele>88.0</ele><time>2026-04-26T08:28:25.947Z</time></trkpt><trkpt lat="41.2358538" lon="14.4683884"><ele>88.33333333333333</ele><time>2026-04-26T08:28:26.941Z</time></trkpt><trkpt lat="41.2359266" lon="14.4681565"><ele>88.66666666666667</ele><time>2026-04-26T08:28:27.941Z</time></trkpt><trkpt lat="41.2360015" lon="14.4679215"><ele>89.0</ele><time>2026-04-26T08:28:28.947Z</time></trkpt><trkpt lat="41.2360757" lon="14.4676852"><ele>89.0</ele><time>2026-04-26T08:28:29.937Z</time></trkpt><trkpt lat="41.2361515" lon="14.4674495"><ele>89.0</ele><time>2026-04-26T08:28:30.945Z</time></trkpt><trkpt lat="41.2362271" lon="14.467213"><ele>89.0</ele><time>2026-04-26T08:28:31.949Z</time></trkpt><trkpt lat="41.2363021" lon="14.4669766"><ele>88.33333333333334</ele><time>2026-04-26T08:28:32.944Z</time></trkpt><trkpt lat="41.236378" lon="14.4667402"><ele>87.66666666666667</ele><time>2026-04-26T08:28:33.947Z</time></trkpt><trkpt lat="41.2364532" lon="14.4665037"><ele>87.0</ele><time>2026-04-26T08:28:34.942Z</time></trkpt><trkpt lat="41.2365272" lon="14.4662666"><ele>88.66666666666667</ele><time>2026-04-26T08:28:35.946Z</time></trkpt><trkpt lat="41.2366013" lon="14.4660304"><ele>90.33333333333334</ele><time>2026-04-26T08:28:36.932Z</time></trkpt><trkpt lat="41.2366763" lon="14.4657951"><ele>92.0</ele><time>2026-04-26T08:28:37.944Z</time></trkpt><trkpt lat="41.2367513" lon="14.4655604"><ele>91.66666666666667</ele><time>2026-04-26T08:28:38.939Z</time></trkpt><trkpt lat="41.2368261" lon="14.4653258"><ele>91.33333333333333</ele><time>2026-04-26T08:28:39.941Z</time></trkpt><trkpt lat="41.2369002" lon="14.4650907"><ele>91.0</ele><time>2026-04-26T08:28:40.945Z</time></trkpt><trkpt lat="41.2369728" lon="14.4648542"><ele>91.0</ele><time>2026-04-26T08:28:41.946Z</time></trkpt><trkpt lat="41.2370448" lon="14.4646179"><ele>91.0</ele><time>2026-04-26T08:28:42.942Z</time></trkpt><trkpt lat="41.2371167" lon="14.4643798"><ele>91.0</ele><time>2026-04-26T08:28:43.943Z</time></trkpt><trkpt lat="41.23719" lon="14.4641432"><ele>89.66666666666666</ele><time>2026-04-26T08:28:44.95Z</time></trkpt><trkpt lat="41.2372634" lon="14.4639069"><ele>88.33333333333333</ele><time>2026-04-26T08:28:45.934Z</time></trkpt><trkpt lat="41.2373363" lon="14.4636699"><ele>87.0</ele><time>2026-04-26T08:28:46.943Z</time></trkpt><trkpt lat="41.2374104" lon="14.4634332"><ele>86.33333333333333</ele><time>2026-04-26T08:28:47.942Z</time></trkpt><trkpt lat="41.2374855" lon="14.463197"><ele>85.66666666666666</ele><time>2026-04-26T08:28:48.937Z</time></trkpt><trkpt lat="41.2375606" lon="14.4629614"><ele>85.0</ele><time>2026-04-26T08:28:49.933Z</time></trkpt><trkpt lat="41.2376362" lon="14.4627258"><ele>85.0</ele><time>2026-04-26T08:28:50.95Z</time></trkpt><trkpt lat="41.2377121" lon="14.4624903"><ele>85.0</ele><time>2026-04-26T08:28:51.944Z</time></trkpt><trkpt lat="41.237787" lon="14.4622557"><ele>85.0</ele><time>2026-04-26T08:28:52.937Z</time></trkpt><trkpt lat="41.2378609" lon="14.4620205"><ele>85.0</ele><time>2026-04-26T08:28:53.94Z</time></trkpt><trkpt lat="41.237934" lon="14.4617842"><ele>85.0</ele><time>2026-04-26T08:28:54.946Z</time></trkpt><trkpt lat="41.2380077" lon="14.4615482"><ele>85.0</ele><time>2026-04-26T08:28:55.939Z</time></trkpt><trkpt lat="41.2380834" lon="14.4613098"><ele>85.66666666666666</ele><time>2026-04-26T08:28:56.933Z</time></trkpt><trkpt lat="41.2381621" lon="14.4610657"><ele>86.33333333333333</ele><time>2026-04-26T08:28:57.938Z</time></trkpt><trkpt lat="41.2382415" lon="14.4608189"><ele>87.0</ele><time>2026-04-26T08:28:58.94Z</time></trkpt><trkpt lat="41.2383204" lon="14.4605699"><ele>86.0</ele><time>2026-04-26T08:28:59.935Z</time></trkpt><trkpt lat="41.2384001" lon="14.4603145"><ele>85.0</ele><time>2026-04-26T08:29:00.941Z</time></trkpt><trkpt lat="41.238481" lon="14.4600534"><ele>84.0</ele><time>2026-04-26T08:29:01.95Z</time></trkpt><trkpt lat="41.2385643" lon="14.4597863"><ele>84.33333333333333</ele><time>2026-04-26T08:29:02.937Z</time></trkpt><trkpt lat="41.2386484" lon="14.4595133"><ele>84.66666666666666</ele><time>2026-04-26T08:29:03.936Z</time></trkpt><trkpt lat="41.2387348" lon="14.4592359"><ele>85.0</ele><time>2026-04-26T08:29:04.937Z</time></trkpt><trkpt lat="41.2388197" lon="14.4589587"><ele>84.5</ele><time>2026-04-26T08:29:05.935Z</time></trkpt><trkpt lat="41.2389067" lon="14.4586827"><ele>84.0</ele><time>2026-04-26T08:29:06.947Z</time></trkpt><trkpt lat="41.2389944" lon="14.4584052"><ele>84.0</ele><time>2026-04-26T08:29:07.938Z</time></trkpt><trkpt lat="41.2390822" lon="14.4581262"><ele>84.0</ele><time>2026-04-26T08:29:08.938Z</time></trkpt><trkpt lat="41.2391702" lon="14.4578463"><ele>82.0</ele><time>2026-04-26T08:29:09.945Z</time></trkpt><trkpt lat="41.2392581" lon="14.4575649"><ele>80.0</ele><time>2026-04-26T08:29:10.933Z</time></trkpt><trkpt lat="41.239346" lon="14.4572832"><ele>80.0</ele><time>2026-04-26T08:29:11.937Z</time></trkpt><trkpt lat="41.239434" lon="14.4569999"><ele>80.0</ele><time>2026-04-26T08:29:12.939Z</time></trkpt><trkpt lat="41.2395225" lon="14.456716"><ele>80.0</ele><time>2026-04-26T08:29:13.936Z</time></trkpt><trkpt lat="41.2396116" lon="14.4564319"><ele>80.0</ele><time>2026-04-26T08:29:14.945Z</time></trkpt><trkpt lat="41.2397018" lon="14.4561479"><ele>80.0</ele><time>2026-04-26T08:29:15.936Z</time></trkpt><trkpt lat="41.239792" lon="14.4558629"><ele>80.0</ele><time>2026-04-26T08:29:16.937Z</time></trkpt><trkpt lat="41.2398818" lon="14.4555772"><ele>80.0</ele><time>2026-04-26T08:29:17.938Z</time></trkpt><trkpt lat="41.2399709" lon="14.4552919"><ele>80.0</ele><time>2026-04-26T08:29:18.943Z</time></trkpt><trkpt lat="41.2400592" lon="14.4550105"><ele>80.0</ele><time>2026-04-26T08:29:19.938Z</time></trkpt><trkpt lat="41.2401453" lon="14.4547375"><ele>80.0</ele><time>2026-04-26T08:29:20.944Z</time></trkpt><trkpt lat="41.2402304" lon="14.4544703"><ele>80.0</ele><time>2026-04-26T08:29:21.965Z</time></trkpt><trkpt lat="41.2403138" lon="14.4542075"><ele>79.33333333333334</ele><time>2026-04-26T08:29:22.966Z</time></trkpt><trkpt lat="41.2403953" lon="14.4539477"><ele>78.66666666666667</ele><time>2026-04-26T08:29:23.939Z</time></trkpt><trkpt lat="41.2404754" lon="14.4536898"><ele>78.0</ele><time>2026-04-26T08:29:24.943Z</time></trkpt><trkpt lat="41.2405555" lon="14.4534339"><ele>77.66666666666667</ele><time>2026-04-26T08:29:25.945Z</time></trkpt><trkpt lat="41.2406365" lon="14.4531786"><ele>77.33333333333334</ele><time>2026-04-26T08:29:26.942Z</time></trkpt><trkpt lat="41.2407175" lon="14.4529229"><ele>77.0</ele><time>2026-04-26T08:29:27.939Z</time></trkpt><trkpt lat="41.2407986" lon="14.4526664"><ele>77.0</ele><time>2026-04-26T08:29:28.939Z</time></trkpt><trkpt lat="41.24088" lon="14.4524091"><ele>77.0</ele><time>2026-04-26T08:29:29.949Z</time></trkpt><trkpt lat="41.2409616" lon="14.4521505"><ele>77.0</ele><time>2026-04-26T08:29:30.939Z</time></trkpt><trkpt lat="41.2410431" lon="14.4518898"><ele>76.66666666666667</ele><time>2026-04-26T08:29:31.942Z</time></trkpt><trkpt lat="41.2411246" lon="14.4516286"><ele>76.33333333333333</ele><time>2026-04-26T08:29:32.932Z</time></trkpt><trkpt lat="41.2412057" lon="14.4513654"><ele>76.0</ele><time>2026-04-26T08:29:33.937Z</time></trkpt><trkpt lat="41.2412869" lon="14.4511013"><ele>75.33333333333333</ele><time>2026-04-26T08:29:34.94Z</time></trkpt><trkpt lat="41.2413683" lon="14.4508368"><ele>74.66666666666667</ele><time>2026-04-26T08:29:35.938Z</time></trkpt><trkpt lat="41.2414503" lon="14.4505729"><ele>74.0</ele><time>2026-04-26T08:29:36.943Z</time></trkpt><trkpt lat="41.241532" lon="14.4503082"><ele>73.66666666666667</ele><time>2026-04-26T08:29:37.944Z</time></trkpt><trkpt lat="41.2416132" lon="14.4500434"><ele>73.33333333333333</ele><time>2026-04-26T08:29:38.935Z</time></trkpt><trkpt lat="41.2416942" lon="14.4497779"><ele>73.0</ele><time>2026-04-26T08:29:39.935Z</time></trkpt><trkpt lat="41.2417755" lon="14.4495127"><ele>73.33333333333333</ele><time>2026-04-26T08:29:40.938Z</time></trkpt><trkpt lat="41.2418589" lon="14.4492475"><ele>73.66666666666667</ele><time>2026-04-26T08:29:41.944Z</time></trkpt><trkpt lat="41.2419439" lon="14.4489823"><ele>74.0</ele><time>2026-04-26T08:29:42.95Z</time></trkpt><trkpt lat="41.2420294" lon="14.4487175"><ele>74.0</ele><time>2026-04-26T08:29:43.936Z</time></trkpt><trkpt lat="41.2421145" lon="14.4484518"><ele>74.0</ele><time>2026-04-26T08:29:44.943Z</time></trkpt><trkpt lat="41.2421994" lon="14.4481847"><ele>74.0</ele><time>2026-04-26T08:29:45.954Z</time></trkpt><trkpt lat="41.2422848" lon="14.4479162"><ele>74.0</ele><time>2026-04-26T08:29:46.935Z</time></trkpt><trkpt lat="41.2423705" lon="14.4476461"><ele>74.0</ele><time>2026-04-26T08:29:47.932Z</time></trkpt><trkpt lat="41.2424563" lon="14.4473732"><ele>74.0</ele><time>2026-04-26T08:29:48.941Z</time></trkpt><trkpt lat="41.2425431" lon="14.4470984"><ele>74.0</ele><time>2026-04-26T08:29:49.942Z</time></trkpt><trkpt lat="41.2426304" lon="14.4468215"><ele>74.0</ele><time>2026-04-26T08:29:50.941Z</time></trkpt><trkpt lat="41.242718" lon="14.4465424"><ele>73.5</ele><time>2026-04-26T08:29:51.947Z</time></trkpt><trkpt lat="41.2428058" lon="14.4462615"><ele>73.0</ele><time>2026-04-26T08:29:52.94Z</time></trkpt><trkpt lat="41.2428938" lon="14.4459806"><ele>73.0</ele><time>2026-04-26T08:29:53.94Z</time></trkpt><trkpt lat="41.242982" lon="14.4456993"><ele>73.0</ele><time>2026-04-26T08:29:54.936Z</time></trkpt><trkpt lat="41.2430704" lon="14.445419"><ele>73.5</ele><time>2026-04-26T08:29:55.942Z</time></trkpt><trkpt lat="41.2431585" lon="14.4451391"><ele>74.0</ele><time>2026-04-26T08:29:56.942Z</time></trkpt><trkpt lat="41.2432459" lon="14.4448587"><ele>73.0</ele><time>2026-04-26T08:29:57.938Z</time></trkpt><trkpt lat="41.2433332" lon="14.4445786"><ele>72.0</ele><time>2026-04-26T08:29:58.947Z</time></trkpt><trkpt lat="41.2434196" lon="14.4442994"><ele>72.0</ele><time>2026-04-26T08:29:59.942Z</time></trkpt><trkpt lat="41.2435064" lon="14.4440211"><ele>72.0</ele><time>2026-04-26T08:30:00.937Z</time></trkpt><trkpt lat="41.243593" lon="14.4437439"><ele>71.5</ele><time>2026-04-26T08:30:01.942Z</time></trkpt><trkpt lat="41.2436799" lon="14.4434667"><ele>71.0</ele><time>2026-04-26T08:30:02.939Z</time></trkpt><trkpt lat="41.243767" lon="14.4431898"><ele>71.5</ele><time>2026-04-26T08:30:03.944Z</time></trkpt><trkpt lat="41.2438537" lon="14.4429128"><ele>72.0</ele><time>2026-04-26T08:30:04.938Z</time></trkpt><trkpt lat="41.24394" lon="14.4426343"><ele>72.0</ele><time>2026-04-26T08:30:05.943Z</time></trkpt><trkpt lat="41.2440281" lon="14.4423778"><ele>72.0</ele><time>2026-04-26T08:30:06.936Z</time></trkpt><trkpt lat="41.2441097" lon="14.4421167"><ele>72.0</ele><time>2026-04-26T08:30:07.95Z</time></trkpt><trkpt lat="41.2442017" lon="14.4418459"><ele>72.0</ele><time>2026-04-26T08:30:08.939Z</time></trkpt><trkpt lat="41.2442804" lon="14.4415726"><ele>72.0</ele><time>2026-04-26T08:30:09.936Z</time></trkpt><trkpt lat="41.244368" lon="14.4412962"><ele>72.0</ele><time>2026-04-26T08:30:10.938Z</time></trkpt><trkpt lat="41.2444515" lon="14.4410184"><ele>71.66666666666667</ele><time>2026-04-26T08:30:11.943Z</time></trkpt><trkpt lat="41.2445382" lon="14.4407455"><ele>71.33333333333334</ele><time>2026-04-26T08:30:12.947Z</time></trkpt><trkpt lat="41.2446241" lon="14.4404717"><ele>71.0</ele><time>2026-04-26T08:30:13.935Z</time></trkpt><trkpt lat="41.2447115" lon="14.440194"><ele>70.5</ele><time>2026-04-26T08:30:14.95Z</time></trkpt><trkpt lat="41.2448016" lon="14.4399179"><ele>70.0</ele><time>2026-04-26T08:30:15.939Z</time></trkpt><trkpt lat="41.2448906" lon="14.4396423"><ele>69.66666666666666</ele><time>2026-04-26T08:30:16.937Z</time></trkpt><trkpt lat="41.2449776" lon="14.4393691"><ele>69.33333333333333</ele><time>2026-04-26T08:30:17.942Z</time></trkpt><trkpt lat="41.2450666" lon="14.4390968"><ele>69.0</ele><time>2026-04-26T08:30:18.937Z</time></trkpt><trkpt lat="41.2451562" lon="14.4388278"><ele>69.33333333333333</ele><time>2026-04-26T08:30:19.946Z</time></trkpt><trkpt lat="41.2452455" lon="14.4385594"><ele>69.66666666666666</ele><time>2026-04-26T08:30:20.943Z</time></trkpt><trkpt lat="41.2453338" lon="14.4382941"><ele>70.0</ele><time>2026-04-26T08:30:21.939Z</time></trkpt><trkpt lat="41.2454217" lon="14.4380317"><ele>69.66666666666666</ele><time>2026-04-26T08:30:22.942Z</time></trkpt><trkpt lat="41.245511" lon="14.4377712"><ele>69.33333333333333</ele><time>2026-04-26T08:30:23.942Z</time></trkpt><trkpt lat="41.2455996" lon="14.4375132"><ele>69.0</ele><time>2026-04-26T08:30:24.943Z</time></trkpt><trkpt lat="41.2456876" lon="14.4372559"><ele>68.0</ele><time>2026-04-26T08:30:25.942Z</time></trkpt><trkpt lat="41.2457763" lon="14.4369983"><ele>67.0</ele><time>2026-04-26T08:30:26.94Z</time></trkpt><trkpt lat="41.2458654" lon="14.4367392"><ele>66.0</ele><time>2026-04-26T08:30:27.947Z</time></trkpt><trkpt lat="41.2459551" lon="14.4364804"><ele>65.66666666666667</ele><time>2026-04-26T08:30:28.948Z</time></trkpt><trkpt lat="41.2460445" lon="14.4362212"><ele>65.33333333333334</ele><time>2026-04-26T08:30:29.936Z</time></trkpt><trkpt lat="41.2461324" lon="14.4359605"><ele>65.0</ele><time>2026-04-26T08:30:30.938Z</time></trkpt><trkpt lat="41.2462208" lon="14.4356982"><ele>64.33333333333334</ele><time>2026-04-26T08:30:31.94Z</time></trkpt><trkpt lat="41.2463096" lon="14.4354357"><ele>63.66666666666667</ele><time>2026-04-26T08:30:32.964Z</time></trkpt><trkpt lat="41.2463988" lon="14.4351742"><ele>63.0</ele><time>2026-04-26T08:30:33.944Z</time></trkpt><trkpt lat="41.2464876" lon="14.4349156"><ele>63.0</ele><time>2026-04-26T08:30:34.941Z</time></trkpt><trkpt lat="41.2465753" lon="14.4346586"><ele>63.0</ele><time>2026-04-26T08:30:35.941Z</time></trkpt><trkpt lat="41.2466625" lon="14.4344049"><ele>63.0</ele><time>2026-04-26T08:30:36.945Z</time></trkpt><trkpt lat="41.2467495" lon="14.4341544"><ele>62.33333333333333</ele><time>2026-04-26T08:30:37.941Z</time></trkpt><trkpt lat="41.2468352" lon="14.4339047"><ele>61.666666666666664</ele><time>2026-04-26T08:30:38.942Z</time></trkpt><trkpt lat="41.2469197" lon="14.4336569"><ele>61.0</ele><time>2026-04-26T08:30:39.937Z</time></trkpt><trkpt lat="41.2470049" lon="14.4334114"><ele>60.666666666666664</ele><time>2026-04-26T08:30:40.937Z</time></trkpt><trkpt lat="41.2470878" lon="14.4331656"><ele>60.33333333333333</ele><time>2026-04-26T08:30:41.937Z</time></trkpt><trkpt lat="41.2471713" lon="14.4329201"><ele>60.0</ele><time>2026-04-26T08:30:42.943Z</time></trkpt><trkpt lat="41.2472552" lon="14.4326756"><ele>60.0</ele><time>2026-04-26T08:30:43.938Z</time></trkpt><trkpt lat="41.24734" lon="14.4324304"><ele>60.0</ele><time>2026-04-26T08:30:44.94Z</time></trkpt><trkpt lat="41.2474248" lon="14.4321843"><ele>60.0</ele><time>2026-04-26T08:30:45.947Z</time></trkpt><trkpt lat="41.2475102" lon="14.4319362"><ele>60.0</ele><time>2026-04-26T08:30:46.942Z</time></trkpt><trkpt lat="41.2475964" lon="14.4316858"><ele>60.0</ele><time>2026-04-26T08:30:47.94Z</time></trkpt><trkpt lat="41.2476831" lon="14.4314317"><ele>60.0</ele><time>2026-04-26T08:30:48.938Z</time></trkpt><trkpt lat="41.2477699" lon="14.4311732"><ele>60.0</ele><time>2026-04-26T08:30:49.946Z</time></trkpt><trkpt lat="41.2478576" lon="14.4309108"><ele>60.0</ele><time>2026-04-26T08:30:50.948Z</time></trkpt><trkpt lat="41.2479475" lon="14.4306454"><ele>60.0</ele><time>2026-04-26T08:30:51.939Z</time></trkpt><trkpt lat="41.2480401" lon="14.430378"><ele>60.66666666666667</ele><time>2026-04-26T08:30:52.946Z</time></trkpt><trkpt lat="41.2481349" lon="14.4301095"><ele>61.333333333333336</ele><time>2026-04-26T08:30:53.944Z</time></trkpt><trkpt lat="41.248231" lon="14.4298391"><ele>62.0</ele><time>2026-04-26T08:30:54.951Z</time></trkpt><trkpt lat="41.2483278" lon="14.4295653"><ele>62.0</ele><time>2026-04-26T08:30:55.933Z</time></trkpt><trkpt lat="41.248423" lon="14.4292875"><ele>62.0</ele><time>2026-04-26T08:30:56.939Z</time></trkpt><trkpt lat="41.2485162" lon="14.429007"><ele>62.0</ele><time>2026-04-26T08:30:57.944Z</time></trkpt><trkpt lat="41.2486093" lon="14.4287267"><ele>62.0</ele><time>2026-04-26T08:30:58.945Z</time></trkpt><trkpt lat="41.2487015" lon="14.4284496"><ele>62.0</ele><time>2026-04-26T08:30:59.941Z</time></trkpt><trkpt lat="41.248793" lon="14.428178"><ele>62.0</ele><time>2026-04-26T08:31:00.935Z</time></trkpt><trkpt lat="41.2488832" lon="14.4279115"><ele>62.0</ele><time>2026-04-26T08:31:01.934Z</time></trkpt><trkpt lat="41.2489715" lon="14.4276498"><ele>62.0</ele><time>2026-04-26T08:31:02.941Z</time></trkpt><trkpt lat="41.249059" lon="14.4273934"><ele>62.0</ele><time>2026-04-26T08:31:03.931Z</time></trkpt><trkpt lat="41.249145" lon="14.4271407"><ele>62.0</ele><time>2026-04-26T08:31:04.938Z</time></trkpt><trkpt lat="41.2492301" lon="14.4268909"><ele>63.66666666666667</ele><time>2026-04-26T08:31:05.948Z</time></trkpt><trkpt lat="41.2493139" lon="14.4266432"><ele>65.33333333333333</ele><time>2026-04-26T08:31:06.95Z</time></trkpt><trkpt lat="41.2493994" lon="14.4264106"><ele>67.0</ele><time>2026-04-26T08:31:07.94Z</time></trkpt><trkpt lat="41.2494774" lon="14.4261711"><ele>67.0</ele><time>2026-04-26T08:31:08.935Z</time></trkpt><trkpt lat="41.2495598" lon="14.4259263"><ele>67.0</ele><time>2026-04-26T08:31:09.937Z</time></trkpt><trkpt lat="41.2496345" lon="14.4256892"><ele>67.0</ele><time>2026-04-26T08:31:10.937Z</time></trkpt><trkpt lat="41.2497129" lon="14.4254473"><ele>66.66666666666666</ele><time>2026-04-26T08:31:11.934Z</time></trkpt><trkpt lat="41.2497923" lon="14.4252068"><ele>66.33333333333333</ele><time>2026-04-26T08:31:12.94Z</time></trkpt><trkpt lat="41.2498745" lon="14.4249654"><ele>66.0</ele><time>2026-04-26T08:31:13.932Z</time></trkpt><trkpt lat="41.2499512" lon="14.4247328"><ele>63.0</ele><time>2026-04-26T08:31:14.942Z</time></trkpt><trkpt lat="41.2500225" lon="14.4244962"><ele>60.0</ele><time>2026-04-26T08:31:15.94Z</time></trkpt><trkpt lat="41.2500959" lon="14.4242528"><ele>57.0</ele><time>2026-04-26T08:31:16.95Z</time></trkpt><trkpt lat="41.2501803" lon="14.4240049"><ele>56.66666666666667</ele><time>2026-04-26T08:31:17.942Z</time></trkpt><trkpt lat="41.2502565" lon="14.423757"><ele>56.333333333333336</ele><time>2026-04-26T08:31:18.943Z</time></trkpt><trkpt lat="41.2503349" lon="14.4234945"><ele>56.0</ele><time>2026-04-26T08:31:19.948Z</time></trkpt><trkpt lat="41.2504184" lon="14.4232079"><ele>55.5</ele><time>2026-04-26T08:31:20.945Z</time></trkpt><trkpt lat="41.2505074" lon="14.4229014"><ele>55.0</ele><time>2026-04-26T08:31:21.933Z</time></trkpt><trkpt lat="41.2505971" lon="14.4225802"><ele>55.0</ele><time>2026-04-26T08:31:22.937Z</time></trkpt><trkpt lat="41.2506907" lon="14.4222419"><ele>55.0</ele><time>2026-04-26T08:31:23.95Z</time></trkpt><trkpt lat="41.2507927" lon="14.4218794"><ele>55.0</ele><time>2026-04-26T08:31:24.94Z</time></trkpt><trkpt lat="41.2509067" lon="14.4215079"><ele>55.0</ele><time>2026-04-26T08:31:25.939Z</time></trkpt><trkpt lat="41.2510223" lon="14.4211417"><ele>55.0</ele><time>2026-04-26T08:31:26.946Z</time></trkpt><trkpt lat="41.2511314" lon="14.4207786"><ele>55.0</ele><time>2026-04-26T08:31:27.958Z</time></trkpt><trkpt lat="41.2512357" lon="14.4204231"><ele>55.0</ele><time>2026-04-26T08:31:28.95Z</time></trkpt><trkpt lat="41.2513349" lon="14.4200806"><ele>55.0</ele><time>2026-04-26T08:31:29.945Z</time></trkpt><trkpt lat="41.2514285" lon="14.4197505"><ele>55.0</ele><time>2026-04-26T08:31:30.946Z</time></trkpt><trkpt lat="41.2515182" lon="14.4194323"><ele>55.0</ele><time>2026-04-26T08:31:31.938Z</time></trkpt><trkpt lat="41.2516059" lon="14.4191222"><ele>55.0</ele><time>2026-04-26T08:31:32.937Z</time></trkpt><trkpt lat="41.2516925" lon="14.418818"><ele>55.0</ele><time>2026-04-26T08:31:33.939Z</time></trkpt><trkpt lat="41.2517789" lon="14.4185202"><ele>55.0</ele><time>2026-04-26T08:31:34.946Z</time></trkpt><trkpt lat="41.2518646" lon="14.4182284"><ele>55.0</ele><time>2026-04-26T08:31:35.939Z</time></trkpt><trkpt lat="41.251951" lon="14.4179409"><ele>55.0</ele><time>2026-04-26T08:31:36.936Z</time></trkpt><trkpt lat="41.2520352" lon="14.4176543"><ele>55.0</ele><time>2026-04-26T08:31:37.94Z</time></trkpt><trkpt lat="41.2521196" lon="14.4173689"><ele>55.0</ele><time>2026-04-26T08:31:38.943Z</time></trkpt><trkpt lat="41.2522047" lon="14.417082"><ele>55.0</ele><time>2026-04-26T08:31:39.941Z</time></trkpt><trkpt lat="41.2522901" lon="14.4167932"><ele>55.5</ele><time>2026-04-26T08:31:40.942Z</time></trkpt><trkpt lat="41.2523746" lon="14.4165019"><ele>56.0</ele><time>2026-04-26T08:31:41.943Z</time></trkpt><trkpt lat="41.2524592" lon="14.4162091"><ele>56.5</ele><time>2026-04-26T08:31:42.942Z</time></trkpt><trkpt lat="41.2525451" lon="14.4159149"><ele>57.0</ele><time>2026-04-26T08:31:43.936Z</time></trkpt><trkpt lat="41.2526301" lon="14.4156193"><ele>56.0</ele><time>2026-04-26T08:31:44.95Z</time></trkpt><trkpt lat="41.2527161" lon="14.4153221"><ele>55.0</ele><time>2026-04-26T08:31:45.946Z</time></trkpt><trkpt lat="41.2528021" lon="14.4150252"><ele>55.0</ele><time>2026-04-26T08:31:46.94Z</time></trkpt><trkpt lat="41.2528883" lon="14.414729"><ele>55.0</ele><time>2026-04-26T08:31:47.949Z</time></trkpt><trkpt lat="41.2529753" lon="14.4144346"><ele>55.0</ele><time>2026-04-26T08:31:48.943Z</time></trkpt><trkpt lat="41.2530615" lon="14.41414"><ele>55.0</ele><time>2026-04-26T08:31:49.939Z</time></trkpt><trkpt lat="41.2531481" lon="14.4138449"><ele>57.5</ele><time>2026-04-26T08:31:50.951Z</time></trkpt><trkpt lat="41.2532349" lon="14.4135516"><ele>60.0</ele><time>2026-04-26T08:31:51.941Z</time></trkpt><trkpt lat="41.2533204" lon="14.4132581"><ele>61.0</ele><time>2026-04-26T08:31:52.944Z</time></trkpt><trkpt lat="41.2534053" lon="14.4129645"><ele>62.0</ele><time>2026-04-26T08:31:53.939Z</time></trkpt><trkpt lat="41.2534888" lon="14.4126713"><ele>62.0</ele><time>2026-04-26T08:31:54.944Z</time></trkpt><trkpt lat="41.2535716" lon="14.4123786"><ele>62.0</ele><time>2026-04-26T08:31:55.941Z</time></trkpt><trkpt lat="41.2536554" lon="14.4120962"><ele>64.0</ele><time>2026-04-26T08:31:56.944Z</time></trkpt><trkpt lat="41.2537388" lon="14.4118076"><ele>66.0</ele><time>2026-04-26T08:31:57.948Z</time></trkpt><trkpt lat="41.2538205" lon="14.4115278"><ele>66.5</ele><time>2026-04-26T08:31:58.945Z</time></trkpt><trkpt lat="41.2538994" lon="14.4112409"><ele>67.0</ele><time>2026-04-26T08:31:59.941Z</time></trkpt><trkpt lat="41.2539842" lon="14.4109549"><ele>68.0</ele><time>2026-04-26T08:32:00.944Z</time></trkpt><trkpt lat="41.2540694" lon="14.4106675"><ele>69.0</ele><time>2026-04-26T08:32:01.943Z</time></trkpt><trkpt lat="41.2541541" lon="14.4103796"><ele>70.5</ele><time>2026-04-26T08:32:02.939Z</time></trkpt><trkpt lat="41.2542409" lon="14.4100918"><ele>72.0</ele><time>2026-04-26T08:32:03.94Z</time></trkpt><trkpt lat="41.2543289" lon="14.4098054"><ele>74.5</ele><time>2026-04-26T08:32:04.941Z</time></trkpt><trkpt lat="41.2544167" lon="14.4095179"><ele>77.0</ele><time>2026-04-26T08:32:05.944Z</time></trkpt><trkpt lat="41.2545048" lon="14.4092322"><ele>77.0</ele><time>2026-04-26T08:32:06.942Z</time></trkpt><trkpt lat="41.2545976" lon="14.4089512"><ele>77.0</ele><time>2026-04-26T08:32:07.948Z</time></trkpt><trkpt lat="41.254697" lon="14.408671"><ele>77.5</ele><time>2026-04-26T08:32:08.939Z</time></trkpt><trkpt lat="41.254802" lon="14.4083945"><ele>78.0</ele><time>2026-04-26T08:32:09.939Z</time></trkpt><trkpt lat="41.254912" lon="14.4081216"><ele>78.5</ele><time>2026-04-26T08:32:10.94Z</time></trkpt><trkpt lat="41.2550254" lon="14.4078508"><ele>79.0</ele><time>2026-04-26T08:32:11.949Z</time></trkpt><trkpt lat="41.2551349" lon="14.4075822"><ele>79.0</ele><time>2026-04-26T08:32:12.939Z</time></trkpt><trkpt lat="41.2552607" lon="14.4073246"><ele>79.0</ele><time>2026-04-26T08:32:13.936Z</time></trkpt><trkpt lat="41.2553929" lon="14.4070723"><ele>77.5</ele><time>2026-04-26T08:32:14.936Z</time></trkpt><trkpt lat="41.2555409" lon="14.4068203"><ele>76.0</ele><time>2026-04-26T08:32:15.937Z</time></trkpt><trkpt lat="41.2556936" lon="14.4065527"><ele>72.0</ele><time>2026-04-26T08:32:16.946Z</time></trkpt><trkpt lat="41.2558543" lon="14.4062876"><ele>68.0</ele><time>2026-04-26T08:32:17.942Z</time></trkpt><trkpt lat="41.2560208" lon="14.4060183"><ele>68.0</ele><time>2026-04-26T08:32:18.937Z</time></trkpt><trkpt lat="41.2562" lon="14.4057594"><ele>68.0</ele><time>2026-04-26T08:32:19.943Z</time></trkpt><trkpt lat="41.256388" lon="14.4055111"><ele>68.0</ele><time>2026-04-26T08:32:20.942Z</time></trkpt><trkpt lat="41.2565833" lon="14.405266"><ele>68.0</ele><time>2026-04-26T08:32:21.948Z</time></trkpt><trkpt lat="41.2567834" lon="14.4050276"><ele>68.0</ele><time>2026-04-26T08:32:22.948Z</time></trkpt><trkpt lat="41.2569784" lon="14.4048085"><ele>68.0</ele><time>2026-04-26T08:32:23.942Z</time></trkpt><trkpt lat="41.2571796" lon="14.4045865"><ele>67.5</ele><time>2026-04-26T08:32:24.946Z</time></trkpt><trkpt lat="41.2573799" lon="14.4043724"><ele>67.0</ele><time>2026-04-26T08:32:25.948Z</time></trkpt><trkpt lat="41.2575781" lon="14.4041602"><ele>67.0</ele><time>2026-04-26T08:32:26.937Z</time></trkpt><trkpt lat="41.2577769" lon="14.4039508"><ele>67.0</ele><time>2026-04-26T08:32:27.933Z</time></trkpt><trkpt lat="41.2579735" lon="14.4037461"><ele>66.5</ele><time>2026-04-26T08:32:28.942Z</time></trkpt><trkpt lat="41.25817" lon="14.4035408"><ele>66.0</ele><time>2026-04-26T08:32:29.943Z</time></trkpt><trkpt lat="41.2583664" lon="14.4033382"><ele>66.0</ele><time>2026-04-26T08:32:30.942Z</time></trkpt><trkpt lat="41.258562" lon="14.403135"><ele>66.0</ele><time>2026-04-26T08:32:31.942Z</time></trkpt><trkpt lat="41.2587571" lon="14.4029329"><ele>67.0</ele><time>2026-04-26T08:32:32.947Z</time></trkpt><trkpt lat="41.2589509" lon="14.4027311"><ele>68.0</ele><time>2026-04-26T08:32:33.941Z</time></trkpt><trkpt lat="41.2591454" lon="14.402529"><ele>68.0</ele><time>2026-04-26T08:32:34.942Z</time></trkpt><trkpt lat="41.2593376" lon="14.402327"><ele>68.0</ele><time>2026-04-26T08:32:35.942Z</time></trkpt><trkpt lat="41.2595296" lon="14.4021256"><ele>69.5</ele><time>2026-04-26T08:32:36.943Z</time></trkpt><trkpt lat="41.2597209" lon="14.4019215"><ele>71.0</ele><time>2026-04-26T08:32:37.946Z</time></trkpt><trkpt lat="41.2599122" lon="14.4017179"><ele>71.0</ele><time>2026-04-26T08:32:38.943Z</time></trkpt><trkpt lat="41.2601032" lon="14.4015148"><ele>71.0</ele><time>2026-04-26T08:32:39.945Z</time></trkpt><trkpt lat="41.2602954" lon="14.401313"><ele>70.5</ele><time>2026-04-26T08:32:40.949Z</time></trkpt><trkpt lat="41.2604877" lon="14.4011103"><ele>70.0</ele><time>2026-04-26T08:32:41.944Z</time></trkpt><trkpt lat="41.26068" lon="14.4009072"><ele>70.0</ele><time>2026-04-26T08:32:42.945Z</time></trkpt><trkpt lat="41.2608735" lon="14.4007042"><ele>70.0</ele><time>2026-04-26T08:32:43.946Z</time></trkpt><trkpt lat="41.261066" lon="14.4005015"><ele>69.5</ele><time>2026-04-26T08:32:44.944Z</time></trkpt><trkpt lat="41.2612591" lon="14.4002993"><ele>69.0</ele><time>2026-04-26T08:32:45.935Z</time></trkpt><trkpt lat="41.2614508" lon="14.4000946"><ele>69.0</ele><time>2026-04-26T08:32:46.938Z</time></trkpt><trkpt lat="41.2616398" lon="14.3998856"><ele>69.0</ele><time>2026-04-26T08:32:47.938Z</time></trkpt><trkpt lat="41.2618249" lon="14.399671"><ele>67.5</ele><time>2026-04-26T08:32:48.938Z</time></trkpt><trkpt lat="41.2620047" lon="14.3994485"><ele>66.0</ele><time>2026-04-26T08:32:49.941Z</time></trkpt><trkpt lat="41.2621776" lon="14.399218"><ele>66.0</ele><time>2026-04-26T08:32:50.937Z</time></trkpt><trkpt lat="41.2623443" lon="14.398981"><ele>66.0</ele><time>2026-04-26T08:32:51.932Z</time></trkpt><trkpt lat="41.2625033" lon="14.3987355"><ele>66.0</ele><time>2026-04-26T08:32:52.937Z</time></trkpt><trkpt lat="41.262654" lon="14.3984814"><ele>66.0</ele><time>2026-04-26T08:32:53.948Z</time></trkpt><trkpt lat="41.2627954" lon="14.3982178"><ele>65.5</ele><time>2026-04-26T08:32:54.941Z</time></trkpt><trkpt lat="41.2629289" lon="14.3979448"><ele>65.0</ele><time>2026-04-26T08:32:55.936Z</time></trkpt><trkpt lat="41.2630568" lon="14.397667"><ele>65.5</ele><time>2026-04-26T08:32:56.941Z</time></trkpt><trkpt lat="41.2631826" lon="14.3973885"><ele>66.0</ele><time>2026-04-26T08:32:57.948Z</time></trkpt><trkpt lat="41.2633116" lon="14.3971146"><ele>66.0</ele><time>2026-04-26T08:32:58.935Z</time></trkpt><trkpt lat="41.2634487" lon="14.3968498"><ele>66.0</ele><time>2026-04-26T08:32:59.963Z</time></trkpt><trkpt lat="41.263597" lon="14.3965974"><ele>66.0</ele><time>2026-04-26T08:33:00.933Z</time></trkpt><trkpt lat="41.263747" lon="14.3963593"><ele>66.0</ele><time>2026-04-26T08:33:01.935Z</time></trkpt><trkpt lat="41.2639134" lon="14.3961327"><ele>70.0</ele><time>2026-04-26T08:33:02.942Z</time></trkpt><trkpt lat="41.264091" lon="14.3959147"><ele>74.0</ele><time>2026-04-26T08:33:03.94Z</time></trkpt><trkpt lat="41.2642765" lon="14.3957082"><ele>74.0</ele><time>2026-04-26T08:33:04.939Z</time></trkpt><trkpt lat="41.2644663" lon="14.3955132"><ele>74.0</ele><time>2026-04-26T08:33:05.939Z</time></trkpt><trkpt lat="41.2646674" lon="14.3953316"><ele>71.5</ele><time>2026-04-26T08:33:06.935Z</time></trkpt><trkpt lat="41.2648758" lon="14.3951689"><ele>69.0</ele><time>2026-04-26T08:33:07.94Z</time></trkpt><trkpt lat="41.2650937" lon="14.3950209"><ele>69.0</ele><time>2026-04-26T08:33:08.939Z</time></trkpt><trkpt lat="41.2653182" lon="14.3948884"><ele>69.0</ele><time>2026-04-26T08:33:09.934Z</time></trkpt><trkpt lat="41.2655446" lon="14.3947691"><ele>66.0</ele><time>2026-04-26T08:33:10.933Z</time></trkpt><trkpt lat="41.2657748" lon="14.3946597"><ele>63.0</ele><time>2026-04-26T08:33:11.94Z</time></trkpt><trkpt lat="41.2660064" lon="14.3945575"><ele>63.0</ele><time>2026-04-26T08:33:12.935Z</time></trkpt><trkpt lat="41.266238" lon="14.3944591"><ele>63.0</ele><time>2026-04-26T08:33:13.936Z</time></trkpt><trkpt lat="41.266468" lon="14.3943603"><ele>65.0</ele><time>2026-04-26T08:33:14.933Z</time></trkpt><trkpt lat="41.2666947" lon="14.3942605"><ele>67.0</ele><time>2026-04-26T08:33:15.943Z</time></trkpt><trkpt lat="41.2669179" lon="14.3941589"><ele>67.0</ele><time>2026-04-26T08:33:16.946Z</time></trkpt><trkpt lat="41.2671385" lon="14.3940512"><ele>67.0</ele><time>2026-04-26T08:33:17.935Z</time></trkpt><trkpt lat="41.2673529" lon="14.3939328"><ele>65.0</ele><time>2026-04-26T08:33:18.928Z</time></trkpt><trkpt lat="41.2675612" lon="14.3938017"><ele>63.0</ele><time>2026-04-26T08:33:19.937Z</time></trkpt><trkpt lat="41.2677642" lon="14.3936591"><ele>63.0</ele><time>2026-04-26T08:33:20.941Z</time></trkpt><trkpt lat="41.267961" lon="14.3935028"><ele>63.0</ele><time>2026-04-26T08:33:21.939Z</time></trkpt><trkpt lat="41.268154" lon="14.3933358"><ele>63.0</ele><time>2026-04-26T08:33:22.939Z</time></trkpt><trkpt lat="41.268341" lon="14.3931575"><ele>63.0</ele><time>2026-04-26T08:33:23.946Z</time></trkpt><trkpt lat="41.2685213" lon="14.3929619"><ele>63.0</ele><time>2026-04-26T08:33:24.945Z</time></trkpt><trkpt lat="41.2686906" lon="14.3927514"><ele>63.0</ele><time>2026-04-26T08:33:25.943Z</time></trkpt><trkpt lat="41.2688514" lon="14.392529"><ele>63.5</ele><time>2026-04-26T08:33:26.947Z</time></trkpt><trkpt lat="41.2690041" lon="14.3922965"><ele>64.0</ele><time>2026-04-26T08:33:27.944Z</time></trkpt><trkpt lat="41.2691467" lon="14.392055"><ele>64.0</ele><time>2026-04-26T08:33:28.943Z</time></trkpt><trkpt lat="41.2692808" lon="14.3918067"><ele>64.0</ele><time>2026-04-26T08:33:29.936Z</time></trkpt><trkpt lat="41.2694052" lon="14.3915503"><ele>63.0</ele><time>2026-04-26T08:33:30.943Z</time></trkpt><trkpt lat="41.26952" lon="14.3912877"><ele>62.0</ele><time>2026-04-26T08:33:31.935Z</time></trkpt><trkpt lat="41.2696252" lon="14.391018"><ele>62.0</ele><time>2026-04-26T08:33:32.949Z</time></trkpt><trkpt lat="41.2697186" lon="14.39074"><ele>62.0</ele><time>2026-04-26T08:33:33.938Z</time></trkpt><trkpt lat="41.2697992" lon="14.3904527"><ele>65.0</ele><time>2026-04-26T08:33:34.937Z</time></trkpt><trkpt lat="41.2698688" lon="14.3901592"><ele>68.0</ele><time>2026-04-26T08:33:35.94Z</time></trkpt><trkpt lat="41.2699303" lon="14.3898622"><ele>68.5</ele><time>2026-04-26T08:33:36.939Z</time></trkpt><trkpt lat="41.2699835" lon="14.3895618"><ele>69.0</ele><time>2026-04-26T08:33:37.952Z</time></trkpt><trkpt lat="41.2700332" lon="14.3892616"><ele>69.0</ele><time>2026-04-26T08:33:38.944Z</time></trkpt><trkpt lat="41.2700828" lon="14.3889624"><ele>69.0</ele><time>2026-04-26T08:33:39.938Z</time></trkpt><trkpt lat="41.2701348" lon="14.3886642"><ele>70.5</ele><time>2026-04-26T08:33:40.943Z</time></trkpt><trkpt lat="41.2701884" lon="14.3883657"><ele>72.0</ele><time>2026-04-26T08:33:41.939Z</time></trkpt><trkpt lat="41.2702429" lon="14.388067"><ele>73.0</ele><time>2026-04-26T08:33:42.943Z</time></trkpt><trkpt lat="41.2702975" lon="14.3877678"><ele>74.0</ele><time>2026-04-26T08:33:43.941Z</time></trkpt><trkpt lat="41.2703543" lon="14.3874687"><ele>78.0</ele><time>2026-04-26T08:33:44.942Z</time></trkpt><trkpt lat="41.2704179" lon="14.3871722"><ele>82.0</ele><time>2026-04-26T08:33:45.938Z</time></trkpt><trkpt lat="41.2704889" lon="14.3868799"><ele>82.0</ele><time>2026-04-26T08:33:46.944Z</time></trkpt><trkpt lat="41.2705683" lon="14.3865916"><ele>82.0</ele><time>2026-04-26T08:33:47.949Z</time></trkpt><trkpt lat="41.2706561" lon="14.3863073"><ele>83.5</ele><time>2026-04-26T08:33:48.94Z</time></trkpt><trkpt lat="41.2707553" lon="14.3860288"><ele>85.0</ele><time>2026-04-26T08:33:49.952Z</time></trkpt><trkpt lat="41.2708651" lon="14.3857563"><ele>91.5</ele><time>2026-04-26T08:33:50.957Z</time></trkpt><trkpt lat="41.270981" lon="14.3854875"><ele>98.0</ele><time>2026-04-26T08:33:51.94Z</time></trkpt><trkpt lat="41.2710999" lon="14.3852208"><ele>98.0</ele><time>2026-04-26T08:33:52.945Z</time></trkpt><trkpt lat="41.2712187" lon="14.384955"><ele>98.0</ele><time>2026-04-26T08:33:53.957Z</time></trkpt><trkpt lat="41.271336" lon="14.3846881"><ele>94.0</ele><time>2026-04-26T08:33:54.94Z</time></trkpt><trkpt lat="41.2714526" lon="14.3844199"><ele>90.0</ele><time>2026-04-26T08:33:55.942Z</time></trkpt><trkpt lat="41.2715689" lon="14.3841497"><ele>90.0</ele><time>2026-04-26T08:33:56.94Z</time></trkpt><trkpt lat="41.2716845" lon="14.3838769"><ele>90.0</ele><time>2026-04-26T08:33:57.939Z</time></trkpt><trkpt lat="41.271801" lon="14.3836056"><ele>91.5</ele><time>2026-04-26T08:33:58.932Z</time></trkpt><trkpt lat="41.2719192" lon="14.383332"><ele>93.0</ele><time>2026-04-26T08:33:59.941Z</time></trkpt><trkpt lat="41.2720376" lon="14.3830564"><ele>93.5</ele><time>2026-04-26T08:34:00.936Z</time></trkpt><trkpt lat="41.272156" lon="14.3827808"><ele>94.0</ele><time>2026-04-26T08:34:01.932Z</time></trkpt><trkpt lat="41.2722744" lon="14.3825051"><ele>88.0</ele><time>2026-04-26T08:34:02.938Z</time></trkpt><trkpt lat="41.2723932" lon="14.3822295"><ele>82.0</ele><time>2026-04-26T08:34:03.939Z</time></trkpt><trkpt lat="41.2725122" lon="14.381954"><ele>80.0</ele><time>2026-04-26T08:34:04.933Z</time></trkpt><trkpt lat="41.2726316" lon="14.3816786"><ele>78.0</ele><time>2026-04-26T08:34:05.931Z</time></trkpt><trkpt lat="41.2727505" lon="14.3814026"><ele>76.5</ele><time>2026-04-26T08:34:06.94Z</time></trkpt><trkpt lat="41.272869" lon="14.3811271"><ele>75.0</ele><time>2026-04-26T08:34:07.941Z</time></trkpt><trkpt lat="41.2729873" lon="14.3808531"><ele>75.0</ele><time>2026-04-26T08:34:08.948Z</time></trkpt><trkpt lat="41.273104" lon="14.3805793"><ele>75.0</ele><time>2026-04-26T08:34:09.942Z</time></trkpt><trkpt lat="41.2732185" lon="14.380305"><ele>75.0</ele><time>2026-04-26T08:34:10.946Z</time></trkpt><trkpt lat="41.2733296" lon="14.3800299"><ele>75.0</ele><time>2026-04-26T08:34:11.937Z</time></trkpt><trkpt lat="41.2734355" lon="14.3797536"><ele>75.5</ele><time>2026-04-26T08:34:12.946Z</time></trkpt><trkpt lat="41.2735334" lon="14.3794742"><ele>76.0</ele><time>2026-04-26T08:34:13.939Z</time></trkpt><trkpt lat="41.2736269" lon="14.3792083"><ele>76.0</ele><time>2026-04-26T08:34:14.942Z</time></trkpt><trkpt lat="41.273704" lon="14.3789218"><ele>76.0</ele><time>2026-04-26T08:34:15.954Z</time></trkpt><trkpt lat="41.2737696" lon="14.3786384"><ele>74.33333333333333</ele><time>2026-04-26T08:34:16.949Z</time></trkpt><trkpt lat="41.2738243" lon="14.3783522"><ele>72.66666666666667</ele><time>2026-04-26T08:34:17.934Z</time></trkpt><trkpt lat="41.2738672" lon="14.3780653"><ele>71.0</ele><time>2026-04-26T08:34:18.936Z</time></trkpt><trkpt lat="41.2738956" lon="14.3777806"><ele>70.66666666666667</ele><time>2026-04-26T08:34:19.946Z</time></trkpt><trkpt lat="41.2739151" lon="14.3774971"><ele>70.33333333333333</ele><time>2026-04-26T08:34:20.936Z</time></trkpt><trkpt lat="41.2739261" lon="14.3772116"><ele>70.0</ele><time>2026-04-26T08:34:21.947Z</time></trkpt><trkpt lat="41.273928" lon="14.3769171"><ele>69.0</ele><time>2026-04-26T08:34:22.935Z</time></trkpt><trkpt lat="41.2739195" lon="14.3766144"><ele>68.0</ele><time>2026-04-26T08:34:23.949Z</time></trkpt><trkpt lat="41.273905" lon="14.3763095"><ele>67.5</ele><time>2026-04-26T08:34:24.938Z</time></trkpt><trkpt lat="41.2738831" lon="14.3760023"><ele>67.0</ele><time>2026-04-26T08:34:25.937Z</time></trkpt><trkpt lat="41.2738557" lon="14.3756925"><ele>67.0</ele><time>2026-04-26T08:34:26.946Z</time></trkpt><trkpt lat="41.2738259" lon="14.37538"><ele>67.0</ele><time>2026-04-26T08:34:27.952Z</time></trkpt><trkpt lat="41.2737956" lon="14.3750685"><ele>67.0</ele><time>2026-04-26T08:34:28.937Z</time></trkpt><trkpt lat="41.273763" lon="14.3747581"><ele>67.0</ele><time>2026-04-26T08:34:29.954Z</time></trkpt><trkpt lat="41.2737292" lon="14.3744487"><ele>67.0</ele><time>2026-04-26T08:34:30.942Z</time></trkpt><trkpt lat="41.273695" lon="14.3741414"><ele>67.0</ele><time>2026-04-26T08:34:31.941Z</time></trkpt><trkpt lat="41.2736603" lon="14.3738363"><ele>67.0</ele><time>2026-04-26T08:34:32.936Z</time></trkpt><trkpt lat="41.2736266" lon="14.3735339"><ele>67.0</ele><time>2026-04-26T08:34:33.935Z</time></trkpt><trkpt lat="41.2735949" lon="14.3732338"><ele>68.66666666666666</ele><time>2026-04-26T08:34:34.94Z</time></trkpt><trkpt lat="41.2735621" lon="14.3729379"><ele>70.33333333333333</ele><time>2026-04-26T08:34:35.947Z</time></trkpt><trkpt lat="41.2735291" lon="14.3726445"><ele>72.0</ele><time>2026-04-26T08:34:36.949Z</time></trkpt><trkpt lat="41.2734971" lon="14.3723528"><ele>71.66666666666667</ele><time>2026-04-26T08:34:37.939Z</time></trkpt><trkpt lat="41.2734642" lon="14.372063"><ele>71.33333333333334</ele><time>2026-04-26T08:34:38.944Z</time></trkpt><trkpt lat="41.2734315" lon="14.371774"><ele>71.0</ele><time>2026-04-26T08:34:39.945Z</time></trkpt><trkpt lat="41.2733988" lon="14.371487"><ele>71.0</ele><time>2026-04-26T08:34:40.943Z</time></trkpt><trkpt lat="41.2733664" lon="14.3711998"><ele>71.0</ele><time>2026-04-26T08:34:41.936Z</time></trkpt><trkpt lat="41.2733339" lon="14.3709129"><ele>71.0</ele><time>2026-04-26T08:34:42.933Z</time></trkpt><trkpt lat="41.2732988" lon="14.3706265"><ele>72.33333333333334</ele><time>2026-04-26T08:34:43.949Z</time></trkpt><trkpt lat="41.2732607" lon="14.3703399"><ele>73.66666666666667</ele><time>2026-04-26T08:34:44.942Z</time></trkpt><trkpt lat="41.2732186" lon="14.3700543"><ele>75.0</ele><time>2026-04-26T08:34:45.947Z</time></trkpt><trkpt lat="41.2731725" lon="14.3697701"><ele>77.0</ele><time>2026-04-26T08:34:46.941Z</time></trkpt><trkpt lat="41.2731214" lon="14.3694862"><ele>79.0</ele><time>2026-04-26T08:34:47.941Z</time></trkpt><trkpt lat="41.273067" lon="14.3692029"><ele>81.0</ele><time>2026-04-26T08:34:48.935Z</time></trkpt><trkpt lat="41.2730091" lon="14.3689202"><ele>84.33333333333333</ele><time>2026-04-26T08:34:49.932Z</time></trkpt><trkpt lat="41.2729493" lon="14.3686384"><ele>87.66666666666666</ele><time>2026-04-26T08:34:50.942Z</time></trkpt><trkpt lat="41.2728877" lon="14.3683571"><ele>91.0</ele><time>2026-04-26T08:34:51.938Z</time></trkpt><trkpt lat="41.2728211" lon="14.3680777"><ele>90.33333333333333</ele><time>2026-04-26T08:34:52.931Z</time></trkpt><trkpt lat="41.2727521" lon="14.3677993"><ele>89.66666666666667</ele><time>2026-04-26T08:34:53.94Z</time></trkpt><trkpt lat="41.2726801" lon="14.3675217"><ele>89.0</ele><time>2026-04-26T08:34:54.943Z</time></trkpt><trkpt lat="41.2726062" lon="14.3672453"><ele>88.66666666666667</ele><time>2026-04-26T08:34:55.937Z</time></trkpt><trkpt lat="41.2725268" lon="14.3669705"><ele>88.33333333333333</ele><time>2026-04-26T08:34:56.934Z</time></trkpt><trkpt lat="41.2724451" lon="14.3666976"><ele>88.0</ele><time>2026-04-26T08:34:57.939Z</time></trkpt><trkpt lat="41.2723599" lon="14.3664269"><ele>87.66666666666666</ele><time>2026-04-26T08:34:58.942Z</time></trkpt><trkpt lat="41.2722744" lon="14.3661554"><ele>87.33333333333333</ele><time>2026-04-26T08:34:59.937Z</time></trkpt><trkpt lat="41.2721891" lon="14.3658833"><ele>87.0</ele><time>2026-04-26T08:35:00.937Z</time></trkpt><trkpt lat="41.2721042" lon="14.3656107"><ele>87.33333333333333</ele><time>2026-04-26T08:35:01.948Z</time></trkpt><trkpt lat="41.2720199" lon="14.3653387"><ele>87.66666666666666</ele><time>2026-04-26T08:35:02.944Z</time></trkpt><trkpt lat="41.2719369" lon="14.3650686"><ele>88.0</ele><time>2026-04-26T08:35:03.929Z</time></trkpt><trkpt lat="41.271855" lon="14.3648018"><ele>88.33333333333333</ele><time>2026-04-26T08:35:04.942Z</time></trkpt><trkpt lat="41.2717744" lon="14.3645381"><ele>88.66666666666667</ele><time>2026-04-26T08:35:05.946Z</time></trkpt><trkpt lat="41.271695" lon="14.3642794"><ele>89.0</ele><time>2026-04-26T08:35:06.949Z</time></trkpt><trkpt lat="41.2716175" lon="14.3640264"><ele>89.0</ele><time>2026-04-26T08:35:07.937Z</time></trkpt><trkpt lat="41.2715377" lon="14.3637696"><ele>89.0</ele><time>2026-04-26T08:35:08.94Z</time></trkpt><trkpt lat="41.2714509" lon="14.3634906"><ele>89.0</ele><time>2026-04-26T08:35:09.942Z</time></trkpt><trkpt lat="41.271357" lon="14.3631852"><ele>88.0</ele><time>2026-04-26T08:35:10.942Z</time></trkpt><trkpt lat="41.2712588" lon="14.3628562"><ele>87.0</ele><time>2026-04-26T08:35:11.949Z</time></trkpt><trkpt lat="41.271159" lon="14.3625221"><ele>88.0</ele><time>2026-04-26T08:35:12.936Z</time></trkpt><trkpt lat="41.2710599" lon="14.3621926"><ele>89.0</ele><time>2026-04-26T08:35:13.945Z</time></trkpt><trkpt lat="41.2709618" lon="14.3618645"><ele>89.0</ele><time>2026-04-26T08:35:14.941Z</time></trkpt><trkpt lat="41.2708667" lon="14.3615349"><ele>89.0</ele><time>2026-04-26T08:35:15.936Z</time></trkpt><trkpt lat="41.2707751" lon="14.3612028"><ele>90.5</ele><time>2026-04-26T08:35:16.941Z</time></trkpt><trkpt lat="41.2706858" lon="14.3608898"><ele>92.0</ele><time>2026-04-26T08:35:17.936Z</time></trkpt><trkpt lat="41.2706021" lon="14.3605539"><ele>91.5</ele><time>2026-04-26T08:35:18.936Z</time></trkpt><trkpt lat="41.2705236" lon="14.3602144"><ele>91.0</ele><time>2026-04-26T08:35:19.935Z</time></trkpt><trkpt lat="41.2704522" lon="14.3598756"><ele>85.5</ele><time>2026-04-26T08:35:20.936Z</time></trkpt><trkpt lat="41.2703878" lon="14.359537"><ele>80.0</ele><time>2026-04-26T08:35:21.945Z</time></trkpt><trkpt lat="41.2703265" lon="14.3591913"><ele>77.5</ele><time>2026-04-26T08:35:22.941Z</time></trkpt><trkpt lat="41.2702693" lon="14.3588457"><ele>75.0</ele><time>2026-04-26T08:35:23.935Z</time></trkpt><trkpt lat="41.2702135" lon="14.358501"><ele>75.0</ele><time>2026-04-26T08:35:24.938Z</time></trkpt><trkpt lat="41.2701571" lon="14.3581558"><ele>75.0</ele><time>2026-04-26T08:35:25.941Z</time></trkpt><trkpt lat="41.2701027" lon="14.357811"><ele>74.5</ele><time>2026-04-26T08:35:26.941Z</time></trkpt><trkpt lat="41.2700517" lon="14.357466"><ele>74.0</ele><time>2026-04-26T08:35:27.948Z</time></trkpt><trkpt lat="41.2700064" lon="14.3571175"><ele>74.0</ele><time>2026-04-26T08:35:28.943Z</time></trkpt><trkpt lat="41.2699666" lon="14.3567684"><ele>74.0</ele><time>2026-04-26T08:35:29.933Z</time></trkpt><trkpt lat="41.2699318" lon="14.356418"><ele>74.0</ele><time>2026-04-26T08:35:30.948Z</time></trkpt><trkpt lat="41.2698987" lon="14.3560687"><ele>74.0</ele><time>2026-04-26T08:35:31.95Z</time></trkpt><trkpt lat="41.2698694" lon="14.3557178"><ele>74.0</ele><time>2026-04-26T08:35:32.945Z</time></trkpt><trkpt lat="41.2698428" lon="14.3553668"><ele>74.0</ele><time>2026-04-26T08:35:33.94Z</time></trkpt><trkpt lat="41.2698221" lon="14.355015"><ele>75.0</ele><time>2026-04-26T08:35:34.945Z</time></trkpt><trkpt lat="41.2698109" lon="14.3546638"><ele>76.0</ele><time>2026-04-26T08:35:35.942Z</time></trkpt><trkpt lat="41.2698009" lon="14.3543104"><ele>76.0</ele><time>2026-04-26T08:35:36.938Z</time></trkpt><trkpt lat="41.2697955" lon="14.3539584"><ele>76.0</ele><time>2026-04-26T08:35:37.946Z</time></trkpt><trkpt lat="41.2697932" lon="14.3536048"><ele>76.0</ele><time>2026-04-26T08:35:38.951Z</time></trkpt><trkpt lat="41.2697936" lon="14.3532511"><ele>76.0</ele><time>2026-04-26T08:35:39.941Z</time></trkpt><trkpt lat="41.269799" lon="14.3528965"><ele>77.0</ele><time>2026-04-26T08:35:40.94Z</time></trkpt><trkpt lat="41.2698086" lon="14.3525422"><ele>78.0</ele><time>2026-04-26T08:35:41.941Z</time></trkpt><trkpt lat="41.2698223" lon="14.3521872"><ele>78.0</ele><time>2026-04-26T08:35:42.943Z</time></trkpt><trkpt lat="41.2698398" lon="14.351835"><ele>78.0</ele><time>2026-04-26T08:35:43.938Z</time></trkpt><trkpt lat="41.2698631" lon="14.3514827"><ele>78.0</ele><time>2026-04-26T08:35:44.946Z</time></trkpt><trkpt lat="41.2698917" lon="14.3511311"><ele>78.0</ele><time>2026-04-26T08:35:45.947Z</time></trkpt><trkpt lat="41.2699238" lon="14.35078"><ele>78.5</ele><time>2026-04-26T08:35:46.94Z</time></trkpt><trkpt lat="41.2699586" lon="14.3504283"><ele>79.0</ele><time>2026-04-26T08:35:47.936Z</time></trkpt><trkpt lat="41.2699954" lon="14.3500767"><ele>79.0</ele><time>2026-04-26T08:35:48.939Z</time></trkpt><trkpt lat="41.2700361" lon="14.3497247"><ele>79.0</ele><time>2026-04-26T08:35:49.943Z</time></trkpt><trkpt lat="41.2700782" lon="14.3493749"><ele>79.0</ele><time>2026-04-26T08:35:50.94Z</time></trkpt><trkpt lat="41.2701223" lon="14.3490263"><ele>79.0</ele><time>2026-04-26T08:35:51.936Z</time></trkpt><trkpt lat="41.2701679" lon="14.3486779"><ele>79.5</ele><time>2026-04-26T08:35:52.939Z</time></trkpt><trkpt lat="41.2702149" lon="14.3483294"><ele>80.0</ele><time>2026-04-26T08:35:53.944Z</time></trkpt><trkpt lat="41.2702654" lon="14.3479811"><ele>81.5</ele><time>2026-04-26T08:35:54.948Z</time></trkpt><trkpt lat="41.2703185" lon="14.3476343"><ele>83.0</ele><time>2026-04-26T08:35:55.938Z</time></trkpt><trkpt lat="41.2703745" lon="14.3472882"><ele>85.0</ele><time>2026-04-26T08:35:56.941Z</time></trkpt><trkpt lat="41.270433" lon="14.3469431"><ele>87.0</ele><time>2026-04-26T08:35:57.938Z</time></trkpt><trkpt lat="41.2704921" lon="14.3465982"><ele>86.5</ele><time>2026-04-26T08:35:58.943Z</time></trkpt><trkpt lat="41.2705582" lon="14.3462599"><ele>86.0</ele><time>2026-04-26T08:35:59.945Z</time></trkpt><trkpt lat="41.2706175" lon="14.3459256"><ele>85.0</ele><time>2026-04-26T08:36:00.95Z</time></trkpt><trkpt lat="41.2706802" lon="14.3455873"><ele>84.0</ele><time>2026-04-26T08:36:01.941Z</time></trkpt><trkpt lat="41.2707447" lon="14.3452455"><ele>84.0</ele><time>2026-04-26T08:36:02.946Z</time></trkpt><trkpt lat="41.2708117" lon="14.3449038"><ele>84.0</ele><time>2026-04-26T08:36:03.945Z</time></trkpt><trkpt lat="41.2708769" lon="14.3445617"><ele>84.5</ele><time>2026-04-26T08:36:04.943Z</time></trkpt><trkpt lat="41.2709488" lon="14.3442213"><ele>85.0</ele><time>2026-04-26T08:36:05.949Z</time></trkpt><trkpt lat="41.2710189" lon="14.3438811"><ele>84.0</ele><time>2026-04-26T08:36:06.941Z</time></trkpt><trkpt lat="41.2710954" lon="14.3435396"><ele>83.0</ele><time>2026-04-26T08:36:07.939Z</time></trkpt><trkpt lat="41.2711745" lon="14.3432007"><ele>83.0</ele><time>2026-04-26T08:36:08.961Z</time></trkpt><trkpt lat="41.2712526" lon="14.3428626"><ele>83.0</ele><time>2026-04-26T08:36:09.936Z</time></trkpt><trkpt lat="41.2713316" lon="14.3425246"><ele>83.0</ele><time>2026-04-26T08:36:10.94Z</time></trkpt><trkpt lat="41.2714117" lon="14.3421856"><ele>83.0</ele><time>2026-04-26T08:36:11.946Z</time></trkpt><trkpt lat="41.2714953" lon="14.3418484"><ele>83.0</ele><time>2026-04-26T08:36:12.942Z</time></trkpt><trkpt lat="41.2715817" lon="14.3415122"><ele>83.0</ele><time>2026-04-26T08:36:13.936Z</time></trkpt><trkpt lat="41.2716719" lon="14.3411769"><ele>83.0</ele><time>2026-04-26T08:36:14.945Z</time></trkpt><trkpt lat="41.2717617" lon="14.3408419"><ele>83.0</ele><time>2026-04-26T08:36:15.943Z</time></trkpt><trkpt lat="41.2718531" lon="14.3405081"><ele>81.5</ele><time>2026-04-26T08:36:16.94Z</time></trkpt><trkpt lat="41.2719452" lon="14.3401764"><ele>80.0</ele><time>2026-04-26T08:36:17.939Z</time></trkpt><trkpt lat="41.2720399" lon="14.339844"><ele>80.0</ele><time>2026-04-26T08:36:18.944Z</time></trkpt><trkpt lat="41.2721355" lon="14.3395126"><ele>80.0</ele><time>2026-04-26T08:36:19.938Z</time></trkpt><trkpt lat="41.2722319" lon="14.3391839"><ele>82.0</ele><time>2026-04-26T08:36:20.94Z</time></trkpt><trkpt lat="41.2723303" lon="14.3388565"><ele>84.0</ele><time>2026-04-26T08:36:21.953Z</time></trkpt><trkpt lat="41.272432" lon="14.3385312"><ele>84.0</ele><time>2026-04-26T08:36:22.939Z</time></trkpt><trkpt lat="41.2725346" lon="14.3382077"><ele>84.0</ele><time>2026-04-26T08:36:23.939Z</time></trkpt><trkpt lat="41.2726402" lon="14.3378831"><ele>84.5</ele><time>2026-04-26T08:36:24.954Z</time></trkpt><trkpt lat="41.2727465" lon="14.3375613"><ele>85.0</ele><time>2026-04-26T08:36:25.955Z</time></trkpt><trkpt lat="41.2728549" lon="14.3372399"><ele>85.0</ele><time>2026-04-26T08:36:26.944Z</time></trkpt><trkpt lat="41.2729625" lon="14.3369181"><ele>85.0</ele><time>2026-04-26T08:36:27.94Z</time></trkpt><trkpt lat="41.2730716" lon="14.3365985"><ele>84.0</ele><time>2026-04-26T08:36:28.945Z</time></trkpt><trkpt lat="41.2731836" lon="14.3362796"><ele>83.0</ele><time>2026-04-26T08:36:29.936Z</time></trkpt><trkpt lat="41.2732988" lon="14.3359623"><ele>83.0</ele><time>2026-04-26T08:36:30.934Z</time></trkpt><trkpt lat="41.2734207" lon="14.335649"><ele>83.0</ele><time>2026-04-26T08:36:31.935Z</time></trkpt><trkpt lat="41.273545" lon="14.3353373"><ele>83.0</ele><time>2026-04-26T08:36:32.941Z</time></trkpt><trkpt lat="41.2736692" lon="14.3350245"><ele>83.0</ele><time>2026-04-26T08:36:33.939Z</time></trkpt><trkpt lat="41.2737941" lon="14.3347118"><ele>82.5</ele><time>2026-04-26T08:36:34.93Z</time></trkpt><trkpt lat="41.2739209" lon="14.3343997"><ele>82.0</ele><time>2026-04-26T08:36:35.948Z</time></trkpt><trkpt lat="41.2740471" lon="14.334087"><ele>83.5</ele><time>2026-04-26T08:36:36.944Z</time></trkpt><trkpt lat="41.2741721" lon="14.3337751"><ele>85.0</ele><time>2026-04-26T08:36:37.943Z</time></trkpt><trkpt lat="41.2742983" lon="14.3334632"><ele>85.0</ele><time>2026-04-26T08:36:38.939Z</time></trkpt><trkpt lat="41.2744272" lon="14.3331531"><ele>85.0</ele><time>2026-04-26T08:36:39.942Z</time></trkpt><trkpt lat="41.2745587" lon="14.3328449"><ele>86.5</ele><time>2026-04-26T08:36:40.931Z</time></trkpt><trkpt lat="41.2746931" lon="14.332539"><ele>88.0</ele><time>2026-04-26T08:36:41.942Z</time></trkpt><trkpt lat="41.2748306" lon="14.3322346"><ele>88.0</ele><time>2026-04-26T08:36:42.939Z</time></trkpt><trkpt lat="41.2749686" lon="14.3319306"><ele>88.0</ele><time>2026-04-26T08:36:43.935Z</time></trkpt><trkpt lat="41.2751061" lon="14.3316271"><ele>88.0</ele><time>2026-04-26T08:36:44.945Z</time></trkpt><trkpt lat="41.2752453" lon="14.3313243"><ele>88.0</ele><time>2026-04-26T08:36:45.951Z</time></trkpt><trkpt lat="41.2753874" lon="14.331025"><ele>88.0</ele><time>2026-04-26T08:36:46.942Z</time></trkpt><trkpt lat="41.2755318" lon="14.3307275"><ele>88.0</ele><time>2026-04-26T08:36:47.948Z</time></trkpt><trkpt lat="41.275678" lon="14.330431"><ele>88.0</ele><time>2026-04-26T08:36:48.946Z</time></trkpt><trkpt lat="41.2758265" lon="14.3301364"><ele>88.0</ele><time>2026-04-26T08:36:49.943Z</time></trkpt><trkpt lat="41.2759773" lon="14.329844"><ele>89.0</ele><time>2026-04-26T08:36:50.951Z</time></trkpt><trkpt lat="41.2761301" lon="14.3295527"><ele>90.0</ele><time>2026-04-26T08:36:51.96Z</time></trkpt><trkpt lat="41.2762832" lon="14.3292614"><ele>89.5</ele><time>2026-04-26T08:36:52.936Z</time></trkpt><trkpt lat="41.2764376" lon="14.3289724"><ele>89.0</ele><time>2026-04-26T08:36:53.949Z</time></trkpt><trkpt lat="41.2765941" lon="14.3286847"><ele>89.0</ele><time>2026-04-26T08:36:54.943Z</time></trkpt><trkpt lat="41.2767503" lon="14.3283983"><ele>89.0</ele><time>2026-04-26T08:36:55.952Z</time></trkpt><trkpt lat="41.2769086" lon="14.3281117"><ele>89.5</ele><time>2026-04-26T08:36:56.938Z</time></trkpt><trkpt lat="41.2770673" lon="14.327828"><ele>90.0</ele><time>2026-04-26T08:36:57.956Z</time></trkpt><trkpt lat="41.2772298" lon="14.3275578"><ele>89.0</ele><time>2026-04-26T08:36:58.947Z</time></trkpt><trkpt lat="41.2773955" lon="14.3272841"><ele>88.0</ele><time>2026-04-26T08:36:59.943Z</time></trkpt><trkpt lat="41.2775624" lon="14.327011"><ele>88.0</ele><time>2026-04-26T08:37:00.94Z</time></trkpt><trkpt lat="41.2777295" lon="14.3267356"><ele>88.0</ele><time>2026-04-26T08:37:01.948Z</time></trkpt><trkpt lat="41.2778968" lon="14.3264634"><ele>88.0</ele><time>2026-04-26T08:37:02.948Z</time></trkpt><trkpt lat="41.2780659" lon="14.3261869"><ele>88.0</ele><time>2026-04-26T08:37:03.937Z</time></trkpt><trkpt lat="41.2782354" lon="14.3259138"><ele>88.0</ele><time>2026-04-26T08:37:04.944Z</time></trkpt><trkpt lat="41.2784054" lon="14.3256414"><ele>88.0</ele><time>2026-04-26T08:37:05.937Z</time></trkpt><trkpt lat="41.278575" lon="14.3253682"><ele>89.0</ele><time>2026-04-26T08:37:06.951Z</time></trkpt><trkpt lat="41.2787487" lon="14.3251002"><ele>90.0</ele><time>2026-04-26T08:37:07.943Z</time></trkpt><trkpt lat="41.2789182" lon="14.3248322"><ele>88.0</ele><time>2026-04-26T08:37:08.946Z</time></trkpt><trkpt lat="41.2790861" lon="14.3245625"><ele>86.0</ele><time>2026-04-26T08:37:09.943Z</time></trkpt><trkpt lat="41.2792556" lon="14.3242942"><ele>86.0</ele><time>2026-04-26T08:37:10.934Z</time></trkpt><trkpt lat="41.2794252" lon="14.3240251"><ele>86.0</ele><time>2026-04-26T08:37:11.96Z</time></trkpt><trkpt lat="41.279595" lon="14.3237556"><ele>85.5</ele><time>2026-04-26T08:37:12.947Z</time></trkpt><trkpt lat="41.2797646" lon="14.3234858"><ele>85.0</ele><time>2026-04-26T08:37:13.937Z</time></trkpt><trkpt lat="41.279935" lon="14.3232158"><ele>85.0</ele><time>2026-04-26T08:37:14.94Z</time></trkpt><trkpt lat="41.2801055" lon="14.322947"><ele>85.0</ele><time>2026-04-26T08:37:15.949Z</time></trkpt><trkpt lat="41.2802778" lon="14.322677"><ele>85.0</ele><time>2026-04-26T08:37:16.939Z</time></trkpt><trkpt lat="41.2804492" lon="14.3224069"><ele>85.0</ele><time>2026-04-26T08:37:17.94Z</time></trkpt><trkpt lat="41.2806207" lon="14.3221349"><ele>88.0</ele><time>2026-04-26T08:37:18.951Z</time></trkpt><trkpt lat="41.2807904" lon="14.3218652"><ele>91.0</ele><time>2026-04-26T08:37:19.944Z</time></trkpt><trkpt lat="41.2809603" lon="14.3215959"><ele>91.5</ele><time>2026-04-26T08:37:20.943Z</time></trkpt><trkpt lat="41.2811229" lon="14.3213363"><ele>92.0</ele><time>2026-04-26T08:37:21.95Z</time></trkpt><trkpt lat="41.2812756" lon="14.3210912"><ele>92.0</ele><time>2026-04-26T08:37:22.948Z</time></trkpt><trkpt lat="41.2814283" lon="14.3208595"><ele>92.0</ele><time>2026-04-26T08:37:23.948Z</time></trkpt><trkpt lat="41.2815754" lon="14.320629"><ele>92.5</ele><time>2026-04-26T08:37:24.945Z</time></trkpt><trkpt lat="41.2817301" lon="14.3203922"><ele>93.0</ele><time>2026-04-26T08:37:25.941Z</time></trkpt><trkpt lat="41.2818787" lon="14.3201622"><ele>93.0</ele><time>2026-04-26T08:37:26.944Z</time></trkpt><trkpt lat="41.282026" lon="14.319925"><ele>93.0</ele><time>2026-04-26T08:37:27.947Z</time></trkpt><trkpt lat="41.2821708" lon="14.3196913"><ele>94.0</ele><time>2026-04-26T08:37:28.942Z</time></trkpt><trkpt lat="41.2823132" lon="14.3194586"><ele>95.0</ele><time>2026-04-26T08:37:29.937Z</time></trkpt><trkpt lat="41.2824501" lon="14.3192218"><ele>95.0</ele><time>2026-04-26T08:37:30.951Z</time></trkpt><trkpt lat="41.2825815" lon="14.318983"><ele>95.0</ele><time>2026-04-26T08:37:31.943Z</time></trkpt><trkpt lat="41.2827075" lon="14.3187441"><ele>95.0</ele><time>2026-04-26T08:37:32.935Z</time></trkpt><trkpt lat="41.2828266" lon="14.3185086"><ele>96.0</ele><time>2026-04-26T08:37:33.96Z</time></trkpt><trkpt lat="41.28294" lon="14.318279"><ele>97.0</ele><time>2026-04-26T08:37:34.948Z</time></trkpt><trkpt lat="41.283049" lon="14.3180576"><ele>98.0</ele><time>2026-04-26T08:37:35.939Z</time></trkpt><trkpt lat="41.2831559" lon="14.3178493"><ele>98.66666666666666</ele><time>2026-04-26T08:37:36.947Z</time></trkpt><trkpt lat="41.2832624" lon="14.3176554"><ele>99.33333333333334</ele><time>2026-04-26T08:37:37.957Z</time></trkpt><trkpt lat="41.2833653" lon="14.3174832"><ele>100.0</ele><time>2026-04-26T08:37:38.939Z</time></trkpt><trkpt lat="41.2834646" lon="14.317326"><ele>100.0</ele><time>2026-04-26T08:37:39.951Z</time></trkpt><trkpt lat="41.2835632" lon="14.3171775"><ele>100.0</ele><time>2026-04-26T08:37:40.941Z</time></trkpt><trkpt lat="41.283662" lon="14.3170316"><ele>100.0</ele><time>2026-04-26T08:37:41.945Z</time></trkpt><trkpt lat="41.2837602" lon="14.316888"><ele>100.0</ele><time>2026-04-26T08:37:42.945Z</time></trkpt><trkpt lat="41.2838569" lon="14.3167516"><ele>99.8</ele><time>2026-04-26T08:37:43.947Z</time></trkpt><trkpt lat="41.2839466" lon="14.3166239"><ele>99.6</ele><time>2026-04-26T08:37:44.948Z</time></trkpt><trkpt lat="41.284024" lon="14.3165128"><ele>99.4</ele><time>2026-04-26T08:37:45.947Z</time></trkpt><trkpt lat="41.2840921" lon="14.3164278"><ele>99.2</ele><time>2026-04-26T08:37:46.948Z</time></trkpt><trkpt lat="41.2841542" lon="14.3163755"><ele>99.0</ele><time>2026-04-26T08:37:47.949Z</time></trkpt><trkpt lat="41.2842638" lon="14.3163447"><ele>98.80000000000001</ele><time>2026-04-26T08:37:49.94Z</time></trkpt><trkpt lat="41.2843587" lon="14.3164107"><ele>98.60000000000001</ele><time>2026-04-26T08:37:51.965Z</time></trkpt><trkpt lat="41.2844092" lon="14.3164857"><ele>98.4</ele><time>2026-04-26T08:37:52.959Z</time></trkpt><trkpt lat="41.2844664" lon="14.3165793"><ele>98.2</ele><time>2026-04-26T08:37:53.939Z</time></trkpt><trkpt lat="41.284537" lon="14.3166939"><ele>98.0</ele><time>2026-04-26T08:37:54.948Z</time></trkpt><trkpt lat="41.2846185" lon="14.3168308"><ele>98.0</ele><time>2026-04-26T08:37:55.962Z</time></trkpt><trkpt lat="41.284717" lon="14.3169906"><ele>98.0</ele><time>2026-04-26T08:37:56.948Z</time></trkpt><trkpt lat="41.2848252" lon="14.3171628"><ele>98.0</ele><time>2026-04-26T08:37:57.938Z</time></trkpt><trkpt lat="41.284942" lon="14.3173488"><ele>96.33333333333333</ele><time>2026-04-26T08:37:58.963Z</time></trkpt><trkpt lat="41.2850659" lon="14.3175526"><ele>94.66666666666666</ele><time>2026-04-26T08:37:59.951Z</time></trkpt><trkpt lat="41.285199" lon="14.3177687"><ele>93.0</ele><time>2026-04-26T08:38:00.95Z</time></trkpt><trkpt lat="41.2853377" lon="14.3179943"><ele>93.0</ele><time>2026-04-26T08:38:01.939Z</time></trkpt><trkpt lat="41.2854781" lon="14.3182256"><ele>93.0</ele><time>2026-04-26T08:38:02.948Z</time></trkpt><trkpt lat="41.2856183" lon="14.3184574"><ele>93.0</ele><time>2026-04-26T08:38:03.95Z</time></trkpt><trkpt lat="41.2857563" lon="14.3186884"><ele>93.0</ele><time>2026-04-26T08:38:04.953Z</time></trkpt><trkpt lat="41.2858934" lon="14.3189156"><ele>93.0</ele><time>2026-04-26T08:38:05.965Z</time></trkpt><trkpt lat="41.286029" lon="14.3191407"><ele>93.0</ele><time>2026-04-26T08:38:06.949Z</time></trkpt><trkpt lat="41.2861635" lon="14.3193646"><ele>93.0</ele><time>2026-04-26T08:38:07.944Z</time></trkpt><trkpt lat="41.2862976" lon="14.3195869"><ele>93.0</ele><time>2026-04-26T08:38:08.95Z</time></trkpt><trkpt lat="41.2864318" lon="14.3198089"><ele>93.0</ele><time>2026-04-26T08:38:09.963Z</time></trkpt><trkpt lat="41.286564" lon="14.3200289"><ele>92.0</ele><time>2026-04-26T08:38:10.953Z</time></trkpt><trkpt lat="41.2866944" lon="14.320247"><ele>91.0</ele><time>2026-04-26T08:38:11.948Z</time></trkpt><trkpt lat="41.2868189" lon="14.3204568"><ele>90.0</ele><time>2026-04-26T08:38:12.95Z</time></trkpt><trkpt lat="41.2869394" lon="14.3206556"><ele>89.0</ele><time>2026-04-26T08:38:13.946Z</time></trkpt><trkpt lat="41.2870475" lon="14.3208479"><ele>88.0</ele><time>2026-04-26T08:38:14.976Z</time></trkpt><trkpt lat="41.2871541" lon="14.3210335"><ele>87.0</ele><time>2026-04-26T08:38:15.954Z</time></trkpt><trkpt lat="41.2872547" lon="14.3212037"><ele>86.0</ele><time>2026-04-26T08:38:16.947Z</time></trkpt><trkpt lat="41.2873477" lon="14.32136"><ele>85.0</ele><time>2026-04-26T08:38:17.966Z</time></trkpt><trkpt lat="41.2874277" lon="14.3215046"><ele>84.0</ele><time>2026-04-26T08:38:18.959Z</time></trkpt><trkpt lat="41.2875014" lon="14.3216338"><ele>83.0</ele><time>2026-04-26T08:38:19.945Z</time></trkpt><trkpt lat="41.2875703" lon="14.3217516"><ele>82.5</ele><time>2026-04-26T08:38:20.955Z</time></trkpt><trkpt lat="41.2876341" lon="14.3218668"><ele>82.0</ele><time>2026-04-26T08:38:21.954Z</time></trkpt><trkpt lat="41.2876906" lon="14.3219715"><ele>81.5</ele><time>2026-04-26T08:38:22.943Z</time></trkpt><trkpt lat="41.2877401" lon="14.3220749"><ele>81.0</ele><time>2026-04-26T08:38:23.945Z</time></trkpt><trkpt lat="41.287773" lon="14.3221748"><ele>80.5</ele><time>2026-04-26T08:38:24.949Z</time></trkpt><trkpt lat="41.287788" lon="14.3222632"><ele>80.0</ele><time>2026-04-26T08:38:25.946Z</time></trkpt><trkpt lat="41.2877868" lon="14.3223503"><ele>80.0</ele><time>2026-04-26T08:38:26.944Z</time></trkpt><trkpt lat="41.287772" lon="14.3224341"><ele>80.0</ele><time>2026-04-26T08:38:27.947Z</time></trkpt><trkpt lat="41.2877291" lon="14.3225839"><ele>80.0</ele><time>2026-04-26T08:38:29.947Z</time></trkpt><trkpt lat="41.2877442" lon="14.3227273"><ele>80.0</ele><time>2026-04-26T08:38:31.956Z</time></trkpt><trkpt lat="41.2878342" lon="14.3228405"><ele>80.0</ele><time>2026-04-26T08:38:33.947Z</time></trkpt><trkpt lat="41.2879063" lon="14.322871"><ele>80.0</ele><time>2026-04-26T08:38:34.946Z</time></trkpt><trkpt lat="41.2879866" lon="14.3228837"><ele>80.0</ele><time>2026-04-26T08:38:35.953Z</time></trkpt><trkpt lat="41.2880649" lon="14.3228956"><ele>80.0</ele><time>2026-04-26T08:38:36.955Z</time></trkpt><trkpt lat="41.2881406" lon="14.3229136"><ele>80.0</ele><time>2026-04-26T08:38:37.958Z</time></trkpt><trkpt lat="41.288216" lon="14.3229349"><ele>80.0</ele><time>2026-04-26T08:38:38.963Z</time></trkpt><trkpt lat="41.2882972" lon="14.3229528"><ele>80.0</ele><time>2026-04-26T08:38:39.957Z</time></trkpt><trkpt lat="41.2883892" lon="14.322965"><ele>79.6</ele><time>2026-04-26T08:38:40.947Z</time></trkpt><trkpt lat="41.2884851" lon="14.3229773"><ele>79.2</ele><time>2026-04-26T08:38:41.95Z</time></trkpt><trkpt lat="41.288584" lon="14.3229947"><ele>78.8</ele><time>2026-04-26T08:38:42.946Z</time></trkpt><trkpt lat="41.2886894" lon="14.3230148"><ele>78.4</ele><time>2026-04-26T08:38:43.947Z</time></trkpt><trkpt lat="41.2887997" lon="14.3230335"><ele>78.0</ele><time>2026-04-26T08:38:44.958Z</time></trkpt><trkpt lat="41.2889134" lon="14.3230518"><ele>77.0</ele><time>2026-04-26T08:38:45.945Z</time></trkpt><trkpt lat="41.2890289" lon="14.3230704"><ele>76.0</ele><time>2026-04-26T08:38:46.959Z</time></trkpt><trkpt lat="41.2891466" lon="14.3230875"><ele>75.0</ele><time>2026-04-26T08:38:47.955Z</time></trkpt><trkpt lat="41.2892695" lon="14.3231045"><ele>74.0</ele><time>2026-04-26T08:38:48.951Z</time></trkpt><trkpt lat="41.2893974" lon="14.3231215"><ele>74.0</ele><time>2026-04-26T08:38:49.94Z</time></trkpt><trkpt lat="41.2895332" lon="14.3231395"><ele>74.0</ele><time>2026-04-26T08:38:50.957Z</time></trkpt><trkpt lat="41.2896793" lon="14.3231611"><ele>74.0</ele><time>2026-04-26T08:38:51.957Z</time></trkpt><trkpt lat="41.2898428" lon="14.3231852"><ele>74.0</ele><time>2026-04-26T08:38:52.955Z</time></trkpt><trkpt lat="41.2900231" lon="14.3232117"><ele>74.66666666666667</ele><time>2026-04-26T08:38:53.947Z</time></trkpt><trkpt lat="41.2902158" lon="14.3232444"><ele>75.33333333333333</ele><time>2026-04-26T08:38:54.949Z</time></trkpt><trkpt lat="41.2904179" lon="14.323282"><ele>76.0</ele><time>2026-04-26T08:38:55.949Z</time></trkpt><trkpt lat="41.290627" lon="14.3233166"><ele>76.0</ele><time>2026-04-26T08:38:56.94Z</time></trkpt><trkpt lat="41.2908408" lon="14.3233461"><ele>76.0</ele><time>2026-04-26T08:38:57.957Z</time></trkpt><trkpt lat="41.2910604" lon="14.3233732"><ele>76.0</ele><time>2026-04-26T08:38:58.955Z</time></trkpt><trkpt lat="41.2912924" lon="14.3234034"><ele>76.0</ele><time>2026-04-26T08:38:59.962Z</time></trkpt><trkpt lat="41.2915424" lon="14.3234412"><ele>76.0</ele><time>2026-04-26T08:39:00.938Z</time></trkpt><trkpt lat="41.2918068" lon="14.3234913"><ele>76.0</ele><time>2026-04-26T08:39:01.939Z</time></trkpt><trkpt lat="41.2920705" lon="14.3235428"><ele>76.0</ele><time>2026-04-26T08:39:02.943Z</time></trkpt><trkpt lat="41.2923277" lon="14.3235897"><ele>75.5</ele><time>2026-04-26T08:39:03.943Z</time></trkpt><trkpt lat="41.2925775" lon="14.3236328"><ele>75.0</ele><time>2026-04-26T08:39:04.942Z</time></trkpt><trkpt lat="41.292816" lon="14.3236739"><ele>75.0</ele><time>2026-04-26T08:39:05.945Z</time></trkpt><trkpt lat="41.2930484" lon="14.3237091"><ele>75.0</ele><time>2026-04-26T08:39:06.947Z</time></trkpt><trkpt lat="41.2932718" lon="14.323739"><ele>75.33333333333333</ele><time>2026-04-26T08:39:07.941Z</time></trkpt><trkpt lat="41.2934896" lon="14.3237717"><ele>75.66666666666666</ele><time>2026-04-26T08:39:08.957Z</time></trkpt><trkpt lat="41.2937042" lon="14.3238055"><ele>76.0</ele><time>2026-04-26T08:39:09.945Z</time></trkpt><trkpt lat="41.2939152" lon="14.323838"><ele>76.0</ele><time>2026-04-26T08:39:10.943Z</time></trkpt><trkpt lat="41.2941237" lon="14.3238702"><ele>76.0</ele><time>2026-04-26T08:39:11.949Z</time></trkpt><trkpt lat="41.2943274" lon="14.3239025"><ele>76.0</ele><time>2026-04-26T08:39:12.951Z</time></trkpt><trkpt lat="41.2945314" lon="14.3239346"><ele>76.0</ele><time>2026-04-26T08:39:13.948Z</time></trkpt><trkpt lat="41.2947334" lon="14.3239663"><ele>76.0</ele><time>2026-04-26T08:39:14.942Z</time></trkpt><trkpt lat="41.2949346" lon="14.3239982"><ele>76.0</ele><time>2026-04-26T08:39:15.951Z</time></trkpt><trkpt lat="41.2951372" lon="14.3240307"><ele>76.0</ele><time>2026-04-26T08:39:16.943Z</time></trkpt><trkpt lat="41.2953426" lon="14.3240646"><ele>76.0</ele><time>2026-04-26T08:39:17.939Z</time></trkpt><trkpt lat="41.2955481" lon="14.3240993"><ele>76.0</ele><time>2026-04-26T08:39:18.947Z</time></trkpt><trkpt lat="41.2957538" lon="14.3241403"><ele>76.0</ele><time>2026-04-26T08:39:19.944Z</time></trkpt><trkpt lat="41.2959558" lon="14.3241921"><ele>76.0</ele><time>2026-04-26T08:39:20.94Z</time></trkpt><trkpt lat="41.2961512" lon="14.3242487"><ele>76.0</ele><time>2026-04-26T08:39:21.958Z</time></trkpt><trkpt lat="41.2963367" lon="14.3243028"><ele>76.33333333333333</ele><time>2026-04-26T08:39:22.942Z</time></trkpt><trkpt lat="41.2965136" lon="14.3243552"><ele>76.66666666666667</ele><time>2026-04-26T08:39:23.944Z</time></trkpt><trkpt lat="41.2966841" lon="14.3244136"><ele>77.0</ele><time>2026-04-26T08:39:24.949Z</time></trkpt><trkpt lat="41.2968509" lon="14.3244834"><ele>77.0</ele><time>2026-04-26T08:39:25.943Z</time></trkpt><trkpt lat="41.2970165" lon="14.3245654"><ele>77.0</ele><time>2026-04-26T08:39:26.939Z</time></trkpt><trkpt lat="41.2971794" lon="14.3246601"><ele>77.0</ele><time>2026-04-26T08:39:27.938Z</time></trkpt><trkpt lat="41.2973426" lon="14.3247661"><ele>77.66666666666667</ele><time>2026-04-26T08:39:28.943Z</time></trkpt><trkpt lat="41.2975108" lon="14.3248806"><ele>78.33333333333333</ele><time>2026-04-26T08:39:29.952Z</time></trkpt><trkpt lat="41.2976914" lon="14.3250053"><ele>79.0</ele><time>2026-04-26T08:39:30.942Z</time></trkpt><trkpt lat="41.2978816" lon="14.3251362"><ele>79.0</ele><time>2026-04-26T08:39:31.941Z</time></trkpt><trkpt lat="41.298074" lon="14.3252743"><ele>79.0</ele><time>2026-04-26T08:39:32.939Z</time></trkpt><trkpt lat="41.2982616" lon="14.3254126"><ele>79.0</ele><time>2026-04-26T08:39:33.948Z</time></trkpt><trkpt lat="41.2984457" lon="14.325549"><ele>79.33333333333333</ele><time>2026-04-26T08:39:34.951Z</time></trkpt><trkpt lat="41.2986256" lon="14.3256817"><ele>79.66666666666667</ele><time>2026-04-26T08:39:35.937Z</time></trkpt><trkpt lat="41.2988018" lon="14.3258114"><ele>80.0</ele><time>2026-04-26T08:39:36.935Z</time></trkpt><trkpt lat="41.2989747" lon="14.3259392"><ele>80.0</ele><time>2026-04-26T08:39:37.941Z</time></trkpt><trkpt lat="41.2991455" lon="14.3260667"><ele>80.0</ele><time>2026-04-26T08:39:38.942Z</time></trkpt><trkpt lat="41.2993154" lon="14.3261929"><ele>80.0</ele><time>2026-04-26T08:39:39.943Z</time></trkpt><trkpt lat="41.2994844" lon="14.326318"><ele>80.0</ele><time>2026-04-26T08:39:40.94Z</time></trkpt><trkpt lat="41.2996544" lon="14.3264444"><ele>80.0</ele><time>2026-04-26T08:39:41.942Z</time></trkpt><trkpt lat="41.2998267" lon="14.3265719"><ele>80.0</ele><time>2026-04-26T08:39:42.944Z</time></trkpt><trkpt lat="41.3000011" lon="14.3267007"><ele>81.0</ele><time>2026-04-26T08:39:43.938Z</time></trkpt><trkpt lat="41.3001774" lon="14.3268291"><ele>82.0</ele><time>2026-04-26T08:39:44.944Z</time></trkpt><trkpt lat="41.3003566" lon="14.3269545"><ele>83.0</ele><time>2026-04-26T08:39:45.949Z</time></trkpt><trkpt lat="41.300537" lon="14.3270793"><ele>83.0</ele><time>2026-04-26T08:39:46.949Z</time></trkpt><trkpt lat="41.3007159" lon="14.3272135"><ele>83.0</ele><time>2026-04-26T08:39:47.943Z</time></trkpt><trkpt lat="41.3008923" lon="14.3273477"><ele>83.0</ele><time>2026-04-26T08:39:48.941Z</time></trkpt><trkpt lat="41.3010713" lon="14.3274831"><ele>83.0</ele><time>2026-04-26T08:39:49.947Z</time></trkpt><trkpt lat="41.301247" lon="14.3276107"><ele>83.0</ele><time>2026-04-26T08:39:50.956Z</time></trkpt><trkpt lat="41.3014202" lon="14.3277324"><ele>83.0</ele><time>2026-04-26T08:39:51.938Z</time></trkpt><trkpt lat="41.3015879" lon="14.327854"><ele>83.0</ele><time>2026-04-26T08:39:52.935Z</time></trkpt><trkpt lat="41.3017513" lon="14.3279757"><ele>83.0</ele><time>2026-04-26T08:39:53.936Z</time></trkpt><trkpt lat="41.3019129" lon="14.3280958"><ele>83.0</ele><time>2026-04-26T08:39:54.942Z</time></trkpt><trkpt lat="41.3020741" lon="14.3282152"><ele>83.0</ele><time>2026-04-26T08:39:55.964Z</time></trkpt><trkpt lat="41.3022369" lon="14.3283353"><ele>83.0</ele><time>2026-04-26T08:39:56.953Z</time></trkpt><trkpt lat="41.3024008" lon="14.3284566"><ele>83.0</ele><time>2026-04-26T08:39:57.947Z</time></trkpt><trkpt lat="41.3025657" lon="14.3285768"><ele>83.0</ele><time>2026-04-26T08:39:58.943Z</time></trkpt><trkpt lat="41.3027333" lon="14.3286988"><ele>83.0</ele><time>2026-04-26T08:39:59.942Z</time></trkpt><trkpt lat="41.3029009" lon="14.3288237"><ele>83.0</ele><time>2026-04-26T08:40:00.933Z</time></trkpt><trkpt lat="41.30307" lon="14.3289491"><ele>83.66666666666667</ele><time>2026-04-26T08:40:01.94Z</time></trkpt><trkpt lat="41.3032406" lon="14.3290755"><ele>84.33333333333333</ele><time>2026-04-26T08:40:02.943Z</time></trkpt><trkpt lat="41.3034125" lon="14.3292006"><ele>85.0</ele><time>2026-04-26T08:40:03.937Z</time></trkpt><trkpt lat="41.3035846" lon="14.3293261"><ele>85.0</ele><time>2026-04-26T08:40:04.939Z</time></trkpt><trkpt lat="41.303756" lon="14.32945"><ele>85.0</ele><time>2026-04-26T08:40:05.943Z</time></trkpt><trkpt lat="41.3039253" lon="14.3295744"><ele>85.0</ele><time>2026-04-26T08:40:06.953Z</time></trkpt><trkpt lat="41.304093" lon="14.3296987"><ele>86.0</ele><time>2026-04-26T08:40:07.94Z</time></trkpt><trkpt lat="41.3042601" lon="14.3298207"><ele>87.0</ele><time>2026-04-26T08:40:08.94Z</time></trkpt><trkpt lat="41.3044263" lon="14.3299418"><ele>88.0</ele><time>2026-04-26T08:40:09.95Z</time></trkpt><trkpt lat="41.3045937" lon="14.3300646"><ele>87.66666666666666</ele><time>2026-04-26T08:40:10.942Z</time></trkpt><trkpt lat="41.3047634" lon="14.3301884"><ele>87.33333333333333</ele><time>2026-04-26T08:40:11.94Z</time></trkpt><trkpt lat="41.304935" lon="14.3303128"><ele>87.0</ele><time>2026-04-26T08:40:12.946Z</time></trkpt><trkpt lat="41.3051068" lon="14.3304367"><ele>87.0</ele><time>2026-04-26T08:40:13.942Z</time></trkpt><trkpt lat="41.3052782" lon="14.3305601"><ele>87.0</ele><time>2026-04-26T08:40:14.935Z</time></trkpt><trkpt lat="41.3054483" lon="14.330684"><ele>87.0</ele><time>2026-04-26T08:40:15.954Z</time></trkpt><trkpt lat="41.3056172" lon="14.330809"><ele>87.0</ele><time>2026-04-26T08:40:16.943Z</time></trkpt><trkpt lat="41.3057861" lon="14.3309337"><ele>87.0</ele><time>2026-04-26T08:40:17.939Z</time></trkpt><trkpt lat="41.3059541" lon="14.3310586"><ele>87.0</ele><time>2026-04-26T08:40:18.946Z</time></trkpt><trkpt lat="41.3061222" lon="14.331184"><ele>87.0</ele><time>2026-04-26T08:40:19.945Z</time></trkpt><trkpt lat="41.3062899" lon="14.3313102"><ele>87.0</ele><time>2026-04-26T08:40:20.943Z</time></trkpt><trkpt lat="41.3064577" lon="14.3314361"><ele>87.0</ele><time>2026-04-26T08:40:21.942Z</time></trkpt><trkpt lat="41.3066255" lon="14.3315612"><ele>87.33333333333333</ele><time>2026-04-26T08:40:22.944Z</time></trkpt><trkpt lat="41.3067932" lon="14.3316858"><ele>87.66666666666666</ele><time>2026-04-26T08:40:23.942Z</time></trkpt><trkpt lat="41.3069608" lon="14.3318117"><ele>88.0</ele><time>2026-04-26T08:40:24.941Z</time></trkpt><trkpt lat="41.3071292" lon="14.3319384"><ele>88.0</ele><time>2026-04-26T08:40:25.939Z</time></trkpt><trkpt lat="41.3072986" lon="14.3320651"><ele>88.0</ele><time>2026-04-26T08:40:26.947Z</time></trkpt><trkpt lat="41.3074693" lon="14.3321905"><ele>88.0</ele><time>2026-04-26T08:40:27.934Z</time></trkpt><trkpt lat="41.3076414" lon="14.3323167"><ele>88.0</ele><time>2026-04-26T08:40:28.946Z</time></trkpt><trkpt lat="41.3078141" lon="14.3324438"><ele>88.0</ele><time>2026-04-26T08:40:29.94Z</time></trkpt><trkpt lat="41.3079884" lon="14.3325704"><ele>88.0</ele><time>2026-04-26T08:40:30.935Z</time></trkpt><trkpt lat="41.3081639" lon="14.3326965"><ele>88.0</ele><time>2026-04-26T08:40:31.953Z</time></trkpt><trkpt lat="41.3083391" lon="14.332823"><ele>88.0</ele><time>2026-04-26T08:40:32.947Z</time></trkpt><trkpt lat="41.3085122" lon="14.3329513"><ele>88.0</ele><time>2026-04-26T08:40:33.937Z</time></trkpt><trkpt lat="41.3086832" lon="14.3330787"><ele>88.33333333333333</ele><time>2026-04-26T08:40:34.948Z</time></trkpt><trkpt lat="41.3088534" lon="14.3332035"><ele>88.66666666666667</ele><time>2026-04-26T08:40:35.944Z</time></trkpt><trkpt lat="41.3090227" lon="14.3333268"><ele>89.0</ele><time>2026-04-26T08:40:36.942Z</time></trkpt><trkpt lat="41.3091907" lon="14.3334494"><ele>89.66666666666667</ele><time>2026-04-26T08:40:37.952Z</time></trkpt><trkpt lat="41.3093568" lon="14.3335728"><ele>90.33333333333333</ele><time>2026-04-26T08:40:38.94Z</time></trkpt><trkpt lat="41.3095212" lon="14.3336958"><ele>91.0</ele><time>2026-04-26T08:40:39.93Z</time></trkpt><trkpt lat="41.3096846" lon="14.3338162"><ele>90.66666666666666</ele><time>2026-04-26T08:40:40.941Z</time></trkpt><trkpt lat="41.3098384" lon="14.3339277"><ele>90.33333333333333</ele><time>2026-04-26T08:40:41.952Z</time></trkpt><trkpt lat="41.3099751" lon="14.334029"><ele>90.0</ele><time>2026-04-26T08:40:42.949Z</time></trkpt><trkpt lat="41.3101032" lon="14.3341242"><ele>90.0</ele><time>2026-04-26T08:40:43.936Z</time></trkpt><trkpt lat="41.3102263" lon="14.3342177"><ele>90.0</ele><time>2026-04-26T08:40:44.953Z</time></trkpt><trkpt lat="41.3103512" lon="14.3343141"><ele>90.0</ele><time>2026-04-26T08:40:45.943Z</time></trkpt><trkpt lat="41.3104797" lon="14.3344129"><ele>90.0</ele><time>2026-04-26T08:40:46.94Z</time></trkpt><trkpt lat="41.3106102" lon="14.3345134"><ele>90.33333333333333</ele><time>2026-04-26T08:40:47.951Z</time></trkpt><trkpt lat="41.3107422" lon="14.3346161"><ele>90.66666666666666</ele><time>2026-04-26T08:40:48.96Z</time></trkpt><trkpt lat="41.3108727" lon="14.3347256"><ele>91.0</ele><time>2026-04-26T08:40:49.953Z</time></trkpt><trkpt lat="41.3110036" lon="14.3348396"><ele>91.33333333333333</ele><time>2026-04-26T08:40:50.943Z</time></trkpt><trkpt lat="41.3111377" lon="14.3349565"><ele>91.66666666666667</ele><time>2026-04-26T08:40:51.95Z</time></trkpt><trkpt lat="41.3112731" lon="14.3350754"><ele>92.0</ele><time>2026-04-26T08:40:52.94Z</time></trkpt><trkpt lat="41.3114109" lon="14.3351962"><ele>92.33333333333334</ele><time>2026-04-26T08:40:53.947Z</time></trkpt><trkpt lat="41.3115531" lon="14.3353184"><ele>92.66666666666667</ele><time>2026-04-26T08:40:54.944Z</time></trkpt><trkpt lat="41.3117009" lon="14.3354431"><ele>93.0</ele><time>2026-04-26T08:40:55.944Z</time></trkpt><trkpt lat="41.3118616" lon="14.3355774"><ele>93.33333333333333</ele><time>2026-04-26T08:40:56.949Z</time></trkpt><trkpt lat="41.3120354" lon="14.3357251"><ele>93.66666666666666</ele><time>2026-04-26T08:40:57.937Z</time></trkpt><trkpt lat="41.3122126" lon="14.3358765"><ele>94.0</ele><time>2026-04-26T08:40:58.936Z</time></trkpt><trkpt lat="41.3123875" lon="14.3360247"><ele>94.33333333333333</ele><time>2026-04-26T08:40:59.951Z</time></trkpt><trkpt lat="41.3125598" lon="14.3361724"><ele>94.66666666666667</ele><time>2026-04-26T08:41:00.945Z</time></trkpt><trkpt lat="41.3127297" lon="14.3363197"><ele>95.0</ele><time>2026-04-26T08:41:01.942Z</time></trkpt><trkpt lat="41.3128979" lon="14.3364652"><ele>95.0</ele><time>2026-04-26T08:41:02.935Z</time></trkpt><trkpt lat="41.3130652" lon="14.3366085"><ele>95.0</ele><time>2026-04-26T08:41:03.938Z</time></trkpt><trkpt lat="41.3132285" lon="14.3367496"><ele>95.0</ele><time>2026-04-26T08:41:04.943Z</time></trkpt><trkpt lat="41.3133876" lon="14.3368883"><ele>94.66666666666667</ele><time>2026-04-26T08:41:05.937Z</time></trkpt><trkpt lat="41.3135433" lon="14.3370242"><ele>94.33333333333333</ele><time>2026-04-26T08:41:06.943Z</time></trkpt><trkpt lat="41.3136974" lon="14.3371566"><ele>94.0</ele><time>2026-04-26T08:41:07.95Z</time></trkpt><trkpt lat="41.3138495" lon="14.337287"><ele>94.33333333333333</ele><time>2026-04-26T08:41:08.937Z</time></trkpt><trkpt lat="41.3139993" lon="14.3374166"><ele>94.66666666666667</ele><time>2026-04-26T08:41:09.935Z</time></trkpt><trkpt lat="41.314148" lon="14.3375441"><ele>95.0</ele><time>2026-04-26T08:41:10.94Z</time></trkpt><trkpt lat="41.3142974" lon="14.3376708"><ele>95.0</ele><time>2026-04-26T08:41:11.945Z</time></trkpt><trkpt lat="41.3144464" lon="14.3377984"><ele>95.0</ele><time>2026-04-26T08:41:12.941Z</time></trkpt><trkpt lat="41.314596" lon="14.3379271"><ele>95.0</ele><time>2026-04-26T08:41:13.946Z</time></trkpt><trkpt lat="41.3147476" lon="14.3380569"><ele>95.66666666666667</ele><time>2026-04-26T08:41:14.942Z</time></trkpt><trkpt lat="41.3148998" lon="14.3381873"><ele>96.33333333333334</ele><time>2026-04-26T08:41:15.941Z</time></trkpt><trkpt lat="41.3150509" lon="14.3383182"><ele>97.0</ele><time>2026-04-26T08:41:16.942Z</time></trkpt><trkpt lat="41.3152021" lon="14.3384502"><ele>97.0</ele><time>2026-04-26T08:41:17.94Z</time></trkpt><trkpt lat="41.3153534" lon="14.3385833"><ele>97.0</ele><time>2026-04-26T08:41:18.947Z</time></trkpt><trkpt lat="41.3155036" lon="14.3387154"><ele>97.0</ele><time>2026-04-26T08:41:19.944Z</time></trkpt><trkpt lat="41.3156523" lon="14.3388446"><ele>97.33333333333334</ele><time>2026-04-26T08:41:20.941Z</time></trkpt><trkpt lat="41.3157988" lon="14.3389699"><ele>97.66666666666666</ele><time>2026-04-26T08:41:21.948Z</time></trkpt><trkpt lat="41.3159427" lon="14.3390927"><ele>98.0</ele><time>2026-04-26T08:41:22.949Z</time></trkpt><trkpt lat="41.3160833" lon="14.3392151"><ele>98.0</ele><time>2026-04-26T08:41:23.942Z</time></trkpt><trkpt lat="41.3162178" lon="14.3393328"><ele>98.0</ele><time>2026-04-26T08:41:24.938Z</time></trkpt><trkpt lat="41.3163444" lon="14.339444"><ele>98.0</ele><time>2026-04-26T08:41:25.935Z</time></trkpt><trkpt lat="41.3164673" lon="14.3395519"><ele>98.0</ele><time>2026-04-26T08:41:26.942Z</time></trkpt><trkpt lat="41.3165887" lon="14.3396575"><ele>98.0</ele><time>2026-04-26T08:41:27.932Z</time></trkpt><trkpt lat="41.3167112" lon="14.3397616"><ele>98.0</ele><time>2026-04-26T08:41:28.936Z</time></trkpt><trkpt lat="41.3168371" lon="14.3398661"><ele>98.0</ele><time>2026-04-26T08:41:29.943Z</time></trkpt><trkpt lat="41.3169651" lon="14.339973"><ele>98.66666666666666</ele><time>2026-04-26T08:41:30.941Z</time></trkpt><trkpt lat="41.317094" lon="14.3400832"><ele>99.33333333333334</ele><time>2026-04-26T08:41:31.945Z</time></trkpt><trkpt lat="41.3172251" lon="14.3401951"><ele>100.0</ele><time>2026-04-26T08:41:32.944Z</time></trkpt><trkpt lat="41.3173582" lon="14.3403075"><ele>100.0</ele><time>2026-04-26T08:41:33.953Z</time></trkpt><trkpt lat="41.3174923" lon="14.340422"><ele>100.0</ele><time>2026-04-26T08:41:34.943Z</time></trkpt><trkpt lat="41.3176272" lon="14.3405385"><ele>100.0</ele><time>2026-04-26T08:41:35.936Z</time></trkpt><trkpt lat="41.3177643" lon="14.3406552"><ele>100.0</ele><time>2026-04-26T08:41:36.942Z</time></trkpt><trkpt lat="41.3179022" lon="14.3407703"><ele>100.0</ele><time>2026-04-26T08:41:37.944Z</time></trkpt><trkpt lat="41.318037" lon="14.3408837"><ele>100.0</ele><time>2026-04-26T08:41:38.95Z</time></trkpt><trkpt lat="41.3181667" lon="14.3409935"><ele>100.0</ele><time>2026-04-26T08:41:39.945Z</time></trkpt><trkpt lat="41.3182924" lon="14.3410999"><ele>100.0</ele><time>2026-04-26T08:41:40.935Z</time></trkpt><trkpt lat="41.3184127" lon="14.3412037"><ele>100.0</ele><time>2026-04-26T08:41:41.949Z</time></trkpt><trkpt lat="41.3185286" lon="14.3413046"><ele>100.0</ele><time>2026-04-26T08:41:42.945Z</time></trkpt><trkpt lat="41.3186398" lon="14.3414018"><ele>100.25</ele><time>2026-04-26T08:41:43.943Z</time></trkpt><trkpt lat="41.3187426" lon="14.3414921"><ele>100.5</ele><time>2026-04-26T08:41:44.947Z</time></trkpt><trkpt lat="41.3188403" lon="14.3415764"><ele>100.75</ele><time>2026-04-26T08:41:45.949Z</time></trkpt><trkpt lat="41.318936" lon="14.3416555"><ele>101.0</ele><time>2026-04-26T08:41:46.949Z</time></trkpt><trkpt lat="41.3190281" lon="14.3417327"><ele>101.19999999999999</ele><time>2026-04-26T08:41:47.953Z</time></trkpt><trkpt lat="41.3191177" lon="14.3418106"><ele>101.39999999999999</ele><time>2026-04-26T08:41:48.953Z</time></trkpt><trkpt lat="41.3192049" lon="14.3418873"><ele>101.6</ele><time>2026-04-26T08:41:49.939Z</time></trkpt><trkpt lat="41.3192847" lon="14.3419565"><ele>101.8</ele><time>2026-04-26T08:41:50.947Z</time></trkpt><trkpt lat="41.3193505" lon="14.3420129"><ele>102.0</ele><time>2026-04-26T08:41:51.949Z</time></trkpt><trkpt lat="41.3194272" lon="14.3420816"><ele>102.0</ele><time>2026-04-26T08:41:53.94Z</time></trkpt><trkpt lat="41.3194778" lon="14.3421347"><ele>102.0</ele><time>2026-04-26T08:41:56.938Z</time></trkpt><trkpt lat="41.3195341" lon="14.3422396"><ele>102.0</ele><time>2026-04-26T08:41:58.947Z</time></trkpt><trkpt lat="41.3195988" lon="14.3423758"><ele>102.0</ele><time>2026-04-26T08:42:00.963Z</time></trkpt><trkpt lat="41.3196811" lon="14.342467"><ele>102.0</ele><time>2026-04-26T08:42:02.942Z</time></trkpt><trkpt lat="41.3197799" lon="14.3424403"><ele>102.28571428571429</ele><time>2026-04-26T08:42:04.947Z</time></trkpt><trkpt lat="41.3198196" lon="14.3423743"><ele>102.57142857142858</ele><time>2026-04-26T08:42:05.945Z</time></trkpt><trkpt lat="41.3198482" lon="14.3422886"><ele>102.85714285714286</ele><time>2026-04-26T08:42:06.951Z</time></trkpt><trkpt lat="41.319875" lon="14.3422015"><ele>103.14285714285714</ele><time>2026-04-26T08:42:07.949Z</time></trkpt><trkpt lat="41.3199087" lon="14.3421186"><ele>103.42857142857143</ele><time>2026-04-26T08:42:08.948Z</time></trkpt><trkpt lat="41.319955" lon="14.342039"><ele>103.71428571428571</ele><time>2026-04-26T08:42:09.947Z</time></trkpt><trkpt lat="41.3200145" lon="14.3419635"><ele>104.0</ele><time>2026-04-26T08:42:10.962Z</time></trkpt><trkpt lat="41.3200761" lon="14.3418964"><ele>103.99999999999999</ele><time>2026-04-26T08:42:11.936Z</time></trkpt><trkpt lat="41.3201316" lon="14.3418375"><ele>104.0</ele><time>2026-04-26T08:42:12.94Z</time></trkpt><trkpt lat="41.3201837" lon="14.3417859"><ele>104.0</ele><time>2026-04-26T08:42:13.949Z</time></trkpt><trkpt lat="41.3202811" lon="14.341695"><ele>104.0</ele><time>2026-04-26T08:42:15.945Z</time></trkpt><trkpt lat="41.3203368" lon="14.3416411"><ele>103.99999999999999</ele><time>2026-04-26T08:42:16.945Z</time></trkpt><trkpt lat="41.3203988" lon="14.3415723"><ele>104.0</ele><time>2026-04-26T08:42:17.955Z</time></trkpt><trkpt lat="41.3204672" lon="14.3414899"><ele>104.0</ele><time>2026-04-26T08:42:18.947Z</time></trkpt><trkpt lat="41.3205415" lon="14.3414015"><ele>104.0</ele><time>2026-04-26T08:42:19.946Z</time></trkpt><trkpt lat="41.3206199" lon="14.3413106"><ele>104.0</ele><time>2026-04-26T08:42:20.95Z</time></trkpt><trkpt lat="41.3207018" lon="14.3412147"><ele>104.0</ele><time>2026-04-26T08:42:21.944Z</time></trkpt><trkpt lat="41.3207862" lon="14.3411163"><ele>104.0</ele><time>2026-04-26T08:42:22.943Z</time></trkpt><trkpt lat="41.3208712" lon="14.3410177"><ele>104.0</ele><time>2026-04-26T08:42:23.951Z</time></trkpt><trkpt lat="41.3209572" lon="14.3409198"><ele>104.0</ele><time>2026-04-26T08:42:24.957Z</time></trkpt><trkpt lat="41.3210443" lon="14.3408208"><ele>104.0</ele><time>2026-04-26T08:42:25.941Z</time></trkpt><trkpt lat="41.3211335" lon="14.3407211"><ele>104.0</ele><time>2026-04-26T08:42:26.949Z</time></trkpt><trkpt lat="41.3212231" lon="14.3406204"><ele>104.0</ele><time>2026-04-26T08:42:27.948Z</time></trkpt><trkpt lat="41.3213116" lon="14.3405179"><ele>104.0</ele><time>2026-04-26T08:42:28.954Z</time></trkpt><trkpt lat="41.3214006" lon="14.340416"><ele>104.0</ele><time>2026-04-26T08:42:29.943Z</time></trkpt><trkpt lat="41.321492" lon="14.3403133"><ele>104.0</ele><time>2026-04-26T08:42:30.937Z</time></trkpt><trkpt lat="41.321597" lon="14.3401958"><ele>104.0</ele><time>2026-04-26T08:42:31.951Z</time></trkpt><trkpt lat="41.3217019" lon="14.3400638"><ele>104.0</ele><time>2026-04-26T08:42:32.946Z</time></trkpt><trkpt lat="41.3218138" lon="14.3399289"><ele>104.0</ele><time>2026-04-26T08:42:33.944Z</time></trkpt><trkpt lat="41.3219246" lon="14.3398046"><ele>104.0</ele><time>2026-04-26T08:42:34.939Z</time></trkpt><trkpt lat="41.3220363" lon="14.3396871"><ele>104.0</ele><time>2026-04-26T08:42:35.953Z</time></trkpt><trkpt lat="41.3221341" lon="14.339578"><ele>104.0</ele><time>2026-04-26T08:42:36.951Z</time></trkpt><trkpt lat="41.3222238" lon="14.339481"><ele>104.0</ele><time>2026-04-26T08:42:37.953Z</time></trkpt><trkpt lat="41.322308" lon="14.3393908"><ele>104.0</ele><time>2026-04-26T08:42:38.953Z</time></trkpt><trkpt lat="41.3223884" lon="14.3393023"><ele>104.4</ele><time>2026-04-26T08:42:39.956Z</time></trkpt><trkpt lat="41.322468" lon="14.3392122"><ele>104.80000000000001</ele><time>2026-04-26T08:42:40.946Z</time></trkpt><trkpt lat="41.3225463" lon="14.33912"><ele>105.19999999999999</ele><time>2026-04-26T08:42:41.938Z</time></trkpt><trkpt lat="41.3226266" lon="14.3390282"><ele>105.6</ele><time>2026-04-26T08:42:42.95Z</time></trkpt><trkpt lat="41.3227042" lon="14.3389376"><ele>106.0</ele><time>2026-04-26T08:42:43.945Z</time></trkpt><trkpt lat="41.322776" lon="14.3388548"><ele>106.0</ele><time>2026-04-26T08:42:44.942Z</time></trkpt><trkpt lat="41.3228395" lon="14.3387846"><ele>106.0</ele><time>2026-04-26T08:42:45.95Z</time></trkpt><trkpt lat="41.3228903" lon="14.338728"><ele>106.0</ele><time>2026-04-26T08:42:46.948Z</time></trkpt><trkpt lat="41.3229827" lon="14.3386217"><ele>106.0</ele><time>2026-04-26T08:42:48.942Z</time></trkpt><trkpt lat="41.3230402" lon="14.3385499"><ele>106.0</ele><time>2026-04-26T08:42:49.945Z</time></trkpt><trkpt lat="41.3231156" lon="14.3384526"><ele>106.0</ele><time>2026-04-26T08:42:50.946Z</time></trkpt><trkpt lat="41.3232164" lon="14.338339"><ele>106.0</ele><time>2026-04-26T08:42:51.937Z</time></trkpt><trkpt lat="41.3233368" lon="14.3382157"><ele>106.0</ele><time>2026-04-26T08:42:52.946Z</time></trkpt><trkpt lat="41.3234567" lon="14.3380869"><ele>106.0</ele><time>2026-04-26T08:42:53.944Z</time></trkpt><trkpt lat="41.3235729" lon="14.3379525"><ele>106.0</ele><time>2026-04-26T08:42:54.938Z</time></trkpt><trkpt lat="41.3236863" lon="14.3378179"><ele>106.0</ele><time>2026-04-26T08:42:55.942Z</time></trkpt><trkpt lat="41.3237985" lon="14.3376857"><ele>106.0</ele><time>2026-04-26T08:42:56.939Z</time></trkpt><trkpt lat="41.3239102" lon="14.3375571"><ele>106.0</ele><time>2026-04-26T08:42:57.938Z</time></trkpt><trkpt lat="41.3240227" lon="14.3374305"><ele>106.0</ele><time>2026-04-26T08:42:58.949Z</time></trkpt><trkpt lat="41.3241318" lon="14.3373078"><ele>106.0</ele><time>2026-04-26T08:42:59.943Z</time></trkpt><trkpt lat="41.3242367" lon="14.3371882"><ele>106.0</ele><time>2026-04-26T08:43:00.946Z</time></trkpt><trkpt lat="41.32434" lon="14.3370727"><ele>106.0</ele><time>2026-04-26T08:43:01.944Z</time></trkpt><trkpt lat="41.324438" lon="14.3369589"><ele>106.0</ele><time>2026-04-26T08:43:02.945Z</time></trkpt><trkpt lat="41.3245287" lon="14.3368554"><ele>106.0</ele><time>2026-04-26T08:43:03.945Z</time></trkpt><trkpt lat="41.3246129" lon="14.3367597"><ele>106.0</ele><time>2026-04-26T08:43:04.939Z</time></trkpt><trkpt lat="41.3246912" lon="14.3366645"><ele>106.0</ele><time>2026-04-26T08:43:05.942Z</time></trkpt><trkpt lat="41.3247669" lon="14.3365697"><ele>106.0</ele><time>2026-04-26T08:43:06.936Z</time></trkpt><trkpt lat="41.3248399" lon="14.3364807"><ele>105.83333333333334</ele><time>2026-04-26T08:43:07.955Z</time></trkpt><trkpt lat="41.3249023" lon="14.3364026"><ele>105.66666666666667</ele><time>2026-04-26T08:43:08.94Z</time></trkpt><trkpt lat="41.3249579" lon="14.3363443"><ele>105.5</ele><time>2026-04-26T08:43:09.938Z</time></trkpt><trkpt lat="41.3250153" lon="14.3362835"><ele>105.33333333333334</ele><time>2026-04-26T08:43:10.951Z</time></trkpt><trkpt lat="41.3250778" lon="14.3362143"><ele>105.16666666666667</ele><time>2026-04-26T08:43:11.944Z</time></trkpt><trkpt lat="41.3251505" lon="14.336131"><ele>105.0</ele><time>2026-04-26T08:43:12.948Z</time></trkpt><trkpt lat="41.3252334" lon="14.3360378"><ele>105.0</ele><time>2026-04-26T08:43:13.954Z</time></trkpt><trkpt lat="41.3253329" lon="14.3359305"><ele>105.0</ele><time>2026-04-26T08:43:14.948Z</time></trkpt><trkpt lat="41.3254374" lon="14.335822"><ele>105.0</ele><time>2026-04-26T08:43:15.943Z</time></trkpt><trkpt lat="41.325538" lon="14.335698"><ele>105.0</ele><time>2026-04-26T08:43:16.971Z</time></trkpt><trkpt lat="41.3256415" lon="14.3355681"><ele>105.25</ele><time>2026-04-26T08:43:17.945Z</time></trkpt><trkpt lat="41.3257485" lon="14.3354467"><ele>105.5</ele><time>2026-04-26T08:43:18.951Z</time></trkpt><trkpt lat="41.3258521" lon="14.3353188"><ele>105.75</ele><time>2026-04-26T08:43:19.954Z</time></trkpt><trkpt lat="41.3259575" lon="14.335198"><ele>106.0</ele><time>2026-04-26T08:43:20.943Z</time></trkpt><trkpt lat="41.3260619" lon="14.3350775"><ele>106.0</ele><time>2026-04-26T08:43:21.943Z</time></trkpt><trkpt lat="41.3261636" lon="14.3349561"><ele>106.0</ele><time>2026-04-26T08:43:22.952Z</time></trkpt><trkpt lat="41.3262613" lon="14.3348485"><ele>106.0</ele><time>2026-04-26T08:43:23.948Z</time></trkpt><trkpt lat="41.3263485" lon="14.3347534"><ele>106.0</ele><time>2026-04-26T08:43:24.94Z</time></trkpt><trkpt lat="41.3264197" lon="14.334674"><ele>105.83333333333334</ele><time>2026-04-26T08:43:25.952Z</time></trkpt><trkpt lat="41.3264763" lon="14.3346111"><ele>105.66666666666667</ele><time>2026-04-26T08:43:26.949Z</time></trkpt><trkpt lat="41.3265284" lon="14.3345516"><ele>105.5</ele><time>2026-04-26T08:43:27.95Z</time></trkpt><trkpt lat="41.3265823" lon="14.334496"><ele>105.33333333333334</ele><time>2026-04-26T08:43:28.934Z</time></trkpt><trkpt lat="41.3266406" lon="14.3344357"><ele>105.16666666666667</ele><time>2026-04-26T08:43:29.945Z</time></trkpt><trkpt lat="41.3267024" lon="14.3343663"><ele>105.0</ele><time>2026-04-26T08:43:30.944Z</time></trkpt><trkpt lat="41.3267636" lon="14.334285"><ele>105.0</ele><time>2026-04-26T08:43:31.945Z</time></trkpt><trkpt lat="41.3268212" lon="14.3341899"><ele>105.0</ele><time>2026-04-26T08:43:32.94Z</time></trkpt><trkpt lat="41.3268798" lon="14.3340842"><ele>105.0</ele><time>2026-04-26T08:43:33.947Z</time></trkpt><trkpt lat="41.3269418" lon="14.3339732"><ele>105.0</ele><time>2026-04-26T08:43:34.944Z</time></trkpt><trkpt lat="41.3270048" lon="14.3338636"><ele>105.0</ele><time>2026-04-26T08:43:35.95Z</time></trkpt><trkpt lat="41.3270613" lon="14.3337636"><ele>105.2</ele><time>2026-04-26T08:43:36.947Z</time></trkpt><trkpt lat="41.3271067" lon="14.3336816"><ele>105.4</ele><time>2026-04-26T08:43:37.936Z</time></trkpt><trkpt lat="41.3271749" lon="14.3335681"><ele>105.6</ele><time>2026-04-26T08:43:39.947Z</time></trkpt><trkpt lat="41.3272616" lon="14.3335308"><ele>105.8</ele><time>2026-04-26T08:43:41.957Z</time></trkpt><trkpt lat="41.3273617" lon="14.3335984"><ele>106.0</ele><time>2026-04-26T08:43:43.942Z</time></trkpt><trkpt lat="41.3274277" lon="14.3336531"><ele>106.19999999999999</ele><time>2026-04-26T08:43:44.955Z</time></trkpt><trkpt lat="41.3275038" lon="14.3337164"><ele>106.39999999999999</ele><time>2026-04-26T08:43:45.936Z</time></trkpt><trkpt lat="41.3275756" lon="14.3337843"><ele>106.6</ele><time>2026-04-26T08:43:46.94Z</time></trkpt><trkpt lat="41.3276639" lon="14.333859"><ele>106.8</ele><time>2026-04-26T08:43:47.937Z</time></trkpt><trkpt lat="41.327757" lon="14.3339502"><ele>107.0</ele><time>2026-04-26T08:43:48.941Z</time></trkpt><trkpt lat="41.3278537" lon="14.3340355"><ele>107.0</ele><time>2026-04-26T08:43:49.945Z</time></trkpt><trkpt lat="41.3279506" lon="14.3341284"><ele>107.0</ele><time>2026-04-26T08:43:50.935Z</time></trkpt><trkpt lat="41.3280505" lon="14.3342203"><ele>107.0</ele><time>2026-04-26T08:43:51.941Z</time></trkpt><trkpt lat="41.328152" lon="14.3343134"><ele>107.0</ele><time>2026-04-26T08:43:52.952Z</time></trkpt><trkpt lat="41.3282538" lon="14.3344035"><ele>107.19999999999999</ele><time>2026-04-26T08:43:53.956Z</time></trkpt><trkpt lat="41.3283509" lon="14.3344899"><ele>107.39999999999999</ele><time>2026-04-26T08:43:54.938Z</time></trkpt><trkpt lat="41.3284389" lon="14.3345688"><ele>107.60000000000001</ele><time>2026-04-26T08:43:55.937Z</time></trkpt><trkpt lat="41.3285076" lon="14.3346354"><ele>107.80000000000001</ele><time>2026-04-26T08:43:56.945Z</time></trkpt><trkpt lat="41.3285591" lon="14.3346868"><ele>108.0</ele><time>2026-04-26T08:43:57.944Z</time></trkpt><trkpt lat="41.3286316" lon="14.3347447"><ele>108.0</ele><time>2026-04-26T08:43:59.946Z</time></trkpt><trkpt lat="41.3286988" lon="14.3347378"><ele>108.00000000000001</ele><time>2026-04-26T08:44:01.945Z</time></trkpt><trkpt lat="41.3288242" lon="14.3346358"><ele>108.00000000000001</ele><time>2026-04-26T08:44:03.94Z</time></trkpt><trkpt lat="41.3288955" lon="14.3345602"><ele>108.0</ele><time>2026-04-26T08:44:04.935Z</time></trkpt><trkpt lat="41.3289725" lon="14.3344655"><ele>108.0</ele><time>2026-04-26T08:44:05.945Z</time></trkpt><trkpt lat="41.3290539" lon="14.3343576"><ele>108.0</ele><time>2026-04-26T08:44:06.94Z</time></trkpt><trkpt lat="41.3291221" lon="14.3342194"><ele>108.0</ele><time>2026-04-26T08:44:07.942Z</time></trkpt><trkpt lat="41.3291898" lon="14.3340731"><ele>108.0</ele><time>2026-04-26T08:44:08.945Z</time></trkpt><trkpt lat="41.3292605" lon="14.3339289"><ele>108.0</ele><time>2026-04-26T08:44:09.939Z</time></trkpt><trkpt lat="41.3293326" lon="14.3337801"><ele>108.25</ele><time>2026-04-26T08:44:10.936Z</time></trkpt><trkpt lat="41.3294072" lon="14.3336278"><ele>108.5</ele><time>2026-04-26T08:44:11.951Z</time></trkpt><trkpt lat="41.3294814" lon="14.33347"><ele>108.75</ele><time>2026-04-26T08:44:12.947Z</time></trkpt><trkpt lat="41.3295601" lon="14.3333147"><ele>109.0</ele><time>2026-04-26T08:44:13.951Z</time></trkpt><trkpt lat="41.3296409" lon="14.3331578"><ele>109.0</ele><time>2026-04-26T08:44:14.95Z</time></trkpt><trkpt lat="41.3297207" lon="14.3329996"><ele>109.0</ele><time>2026-04-26T08:44:15.937Z</time></trkpt><trkpt lat="41.3297979" lon="14.3328421"><ele>109.0</ele><time>2026-04-26T08:44:16.942Z</time></trkpt><trkpt lat="41.3298737" lon="14.3326859"><ele>109.0</ele><time>2026-04-26T08:44:17.958Z</time></trkpt><trkpt lat="41.3299512" lon="14.3325332"><ele>109.0</ele><time>2026-04-26T08:44:18.954Z</time></trkpt><trkpt lat="41.3300276" lon="14.3323863"><ele>109.0</ele><time>2026-04-26T08:44:19.943Z</time></trkpt><trkpt lat="41.3301008" lon="14.332252"><ele>109.0</ele><time>2026-04-26T08:44:20.936Z</time></trkpt><trkpt lat="41.3301728" lon="14.3321249"><ele>109.0</ele><time>2026-04-26T08:44:21.942Z</time></trkpt><trkpt lat="41.3302406" lon="14.3319929"><ele>109.25</ele><time>2026-04-26T08:44:22.947Z</time></trkpt><trkpt lat="41.3302997" lon="14.3318535"><ele>109.5</ele><time>2026-04-26T08:44:23.952Z</time></trkpt><trkpt lat="41.3303601" lon="14.3317113"><ele>109.75</ele><time>2026-04-26T08:44:24.943Z</time></trkpt><trkpt lat="41.3304274" lon="14.3315622"><ele>110.0</ele><time>2026-04-26T08:44:25.942Z</time></trkpt><trkpt lat="41.3304976" lon="14.3314161"><ele>109.5</ele><time>2026-04-26T08:44:26.943Z</time></trkpt><trkpt lat="41.330572" lon="14.3312636"><ele>109.0</ele><time>2026-04-26T08:44:27.951Z</time></trkpt><trkpt lat="41.3306475" lon="14.3311129"><ele>108.5</ele><time>2026-04-26T08:44:28.937Z</time></trkpt><trkpt lat="41.3307186" lon="14.3309603"><ele>108.0</ele><time>2026-04-26T08:44:29.951Z</time></trkpt><trkpt lat="41.3307942" lon="14.3308046"><ele>108.0</ele><time>2026-04-26T08:44:30.944Z</time></trkpt><trkpt lat="41.3308712" lon="14.3306472"><ele>108.0</ele><time>2026-04-26T08:44:31.954Z</time></trkpt><trkpt lat="41.3309491" lon="14.3304905"><ele>108.0</ele><time>2026-04-26T08:44:32.951Z</time></trkpt><trkpt lat="41.3310219" lon="14.3303341"><ele>108.0</ele><time>2026-04-26T08:44:33.941Z</time></trkpt><trkpt lat="41.3310942" lon="14.3301804"><ele>107.5</ele><time>2026-04-26T08:44:34.936Z</time></trkpt><trkpt lat="41.3311658" lon="14.330037"><ele>107.0</ele><time>2026-04-26T08:44:35.948Z</time></trkpt><trkpt lat="41.3312325" lon="14.3299024"><ele>106.5</ele><time>2026-04-26T08:44:36.952Z</time></trkpt><trkpt lat="41.331293" lon="14.329776"><ele>106.0</ele><time>2026-04-26T08:44:37.945Z</time></trkpt><trkpt lat="41.3313306" lon="14.3296472"><ele>105.83333333333334</ele><time>2026-04-26T08:44:38.944Z</time></trkpt><trkpt lat="41.3313509" lon="14.3295177"><ele>105.66666666666667</ele><time>2026-04-26T08:44:39.942Z</time></trkpt><trkpt lat="41.3313542" lon="14.3294027"><ele>105.5</ele><time>2026-04-26T08:44:40.949Z</time></trkpt><trkpt lat="41.3313346" lon="14.3292972"><ele>105.33333333333334</ele><time>2026-04-26T08:44:41.958Z</time></trkpt><trkpt lat="41.3312895" lon="14.3291998"><ele>105.16666666666667</ele><time>2026-04-26T08:44:42.948Z</time></trkpt><trkpt lat="41.3312275" lon="14.3291034"><ele>105.0</ele><time>2026-04-26T08:44:43.934Z</time></trkpt><trkpt lat="41.3311441" lon="14.3290033"><ele>105.0</ele><time>2026-04-26T08:44:44.947Z</time></trkpt><trkpt lat="41.3310441" lon="14.328907"><ele>105.0</ele><time>2026-04-26T08:44:45.941Z</time></trkpt><trkpt lat="41.3309337" lon="14.3288123"><ele>105.0</ele><time>2026-04-26T08:44:46.946Z</time></trkpt><trkpt lat="41.3308246" lon="14.3287199"><ele>105.0</ele><time>2026-04-26T08:44:47.953Z</time></trkpt><trkpt lat="41.3307234" lon="14.3286336"><ele>104.8</ele><time>2026-04-26T08:44:48.936Z</time></trkpt><trkpt lat="41.3306275" lon="14.3285545"><ele>104.6</ele><time>2026-04-26T08:44:49.941Z</time></trkpt><trkpt lat="41.3305341" lon="14.3284783"><ele>104.4</ele><time>2026-04-26T08:44:50.949Z</time></trkpt><trkpt lat="41.3304463" lon="14.3283986"><ele>104.2</ele><time>2026-04-26T08:44:51.956Z</time></trkpt><trkpt lat="41.3303645" lon="14.3283175"><ele>104.0</ele><time>2026-04-26T08:44:52.935Z</time></trkpt><trkpt lat="41.3302828" lon="14.3282387"><ele>104.4</ele><time>2026-04-26T08:44:53.936Z</time></trkpt><trkpt lat="41.3302074" lon="14.3281606"><ele>104.80000000000001</ele><time>2026-04-26T08:44:54.95Z</time></trkpt><trkpt lat="41.3301355" lon="14.3280848"><ele>105.19999999999999</ele><time>2026-04-26T08:44:55.935Z</time></trkpt><trkpt lat="41.3300732" lon="14.3280179"><ele>105.6</ele><time>2026-04-26T08:44:56.942Z</time></trkpt><trkpt lat="41.329996" lon="14.3279211"><ele>106.0</ele><time>2026-04-26T08:44:58.937Z</time></trkpt><trkpt lat="41.3300107" lon="14.3278015"><ele>106.00000000000001</ele><time>2026-04-26T08:45:01.952Z</time></trkpt><trkpt lat="41.3300696" lon="14.3276849"><ele>106.0</ele><time>2026-04-26T08:45:03.954Z</time></trkpt><trkpt lat="41.3301143" lon="14.3276113"><ele>106.0</ele><time>2026-04-26T08:45:04.936Z</time></trkpt><trkpt lat="41.330168" lon="14.3275322"><ele>106.0</ele><time>2026-04-26T08:45:05.947Z</time></trkpt><trkpt lat="41.3302193" lon="14.3274528"><ele>106.00000000000001</ele><time>2026-04-26T08:45:06.938Z</time></trkpt><trkpt lat="41.330265" lon="14.3273724"><ele>106.0</ele><time>2026-04-26T08:45:07.939Z</time></trkpt><trkpt lat="41.3303077" lon="14.3272926"><ele>105.83333333333334</ele><time>2026-04-26T08:45:08.948Z</time></trkpt><trkpt lat="41.330349" lon="14.3272144"><ele>105.66666666666667</ele><time>2026-04-26T08:45:09.945Z</time></trkpt><trkpt lat="41.3303947" lon="14.3271292"><ele>105.5</ele><time>2026-04-26T08:45:10.94Z</time></trkpt><trkpt lat="41.3304441" lon="14.3270383"><ele>105.33333333333334</ele><time>2026-04-26T08:45:11.938Z</time></trkpt><trkpt lat="41.3304977" lon="14.3269409"><ele>105.16666666666667</ele><time>2026-04-26T08:45:12.947Z</time></trkpt><trkpt lat="41.3305564" lon="14.3268406"><ele>105.0</ele><time>2026-04-26T08:45:13.952Z</time></trkpt><trkpt lat="41.3306201" lon="14.3267348"><ele>105.0</ele><time>2026-04-26T08:45:14.957Z</time></trkpt><trkpt lat="41.3306867" lon="14.3266216"><ele>105.0</ele><time>2026-04-26T08:45:15.942Z</time></trkpt><trkpt lat="41.3307548" lon="14.3265019"><ele>105.0</ele><time>2026-04-26T08:45:16.933Z</time></trkpt><trkpt lat="41.3308242" lon="14.3263781"><ele>105.0</ele><time>2026-04-26T08:45:17.939Z</time></trkpt><trkpt lat="41.3308953" lon="14.3262496"><ele>104.25</ele><time>2026-04-26T08:45:18.941Z</time></trkpt><trkpt lat="41.3309661" lon="14.3261191"><ele>103.5</ele><time>2026-04-26T08:45:19.949Z</time></trkpt><trkpt lat="41.331038" lon="14.32599"><ele>102.75</ele><time>2026-04-26T08:45:20.949Z</time></trkpt><trkpt lat="41.3311114" lon="14.3258581"><ele>102.0</ele><time>2026-04-26T08:45:21.935Z</time></trkpt><trkpt lat="41.3311854" lon="14.3257237"><ele>102.0</ele><time>2026-04-26T08:45:22.935Z</time></trkpt><trkpt lat="41.3312578" lon="14.3255903"><ele>102.0</ele><time>2026-04-26T08:45:23.946Z</time></trkpt><trkpt lat="41.3313301" lon="14.325463"><ele>102.0</ele><time>2026-04-26T08:45:24.952Z</time></trkpt><trkpt lat="41.3314015" lon="14.3253392"><ele>102.0</ele><time>2026-04-26T08:45:25.956Z</time></trkpt><trkpt lat="41.3314727" lon="14.3252193"><ele>102.0</ele><time>2026-04-26T08:45:26.942Z</time></trkpt><trkpt lat="41.3315439" lon="14.3250958"><ele>102.0</ele><time>2026-04-26T08:45:27.936Z</time></trkpt><trkpt lat="41.3316165" lon="14.3249652"><ele>102.0</ele><time>2026-04-26T08:45:28.943Z</time></trkpt><trkpt lat="41.3316907" lon="14.3248291"><ele>102.0</ele><time>2026-04-26T08:45:29.938Z</time></trkpt><trkpt lat="41.3317675" lon="14.3246892"><ele>102.0</ele><time>2026-04-26T08:45:30.943Z</time></trkpt><trkpt lat="41.3318492" lon="14.3245447"><ele>102.0</ele><time>2026-04-26T08:45:31.946Z</time></trkpt><trkpt lat="41.3319342" lon="14.3243963"><ele>102.0</ele><time>2026-04-26T08:45:32.941Z</time></trkpt><trkpt lat="41.332019" lon="14.3242456"><ele>102.0</ele><time>2026-04-26T08:45:33.935Z</time></trkpt><trkpt lat="41.3321036" lon="14.3240938"><ele>102.0</ele><time>2026-04-26T08:45:34.939Z</time></trkpt><trkpt lat="41.3321872" lon="14.3239421"><ele>102.0</ele><time>2026-04-26T08:45:35.945Z</time></trkpt><trkpt lat="41.3322666" lon="14.3237948"><ele>102.0</ele><time>2026-04-26T08:45:36.936Z</time></trkpt><trkpt lat="41.3323399" lon="14.3236577"><ele>102.0</ele><time>2026-04-26T08:45:37.941Z</time></trkpt><trkpt lat="41.3324103" lon="14.3235295"><ele>102.0</ele><time>2026-04-26T08:45:38.948Z</time></trkpt><trkpt lat="41.3324822" lon="14.3234027"><ele>102.0</ele><time>2026-04-26T08:45:39.946Z</time></trkpt><trkpt lat="41.3325562" lon="14.3232724"><ele>102.0</ele><time>2026-04-26T08:45:40.938Z</time></trkpt><trkpt lat="41.3326335" lon="14.3231367"><ele>102.0</ele><time>2026-04-26T08:45:41.945Z</time></trkpt><trkpt lat="41.3327139" lon="14.3229961"><ele>101.75</ele><time>2026-04-26T08:45:42.933Z</time></trkpt><trkpt lat="41.3327958" lon="14.3228517"><ele>101.5</ele><time>2026-04-26T08:45:43.943Z</time></trkpt><trkpt lat="41.3328727" lon="14.3227132"><ele>101.25</ele><time>2026-04-26T08:45:44.94Z</time></trkpt><trkpt lat="41.332941" lon="14.3225904"><ele>101.0</ele><time>2026-04-26T08:45:45.932Z</time></trkpt><trkpt lat="41.3330038" lon="14.3224783"><ele>101.6</ele><time>2026-04-26T08:45:46.947Z</time></trkpt><trkpt lat="41.3330612" lon="14.3223725"><ele>102.19999999999999</ele><time>2026-04-26T08:45:47.939Z</time></trkpt><trkpt lat="41.3331162" lon="14.3222723"><ele>102.80000000000001</ele><time>2026-04-26T08:45:48.945Z</time></trkpt><trkpt lat="41.3331688" lon="14.3221756"><ele>103.4</ele><time>2026-04-26T08:45:49.939Z</time></trkpt><trkpt lat="41.333224" lon="14.3220771"><ele>104.0</ele><time>2026-04-26T08:45:50.94Z</time></trkpt><trkpt lat="41.3332844" lon="14.321973"><ele>104.0</ele><time>2026-04-26T08:45:51.938Z</time></trkpt><trkpt lat="41.333349" lon="14.3218608"><ele>104.0</ele><time>2026-04-26T08:45:52.943Z</time></trkpt><trkpt lat="41.3334126" lon="14.321749"><ele>104.0</ele><time>2026-04-26T08:45:53.936Z</time></trkpt><trkpt lat="41.3334696" lon="14.3216468"><ele>104.0</ele><time>2026-04-26T08:45:54.946Z</time></trkpt><trkpt lat="41.3335168" lon="14.3215631"><ele>104.0</ele><time>2026-04-26T08:45:55.94Z</time></trkpt><trkpt lat="41.3335853" lon="14.321437"><ele>103.83333333333333</ele><time>2026-04-26T08:45:57.951Z</time></trkpt><trkpt lat="41.3336226" lon="14.3213691"><ele>103.66666666666666</ele><time>2026-04-26T08:45:58.941Z</time></trkpt><trkpt lat="41.333664" lon="14.3212941"><ele>103.5</ele><time>2026-04-26T08:45:59.936Z</time></trkpt><trkpt lat="41.3337105" lon="14.3212139"><ele>103.33333333333334</ele><time>2026-04-26T08:46:00.942Z</time></trkpt><trkpt lat="41.3337605" lon="14.3211288"><ele>103.16666666666667</ele><time>2026-04-26T08:46:01.945Z</time></trkpt><trkpt lat="41.3338148" lon="14.3210357"><ele>103.0</ele><time>2026-04-26T08:46:02.949Z</time></trkpt><trkpt lat="41.3338749" lon="14.3209276"><ele>103.5</ele><time>2026-04-26T08:46:03.941Z</time></trkpt><trkpt lat="41.3339424" lon="14.3208012"><ele>104.0</ele><time>2026-04-26T08:46:04.952Z</time></trkpt><trkpt lat="41.3340177" lon="14.3206572"><ele>104.5</ele><time>2026-04-26T08:46:05.95Z</time></trkpt><trkpt lat="41.3341055" lon="14.3204874"><ele>105.0</ele><time>2026-04-26T08:46:06.95Z</time></trkpt><trkpt lat="41.3342121" lon="14.3202949"><ele>105.0</ele><time>2026-04-26T08:46:07.952Z</time></trkpt><trkpt lat="41.3343353" lon="14.3200885"><ele>105.0</ele><time>2026-04-26T08:46:08.954Z</time></trkpt><trkpt lat="41.3344669" lon="14.3198682"><ele>105.0</ele><time>2026-04-26T08:46:09.94Z</time></trkpt><trkpt lat="41.3345997" lon="14.3196384"><ele>106.66666666666666</ele><time>2026-04-26T08:46:10.938Z</time></trkpt><trkpt lat="41.3347316" lon="14.3194041"><ele>108.33333333333333</ele><time>2026-04-26T08:46:11.945Z</time></trkpt><trkpt lat="41.3348623" lon="14.3191638"><ele>110.0</ele><time>2026-04-26T08:46:12.949Z</time></trkpt><trkpt lat="41.3349821" lon="14.318925"><ele>110.0</ele><time>2026-04-26T08:46:13.943Z</time></trkpt><trkpt lat="41.3350816" lon="14.3186872"><ele>110.0</ele><time>2026-04-26T08:46:14.942Z</time></trkpt><trkpt lat="41.3351581" lon="14.3184492"><ele>110.0</ele><time>2026-04-26T08:46:15.951Z</time></trkpt><trkpt lat="41.3352126" lon="14.3182095"><ele>110.0</ele><time>2026-04-26T08:46:16.945Z</time></trkpt><trkpt lat="41.335245" lon="14.3179619"><ele>110.0</ele><time>2026-04-26T08:46:17.949Z</time></trkpt><trkpt lat="41.3352573" lon="14.3176919"><ele>110.0</ele><time>2026-04-26T08:46:18.945Z</time></trkpt><trkpt lat="41.3352583" lon="14.3173914"><ele>110.0</ele><time>2026-04-26T08:46:19.943Z</time></trkpt><trkpt lat="41.3352564" lon="14.3170577"><ele>110.0</ele><time>2026-04-26T08:46:20.943Z</time></trkpt><trkpt lat="41.3352552" lon="14.3167087"><ele>109.5</ele><time>2026-04-26T08:46:21.939Z</time></trkpt><trkpt lat="41.3352555" lon="14.3163554"><ele>109.0</ele><time>2026-04-26T08:46:22.943Z</time></trkpt><trkpt lat="41.3352561" lon="14.3160056"><ele>109.0</ele><time>2026-04-26T08:46:23.944Z</time></trkpt><trkpt lat="41.3352564" lon="14.3156612"><ele>109.0</ele><time>2026-04-26T08:46:24.942Z</time></trkpt><trkpt lat="41.3352559" lon="14.3153224"><ele>109.0</ele><time>2026-04-26T08:46:25.944Z</time></trkpt><trkpt lat="41.3352563" lon="14.3149896"><ele>109.0</ele><time>2026-04-26T08:46:26.947Z</time></trkpt><trkpt lat="41.335257" lon="14.3146607"><ele>109.0</ele><time>2026-04-26T08:46:27.939Z</time></trkpt><trkpt lat="41.335258" lon="14.3143345"><ele>109.0</ele><time>2026-04-26T08:46:28.934Z</time></trkpt><trkpt lat="41.3352591" lon="14.3140098"><ele>110.5</ele><time>2026-04-26T08:46:29.94Z</time></trkpt><trkpt lat="41.3352594" lon="14.3136825"><ele>112.0</ele><time>2026-04-26T08:46:30.953Z</time></trkpt><trkpt lat="41.3352597" lon="14.3133539"><ele>111.0</ele><time>2026-04-26T08:46:31.944Z</time></trkpt><trkpt lat="41.3352602" lon="14.313024"><ele>110.0</ele><time>2026-04-26T08:46:32.936Z</time></trkpt><trkpt lat="41.3352604" lon="14.3126938"><ele>110.0</ele><time>2026-04-26T08:46:33.93Z</time></trkpt><trkpt lat="41.3352599" lon="14.3123635"><ele>110.0</ele><time>2026-04-26T08:46:34.935Z</time></trkpt><trkpt lat="41.3352598" lon="14.3120333"><ele>110.5</ele><time>2026-04-26T08:46:35.947Z</time></trkpt><trkpt lat="41.3352593" lon="14.3117035"><ele>111.0</ele><time>2026-04-26T08:46:36.939Z</time></trkpt><trkpt lat="41.3352584" lon="14.3113738"><ele>111.5</ele><time>2026-04-26T08:46:37.94Z</time></trkpt><trkpt lat="41.3352573" lon="14.311044"><ele>112.0</ele><time>2026-04-26T08:46:38.941Z</time></trkpt><trkpt lat="41.3352567" lon="14.3107135"><ele>111.5</ele><time>2026-04-26T08:46:39.944Z</time></trkpt><trkpt lat="41.3352573" lon="14.3103814"><ele>111.0</ele><time>2026-04-26T08:46:40.945Z</time></trkpt><trkpt lat="41.3352588" lon="14.3100478"><ele>111.5</ele><time>2026-04-26T08:46:41.948Z</time></trkpt><trkpt lat="41.335261" lon="14.3097291"><ele>112.0</ele><time>2026-04-26T08:46:42.937Z</time></trkpt><trkpt lat="41.3352609" lon="14.3093969"><ele>112.0</ele><time>2026-04-26T08:46:43.95Z</time></trkpt><trkpt lat="41.3352579" lon="14.3090669"><ele>112.0</ele><time>2026-04-26T08:46:44.955Z</time></trkpt><trkpt lat="41.3352548" lon="14.3087324"><ele>114.0</ele><time>2026-04-26T08:46:45.946Z</time></trkpt><trkpt lat="41.3352542" lon="14.3083914"><ele>116.0</ele><time>2026-04-26T08:46:46.943Z</time></trkpt><trkpt lat="41.3352566" lon="14.3080538"><ele>117.5</ele><time>2026-04-26T08:46:47.959Z</time></trkpt><trkpt lat="41.3352551" lon="14.3077167"><ele>119.0</ele><time>2026-04-26T08:46:48.95Z</time></trkpt><trkpt lat="41.3352549" lon="14.3073819"><ele>120.0</ele><time>2026-04-26T08:46:49.94Z</time></trkpt><trkpt lat="41.335254" lon="14.3070482"><ele>121.0</ele><time>2026-04-26T08:46:50.95Z</time></trkpt><trkpt lat="41.3352534" lon="14.306717"><ele>121.0</ele><time>2026-04-26T08:46:51.938Z</time></trkpt><trkpt lat="41.3352528" lon="14.3063922"><ele>121.0</ele><time>2026-04-26T08:46:52.941Z</time></trkpt><trkpt lat="41.3352527" lon="14.3060727"><ele>121.0</ele><time>2026-04-26T08:46:53.959Z</time></trkpt><trkpt lat="41.3352541" lon="14.3057565"><ele>121.0</ele><time>2026-04-26T08:46:54.952Z</time></trkpt><trkpt lat="41.3352536" lon="14.3054405"><ele>120.5</ele><time>2026-04-26T08:46:55.942Z</time></trkpt><trkpt lat="41.3352481" lon="14.3051223"><ele>120.0</ele><time>2026-04-26T08:46:56.938Z</time></trkpt><trkpt lat="41.3352377" lon="14.3048018"><ele>119.0</ele><time>2026-04-26T08:46:57.95Z</time></trkpt><trkpt lat="41.3352231" lon="14.3044784"><ele>118.0</ele><time>2026-04-26T08:46:58.943Z</time></trkpt><trkpt lat="41.3352079" lon="14.3041552"><ele>118.0</ele><time>2026-04-26T08:46:59.969Z</time></trkpt><trkpt lat="41.3351907" lon="14.3038327"><ele>118.0</ele><time>2026-04-26T08:47:00.949Z</time></trkpt><trkpt lat="41.33517" lon="14.3035106"><ele>118.0</ele><time>2026-04-26T08:47:01.947Z</time></trkpt><trkpt lat="41.3351464" lon="14.3031891"><ele>118.0</ele><time>2026-04-26T08:47:02.945Z</time></trkpt><trkpt lat="41.33512" lon="14.3028701"><ele>118.0</ele><time>2026-04-26T08:47:03.94Z</time></trkpt><trkpt lat="41.3350909" lon="14.3025569"><ele>118.0</ele><time>2026-04-26T08:47:04.949Z</time></trkpt><trkpt lat="41.3350607" lon="14.3022477"><ele>118.0</ele><time>2026-04-26T08:47:05.947Z</time></trkpt><trkpt lat="41.3350305" lon="14.3019412"><ele>118.0</ele><time>2026-04-26T08:47:06.951Z</time></trkpt><trkpt lat="41.3349998" lon="14.3016339"><ele>118.0</ele><time>2026-04-26T08:47:07.939Z</time></trkpt><trkpt lat="41.3349686" lon="14.3013252"><ele>118.0</ele><time>2026-04-26T08:47:08.94Z</time></trkpt><trkpt lat="41.3349378" lon="14.3010161"><ele>118.0</ele><time>2026-04-26T08:47:09.947Z</time></trkpt><trkpt lat="41.3349077" lon="14.300708"><ele>118.0</ele><time>2026-04-26T08:47:10.948Z</time></trkpt><trkpt lat="41.334878" lon="14.300401"><ele>120.0</ele><time>2026-04-26T08:47:11.936Z</time></trkpt><trkpt lat="41.3348483" lon="14.3000969"><ele>122.0</ele><time>2026-04-26T08:47:12.939Z</time></trkpt><trkpt lat="41.3348196" lon="14.2997938"><ele>122.5</ele><time>2026-04-26T08:47:13.945Z</time></trkpt><trkpt lat="41.3347905" lon="14.2994942"><ele>123.0</ele><time>2026-04-26T08:47:14.949Z</time></trkpt><trkpt lat="41.3347613" lon="14.2991958"><ele>123.66666666666666</ele><time>2026-04-26T08:47:15.956Z</time></trkpt><trkpt lat="41.334732" lon="14.2989005"><ele>124.33333333333333</ele><time>2026-04-26T08:47:16.95Z</time></trkpt><trkpt lat="41.3347012" lon="14.2986079"><ele>125.0</ele><time>2026-04-26T08:47:17.934Z</time></trkpt><trkpt lat="41.3346704" lon="14.2983201"><ele>123.0</ele><time>2026-04-26T08:47:18.948Z</time></trkpt><trkpt lat="41.334642" lon="14.2980387"><ele>121.0</ele><time>2026-04-26T08:47:19.942Z</time></trkpt><trkpt lat="41.3346148" lon="14.297765"><ele>119.0</ele><time>2026-04-26T08:47:20.947Z</time></trkpt><trkpt lat="41.3345874" lon="14.2975002"><ele>119.33333333333333</ele><time>2026-04-26T08:47:21.938Z</time></trkpt><trkpt lat="41.3345596" lon="14.2972428"><ele>119.66666666666666</ele><time>2026-04-26T08:47:22.94Z</time></trkpt><trkpt lat="41.3345331" lon="14.296991"><ele>120.0</ele><time>2026-04-26T08:47:23.94Z</time></trkpt><trkpt lat="41.3345078" lon="14.2967439"><ele>120.0</ele><time>2026-04-26T08:47:24.942Z</time></trkpt><trkpt lat="41.3344833" lon="14.2965007"><ele>120.0</ele><time>2026-04-26T08:47:25.944Z</time></trkpt><trkpt lat="41.3344572" lon="14.2962582"><ele>120.0</ele><time>2026-04-26T08:47:26.942Z</time></trkpt><trkpt lat="41.3344302" lon="14.2960145"><ele>120.66666666666666</ele><time>2026-04-26T08:47:27.931Z</time></trkpt><trkpt lat="41.3344025" lon="14.2957679"><ele>121.33333333333333</ele><time>2026-04-26T08:47:28.95Z</time></trkpt><trkpt lat="41.3343742" lon="14.2955189"><ele>122.0</ele><time>2026-04-26T08:47:29.946Z</time></trkpt><trkpt lat="41.3343463" lon="14.2952666"><ele>122.0</ele><time>2026-04-26T08:47:30.932Z</time></trkpt><trkpt lat="41.3343201" lon="14.2950116"><ele>122.0</ele><time>2026-04-26T08:47:31.945Z</time></trkpt><trkpt lat="41.3342946" lon="14.2947549"><ele>122.0</ele><time>2026-04-26T08:47:32.941Z</time></trkpt><trkpt lat="41.3342689" lon="14.294496"><ele>122.33333333333333</ele><time>2026-04-26T08:47:33.944Z</time></trkpt><trkpt lat="41.3342434" lon="14.294235"><ele>122.66666666666666</ele><time>2026-04-26T08:47:34.944Z</time></trkpt><trkpt lat="41.3342203" lon="14.2939725"><ele>123.0</ele><time>2026-04-26T08:47:35.952Z</time></trkpt><trkpt lat="41.3342011" lon="14.2937086"><ele>123.33333333333334</ele><time>2026-04-26T08:47:36.94Z</time></trkpt><trkpt lat="41.3341877" lon="14.2934434"><ele>123.66666666666667</ele><time>2026-04-26T08:47:37.94Z</time></trkpt><trkpt lat="41.3341803" lon="14.2931762"><ele>124.0</ele><time>2026-04-26T08:47:38.946Z</time></trkpt><trkpt lat="41.3341821" lon="14.2929057"><ele>124.33333333333334</ele><time>2026-04-26T08:47:39.937Z</time></trkpt><trkpt lat="41.3341961" lon="14.2926242"><ele>124.66666666666666</ele><time>2026-04-26T08:47:40.94Z</time></trkpt><trkpt lat="41.3342215" lon="14.2923269"><ele>125.0</ele><time>2026-04-26T08:47:41.944Z</time></trkpt><trkpt lat="41.3342533" lon="14.2920312"><ele>125.33333333333333</ele><time>2026-04-26T08:47:42.958Z</time></trkpt><trkpt lat="41.334292" lon="14.2917445"><ele>125.66666666666666</ele><time>2026-04-26T08:47:43.943Z</time></trkpt><trkpt lat="41.3343364" lon="14.2914669"><ele>126.0</ele><time>2026-04-26T08:47:44.94Z</time></trkpt><trkpt lat="41.3343835" lon="14.2911984"><ele>126.66666666666666</ele><time>2026-04-26T08:47:45.95Z</time></trkpt><trkpt lat="41.334428" lon="14.2909464"><ele>127.33333333333333</ele><time>2026-04-26T08:47:46.953Z</time></trkpt><trkpt lat="41.3344683" lon="14.2907153"><ele>128.0</ele><time>2026-04-26T08:47:47.935Z</time></trkpt><trkpt lat="41.3345064" lon="14.2904999"><ele>128.0</ele><time>2026-04-26T08:47:48.938Z</time></trkpt><trkpt lat="41.3345494" lon="14.2902749"><ele>128.0</ele><time>2026-04-26T08:47:49.941Z</time></trkpt><trkpt lat="41.3346057" lon="14.2900315"><ele>128.0</ele><time>2026-04-26T08:47:50.952Z</time></trkpt><trkpt lat="41.3346742" lon="14.289774"><ele>129.33333333333331</ele><time>2026-04-26T08:47:51.938Z</time></trkpt><trkpt lat="41.3347494" lon="14.2894981"><ele>130.66666666666666</ele><time>2026-04-26T08:47:52.942Z</time></trkpt><trkpt lat="41.3348218" lon="14.2892113"><ele>132.0</ele><time>2026-04-26T08:47:53.941Z</time></trkpt><trkpt lat="41.3348946" lon="14.2889172"><ele>132.0</ele><time>2026-04-26T08:47:54.943Z</time></trkpt><trkpt lat="41.3349695" lon="14.2886186"><ele>132.0</ele><time>2026-04-26T08:47:55.938Z</time></trkpt><trkpt lat="41.3350434" lon="14.2883191"><ele>132.5</ele><time>2026-04-26T08:47:56.939Z</time></trkpt><trkpt lat="41.3351171" lon="14.2880172"><ele>133.0</ele><time>2026-04-26T08:47:57.943Z</time></trkpt><trkpt lat="41.3351923" lon="14.2877144"><ele>133.0</ele><time>2026-04-26T08:47:58.946Z</time></trkpt><trkpt lat="41.3352677" lon="14.28741"><ele>133.0</ele><time>2026-04-26T08:47:59.953Z</time></trkpt><trkpt lat="41.3353436" lon="14.2871037"><ele>131.0</ele><time>2026-04-26T08:48:00.939Z</time></trkpt><trkpt lat="41.3354206" lon="14.2867946"><ele>129.0</ele><time>2026-04-26T08:48:01.947Z</time></trkpt><trkpt lat="41.3354977" lon="14.2864826"><ele>130.5</ele><time>2026-04-26T08:48:02.949Z</time></trkpt><trkpt lat="41.3355741" lon="14.286171"><ele>132.0</ele><time>2026-04-26T08:48:03.944Z</time></trkpt><trkpt lat="41.3356514" lon="14.2858616"><ele>131.5</ele><time>2026-04-26T08:48:04.956Z</time></trkpt><trkpt lat="41.3357279" lon="14.2855533"><ele>131.0</ele><time>2026-04-26T08:48:05.951Z</time></trkpt><trkpt lat="41.3358026" lon="14.2852471"><ele>131.0</ele><time>2026-04-26T08:48:06.939Z</time></trkpt><trkpt lat="41.3358752" lon="14.2849442"><ele>131.0</ele><time>2026-04-26T08:48:07.941Z</time></trkpt><trkpt lat="41.3359456" lon="14.2846464"><ele>130.0</ele><time>2026-04-26T08:48:08.937Z</time></trkpt><trkpt lat="41.3360162" lon="14.2843512"><ele>129.0</ele><time>2026-04-26T08:48:09.944Z</time></trkpt><trkpt lat="41.3360877" lon="14.284057"><ele>128.0</ele><time>2026-04-26T08:48:10.938Z</time></trkpt><trkpt lat="41.3361593" lon="14.2837632"><ele>127.0</ele><time>2026-04-26T08:48:11.941Z</time></trkpt><trkpt lat="41.3362302" lon="14.2834685"><ele>127.0</ele><time>2026-04-26T08:48:12.944Z</time></trkpt><trkpt lat="41.3363029" lon="14.2831727"><ele>127.0</ele><time>2026-04-26T08:48:13.945Z</time></trkpt><trkpt lat="41.3363762" lon="14.2828762"><ele>130.0</ele><time>2026-04-26T08:48:14.942Z</time></trkpt><trkpt lat="41.3364488" lon="14.2825776"><ele>133.0</ele><time>2026-04-26T08:48:15.936Z</time></trkpt><trkpt lat="41.33652" lon="14.2822792"><ele>132.0</ele><time>2026-04-26T08:48:16.943Z</time></trkpt><trkpt lat="41.336591" lon="14.2819811"><ele>131.0</ele><time>2026-04-26T08:48:17.955Z</time></trkpt><trkpt lat="41.3366623" lon="14.2816836"><ele>130.0</ele><time>2026-04-26T08:48:18.938Z</time></trkpt><trkpt lat="41.3367347" lon="14.2813892"><ele>129.0</ele><time>2026-04-26T08:48:19.946Z</time></trkpt><trkpt lat="41.3368058" lon="14.2810945"><ele>129.0</ele><time>2026-04-26T08:48:20.941Z</time></trkpt><trkpt lat="41.336877" lon="14.2807999"><ele>129.0</ele><time>2026-04-26T08:48:21.946Z</time></trkpt><trkpt lat="41.3369519" lon="14.2805069"><ele>128.0</ele><time>2026-04-26T08:48:22.947Z</time></trkpt><trkpt lat="41.3370262" lon="14.2802132"><ele>127.0</ele><time>2026-04-26T08:48:23.936Z</time></trkpt><trkpt lat="41.3370994" lon="14.2799179"><ele>126.5</ele><time>2026-04-26T08:48:24.942Z</time></trkpt><trkpt lat="41.3371725" lon="14.2796225"><ele>126.0</ele><time>2026-04-26T08:48:25.943Z</time></trkpt><trkpt lat="41.3372448" lon="14.2793274"><ele>127.5</ele><time>2026-04-26T08:48:26.935Z</time></trkpt><trkpt lat="41.3373167" lon="14.2790323"><ele>129.0</ele><time>2026-04-26T08:48:27.948Z</time></trkpt><trkpt lat="41.3373894" lon="14.2787383"><ele>129.0</ele><time>2026-04-26T08:48:28.94Z</time></trkpt><trkpt lat="41.3374629" lon="14.2784462"><ele>129.0</ele><time>2026-04-26T08:48:29.941Z</time></trkpt><trkpt lat="41.3375359" lon="14.2781548"><ele>129.5</ele><time>2026-04-26T08:48:30.939Z</time></trkpt><trkpt lat="41.3376084" lon="14.2778631"><ele>130.0</ele><time>2026-04-26T08:48:31.943Z</time></trkpt><trkpt lat="41.3376803" lon="14.2775713"><ele>130.0</ele><time>2026-04-26T08:48:32.941Z</time></trkpt><trkpt lat="41.3377505" lon="14.2772793"><ele>130.0</ele><time>2026-04-26T08:48:33.946Z</time></trkpt><trkpt lat="41.3378198" lon="14.2769886"><ele>130.0</ele><time>2026-04-26T08:48:34.94Z</time></trkpt><trkpt lat="41.3378876" lon="14.2767012"><ele>130.0</ele><time>2026-04-26T08:48:35.931Z</time></trkpt><trkpt lat="41.3379487" lon="14.2764347"><ele>130.0</ele><time>2026-04-26T08:48:36.945Z</time></trkpt><trkpt lat="41.3380031" lon="14.2761914"><ele>131.66666666666669</ele><time>2026-04-26T08:48:37.943Z</time></trkpt><trkpt lat="41.3380529" lon="14.2759588"><ele>133.33333333333334</ele><time>2026-04-26T08:48:38.942Z</time></trkpt><trkpt lat="41.3380947" lon="14.2757204"><ele>135.0</ele><time>2026-04-26T08:48:39.942Z</time></trkpt><trkpt lat="41.3381327" lon="14.2754629"><ele>135.0</ele><time>2026-04-26T08:48:40.946Z</time></trkpt><trkpt lat="41.3381692" lon="14.2751857"><ele>135.0</ele><time>2026-04-26T08:48:41.939Z</time></trkpt><trkpt lat="41.3382051" lon="14.2748921"><ele>135.0</ele><time>2026-04-26T08:48:42.943Z</time></trkpt><trkpt lat="41.3382419" lon="14.2745881"><ele>135.0</ele><time>2026-04-26T08:48:43.936Z</time></trkpt><trkpt lat="41.3382803" lon="14.2742789"><ele>135.0</ele><time>2026-04-26T08:48:44.947Z</time></trkpt><trkpt lat="41.3383196" lon="14.2739643"><ele>134.5</ele><time>2026-04-26T08:48:45.935Z</time></trkpt><trkpt lat="41.3383575" lon="14.2736468"><ele>134.0</ele><time>2026-04-26T08:48:46.937Z</time></trkpt><trkpt lat="41.3383938" lon="14.2733275"><ele>134.5</ele><time>2026-04-26T08:48:47.941Z</time></trkpt><trkpt lat="41.3384296" lon="14.2730064"><ele>135.0</ele><time>2026-04-26T08:48:48.947Z</time></trkpt><trkpt lat="41.3384656" lon="14.2726825"><ele>135.0</ele><time>2026-04-26T08:48:49.948Z</time></trkpt><trkpt lat="41.3385024" lon="14.2723565"><ele>135.0</ele><time>2026-04-26T08:48:50.938Z</time></trkpt><trkpt lat="41.3385394" lon="14.2720292"><ele>135.0</ele><time>2026-04-26T08:48:51.95Z</time></trkpt><trkpt lat="41.3385742" lon="14.2717168"><ele>135.0</ele><time>2026-04-26T08:48:52.937Z</time></trkpt><trkpt lat="41.3386055" lon="14.2714332"><ele>134.33333333333334</ele><time>2026-04-26T08:48:53.941Z</time></trkpt><trkpt lat="41.3386348" lon="14.2711751"><ele>133.66666666666669</ele><time>2026-04-26T08:48:54.943Z</time></trkpt><trkpt lat="41.3386624" lon="14.270935"><ele>133.0</ele><time>2026-04-26T08:48:55.944Z</time></trkpt><trkpt lat="41.338688" lon="14.2707094"><ele>133.33333333333334</ele><time>2026-04-26T08:48:56.935Z</time></trkpt><trkpt lat="41.3387125" lon="14.2704977"><ele>133.66666666666666</ele><time>2026-04-26T08:48:57.942Z</time></trkpt><trkpt lat="41.3387356" lon="14.2702914"><ele>134.0</ele><time>2026-04-26T08:48:58.937Z</time></trkpt><trkpt lat="41.3387601" lon="14.2700757"><ele>134.0</ele><time>2026-04-26T08:48:59.929Z</time></trkpt><trkpt lat="41.3387865" lon="14.2698393"><ele>134.0</ele><time>2026-04-26T08:49:00.94Z</time></trkpt><trkpt lat="41.3388148" lon="14.2695718"><ele>134.0</ele><time>2026-04-26T08:49:01.943Z</time></trkpt><trkpt lat="41.3388456" lon="14.2692811"><ele>132.0</ele><time>2026-04-26T08:49:02.931Z</time></trkpt><trkpt lat="41.3388789" lon="14.2689803"><ele>130.0</ele><time>2026-04-26T08:49:03.937Z</time></trkpt><trkpt lat="41.3389134" lon="14.2686764"><ele>132.5</ele><time>2026-04-26T08:49:04.938Z</time></trkpt><trkpt lat="41.3389477" lon="14.2683687"><ele>135.0</ele><time>2026-04-26T08:49:05.937Z</time></trkpt><trkpt lat="41.3389815" lon="14.2680566"><ele>135.0</ele><time>2026-04-26T08:49:06.945Z</time></trkpt><trkpt lat="41.3390148" lon="14.2677384"><ele>135.0</ele><time>2026-04-26T08:49:07.941Z</time></trkpt><trkpt lat="41.3390484" lon="14.2674181"><ele>134.0</ele><time>2026-04-26T08:49:08.941Z</time></trkpt><trkpt lat="41.3390818" lon="14.2671008"><ele>133.0</ele><time>2026-04-26T08:49:09.938Z</time></trkpt><trkpt lat="41.3391152" lon="14.2667871"><ele>133.0</ele><time>2026-04-26T08:49:10.945Z</time></trkpt><trkpt lat="41.3391492" lon="14.2664778"><ele>133.0</ele><time>2026-04-26T08:49:11.946Z</time></trkpt><trkpt lat="41.3391835" lon="14.2661715"><ele>133.0</ele><time>2026-04-26T08:49:12.936Z</time></trkpt><trkpt lat="41.3392167" lon="14.2658682"><ele>133.0</ele><time>2026-04-26T08:49:13.936Z</time></trkpt><trkpt lat="41.3392492" lon="14.2655668"><ele>133.0</ele><time>2026-04-26T08:49:14.94Z</time></trkpt><trkpt lat="41.3392814" lon="14.2652672"><ele>133.0</ele><time>2026-04-26T08:49:15.938Z</time></trkpt><trkpt lat="41.3393141" lon="14.2649683"><ele>132.5</ele><time>2026-04-26T08:49:16.945Z</time></trkpt><trkpt lat="41.3393492" lon="14.2646711"><ele>132.0</ele><time>2026-04-26T08:49:17.953Z</time></trkpt><trkpt lat="41.3393854" lon="14.2643744"><ele>132.0</ele><time>2026-04-26T08:49:18.945Z</time></trkpt><trkpt lat="41.3394226" lon="14.2640776"><ele>132.0</ele><time>2026-04-26T08:49:19.941Z</time></trkpt><trkpt lat="41.3394611" lon="14.2637812"><ele>131.66666666666666</ele><time>2026-04-26T08:49:20.947Z</time></trkpt><trkpt lat="41.3395015" lon="14.2634875"><ele>131.33333333333331</ele><time>2026-04-26T08:49:21.944Z</time></trkpt><trkpt lat="41.3395492" lon="14.2631976"><ele>131.0</ele><time>2026-04-26T08:49:22.935Z</time></trkpt><trkpt lat="41.3396151" lon="14.2629161"><ele>131.0</ele><time>2026-04-26T08:49:23.948Z</time></trkpt><trkpt lat="41.3397004" lon="14.262645"><ele>131.0</ele><time>2026-04-26T08:49:24.936Z</time></trkpt><trkpt lat="41.3397991" lon="14.2623831"><ele>131.0</ele><time>2026-04-26T08:49:25.937Z</time></trkpt><trkpt lat="41.3399018" lon="14.2621251"><ele>131.0</ele><time>2026-04-26T08:49:26.951Z</time></trkpt><trkpt lat="41.3400061" lon="14.2618679"><ele>131.0</ele><time>2026-04-26T08:49:27.946Z</time></trkpt><trkpt lat="41.3401128" lon="14.2616113"><ele>131.0</ele><time>2026-04-26T08:49:28.943Z</time></trkpt><trkpt lat="41.3402202" lon="14.2613531"><ele>130.66666666666666</ele><time>2026-04-26T08:49:29.947Z</time></trkpt><trkpt lat="41.340329" lon="14.2610938"><ele>130.33333333333334</ele><time>2026-04-26T08:49:30.944Z</time></trkpt><trkpt lat="41.340438" lon="14.2608333"><ele>130.0</ele><time>2026-04-26T08:49:31.945Z</time></trkpt><trkpt lat="41.340547" lon="14.2605723"><ele>131.5</ele><time>2026-04-26T08:49:32.938Z</time></trkpt><trkpt lat="41.3406565" lon="14.2603103"><ele>133.0</ele><time>2026-04-26T08:49:33.945Z</time></trkpt><trkpt lat="41.3407663" lon="14.2600466"><ele>133.0</ele><time>2026-04-26T08:49:34.956Z</time></trkpt><trkpt lat="41.3408775" lon="14.2597812"><ele>133.0</ele><time>2026-04-26T08:49:35.939Z</time></trkpt><trkpt lat="41.3409893" lon="14.2595141"><ele>133.0</ele><time>2026-04-26T08:49:36.942Z</time></trkpt><trkpt lat="41.3410974" lon="14.2592831"><ele>133.0</ele><time>2026-04-26T08:49:37.938Z</time></trkpt><trkpt lat="41.3412083" lon="14.2590243"><ele>133.0</ele><time>2026-04-26T08:49:38.938Z</time></trkpt><trkpt lat="41.3413197" lon="14.2587687"><ele>135.0</ele><time>2026-04-26T08:49:39.948Z</time></trkpt><trkpt lat="41.3414306" lon="14.258507"><ele>137.0</ele><time>2026-04-26T08:49:40.951Z</time></trkpt><trkpt lat="41.3415411" lon="14.2582473"><ele>135.5</ele><time>2026-04-26T08:49:41.94Z</time></trkpt><trkpt lat="41.3416509" lon="14.257983"><ele>134.0</ele><time>2026-04-26T08:49:42.952Z</time></trkpt><trkpt lat="41.3417599" lon="14.2577183"><ele>134.0</ele><time>2026-04-26T08:49:43.988Z</time></trkpt><trkpt lat="41.3418701" lon="14.2574534"><ele>134.0</ele><time>2026-04-26T08:49:44.942Z</time></trkpt><trkpt lat="41.3419806" lon="14.2571909"><ele>132.5</ele><time>2026-04-26T08:49:45.934Z</time></trkpt><trkpt lat="41.3420938" lon="14.2569251"><ele>131.0</ele><time>2026-04-26T08:49:46.949Z</time></trkpt><trkpt lat="41.3422093" lon="14.2566565"><ele>132.5</ele><time>2026-04-26T08:49:47.952Z</time></trkpt><trkpt lat="41.3423253" lon="14.2563843"><ele>134.0</ele><time>2026-04-26T08:49:48.944Z</time></trkpt><trkpt lat="41.3424414" lon="14.2561128"><ele>134.0</ele><time>2026-04-26T08:49:49.939Z</time></trkpt><trkpt lat="41.3425563" lon="14.2558423"><ele>134.0</ele><time>2026-04-26T08:49:50.947Z</time></trkpt><trkpt lat="41.3426694" lon="14.2555733"><ele>131.0</ele><time>2026-04-26T08:49:51.94Z</time></trkpt><trkpt lat="41.342783" lon="14.2553051"><ele>128.0</ele><time>2026-04-26T08:49:52.94Z</time></trkpt><trkpt lat="41.342897" lon="14.2550381"><ele>129.0</ele><time>2026-04-26T08:49:53.936Z</time></trkpt><trkpt lat="41.3430108" lon="14.2547712"><ele>130.0</ele><time>2026-04-26T08:49:54.937Z</time></trkpt><trkpt lat="41.3431245" lon="14.2545067"><ele>130.0</ele><time>2026-04-26T08:49:55.938Z</time></trkpt><trkpt lat="41.3432353" lon="14.2542431"><ele>130.0</ele><time>2026-04-26T08:49:56.943Z</time></trkpt><trkpt lat="41.3433434" lon="14.2539799"><ele>128.5</ele><time>2026-04-26T08:49:57.933Z</time></trkpt><trkpt lat="41.3434517" lon="14.2537145"><ele>127.0</ele><time>2026-04-26T08:49:58.937Z</time></trkpt><trkpt lat="41.3435594" lon="14.2534486"><ele>127.0</ele><time>2026-04-26T08:49:59.945Z</time></trkpt><trkpt lat="41.343669" lon="14.2531833"><ele>127.0</ele><time>2026-04-26T08:50:00.936Z</time></trkpt><trkpt lat="41.3437786" lon="14.2529194"><ele>129.33333333333334</ele><time>2026-04-26T08:50:01.933Z</time></trkpt><trkpt lat="41.343888" lon="14.2526583"><ele>131.66666666666666</ele><time>2026-04-26T08:50:02.943Z</time></trkpt><trkpt lat="41.3439951" lon="14.2524003"><ele>134.0</ele><time>2026-04-26T08:50:03.965Z</time></trkpt><trkpt lat="41.3441011" lon="14.2521474"><ele>134.0</ele><time>2026-04-26T08:50:04.931Z</time></trkpt><trkpt lat="41.3442059" lon="14.251897"><ele>134.0</ele><time>2026-04-26T08:50:05.935Z</time></trkpt><trkpt lat="41.3443118" lon="14.251645"><ele>134.0</ele><time>2026-04-26T08:50:06.939Z</time></trkpt><trkpt lat="41.3444176" lon="14.2513924"><ele>134.33333333333331</ele><time>2026-04-26T08:50:07.937Z</time></trkpt><trkpt lat="41.3445235" lon="14.2511393"><ele>134.66666666666666</ele><time>2026-04-26T08:50:08.94Z</time></trkpt><trkpt lat="41.3446301" lon="14.2508821"><ele>135.0</ele><time>2026-04-26T08:50:09.951Z</time></trkpt><trkpt lat="41.3447416" lon="14.2506103"><ele>135.0</ele><time>2026-04-26T08:50:10.944Z</time></trkpt><trkpt lat="41.3448617" lon="14.2503168"><ele>135.0</ele><time>2026-04-26T08:50:11.938Z</time></trkpt><trkpt lat="41.3449826" lon="14.2500115"><ele>134.5</ele><time>2026-04-26T08:50:12.934Z</time></trkpt><trkpt lat="41.3451056" lon="14.2497089"><ele>134.0</ele><time>2026-04-26T08:50:13.942Z</time></trkpt><trkpt lat="41.3452283" lon="14.2494111"><ele>134.0</ele><time>2026-04-26T08:50:14.944Z</time></trkpt><trkpt lat="41.3453503" lon="14.2491171"><ele>134.0</ele><time>2026-04-26T08:50:15.937Z</time></trkpt><trkpt lat="41.345471" lon="14.2488266"><ele>135.0</ele><time>2026-04-26T08:50:16.938Z</time></trkpt><trkpt lat="41.3455899" lon="14.2485376"><ele>136.0</ele><time>2026-04-26T08:50:17.941Z</time></trkpt><trkpt lat="41.345707" lon="14.248252"><ele>136.0</ele><time>2026-04-26T08:50:18.965Z</time></trkpt><trkpt lat="41.3458226" lon="14.24797"><ele>136.0</ele><time>2026-04-26T08:50:20.012Z</time></trkpt><trkpt lat="41.3459367" lon="14.2476907"><ele>136.0</ele><time>2026-04-26T08:50:20.96Z</time></trkpt><trkpt lat="41.3460504" lon="14.2474151"><ele>136.0</ele><time>2026-04-26T08:50:21.943Z</time></trkpt><trkpt lat="41.3461646" lon="14.2471438"><ele>136.5</ele><time>2026-04-26T08:50:22.952Z</time></trkpt><trkpt lat="41.3462784" lon="14.2468755"><ele>137.0</ele><time>2026-04-26T08:50:23.963Z</time></trkpt><trkpt lat="41.3463907" lon="14.2466101"><ele>138.5</ele><time>2026-04-26T08:50:24.951Z</time></trkpt><trkpt lat="41.3465023" lon="14.2463441"><ele>140.0</ele><time>2026-04-26T08:50:25.938Z</time></trkpt><trkpt lat="41.3466125" lon="14.2460784"><ele>140.0</ele><time>2026-04-26T08:50:26.946Z</time></trkpt><trkpt lat="41.3467225" lon="14.2458129"><ele>140.0</ele><time>2026-04-26T08:50:27.942Z</time></trkpt><trkpt lat="41.3468327" lon="14.2455478"><ele>139.0</ele><time>2026-04-26T08:50:28.935Z</time></trkpt><trkpt lat="41.346944" lon="14.2452804"><ele>138.0</ele><time>2026-04-26T08:50:29.947Z</time></trkpt><trkpt lat="41.3470556" lon="14.2450134"><ele>138.0</ele><time>2026-04-26T08:50:30.938Z</time></trkpt><trkpt lat="41.3471629" lon="14.2447542"><ele>138.0</ele><time>2026-04-26T08:50:31.935Z</time></trkpt><trkpt lat="41.3472651" lon="14.244505"><ele>138.0</ele><time>2026-04-26T08:50:32.943Z</time></trkpt><trkpt lat="41.3473638" lon="14.2442617"><ele>138.0</ele><time>2026-04-26T08:50:33.943Z</time></trkpt><trkpt lat="41.3474613" lon="14.2440196"><ele>138.0</ele><time>2026-04-26T08:50:34.932Z</time></trkpt><trkpt lat="41.3475586" lon="14.2437759"><ele>138.0</ele><time>2026-04-26T08:50:35.945Z</time></trkpt><trkpt lat="41.3476558" lon="14.2435306"><ele>137.0</ele><time>2026-04-26T08:50:36.946Z</time></trkpt><trkpt lat="41.3477538" lon="14.2432865"><ele>136.0</ele><time>2026-04-26T08:50:37.938Z</time></trkpt><trkpt lat="41.3478553" lon="14.2430381"><ele>135.0</ele><time>2026-04-26T08:50:38.939Z</time></trkpt><trkpt lat="41.3479589" lon="14.242776"><ele>134.5</ele><time>2026-04-26T08:50:39.936Z</time></trkpt><trkpt lat="41.3480627" lon="14.2425051"><ele>134.0</ele><time>2026-04-26T08:50:40.941Z</time></trkpt><trkpt lat="41.3481712" lon="14.2422381"><ele>134.0</ele><time>2026-04-26T08:50:41.952Z</time></trkpt><trkpt lat="41.3482851" lon="14.2419773"><ele>134.0</ele><time>2026-04-26T08:50:42.937Z</time></trkpt><trkpt lat="41.3483997" lon="14.2417194"><ele>132.66666666666666</ele><time>2026-04-26T08:50:43.941Z</time></trkpt><trkpt lat="41.3485104" lon="14.2414623"><ele>131.33333333333334</ele><time>2026-04-26T08:50:44.939Z</time></trkpt><trkpt lat="41.3486169" lon="14.241207"><ele>130.0</ele><time>2026-04-26T08:50:45.945Z</time></trkpt><trkpt lat="41.3487208" lon="14.2409535"><ele>130.0</ele><time>2026-04-26T08:50:46.941Z</time></trkpt><trkpt lat="41.3488234" lon="14.2407007"><ele>130.0</ele><time>2026-04-26T08:50:47.934Z</time></trkpt><trkpt lat="41.3489257" lon="14.240449"><ele>130.0</ele><time>2026-04-26T08:50:48.946Z</time></trkpt><trkpt lat="41.3490271" lon="14.240199"><ele>129.0</ele><time>2026-04-26T08:50:49.938Z</time></trkpt><trkpt lat="41.3491283" lon="14.2399499"><ele>128.0</ele><time>2026-04-26T08:50:50.931Z</time></trkpt><trkpt lat="41.3492291" lon="14.2397012"><ele>127.0</ele><time>2026-04-26T08:50:51.943Z</time></trkpt><trkpt lat="41.3493279" lon="14.2394574"><ele>125.66666666666667</ele><time>2026-04-26T08:50:52.939Z</time></trkpt><trkpt lat="41.3494225" lon="14.2392235"><ele>124.33333333333334</ele><time>2026-04-26T08:50:53.939Z</time></trkpt><trkpt lat="41.3495133" lon="14.2389993"><ele>123.0</ele><time>2026-04-26T08:50:54.936Z</time></trkpt><trkpt lat="41.3496016" lon="14.2387814"><ele>123.33333333333334</ele><time>2026-04-26T08:50:55.945Z</time></trkpt><trkpt lat="41.3496896" lon="14.2385662"><ele>123.66666666666667</ele><time>2026-04-26T08:50:56.931Z</time></trkpt><trkpt lat="41.3497766" lon="14.2383545"><ele>124.0</ele><time>2026-04-26T08:50:57.937Z</time></trkpt><trkpt lat="41.3498625" lon="14.2381463"><ele>124.0</ele><time>2026-04-26T08:50:58.942Z</time></trkpt><trkpt lat="41.3499478" lon="14.237939"><ele>124.0</ele><time>2026-04-26T08:50:59.955Z</time></trkpt><trkpt lat="41.3500367" lon="14.237722"><ele>124.0</ele><time>2026-04-26T08:51:00.928Z</time></trkpt><trkpt lat="41.3501324" lon="14.2374848"><ele>122.66666666666667</ele><time>2026-04-26T08:51:01.942Z</time></trkpt><trkpt lat="41.3502336" lon="14.2372291"><ele>121.33333333333334</ele><time>2026-04-26T08:51:02.944Z</time></trkpt><trkpt lat="41.3503396" lon="14.2369587"><ele>120.0</ele><time>2026-04-26T08:51:03.93Z</time></trkpt><trkpt lat="41.3504501" lon="14.2366761"><ele>121.0</ele><time>2026-04-26T08:51:04.943Z</time></trkpt><trkpt lat="41.3505635" lon="14.2363872"><ele>122.0</ele><time>2026-04-26T08:51:05.95Z</time></trkpt><trkpt lat="41.3506833" lon="14.2360999"><ele>122.0</ele><time>2026-04-26T08:51:06.947Z</time></trkpt><trkpt lat="41.3508074" lon="14.2358168"><ele>122.0</ele><time>2026-04-26T08:51:07.948Z</time></trkpt><trkpt lat="41.3509312" lon="14.2355336"><ele>121.5</ele><time>2026-04-26T08:51:08.941Z</time></trkpt><trkpt lat="41.3510519" lon="14.2352494"><ele>121.0</ele><time>2026-04-26T08:51:09.936Z</time></trkpt><trkpt lat="41.3511699" lon="14.2349651"><ele>120.5</ele><time>2026-04-26T08:51:10.94Z</time></trkpt><trkpt lat="41.3512858" lon="14.234681"><ele>120.0</ele><time>2026-04-26T08:51:11.935Z</time></trkpt><trkpt lat="41.3514" lon="14.2343984"><ele>121.0</ele><time>2026-04-26T08:51:12.945Z</time></trkpt><trkpt lat="41.3515139" lon="14.2341169"><ele>122.0</ele><time>2026-04-26T08:51:13.94Z</time></trkpt><trkpt lat="41.3516276" lon="14.2338372"><ele>122.0</ele><time>2026-04-26T08:51:14.932Z</time></trkpt><trkpt lat="41.3517407" lon="14.23356"><ele>122.0</ele><time>2026-04-26T08:51:15.946Z</time></trkpt><trkpt lat="41.3518513" lon="14.2332858"><ele>121.5</ele><time>2026-04-26T08:51:16.94Z</time></trkpt><trkpt lat="41.3519599" lon="14.2330163"><ele>121.0</ele><time>2026-04-26T08:51:17.935Z</time></trkpt><trkpt lat="41.3520681" lon="14.2327517"><ele>121.0</ele><time>2026-04-26T08:51:18.952Z</time></trkpt><trkpt lat="41.3521743" lon="14.2324887"><ele>121.0</ele><time>2026-04-26T08:51:19.935Z</time></trkpt><trkpt lat="41.3522789" lon="14.2322326"><ele>121.0</ele><time>2026-04-26T08:51:20.939Z</time></trkpt><trkpt lat="41.3523821" lon="14.2319819"><ele>122.33333333333334</ele><time>2026-04-26T08:51:21.938Z</time></trkpt><trkpt lat="41.3524842" lon="14.2317343"><ele>123.66666666666666</ele><time>2026-04-26T08:51:22.935Z</time></trkpt><trkpt lat="41.352585" lon="14.2314877"><ele>125.0</ele><time>2026-04-26T08:51:23.945Z</time></trkpt><trkpt lat="41.3526855" lon="14.2312417"><ele>125.33333333333333</ele><time>2026-04-26T08:51:24.94Z</time></trkpt><trkpt lat="41.3527855" lon="14.2309976"><ele>125.66666666666666</ele><time>2026-04-26T08:51:25.937Z</time></trkpt><trkpt lat="41.3528849" lon="14.2307559"><ele>126.0</ele><time>2026-04-26T08:51:26.944Z</time></trkpt><trkpt lat="41.3529828" lon="14.2305154"><ele>128.66666666666666</ele><time>2026-04-26T08:51:27.948Z</time></trkpt><trkpt lat="41.3530789" lon="14.2302788"><ele>131.33333333333331</ele><time>2026-04-26T08:51:28.937Z</time></trkpt><trkpt lat="41.3531725" lon="14.2300476"><ele>134.0</ele><time>2026-04-26T08:51:29.931Z</time></trkpt><trkpt lat="41.353263" lon="14.2298238"><ele>134.0</ele><time>2026-04-26T08:51:30.939Z</time></trkpt><trkpt lat="41.3533505" lon="14.2296088"><ele>134.0</ele><time>2026-04-26T08:51:31.94Z</time></trkpt><trkpt lat="41.353437" lon="14.2293993"><ele>134.0</ele><time>2026-04-26T08:51:32.938Z</time></trkpt><trkpt lat="41.3535201" lon="14.2291953"><ele>134.0</ele><time>2026-04-26T08:51:33.945Z</time></trkpt><trkpt lat="41.3536007" lon="14.228998"><ele>134.0</ele><time>2026-04-26T08:51:34.948Z</time></trkpt><trkpt lat="41.3536796" lon="14.228805"><ele>134.0</ele><time>2026-04-26T08:51:35.929Z</time></trkpt><trkpt lat="41.3537574" lon="14.2286134"><ele>134.0</ele><time>2026-04-26T08:51:36.94Z</time></trkpt><trkpt lat="41.3538353" lon="14.2284199"><ele>134.0</ele><time>2026-04-26T08:51:37.943Z</time></trkpt><trkpt lat="41.3539146" lon="14.2282245"><ele>134.0</ele><time>2026-04-26T08:51:38.935Z</time></trkpt><trkpt lat="41.3539949" lon="14.2280293"><ele>134.0</ele><time>2026-04-26T08:51:39.934Z</time></trkpt><trkpt lat="41.3540753" lon="14.227834"><ele>134.0</ele><time>2026-04-26T08:51:40.942Z</time></trkpt><trkpt lat="41.3541539" lon="14.2276433"><ele>134.0</ele><time>2026-04-26T08:51:41.934Z</time></trkpt><trkpt lat="41.3542307" lon="14.2274572"><ele>133.66666666666666</ele><time>2026-04-26T08:51:42.937Z</time></trkpt><trkpt lat="41.3543063" lon="14.2272757"><ele>133.33333333333334</ele><time>2026-04-26T08:51:43.939Z</time></trkpt><trkpt lat="41.3543794" lon="14.2270929"><ele>133.0</ele><time>2026-04-26T08:51:44.942Z</time></trkpt><trkpt lat="41.3544518" lon="14.2268997"><ele>133.0</ele><time>2026-04-26T08:51:45.937Z</time></trkpt><trkpt lat="41.3545257" lon="14.2266878"><ele>133.0</ele><time>2026-04-26T08:51:46.943Z</time></trkpt><trkpt lat="41.3546149" lon="14.2264522"><ele>133.0</ele><time>2026-04-26T08:51:47.936Z</time></trkpt><trkpt lat="41.3547214" lon="14.2261928"><ele>133.0</ele><time>2026-04-26T08:51:48.931Z</time></trkpt><trkpt lat="41.3548396" lon="14.2259139"><ele>133.0</ele><time>2026-04-26T08:51:49.933Z</time></trkpt><trkpt lat="41.3549708" lon="14.2256228"><ele>133.0</ele><time>2026-04-26T08:51:50.944Z</time></trkpt><trkpt lat="41.3551053" lon="14.2253203"><ele>133.0</ele><time>2026-04-26T08:51:51.939Z</time></trkpt><trkpt lat="41.3552297" lon="14.2250218"><ele>132.5</ele><time>2026-04-26T08:51:52.939Z</time></trkpt><trkpt lat="41.3553434" lon="14.2247392"><ele>132.0</ele><time>2026-04-26T08:51:53.932Z</time></trkpt><trkpt lat="41.3554494" lon="14.2244746"><ele>132.66666666666666</ele><time>2026-04-26T08:51:54.938Z</time></trkpt><trkpt lat="41.3555496" lon="14.2242288"><ele>133.33333333333331</ele><time>2026-04-26T08:51:55.944Z</time></trkpt><trkpt lat="41.3556441" lon="14.2240008"><ele>134.0</ele><time>2026-04-26T08:51:56.946Z</time></trkpt><trkpt lat="41.3557335" lon="14.2237865"><ele>134.0</ele><time>2026-04-26T08:51:57.941Z</time></trkpt><trkpt lat="41.3558204" lon="14.2235779"><ele>134.0</ele><time>2026-04-26T08:51:58.95Z</time></trkpt><trkpt lat="41.3559051" lon="14.2233721"><ele>134.0</ele><time>2026-04-26T08:51:59.938Z</time></trkpt><trkpt lat="41.3559858" lon="14.2231661"><ele>133.0</ele><time>2026-04-26T08:52:00.935Z</time></trkpt><trkpt lat="41.3560622" lon="14.2229619"><ele>132.0</ele><time>2026-04-26T08:52:01.942Z</time></trkpt><trkpt lat="41.3561311" lon="14.2227568"><ele>131.0</ele><time>2026-04-26T08:52:02.937Z</time></trkpt><trkpt lat="41.3561891" lon="14.222555"><ele>131.0</ele><time>2026-04-26T08:52:03.945Z</time></trkpt><trkpt lat="41.3562355" lon="14.2223657"><ele>131.0</ele><time>2026-04-26T08:52:04.944Z</time></trkpt><trkpt lat="41.3562761" lon="14.2222005"><ele>131.0</ele><time>2026-04-26T08:52:05.941Z</time></trkpt><trkpt lat="41.3563168" lon="14.2220685"><ele>131.0</ele><time>2026-04-26T08:52:06.937Z</time></trkpt><trkpt lat="41.3563615" lon="14.2219751"><ele>131.83333333333331</ele><time>2026-04-26T08:52:07.955Z</time></trkpt><trkpt lat="41.3564096" lon="14.2219159"><ele>132.66666666666666</ele><time>2026-04-26T08:52:08.944Z</time></trkpt><trkpt lat="41.356512" lon="14.2218331"><ele>133.5</ele><time>2026-04-26T08:52:10.94Z</time></trkpt><trkpt lat="41.3565644" lon="14.2217794"><ele>134.33333333333334</ele><time>2026-04-26T08:52:11.949Z</time></trkpt><trkpt lat="41.3566165" lon="14.2217062"><ele>135.16666666666669</ele><time>2026-04-26T08:52:12.938Z</time></trkpt><trkpt lat="41.3566716" lon="14.221612"><ele>136.0</ele><time>2026-04-26T08:52:13.941Z</time></trkpt><trkpt lat="41.3567324" lon="14.2215022"><ele>135.0</ele><time>2026-04-26T08:52:14.943Z</time></trkpt><trkpt lat="41.3567991" lon="14.2213715"><ele>134.0</ele><time>2026-04-26T08:52:15.945Z</time></trkpt><trkpt lat="41.3568788" lon="14.2212188"><ele>133.0</ele><time>2026-04-26T08:52:16.935Z</time></trkpt><trkpt lat="41.3569737" lon="14.2210425"><ele>132.0</ele><time>2026-04-26T08:52:17.944Z</time></trkpt><trkpt lat="41.35708" lon="14.2208432"><ele>132.0</ele><time>2026-04-26T08:52:18.945Z</time></trkpt><trkpt lat="41.3571918" lon="14.2206211"><ele>132.0</ele><time>2026-04-26T08:52:19.951Z</time></trkpt><trkpt lat="41.3573109" lon="14.2203807"><ele>132.0</ele><time>2026-04-26T08:52:20.935Z</time></trkpt><trkpt lat="41.3574417" lon="14.2201259"><ele>132.0</ele><time>2026-04-26T08:52:21.947Z</time></trkpt><trkpt lat="41.3575795" lon="14.2198579"><ele>132.0</ele><time>2026-04-26T08:52:22.944Z</time></trkpt><trkpt lat="41.3577212" lon="14.2195796"><ele>129.5</ele><time>2026-04-26T08:52:23.934Z</time></trkpt><trkpt lat="41.3578667" lon="14.2192914"><ele>127.0</ele><time>2026-04-26T08:52:24.946Z</time></trkpt><trkpt lat="41.3580136" lon="14.2190006"><ele>130.0</ele><time>2026-04-26T08:52:25.942Z</time></trkpt><trkpt lat="41.3581613" lon="14.2187072"><ele>133.0</ele><time>2026-04-26T08:52:26.947Z</time></trkpt><trkpt lat="41.3583095" lon="14.2184133"><ele>131.0</ele><time>2026-04-26T08:52:27.936Z</time></trkpt><trkpt lat="41.3584573" lon="14.2181228"><ele>129.0</ele><time>2026-04-26T08:52:28.941Z</time></trkpt><trkpt lat="41.358604" lon="14.2178365"><ele>129.0</ele><time>2026-04-26T08:52:29.944Z</time></trkpt><trkpt lat="41.3587482" lon="14.2175534"><ele>129.0</ele><time>2026-04-26T08:52:30.939Z</time></trkpt><trkpt lat="41.3588892" lon="14.2172723"><ele>131.5</ele><time>2026-04-26T08:52:31.941Z</time></trkpt><trkpt lat="41.3590269" lon="14.2169972"><ele>134.0</ele><time>2026-04-26T08:52:32.939Z</time></trkpt><trkpt lat="41.359163" lon="14.2167303"><ele>132.5</ele><time>2026-04-26T08:52:33.941Z</time></trkpt><trkpt lat="41.3592989" lon="14.2164672"><ele>131.0</ele><time>2026-04-26T08:52:34.937Z</time></trkpt><trkpt lat="41.3594333" lon="14.2162051"><ele>131.0</ele><time>2026-04-26T08:52:35.942Z</time></trkpt><trkpt lat="41.3595647" lon="14.2159437"><ele>131.0</ele><time>2026-04-26T08:52:36.95Z</time></trkpt><trkpt lat="41.3596954" lon="14.2156831"><ele>131.0</ele><time>2026-04-26T08:52:37.935Z</time></trkpt><trkpt lat="41.3598253" lon="14.2154214"><ele>131.0</ele><time>2026-04-26T08:52:38.943Z</time></trkpt><trkpt lat="41.359956" lon="14.2151581"><ele>131.0</ele><time>2026-04-26T08:52:39.944Z</time></trkpt><trkpt lat="41.3600894" lon="14.2148927"><ele>131.0</ele><time>2026-04-26T08:52:40.94Z</time></trkpt><trkpt lat="41.360226" lon="14.2146238"><ele>128.0</ele><time>2026-04-26T08:52:41.944Z</time></trkpt><trkpt lat="41.360364" lon="14.214351"><ele>125.0</ele><time>2026-04-26T08:52:42.944Z</time></trkpt><trkpt lat="41.3605043" lon="14.2140772"><ele>127.0</ele><time>2026-04-26T08:52:43.943Z</time></trkpt><trkpt lat="41.3606443" lon="14.2138038"><ele>129.0</ele><time>2026-04-26T08:52:44.935Z</time></trkpt><trkpt lat="41.3607841" lon="14.2135321"><ele>129.0</ele><time>2026-04-26T08:52:45.945Z</time></trkpt><trkpt lat="41.3609226" lon="14.2132621"><ele>129.0</ele><time>2026-04-26T08:52:46.949Z</time></trkpt><trkpt lat="41.36106" lon="14.2129945"><ele>127.0</ele><time>2026-04-26T08:52:47.938Z</time></trkpt><trkpt lat="41.3611956" lon="14.2127285"><ele>125.0</ele><time>2026-04-26T08:52:48.936Z</time></trkpt><trkpt lat="41.3613287" lon="14.212463"><ele>126.5</ele><time>2026-04-26T08:52:49.938Z</time></trkpt><trkpt lat="41.3614619" lon="14.2121982"><ele>128.0</ele><time>2026-04-26T08:52:50.95Z</time></trkpt><trkpt lat="41.3615958" lon="14.2119338"><ele>128.0</ele><time>2026-04-26T08:52:51.948Z</time></trkpt><trkpt lat="41.3617297" lon="14.2116691"><ele>128.0</ele><time>2026-04-26T08:52:52.939Z</time></trkpt><trkpt lat="41.3618634" lon="14.2114039"><ele>127.5</ele><time>2026-04-26T08:52:53.937Z</time></trkpt><trkpt lat="41.3619988" lon="14.2111387"><ele>127.0</ele><time>2026-04-26T08:52:54.947Z</time></trkpt><trkpt lat="41.3621348" lon="14.2108737"><ele>127.5</ele><time>2026-04-26T08:52:55.952Z</time></trkpt><trkpt lat="41.3622709" lon="14.2106069"><ele>128.0</ele><time>2026-04-26T08:52:56.941Z</time></trkpt><trkpt lat="41.3624069" lon="14.210338"><ele>128.0</ele><time>2026-04-26T08:52:57.948Z</time></trkpt><trkpt lat="41.3625433" lon="14.2100688"><ele>128.0</ele><time>2026-04-26T08:52:58.949Z</time></trkpt><trkpt lat="41.3626812" lon="14.2098006"><ele>127.5</ele><time>2026-04-26T08:52:59.937Z</time></trkpt><trkpt lat="41.362819" lon="14.2095322"><ele>127.0</ele><time>2026-04-26T08:53:00.952Z</time></trkpt><trkpt lat="41.3629546" lon="14.2092626"><ele>128.0</ele><time>2026-04-26T08:53:01.951Z</time></trkpt><trkpt lat="41.3630897" lon="14.2089938"><ele>129.0</ele><time>2026-04-26T08:53:02.952Z</time></trkpt><trkpt lat="41.363225" lon="14.2087261"><ele>129.0</ele><time>2026-04-26T08:53:03.94Z</time></trkpt><trkpt lat="41.3633602" lon="14.2084591"><ele>129.0</ele><time>2026-04-26T08:53:04.948Z</time></trkpt><trkpt lat="41.3634954" lon="14.2081934"><ele>127.5</ele><time>2026-04-26T08:53:05.944Z</time></trkpt><trkpt lat="41.3636312" lon="14.2079283"><ele>126.0</ele><time>2026-04-26T08:53:06.946Z</time></trkpt><trkpt lat="41.3637666" lon="14.207663"><ele>127.5</ele><time>2026-04-26T08:53:07.944Z</time></trkpt><trkpt lat="41.3639017" lon="14.2073964"><ele>129.0</ele><time>2026-04-26T08:53:08.936Z</time></trkpt><trkpt lat="41.364038" lon="14.2071293"><ele>129.0</ele><time>2026-04-26T08:53:09.951Z</time></trkpt><trkpt lat="41.3641744" lon="14.2068621"><ele>129.0</ele><time>2026-04-26T08:53:10.942Z</time></trkpt><trkpt lat="41.3643103" lon="14.2065949"><ele>128.0</ele><time>2026-04-26T08:53:11.94Z</time></trkpt><trkpt lat="41.3644481" lon="14.2063299"><ele>127.0</ele><time>2026-04-26T08:53:12.947Z</time></trkpt><trkpt lat="41.36459" lon="14.2060697"><ele>127.0</ele><time>2026-04-26T08:53:13.947Z</time></trkpt><trkpt lat="41.3647335" lon="14.2058115"><ele>127.0</ele><time>2026-04-26T08:53:14.944Z</time></trkpt><trkpt lat="41.3648778" lon="14.2055549"><ele>127.0</ele><time>2026-04-26T08:53:15.929Z</time></trkpt><trkpt lat="41.3650246" lon="14.2053023"><ele>127.0</ele><time>2026-04-26T08:53:16.94Z</time></trkpt><trkpt lat="41.3651701" lon="14.2050498"><ele>127.0</ele><time>2026-04-26T08:53:17.943Z</time></trkpt><trkpt lat="41.3653111" lon="14.2048001"><ele>127.0</ele><time>2026-04-26T08:53:18.942Z</time></trkpt><trkpt lat="41.3654413" lon="14.2045611"><ele>127.66666666666667</ele><time>2026-04-26T08:53:19.951Z</time></trkpt><trkpt lat="41.3655656" lon="14.2043297"><ele>128.33333333333334</ele><time>2026-04-26T08:53:20.948Z</time></trkpt><trkpt lat="41.3656894" lon="14.2040995"><ele>129.0</ele><time>2026-04-26T08:53:21.937Z</time></trkpt><trkpt lat="41.3658151" lon="14.2038687"><ele>129.0</ele><time>2026-04-26T08:53:22.935Z</time></trkpt><trkpt lat="41.3659437" lon="14.2036363"><ele>129.0</ele><time>2026-04-26T08:53:23.942Z</time></trkpt><trkpt lat="41.366074" lon="14.2034004"><ele>129.0</ele><time>2026-04-26T08:53:24.938Z</time></trkpt><trkpt lat="41.3662072" lon="14.2031626"><ele>129.0</ele><time>2026-04-26T08:53:25.943Z</time></trkpt><trkpt lat="41.3663435" lon="14.202924"><ele>129.0</ele><time>2026-04-26T08:53:26.939Z</time></trkpt><trkpt lat="41.366482" lon="14.2026835"><ele>129.0</ele><time>2026-04-26T08:53:27.935Z</time></trkpt><trkpt lat="41.3666222" lon="14.2024396"><ele>129.0</ele><time>2026-04-26T08:53:28.942Z</time></trkpt><trkpt lat="41.3667633" lon="14.2021916"><ele>126.5</ele><time>2026-04-26T08:53:29.943Z</time></trkpt><trkpt lat="41.3669055" lon="14.2019408"><ele>124.0</ele><time>2026-04-26T08:53:30.939Z</time></trkpt><trkpt lat="41.3670485" lon="14.2016875"><ele>124.5</ele><time>2026-04-26T08:53:31.938Z</time></trkpt><trkpt lat="41.367192" lon="14.2014316"><ele>125.0</ele><time>2026-04-26T08:53:32.95Z</time></trkpt><trkpt lat="41.3673366" lon="14.2011727"><ele>125.0</ele><time>2026-04-26T08:53:33.935Z</time></trkpt><trkpt lat="41.3674833" lon="14.2009126"><ele>125.0</ele><time>2026-04-26T08:53:34.942Z</time></trkpt><trkpt lat="41.3676319" lon="14.200653"><ele>123.0</ele><time>2026-04-26T08:53:35.943Z</time></trkpt><trkpt lat="41.3677815" lon="14.2003929"><ele>121.0</ele><time>2026-04-26T08:53:36.942Z</time></trkpt><trkpt lat="41.3679316" lon="14.2001319"><ele>121.5</ele><time>2026-04-26T08:53:37.944Z</time></trkpt><trkpt lat="41.3680819" lon="14.1998692"><ele>122.0</ele><time>2026-04-26T08:53:38.938Z</time></trkpt><trkpt lat="41.3682312" lon="14.1996045"><ele>118.5</ele><time>2026-04-26T08:53:39.94Z</time></trkpt><trkpt lat="41.3683788" lon="14.1993395"><ele>115.0</ele><time>2026-04-26T08:53:40.945Z</time></trkpt><trkpt lat="41.3685259" lon="14.1990767"><ele>115.5</ele><time>2026-04-26T08:53:41.944Z</time></trkpt><trkpt lat="41.3686729" lon="14.1988187"><ele>116.0</ele><time>2026-04-26T08:53:42.947Z</time></trkpt><trkpt lat="41.3688182" lon="14.1985658"><ele>117.5</ele><time>2026-04-26T08:53:43.933Z</time></trkpt><trkpt lat="41.3689613" lon="14.1983175"><ele>119.0</ele><time>2026-04-26T08:53:44.94Z</time></trkpt><trkpt lat="41.3691017" lon="14.1980728"><ele>119.5</ele><time>2026-04-26T08:53:45.945Z</time></trkpt><trkpt lat="41.3692392" lon="14.1978317"><ele>120.0</ele><time>2026-04-26T08:53:46.944Z</time></trkpt><trkpt lat="41.3693754" lon="14.1975964"><ele>120.0</ele><time>2026-04-26T08:53:47.944Z</time></trkpt><trkpt lat="41.3695086" lon="14.197367"><ele>120.0</ele><time>2026-04-26T08:53:48.946Z</time></trkpt><trkpt lat="41.3696386" lon="14.197142"><ele>120.0</ele><time>2026-04-26T08:53:49.948Z</time></trkpt><trkpt lat="41.3697673" lon="14.1969185"><ele>120.33333333333334</ele><time>2026-04-26T08:53:50.956Z</time></trkpt><trkpt lat="41.3698959" lon="14.1966893"><ele>120.66666666666667</ele><time>2026-04-26T08:53:51.943Z</time></trkpt><trkpt lat="41.3700291" lon="14.196453"><ele>121.0</ele><time>2026-04-26T08:53:52.942Z</time></trkpt><trkpt lat="41.3701645" lon="14.1962109"><ele>120.0</ele><time>2026-04-26T08:53:53.945Z</time></trkpt><trkpt lat="41.370298" lon="14.1960122"><ele>119.0</ele><time>2026-04-26T08:53:54.946Z</time></trkpt><trkpt lat="41.3704356" lon="14.1957861"><ele>118.0</ele><time>2026-04-26T08:53:55.949Z</time></trkpt><trkpt lat="41.3705777" lon="14.1955632"><ele>117.0</ele><time>2026-04-26T08:53:56.952Z</time></trkpt><trkpt lat="41.3707176" lon="14.1953294"><ele>116.0</ele><time>2026-04-26T08:53:57.934Z</time></trkpt><trkpt lat="41.3708552" lon="14.1951"><ele>115.0</ele><time>2026-04-26T08:53:58.945Z</time></trkpt><trkpt lat="41.3709999" lon="14.1948739"><ele>114.33333333333334</ele><time>2026-04-26T08:53:59.949Z</time></trkpt><trkpt lat="41.371154" lon="14.1946613"><ele>113.66666666666666</ele><time>2026-04-26T08:54:00.941Z</time></trkpt><trkpt lat="41.3713156" lon="14.1944628"><ele>113.0</ele><time>2026-04-26T08:54:01.95Z</time></trkpt><trkpt lat="41.3714857" lon="14.1942752"><ele>112.0</ele><time>2026-04-26T08:54:02.938Z</time></trkpt><trkpt lat="41.3716628" lon="14.1941004"><ele>111.0</ele><time>2026-04-26T08:54:03.955Z</time></trkpt><trkpt lat="41.3718508" lon="14.1939443"><ele>110.0</ele><time>2026-04-26T08:54:04.943Z</time></trkpt><trkpt lat="41.3720475" lon="14.1938011"><ele>113.5</ele><time>2026-04-26T08:54:05.95Z</time></trkpt><trkpt lat="41.3722484" lon="14.193662"><ele>117.0</ele><time>2026-04-26T08:54:06.951Z</time></trkpt><trkpt lat="41.3724523" lon="14.1935229"><ele>117.0</ele><time>2026-04-26T08:54:07.945Z</time></trkpt><trkpt lat="41.3726574" lon="14.1933836"><ele>117.0</ele><time>2026-04-26T08:54:08.944Z</time></trkpt><trkpt lat="41.3728592" lon="14.1932442"><ele>115.0</ele><time>2026-04-26T08:54:09.943Z</time></trkpt><trkpt lat="41.3730575" lon="14.193101"><ele>113.0</ele><time>2026-04-26T08:54:10.943Z</time></trkpt><trkpt lat="41.3732574" lon="14.1929616"><ele>113.0</ele><time>2026-04-26T08:54:11.94Z</time></trkpt><trkpt lat="41.3734592" lon="14.1928225"><ele>113.0</ele><time>2026-04-26T08:54:12.947Z</time></trkpt><trkpt lat="41.3736628" lon="14.1926813"><ele>114.0</ele><time>2026-04-26T08:54:13.941Z</time></trkpt><trkpt lat="41.3738677" lon="14.1925395"><ele>115.0</ele><time>2026-04-26T08:54:14.944Z</time></trkpt><trkpt lat="41.3740738" lon="14.192399"><ele>113.5</ele><time>2026-04-26T08:54:15.947Z</time></trkpt><trkpt lat="41.3742801" lon="14.1922596"><ele>112.0</ele><time>2026-04-26T08:54:16.941Z</time></trkpt><trkpt lat="41.3744864" lon="14.1921199"><ele>113.5</ele><time>2026-04-26T08:54:17.943Z</time></trkpt><trkpt lat="41.3746901" lon="14.1919759"><ele>115.0</ele><time>2026-04-26T08:54:18.947Z</time></trkpt><trkpt lat="41.3748952" lon="14.1918312"><ele>115.0</ele><time>2026-04-26T08:54:19.946Z</time></trkpt><trkpt lat="41.3751006" lon="14.1916848"><ele>115.0</ele><time>2026-04-26T08:54:20.948Z</time></trkpt><trkpt lat="41.3753071" lon="14.1915384"><ele>115.0</ele><time>2026-04-26T08:54:21.946Z</time></trkpt><trkpt lat="41.3755108" lon="14.1913929"><ele>115.0</ele><time>2026-04-26T08:54:22.949Z</time></trkpt><trkpt lat="41.3757112" lon="14.1912501"><ele>115.0</ele><time>2026-04-26T08:54:23.939Z</time></trkpt><trkpt lat="41.3759089" lon="14.1911135"><ele>115.0</ele><time>2026-04-26T08:54:24.943Z</time></trkpt><trkpt lat="41.3761076" lon="14.1909913"><ele>115.0</ele><time>2026-04-26T08:54:25.941Z</time></trkpt><trkpt lat="41.3763074" lon="14.1908874"><ele>114.33333333333334</ele><time>2026-04-26T08:54:26.949Z</time></trkpt><trkpt lat="41.3765076" lon="14.1907965"><ele>113.66666666666666</ele><time>2026-04-26T08:54:27.945Z</time></trkpt><trkpt lat="41.376711" lon="14.1907128"><ele>113.0</ele><time>2026-04-26T08:54:28.936Z</time></trkpt><trkpt lat="41.3769177" lon="14.1906416"><ele>113.0</ele><time>2026-04-26T08:54:29.939Z</time></trkpt><trkpt lat="41.3771342" lon="14.1905884"><ele>113.0</ele><time>2026-04-26T08:54:30.94Z</time></trkpt><trkpt lat="41.3773632" lon="14.1905579"><ele>115.0</ele><time>2026-04-26T08:54:31.939Z</time></trkpt><trkpt lat="41.3775855" lon="14.1905405"><ele>117.0</ele><time>2026-04-26T08:54:32.94Z</time></trkpt><trkpt lat="41.3777982" lon="14.1905231"><ele>119.0</ele><time>2026-04-26T08:54:33.946Z</time></trkpt><trkpt lat="41.3780034" lon="14.1905041"><ele>119.66666666666666</ele><time>2026-04-26T08:54:34.942Z</time></trkpt><trkpt lat="41.3782024" lon="14.1904849"><ele>120.33333333333334</ele><time>2026-04-26T08:54:35.932Z</time></trkpt><trkpt lat="41.3784019" lon="14.1904656"><ele>121.0</ele><time>2026-04-26T08:54:36.944Z</time></trkpt><trkpt lat="41.3786015" lon="14.1904467"><ele>121.0</ele><time>2026-04-26T08:54:37.949Z</time></trkpt><trkpt lat="41.3788115" lon="14.1904273"><ele>121.0</ele><time>2026-04-26T08:54:38.942Z</time></trkpt><trkpt lat="41.3790293" lon="14.1904058"><ele>121.0</ele><time>2026-04-26T08:54:39.935Z</time></trkpt><trkpt lat="41.3792417" lon="14.1903841"><ele>121.66666666666667</ele><time>2026-04-26T08:54:40.938Z</time></trkpt><trkpt lat="41.3794454" lon="14.1903628"><ele>122.33333333333334</ele><time>2026-04-26T08:54:41.945Z</time></trkpt><trkpt lat="41.3796428" lon="14.1903411"><ele>123.0</ele><time>2026-04-26T08:54:42.941Z</time></trkpt><trkpt lat="41.3798346" lon="14.1903216"><ele>124.33333333333334</ele><time>2026-04-26T08:54:43.944Z</time></trkpt><trkpt lat="41.3800233" lon="14.190304"><ele>125.66666666666667</ele><time>2026-04-26T08:54:44.944Z</time></trkpt><trkpt lat="41.3802125" lon="14.1902864"><ele>127.0</ele><time>2026-04-26T08:54:45.943Z</time></trkpt><trkpt lat="41.3804036" lon="14.1902659"><ele>126.66666666666667</ele><time>2026-04-26T08:54:46.952Z</time></trkpt><trkpt lat="41.3805965" lon="14.1902459"><ele>126.33333333333334</ele><time>2026-04-26T08:54:47.945Z</time></trkpt><trkpt lat="41.3807915" lon="14.1902275"><ele>126.0</ele><time>2026-04-26T08:54:48.932Z</time></trkpt><trkpt lat="41.3809872" lon="14.1902078"><ele>126.0</ele><time>2026-04-26T08:54:49.936Z</time></trkpt><trkpt lat="41.3811853" lon="14.1901884"><ele>126.0</ele><time>2026-04-26T08:54:50.937Z</time></trkpt><trkpt lat="41.3813835" lon="14.1901687"><ele>126.0</ele><time>2026-04-26T08:54:51.938Z</time></trkpt><trkpt lat="41.3815825" lon="14.1901493"><ele>126.33333333333334</ele><time>2026-04-26T08:54:52.94Z</time></trkpt><trkpt lat="41.381779" lon="14.1901302"><ele>126.66666666666667</ele><time>2026-04-26T08:54:53.936Z</time></trkpt><trkpt lat="41.3819647" lon="14.1901152"><ele>127.0</ele><time>2026-04-26T08:54:54.935Z</time></trkpt><trkpt lat="41.3821348" lon="14.1901153"><ele>128.25</ele><time>2026-04-26T08:54:55.946Z</time></trkpt><trkpt lat="41.3822846" lon="14.1901418"><ele>129.5</ele><time>2026-04-26T08:54:56.938Z</time></trkpt><trkpt lat="41.382417" lon="14.1901954"><ele>130.75</ele><time>2026-04-26T08:54:57.942Z</time></trkpt><trkpt lat="41.3825427" lon="14.1902761"><ele>132.0</ele><time>2026-04-26T08:54:58.932Z</time></trkpt><trkpt lat="41.3826796" lon="14.1903736"><ele>132.0</ele><time>2026-04-26T08:54:59.942Z</time></trkpt><trkpt lat="41.3828235" lon="14.1904745"><ele>132.0</ele><time>2026-04-26T08:55:00.941Z</time></trkpt><trkpt lat="41.382972" lon="14.1905796"><ele>132.0</ele><time>2026-04-26T08:55:01.932Z</time></trkpt><trkpt lat="41.3831312" lon="14.1906922"><ele>132.66666666666666</ele><time>2026-04-26T08:55:02.944Z</time></trkpt><trkpt lat="41.3833007" lon="14.1908132"><ele>133.33333333333331</ele><time>2026-04-26T08:55:03.937Z</time></trkpt><trkpt lat="41.3834742" lon="14.1909371"><ele>134.0</ele><time>2026-04-26T08:55:04.931Z</time></trkpt><trkpt lat="41.3836495" lon="14.1910648"><ele>134.0</ele><time>2026-04-26T08:55:05.939Z</time></trkpt><trkpt lat="41.3838273" lon="14.1911957"><ele>134.0</ele><time>2026-04-26T08:55:06.936Z</time></trkpt><trkpt lat="41.3840077" lon="14.1913278"><ele>134.0</ele><time>2026-04-26T08:55:07.938Z</time></trkpt><trkpt lat="41.3841893" lon="14.1914604"><ele>133.66666666666666</ele><time>2026-04-26T08:55:08.937Z</time></trkpt><trkpt lat="41.3843724" lon="14.191593"><ele>133.33333333333334</ele><time>2026-04-26T08:55:09.939Z</time></trkpt><trkpt lat="41.3845571" lon="14.1917256"><ele>133.0</ele><time>2026-04-26T08:55:10.943Z</time></trkpt><trkpt lat="41.3847425" lon="14.1918587"><ele>133.0</ele><time>2026-04-26T08:55:11.938Z</time></trkpt><trkpt lat="41.3849271" lon="14.1919906"><ele>133.0</ele><time>2026-04-26T08:55:12.94Z</time></trkpt><trkpt lat="41.3851086" lon="14.1921208"><ele>133.0</ele><time>2026-04-26T08:55:13.941Z</time></trkpt><trkpt lat="41.3852876" lon="14.1922507"><ele>133.66666666666669</ele><time>2026-04-26T08:55:14.945Z</time></trkpt><trkpt lat="41.3854613" lon="14.1923757"><ele>134.33333333333334</ele><time>2026-04-26T08:55:15.946Z</time></trkpt><trkpt lat="41.3856248" lon="14.1924932"><ele>135.0</ele><time>2026-04-26T08:55:16.942Z</time></trkpt><trkpt lat="41.3857752" lon="14.1926031"><ele>135.0</ele><time>2026-04-26T08:55:17.94Z</time></trkpt><trkpt lat="41.3859064" lon="14.1926988"><ele>135.0</ele><time>2026-04-26T08:55:18.942Z</time></trkpt><trkpt lat="41.3860202" lon="14.1927779"><ele>135.0</ele><time>2026-04-26T08:55:19.941Z</time></trkpt><trkpt lat="41.3861245" lon="14.1928446"><ele>135.0</ele><time>2026-04-26T08:55:20.937Z</time></trkpt><trkpt lat="41.386221" lon="14.1928988"><ele>135.0</ele><time>2026-04-26T08:55:21.948Z</time></trkpt><trkpt lat="41.3863172" lon="14.1929362"><ele>135.0</ele><time>2026-04-26T08:55:22.944Z</time></trkpt><trkpt lat="41.386423" lon="14.1929456"><ele>135.0</ele><time>2026-04-26T08:55:23.94Z</time></trkpt><trkpt lat="41.3865351" lon="14.1929145"><ele>135.0</ele><time>2026-04-26T08:55:25.019Z</time></trkpt><trkpt lat="41.3866443" lon="14.1928337"><ele>135.0</ele><time>2026-04-26T08:55:25.942Z</time></trkpt><trkpt lat="41.3867591" lon="14.1927231"><ele>135.33333333333334</ele><time>2026-04-26T08:55:26.938Z</time></trkpt><trkpt lat="41.3868585" lon="14.1925472"><ele>135.66666666666669</ele><time>2026-04-26T08:55:27.95Z</time></trkpt><trkpt lat="41.3869831" lon="14.1923539"><ele>136.0</ele><time>2026-04-26T08:55:28.941Z</time></trkpt><trkpt lat="41.387128" lon="14.1921567"><ele>138.0</ele><time>2026-04-26T08:55:29.933Z</time></trkpt><trkpt lat="41.3872753" lon="14.1919626"><ele>140.0</ele><time>2026-04-26T08:55:30.937Z</time></trkpt><trkpt lat="41.3874144" lon="14.1917666"><ele>142.0</ele><time>2026-04-26T08:55:31.947Z</time></trkpt><trkpt lat="41.3875466" lon="14.1915721"><ele>142.0</ele><time>2026-04-26T08:55:32.945Z</time></trkpt><trkpt lat="41.3876749" lon="14.1913804"><ele>142.0</ele><time>2026-04-26T08:55:33.934Z</time></trkpt><trkpt lat="41.3878051" lon="14.1911815"><ele>142.0</ele><time>2026-04-26T08:55:34.949Z</time></trkpt><trkpt lat="41.3879436" lon="14.1909659"><ele>144.5</ele><time>2026-04-26T08:55:35.952Z</time></trkpt><trkpt lat="41.3880893" lon="14.1907405"><ele>147.0</ele><time>2026-04-26T08:55:36.938Z</time></trkpt><trkpt lat="41.3882408" lon="14.1905086"><ele>147.0</ele><time>2026-04-26T08:55:37.947Z</time></trkpt><trkpt lat="41.3883974" lon="14.1902707"><ele>147.0</ele><time>2026-04-26T08:55:38.941Z</time></trkpt><trkpt lat="41.3885574" lon="14.1900299"><ele>148.5</ele><time>2026-04-26T08:55:39.94Z</time></trkpt><trkpt lat="41.3887227" lon="14.1897885"><ele>150.0</ele><time>2026-04-26T08:55:40.938Z</time></trkpt><trkpt lat="41.3888899" lon="14.1895432"><ele>150.5</ele><time>2026-04-26T08:55:41.937Z</time></trkpt><trkpt lat="41.3890562" lon="14.1892924"><ele>151.0</ele><time>2026-04-26T08:55:42.938Z</time></trkpt><trkpt lat="41.3892223" lon="14.189038"><ele>151.5</ele><time>2026-04-26T08:55:43.948Z</time></trkpt><trkpt lat="41.3893881" lon="14.1887841"><ele>152.0</ele><time>2026-04-26T08:55:44.951Z</time></trkpt><trkpt lat="41.3895524" lon="14.1885372"><ele>153.5</ele><time>2026-04-26T08:55:45.931Z</time></trkpt><trkpt lat="41.389714" lon="14.1882946"><ele>155.0</ele><time>2026-04-26T08:55:46.942Z</time></trkpt><trkpt lat="41.3898765" lon="14.1880579"><ele>156.0</ele><time>2026-04-26T08:55:47.944Z</time></trkpt><trkpt lat="41.3900358" lon="14.1878217"><ele>157.0</ele><time>2026-04-26T08:55:48.947Z</time></trkpt><trkpt lat="41.3901926" lon="14.1875833"><ele>157.0</ele><time>2026-04-26T08:55:49.942Z</time></trkpt><trkpt lat="41.3903492" lon="14.1873462"><ele>157.0</ele><time>2026-04-26T08:55:50.952Z</time></trkpt><trkpt lat="41.3905047" lon="14.1871083"><ele>159.0</ele><time>2026-04-26T08:55:51.939Z</time></trkpt><trkpt lat="41.3906612" lon="14.1868717"><ele>161.0</ele><time>2026-04-26T08:55:52.934Z</time></trkpt><trkpt lat="41.3908181" lon="14.1866368"><ele>163.0</ele><time>2026-04-26T08:55:53.953Z</time></trkpt><trkpt lat="41.3909752" lon="14.1864042"><ele>165.0</ele><time>2026-04-26T08:55:54.95Z</time></trkpt><trkpt lat="41.3911312" lon="14.1861739"><ele>165.0</ele><time>2026-04-26T08:55:55.937Z</time></trkpt><trkpt lat="41.3912856" lon="14.1859446"><ele>165.0</ele><time>2026-04-26T08:55:56.935Z</time></trkpt><trkpt lat="41.3914388" lon="14.1857169"><ele>167.0</ele><time>2026-04-26T08:55:57.946Z</time></trkpt><trkpt lat="41.3915916" lon="14.1854908"><ele>169.0</ele><time>2026-04-26T08:55:58.944Z</time></trkpt><trkpt lat="41.3917436" lon="14.1852675"><ele>169.0</ele><time>2026-04-26T08:55:59.938Z</time></trkpt><trkpt lat="41.3918928" lon="14.1850483"><ele>169.0</ele><time>2026-04-26T08:56:00.946Z</time></trkpt><trkpt lat="41.3920371" lon="14.1848343"><ele>169.0</ele><time>2026-04-26T08:56:01.94Z</time></trkpt><trkpt lat="41.3921749" lon="14.1846267"><ele>173.66666666666669</ele><time>2026-04-26T08:56:02.936Z</time></trkpt><trkpt lat="41.3923051" lon="14.1844208"><ele>178.33333333333334</ele><time>2026-04-26T08:56:03.935Z</time></trkpt><trkpt lat="41.3924196" lon="14.1842095"><ele>183.0</ele><time>2026-04-26T08:56:04.959Z</time></trkpt><trkpt lat="41.3925117" lon="14.1839914"><ele>184.66666666666666</ele><time>2026-04-26T08:56:05.937Z</time></trkpt><trkpt lat="41.3925777" lon="14.1837645"><ele>186.33333333333331</ele><time>2026-04-26T08:56:06.934Z</time></trkpt><trkpt lat="41.3926199" lon="14.1835361"><ele>188.0</ele><time>2026-04-26T08:56:07.94Z</time></trkpt><trkpt lat="41.392658" lon="14.1833129"><ele>189.0</ele><time>2026-04-26T08:56:08.946Z</time></trkpt><trkpt lat="41.3927057" lon="14.1831184"><ele>190.0</ele><time>2026-04-26T08:56:09.943Z</time></trkpt><trkpt lat="41.3927558" lon="14.1829354"><ele>191.0</ele><time>2026-04-26T08:56:10.93Z</time></trkpt><trkpt lat="41.3928591" lon="14.1828141"><ele>192.0</ele><time>2026-04-26T08:56:11.938Z</time></trkpt><trkpt lat="41.3929826" lon="14.1827045"><ele>191.66666666666666</ele><time>2026-04-26T08:56:12.941Z</time></trkpt><trkpt lat="41.393104" lon="14.1825959"><ele>191.33333333333331</ele><time>2026-04-26T08:56:13.926Z</time></trkpt><trkpt lat="41.3932266" lon="14.1824671"><ele>191.0</ele><time>2026-04-26T08:56:14.947Z</time></trkpt><trkpt lat="41.3933471" lon="14.1823255"><ele>189.0</ele><time>2026-04-26T08:56:15.942Z</time></trkpt><trkpt lat="41.3934505" lon="14.1821545"><ele>187.0</ele><time>2026-04-26T08:56:16.928Z</time></trkpt><trkpt lat="41.393532" lon="14.1819614"><ele>185.0</ele><time>2026-04-26T08:56:17.938Z</time></trkpt><trkpt lat="41.3935916" lon="14.1817476"><ele>185.0</ele><time>2026-04-26T08:56:18.939Z</time></trkpt><trkpt lat="41.3936459" lon="14.1815247"><ele>185.0</ele><time>2026-04-26T08:56:19.927Z</time></trkpt><trkpt lat="41.3937041" lon="14.1813001"><ele>185.0</ele><time>2026-04-26T08:56:20.933Z</time></trkpt><trkpt lat="41.3937689" lon="14.1810765"><ele>184.33333333333331</ele><time>2026-04-26T08:56:21.938Z</time></trkpt><trkpt lat="41.3938423" lon="14.1808596"><ele>183.66666666666666</ele><time>2026-04-26T08:56:22.938Z</time></trkpt><trkpt lat="41.3939274" lon="14.1806499"><ele>183.0</ele><time>2026-04-26T08:56:23.945Z</time></trkpt><trkpt lat="41.3940272" lon="14.1804565"><ele>183.0</ele><time>2026-04-26T08:56:24.935Z</time></trkpt><trkpt lat="41.3941417" lon="14.1802859"><ele>183.0</ele><time>2026-04-26T08:56:25.943Z</time></trkpt><trkpt lat="41.3942717" lon="14.1801525"><ele>183.0</ele><time>2026-04-26T08:56:26.941Z</time></trkpt><trkpt lat="41.3944104" lon="14.1800653"><ele>183.0</ele><time>2026-04-26T08:56:27.938Z</time></trkpt><trkpt lat="41.3945557" lon="14.1800223"><ele>183.0</ele><time>2026-04-26T08:56:28.936Z</time></trkpt><trkpt lat="41.3947084" lon="14.1800179"><ele>183.0</ele><time>2026-04-26T08:56:29.935Z</time></trkpt><trkpt lat="41.3948652" lon="14.1800418"><ele>181.0</ele><time>2026-04-26T08:56:30.945Z</time></trkpt><trkpt lat="41.3950236" lon="14.1800866"><ele>179.0</ele><time>2026-04-26T08:56:31.941Z</time></trkpt><trkpt lat="41.3951839" lon="14.1801394"><ele>177.0</ele><time>2026-04-26T08:56:32.93Z</time></trkpt><trkpt lat="41.395351" lon="14.1801902"><ele>174.33333333333334</ele><time>2026-04-26T08:56:33.943Z</time></trkpt><trkpt lat="41.3955212" lon="14.1802276"><ele>171.66666666666669</ele><time>2026-04-26T08:56:34.944Z</time></trkpt><trkpt lat="41.395695" lon="14.1802456"><ele>169.0</ele><time>2026-04-26T08:56:35.934Z</time></trkpt><trkpt lat="41.3958678" lon="14.180262"><ele>169.0</ele><time>2026-04-26T08:56:36.94Z</time></trkpt><trkpt lat="41.3960446" lon="14.1802338"><ele>169.0</ele><time>2026-04-26T08:56:37.943Z</time></trkpt><trkpt lat="41.3962208" lon="14.1801691"><ele>169.0</ele><time>2026-04-26T08:56:38.936Z</time></trkpt><trkpt lat="41.3963674" lon="14.1800744"><ele>165.75</ele><time>2026-04-26T08:56:39.934Z</time></trkpt><trkpt lat="41.3964853" lon="14.1799535"><ele>162.5</ele><time>2026-04-26T08:56:40.937Z</time></trkpt><trkpt lat="41.3965703" lon="14.1798016"><ele>159.25</ele><time>2026-04-26T08:56:41.941Z</time></trkpt><trkpt lat="41.3966285" lon="14.1796246"><ele>156.0</ele><time>2026-04-26T08:56:42.942Z</time></trkpt><trkpt lat="41.3966685" lon="14.1794368"><ele>156.0</ele><time>2026-04-26T08:56:43.934Z</time></trkpt><trkpt lat="41.3967074" lon="14.1792446"><ele>156.0</ele><time>2026-04-26T08:56:44.947Z</time></trkpt><trkpt lat="41.3967487" lon="14.1790552"><ele>156.0</ele><time>2026-04-26T08:56:45.934Z</time></trkpt><trkpt lat="41.396793" lon="14.1788784"><ele>156.0</ele><time>2026-04-26T08:56:46.934Z</time></trkpt><trkpt lat="41.3968459" lon="14.1787243"><ele>157.75</ele><time>2026-04-26T08:56:47.934Z</time></trkpt><trkpt lat="41.3969195" lon="14.1785912"><ele>159.5</ele><time>2026-04-26T08:56:48.939Z</time></trkpt><trkpt lat="41.3970197" lon="14.1784812"><ele>161.25</ele><time>2026-04-26T08:56:49.937Z</time></trkpt><trkpt lat="41.3971403" lon="14.1783804"><ele>163.0</ele><time>2026-04-26T08:56:50.95Z</time></trkpt><trkpt lat="41.3972717" lon="14.1782768"><ele>156.33333333333334</ele><time>2026-04-26T08:56:51.948Z</time></trkpt><trkpt lat="41.3974081" lon="14.1781664"><ele>149.66666666666666</ele><time>2026-04-26T08:56:52.935Z</time></trkpt><trkpt lat="41.397551" lon="14.1780457"><ele>143.0</ele><time>2026-04-26T08:56:53.946Z</time></trkpt><trkpt lat="41.3976955" lon="14.1779165"><ele>143.0</ele><time>2026-04-26T08:56:54.942Z</time></trkpt><trkpt lat="41.3978491" lon="14.1777831"><ele>143.0</ele><time>2026-04-26T08:56:55.937Z</time></trkpt><trkpt lat="41.3980113" lon="14.1776506"><ele>143.0</ele><time>2026-04-26T08:56:56.939Z</time></trkpt><trkpt lat="41.3981825" lon="14.1775194"><ele>143.0</ele><time>2026-04-26T08:56:57.937Z</time></trkpt><trkpt lat="41.3983556" lon="14.1773919"><ele>143.0</ele><time>2026-04-26T08:56:58.96Z</time></trkpt><trkpt lat="41.3985308" lon="14.1772591"><ele>143.0</ele><time>2026-04-26T08:56:59.942Z</time></trkpt><trkpt lat="41.3987078" lon="14.1771195"><ele>143.0</ele><time>2026-04-26T08:57:00.932Z</time></trkpt><trkpt lat="41.3988833" lon="14.1769765"><ele>143.0</ele><time>2026-04-26T08:57:01.945Z</time></trkpt><trkpt lat="41.3990574" lon="14.1768324"><ele>143.0</ele><time>2026-04-26T08:57:02.932Z</time></trkpt><trkpt lat="41.3992309" lon="14.1766915"><ele>143.0</ele><time>2026-04-26T08:57:03.944Z</time></trkpt><trkpt lat="41.3994022" lon="14.1765539"><ele>143.0</ele><time>2026-04-26T08:57:04.934Z</time></trkpt><trkpt lat="41.3995664" lon="14.1764218"><ele>143.0</ele><time>2026-04-26T08:57:05.94Z</time></trkpt><trkpt lat="41.3997178" lon="14.1762964"><ele>143.5</ele><time>2026-04-26T08:57:06.948Z</time></trkpt><trkpt lat="41.3998459" lon="14.1761695"><ele>144.0</ele><time>2026-04-26T08:57:07.935Z</time></trkpt><trkpt lat="41.3999346" lon="14.1760319"><ele>144.5</ele><time>2026-04-26T08:57:08.937Z</time></trkpt><trkpt lat="41.3999794" lon="14.1758858"><ele>145.0</ele><time>2026-04-26T08:57:09.928Z</time></trkpt><trkpt lat="41.3999838" lon="14.1757432"><ele>146.25</ele><time>2026-04-26T08:57:10.937Z</time></trkpt><trkpt lat="41.3999571" lon="14.1756041"><ele>147.5</ele><time>2026-04-26T08:57:11.937Z</time></trkpt><trkpt lat="41.399917" lon="14.1754646"><ele>148.75</ele><time>2026-04-26T08:57:12.933Z</time></trkpt><trkpt lat="41.3998762" lon="14.175318"><ele>150.0</ele><time>2026-04-26T08:57:13.942Z</time></trkpt><trkpt lat="41.3998491" lon="14.1751658"><ele>150.0</ele><time>2026-04-26T08:57:14.954Z</time></trkpt><trkpt lat="41.3998451" lon="14.1750122"><ele>150.0</ele><time>2026-04-26T08:57:15.946Z</time></trkpt><trkpt lat="41.3998628" lon="14.1748637"><ele>150.0</ele><time>2026-04-26T08:57:16.935Z</time></trkpt><trkpt lat="41.3999051" lon="14.1747376"><ele>150.0</ele><time>2026-04-26T08:57:17.945Z</time></trkpt><trkpt lat="41.3999706" lon="14.1746585"><ele>150.0</ele><time>2026-04-26T08:57:18.948Z</time></trkpt><trkpt lat="41.4000503" lon="14.1746287"><ele>152.2</ele><time>2026-04-26T08:57:19.934Z</time></trkpt><trkpt lat="41.4001367" lon="14.1746329"><ele>154.4</ele><time>2026-04-26T08:57:20.939Z</time></trkpt><trkpt lat="41.4002296" lon="14.1746534"><ele>156.60000000000002</ele><time>2026-04-26T08:57:21.941Z</time></trkpt><trkpt lat="41.4003301" lon="14.1746779"><ele>158.8</ele><time>2026-04-26T08:57:22.936Z</time></trkpt><trkpt lat="41.4004379" lon="14.1747089"><ele>161.0</ele><time>2026-04-26T08:57:23.931Z</time></trkpt><trkpt lat="41.4005536" lon="14.1747463"><ele>161.0</ele><time>2026-04-26T08:57:24.936Z</time></trkpt><trkpt lat="41.4006795" lon="14.1747898"><ele>161.0</ele><time>2026-04-26T08:57:25.941Z</time></trkpt><trkpt lat="41.4008134" lon="14.1748468"><ele>161.0</ele><time>2026-04-26T08:57:26.93Z</time></trkpt><trkpt lat="41.4009508" lon="14.1749111"><ele>161.0</ele><time>2026-04-26T08:57:27.944Z</time></trkpt><trkpt lat="41.4010864" lon="14.1749746"><ele>158.5</ele><time>2026-04-26T08:57:28.947Z</time></trkpt><trkpt lat="41.4012274" lon="14.1750353"><ele>156.0</ele><time>2026-04-26T08:57:29.94Z</time></trkpt><trkpt lat="41.4013717" lon="14.1750917"><ele>153.5</ele><time>2026-04-26T08:57:30.945Z</time></trkpt><trkpt lat="41.4015177" lon="14.1751346"><ele>151.0</ele><time>2026-04-26T08:57:31.929Z</time></trkpt><trkpt lat="41.4016631" lon="14.1751641"><ele>151.0</ele><time>2026-04-26T08:57:32.949Z</time></trkpt><trkpt lat="41.401806" lon="14.1751871"><ele>151.0</ele><time>2026-04-26T08:57:33.942Z</time></trkpt><trkpt lat="41.4019474" lon="14.1752027"><ele>151.0</ele><time>2026-04-26T08:57:34.93Z</time></trkpt><trkpt lat="41.4020874" lon="14.1752083"><ele>151.0</ele><time>2026-04-26T08:57:35.945Z</time></trkpt><trkpt lat="41.4022279" lon="14.1752118"><ele>153.25</ele><time>2026-04-26T08:57:36.948Z</time></trkpt><trkpt lat="41.402371" lon="14.1752218"><ele>155.5</ele><time>2026-04-26T08:57:37.939Z</time></trkpt><trkpt lat="41.4025152" lon="14.1752466"><ele>157.75</ele><time>2026-04-26T08:57:38.941Z</time></trkpt><trkpt lat="41.4026584" lon="14.1752877"><ele>160.0</ele><time>2026-04-26T08:57:39.94Z</time></trkpt><trkpt lat="41.4028021" lon="14.175335"><ele>160.0</ele><time>2026-04-26T08:57:40.938Z</time></trkpt><trkpt lat="41.4029472" lon="14.1753831"><ele>160.0</ele><time>2026-04-26T08:57:41.937Z</time></trkpt><trkpt lat="41.4030925" lon="14.1754362"><ele>160.0</ele><time>2026-04-26T08:57:42.936Z</time></trkpt><trkpt lat="41.4032393" lon="14.175503"><ele>158.33333333333334</ele><time>2026-04-26T08:57:43.943Z</time></trkpt><trkpt lat="41.4033859" lon="14.175587"><ele>156.66666666666666</ele><time>2026-04-26T08:57:44.944Z</time></trkpt><trkpt lat="41.4035273" lon="14.1756855"><ele>155.0</ele><time>2026-04-26T08:57:45.947Z</time></trkpt><trkpt lat="41.4036641" lon="14.1757911"><ele>155.0</ele><time>2026-04-26T08:57:46.929Z</time></trkpt><trkpt lat="41.403796" lon="14.1759066"><ele>155.0</ele><time>2026-04-26T08:57:47.935Z</time></trkpt><trkpt lat="41.4039158" lon="14.1760405"><ele>155.0</ele><time>2026-04-26T08:57:48.933Z</time></trkpt><trkpt lat="41.4040211" lon="14.1761921"><ele>155.66666666666666</ele><time>2026-04-26T08:57:49.936Z</time></trkpt><trkpt lat="41.4041159" lon="14.1763546"><ele>156.33333333333334</ele><time>2026-04-26T08:57:50.943Z</time></trkpt><trkpt lat="41.4042047" lon="14.1765225"><ele>157.0</ele><time>2026-04-26T08:57:51.936Z</time></trkpt><trkpt lat="41.4042894" lon="14.1766918"><ele>157.0</ele><time>2026-04-26T08:57:52.942Z</time></trkpt><trkpt lat="41.404367" lon="14.1768641"><ele>157.0</ele><time>2026-04-26T08:57:53.941Z</time></trkpt><trkpt lat="41.404429" lon="14.1770445"><ele>157.0</ele><time>2026-04-26T08:57:54.938Z</time></trkpt><trkpt lat="41.4044784" lon="14.1772319"><ele>157.0</ele><time>2026-04-26T08:57:55.938Z</time></trkpt><trkpt lat="41.4045226" lon="14.1774216"><ele>157.0</ele><time>2026-04-26T08:57:56.941Z</time></trkpt><trkpt lat="41.4045663" lon="14.1776114"><ele>157.0</ele><time>2026-04-26T08:57:57.941Z</time></trkpt><trkpt lat="41.4046097" lon="14.1778017"><ele>157.0</ele><time>2026-04-26T08:57:58.938Z</time></trkpt><trkpt lat="41.4046516" lon="14.177987"><ele>157.0</ele><time>2026-04-26T08:57:59.935Z</time></trkpt><trkpt lat="41.4046953" lon="14.1781646"><ele>160.0</ele><time>2026-04-26T08:58:00.931Z</time></trkpt><trkpt lat="41.4047522" lon="14.1783404"><ele>163.0</ele><time>2026-04-26T08:58:01.942Z</time></trkpt><trkpt lat="41.4048168" lon="14.1785225"><ele>166.0</ele><time>2026-04-26T08:58:02.939Z</time></trkpt><trkpt lat="41.4048933" lon="14.178688"><ele>169.0</ele><time>2026-04-26T08:58:03.936Z</time></trkpt><trkpt lat="41.4049809" lon="14.1788421"><ele>169.0</ele><time>2026-04-26T08:58:04.944Z</time></trkpt><trkpt lat="41.4050789" lon="14.1789834"><ele>169.0</ele><time>2026-04-26T08:58:05.942Z</time></trkpt><trkpt lat="41.4051817" lon="14.1791194"><ele>169.0</ele><time>2026-04-26T08:58:06.934Z</time></trkpt><trkpt lat="41.4052815" lon="14.1792484"><ele>169.0</ele><time>2026-04-26T08:58:07.942Z</time></trkpt><trkpt lat="41.4053832" lon="14.179375"><ele>169.0</ele><time>2026-04-26T08:58:08.935Z</time></trkpt><trkpt lat="41.4054851" lon="14.1795051"><ele>169.0</ele><time>2026-04-26T08:58:09.942Z</time></trkpt><trkpt lat="41.405586" lon="14.1796382"><ele>169.0</ele><time>2026-04-26T08:58:10.937Z</time></trkpt><trkpt lat="41.4056876" lon="14.1797704"><ele>169.0</ele><time>2026-04-26T08:58:11.933Z</time></trkpt><trkpt lat="41.4057909" lon="14.1798995"><ele>165.75</ele><time>2026-04-26T08:58:12.939Z</time></trkpt><trkpt lat="41.4058922" lon="14.1800256"><ele>162.5</ele><time>2026-04-26T08:58:13.934Z</time></trkpt><trkpt lat="41.4059928" lon="14.1801501"><ele>159.25</ele><time>2026-04-26T08:58:14.931Z</time></trkpt><trkpt lat="41.4060951" lon="14.1802698"><ele>156.0</ele><time>2026-04-26T08:58:15.935Z</time></trkpt><trkpt lat="41.4062011" lon="14.1803802"><ele>156.0</ele><time>2026-04-26T08:58:16.934Z</time></trkpt><trkpt lat="41.4063144" lon="14.1804739"><ele>156.0</ele><time>2026-04-26T08:58:17.932Z</time></trkpt><trkpt lat="41.4064362" lon="14.1805472"><ele>156.0</ele><time>2026-04-26T08:58:18.944Z</time></trkpt><trkpt lat="41.406565" lon="14.1806045"><ele>156.0</ele><time>2026-04-26T08:58:19.945Z</time></trkpt><trkpt lat="41.4066988" lon="14.1806555"><ele>156.75</ele><time>2026-04-26T08:58:20.934Z</time></trkpt><trkpt lat="41.4068366" lon="14.1807024"><ele>157.5</ele><time>2026-04-26T08:58:21.934Z</time></trkpt><trkpt lat="41.4069772" lon="14.1807495"><ele>158.25</ele><time>2026-04-26T08:58:22.939Z</time></trkpt><trkpt lat="41.4071187" lon="14.1808004"><ele>159.0</ele><time>2026-04-26T08:58:23.956Z</time></trkpt><trkpt lat="41.4072565" lon="14.1808564"><ele>159.0</ele><time>2026-04-26T08:58:24.943Z</time></trkpt><trkpt lat="41.407388" lon="14.1809202"><ele>159.0</ele><time>2026-04-26T08:58:25.927Z</time></trkpt><trkpt lat="41.4075061" lon="14.1810003"><ele>159.0</ele><time>2026-04-26T08:58:26.931Z</time></trkpt><trkpt lat="41.407607" lon="14.1811068"><ele>159.0</ele><time>2026-04-26T08:58:27.939Z</time></trkpt><trkpt lat="41.4076893" lon="14.1812417"><ele>159.0</ele><time>2026-04-26T08:58:28.944Z</time></trkpt><trkpt lat="41.4077603" lon="14.1813947"><ele>159.0</ele><time>2026-04-26T08:58:29.94Z</time></trkpt><trkpt lat="41.4078272" lon="14.1815566"><ele>159.0</ele><time>2026-04-26T08:58:30.944Z</time></trkpt><trkpt lat="41.4078949" lon="14.181723"><ele>159.0</ele><time>2026-04-26T08:58:31.936Z</time></trkpt><trkpt lat="41.4079635" lon="14.18189"><ele>159.75</ele><time>2026-04-26T08:58:32.934Z</time></trkpt><trkpt lat="41.4080327" lon="14.1820562"><ele>160.5</ele><time>2026-04-26T08:58:33.938Z</time></trkpt><trkpt lat="41.4081012" lon="14.1822204"><ele>161.25</ele><time>2026-04-26T08:58:34.934Z</time></trkpt><trkpt lat="41.4081682" lon="14.182381"><ele>162.0</ele><time>2026-04-26T08:58:35.949Z</time></trkpt><trkpt lat="41.4082323" lon="14.182536"><ele>162.25</ele><time>2026-04-26T08:58:36.948Z</time></trkpt><trkpt lat="41.4082923" lon="14.1826873"><ele>162.5</ele><time>2026-04-26T08:58:37.929Z</time></trkpt><trkpt lat="41.4083489" lon="14.1828345"><ele>162.75</ele><time>2026-04-26T08:58:38.948Z</time></trkpt><trkpt lat="41.4084022" lon="14.1829778"><ele>163.0</ele><time>2026-04-26T08:58:39.945Z</time></trkpt><trkpt lat="41.4084545" lon="14.18312"><ele>163.0</ele><time>2026-04-26T08:58:40.932Z</time></trkpt><trkpt lat="41.4085072" lon="14.1832608"><ele>163.0</ele><time>2026-04-26T08:58:41.941Z</time></trkpt><trkpt lat="41.4085586" lon="14.1833966"><ele>163.0</ele><time>2026-04-26T08:58:42.94Z</time></trkpt><trkpt lat="41.408606" lon="14.183525"><ele>163.0</ele><time>2026-04-26T08:58:43.942Z</time></trkpt><trkpt lat="41.4086497" lon="14.1836465"><ele>163.0</ele><time>2026-04-26T08:58:44.95Z</time></trkpt><trkpt lat="41.4086895" lon="14.1837589"><ele>163.0</ele><time>2026-04-26T08:58:45.925Z</time></trkpt><trkpt lat="41.4087279" lon="14.1838666"><ele>163.0</ele><time>2026-04-26T08:58:46.941Z</time></trkpt><trkpt lat="41.408766" lon="14.1839722"><ele>163.0</ele><time>2026-04-26T08:58:47.946Z</time></trkpt><trkpt lat="41.4088042" lon="14.1840739"><ele>163.0</ele><time>2026-04-26T08:58:48.93Z</time></trkpt><trkpt lat="41.4088446" lon="14.1841795"><ele>163.0</ele><time>2026-04-26T08:58:49.938Z</time></trkpt><trkpt lat="41.4088876" lon="14.1842928"><ele>163.0</ele><time>2026-04-26T08:58:50.937Z</time></trkpt><trkpt lat="41.4089342" lon="14.1844114"><ele>163.0</ele><time>2026-04-26T08:58:51.934Z</time></trkpt><trkpt lat="41.4089832" lon="14.1845414"><ele>163.0</ele><time>2026-04-26T08:58:52.94Z</time></trkpt><trkpt lat="41.4090361" lon="14.1846829"><ele>163.0</ele><time>2026-04-26T08:58:53.939Z</time></trkpt><trkpt lat="41.4090934" lon="14.1848326"><ele>163.0</ele><time>2026-04-26T08:58:54.93Z</time></trkpt><trkpt lat="41.4091519" lon="14.1849894"><ele>162.75</ele><time>2026-04-26T08:58:55.942Z</time></trkpt><trkpt lat="41.4092135" lon="14.1851506"><ele>162.5</ele><time>2026-04-26T08:58:56.931Z</time></trkpt><trkpt lat="41.4092765" lon="14.1853163"><ele>162.25</ele><time>2026-04-26T08:58:57.934Z</time></trkpt><trkpt lat="41.4093448" lon="14.1854844"><ele>162.0</ele><time>2026-04-26T08:58:58.962Z</time></trkpt><trkpt lat="41.4094169" lon="14.185655"><ele>162.0</ele><time>2026-04-26T08:58:59.944Z</time></trkpt><trkpt lat="41.4094926" lon="14.1858283"><ele>162.0</ele><time>2026-04-26T08:59:00.935Z</time></trkpt><trkpt lat="41.4095701" lon="14.1860034"><ele>162.0</ele><time>2026-04-26T08:59:01.938Z</time></trkpt><trkpt lat="41.4096521" lon="14.1861789"><ele>163.0</ele><time>2026-04-26T08:59:02.943Z</time></trkpt><trkpt lat="41.4097391" lon="14.186362"><ele>164.0</ele><time>2026-04-26T08:59:03.933Z</time></trkpt><trkpt lat="41.4098318" lon="14.1865566"><ele>165.0</ele><time>2026-04-26T08:59:04.946Z</time></trkpt><trkpt lat="41.4099264" lon="14.1867603"><ele>165.0</ele><time>2026-04-26T08:59:05.942Z</time></trkpt><trkpt lat="41.4100184" lon="14.1869706"><ele>165.0</ele><time>2026-04-26T08:59:06.948Z</time></trkpt><trkpt lat="41.4101088" lon="14.1871876"><ele>165.0</ele><time>2026-04-26T08:59:07.94Z</time></trkpt><trkpt lat="41.4102003" lon="14.1874076"><ele>166.0</ele><time>2026-04-26T08:59:08.932Z</time></trkpt><trkpt lat="41.4102939" lon="14.1876293"><ele>167.0</ele><time>2026-04-26T08:59:09.933Z</time></trkpt><trkpt lat="41.4103894" lon="14.1878519"><ele>168.0</ele><time>2026-04-26T08:59:10.937Z</time></trkpt><trkpt lat="41.410486" lon="14.1880755"><ele>170.66666666666666</ele><time>2026-04-26T08:59:11.94Z</time></trkpt><trkpt lat="41.4105821" lon="14.1883003"><ele>173.33333333333331</ele><time>2026-04-26T08:59:12.94Z</time></trkpt><trkpt lat="41.4106772" lon="14.1885254"><ele>176.0</ele><time>2026-04-26T08:59:13.931Z</time></trkpt><trkpt lat="41.4107698" lon="14.1887502"><ele>176.0</ele><time>2026-04-26T08:59:14.931Z</time></trkpt><trkpt lat="41.4108598" lon="14.1889736"><ele>176.0</ele><time>2026-04-26T08:59:15.933Z</time></trkpt><trkpt lat="41.4109523" lon="14.1891897"><ele>176.0</ele><time>2026-04-26T08:59:16.933Z</time></trkpt><trkpt lat="41.4110548" lon="14.1893952"><ele>177.33333333333331</ele><time>2026-04-26T08:59:17.94Z</time></trkpt><trkpt lat="41.4111704" lon="14.1895907"><ele>178.66666666666666</ele><time>2026-04-26T08:59:18.929Z</time></trkpt><trkpt lat="41.4112981" lon="14.189775"><ele>180.0</ele><time>2026-04-26T08:59:19.933Z</time></trkpt><trkpt lat="41.4114358" lon="14.1899476"><ele>180.0</ele><time>2026-04-26T08:59:20.931Z</time></trkpt><trkpt lat="41.411579" lon="14.1901122"><ele>180.0</ele><time>2026-04-26T08:59:21.949Z</time></trkpt><trkpt lat="41.411722" lon="14.1902742"><ele>180.0</ele><time>2026-04-26T08:59:22.93Z</time></trkpt><trkpt lat="41.4118668" lon="14.1904339"><ele>180.0</ele><time>2026-04-26T08:59:23.935Z</time></trkpt><trkpt lat="41.4120162" lon="14.1905877"><ele>180.0</ele><time>2026-04-26T08:59:24.943Z</time></trkpt><trkpt lat="41.4121704" lon="14.1907331"><ele>180.0</ele><time>2026-04-26T08:59:25.94Z</time></trkpt><trkpt lat="41.412328" lon="14.1908728"><ele>180.0</ele><time>2026-04-26T08:59:26.939Z</time></trkpt><trkpt lat="41.4124851" lon="14.1910098"><ele>180.0</ele><time>2026-04-26T08:59:27.936Z</time></trkpt><trkpt lat="41.4126422" lon="14.1911413"><ele>180.0</ele><time>2026-04-26T08:59:28.935Z</time></trkpt><trkpt lat="41.4128032" lon="14.1912619"><ele>180.0</ele><time>2026-04-26T08:59:29.939Z</time></trkpt><trkpt lat="41.4129719" lon="14.1913672"><ele>180.0</ele><time>2026-04-26T08:59:30.942Z</time></trkpt><trkpt lat="41.4131485" lon="14.1914546"><ele>180.0</ele><time>2026-04-26T08:59:31.945Z</time></trkpt><trkpt lat="41.4133355" lon="14.1915248"><ele>179.66666666666666</ele><time>2026-04-26T08:59:32.942Z</time></trkpt><trkpt lat="41.4135298" lon="14.1915794"><ele>179.33333333333331</ele><time>2026-04-26T08:59:33.937Z</time></trkpt><trkpt lat="41.4137297" lon="14.1916306"><ele>179.0</ele><time>2026-04-26T08:59:34.93Z</time></trkpt><trkpt lat="41.4139351" lon="14.191675"><ele>179.0</ele><time>2026-04-26T08:59:35.928Z</time></trkpt><trkpt lat="41.4141448" lon="14.1917134"><ele>179.0</ele><time>2026-04-26T08:59:36.939Z</time></trkpt><trkpt lat="41.4143596" lon="14.1917558"><ele>179.0</ele><time>2026-04-26T08:59:37.935Z</time></trkpt><trkpt lat="41.4145817" lon="14.1917974"><ele>180.0</ele><time>2026-04-26T08:59:38.934Z</time></trkpt><trkpt lat="41.4148058" lon="14.1918452"><ele>181.0</ele><time>2026-04-26T08:59:39.939Z</time></trkpt><trkpt lat="41.4150305" lon="14.1918957"><ele>181.0</ele><time>2026-04-26T08:59:40.939Z</time></trkpt><trkpt lat="41.4152581" lon="14.1919417"><ele>181.0</ele><time>2026-04-26T08:59:41.93Z</time></trkpt><trkpt lat="41.4154886" lon="14.1919874"><ele>183.0</ele><time>2026-04-26T08:59:42.931Z</time></trkpt><trkpt lat="41.4157199" lon="14.1920364"><ele>185.0</ele><time>2026-04-26T08:59:43.935Z</time></trkpt><trkpt lat="41.4159542" lon="14.1920819"><ele>185.0</ele><time>2026-04-26T08:59:44.939Z</time></trkpt><trkpt lat="41.4161891" lon="14.1921253"><ele>185.0</ele><time>2026-04-26T08:59:45.933Z</time></trkpt><trkpt lat="41.4164211" lon="14.192171"><ele>185.5</ele><time>2026-04-26T08:59:46.935Z</time></trkpt><trkpt lat="41.41665" lon="14.1922239"><ele>186.0</ele><time>2026-04-26T08:59:47.937Z</time></trkpt><trkpt lat="41.4168787" lon="14.1922793"><ele>186.0</ele><time>2026-04-26T08:59:48.938Z</time></trkpt><trkpt lat="41.4171072" lon="14.1923296"><ele>186.0</ele><time>2026-04-26T08:59:49.934Z</time></trkpt><trkpt lat="41.4173317" lon="14.1923757"><ele>183.5</ele><time>2026-04-26T08:59:50.931Z</time></trkpt><trkpt lat="41.4175551" lon="14.1924248"><ele>181.0</ele><time>2026-04-26T08:59:51.931Z</time></trkpt><trkpt lat="41.4177759" lon="14.1924735"><ele>183.66666666666669</ele><time>2026-04-26T08:59:52.945Z</time></trkpt><trkpt lat="41.4179912" lon="14.1925218"><ele>186.33333333333334</ele><time>2026-04-26T08:59:53.936Z</time></trkpt><trkpt lat="41.4181954" lon="14.1925623"><ele>189.0</ele><time>2026-04-26T08:59:54.94Z</time></trkpt><trkpt lat="41.4183868" lon="14.1925929"><ele>189.0</ele><time>2026-04-26T08:59:55.934Z</time></trkpt><trkpt lat="41.4185627" lon="14.1926109"><ele>189.0</ele><time>2026-04-26T08:59:56.938Z</time></trkpt><trkpt lat="41.4187128" lon="14.1926014"><ele>189.0</ele><time>2026-04-26T08:59:57.946Z</time></trkpt><trkpt lat="41.4188389" lon="14.1925436"><ele>188.75</ele><time>2026-04-26T08:59:58.939Z</time></trkpt><trkpt lat="41.4189417" lon="14.1924413"><ele>188.5</ele><time>2026-04-26T08:59:59.937Z</time></trkpt><trkpt lat="41.4190344" lon="14.1923103"><ele>188.25</ele><time>2026-04-26T09:00:00.945Z</time></trkpt><trkpt lat="41.4191321" lon="14.1921673"><ele>188.0</ele><time>2026-04-26T09:00:01.944Z</time></trkpt><trkpt lat="41.4192415" lon="14.1920268"><ele>190.66666666666666</ele><time>2026-04-26T09:00:02.934Z</time></trkpt><trkpt lat="41.4193595" lon="14.191888"><ele>193.33333333333331</ele><time>2026-04-26T09:00:03.938Z</time></trkpt><trkpt lat="41.4194791" lon="14.1917484"><ele>196.0</ele><time>2026-04-26T09:00:04.936Z</time></trkpt><trkpt lat="41.4195959" lon="14.1916111"><ele>198.5</ele><time>2026-04-26T09:00:05.93Z</time></trkpt><trkpt lat="41.4197095" lon="14.1914931"><ele>201.0</ele><time>2026-04-26T09:00:06.949Z</time></trkpt><trkpt lat="41.4198264" lon="14.1914176"><ele>203.5</ele><time>2026-04-26T09:00:07.933Z</time></trkpt><trkpt lat="41.4199484" lon="14.1913958"><ele>206.0</ele><time>2026-04-26T09:00:08.97Z</time></trkpt><trkpt lat="41.4200725" lon="14.1914246"><ele>206.0</ele><time>2026-04-26T09:00:09.937Z</time></trkpt><trkpt lat="41.4201914" lon="14.1914994"><ele>206.0</ele><time>2026-04-26T09:00:10.94Z</time></trkpt><trkpt lat="41.4202971" lon="14.1916142"><ele>206.0</ele><time>2026-04-26T09:00:11.942Z</time></trkpt><trkpt lat="41.4203887" lon="14.1917577"><ele>206.0</ele><time>2026-04-26T09:00:12.94Z</time></trkpt><trkpt lat="41.4204616" lon="14.1919244"><ele>206.75</ele><time>2026-04-26T09:00:13.936Z</time></trkpt><trkpt lat="41.4205045" lon="14.1921074"><ele>207.5</ele><time>2026-04-26T09:00:14.946Z</time></trkpt><trkpt lat="41.4205341" lon="14.1922851"><ele>208.25</ele><time>2026-04-26T09:00:15.939Z</time></trkpt><trkpt lat="41.4205142" lon="14.192464"><ele>209.0</ele><time>2026-04-26T09:00:16.935Z</time></trkpt><trkpt lat="41.4204909" lon="14.1926396"><ele>209.0</ele><time>2026-04-26T09:00:17.936Z</time></trkpt><trkpt lat="41.4205062" lon="14.1928102"><ele>209.0</ele><time>2026-04-26T09:00:18.945Z</time></trkpt><trkpt lat="41.4205715" lon="14.1929436"><ele>209.0</ele><time>2026-04-26T09:00:19.933Z</time></trkpt><trkpt lat="41.4206526" lon="14.1930743"><ele>209.0</ele><time>2026-04-26T09:00:20.948Z</time></trkpt><trkpt lat="41.420768" lon="14.1931768"><ele>207.25</ele><time>2026-04-26T09:00:21.945Z</time></trkpt><trkpt lat="41.4208878" lon="14.1932812"><ele>205.5</ele><time>2026-04-26T09:00:22.929Z</time></trkpt><trkpt lat="41.4210089" lon="14.1933981"><ele>203.75</ele><time>2026-04-26T09:00:23.941Z</time></trkpt><trkpt lat="41.4211256" lon="14.1935272"><ele>202.0</ele><time>2026-04-26T09:00:24.946Z</time></trkpt><trkpt lat="41.42124" lon="14.1936652"><ele>208.66666666666666</ele><time>2026-04-26T09:00:25.938Z</time></trkpt><trkpt lat="41.4213605" lon="14.193804"><ele>215.33333333333331</ele><time>2026-04-26T09:00:26.931Z</time></trkpt><trkpt lat="41.4214919" lon="14.1939169"><ele>222.0</ele><time>2026-04-26T09:00:27.937Z</time></trkpt><trkpt lat="41.4216311" lon="14.1939965"><ele>222.0</ele><time>2026-04-26T09:00:28.939Z</time></trkpt><trkpt lat="41.421784" lon="14.1940302"><ele>222.0</ele><time>2026-04-26T09:00:29.938Z</time></trkpt><trkpt lat="41.4219492" lon="14.1940178"><ele>222.0</ele><time>2026-04-26T09:00:30.932Z</time></trkpt><trkpt lat="41.4221237" lon="14.1939782"><ele>226.66666666666669</ele><time>2026-04-26T09:00:31.939Z</time></trkpt><trkpt lat="41.4223036" lon="14.1939454"><ele>231.33333333333334</ele><time>2026-04-26T09:00:32.936Z</time></trkpt><trkpt lat="41.4224925" lon="14.193945"><ele>236.0</ele><time>2026-04-26T09:00:33.942Z</time></trkpt><trkpt lat="41.422682" lon="14.193979"><ele>234.0</ele><time>2026-04-26T09:00:34.946Z</time></trkpt><trkpt lat="41.4228631" lon="14.1940348"><ele>232.0</ele><time>2026-04-26T09:00:35.941Z</time></trkpt><trkpt lat="41.423027" lon="14.1941054"><ele>230.0</ele><time>2026-04-26T09:00:36.942Z</time></trkpt><trkpt lat="41.4231657" lon="14.1941916"><ele>230.0</ele><time>2026-04-26T09:00:37.955Z</time></trkpt><trkpt lat="41.42327" lon="14.1943013"><ele>230.0</ele><time>2026-04-26T09:00:38.939Z</time></trkpt><trkpt lat="41.4233469" lon="14.1944258"><ele>230.0</ele><time>2026-04-26T09:00:39.931Z</time></trkpt><trkpt lat="41.4234226" lon="14.1945445"><ele>230.0</ele><time>2026-04-26T09:00:40.933Z</time></trkpt><trkpt lat="41.4235154" lon="14.1946382"><ele>230.0</ele><time>2026-04-26T09:00:41.935Z</time></trkpt><trkpt lat="41.4236296" lon="14.1946958"><ele>230.0</ele><time>2026-04-26T09:00:42.931Z</time></trkpt><trkpt lat="41.4237597" lon="14.1947153"><ele>230.0</ele><time>2026-04-26T09:00:43.939Z</time></trkpt><trkpt lat="41.4238999" lon="14.1947016"><ele>230.0</ele><time>2026-04-26T09:00:44.934Z</time></trkpt><trkpt lat="41.4240429" lon="14.1946617"><ele>232.5</ele><time>2026-04-26T09:00:45.933Z</time></trkpt><trkpt lat="41.4241848" lon="14.1946097"><ele>235.0</ele><time>2026-04-26T09:00:46.944Z</time></trkpt><trkpt lat="41.424324" lon="14.1945674"><ele>237.5</ele><time>2026-04-26T09:00:47.951Z</time></trkpt><trkpt lat="41.4244571" lon="14.1945616"><ele>240.0</ele><time>2026-04-26T09:00:48.94Z</time></trkpt><trkpt lat="41.424577" lon="14.194605"><ele>240.0</ele><time>2026-04-26T09:00:49.943Z</time></trkpt><trkpt lat="41.4246796" lon="14.1946959"><ele>240.0</ele><time>2026-04-26T09:00:50.943Z</time></trkpt><trkpt lat="41.4247756" lon="14.1948136"><ele>240.0</ele><time>2026-04-26T09:00:51.944Z</time></trkpt><trkpt lat="41.424875" lon="14.1949419"><ele>240.0</ele><time>2026-04-26T09:00:52.945Z</time></trkpt><trkpt lat="41.4249809" lon="14.1950743"><ele>241.0</ele><time>2026-04-26T09:00:53.942Z</time></trkpt><trkpt lat="41.4250941" lon="14.1952077"><ele>242.0</ele><time>2026-04-26T09:00:54.94Z</time></trkpt><trkpt lat="41.4252147" lon="14.1953409"><ele>243.0</ele><time>2026-04-26T09:00:55.946Z</time></trkpt><trkpt lat="41.4253401" lon="14.1954764"><ele>243.0</ele><time>2026-04-26T09:00:56.946Z</time></trkpt><trkpt lat="41.425468" lon="14.1956179"><ele>243.0</ele><time>2026-04-26T09:00:57.934Z</time></trkpt><trkpt lat="41.4255917" lon="14.1957752"><ele>243.0</ele><time>2026-04-26T09:00:58.94Z</time></trkpt><trkpt lat="41.425708" lon="14.1959456"><ele>246.0</ele><time>2026-04-26T09:00:59.941Z</time></trkpt><trkpt lat="41.4258175" lon="14.1961228"><ele>249.0</ele><time>2026-04-26T09:01:00.935Z</time></trkpt><trkpt lat="41.4259181" lon="14.1963057"><ele>252.0</ele><time>2026-04-26T09:01:01.936Z</time></trkpt><trkpt lat="41.4260037" lon="14.1964987"><ele>252.5</ele><time>2026-04-26T09:01:02.93Z</time></trkpt><trkpt lat="41.426059" lon="14.1966989"><ele>253.0</ele><time>2026-04-26T09:01:03.937Z</time></trkpt><trkpt lat="41.4260711" lon="14.1968924"><ele>253.5</ele><time>2026-04-26T09:01:04.941Z</time></trkpt><trkpt lat="41.4260465" lon="14.1970782"><ele>254.0</ele><time>2026-04-26T09:01:05.951Z</time></trkpt><trkpt lat="41.4259975" lon="14.1972617"><ele>255.33333333333334</ele><time>2026-04-26T09:01:06.941Z</time></trkpt><trkpt lat="41.4259387" lon="14.1974508"><ele>256.6666666666667</ele><time>2026-04-26T09:01:07.938Z</time></trkpt><trkpt lat="41.4258801" lon="14.1976582"><ele>258.0</ele><time>2026-04-26T09:01:08.94Z</time></trkpt><trkpt lat="41.4258316" lon="14.1978917"><ele>258.0</ele><time>2026-04-26T09:01:09.954Z</time></trkpt><trkpt lat="41.4258039" lon="14.1981387"><ele>258.0</ele><time>2026-04-26T09:01:10.941Z</time></trkpt><trkpt lat="41.4258048" lon="14.1983919"><ele>258.0</ele><time>2026-04-26T09:01:11.932Z</time></trkpt><trkpt lat="41.4258337" lon="14.1986488"><ele>259.6666666666667</ele><time>2026-04-26T09:01:12.932Z</time></trkpt><trkpt lat="41.4258816" lon="14.1988978"><ele>261.33333333333337</ele><time>2026-04-26T09:01:13.932Z</time></trkpt><trkpt lat="41.425946" lon="14.199131"><ele>263.0</ele><time>2026-04-26T09:01:14.933Z</time></trkpt><trkpt lat="41.4260286" lon="14.1993422"><ele>264.0</ele><time>2026-04-26T09:01:15.935Z</time></trkpt><trkpt lat="41.4261237" lon="14.1995159"><ele>265.0</ele><time>2026-04-26T09:01:16.938Z</time></trkpt><trkpt lat="41.4262276" lon="14.1996499"><ele>266.0</ele><time>2026-04-26T09:01:17.937Z</time></trkpt><trkpt lat="41.4263369" lon="14.199765"><ele>267.0</ele><time>2026-04-26T09:01:18.937Z</time></trkpt><trkpt lat="41.4264555" lon="14.1998551"><ele>270.5</ele><time>2026-04-26T09:01:19.934Z</time></trkpt><trkpt lat="41.4265843" lon="14.1999133"><ele>274.0</ele><time>2026-04-26T09:01:20.941Z</time></trkpt><trkpt lat="41.4267153" lon="14.1999449"><ele>277.5</ele><time>2026-04-26T09:01:21.933Z</time></trkpt><trkpt lat="41.4268454" lon="14.1999596"><ele>281.0</ele><time>2026-04-26T09:01:22.935Z</time></trkpt><trkpt lat="41.4269731" lon="14.1999635"><ele>281.0</ele><time>2026-04-26T09:01:23.93Z</time></trkpt><trkpt lat="41.4270962" lon="14.1999593"><ele>281.0</ele><time>2026-04-26T09:01:24.936Z</time></trkpt><trkpt lat="41.4272166" lon="14.1999443"><ele>281.0</ele><time>2026-04-26T09:01:25.942Z</time></trkpt><trkpt lat="41.4273323" lon="14.1999166"><ele>281.0</ele><time>2026-04-26T09:01:26.927Z</time></trkpt><trkpt lat="41.4274462" lon="14.1998771"><ele>281.25</ele><time>2026-04-26T09:01:27.936Z</time></trkpt><trkpt lat="41.42757" lon="14.1998326"><ele>281.5</ele><time>2026-04-26T09:01:28.934Z</time></trkpt><trkpt lat="41.4276964" lon="14.1997867"><ele>281.75</ele><time>2026-04-26T09:01:29.936Z</time></trkpt><trkpt lat="41.4278259" lon="14.1997384"><ele>282.0</ele><time>2026-04-26T09:01:30.932Z</time></trkpt><trkpt lat="41.427961" lon="14.1996912"><ele>282.5</ele><time>2026-04-26T09:01:31.931Z</time></trkpt><trkpt lat="41.4281023" lon="14.1996441"><ele>283.0</ele><time>2026-04-26T09:01:32.928Z</time></trkpt><trkpt lat="41.4282449" lon="14.1995926"><ele>283.5</ele><time>2026-04-26T09:01:33.938Z</time></trkpt><trkpt lat="41.4283858" lon="14.1995368"><ele>284.0</ele><time>2026-04-26T09:01:34.935Z</time></trkpt><trkpt lat="41.4285229" lon="14.1994774"><ele>284.0</ele><time>2026-04-26T09:01:35.931Z</time></trkpt><trkpt lat="41.4286577" lon="14.199423"><ele>284.0</ele><time>2026-04-26T09:01:36.932Z</time></trkpt><trkpt lat="41.4287919" lon="14.1993801"><ele>284.0</ele><time>2026-04-26T09:01:37.941Z</time></trkpt><trkpt lat="41.4289256" lon="14.1993403"><ele>284.0</ele><time>2026-04-26T09:01:38.931Z</time></trkpt><trkpt lat="41.429059" lon="14.1992964"><ele>284.75</ele><time>2026-04-26T09:01:39.934Z</time></trkpt><trkpt lat="41.4291907" lon="14.1992463"><ele>285.5</ele><time>2026-04-26T09:01:40.942Z</time></trkpt><trkpt lat="41.4293203" lon="14.1991912"><ele>286.25</ele><time>2026-04-26T09:01:41.934Z</time></trkpt><trkpt lat="41.429444" lon="14.1991267"><ele>287.0</ele><time>2026-04-26T09:01:42.928Z</time></trkpt><trkpt lat="41.4295599" lon="14.1990464"><ele>287.25</ele><time>2026-04-26T09:01:43.931Z</time></trkpt><trkpt lat="41.4296668" lon="14.1989463"><ele>287.5</ele><time>2026-04-26T09:01:44.94Z</time></trkpt><trkpt lat="41.4297648" lon="14.1988244"><ele>287.75</ele><time>2026-04-26T09:01:45.94Z</time></trkpt><trkpt lat="41.4298573" lon="14.1986844"><ele>288.0</ele><time>2026-04-26T09:01:46.937Z</time></trkpt><trkpt lat="41.4299439" lon="14.1985316"><ele>288.0</ele><time>2026-04-26T09:01:47.94Z</time></trkpt><trkpt lat="41.4300134" lon="14.1983653"><ele>288.0</ele><time>2026-04-26T09:01:48.934Z</time></trkpt><trkpt lat="41.4300611" lon="14.1981855"><ele>288.0</ele><time>2026-04-26T09:01:49.933Z</time></trkpt><trkpt lat="41.4300863" lon="14.1980017"><ele>288.0</ele><time>2026-04-26T09:01:50.936Z</time></trkpt><trkpt lat="41.4301036" lon="14.197822"><ele>286.5</ele><time>2026-04-26T09:01:51.938Z</time></trkpt><trkpt lat="41.4301293" lon="14.197652"><ele>285.0</ele><time>2026-04-26T09:01:52.935Z</time></trkpt><trkpt lat="41.4301779" lon="14.1974921"><ele>283.5</ele><time>2026-04-26T09:01:53.94Z</time></trkpt><trkpt lat="41.4302538" lon="14.1973416"><ele>282.0</ele><time>2026-04-26T09:01:54.941Z</time></trkpt><trkpt lat="41.4303452" lon="14.1972131"><ele>280.8</ele><time>2026-04-26T09:01:55.932Z</time></trkpt><trkpt lat="41.4304421" lon="14.1971232"><ele>279.6</ele><time>2026-04-26T09:01:56.935Z</time></trkpt><trkpt lat="41.4305484" lon="14.1970688"><ele>278.40000000000003</ele><time>2026-04-26T09:01:57.932Z</time></trkpt><trkpt lat="41.4306502" lon="14.1970925"><ele>277.2</ele><time>2026-04-26T09:01:58.933Z</time></trkpt><trkpt lat="41.4307524" lon="14.197147"><ele>276.0</ele><time>2026-04-26T09:01:59.947Z</time></trkpt><trkpt lat="41.4308477" lon="14.1972348"><ele>276.40000000000003</ele><time>2026-04-26T09:02:00.947Z</time></trkpt><trkpt lat="41.4309324" lon="14.1973285"><ele>276.8</ele><time>2026-04-26T09:02:01.939Z</time></trkpt><trkpt lat="41.4310178" lon="14.1973923"><ele>277.20000000000005</ele><time>2026-04-26T09:02:02.931Z</time></trkpt><trkpt lat="41.4311035" lon="14.1973996"><ele>277.6</ele><time>2026-04-26T09:02:03.933Z</time></trkpt><trkpt lat="41.4311841" lon="14.1973525"><ele>278.0</ele><time>2026-04-26T09:02:04.938Z</time></trkpt><trkpt lat="41.4312478" lon="14.1972625"><ele>277.0</ele><time>2026-04-26T09:02:05.939Z</time></trkpt><trkpt lat="41.4312967" lon="14.1971409"><ele>276.0</ele><time>2026-04-26T09:02:06.951Z</time></trkpt><trkpt lat="41.4313418" lon="14.1970008"><ele>275.0</ele><time>2026-04-26T09:02:07.946Z</time></trkpt><trkpt lat="41.431385" lon="14.1968462"><ele>274.0</ele><time>2026-04-26T09:02:08.934Z</time></trkpt><trkpt lat="41.4314278" lon="14.1966825"><ele>274.0</ele><time>2026-04-26T09:02:09.95Z</time></trkpt><trkpt lat="41.4314675" lon="14.1965096"><ele>274.0</ele><time>2026-04-26T09:02:10.944Z</time></trkpt><trkpt lat="41.4315118" lon="14.1963282"><ele>274.0</ele><time>2026-04-26T09:02:11.932Z</time></trkpt><trkpt lat="41.4315582" lon="14.1961395"><ele>274.0</ele><time>2026-04-26T09:02:12.958Z</time></trkpt><trkpt lat="41.4316047" lon="14.1959432"><ele>273.3333333333333</ele><time>2026-04-26T09:02:13.949Z</time></trkpt><trkpt lat="41.4316541" lon="14.195746"><ele>272.6666666666667</ele><time>2026-04-26T09:02:14.932Z</time></trkpt><trkpt lat="41.4317072" lon="14.1955497"><ele>272.0</ele><time>2026-04-26T09:02:15.94Z</time></trkpt><trkpt lat="41.431767" lon="14.1953544"><ele>270.6666666666667</ele><time>2026-04-26T09:02:16.947Z</time></trkpt><trkpt lat="41.4318323" lon="14.1951597"><ele>269.3333333333333</ele><time>2026-04-26T09:02:17.944Z</time></trkpt><trkpt lat="41.4319028" lon="14.1949618"><ele>268.0</ele><time>2026-04-26T09:02:18.937Z</time></trkpt><trkpt lat="41.4319813" lon="14.1947668"><ele>268.3333333333333</ele><time>2026-04-26T09:02:19.939Z</time></trkpt><trkpt lat="41.4320744" lon="14.1945818"><ele>268.6666666666667</ele><time>2026-04-26T09:02:20.94Z</time></trkpt><trkpt lat="41.4321839" lon="14.1944112"><ele>269.0</ele><time>2026-04-26T09:02:21.933Z</time></trkpt><trkpt lat="41.4323037" lon="14.1942561"><ele>269.0</ele><time>2026-04-26T09:02:22.925Z</time></trkpt><trkpt lat="41.4324304" lon="14.1941137"><ele>269.0</ele><time>2026-04-26T09:02:23.935Z</time></trkpt><trkpt lat="41.4325604" lon="14.1939751"><ele>269.0</ele><time>2026-04-26T09:02:24.945Z</time></trkpt><trkpt lat="41.4326929" lon="14.1938339"><ele>266.6666666666667</ele><time>2026-04-26T09:02:25.935Z</time></trkpt><trkpt lat="41.4328278" lon="14.1936904"><ele>264.3333333333333</ele><time>2026-04-26T09:02:26.941Z</time></trkpt><trkpt lat="41.4329625" lon="14.1935482"><ele>262.0</ele><time>2026-04-26T09:02:27.937Z</time></trkpt><trkpt lat="41.4330974" lon="14.1934063"><ele>262.0</ele><time>2026-04-26T09:02:28.96Z</time></trkpt><trkpt lat="41.4332303" lon="14.193267"><ele>262.0</ele><time>2026-04-26T09:02:29.949Z</time></trkpt><trkpt lat="41.4333524" lon="14.1931391"><ele>262.0</ele><time>2026-04-26T09:02:30.944Z</time></trkpt><trkpt lat="41.4334596" lon="14.1930239"><ele>261.4</ele><time>2026-04-26T09:02:31.938Z</time></trkpt><trkpt lat="41.4335521" lon="14.1929245"><ele>260.79999999999995</ele><time>2026-04-26T09:02:32.945Z</time></trkpt><trkpt lat="41.4336363" lon="14.1928328"><ele>260.2</ele><time>2026-04-26T09:02:33.947Z</time></trkpt><trkpt lat="41.4337149" lon="14.1927503"><ele>259.59999999999997</ele><time>2026-04-26T09:02:34.933Z</time></trkpt><trkpt lat="41.4337895" lon="14.1926792"><ele>259.0</ele><time>2026-04-26T09:02:35.944Z</time></trkpt><trkpt lat="41.433863" lon="14.1926174"><ele>259.0</ele><time>2026-04-26T09:02:36.945Z</time></trkpt><trkpt lat="41.4339381" lon="14.1925593"><ele>259.0</ele><time>2026-04-26T09:02:37.931Z</time></trkpt><trkpt lat="41.4340095" lon="14.1925032"><ele>259.0</ele><time>2026-04-26T09:02:38.945Z</time></trkpt><trkpt lat="41.4340762" lon="14.1924466"><ele>259.0</ele><time>2026-04-26T09:02:39.953Z</time></trkpt><trkpt lat="41.4341389" lon="14.192385"><ele>259.0</ele><time>2026-04-26T09:02:40.944Z</time></trkpt><trkpt lat="41.4341964" lon="14.1923104"><ele>259.0</ele><time>2026-04-26T09:02:41.934Z</time></trkpt><trkpt lat="41.434243" lon="14.1922138"><ele>257.25</ele><time>2026-04-26T09:02:42.943Z</time></trkpt><trkpt lat="41.434282" lon="14.1920951"><ele>255.5</ele><time>2026-04-26T09:02:43.946Z</time></trkpt><trkpt lat="41.434321" lon="14.1919621"><ele>253.75</ele><time>2026-04-26T09:02:44.942Z</time></trkpt><trkpt lat="41.4343652" lon="14.1918182"><ele>252.0</ele><time>2026-04-26T09:02:45.929Z</time></trkpt><trkpt lat="41.4344157" lon="14.1916586"><ele>250.0</ele><time>2026-04-26T09:02:46.942Z</time></trkpt><trkpt lat="41.4344698" lon="14.1914841"><ele>248.0</ele><time>2026-04-26T09:02:47.942Z</time></trkpt><trkpt lat="41.4345259" lon="14.1912961"><ele>246.0</ele><time>2026-04-26T09:02:48.939Z</time></trkpt><trkpt lat="41.4345827" lon="14.1910967"><ele>247.0</ele><time>2026-04-26T09:02:49.939Z</time></trkpt><trkpt lat="41.4346387" lon="14.1908896"><ele>248.0</ele><time>2026-04-26T09:02:50.938Z</time></trkpt><trkpt lat="41.4346926" lon="14.1906754"><ele>249.0</ele><time>2026-04-26T09:02:51.944Z</time></trkpt><trkpt lat="41.4347439" lon="14.1904561"><ele>249.0</ele><time>2026-04-26T09:02:52.946Z</time></trkpt><trkpt lat="41.4347917" lon="14.1902347"><ele>249.0</ele><time>2026-04-26T09:02:53.942Z</time></trkpt><trkpt lat="41.4348378" lon="14.190012"><ele>249.0</ele><time>2026-04-26T09:02:54.936Z</time></trkpt><trkpt lat="41.4348844" lon="14.1897886"><ele>249.0</ele><time>2026-04-26T09:02:55.941Z</time></trkpt><trkpt lat="41.4349363" lon="14.1895585"><ele>249.0</ele><time>2026-04-26T09:02:56.939Z</time></trkpt><trkpt lat="41.4349903" lon="14.1893166"><ele>249.0</ele><time>2026-04-26T09:02:57.93Z</time></trkpt><trkpt lat="41.4350426" lon="14.1890724"><ele>249.33333333333331</ele><time>2026-04-26T09:02:58.936Z</time></trkpt><trkpt lat="41.4350942" lon="14.1888318"><ele>249.66666666666666</ele><time>2026-04-26T09:02:59.937Z</time></trkpt><trkpt lat="41.4351451" lon="14.1886021"><ele>250.0</ele><time>2026-04-26T09:03:00.937Z</time></trkpt><trkpt lat="41.4352017" lon="14.1883874"><ele>250.0</ele><time>2026-04-26T09:03:01.945Z</time></trkpt><trkpt lat="41.4352739" lon="14.1881852"><ele>250.0</ele><time>2026-04-26T09:03:02.936Z</time></trkpt><trkpt lat="41.4353642" lon="14.1879916"><ele>250.0</ele><time>2026-04-26T09:03:03.932Z</time></trkpt><trkpt lat="41.4354739" lon="14.1878104"><ele>249.33333333333331</ele><time>2026-04-26T09:03:04.936Z</time></trkpt><trkpt lat="41.4355936" lon="14.1876402"><ele>248.66666666666669</ele><time>2026-04-26T09:03:05.939Z</time></trkpt><trkpt lat="41.4357173" lon="14.187475"><ele>248.0</ele><time>2026-04-26T09:03:06.935Z</time></trkpt><trkpt lat="41.4358403" lon="14.1873099"><ele>247.33333333333334</ele><time>2026-04-26T09:03:07.94Z</time></trkpt><trkpt lat="41.4359623" lon="14.1871432"><ele>246.66666666666669</ele><time>2026-04-26T09:03:08.944Z</time></trkpt><trkpt lat="41.4360851" lon="14.1869747"><ele>246.0</ele><time>2026-04-26T09:03:09.935Z</time></trkpt><trkpt lat="41.4362107" lon="14.1868049"><ele>245.33333333333331</ele><time>2026-04-26T09:03:10.936Z</time></trkpt><trkpt lat="41.4363405" lon="14.1866339"><ele>244.66666666666666</ele><time>2026-04-26T09:03:11.944Z</time></trkpt><trkpt lat="41.4364735" lon="14.1864583"><ele>244.0</ele><time>2026-04-26T09:03:12.943Z</time></trkpt><trkpt lat="41.4366094" lon="14.186276"><ele>244.0</ele><time>2026-04-26T09:03:13.935Z</time></trkpt><trkpt lat="41.4367496" lon="14.186088"><ele>244.0</ele><time>2026-04-26T09:03:14.938Z</time></trkpt><trkpt lat="41.4368936" lon="14.1858957"><ele>244.0</ele><time>2026-04-26T09:03:15.943Z</time></trkpt><trkpt lat="41.4370404" lon="14.1856996"><ele>242.66666666666666</ele><time>2026-04-26T09:03:16.938Z</time></trkpt><trkpt lat="41.4371859" lon="14.1855035"><ele>241.33333333333331</ele><time>2026-04-26T09:03:17.941Z</time></trkpt><trkpt lat="41.4373311" lon="14.1853051"><ele>240.0</ele><time>2026-04-26T09:03:18.932Z</time></trkpt><trkpt lat="41.4374767" lon="14.1851055"><ele>240.0</ele><time>2026-04-26T09:03:19.939Z</time></trkpt><trkpt lat="41.4376233" lon="14.1849051"><ele>240.0</ele><time>2026-04-26T09:03:20.933Z</time></trkpt><trkpt lat="41.4377713" lon="14.1847056"><ele>240.0</ele><time>2026-04-26T09:03:21.933Z</time></trkpt><trkpt lat="41.4379214" lon="14.1845078"><ele>240.66666666666669</ele><time>2026-04-26T09:03:22.942Z</time></trkpt><trkpt lat="41.4380727" lon="14.1843094"><ele>241.33333333333334</ele><time>2026-04-26T09:03:23.939Z</time></trkpt><trkpt lat="41.4382238" lon="14.184108"><ele>242.0</ele><time>2026-04-26T09:03:24.932Z</time></trkpt><trkpt lat="41.4383741" lon="14.1839028"><ele>242.0</ele><time>2026-04-26T09:03:25.947Z</time></trkpt><trkpt lat="41.4385252" lon="14.1836956"><ele>242.0</ele><time>2026-04-26T09:03:26.936Z</time></trkpt><trkpt lat="41.4386767" lon="14.1834907"><ele>242.0</ele><time>2026-04-26T09:03:27.929Z</time></trkpt><trkpt lat="41.4388272" lon="14.1832904"><ele>241.33333333333334</ele><time>2026-04-26T09:03:28.932Z</time></trkpt><trkpt lat="41.4389771" lon="14.1830929"><ele>240.66666666666669</ele><time>2026-04-26T09:03:29.94Z</time></trkpt><trkpt lat="41.4391264" lon="14.1828967"><ele>240.0</ele><time>2026-04-26T09:03:30.93Z</time></trkpt><trkpt lat="41.4392742" lon="14.1827004"><ele>240.0</ele><time>2026-04-26T09:03:31.936Z</time></trkpt><trkpt lat="41.4394212" lon="14.182504"><ele>240.0</ele><time>2026-04-26T09:03:32.944Z</time></trkpt><trkpt lat="41.4395678" lon="14.1823093"><ele>240.0</ele><time>2026-04-26T09:03:33.944Z</time></trkpt><trkpt lat="41.4397127" lon="14.1821147"><ele>240.0</ele><time>2026-04-26T09:03:34.926Z</time></trkpt><trkpt lat="41.4398562" lon="14.1819201"><ele>240.0</ele><time>2026-04-26T09:03:35.935Z</time></trkpt><trkpt lat="41.4399987" lon="14.1817261"><ele>240.0</ele><time>2026-04-26T09:03:36.936Z</time></trkpt><trkpt lat="41.4401412" lon="14.1815333"><ele>240.33333333333331</ele><time>2026-04-26T09:03:37.931Z</time></trkpt><trkpt lat="41.4402841" lon="14.1813399"><ele>240.66666666666666</ele><time>2026-04-26T09:03:38.941Z</time></trkpt><trkpt lat="41.440428" lon="14.1811462"><ele>241.0</ele><time>2026-04-26T09:03:39.945Z</time></trkpt><trkpt lat="41.4405723" lon="14.1809513"><ele>241.0</ele><time>2026-04-26T09:03:40.931Z</time></trkpt><trkpt lat="41.4407176" lon="14.1807554"><ele>241.0</ele><time>2026-04-26T09:03:41.944Z</time></trkpt><trkpt lat="41.4408642" lon="14.1805591"><ele>241.0</ele><time>2026-04-26T09:03:42.937Z</time></trkpt><trkpt lat="41.4410128" lon="14.1803624"><ele>241.0</ele><time>2026-04-26T09:03:43.936Z</time></trkpt><trkpt lat="41.441169" lon="14.1801545"><ele>241.0</ele><time>2026-04-26T09:03:44.937Z</time></trkpt><trkpt lat="41.4413353" lon="14.1799313"><ele>240.5</ele><time>2026-04-26T09:03:45.938Z</time></trkpt><trkpt lat="41.441507" lon="14.1797006"><ele>240.0</ele><time>2026-04-26T09:03:46.929Z</time></trkpt><trkpt lat="41.4416817" lon="14.1794663"><ele>240.0</ele><time>2026-04-26T09:03:47.939Z</time></trkpt><trkpt lat="41.4418564" lon="14.1792335"><ele>240.0</ele><time>2026-04-26T09:03:48.94Z</time></trkpt><trkpt lat="41.4420286" lon="14.1790026"><ele>239.5</ele><time>2026-04-26T09:03:49.936Z</time></trkpt><trkpt lat="41.4421979" lon="14.1787745"><ele>239.0</ele><time>2026-04-26T09:03:50.945Z</time></trkpt><trkpt lat="41.442365" lon="14.1785508"><ele>239.0</ele><time>2026-04-26T09:03:51.939Z</time></trkpt><trkpt lat="41.4425304" lon="14.178331"><ele>239.0</ele><time>2026-04-26T09:03:52.931Z</time></trkpt><trkpt lat="41.4426937" lon="14.1781144"><ele>239.0</ele><time>2026-04-26T09:03:53.942Z</time></trkpt><trkpt lat="41.4428555" lon="14.1779002"><ele>239.0</ele><time>2026-04-26T09:03:54.933Z</time></trkpt><trkpt lat="41.4430158" lon="14.1776871"><ele>238.0</ele><time>2026-04-26T09:03:55.936Z</time></trkpt><trkpt lat="41.4431741" lon="14.1774752"><ele>237.0</ele><time>2026-04-26T09:03:56.948Z</time></trkpt><trkpt lat="41.4433303" lon="14.1772629"><ele>236.0</ele><time>2026-04-26T09:03:57.959Z</time></trkpt><trkpt lat="41.4434853" lon="14.1770531"><ele>235.66666666666669</ele><time>2026-04-26T09:03:58.94Z</time></trkpt><trkpt lat="41.4436403" lon="14.1768457"><ele>235.33333333333331</ele><time>2026-04-26T09:03:59.967Z</time></trkpt><trkpt lat="41.4437952" lon="14.1766386"><ele>235.0</ele><time>2026-04-26T09:04:00.939Z</time></trkpt><trkpt lat="41.4439498" lon="14.1764322"><ele>235.0</ele><time>2026-04-26T09:04:01.951Z</time></trkpt><trkpt lat="41.4441038" lon="14.1762244"><ele>235.0</ele><time>2026-04-26T09:04:02.942Z</time></trkpt><trkpt lat="41.4442572" lon="14.1760166"><ele>235.0</ele><time>2026-04-26T09:04:03.951Z</time></trkpt><trkpt lat="41.4444108" lon="14.1758089"><ele>235.33333333333331</ele><time>2026-04-26T09:04:04.952Z</time></trkpt><trkpt lat="41.4445644" lon="14.1756012"><ele>235.66666666666669</ele><time>2026-04-26T09:04:05.949Z</time></trkpt><trkpt lat="41.4447182" lon="14.1753941"><ele>236.0</ele><time>2026-04-26T09:04:06.945Z</time></trkpt><trkpt lat="41.4448722" lon="14.1751883"><ele>235.33333333333334</ele><time>2026-04-26T09:04:07.956Z</time></trkpt><trkpt lat="41.445026" lon="14.1749835"><ele>234.66666666666669</ele><time>2026-04-26T09:04:08.985Z</time></trkpt><trkpt lat="41.4451783" lon="14.174778"><ele>234.0</ele><time>2026-04-26T09:04:09.948Z</time></trkpt><trkpt lat="41.4453306" lon="14.1745742"><ele>233.0</ele><time>2026-04-26T09:04:10.948Z</time></trkpt><trkpt lat="41.4454836" lon="14.1743726"><ele>232.0</ele><time>2026-04-26T09:04:11.956Z</time></trkpt><trkpt lat="41.4456363" lon="14.1741709"><ele>231.0</ele><time>2026-04-26T09:04:12.941Z</time></trkpt><trkpt lat="41.4457887" lon="14.1739674"><ele>231.0</ele><time>2026-04-26T09:04:13.954Z</time></trkpt><trkpt lat="41.4459409" lon="14.1737617"><ele>231.0</ele><time>2026-04-26T09:04:14.946Z</time></trkpt><trkpt lat="41.4460936" lon="14.1735541"><ele>231.0</ele><time>2026-04-26T09:04:15.941Z</time></trkpt><trkpt lat="41.4462482" lon="14.1733464"><ele>231.0</ele><time>2026-04-26T09:04:16.932Z</time></trkpt><trkpt lat="41.4464039" lon="14.1731374"><ele>231.0</ele><time>2026-04-26T09:04:17.937Z</time></trkpt><trkpt lat="41.4465598" lon="14.1729264"><ele>231.0</ele><time>2026-04-26T09:04:18.933Z</time></trkpt><trkpt lat="41.4467159" lon="14.1727135"><ele>231.0</ele><time>2026-04-26T09:04:19.937Z</time></trkpt><trkpt lat="41.4468726" lon="14.172501"><ele>231.0</ele><time>2026-04-26T09:04:20.94Z</time></trkpt><trkpt lat="41.4470309" lon="14.1722902"><ele>231.0</ele><time>2026-04-26T09:04:21.943Z</time></trkpt><trkpt lat="41.4471894" lon="14.1720788"><ele>230.5</ele><time>2026-04-26T09:04:22.939Z</time></trkpt><trkpt lat="41.4473483" lon="14.1718663"><ele>230.0</ele><time>2026-04-26T09:04:23.945Z</time></trkpt><trkpt lat="41.447507" lon="14.1716534"><ele>229.5</ele><time>2026-04-26T09:04:24.938Z</time></trkpt><trkpt lat="41.4476664" lon="14.1714405"><ele>229.0</ele><time>2026-04-26T09:04:25.935Z</time></trkpt><trkpt lat="41.4478266" lon="14.171227"><ele>231.0</ele><time>2026-04-26T09:04:26.934Z</time></trkpt><trkpt lat="41.4479875" lon="14.1710139"><ele>233.0</ele><time>2026-04-26T09:04:27.941Z</time></trkpt><trkpt lat="41.4481471" lon="14.1708"><ele>232.5</ele><time>2026-04-26T09:04:28.944Z</time></trkpt><trkpt lat="41.4483056" lon="14.1705839"><ele>232.0</ele><time>2026-04-26T09:04:29.934Z</time></trkpt><trkpt lat="41.448465" lon="14.1703686"><ele>232.0</ele><time>2026-04-26T09:04:30.935Z</time></trkpt><trkpt lat="41.4486256" lon="14.1701543"><ele>232.0</ele><time>2026-04-26T09:04:31.941Z</time></trkpt><trkpt lat="41.4487856" lon="14.1699386"><ele>231.0</ele><time>2026-04-26T09:04:32.943Z</time></trkpt><trkpt lat="41.4489453" lon="14.1697231"><ele>230.0</ele><time>2026-04-26T09:04:33.934Z</time></trkpt><trkpt lat="41.4491047" lon="14.1695075"><ele>230.0</ele><time>2026-04-26T09:04:34.94Z</time></trkpt><trkpt lat="41.4492634" lon="14.1692923"><ele>230.0</ele><time>2026-04-26T09:04:35.938Z</time></trkpt><trkpt lat="41.4494224" lon="14.1690789"><ele>230.33333333333334</ele><time>2026-04-26T09:04:36.932Z</time></trkpt><trkpt lat="41.4495814" lon="14.1688678"><ele>230.66666666666669</ele><time>2026-04-26T09:04:37.943Z</time></trkpt><trkpt lat="41.4497382" lon="14.1686774"><ele>231.0</ele><time>2026-04-26T09:04:38.926Z</time></trkpt><trkpt lat="41.4498898" lon="14.1684758"><ele>231.0</ele><time>2026-04-26T09:04:39.927Z</time></trkpt><trkpt lat="41.4500493" lon="14.168271"><ele>231.0</ele><time>2026-04-26T09:04:40.937Z</time></trkpt><trkpt lat="41.4502049" lon="14.1680665"><ele>231.0</ele><time>2026-04-26T09:04:41.942Z</time></trkpt><trkpt lat="41.4503583" lon="14.1678618"><ele>230.33333333333331</ele><time>2026-04-26T09:04:42.932Z</time></trkpt><trkpt lat="41.4505137" lon="14.1676629"><ele>229.66666666666666</ele><time>2026-04-26T09:04:43.937Z</time></trkpt><trkpt lat="41.450668" lon="14.167463"><ele>229.0</ele><time>2026-04-26T09:04:44.942Z</time></trkpt><trkpt lat="41.4508214" lon="14.1672683"><ele>226.66666666666666</ele><time>2026-04-26T09:04:45.945Z</time></trkpt><trkpt lat="41.4509654" lon="14.1670824"><ele>224.33333333333331</ele><time>2026-04-26T09:04:46.937Z</time></trkpt><trkpt lat="41.4511009" lon="14.1669039"><ele>222.0</ele><time>2026-04-26T09:04:47.931Z</time></trkpt><trkpt lat="41.4512283" lon="14.1667395"><ele>222.0</ele><time>2026-04-26T09:04:48.93Z</time></trkpt><trkpt lat="41.4513295" lon="14.1666099"><ele>222.0</ele><time>2026-04-26T09:04:49.933Z</time></trkpt><trkpt lat="41.4514137" lon="14.166501"><ele>222.0</ele><time>2026-04-26T09:04:50.932Z</time></trkpt><trkpt lat="41.4514894" lon="14.1664084"><ele>222.0</ele><time>2026-04-26T09:04:51.926Z</time></trkpt><trkpt lat="41.4515565" lon="14.1663214"><ele>222.0</ele><time>2026-04-26T09:04:52.936Z</time></trkpt><trkpt lat="41.4516196" lon="14.166241"><ele>222.0</ele><time>2026-04-26T09:04:53.937Z</time></trkpt><trkpt lat="41.4516809" lon="14.1661672"><ele>222.0</ele><time>2026-04-26T09:04:54.933Z</time></trkpt><trkpt lat="41.4517376" lon="14.1660974"><ele>222.0</ele><time>2026-04-26T09:04:55.941Z</time></trkpt><trkpt lat="41.4517928" lon="14.1660291"><ele>222.0</ele><time>2026-04-26T09:04:56.932Z</time></trkpt><trkpt lat="41.4518474" lon="14.1659556"><ele>222.0</ele><time>2026-04-26T09:04:57.948Z</time></trkpt><trkpt lat="41.4519078" lon="14.1658704"><ele>222.0</ele><time>2026-04-26T09:04:58.943Z</time></trkpt><trkpt lat="41.4519764" lon="14.1657757"><ele>222.0</ele><time>2026-04-26T09:04:59.934Z</time></trkpt><trkpt lat="41.4520523" lon="14.165674"><ele>222.0</ele><time>2026-04-26T09:05:00.935Z</time></trkpt><trkpt lat="41.4521342" lon="14.1655633"><ele>222.0</ele><time>2026-04-26T09:05:01.941Z</time></trkpt><trkpt lat="41.4522238" lon="14.1654416"><ele>222.0</ele><time>2026-04-26T09:05:02.938Z</time></trkpt><trkpt lat="41.4523243" lon="14.1653125"><ele>222.0</ele><time>2026-04-26T09:05:03.931Z</time></trkpt><trkpt lat="41.4524349" lon="14.1651708"><ele>222.0</ele><time>2026-04-26T09:05:04.943Z</time></trkpt><trkpt lat="41.4525543" lon="14.1650171"><ele>221.0</ele><time>2026-04-26T09:05:05.948Z</time></trkpt><trkpt lat="41.4526788" lon="14.1648583"><ele>220.0</ele><time>2026-04-26T09:05:06.934Z</time></trkpt><trkpt lat="41.45281" lon="14.1646908"><ele>219.0</ele><time>2026-04-26T09:05:07.932Z</time></trkpt><trkpt lat="41.4529474" lon="14.1645131"><ele>218.66666666666669</ele><time>2026-04-26T09:05:08.941Z</time></trkpt><trkpt lat="41.4530901" lon="14.1643279"><ele>218.33333333333334</ele><time>2026-04-26T09:05:09.934Z</time></trkpt><trkpt lat="41.453237" lon="14.1641389"><ele>218.0</ele><time>2026-04-26T09:05:10.936Z</time></trkpt><trkpt lat="41.4533849" lon="14.1639475"><ele>218.0</ele><time>2026-04-26T09:05:11.939Z</time></trkpt><trkpt lat="41.4535303" lon="14.1637601"><ele>218.0</ele><time>2026-04-26T09:05:12.943Z</time></trkpt><trkpt lat="41.4536702" lon="14.1635796"><ele>218.0</ele><time>2026-04-26T09:05:13.936Z</time></trkpt><trkpt lat="41.4538055" lon="14.163403"><ele>218.0</ele><time>2026-04-26T09:05:14.929Z</time></trkpt><trkpt lat="41.4539376" lon="14.1632319"><ele>218.0</ele><time>2026-04-26T09:05:15.931Z</time></trkpt><trkpt lat="41.4540694" lon="14.1630611"><ele>218.0</ele><time>2026-04-26T09:05:16.947Z</time></trkpt><trkpt lat="41.4542029" lon="14.1628891"><ele>218.0</ele><time>2026-04-26T09:05:17.936Z</time></trkpt><trkpt lat="41.4543368" lon="14.1627168"><ele>218.0</ele><time>2026-04-26T09:05:18.932Z</time></trkpt><trkpt lat="41.4544688" lon="14.1625438"><ele>218.0</ele><time>2026-04-26T09:05:19.937Z</time></trkpt><trkpt lat="41.4545997" lon="14.1623694"><ele>217.66666666666669</ele><time>2026-04-26T09:05:20.937Z</time></trkpt><trkpt lat="41.4547313" lon="14.1621946"><ele>217.33333333333331</ele><time>2026-04-26T09:05:21.946Z</time></trkpt><trkpt lat="41.4548652" lon="14.1620192"><ele>217.0</ele><time>2026-04-26T09:05:22.939Z</time></trkpt><trkpt lat="41.4549998" lon="14.1618422"><ele>217.0</ele><time>2026-04-26T09:05:23.934Z</time></trkpt><trkpt lat="41.4551363" lon="14.1616648"><ele>217.0</ele><time>2026-04-26T09:05:24.95Z</time></trkpt><trkpt lat="41.4552745" lon="14.1614863"><ele>217.0</ele><time>2026-04-26T09:05:25.955Z</time></trkpt><trkpt lat="41.455413" lon="14.1613054"><ele>217.0</ele><time>2026-04-26T09:05:26.941Z</time></trkpt><trkpt lat="41.4555481" lon="14.1611166"><ele>217.0</ele><time>2026-04-26T09:05:27.932Z</time></trkpt><trkpt lat="41.4556771" lon="14.1609185"><ele>217.0</ele><time>2026-04-26T09:05:28.936Z</time></trkpt><trkpt lat="41.4557965" lon="14.1607068"><ele>216.33333333333331</ele><time>2026-04-26T09:05:29.928Z</time></trkpt><trkpt lat="41.455906" lon="14.1604812"><ele>215.66666666666669</ele><time>2026-04-26T09:05:30.932Z</time></trkpt><trkpt lat="41.4560068" lon="14.1602429"><ele>215.0</ele><time>2026-04-26T09:05:31.936Z</time></trkpt><trkpt lat="41.4561" lon="14.1599955"><ele>215.0</ele><time>2026-04-26T09:05:32.934Z</time></trkpt><trkpt lat="41.4561885" lon="14.1597404"><ele>215.0</ele><time>2026-04-26T09:05:33.94Z</time></trkpt><trkpt lat="41.4562772" lon="14.1594787"><ele>215.0</ele><time>2026-04-26T09:05:34.93Z</time></trkpt><trkpt lat="41.4563681" lon="14.1592121"><ele>215.66666666666669</ele><time>2026-04-26T09:05:35.932Z</time></trkpt><trkpt lat="41.4564627" lon="14.1589418"><ele>216.33333333333331</ele><time>2026-04-26T09:05:36.936Z</time></trkpt><trkpt lat="41.4565601" lon="14.1586699"><ele>217.0</ele><time>2026-04-26T09:05:37.928Z</time></trkpt><trkpt lat="41.4566571" lon="14.1583948"><ele>216.0</ele><time>2026-04-26T09:05:38.93Z</time></trkpt><trkpt lat="41.4567563" lon="14.1581189"><ele>215.0</ele><time>2026-04-26T09:05:39.937Z</time></trkpt><trkpt lat="41.4568538" lon="14.1578443"><ele>215.0</ele><time>2026-04-26T09:05:40.934Z</time></trkpt><trkpt lat="41.4569493" lon="14.1575697"><ele>215.0</ele><time>2026-04-26T09:05:41.941Z</time></trkpt><trkpt lat="41.4570443" lon="14.1572974"><ele>215.66666666666669</ele><time>2026-04-26T09:05:42.936Z</time></trkpt><trkpt lat="41.457138" lon="14.1570272"><ele>216.33333333333331</ele><time>2026-04-26T09:05:43.939Z</time></trkpt><trkpt lat="41.4572318" lon="14.1567604"><ele>217.0</ele><time>2026-04-26T09:05:44.936Z</time></trkpt><trkpt lat="41.4573288" lon="14.1564977"><ele>217.0</ele><time>2026-04-26T09:05:45.93Z</time></trkpt><trkpt lat="41.457433" lon="14.1562394"><ele>217.0</ele><time>2026-04-26T09:05:46.932Z</time></trkpt><trkpt lat="41.4575461" lon="14.1559829"><ele>217.0</ele><time>2026-04-26T09:05:47.935Z</time></trkpt><trkpt lat="41.4576656" lon="14.1557263"><ele>215.0</ele><time>2026-04-26T09:05:48.935Z</time></trkpt><trkpt lat="41.4577873" lon="14.1554711"><ele>213.0</ele><time>2026-04-26T09:05:49.933Z</time></trkpt><trkpt lat="41.4579111" lon="14.1552164"><ele>212.5</ele><time>2026-04-26T09:05:50.932Z</time></trkpt><trkpt lat="41.4580381" lon="14.1549607"><ele>212.0</ele><time>2026-04-26T09:05:51.94Z</time></trkpt><trkpt lat="41.4581688" lon="14.1547053"><ele>212.0</ele><time>2026-04-26T09:05:52.929Z</time></trkpt><trkpt lat="41.4583" lon="14.1544495"><ele>212.0</ele><time>2026-04-26T09:05:53.938Z</time></trkpt><trkpt lat="41.458431" lon="14.1541932"><ele>211.5</ele><time>2026-04-26T09:05:54.936Z</time></trkpt><trkpt lat="41.4585605" lon="14.153937"><ele>211.0</ele><time>2026-04-26T09:05:55.931Z</time></trkpt><trkpt lat="41.4586879" lon="14.1536806"><ele>212.5</ele><time>2026-04-26T09:05:56.931Z</time></trkpt><trkpt lat="41.4588146" lon="14.1534259"><ele>214.0</ele><time>2026-04-26T09:05:57.93Z</time></trkpt><trkpt lat="41.4589407" lon="14.1531736"><ele>214.0</ele><time>2026-04-26T09:05:58.938Z</time></trkpt><trkpt lat="41.4590645" lon="14.1529207"><ele>214.0</ele><time>2026-04-26T09:05:59.934Z</time></trkpt><trkpt lat="41.4591833" lon="14.1526645"><ele>214.0</ele><time>2026-04-26T09:06:00.932Z</time></trkpt><trkpt lat="41.459295" lon="14.1524045"><ele>214.0</ele><time>2026-04-26T09:06:01.935Z</time></trkpt><trkpt lat="41.4594032" lon="14.1521435"><ele>214.0</ele><time>2026-04-26T09:06:02.932Z</time></trkpt><trkpt lat="41.4595097" lon="14.1518825"><ele>214.33333333333331</ele><time>2026-04-26T09:06:03.939Z</time></trkpt><trkpt lat="41.459615" lon="14.1516225"><ele>214.66666666666669</ele><time>2026-04-26T09:06:04.929Z</time></trkpt><trkpt lat="41.4597182" lon="14.1513668"><ele>215.0</ele><time>2026-04-26T09:06:05.942Z</time></trkpt><trkpt lat="41.459817" lon="14.1511232"><ele>214.33333333333334</ele><time>2026-04-26T09:06:06.934Z</time></trkpt><trkpt lat="41.4599139" lon="14.1508947"><ele>213.66666666666669</ele><time>2026-04-26T09:06:07.932Z</time></trkpt><trkpt lat="41.4600151" lon="14.1506903"><ele>213.0</ele><time>2026-04-26T09:06:08.934Z</time></trkpt><trkpt lat="41.460125" lon="14.1505154"><ele>213.0</ele><time>2026-04-26T09:06:09.942Z</time></trkpt><trkpt lat="41.4602449" lon="14.1503622"><ele>213.0</ele><time>2026-04-26T09:06:10.932Z</time></trkpt><trkpt lat="41.4603748" lon="14.1502255"><ele>213.0</ele><time>2026-04-26T09:06:11.936Z</time></trkpt><trkpt lat="41.4605166" lon="14.1501015"><ele>212.33333333333331</ele><time>2026-04-26T09:06:12.93Z</time></trkpt><trkpt lat="41.4606731" lon="14.1499817"><ele>211.66666666666666</ele><time>2026-04-26T09:06:13.935Z</time></trkpt><trkpt lat="41.4608451" lon="14.149863"><ele>211.0</ele><time>2026-04-26T09:06:14.943Z</time></trkpt><trkpt lat="41.4610334" lon="14.149749"><ele>211.0</ele><time>2026-04-26T09:06:15.939Z</time></trkpt><trkpt lat="41.4612304" lon="14.1496346"><ele>211.0</ele><time>2026-04-26T09:06:16.932Z</time></trkpt><trkpt lat="41.4614295" lon="14.1495212"><ele>211.0</ele><time>2026-04-26T09:06:17.934Z</time></trkpt><trkpt lat="41.4616257" lon="14.1494131"><ele>214.33333333333331</ele><time>2026-04-26T09:06:18.931Z</time></trkpt><trkpt lat="41.4618161" lon="14.1493091"><ele>217.66666666666669</ele><time>2026-04-26T09:06:19.933Z</time></trkpt><trkpt lat="41.462004" lon="14.1492171"><ele>221.0</ele><time>2026-04-26T09:06:20.937Z</time></trkpt><trkpt lat="41.4621945" lon="14.1491421"><ele>224.33333333333334</ele><time>2026-04-26T09:06:21.944Z</time></trkpt><trkpt lat="41.4623849" lon="14.1490922"><ele>227.66666666666669</ele><time>2026-04-26T09:06:22.93Z</time></trkpt><trkpt lat="41.4625749" lon="14.1490778"><ele>231.0</ele><time>2026-04-26T09:06:23.929Z</time></trkpt><trkpt lat="41.4627606" lon="14.1490976"><ele>231.0</ele><time>2026-04-26T09:06:24.939Z</time></trkpt><trkpt lat="41.4629345" lon="14.1491305"><ele>231.0</ele><time>2026-04-26T09:06:25.936Z</time></trkpt><trkpt lat="41.4630998" lon="14.1491555"><ele>231.0</ele><time>2026-04-26T09:06:26.931Z</time></trkpt><trkpt lat="41.4632543" lon="14.1491554"><ele>230.75</ele><time>2026-04-26T09:06:27.932Z</time></trkpt><trkpt lat="41.4633911" lon="14.1491195"><ele>230.5</ele><time>2026-04-26T09:06:28.93Z</time></trkpt><trkpt lat="41.4634985" lon="14.1490419"><ele>230.25</ele><time>2026-04-26T09:06:29.941Z</time></trkpt><trkpt lat="41.4635689" lon="14.1489304"><ele>230.0</ele><time>2026-04-26T09:06:30.934Z</time></trkpt><trkpt lat="41.4636113" lon="14.1487979"><ele>230.0</ele><time>2026-04-26T09:06:31.951Z</time></trkpt><trkpt lat="41.463637" lon="14.1486584"><ele>230.0</ele><time>2026-04-26T09:06:32.933Z</time></trkpt><trkpt lat="41.4636588" lon="14.148516"><ele>230.0</ele><time>2026-04-26T09:06:33.929Z</time></trkpt><trkpt lat="41.4636901" lon="14.1483795"><ele>230.0</ele><time>2026-04-26T09:06:34.946Z</time></trkpt><trkpt lat="41.4637427" lon="14.1482527"><ele>230.0</ele><time>2026-04-26T09:06:35.936Z</time></trkpt><trkpt lat="41.4638145" lon="14.1481385"><ele>231.2</ele><time>2026-04-26T09:06:36.939Z</time></trkpt><trkpt lat="41.4639027" lon="14.1480437"><ele>232.4</ele><time>2026-04-26T09:06:37.945Z</time></trkpt><trkpt lat="41.4640016" lon="14.1479661"><ele>233.60000000000002</ele><time>2026-04-26T09:06:38.93Z</time></trkpt><trkpt lat="41.4641013" lon="14.1479037"><ele>234.8</ele><time>2026-04-26T09:06:39.934Z</time></trkpt><trkpt lat="41.4641996" lon="14.1478529"><ele>236.0</ele><time>2026-04-26T09:06:40.937Z</time></trkpt><trkpt lat="41.4642997" lon="14.1478112"><ele>236.0</ele><time>2026-04-26T09:06:41.948Z</time></trkpt><trkpt lat="41.4644042" lon="14.1477773"><ele>236.00000000000003</ele><time>2026-04-26T09:06:42.943Z</time></trkpt><trkpt lat="41.4645121" lon="14.1477508"><ele>236.00000000000003</ele><time>2026-04-26T09:06:43.938Z</time></trkpt><trkpt lat="41.4646227" lon="14.1477301"><ele>236.0</ele><time>2026-04-26T09:06:44.938Z</time></trkpt><trkpt lat="41.4647333" lon="14.1477097"><ele>236.0</ele><time>2026-04-26T09:06:45.926Z</time></trkpt><trkpt lat="41.4648409" lon="14.1476863"><ele>236.8</ele><time>2026-04-26T09:06:46.927Z</time></trkpt><trkpt lat="41.4649417" lon="14.1476545"><ele>237.60000000000002</ele><time>2026-04-26T09:06:47.941Z</time></trkpt><trkpt lat="41.4650354" lon="14.147599"><ele>238.4</ele><time>2026-04-26T09:06:48.945Z</time></trkpt><trkpt lat="41.4651182" lon="14.1475122"><ele>239.2</ele><time>2026-04-26T09:06:49.943Z</time></trkpt><trkpt lat="41.4651792" lon="14.1474003"><ele>240.0</ele><time>2026-04-26T09:06:50.939Z</time></trkpt><trkpt lat="41.4652242" lon="14.1472734"><ele>240.0</ele><time>2026-04-26T09:06:51.936Z</time></trkpt><trkpt lat="41.4652584" lon="14.1471279"><ele>240.0</ele><time>2026-04-26T09:06:52.948Z</time></trkpt><trkpt lat="41.4652929" lon="14.1469501"><ele>240.0</ele><time>2026-04-26T09:06:53.929Z</time></trkpt><trkpt lat="41.4653375" lon="14.1467413"><ele>240.0</ele><time>2026-04-26T09:06:54.934Z</time></trkpt><trkpt lat="41.4653906" lon="14.1465317"><ele>243.25</ele><time>2026-04-26T09:06:55.929Z</time></trkpt><trkpt lat="41.4654459" lon="14.1463325"><ele>246.5</ele><time>2026-04-26T09:06:56.929Z</time></trkpt><trkpt lat="41.4655053" lon="14.1461534"><ele>249.75</ele><time>2026-04-26T09:06:57.943Z</time></trkpt><trkpt lat="41.4655704" lon="14.1460017"><ele>253.0</ele><time>2026-04-26T09:06:58.935Z</time></trkpt><trkpt lat="41.465645" lon="14.1458793"><ele>253.0</ele><time>2026-04-26T09:06:59.948Z</time></trkpt><trkpt lat="41.4657331" lon="14.1457822"><ele>253.0</ele><time>2026-04-26T09:07:00.942Z</time></trkpt><trkpt lat="41.4658408" lon="14.145703"><ele>253.0</ele><time>2026-04-26T09:07:01.946Z</time></trkpt><trkpt lat="41.4659641" lon="14.1456433"><ele>253.0</ele><time>2026-04-26T09:07:02.926Z</time></trkpt><trkpt lat="41.4660976" lon="14.145609"><ele>252.25</ele><time>2026-04-26T09:07:03.947Z</time></trkpt><trkpt lat="41.4662283" lon="14.1455959"><ele>251.5</ele><time>2026-04-26T09:07:04.935Z</time></trkpt><trkpt lat="41.4663462" lon="14.1455941"><ele>250.75</ele><time>2026-04-26T09:07:05.934Z</time></trkpt><trkpt lat="41.4664531" lon="14.1455966"><ele>250.0</ele><time>2026-04-26T09:07:06.936Z</time></trkpt><trkpt lat="41.4665517" lon="14.1456009"><ele>249.99999999999997</ele><time>2026-04-26T09:07:07.947Z</time></trkpt><trkpt lat="41.4666438" lon="14.145608"><ele>250.0</ele><time>2026-04-26T09:07:08.933Z</time></trkpt><trkpt lat="41.466729" lon="14.1456178"><ele>250.0</ele><time>2026-04-26T09:07:09.942Z</time></trkpt><trkpt lat="41.4668067" lon="14.1456274"><ele>250.0</ele><time>2026-04-26T09:07:10.94Z</time></trkpt><trkpt lat="41.466879" lon="14.1456321"><ele>249.99999999999997</ele><time>2026-04-26T09:07:11.931Z</time></trkpt><trkpt lat="41.4669465" lon="14.1456356"><ele>250.0</ele><time>2026-04-26T09:07:12.943Z</time></trkpt><trkpt lat="41.4670161" lon="14.1456387"><ele>249.99999999999997</ele><time>2026-04-26T09:07:13.936Z</time></trkpt><trkpt lat="41.4670896" lon="14.1456298"><ele>250.0</ele><time>2026-04-26T09:07:14.928Z</time></trkpt><trkpt lat="41.4671618" lon="14.1456098"><ele>250.0</ele><time>2026-04-26T09:07:15.933Z</time></trkpt><trkpt lat="41.467227" lon="14.1455812"><ele>250.0</ele><time>2026-04-26T09:07:16.937Z</time></trkpt><trkpt lat="41.4673305" lon="14.1455201"><ele>249.99999999999997</ele><time>2026-04-26T09:07:18.938Z</time></trkpt><trkpt lat="41.4673976" lon="14.1454741"><ele>250.0</ele><time>2026-04-26T09:07:20.94Z</time></trkpt><trkpt lat="41.4674778" lon="14.1454446"><ele>251.6</ele><time>2026-04-26T09:07:23.954Z</time></trkpt><trkpt lat="41.4675747" lon="14.1454156"><ele>253.2</ele><time>2026-04-26T09:07:26.943Z</time></trkpt><trkpt lat="41.4676517" lon="14.1453405"><ele>254.8</ele><time>2026-04-26T09:07:28.958Z</time></trkpt><trkpt lat="41.4677303" lon="14.1452361"><ele>256.4</ele><time>2026-04-26T09:07:30.944Z</time></trkpt><trkpt lat="41.4678188" lon="14.1451216"><ele>258.0</ele><time>2026-04-26T09:07:32.945Z</time></trkpt><trkpt lat="41.4678637" lon="14.1450594"><ele>258.0</ele><time>2026-04-26T09:07:33.932Z</time></trkpt><trkpt lat="41.4679135" lon="14.1449923"><ele>258.0</ele><time>2026-04-26T09:07:34.943Z</time></trkpt><trkpt lat="41.4679686" lon="14.1449174"><ele>258.0</ele><time>2026-04-26T09:07:35.94Z</time></trkpt><trkpt lat="41.4680272" lon="14.1448381"><ele>258.0</ele><time>2026-04-26T09:07:36.934Z</time></trkpt><trkpt lat="41.4680858" lon="14.1447543"><ele>258.0</ele><time>2026-04-26T09:07:37.944Z</time></trkpt><trkpt lat="41.468147" lon="14.1446661"><ele>258.0</ele><time>2026-04-26T09:07:38.945Z</time></trkpt><trkpt lat="41.4682084" lon="14.144575"><ele>259.1666666666667</ele><time>2026-04-26T09:07:39.941Z</time></trkpt><trkpt lat="41.4682685" lon="14.1444867"><ele>260.3333333333333</ele><time>2026-04-26T09:07:40.935Z</time></trkpt><trkpt lat="41.4683304" lon="14.1444048"><ele>261.5</ele><time>2026-04-26T09:07:41.93Z</time></trkpt><trkpt lat="41.4683952" lon="14.1443386"><ele>262.66666666666663</ele><time>2026-04-26T09:07:42.939Z</time></trkpt><trkpt lat="41.468465" lon="14.1442923"><ele>263.8333333333333</ele><time>2026-04-26T09:07:43.939Z</time></trkpt><trkpt lat="41.4685396" lon="14.144271"><ele>265.0</ele><time>2026-04-26T09:07:44.936Z</time></trkpt><trkpt lat="41.4686178" lon="14.1442753"><ele>265.0</ele><time>2026-04-26T09:07:45.939Z</time></trkpt><trkpt lat="41.4686946" lon="14.1443029"><ele>265.0</ele><time>2026-04-26T09:07:46.948Z</time></trkpt><trkpt lat="41.4687634" lon="14.1443509"><ele>265.0</ele><time>2026-04-26T09:07:47.943Z</time></trkpt><trkpt lat="41.4688296" lon="14.1444162"><ele>265.0</ele><time>2026-04-26T09:07:48.945Z</time></trkpt><trkpt lat="41.4688912" lon="14.1444921"><ele>265.0</ele><time>2026-04-26T09:07:49.948Z</time></trkpt><trkpt lat="41.4689488" lon="14.1445688"><ele>265.0</ele><time>2026-04-26T09:07:50.929Z</time></trkpt><trkpt lat="41.4690003" lon="14.1446381"><ele>266.0</ele><time>2026-04-26T09:07:51.939Z</time></trkpt><trkpt lat="41.4690512" lon="14.1447589"><ele>267.0</ele><time>2026-04-26T09:07:53.947Z</time></trkpt><trkpt lat="41.4690341" lon="14.144858"><ele>268.0</ele><time>2026-04-26T09:07:55.949Z</time></trkpt><trkpt lat="41.4689933" lon="14.1449615"><ele>269.0</ele><time>2026-04-26T09:07:57.967Z</time></trkpt><trkpt lat="41.4689632" lon="14.1450521"><ele>270.0</ele><time>2026-04-26T09:07:59.933Z</time></trkpt><trkpt lat="41.4689295" lon="14.1451388"><ele>271.0</ele><time>2026-04-26T09:08:01.943Z</time></trkpt><trkpt lat="41.4688915" lon="14.1452486"><ele>271.0</ele><time>2026-04-26T09:08:03.934Z</time></trkpt><trkpt lat="41.4688476" lon="14.1453667"><ele>271.0</ele><time>2026-04-26T09:08:05.935Z</time></trkpt><trkpt lat="41.4688" lon="14.1454911"><ele>271.0</ele><time>2026-04-26T09:08:07.939Z</time></trkpt><trkpt lat="41.4687657" lon="14.1456086"><ele>271.0</ele><time>2026-04-26T09:08:09.938Z</time></trkpt><trkpt lat="41.4687381" lon="14.1457009"><ele>271.0</ele><time>2026-04-26T09:08:11.94Z</time></trkpt><trkpt lat="41.4687027" lon="14.1457918"><ele>271.0</ele><time>2026-04-26T09:08:13.93Z</time></trkpt><trkpt lat="41.4686566" lon="14.1458887"><ele>272.7142857142857</ele><time>2026-04-26T09:08:15.937Z</time></trkpt><trkpt lat="41.4685999" lon="14.1459835"><ele>274.42857142857144</ele><time>2026-04-26T09:08:17.935Z</time></trkpt><trkpt lat="41.4685437" lon="14.1460453"><ele>276.14285714285717</ele><time>2026-04-26T09:08:19.941Z</time></trkpt><trkpt lat="41.4684829" lon="14.1461079"><ele>277.8571428571429</ele><time>2026-04-26T09:08:22.94Z</time></trkpt><trkpt lat="41.4684439" lon="14.1461819"><ele>279.5714285714286</ele><time>2026-04-26T09:08:25.937Z</time></trkpt><trkpt lat="41.4683982" lon="14.1462421"><ele>281.2857142857143</ele><time>2026-04-26T09:08:28.93Z</time></trkpt><trkpt lat="41.4684701" lon="14.1462202"><ele>283.0</ele><time>2026-04-26T09:08:33.937Z</time></trkpt><trkpt lat="41.4685322" lon="14.1461036"><ele>283.0</ele><time>2026-04-26T09:08:35.939Z</time></trkpt><trkpt lat="41.4686074" lon="14.1459772"><ele>283.0</ele><time>2026-04-26T09:08:37.937Z</time></trkpt><trkpt lat="41.4686758" lon="14.1458402"><ele>283.0</ele><time>2026-04-26T09:08:39.933Z</time></trkpt><trkpt lat="41.4687099" lon="14.1457623"><ele>283.0</ele><time>2026-04-26T09:08:40.937Z</time></trkpt><trkpt lat="41.4687419" lon="14.1456764"><ele>283.0</ele><time>2026-04-26T09:08:41.938Z</time></trkpt><trkpt lat="41.4687753" lon="14.1455865"><ele>282.5</ele><time>2026-04-26T09:08:42.936Z</time></trkpt><trkpt lat="41.4688099" lon="14.145495"><ele>282.0</ele><time>2026-04-26T09:08:43.941Z</time></trkpt><trkpt lat="41.4688524" lon="14.1454042"><ele>281.5</ele><time>2026-04-26T09:08:44.944Z</time></trkpt><trkpt lat="41.4688983" lon="14.1453074"><ele>281.0</ele><time>2026-04-26T09:08:45.938Z</time></trkpt><trkpt lat="41.4689409" lon="14.1452149"><ele>280.5</ele><time>2026-04-26T09:08:46.941Z</time></trkpt><trkpt lat="41.4689816" lon="14.1451186"><ele>280.0</ele><time>2026-04-26T09:08:47.927Z</time></trkpt><trkpt lat="41.4690151" lon="14.1450204"><ele>280.0</ele><time>2026-04-26T09:08:48.948Z</time></trkpt><trkpt lat="41.4690525" lon="14.1449273"><ele>280.0</ele><time>2026-04-26T09:08:49.928Z</time></trkpt><trkpt lat="41.4690971" lon="14.1448421"><ele>280.0</ele><time>2026-04-26T09:08:50.935Z</time></trkpt><trkpt lat="41.4691448" lon="14.1447622"><ele>280.0</ele><time>2026-04-26T09:08:51.94Z</time></trkpt><trkpt lat="41.4691969" lon="14.1446784"><ele>280.0</ele><time>2026-04-26T09:08:52.936Z</time></trkpt><trkpt lat="41.4692611" lon="14.1445911"><ele>280.0</ele><time>2026-04-26T09:08:53.932Z</time></trkpt><trkpt lat="41.4693333" lon="14.1445033"><ele>279.2</ele><time>2026-04-26T09:08:54.95Z</time></trkpt><trkpt lat="41.46941" lon="14.1444247"><ele>278.4</ele><time>2026-04-26T09:08:55.94Z</time></trkpt><trkpt lat="41.4694879" lon="14.1443428"><ele>277.6</ele><time>2026-04-26T09:08:56.936Z</time></trkpt><trkpt lat="41.4695593" lon="14.1442598"><ele>276.8</ele><time>2026-04-26T09:08:57.938Z</time></trkpt><trkpt lat="41.4696235" lon="14.1441763"><ele>276.0</ele><time>2026-04-26T09:08:58.95Z</time></trkpt><trkpt lat="41.4696777" lon="14.1440867"><ele>274.8</ele><time>2026-04-26T09:08:59.941Z</time></trkpt><trkpt lat="41.469718" lon="14.1439875"><ele>273.6</ele><time>2026-04-26T09:09:00.943Z</time></trkpt><trkpt lat="41.4697467" lon="14.1438755"><ele>272.4</ele><time>2026-04-26T09:09:01.929Z</time></trkpt><trkpt lat="41.4697631" lon="14.1437502"><ele>271.2</ele><time>2026-04-26T09:09:02.944Z</time></trkpt><trkpt lat="41.4697761" lon="14.1436145"><ele>270.0</ele><time>2026-04-26T09:09:03.938Z</time></trkpt><trkpt lat="41.4697873" lon="14.1434707"><ele>270.0</ele><time>2026-04-26T09:09:04.935Z</time></trkpt><trkpt lat="41.4698014" lon="14.1433231"><ele>270.0</ele><time>2026-04-26T09:09:05.939Z</time></trkpt><trkpt lat="41.4698161" lon="14.1431777"><ele>270.0</ele><time>2026-04-26T09:09:06.931Z</time></trkpt><trkpt lat="41.4698295" lon="14.1430388"><ele>270.0</ele><time>2026-04-26T09:09:07.937Z</time></trkpt><trkpt lat="41.4698431" lon="14.1429146"><ele>270.0</ele><time>2026-04-26T09:09:08.936Z</time></trkpt><trkpt lat="41.4698502" lon="14.1428056"><ele>268.4</ele><time>2026-04-26T09:09:09.935Z</time></trkpt><trkpt lat="41.4698452" lon="14.1427167"><ele>266.8</ele><time>2026-04-26T09:09:10.939Z</time></trkpt><trkpt lat="41.4697762" lon="14.1426059"><ele>265.2</ele><time>2026-04-26T09:09:12.941Z</time></trkpt><trkpt lat="41.4696551" lon="14.1425723"><ele>263.6</ele><time>2026-04-26T09:09:14.927Z</time></trkpt><trkpt lat="41.4695789" lon="14.1425612"><ele>262.0</ele><time>2026-04-26T09:09:15.941Z</time></trkpt><trkpt lat="41.4694962" lon="14.142538"><ele>261.0</ele><time>2026-04-26T09:09:16.931Z</time></trkpt><trkpt lat="41.4694087" lon="14.1425063"><ele>260.0</ele><time>2026-04-26T09:09:17.928Z</time></trkpt><trkpt lat="41.4693184" lon="14.1424817"><ele>259.0</ele><time>2026-04-26T09:09:18.935Z</time></trkpt><trkpt lat="41.4692294" lon="14.1424768"><ele>258.0</ele><time>2026-04-26T09:09:19.934Z</time></trkpt><trkpt lat="41.4691434" lon="14.1424945"><ele>257.0</ele><time>2026-04-26T09:09:20.94Z</time></trkpt><trkpt lat="41.4690621" lon="14.1425322"><ele>256.0</ele><time>2026-04-26T09:09:21.936Z</time></trkpt><trkpt lat="41.4689986" lon="14.1425796"><ele>256.0</ele><time>2026-04-26T09:09:22.932Z</time></trkpt><trkpt lat="41.4689022" lon="14.1426812"><ele>256.0</ele><time>2026-04-26T09:09:24.98Z</time></trkpt><trkpt lat="41.468851" lon="14.1427435"><ele>256.0</ele><time>2026-04-26T09:09:25.945Z</time></trkpt><trkpt lat="41.468804" lon="14.1428328"><ele>256.0</ele><time>2026-04-26T09:09:26.938Z</time></trkpt><trkpt lat="41.468751" lon="14.1429292"><ele>256.0</ele><time>2026-04-26T09:09:27.946Z</time></trkpt><trkpt lat="41.4686922" lon="14.1430297"><ele>255.60000000000002</ele><time>2026-04-26T09:09:28.937Z</time></trkpt><trkpt lat="41.468631" lon="14.1431373"><ele>255.20000000000002</ele><time>2026-04-26T09:09:29.936Z</time></trkpt><trkpt lat="41.4685695" lon="14.1432482"><ele>254.79999999999998</ele><time>2026-04-26T09:09:30.942Z</time></trkpt><trkpt lat="41.4685055" lon="14.1433688"><ele>254.39999999999998</ele><time>2026-04-26T09:09:31.94Z</time></trkpt><trkpt lat="41.4684386" lon="14.1434903"><ele>254.0</ele><time>2026-04-26T09:09:32.938Z</time></trkpt><trkpt lat="41.4683702" lon="14.1436154"><ele>254.0</ele><time>2026-04-26T09:09:33.936Z</time></trkpt><trkpt lat="41.4683017" lon="14.1437355"><ele>253.99999999999997</ele><time>2026-04-26T09:09:34.928Z</time></trkpt><trkpt lat="41.4682343" lon="14.1438567"><ele>253.99999999999997</ele><time>2026-04-26T09:09:35.934Z</time></trkpt><trkpt lat="41.4681676" lon="14.1439763"><ele>254.0</ele><time>2026-04-26T09:09:36.938Z</time></trkpt><trkpt lat="41.4681065" lon="14.1440984"><ele>254.0</ele><time>2026-04-26T09:09:37.941Z</time></trkpt><trkpt lat="41.4680515" lon="14.1442127"><ele>253.33333333333334</ele><time>2026-04-26T09:09:38.932Z</time></trkpt><trkpt lat="41.4680017" lon="14.1443192"><ele>252.66666666666669</ele><time>2026-04-26T09:09:39.935Z</time></trkpt><trkpt lat="41.467955" lon="14.1444173"><ele>252.0</ele><time>2026-04-26T09:09:40.935Z</time></trkpt><trkpt lat="41.4679131" lon="14.1445133"><ele>251.33333333333331</ele><time>2026-04-26T09:09:41.941Z</time></trkpt><trkpt lat="41.467877" lon="14.1446007"><ele>250.66666666666666</ele><time>2026-04-26T09:09:42.94Z</time></trkpt><trkpt lat="41.4678414" lon="14.1446839"><ele>250.0</ele><time>2026-04-26T09:09:43.943Z</time></trkpt><trkpt lat="41.4677725" lon="14.1448477"><ele>251.33333333333331</ele><time>2026-04-26T09:09:45.928Z</time></trkpt><trkpt lat="41.4677402" lon="14.1449229"><ele>252.66666666666666</ele><time>2026-04-26T09:09:46.959Z</time></trkpt><trkpt lat="41.4676864" lon="14.1450376"><ele>254.0</ele><time>2026-04-26T09:09:48.941Z</time></trkpt><trkpt lat="41.4676438" lon="14.1451329"><ele>255.33333333333331</ele><time>2026-04-26T09:09:50.947Z</time></trkpt><trkpt lat="41.4675752" lon="14.145167"><ele>256.6666666666667</ele><time>2026-04-26T09:09:53.952Z</time></trkpt><trkpt lat="41.4675903" lon="14.1450365"><ele>258.0</ele><time>2026-04-26T09:09:56.937Z</time></trkpt><trkpt lat="41.4676346" lon="14.1448885"><ele>256.6666666666667</ele><time>2026-04-26T09:09:58.941Z</time></trkpt><trkpt lat="41.467657" lon="14.1448013"><ele>255.33333333333331</ele><time>2026-04-26T09:09:59.945Z</time></trkpt><trkpt lat="41.4676742" lon="14.1447016"><ele>254.0</ele><time>2026-04-26T09:10:00.951Z</time></trkpt><trkpt lat="41.4676922" lon="14.1445925"><ele>252.66666666666666</ele><time>2026-04-26T09:10:01.933Z</time></trkpt><trkpt lat="41.467715" lon="14.1444779"><ele>251.33333333333331</ele><time>2026-04-26T09:10:02.949Z</time></trkpt><trkpt lat="41.4677418" lon="14.1443557"><ele>250.0</ele><time>2026-04-26T09:10:03.939Z</time></trkpt><trkpt lat="41.4677679" lon="14.1442287"><ele>250.0</ele><time>2026-04-26T09:10:04.938Z</time></trkpt><trkpt lat="41.467794" lon="14.1440949"><ele>250.0</ele><time>2026-04-26T09:10:05.932Z</time></trkpt><trkpt lat="41.4678227" lon="14.1439554"><ele>250.0</ele><time>2026-04-26T09:10:06.932Z</time></trkpt><trkpt lat="41.4678592" lon="14.1438127"><ele>250.0</ele><time>2026-04-26T09:10:07.941Z</time></trkpt><trkpt lat="41.4679105" lon="14.1436733"><ele>250.0</ele><time>2026-04-26T09:10:08.929Z</time></trkpt><trkpt lat="41.4679758" lon="14.143539"><ele>251.0</ele><time>2026-04-26T09:10:09.938Z</time></trkpt><trkpt lat="41.4680468" lon="14.1434064"><ele>252.0</ele><time>2026-04-26T09:10:10.925Z</time></trkpt><trkpt lat="41.4681183" lon="14.1432745"><ele>253.0</ele><time>2026-04-26T09:10:11.946Z</time></trkpt><trkpt lat="41.4681896" lon="14.1431495"><ele>254.0</ele><time>2026-04-26T09:10:12.945Z</time></trkpt><trkpt lat="41.4682603" lon="14.1430366"><ele>252.39999999999998</ele><time>2026-04-26T09:10:13.946Z</time></trkpt><trkpt lat="41.4683314" lon="14.1429338"><ele>250.79999999999998</ele><time>2026-04-26T09:10:14.936Z</time></trkpt><trkpt lat="41.4683975" lon="14.1428327"><ele>249.20000000000002</ele><time>2026-04-26T09:10:15.934Z</time></trkpt><trkpt lat="41.4684572" lon="14.1427198"><ele>247.60000000000002</ele><time>2026-04-26T09:10:16.934Z</time></trkpt><trkpt lat="41.4685027" lon="14.1425889"><ele>246.0</ele><time>2026-04-26T09:10:17.935Z</time></trkpt><trkpt lat="41.4685302" lon="14.1424399"><ele>243.5</ele><time>2026-04-26T09:10:18.94Z</time></trkpt><trkpt lat="41.4685372" lon="14.1422802"><ele>241.0</ele><time>2026-04-26T09:10:19.95Z</time></trkpt><trkpt lat="41.4685284" lon="14.1421185"><ele>238.5</ele><time>2026-04-26T09:10:20.952Z</time></trkpt><trkpt lat="41.4685143" lon="14.1419547"><ele>236.0</ele><time>2026-04-26T09:10:21.941Z</time></trkpt><trkpt lat="41.4685023" lon="14.1417909"><ele>236.0</ele><time>2026-04-26T09:10:22.943Z</time></trkpt><trkpt lat="41.4685123" lon="14.1416232"><ele>236.00000000000003</ele><time>2026-04-26T09:10:23.933Z</time></trkpt><trkpt lat="41.4685399" lon="14.141469"><ele>236.00000000000003</ele><time>2026-04-26T09:10:24.944Z</time></trkpt><trkpt lat="41.4685838" lon="14.1413448"><ele>236.0</ele><time>2026-04-26T09:10:25.926Z</time></trkpt><trkpt lat="41.4686439" lon="14.1412625"><ele>236.0</ele><time>2026-04-26T09:10:26.944Z</time></trkpt><trkpt lat="41.4687221" lon="14.1412199"><ele>235.20000000000002</ele><time>2026-04-26T09:10:27.939Z</time></trkpt><trkpt lat="41.4688125" lon="14.1412132"><ele>234.40000000000003</ele><time>2026-04-26T09:10:28.949Z</time></trkpt><trkpt lat="41.4689102" lon="14.1412274"><ele>233.6</ele><time>2026-04-26T09:10:29.928Z</time></trkpt><trkpt lat="41.469014" lon="14.1412339"><ele>232.8</ele><time>2026-04-26T09:10:30.946Z</time></trkpt><trkpt lat="41.4691224" lon="14.1412077"><ele>232.0</ele><time>2026-04-26T09:10:31.954Z</time></trkpt><trkpt lat="41.4692226" lon="14.1411346"><ele>232.0</ele><time>2026-04-26T09:10:32.935Z</time></trkpt><trkpt lat="41.4693187" lon="14.1410235"><ele>232.0</ele><time>2026-04-26T09:10:33.931Z</time></trkpt><trkpt lat="41.4694148" lon="14.140893"><ele>232.0</ele><time>2026-04-26T09:10:34.945Z</time></trkpt><trkpt lat="41.4695133" lon="14.1407539"><ele>232.0</ele><time>2026-04-26T09:10:35.957Z</time></trkpt><trkpt lat="41.4696168" lon="14.1406136"><ele>231.25</ele><time>2026-04-26T09:10:36.943Z</time></trkpt><trkpt lat="41.4697233" lon="14.1404706"><ele>230.5</ele><time>2026-04-26T09:10:37.968Z</time></trkpt><trkpt lat="41.4698265" lon="14.1403317"><ele>229.75</ele><time>2026-04-26T09:10:38.934Z</time></trkpt><trkpt lat="41.4699193" lon="14.1401915"><ele>229.0</ele><time>2026-04-26T09:10:39.939Z</time></trkpt><trkpt lat="41.4699987" lon="14.1400457"><ele>229.0</ele><time>2026-04-26T09:10:40.941Z</time></trkpt><trkpt lat="41.4700598" lon="14.1398941"><ele>229.0</ele><time>2026-04-26T09:10:41.942Z</time></trkpt><trkpt lat="41.4701013" lon="14.1397393"><ele>229.0</ele><time>2026-04-26T09:10:42.937Z</time></trkpt><trkpt lat="41.4701309" lon="14.1395883"><ele>229.0</ele><time>2026-04-26T09:10:43.943Z</time></trkpt><trkpt lat="41.4701539" lon="14.1394399"><ele>227.79999999999998</ele><time>2026-04-26T09:10:44.939Z</time></trkpt><trkpt lat="41.4701781" lon="14.139297"><ele>226.59999999999997</ele><time>2026-04-26T09:10:45.939Z</time></trkpt><trkpt lat="41.4702035" lon="14.139157"><ele>225.4</ele><time>2026-04-26T09:10:46.938Z</time></trkpt><trkpt lat="41.4702308" lon="14.1390212"><ele>224.2</ele><time>2026-04-26T09:10:47.939Z</time></trkpt><trkpt lat="41.4702586" lon="14.1388878"><ele>223.0</ele><time>2026-04-26T09:10:48.937Z</time></trkpt><trkpt lat="41.470288" lon="14.138757"><ele>221.8</ele><time>2026-04-26T09:10:49.933Z</time></trkpt><trkpt lat="41.4703176" lon="14.1386289"><ele>220.60000000000002</ele><time>2026-04-26T09:10:50.963Z</time></trkpt><trkpt lat="41.4703479" lon="14.1385018"><ele>219.39999999999998</ele><time>2026-04-26T09:10:51.933Z</time></trkpt><trkpt lat="41.470377" lon="14.1383744"><ele>218.2</ele><time>2026-04-26T09:10:52.93Z</time></trkpt><trkpt lat="41.4704027" lon="14.1382471"><ele>217.0</ele><time>2026-04-26T09:10:53.936Z</time></trkpt><trkpt lat="41.4704297" lon="14.1381185"><ele>217.0</ele><time>2026-04-26T09:10:54.946Z</time></trkpt><trkpt lat="41.4704612" lon="14.137979"><ele>217.0</ele><time>2026-04-26T09:10:55.931Z</time></trkpt><trkpt lat="41.4704978" lon="14.1378181"><ele>217.0</ele><time>2026-04-26T09:10:56.936Z</time></trkpt><trkpt lat="41.4705369" lon="14.1376383"><ele>217.0</ele><time>2026-04-26T09:10:57.945Z</time></trkpt><trkpt lat="41.4705747" lon="14.1374484"><ele>215.75</ele><time>2026-04-26T09:10:58.937Z</time></trkpt><trkpt lat="41.4706016" lon="14.137261"><ele>214.5</ele><time>2026-04-26T09:10:59.945Z</time></trkpt><trkpt lat="41.4706007" lon="14.1370908"><ele>213.25</ele><time>2026-04-26T09:11:00.935Z</time></trkpt><trkpt lat="41.4705636" lon="14.1369414"><ele>212.0</ele><time>2026-04-26T09:11:01.936Z</time></trkpt><trkpt lat="41.4704872" lon="14.1368078"><ele>211.25</ele><time>2026-04-26T09:11:02.937Z</time></trkpt><trkpt lat="41.4703876" lon="14.1366811"><ele>210.5</ele><time>2026-04-26T09:11:03.947Z</time></trkpt><trkpt lat="41.470275" lon="14.1365522"><ele>209.75</ele><time>2026-04-26T09:11:04.939Z</time></trkpt><trkpt lat="41.4701567" lon="14.136416"><ele>209.0</ele><time>2026-04-26T09:11:05.93Z</time></trkpt><trkpt lat="41.4700362" lon="14.1362778"><ele>207.0</ele><time>2026-04-26T09:11:06.945Z</time></trkpt><trkpt lat="41.4699125" lon="14.1361318"><ele>205.0</ele><time>2026-04-26T09:11:07.94Z</time></trkpt><trkpt lat="41.4697918" lon="14.1359951"><ele>203.0</ele><time>2026-04-26T09:11:08.941Z</time></trkpt><trkpt lat="41.4696738" lon="14.1358625"><ele>202.0</ele><time>2026-04-26T09:11:09.952Z</time></trkpt><trkpt lat="41.4695681" lon="14.1357406"><ele>201.0</ele><time>2026-04-26T09:11:10.941Z</time></trkpt><trkpt lat="41.4694713" lon="14.1356294"><ele>200.0</ele><time>2026-04-26T09:11:11.936Z</time></trkpt><trkpt lat="41.469377" lon="14.1355239"><ele>199.0</ele><time>2026-04-26T09:11:12.934Z</time></trkpt><trkpt lat="41.4692915" lon="14.1354214"><ele>198.39999999999998</ele><time>2026-04-26T09:11:13.935Z</time></trkpt><trkpt lat="41.4692102" lon="14.1353184"><ele>197.8</ele><time>2026-04-26T09:11:14.936Z</time></trkpt><trkpt lat="41.4691293" lon="14.135226"><ele>197.2</ele><time>2026-04-26T09:11:15.944Z</time></trkpt><trkpt lat="41.4690455" lon="14.1351422"><ele>196.60000000000002</ele><time>2026-04-26T09:11:16.94Z</time></trkpt><trkpt lat="41.4689545" lon="14.1350769"><ele>196.0</ele><time>2026-04-26T09:11:17.94Z</time></trkpt><trkpt lat="41.4688644" lon="14.1350378"><ele>195.99999999999997</ele><time>2026-04-26T09:11:18.936Z</time></trkpt><trkpt lat="41.4687802" lon="14.1350347"><ele>196.0</ele><time>2026-04-26T09:11:19.939Z</time></trkpt><trkpt lat="41.4686892" lon="14.1350482"><ele>196.0</ele><time>2026-04-26T09:11:20.943Z</time></trkpt><trkpt lat="41.4686003" lon="14.1350571"><ele>196.0</ele><time>2026-04-26T09:11:21.937Z</time></trkpt><trkpt lat="41.4685176" lon="14.1350655"><ele>195.99999999999997</ele><time>2026-04-26T09:11:22.948Z</time></trkpt><trkpt lat="41.4684312" lon="14.135081"><ele>196.0</ele><time>2026-04-26T09:11:23.947Z</time></trkpt><trkpt lat="41.468336" lon="14.1350816"><ele>195.75</ele><time>2026-04-26T09:11:24.935Z</time></trkpt><trkpt lat="41.4682323" lon="14.1350509"><ele>195.5</ele><time>2026-04-26T09:11:25.934Z</time></trkpt><trkpt lat="41.4681236" lon="14.1349807"><ele>195.25</ele><time>2026-04-26T09:11:26.943Z</time></trkpt><trkpt lat="41.4680086" lon="14.13488"><ele>195.0</ele><time>2026-04-26T09:11:27.948Z</time></trkpt><trkpt lat="41.4678815" lon="14.1347673"><ele>194.0</ele><time>2026-04-26T09:11:28.937Z</time></trkpt><trkpt lat="41.4677475" lon="14.1346465"><ele>193.0</ele><time>2026-04-26T09:11:29.946Z</time></trkpt><trkpt lat="41.4676114" lon="14.1345189"><ele>192.0</ele><time>2026-04-26T09:11:30.937Z</time></trkpt><trkpt lat="41.4674767" lon="14.1343905"><ele>192.0</ele><time>2026-04-26T09:11:31.945Z</time></trkpt><trkpt lat="41.4673517" lon="14.134264"><ele>192.0</ele><time>2026-04-26T09:11:32.939Z</time></trkpt><trkpt lat="41.4672491" lon="14.1341267"><ele>192.0</ele><time>2026-04-26T09:11:33.956Z</time></trkpt><trkpt lat="41.4671792" lon="14.1339792"><ele>192.0</ele><time>2026-04-26T09:11:34.951Z</time></trkpt><trkpt lat="41.4671372" lon="14.1338133"><ele>191.5</ele><time>2026-04-26T09:11:35.938Z</time></trkpt><trkpt lat="41.4671122" lon="14.1336284"><ele>191.0</ele><time>2026-04-26T09:11:36.931Z</time></trkpt><trkpt lat="41.4670943" lon="14.1334312"><ele>190.5</ele><time>2026-04-26T09:11:37.949Z</time></trkpt><trkpt lat="41.4670736" lon="14.1332298"><ele>190.0</ele><time>2026-04-26T09:11:38.938Z</time></trkpt><trkpt lat="41.4670393" lon="14.1330262"><ele>189.33333333333334</ele><time>2026-04-26T09:11:39.93Z</time></trkpt><trkpt lat="41.4669932" lon="14.1328208"><ele>188.66666666666666</ele><time>2026-04-26T09:11:40.943Z</time></trkpt><trkpt lat="41.4669383" lon="14.1326143"><ele>188.0</ele><time>2026-04-26T09:11:41.939Z</time></trkpt><trkpt lat="41.466878" lon="14.1324092"><ele>188.33333333333331</ele><time>2026-04-26T09:11:42.935Z</time></trkpt><trkpt lat="41.4668119" lon="14.1322065"><ele>188.66666666666666</ele><time>2026-04-26T09:11:43.944Z</time></trkpt><trkpt lat="41.4667392" lon="14.1320077"><ele>189.0</ele><time>2026-04-26T09:11:44.946Z</time></trkpt><trkpt lat="41.4666631" lon="14.1318093"><ele>189.0</ele><time>2026-04-26T09:11:45.933Z</time></trkpt><trkpt lat="41.4665867" lon="14.1316118"><ele>189.0</ele><time>2026-04-26T09:11:46.934Z</time></trkpt><trkpt lat="41.4665065" lon="14.1314175"><ele>189.0</ele><time>2026-04-26T09:11:47.927Z</time></trkpt><trkpt lat="41.4664159" lon="14.1312343"><ele>188.66666666666666</ele><time>2026-04-26T09:11:48.943Z</time></trkpt><trkpt lat="41.4663114" lon="14.1310631"><ele>188.33333333333331</ele><time>2026-04-26T09:11:49.928Z</time></trkpt><trkpt lat="41.4661943" lon="14.1309045"><ele>188.0</ele><time>2026-04-26T09:11:50.932Z</time></trkpt><trkpt lat="41.4660706" lon="14.1307538"><ele>188.66666666666666</ele><time>2026-04-26T09:11:51.939Z</time></trkpt><trkpt lat="41.4659452" lon="14.1306049"><ele>189.33333333333334</ele><time>2026-04-26T09:11:52.934Z</time></trkpt><trkpt lat="41.4658188" lon="14.130455"><ele>190.0</ele><time>2026-04-26T09:11:53.934Z</time></trkpt><trkpt lat="41.4656906" lon="14.1303069"><ele>190.0</ele><time>2026-04-26T09:11:54.934Z</time></trkpt><trkpt lat="41.4655657" lon="14.1301578"><ele>190.0</ele><time>2026-04-26T09:11:55.934Z</time></trkpt><trkpt lat="41.4654497" lon="14.1300028"><ele>190.0</ele><time>2026-04-26T09:11:56.941Z</time></trkpt><trkpt lat="41.4653496" lon="14.129839"><ele>195.0</ele><time>2026-04-26T09:11:57.934Z</time></trkpt><trkpt lat="41.4652703" lon="14.1296661"><ele>200.0</ele><time>2026-04-26T09:11:58.93Z</time></trkpt><trkpt lat="41.4652208" lon="14.1294848"><ele>205.0</ele><time>2026-04-26T09:11:59.938Z</time></trkpt><trkpt lat="41.4652076" lon="14.1293002"><ele>210.0</ele><time>2026-04-26T09:12:00.936Z</time></trkpt><trkpt lat="41.4652302" lon="14.1291143"><ele>215.33333333333331</ele><time>2026-04-26T09:12:01.933Z</time></trkpt><trkpt lat="41.4652846" lon="14.1289301"><ele>220.66666666666666</ele><time>2026-04-26T09:12:02.934Z</time></trkpt><trkpt lat="41.4653609" lon="14.1287487"><ele>226.0</ele><time>2026-04-26T09:12:03.941Z</time></trkpt><trkpt lat="41.4654475" lon="14.128564"><ele>219.33333333333331</ele><time>2026-04-26T09:12:04.927Z</time></trkpt><trkpt lat="41.465538" lon="14.1283745"><ele>212.66666666666669</ele><time>2026-04-26T09:12:05.927Z</time></trkpt><trkpt lat="41.465627" lon="14.1281775"><ele>206.0</ele><time>2026-04-26T09:12:06.933Z</time></trkpt><trkpt lat="41.4657052" lon="14.1279682"><ele>206.0</ele><time>2026-04-26T09:12:07.942Z</time></trkpt><trkpt lat="41.4657759" lon="14.1277529"><ele>206.0</ele><time>2026-04-26T09:12:08.943Z</time></trkpt><trkpt lat="41.4658514" lon="14.1275373"><ele>206.0</ele><time>2026-04-26T09:12:09.938Z</time></trkpt><trkpt lat="41.4659428" lon="14.1273278"><ele>211.0</ele><time>2026-04-26T09:12:10.93Z</time></trkpt><trkpt lat="41.4660486" lon="14.1271268"><ele>216.0</ele><time>2026-04-26T09:12:11.93Z</time></trkpt><trkpt lat="41.4661636" lon="14.126933"><ele>221.0</ele><time>2026-04-26T09:12:12.928Z</time></trkpt><trkpt lat="41.4662798" lon="14.1267386"><ele>212.0</ele><time>2026-04-26T09:12:13.941Z</time></trkpt><trkpt lat="41.466382" lon="14.1265317"><ele>203.0</ele><time>2026-04-26T09:12:14.928Z</time></trkpt><trkpt lat="41.4664606" lon="14.1263072"><ele>194.0</ele><time>2026-04-26T09:12:15.935Z</time></trkpt><trkpt lat="41.4665126" lon="14.1260708"><ele>194.0</ele><time>2026-04-26T09:12:16.937Z</time></trkpt><trkpt lat="41.4665523" lon="14.125828"><ele>194.0</ele><time>2026-04-26T09:12:17.935Z</time></trkpt><trkpt lat="41.4665922" lon="14.1255833"><ele>194.0</ele><time>2026-04-26T09:12:18.933Z</time></trkpt><trkpt lat="41.4666394" lon="14.1253399"><ele>194.33333333333334</ele><time>2026-04-26T09:12:19.931Z</time></trkpt><trkpt lat="41.4666986" lon="14.1251039"><ele>194.66666666666669</ele><time>2026-04-26T09:12:20.928Z</time></trkpt><trkpt lat="41.4667717" lon="14.1248743"><ele>195.0</ele><time>2026-04-26T09:12:21.931Z</time></trkpt><trkpt lat="41.4668586" lon="14.1246531"><ele>196.0</ele><time>2026-04-26T09:12:22.927Z</time></trkpt><trkpt lat="41.4669578" lon="14.1244416"><ele>197.0</ele><time>2026-04-26T09:12:23.938Z</time></trkpt><trkpt lat="41.4670707" lon="14.1242409"><ele>198.0</ele><time>2026-04-26T09:12:24.937Z</time></trkpt><trkpt lat="41.4672028" lon="14.1240641"><ele>195.33333333333334</ele><time>2026-04-26T09:12:25.937Z</time></trkpt><trkpt lat="41.4673505" lon="14.1239118"><ele>192.66666666666669</ele><time>2026-04-26T09:12:26.938Z</time></trkpt><trkpt lat="41.4675" lon="14.123766"><ele>190.0</ele><time>2026-04-26T09:12:27.947Z</time></trkpt><trkpt lat="41.4676369" lon="14.1236132"><ele>190.0</ele><time>2026-04-26T09:12:28.934Z</time></trkpt><trkpt lat="41.4677465" lon="14.1234413"><ele>190.0</ele><time>2026-04-26T09:12:29.931Z</time></trkpt><trkpt lat="41.4678267" lon="14.1232417"><ele>190.0</ele><time>2026-04-26T09:12:30.933Z</time></trkpt><trkpt lat="41.4678953" lon="14.1230273"><ele>189.0</ele><time>2026-04-26T09:12:31.939Z</time></trkpt><trkpt lat="41.4679629" lon="14.1228176"><ele>188.0</ele><time>2026-04-26T09:12:32.942Z</time></trkpt><trkpt lat="41.4680574" lon="14.1226069"><ele>187.0</ele><time>2026-04-26T09:12:33.942Z</time></trkpt><trkpt lat="41.4681656" lon="14.1223883"><ele>187.0</ele><time>2026-04-26T09:12:34.936Z</time></trkpt><trkpt lat="41.4682646" lon="14.1221515"><ele>187.0</ele><time>2026-04-26T09:12:35.94Z</time></trkpt><trkpt lat="41.4683451" lon="14.1219029"><ele>187.0</ele><time>2026-04-26T09:12:36.94Z</time></trkpt><trkpt lat="41.4684246" lon="14.1216493"><ele>189.0</ele><time>2026-04-26T09:12:37.946Z</time></trkpt><trkpt lat="41.4685089" lon="14.1213933"><ele>191.0</ele><time>2026-04-26T09:12:38.931Z</time></trkpt><trkpt lat="41.468604" lon="14.1211423"><ele>193.0</ele><time>2026-04-26T09:12:39.934Z</time></trkpt><trkpt lat="41.4687017" lon="14.1208965"><ele>190.66666666666666</ele><time>2026-04-26T09:12:40.943Z</time></trkpt><trkpt lat="41.4688005" lon="14.1206526"><ele>188.33333333333331</ele><time>2026-04-26T09:12:41.937Z</time></trkpt><trkpt lat="41.4688911" lon="14.1204059"><ele>186.0</ele><time>2026-04-26T09:12:42.94Z</time></trkpt><trkpt lat="41.468966" lon="14.1201625"><ele>186.0</ele><time>2026-04-26T09:12:43.945Z</time></trkpt><trkpt lat="41.4690072" lon="14.1199077"><ele>186.0</ele><time>2026-04-26T09:12:44.943Z</time></trkpt><trkpt lat="41.4690207" lon="14.1196403"><ele>186.0</ele><time>2026-04-26T09:12:45.939Z</time></trkpt><trkpt lat="41.4690272" lon="14.1193637"><ele>185.66666666666666</ele><time>2026-04-26T09:12:46.938Z</time></trkpt><trkpt lat="41.469039" lon="14.1190811"><ele>185.33333333333331</ele><time>2026-04-26T09:12:47.933Z</time></trkpt><trkpt lat="41.4690578" lon="14.1187917"><ele>185.0</ele><time>2026-04-26T09:12:48.938Z</time></trkpt><trkpt lat="41.4690757" lon="14.1184957"><ele>185.5</ele><time>2026-04-26T09:12:49.932Z</time></trkpt><trkpt lat="41.4690898" lon="14.1181942"><ele>186.0</ele><time>2026-04-26T09:12:50.933Z</time></trkpt><trkpt lat="41.4690985" lon="14.1178928"><ele>186.0</ele><time>2026-04-26T09:12:51.941Z</time></trkpt><trkpt lat="41.4691044" lon="14.1175891"><ele>186.0</ele><time>2026-04-26T09:12:52.936Z</time></trkpt><trkpt lat="41.4691116" lon="14.1172856"><ele>185.5</ele><time>2026-04-26T09:12:53.931Z</time></trkpt><trkpt lat="41.4691215" lon="14.1169809"><ele>185.0</ele><time>2026-04-26T09:12:54.935Z</time></trkpt><trkpt lat="41.4691338" lon="14.1166758"><ele>186.5</ele><time>2026-04-26T09:12:55.94Z</time></trkpt><trkpt lat="41.4691468" lon="14.1163696"><ele>188.0</ele><time>2026-04-26T09:12:56.934Z</time></trkpt><trkpt lat="41.4691589" lon="14.1160633"><ele>188.0</ele><time>2026-04-26T09:12:57.941Z</time></trkpt><trkpt lat="41.4691686" lon="14.1157581"><ele>188.0</ele><time>2026-04-26T09:12:58.943Z</time></trkpt><trkpt lat="41.4691785" lon="14.1154568"><ele>190.0</ele><time>2026-04-26T09:12:59.937Z</time></trkpt><trkpt lat="41.4691902" lon="14.1151675"><ele>192.0</ele><time>2026-04-26T09:13:00.944Z</time></trkpt><trkpt lat="41.4692018" lon="14.1148975"><ele>194.0</ele><time>2026-04-26T09:13:01.949Z</time></trkpt><trkpt lat="41.4692074" lon="14.1146388"><ele>194.0</ele><time>2026-04-26T09:13:02.939Z</time></trkpt><trkpt lat="41.4691946" lon="14.114389"><ele>194.0</ele><time>2026-04-26T09:13:03.925Z</time></trkpt><trkpt lat="41.4691634" lon="14.1141528"><ele>194.0</ele><time>2026-04-26T09:13:04.938Z</time></trkpt><trkpt lat="41.469119" lon="14.1139312"><ele>192.33333333333334</ele><time>2026-04-26T09:13:05.934Z</time></trkpt><trkpt lat="41.4690717" lon="14.1137179"><ele>190.66666666666669</ele><time>2026-04-26T09:13:06.932Z</time></trkpt><trkpt lat="41.4690297" lon="14.1135059"><ele>189.0</ele><time>2026-04-26T09:13:07.939Z</time></trkpt><trkpt lat="41.4689997" lon="14.1132915"><ele>189.66666666666666</ele><time>2026-04-26T09:13:08.928Z</time></trkpt><trkpt lat="41.468985" lon="14.1130727"><ele>190.33333333333331</ele><time>2026-04-26T09:13:09.94Z</time></trkpt><trkpt lat="41.4689882" lon="14.1128475"><ele>191.0</ele><time>2026-04-26T09:13:10.945Z</time></trkpt><trkpt lat="41.4690074" lon="14.1126168"><ele>194.0</ele><time>2026-04-26T09:13:11.936Z</time></trkpt><trkpt lat="41.469039" lon="14.1123806"><ele>197.0</ele><time>2026-04-26T09:13:12.934Z</time></trkpt><trkpt lat="41.4690771" lon="14.1121413"><ele>200.0</ele><time>2026-04-26T09:13:13.932Z</time></trkpt><trkpt lat="41.4691228" lon="14.1118995"><ele>200.0</ele><time>2026-04-26T09:13:14.944Z</time></trkpt><trkpt lat="41.469179" lon="14.1116593"><ele>200.0</ele><time>2026-04-26T09:13:15.939Z</time></trkpt><trkpt lat="41.4692447" lon="14.1114237"><ele>200.0</ele><time>2026-04-26T09:13:16.933Z</time></trkpt><trkpt lat="41.4693161" lon="14.1111789"><ele>204.33333333333334</ele><time>2026-04-26T09:13:17.935Z</time></trkpt><trkpt lat="41.4693836" lon="14.1109262"><ele>208.66666666666669</ele><time>2026-04-26T09:13:18.939Z</time></trkpt><trkpt lat="41.4694471" lon="14.110671"><ele>213.0</ele><time>2026-04-26T09:13:19.936Z</time></trkpt><trkpt lat="41.4695114" lon="14.1104213"><ele>213.66666666666669</ele><time>2026-04-26T09:13:20.946Z</time></trkpt><trkpt lat="41.469579" lon="14.1101778"><ele>214.33333333333334</ele><time>2026-04-26T09:13:21.937Z</time></trkpt><trkpt lat="41.4696469" lon="14.1099517"><ele>215.0</ele><time>2026-04-26T09:13:22.937Z</time></trkpt><trkpt lat="41.4696911" lon="14.1097179"><ele>208.33333333333334</ele><time>2026-04-26T09:13:23.939Z</time></trkpt><trkpt lat="41.4697389" lon="14.1094817"><ele>201.66666666666669</ele><time>2026-04-26T09:13:24.935Z</time></trkpt><trkpt lat="41.4697821" lon="14.109238"><ele>195.0</ele><time>2026-04-26T09:13:25.936Z</time></trkpt><trkpt lat="41.4698287" lon="14.108983"><ele>195.0</ele><time>2026-04-26T09:13:26.934Z</time></trkpt><trkpt lat="41.4698767" lon="14.1087249"><ele>195.0</ele><time>2026-04-26T09:13:27.946Z</time></trkpt><trkpt lat="41.4699263" lon="14.1084691"><ele>195.0</ele><time>2026-04-26T09:13:28.931Z</time></trkpt><trkpt lat="41.4699784" lon="14.1082146"><ele>197.0</ele><time>2026-04-26T09:13:29.932Z</time></trkpt><trkpt lat="41.4700337" lon="14.1079649"><ele>199.0</ele><time>2026-04-26T09:13:30.939Z</time></trkpt><trkpt lat="41.4700826" lon="14.1077135"><ele>201.0</ele><time>2026-04-26T09:13:31.926Z</time></trkpt><trkpt lat="41.4701268" lon="14.1074654"><ele>204.0</ele><time>2026-04-26T09:13:32.929Z</time></trkpt><trkpt lat="41.4701682" lon="14.1072227"><ele>207.0</ele><time>2026-04-26T09:13:33.949Z</time></trkpt><trkpt lat="41.4702127" lon="14.1069951"><ele>210.0</ele><time>2026-04-26T09:13:34.949Z</time></trkpt><trkpt lat="41.470262" lon="14.1067846"><ele>210.0</ele><time>2026-04-26T09:13:35.94Z</time></trkpt><trkpt lat="41.4703236" lon="14.1065785"><ele>210.0</ele><time>2026-04-26T09:13:36.936Z</time></trkpt><trkpt lat="41.4703957" lon="14.106374"><ele>210.0</ele><time>2026-04-26T09:13:37.936Z</time></trkpt><trkpt lat="41.4704802" lon="14.1061699"><ele>204.0</ele><time>2026-04-26T09:13:38.938Z</time></trkpt><trkpt lat="41.4705695" lon="14.1059627"><ele>198.0</ele><time>2026-04-26T09:13:39.939Z</time></trkpt><trkpt lat="41.4706518" lon="14.105748"><ele>192.0</ele><time>2026-04-26T09:13:40.938Z</time></trkpt><trkpt lat="41.4707252" lon="14.1055255"><ele>192.0</ele><time>2026-04-26T09:13:41.941Z</time></trkpt><trkpt lat="41.4707892" lon="14.1052988"><ele>192.0</ele><time>2026-04-26T09:13:42.929Z</time></trkpt><trkpt lat="41.4708453" lon="14.1050681"><ele>192.0</ele><time>2026-04-26T09:13:43.93Z</time></trkpt><trkpt lat="41.4708913" lon="14.1048442"><ele>190.25</ele><time>2026-04-26T09:13:44.927Z</time></trkpt><trkpt lat="41.4709145" lon="14.1046379"><ele>188.5</ele><time>2026-04-26T09:13:45.938Z</time></trkpt><trkpt lat="41.4709081" lon="14.1044487"><ele>186.75</ele><time>2026-04-26T09:13:46.935Z</time></trkpt><trkpt lat="41.4708698" lon="14.1042763"><ele>185.0</ele><time>2026-04-26T09:13:47.934Z</time></trkpt><trkpt lat="41.4708007" lon="14.1041212"><ele>183.0</ele><time>2026-04-26T09:13:48.923Z</time></trkpt><trkpt lat="41.4707019" lon="14.1039762"><ele>181.0</ele><time>2026-04-26T09:13:49.932Z</time></trkpt><trkpt lat="41.470585" lon="14.1038257"><ele>179.0</ele><time>2026-04-26T09:13:50.95Z</time></trkpt><trkpt lat="41.4704562" lon="14.1036641"><ele>179.33333333333331</ele><time>2026-04-26T09:13:51.948Z</time></trkpt><trkpt lat="41.4703242" lon="14.1035024"><ele>179.66666666666666</ele><time>2026-04-26T09:13:52.927Z</time></trkpt><trkpt lat="41.4701911" lon="14.1033451"><ele>180.0</ele><time>2026-04-26T09:13:53.936Z</time></trkpt><trkpt lat="41.4700569" lon="14.103186"><ele>180.0</ele><time>2026-04-26T09:13:54.941Z</time></trkpt><trkpt lat="41.469926" lon="14.1030233"><ele>180.0</ele><time>2026-04-26T09:13:55.928Z</time></trkpt><trkpt lat="41.4697952" lon="14.1028621"><ele>180.0</ele><time>2026-04-26T09:13:56.939Z</time></trkpt><trkpt lat="41.4696634" lon="14.1027034"><ele>180.33333333333334</ele><time>2026-04-26T09:13:57.941Z</time></trkpt><trkpt lat="41.4695206" lon="14.1025633"><ele>180.66666666666669</ele><time>2026-04-26T09:13:58.944Z</time></trkpt><trkpt lat="41.4693687" lon="14.1024374"><ele>181.0</ele><time>2026-04-26T09:13:59.935Z</time></trkpt><trkpt lat="41.469209" lon="14.1023121"><ele>181.0</ele><time>2026-04-26T09:14:00.935Z</time></trkpt><trkpt lat="41.469045" lon="14.1021891"><ele>181.0</ele><time>2026-04-26T09:14:01.938Z</time></trkpt><trkpt lat="41.4688768" lon="14.1020707"><ele>181.0</ele><time>2026-04-26T09:14:02.937Z</time></trkpt><trkpt lat="41.4687061" lon="14.1019532"><ele>184.0</ele><time>2026-04-26T09:14:03.937Z</time></trkpt><trkpt lat="41.4685306" lon="14.1018384"><ele>187.0</ele><time>2026-04-26T09:14:04.925Z</time></trkpt><trkpt lat="41.468357" lon="14.1017285"><ele>190.0</ele><time>2026-04-26T09:14:05.928Z</time></trkpt><trkpt lat="41.4681874" lon="14.1016089"><ele>190.0</ele><time>2026-04-26T09:14:06.93Z</time></trkpt><trkpt lat="41.4680226" lon="14.101468"><ele>190.0</ele><time>2026-04-26T09:14:07.934Z</time></trkpt><trkpt lat="41.467867" lon="14.1013166"><ele>190.0</ele><time>2026-04-26T09:14:08.931Z</time></trkpt><trkpt lat="41.4677125" lon="14.1011574"><ele>190.0</ele><time>2026-04-26T09:14:09.93Z</time></trkpt><trkpt lat="41.4675583" lon="14.1009937"><ele>190.0</ele><time>2026-04-26T09:14:10.937Z</time></trkpt><trkpt lat="41.4674002" lon="14.1008378"><ele>190.0</ele><time>2026-04-26T09:14:11.938Z</time></trkpt><trkpt lat="41.4672391" lon="14.1006842"><ele>188.33333333333334</ele><time>2026-04-26T09:14:12.938Z</time></trkpt><trkpt lat="41.467079" lon="14.1005273"><ele>186.66666666666666</ele><time>2026-04-26T09:14:13.947Z</time></trkpt><trkpt lat="41.4669186" lon="14.1003721"><ele>185.0</ele><time>2026-04-26T09:14:14.931Z</time></trkpt><trkpt lat="41.4667557" lon="14.1002216"><ele>185.0</ele><time>2026-04-26T09:14:15.936Z</time></trkpt><trkpt lat="41.4665935" lon="14.1000782"><ele>185.0</ele><time>2026-04-26T09:14:16.935Z</time></trkpt><trkpt lat="41.4664314" lon="14.0999427"><ele>185.0</ele><time>2026-04-26T09:14:17.931Z</time></trkpt><trkpt lat="41.4662745" lon="14.0998192"><ele>184.66666666666666</ele><time>2026-04-26T09:14:18.934Z</time></trkpt><trkpt lat="41.4661275" lon="14.099706"><ele>184.33333333333334</ele><time>2026-04-26T09:14:19.941Z</time></trkpt><trkpt lat="41.4659846" lon="14.0995912"><ele>184.0</ele><time>2026-04-26T09:14:20.934Z</time></trkpt><trkpt lat="41.465848" lon="14.0994571"><ele>184.0</ele><time>2026-04-26T09:14:21.935Z</time></trkpt><trkpt lat="41.4657165" lon="14.0993115"><ele>184.0</ele><time>2026-04-26T09:14:22.938Z</time></trkpt><trkpt lat="41.4655891" lon="14.0991623"><ele>184.0</ele><time>2026-04-26T09:14:23.939Z</time></trkpt><trkpt lat="41.4654643" lon="14.099015"><ele>184.0</ele><time>2026-04-26T09:14:24.933Z</time></trkpt><trkpt lat="41.46534" lon="14.098876"><ele>184.0</ele><time>2026-04-26T09:14:25.938Z</time></trkpt><trkpt lat="41.465217" lon="14.0987546"><ele>184.0</ele><time>2026-04-26T09:14:26.933Z</time></trkpt><trkpt lat="41.4651067" lon="14.0986439"><ele>184.0</ele><time>2026-04-26T09:14:27.929Z</time></trkpt><trkpt lat="41.4649976" lon="14.0985429"><ele>184.0</ele><time>2026-04-26T09:14:28.934Z</time></trkpt><trkpt lat="41.4648929" lon="14.098437"><ele>184.0</ele><time>2026-04-26T09:14:29.938Z</time></trkpt><trkpt lat="41.464791" lon="14.0983333"><ele>184.0</ele><time>2026-04-26T09:14:30.922Z</time></trkpt><trkpt lat="41.4646948" lon="14.0982254"><ele>182.75</ele><time>2026-04-26T09:14:31.954Z</time></trkpt><trkpt lat="41.4646161" lon="14.0981048"><ele>181.5</ele><time>2026-04-26T09:14:32.946Z</time></trkpt><trkpt lat="41.4645591" lon="14.0979677"><ele>180.25</ele><time>2026-04-26T09:14:33.925Z</time></trkpt><trkpt lat="41.4645056" lon="14.0978394"><ele>179.0</ele><time>2026-04-26T09:14:34.938Z</time></trkpt><trkpt lat="41.4645069" lon="14.0976815"><ele>178.5</ele><time>2026-04-26T09:14:35.936Z</time></trkpt><trkpt lat="41.4645478" lon="14.0975184"><ele>178.0</ele><time>2026-04-26T09:14:36.934Z</time></trkpt><trkpt lat="41.4646079" lon="14.0973603"><ele>177.5</ele><time>2026-04-26T09:14:37.94Z</time></trkpt><trkpt lat="41.464679" lon="14.0972004"><ele>177.0</ele><time>2026-04-26T09:14:38.936Z</time></trkpt><trkpt lat="41.4647318" lon="14.0970399"><ele>177.0</ele><time>2026-04-26T09:14:39.942Z</time></trkpt><trkpt lat="41.4647525" lon="14.0968722"><ele>177.0</ele><time>2026-04-26T09:14:40.945Z</time></trkpt><trkpt lat="41.4647472" lon="14.0966989"><ele>177.0</ele><time>2026-04-26T09:14:41.931Z</time></trkpt><trkpt lat="41.4647104" lon="14.0965408"><ele>177.0</ele><time>2026-04-26T09:14:42.94Z</time></trkpt><trkpt lat="41.4646469" lon="14.0963963"><ele>181.25</ele><time>2026-04-26T09:14:43.938Z</time></trkpt><trkpt lat="41.4645693" lon="14.0962553"><ele>185.5</ele><time>2026-04-26T09:14:44.931Z</time></trkpt><trkpt lat="41.4644856" lon="14.0961196"><ele>189.75</ele><time>2026-04-26T09:14:45.937Z</time></trkpt><trkpt lat="41.4644116" lon="14.0959765"><ele>194.0</ele><time>2026-04-26T09:14:46.936Z</time></trkpt><trkpt lat="41.4643423" lon="14.0958249"><ele>192.75</ele><time>2026-04-26T09:14:47.934Z</time></trkpt><trkpt lat="41.4642726" lon="14.0956696"><ele>191.5</ele><time>2026-04-26T09:14:48.935Z</time></trkpt><trkpt lat="41.4642071" lon="14.0955096"><ele>190.25</ele><time>2026-04-26T09:14:49.943Z</time></trkpt><trkpt lat="41.4641469" lon="14.0953483"><ele>189.0</ele><time>2026-04-26T09:14:50.949Z</time></trkpt><trkpt lat="41.4640979" lon="14.0951883"><ele>189.0</ele><time>2026-04-26T09:14:51.94Z</time></trkpt><trkpt lat="41.4640648" lon="14.0950397"><ele>189.0</ele><time>2026-04-26T09:14:52.933Z</time></trkpt><trkpt lat="41.4640495" lon="14.0948985"><ele>189.0</ele><time>2026-04-26T09:14:53.938Z</time></trkpt><trkpt lat="41.4640334" lon="14.0947654"><ele>189.0</ele><time>2026-04-26T09:14:54.937Z</time></trkpt><trkpt lat="41.4640595" lon="14.0946171"><ele>189.0</ele><time>2026-04-26T09:14:55.927Z</time></trkpt><trkpt lat="41.4640905" lon="14.0944567"><ele>188.75</ele><time>2026-04-26T09:14:56.931Z</time></trkpt><trkpt lat="41.464127" lon="14.094281"><ele>188.5</ele><time>2026-04-26T09:14:57.935Z</time></trkpt><trkpt lat="41.4641558" lon="14.0941015"><ele>188.25</ele><time>2026-04-26T09:14:58.94Z</time></trkpt><trkpt lat="41.4641745" lon="14.0939117"><ele>188.0</ele><time>2026-04-26T09:14:59.929Z</time></trkpt><trkpt lat="41.4641786" lon="14.0937239"><ele>188.0</ele><time>2026-04-26T09:15:00.934Z</time></trkpt><trkpt lat="41.4641611" lon="14.0935348"><ele>188.0</ele><time>2026-04-26T09:15:01.942Z</time></trkpt><trkpt lat="41.4641229" lon="14.09335"><ele>188.0</ele><time>2026-04-26T09:15:02.928Z</time></trkpt><trkpt lat="41.464079" lon="14.0931675"><ele>188.0</ele><time>2026-04-26T09:15:03.938Z</time></trkpt><trkpt lat="41.4640346" lon="14.0929832"><ele>185.0</ele><time>2026-04-26T09:15:04.931Z</time></trkpt><trkpt lat="41.4639952" lon="14.0927991"><ele>182.0</ele><time>2026-04-26T09:15:05.932Z</time></trkpt><trkpt lat="41.4639601" lon="14.092614"><ele>179.0</ele><time>2026-04-26T09:15:06.934Z</time></trkpt><trkpt lat="41.4639329" lon="14.0924352"><ele>176.0</ele><time>2026-04-26T09:15:07.937Z</time></trkpt><trkpt lat="41.4639121" lon="14.0922724"><ele>176.0</ele><time>2026-04-26T09:15:08.937Z</time></trkpt><trkpt lat="41.4638911" lon="14.0921266"><ele>176.0</ele><time>2026-04-26T09:15:09.932Z</time></trkpt><trkpt lat="41.4638622" lon="14.0920096"><ele>176.0</ele><time>2026-04-26T09:15:10.94Z</time></trkpt><trkpt lat="41.4638096" lon="14.0919248"><ele>176.0</ele><time>2026-04-26T09:15:11.931Z</time></trkpt><trkpt lat="41.4637236" lon="14.0918708"><ele>176.0</ele><time>2026-04-26T09:15:12.94Z</time></trkpt><trkpt lat="41.4636127" lon="14.0918422"><ele>176.0</ele><time>2026-04-26T09:15:13.935Z</time></trkpt><trkpt lat="41.4634852" lon="14.0918197"><ele>176.0</ele><time>2026-04-26T09:15:14.941Z</time></trkpt><trkpt lat="41.4633452" lon="14.0917957"><ele>176.0</ele><time>2026-04-26T09:15:15.933Z</time></trkpt><trkpt lat="41.463198" lon="14.0917631"><ele>176.0</ele><time>2026-04-26T09:15:16.944Z</time></trkpt><trkpt lat="41.4630444" lon="14.0917203"><ele>175.33333333333331</ele><time>2026-04-26T09:15:17.935Z</time></trkpt><trkpt lat="41.4628854" lon="14.0916673"><ele>174.66666666666666</ele><time>2026-04-26T09:15:18.932Z</time></trkpt><trkpt lat="41.4627215" lon="14.0916004"><ele>174.0</ele><time>2026-04-26T09:15:19.936Z</time></trkpt><trkpt lat="41.4625559" lon="14.0915348"><ele>174.0</ele><time>2026-04-26T09:15:20.933Z</time></trkpt><trkpt lat="41.4623805" lon="14.0914788"><ele>174.0</ele><time>2026-04-26T09:15:21.928Z</time></trkpt><trkpt lat="41.4622072" lon="14.0914297"><ele>174.0</ele><time>2026-04-26T09:15:22.933Z</time></trkpt><trkpt lat="41.4620343" lon="14.0913866"><ele>174.0</ele><time>2026-04-26T09:15:23.937Z</time></trkpt><trkpt lat="41.4618669" lon="14.0913282"><ele>174.0</ele><time>2026-04-26T09:15:24.97Z</time></trkpt><trkpt lat="41.4617019" lon="14.0912467"><ele>174.0</ele><time>2026-04-26T09:15:25.942Z</time></trkpt><trkpt lat="41.4615452" lon="14.0911476"><ele>174.0</ele><time>2026-04-26T09:15:26.927Z</time></trkpt><trkpt lat="41.4613953" lon="14.0910258"><ele>174.0</ele><time>2026-04-26T09:15:27.934Z</time></trkpt><trkpt lat="41.461254" lon="14.0908884"><ele>174.0</ele><time>2026-04-26T09:15:28.941Z</time></trkpt><trkpt lat="41.4611204" lon="14.090733"><ele>174.66666666666666</ele><time>2026-04-26T09:15:29.929Z</time></trkpt><trkpt lat="41.4609947" lon="14.0905684"><ele>175.33333333333331</ele><time>2026-04-26T09:15:30.929Z</time></trkpt><trkpt lat="41.4608693" lon="14.0904045"><ele>176.0</ele><time>2026-04-26T09:15:31.937Z</time></trkpt><trkpt lat="41.4607426" lon="14.0902484"><ele>176.0</ele><time>2026-04-26T09:15:32.941Z</time></trkpt><trkpt lat="41.4606188" lon="14.0900904"><ele>176.0</ele><time>2026-04-26T09:15:33.94Z</time></trkpt><trkpt lat="41.4605052" lon="14.089925"><ele>176.0</ele><time>2026-04-26T09:15:34.944Z</time></trkpt><trkpt lat="41.4604028" lon="14.0897523"><ele>176.66666666666666</ele><time>2026-04-26T09:15:35.934Z</time></trkpt><trkpt lat="41.4603087" lon="14.0895774"><ele>177.33333333333334</ele><time>2026-04-26T09:15:36.937Z</time></trkpt><trkpt lat="41.4602223" lon="14.0894119"><ele>178.0</ele><time>2026-04-26T09:15:37.939Z</time></trkpt><trkpt lat="41.4601452" lon="14.0892597"><ele>178.0</ele><time>2026-04-26T09:15:38.936Z</time></trkpt><trkpt lat="41.4600717" lon="14.0891266"><ele>178.0</ele><time>2026-04-26T09:15:39.943Z</time></trkpt><trkpt lat="41.4599941" lon="14.0890136"><ele>178.0</ele><time>2026-04-26T09:15:40.958Z</time></trkpt><trkpt lat="41.459906" lon="14.0889306"><ele>178.0</ele><time>2026-04-26T09:15:41.937Z</time></trkpt><trkpt lat="41.4598008" lon="14.0888891"><ele>175.5</ele><time>2026-04-26T09:15:42.944Z</time></trkpt><trkpt lat="41.4596845" lon="14.0888908"><ele>173.0</ele><time>2026-04-26T09:15:43.943Z</time></trkpt><trkpt lat="41.4595609" lon="14.0889265"><ele>170.5</ele><time>2026-04-26T09:15:44.939Z</time></trkpt><trkpt lat="41.459413" lon="14.0889886"><ele>168.0</ele><time>2026-04-26T09:15:45.944Z</time></trkpt><trkpt lat="41.459248" lon="14.0890653"><ele>169.0</ele><time>2026-04-26T09:15:46.947Z</time></trkpt><trkpt lat="41.4590796" lon="14.0891492"><ele>170.0</ele><time>2026-04-26T09:15:47.934Z</time></trkpt><trkpt lat="41.4589055" lon="14.0892368"><ele>171.0</ele><time>2026-04-26T09:15:48.933Z</time></trkpt><trkpt lat="41.4587278" lon="14.0893215"><ele>171.0</ele><time>2026-04-26T09:15:49.944Z</time></trkpt><trkpt lat="41.4585509" lon="14.0894023"><ele>171.0</ele><time>2026-04-26T09:15:50.969Z</time></trkpt><trkpt lat="41.4583778" lon="14.0894788"><ele>171.0</ele><time>2026-04-26T09:15:51.944Z</time></trkpt><trkpt lat="41.458211" lon="14.0895474"><ele>171.0</ele><time>2026-04-26T09:15:52.934Z</time></trkpt><trkpt lat="41.4580483" lon="14.0895972"><ele>171.0</ele><time>2026-04-26T09:15:53.969Z</time></trkpt><trkpt lat="41.4578895" lon="14.0896146"><ele>171.0</ele><time>2026-04-26T09:15:54.958Z</time></trkpt><trkpt lat="41.4577349" lon="14.0895997"><ele>170.33333333333334</ele><time>2026-04-26T09:15:55.937Z</time></trkpt><trkpt lat="41.4575853" lon="14.0895505"><ele>169.66666666666669</ele><time>2026-04-26T09:15:56.937Z</time></trkpt><trkpt lat="41.457441" lon="14.0894717"><ele>169.0</ele><time>2026-04-26T09:15:57.946Z</time></trkpt><trkpt lat="41.457296" lon="14.0893757"><ele>169.0</ele><time>2026-04-26T09:15:58.961Z</time></trkpt><trkpt lat="41.4571454" lon="14.0892732"><ele>169.0</ele><time>2026-04-26T09:15:59.946Z</time></trkpt><trkpt lat="41.4569904" lon="14.0891638"><ele>169.0</ele><time>2026-04-26T09:16:01.018Z</time></trkpt><trkpt lat="41.4568313" lon="14.0890494"><ele>168.66666666666669</ele><time>2026-04-26T09:16:01.946Z</time></trkpt><trkpt lat="41.4566697" lon="14.0889317"><ele>168.33333333333334</ele><time>2026-04-26T09:16:02.942Z</time></trkpt><trkpt lat="41.4565089" lon="14.0888145"><ele>168.0</ele><time>2026-04-26T09:16:03.959Z</time></trkpt><trkpt lat="41.4563467" lon="14.0886949"><ele>168.0</ele><time>2026-04-26T09:16:04.941Z</time></trkpt><trkpt lat="41.4561818" lon="14.0885783"><ele>168.0</ele><time>2026-04-26T09:16:05.938Z</time></trkpt><trkpt lat="41.456016" lon="14.0884603"><ele>168.0</ele><time>2026-04-26T09:16:06.959Z</time></trkpt><trkpt lat="41.4558492" lon="14.0883459"><ele>167.66666666666666</ele><time>2026-04-26T09:16:07.961Z</time></trkpt><trkpt lat="41.4556853" lon="14.0882306"><ele>167.33333333333331</ele><time>2026-04-26T09:16:08.961Z</time></trkpt><trkpt lat="41.4555338" lon="14.0881134"><ele>167.0</ele><time>2026-04-26T09:16:09.938Z</time></trkpt><trkpt lat="41.4553931" lon="14.0879805"><ele>167.0</ele><time>2026-04-26T09:16:10.949Z</time></trkpt><trkpt lat="41.4552547" lon="14.0878284"><ele>167.0</ele><time>2026-04-26T09:16:11.944Z</time></trkpt><trkpt lat="41.4551177" lon="14.0876575"><ele>167.0</ele><time>2026-04-26T09:16:12.935Z</time></trkpt><trkpt lat="41.4549786" lon="14.08749"><ele>166.33333333333331</ele><time>2026-04-26T09:16:13.945Z</time></trkpt><trkpt lat="41.4548443" lon="14.0873105"><ele>165.66666666666666</ele><time>2026-04-26T09:16:14.943Z</time></trkpt><trkpt lat="41.4546935" lon="14.0871405"><ele>165.0</ele><time>2026-04-26T09:16:15.939Z</time></trkpt><trkpt lat="41.4545353" lon="14.0869833"><ele>165.0</ele><time>2026-04-26T09:16:16.945Z</time></trkpt><trkpt lat="41.454368" lon="14.0868387"><ele>165.0</ele><time>2026-04-26T09:16:17.944Z</time></trkpt><trkpt lat="41.4541934" lon="14.0867047"><ele>165.0</ele><time>2026-04-26T09:16:18.936Z</time></trkpt><trkpt lat="41.4540141" lon="14.0865729"><ele>165.0</ele><time>2026-04-26T09:16:19.94Z</time></trkpt><trkpt lat="41.4538355" lon="14.0864357"><ele>165.0</ele><time>2026-04-26T09:16:20.938Z</time></trkpt><trkpt lat="41.4536553" lon="14.0862961"><ele>165.0</ele><time>2026-04-26T09:16:21.939Z</time></trkpt><trkpt lat="41.4534705" lon="14.086155"><ele>165.0</ele><time>2026-04-26T09:16:22.938Z</time></trkpt><trkpt lat="41.4532837" lon="14.0860129"><ele>165.0</ele><time>2026-04-26T09:16:23.938Z</time></trkpt><trkpt lat="41.4530952" lon="14.0858708"><ele>165.0</ele><time>2026-04-26T09:16:24.946Z</time></trkpt><trkpt lat="41.4529083" lon="14.0857308"><ele>165.0</ele><time>2026-04-26T09:16:25.957Z</time></trkpt><trkpt lat="41.4527233" lon="14.0855906"><ele>165.0</ele><time>2026-04-26T09:16:26.938Z</time></trkpt><trkpt lat="41.4525358" lon="14.0854523"><ele>165.0</ele><time>2026-04-26T09:16:27.942Z</time></trkpt><trkpt lat="41.4523485" lon="14.085313"><ele>165.0</ele><time>2026-04-26T09:16:28.94Z</time></trkpt><trkpt lat="41.452163" lon="14.0851716"><ele>165.0</ele><time>2026-04-26T09:16:29.935Z</time></trkpt><trkpt lat="41.4519791" lon="14.0850294"><ele>165.0</ele><time>2026-04-26T09:16:30.944Z</time></trkpt><trkpt lat="41.4517953" lon="14.0848893"><ele>164.66666666666666</ele><time>2026-04-26T09:16:31.949Z</time></trkpt><trkpt lat="41.4516114" lon="14.0847507"><ele>164.33333333333331</ele><time>2026-04-26T09:16:32.939Z</time></trkpt><trkpt lat="41.451429" lon="14.084613"><ele>164.0</ele><time>2026-04-26T09:16:33.933Z</time></trkpt><trkpt lat="41.4512479" lon="14.0844763"><ele>164.0</ele><time>2026-04-26T09:16:34.943Z</time></trkpt><trkpt lat="41.4510684" lon="14.0843395"><ele>164.0</ele><time>2026-04-26T09:16:35.932Z</time></trkpt><trkpt lat="41.4508905" lon="14.0842029"><ele>164.0</ele><time>2026-04-26T09:16:36.935Z</time></trkpt><trkpt lat="41.4507129" lon="14.0840665"><ele>164.0</ele><time>2026-04-26T09:16:37.939Z</time></trkpt><trkpt lat="41.4505354" lon="14.0839309"><ele>164.0</ele><time>2026-04-26T09:16:38.931Z</time></trkpt><trkpt lat="41.450358" lon="14.0837953"><ele>164.0</ele><time>2026-04-26T09:16:39.935Z</time></trkpt><trkpt lat="41.4501805" lon="14.0836597"><ele>164.0</ele><time>2026-04-26T09:16:40.941Z</time></trkpt><trkpt lat="41.4500027" lon="14.0835251"><ele>164.0</ele><time>2026-04-26T09:16:41.932Z</time></trkpt><trkpt lat="41.4498258" lon="14.0833906"><ele>164.0</ele><time>2026-04-26T09:16:42.938Z</time></trkpt><trkpt lat="41.4496494" lon="14.0832562"><ele>162.66666666666666</ele><time>2026-04-26T09:16:43.945Z</time></trkpt><trkpt lat="41.4494729" lon="14.0831248"><ele>161.33333333333334</ele><time>2026-04-26T09:16:44.942Z</time></trkpt><trkpt lat="41.4492989" lon="14.082996"><ele>160.0</ele><time>2026-04-26T09:16:45.942Z</time></trkpt><trkpt lat="41.4491284" lon="14.0828706"><ele>160.0</ele><time>2026-04-26T09:16:46.942Z</time></trkpt><trkpt lat="41.4489682" lon="14.0827498"><ele>160.0</ele><time>2026-04-26T09:16:47.933Z</time></trkpt><trkpt lat="41.4488259" lon="14.082642"><ele>160.0</ele><time>2026-04-26T09:16:48.942Z</time></trkpt><trkpt lat="41.4486998" lon="14.0825536"><ele>160.33333333333334</ele><time>2026-04-26T09:16:49.95Z</time></trkpt><trkpt lat="41.4486064" lon="14.0824845"><ele>160.66666666666669</ele><time>2026-04-26T09:16:50.94Z</time></trkpt><trkpt lat="41.448525" lon="14.0824297"><ele>161.0</ele><time>2026-04-26T09:16:51.932Z</time></trkpt><trkpt lat="41.4484586" lon="14.0823858"><ele>161.33333333333334</ele><time>2026-04-26T09:16:52.94Z</time></trkpt><trkpt lat="41.4483966" lon="14.0823366"><ele>161.66666666666666</ele><time>2026-04-26T09:16:53.93Z</time></trkpt><trkpt lat="41.4483363" lon="14.0822867"><ele>162.0</ele><time>2026-04-26T09:16:54.927Z</time></trkpt><trkpt lat="41.4482695" lon="14.0822297"><ele>162.0</ele><time>2026-04-26T09:16:55.951Z</time></trkpt><trkpt lat="41.4481941" lon="14.0821677"><ele>162.0</ele><time>2026-04-26T09:16:56.943Z</time></trkpt><trkpt lat="41.4481111" lon="14.0821001"><ele>162.0</ele><time>2026-04-26T09:16:57.932Z</time></trkpt><trkpt lat="41.4480259" lon="14.0820366"><ele>162.0</ele><time>2026-04-26T09:16:58.932Z</time></trkpt><trkpt lat="41.447942" lon="14.0819739"><ele>162.0</ele><time>2026-04-26T09:16:59.944Z</time></trkpt><trkpt lat="41.4478687" lon="14.0819135"><ele>162.0</ele><time>2026-04-26T09:17:00.941Z</time></trkpt><trkpt lat="41.4478165" lon="14.0818646"><ele>162.0</ele><time>2026-04-26T09:17:01.95Z</time></trkpt><trkpt lat="41.4477579" lon="14.0817485"><ele>162.0</ele><time>2026-04-26T09:17:03.954Z</time></trkpt><trkpt lat="41.4477475" lon="14.0816584"><ele>162.0</ele><time>2026-04-26T09:17:04.938Z</time></trkpt><trkpt lat="41.4477511" lon="14.0815465"><ele>162.0</ele><time>2026-04-26T09:17:05.94Z</time></trkpt><trkpt lat="41.4477536" lon="14.0814258"><ele>162.0</ele><time>2026-04-26T09:17:06.931Z</time></trkpt><trkpt lat="41.4477872" lon="14.0812816"><ele>162.0</ele><time>2026-04-26T09:17:07.945Z</time></trkpt><trkpt lat="41.4478367" lon="14.0811357"><ele>162.0</ele><time>2026-04-26T09:17:08.938Z</time></trkpt><trkpt lat="41.4479092" lon="14.0809784"><ele>162.0</ele><time>2026-04-26T09:17:09.939Z</time></trkpt><trkpt lat="41.447997" lon="14.0808109"><ele>162.0</ele><time>2026-04-26T09:17:10.939Z</time></trkpt><trkpt lat="41.4481013" lon="14.080629"><ele>162.33333333333334</ele><time>2026-04-26T09:17:11.947Z</time></trkpt><trkpt lat="41.448213" lon="14.0804364"><ele>162.66666666666669</ele><time>2026-04-26T09:17:12.939Z</time></trkpt><trkpt lat="41.4483329" lon="14.080234"><ele>163.0</ele><time>2026-04-26T09:17:13.941Z</time></trkpt><trkpt lat="41.4484575" lon="14.0800306"><ele>163.33333333333334</ele><time>2026-04-26T09:17:14.937Z</time></trkpt><trkpt lat="41.4485806" lon="14.0798303"><ele>163.66666666666666</ele><time>2026-04-26T09:17:15.949Z</time></trkpt><trkpt lat="41.4486996" lon="14.0796309"><ele>164.0</ele><time>2026-04-26T09:17:16.939Z</time></trkpt><trkpt lat="41.4488116" lon="14.0794403"><ele>164.0</ele><time>2026-04-26T09:17:17.933Z</time></trkpt><trkpt lat="41.448923" lon="14.0792512"><ele>164.0</ele><time>2026-04-26T09:17:18.937Z</time></trkpt><trkpt lat="41.4490332" lon="14.0790619"><ele>164.0</ele><time>2026-04-26T09:17:19.948Z</time></trkpt><trkpt lat="41.4491449" lon="14.0788739"><ele>163.0</ele><time>2026-04-26T09:17:20.942Z</time></trkpt><trkpt lat="41.4492604" lon="14.0786868"><ele>162.0</ele><time>2026-04-26T09:17:21.94Z</time></trkpt><trkpt lat="41.4493758" lon="14.0784982"><ele>161.0</ele><time>2026-04-26T09:17:22.942Z</time></trkpt><trkpt lat="41.4494921" lon="14.078311"><ele>161.33333333333331</ele><time>2026-04-26T09:17:23.94Z</time></trkpt><trkpt lat="41.4496044" lon="14.0781276"><ele>161.66666666666666</ele><time>2026-04-26T09:17:24.932Z</time></trkpt><trkpt lat="41.44971" lon="14.0779528"><ele>162.0</ele><time>2026-04-26T09:17:25.932Z</time></trkpt><trkpt lat="41.4498129" lon="14.077789"><ele>162.33333333333334</ele><time>2026-04-26T09:17:26.942Z</time></trkpt><trkpt lat="41.44991" lon="14.077632"><ele>162.66666666666669</ele><time>2026-04-26T09:17:27.937Z</time></trkpt><trkpt lat="41.4500044" lon="14.0774782"><ele>163.0</ele><time>2026-04-26T09:17:28.939Z</time></trkpt><trkpt lat="41.450099" lon="14.0773256"><ele>163.0</ele><time>2026-04-26T09:17:29.929Z</time></trkpt><trkpt lat="41.4501963" lon="14.0771679"><ele>163.0</ele><time>2026-04-26T09:17:30.944Z</time></trkpt><trkpt lat="41.4502976" lon="14.0770032"><ele>163.0</ele><time>2026-04-26T09:17:31.94Z</time></trkpt><trkpt lat="41.4504036" lon="14.0768292"><ele>163.0</ele><time>2026-04-26T09:17:32.938Z</time></trkpt><trkpt lat="41.4505168" lon="14.0766433"><ele>163.0</ele><time>2026-04-26T09:17:33.941Z</time></trkpt><trkpt lat="41.4506399" lon="14.076448"><ele>163.0</ele><time>2026-04-26T09:17:34.941Z</time></trkpt><trkpt lat="41.4507694" lon="14.0762427"><ele>163.0</ele><time>2026-04-26T09:17:35.935Z</time></trkpt><trkpt lat="41.4509033" lon="14.0760252"><ele>163.0</ele><time>2026-04-26T09:17:36.935Z</time></trkpt><trkpt lat="41.4510407" lon="14.0757993"><ele>163.0</ele><time>2026-04-26T09:17:37.938Z</time></trkpt><trkpt lat="41.4511803" lon="14.0755721"><ele>163.5</ele><time>2026-04-26T09:17:38.941Z</time></trkpt><trkpt lat="41.4513245" lon="14.0753404"><ele>164.0</ele><time>2026-04-26T09:17:39.939Z</time></trkpt><trkpt lat="41.4514742" lon="14.0751011"><ele>164.0</ele><time>2026-04-26T09:17:40.938Z</time></trkpt><trkpt lat="41.4516284" lon="14.0748543"><ele>164.0</ele><time>2026-04-26T09:17:41.941Z</time></trkpt><trkpt lat="41.451783" lon="14.0746037"><ele>164.0</ele><time>2026-04-26T09:17:42.944Z</time></trkpt><trkpt lat="41.4519378" lon="14.0743492"><ele>164.0</ele><time>2026-04-26T09:17:43.944Z</time></trkpt><trkpt lat="41.4520937" lon="14.0740954"><ele>164.0</ele><time>2026-04-26T09:17:44.935Z</time></trkpt><trkpt lat="41.4522508" lon="14.0738422"><ele>164.0</ele><time>2026-04-26T09:17:45.933Z</time></trkpt><trkpt lat="41.4524078" lon="14.0735892"><ele>164.0</ele><time>2026-04-26T09:17:46.938Z</time></trkpt><trkpt lat="41.4525645" lon="14.0733382"><ele>164.0</ele><time>2026-04-26T09:17:47.945Z</time></trkpt><trkpt lat="41.4527199" lon="14.0730876"><ele>163.5</ele><time>2026-04-26T09:17:48.939Z</time></trkpt><trkpt lat="41.4528734" lon="14.0728377"><ele>163.0</ele><time>2026-04-26T09:17:49.933Z</time></trkpt><trkpt lat="41.4530273" lon="14.0725898"><ele>163.5</ele><time>2026-04-26T09:17:50.937Z</time></trkpt><trkpt lat="41.4531813" lon="14.0723438"><ele>164.0</ele><time>2026-04-26T09:17:51.936Z</time></trkpt><trkpt lat="41.4533346" lon="14.0720985"><ele>164.0</ele><time>2026-04-26T09:17:52.95Z</time></trkpt><trkpt lat="41.4534866" lon="14.0718539"><ele>164.0</ele><time>2026-04-26T09:17:53.95Z</time></trkpt><trkpt lat="41.4536378" lon="14.0716097"><ele>163.5</ele><time>2026-04-26T09:17:54.943Z</time></trkpt><trkpt lat="41.4537889" lon="14.0713665"><ele>163.0</ele><time>2026-04-26T09:17:55.931Z</time></trkpt><trkpt lat="41.4539383" lon="14.0711235"><ele>163.0</ele><time>2026-04-26T09:17:56.939Z</time></trkpt><trkpt lat="41.4540867" lon="14.0708804"><ele>163.0</ele><time>2026-04-26T09:17:57.938Z</time></trkpt><trkpt lat="41.4542348" lon="14.0706378"><ele>163.5</ele><time>2026-04-26T09:17:58.936Z</time></trkpt><trkpt lat="41.4543838" lon="14.0703972"><ele>164.0</ele><time>2026-04-26T09:17:59.93Z</time></trkpt><trkpt lat="41.4545332" lon="14.0701577"><ele>165.5</ele><time>2026-04-26T09:18:00.949Z</time></trkpt><trkpt lat="41.4546821" lon="14.0699189"><ele>167.0</ele><time>2026-04-26T09:18:01.942Z</time></trkpt><trkpt lat="41.4548295" lon="14.0696801"><ele>167.0</ele><time>2026-04-26T09:18:02.934Z</time></trkpt><trkpt lat="41.4549781" lon="14.0694512"><ele>167.0</ele><time>2026-04-26T09:18:03.946Z</time></trkpt><trkpt lat="41.4551307" lon="14.069217"><ele>165.5</ele><time>2026-04-26T09:18:04.939Z</time></trkpt><trkpt lat="41.4552746" lon="14.0689761"><ele>164.0</ele><time>2026-04-26T09:18:05.936Z</time></trkpt><trkpt lat="41.4554223" lon="14.0687415"><ele>164.0</ele><time>2026-04-26T09:18:06.948Z</time></trkpt><trkpt lat="41.4555697" lon="14.0685029"><ele>164.0</ele><time>2026-04-26T09:18:07.942Z</time></trkpt><trkpt lat="41.45572" lon="14.068267"><ele>163.5</ele><time>2026-04-26T09:18:08.937Z</time></trkpt><trkpt lat="41.4558698" lon="14.0680294"><ele>163.0</ele><time>2026-04-26T09:18:09.944Z</time></trkpt><trkpt lat="41.4560165" lon="14.0677897"><ele>163.0</ele><time>2026-04-26T09:18:10.946Z</time></trkpt><trkpt lat="41.4561635" lon="14.0675495"><ele>163.0</ele><time>2026-04-26T09:18:11.932Z</time></trkpt><trkpt lat="41.45631" lon="14.0673107"><ele>163.5</ele><time>2026-04-26T09:18:12.942Z</time></trkpt><trkpt lat="41.4564567" lon="14.0670697"><ele>164.0</ele><time>2026-04-26T09:18:13.943Z</time></trkpt><trkpt lat="41.4566035" lon="14.066829"><ele>165.0</ele><time>2026-04-26T09:18:14.932Z</time></trkpt><trkpt lat="41.4567506" lon="14.0665888"><ele>166.0</ele><time>2026-04-26T09:18:15.933Z</time></trkpt><trkpt lat="41.4568978" lon="14.0663483"><ele>166.0</ele><time>2026-04-26T09:18:16.938Z</time></trkpt><trkpt lat="41.4570469" lon="14.0661084"><ele>166.0</ele><time>2026-04-26T09:18:17.935Z</time></trkpt><trkpt lat="41.4571979" lon="14.0658692"><ele>165.5</ele><time>2026-04-26T09:18:18.95Z</time></trkpt><trkpt lat="41.4573491" lon="14.0656286"><ele>165.0</ele><time>2026-04-26T09:18:19.935Z</time></trkpt><trkpt lat="41.4575001" lon="14.0653855"><ele>165.0</ele><time>2026-04-26T09:18:20.942Z</time></trkpt><trkpt lat="41.4576491" lon="14.0651409"><ele>165.0</ele><time>2026-04-26T09:18:21.934Z</time></trkpt><trkpt lat="41.4577997" lon="14.0648943"><ele>165.0</ele><time>2026-04-26T09:18:22.935Z</time></trkpt><trkpt lat="41.4579503" lon="14.0646494"><ele>165.0</ele><time>2026-04-26T09:18:23.932Z</time></trkpt><trkpt lat="41.4581018" lon="14.0644047"><ele>165.0</ele><time>2026-04-26T09:18:24.94Z</time></trkpt><trkpt lat="41.4582522" lon="14.0641605"><ele>165.0</ele><time>2026-04-26T09:18:25.941Z</time></trkpt><trkpt lat="41.4584009" lon="14.0639176"><ele>165.0</ele><time>2026-04-26T09:18:26.94Z</time></trkpt><trkpt lat="41.4585479" lon="14.0636765"><ele>165.0</ele><time>2026-04-26T09:18:27.935Z</time></trkpt><trkpt lat="41.4586931" lon="14.0634375"><ele>166.0</ele><time>2026-04-26T09:18:28.933Z</time></trkpt><trkpt lat="41.458839" lon="14.063201"><ele>167.0</ele><time>2026-04-26T09:18:29.942Z</time></trkpt><trkpt lat="41.4589856" lon="14.0629663"><ele>167.0</ele><time>2026-04-26T09:18:30.947Z</time></trkpt><trkpt lat="41.4591309" lon="14.0627322"><ele>167.0</ele><time>2026-04-26T09:18:31.934Z</time></trkpt><trkpt lat="41.4592749" lon="14.0624984"><ele>167.0</ele><time>2026-04-26T09:18:32.941Z</time></trkpt><trkpt lat="41.4594186" lon="14.0622668"><ele>167.0</ele><time>2026-04-26T09:18:33.94Z</time></trkpt><trkpt lat="41.4595629" lon="14.0620373"><ele>166.66666666666666</ele><time>2026-04-26T09:18:34.936Z</time></trkpt><trkpt lat="41.4597059" lon="14.0618081"><ele>166.33333333333334</ele><time>2026-04-26T09:18:35.945Z</time></trkpt><trkpt lat="41.4598459" lon="14.0615808"><ele>166.0</ele><time>2026-04-26T09:18:36.942Z</time></trkpt><trkpt lat="41.4599832" lon="14.0613586"><ele>165.66666666666669</ele><time>2026-04-26T09:18:37.931Z</time></trkpt><trkpt lat="41.4601152" lon="14.0611462"><ele>165.33333333333334</ele><time>2026-04-26T09:18:38.941Z</time></trkpt><trkpt lat="41.4602411" lon="14.0609453"><ele>165.0</ele><time>2026-04-26T09:18:39.942Z</time></trkpt><trkpt lat="41.4603601" lon="14.0607586"><ele>164.33333333333334</ele><time>2026-04-26T09:18:40.939Z</time></trkpt><trkpt lat="41.4604705" lon="14.0605845"><ele>163.66666666666669</ele><time>2026-04-26T09:18:41.934Z</time></trkpt><trkpt lat="41.460573" lon="14.0604238"><ele>163.0</ele><time>2026-04-26T09:18:42.939Z</time></trkpt><trkpt lat="41.4606638" lon="14.0602833"><ele>163.0</ele><time>2026-04-26T09:18:43.956Z</time></trkpt><trkpt lat="41.4607447" lon="14.0601643"><ele>163.0</ele><time>2026-04-26T09:18:44.945Z</time></trkpt><trkpt lat="41.4608069" lon="14.06007"><ele>163.0</ele><time>2026-04-26T09:18:45.961Z</time></trkpt><trkpt lat="41.460868" lon="14.0599914"><ele>163.0</ele><time>2026-04-26T09:18:46.953Z</time></trkpt><trkpt lat="41.4609383" lon="14.0599214"><ele>163.0</ele><time>2026-04-26T09:18:47.936Z</time></trkpt><trkpt lat="41.4610237" lon="14.0598521"><ele>163.25</ele><time>2026-04-26T09:18:48.944Z</time></trkpt><trkpt lat="41.4611359" lon="14.0597656"><ele>163.5</ele><time>2026-04-26T09:18:49.946Z</time></trkpt><trkpt lat="41.4612636" lon="14.0596777"><ele>163.75</ele><time>2026-04-26T09:18:50.933Z</time></trkpt><trkpt lat="41.4614015" lon="14.0595806"><ele>164.0</ele><time>2026-04-26T09:18:51.94Z</time></trkpt><trkpt lat="41.4615519" lon="14.0594739"><ele>164.0</ele><time>2026-04-26T09:18:52.957Z</time></trkpt><trkpt lat="41.4617147" lon="14.0593605"><ele>164.0</ele><time>2026-04-26T09:18:53.932Z</time></trkpt><trkpt lat="41.4618853" lon="14.0592411"><ele>164.0</ele><time>2026-04-26T09:18:54.938Z</time></trkpt><trkpt lat="41.4620603" lon="14.0591153"><ele>164.0</ele><time>2026-04-26T09:18:55.931Z</time></trkpt><trkpt lat="41.4622449" lon="14.0589842"><ele>164.0</ele><time>2026-04-26T09:18:56.939Z</time></trkpt><trkpt lat="41.4624307" lon="14.0588544"><ele>164.0</ele><time>2026-04-26T09:18:57.941Z</time></trkpt><trkpt lat="41.4626176" lon="14.0587227"><ele>164.0</ele><time>2026-04-26T09:18:58.942Z</time></trkpt><trkpt lat="41.4628065" lon="14.0585935"><ele>164.0</ele><time>2026-04-26T09:18:59.951Z</time></trkpt><trkpt lat="41.4629922" lon="14.0584655"><ele>164.0</ele><time>2026-04-26T09:19:00.941Z</time></trkpt><trkpt lat="41.4631779" lon="14.0583383"><ele>165.0</ele><time>2026-04-26T09:19:01.945Z</time></trkpt><trkpt lat="41.4633614" lon="14.0582137"><ele>166.0</ele><time>2026-04-26T09:19:02.941Z</time></trkpt><trkpt lat="41.4635413" lon="14.05809"><ele>167.0</ele><time>2026-04-26T09:19:03.943Z</time></trkpt><trkpt lat="41.4637188" lon="14.0579651"><ele>166.33333333333331</ele><time>2026-04-26T09:19:04.936Z</time></trkpt><trkpt lat="41.4638946" lon="14.0578438"><ele>165.66666666666666</ele><time>2026-04-26T09:19:05.936Z</time></trkpt><trkpt lat="41.4640689" lon="14.0577233"><ele>165.0</ele><time>2026-04-26T09:19:06.933Z</time></trkpt><trkpt lat="41.4642401" lon="14.057602"><ele>165.0</ele><time>2026-04-26T09:19:07.941Z</time></trkpt><trkpt lat="41.4644107" lon="14.0574853"><ele>165.0</ele><time>2026-04-26T09:19:08.941Z</time></trkpt><trkpt lat="41.4645806" lon="14.0573719"><ele>165.0</ele><time>2026-04-26T09:19:09.939Z</time></trkpt><trkpt lat="41.4647496" lon="14.0572603"><ele>165.33333333333334</ele><time>2026-04-26T09:19:10.943Z</time></trkpt><trkpt lat="41.4649157" lon="14.0571488"><ele>165.66666666666669</ele><time>2026-04-26T09:19:11.939Z</time></trkpt><trkpt lat="41.4650796" lon="14.057036"><ele>166.0</ele><time>2026-04-26T09:19:12.942Z</time></trkpt><trkpt lat="41.4652398" lon="14.0569243"><ele>166.0</ele><time>2026-04-26T09:19:13.953Z</time></trkpt><trkpt lat="41.4653967" lon="14.0568165"><ele>166.0</ele><time>2026-04-26T09:19:14.948Z</time></trkpt><trkpt lat="41.4655491" lon="14.0567093"><ele>166.0</ele><time>2026-04-26T09:19:15.954Z</time></trkpt><trkpt lat="41.465697" lon="14.0566039"><ele>167.0</ele><time>2026-04-26T09:19:16.949Z</time></trkpt><trkpt lat="41.4658425" lon="14.0565014"><ele>168.0</ele><time>2026-04-26T09:19:17.93Z</time></trkpt><trkpt lat="41.465988" lon="14.0564001"><ele>169.0</ele><time>2026-04-26T09:19:18.939Z</time></trkpt><trkpt lat="41.4661348" lon="14.0562975"><ele>168.66666666666669</ele><time>2026-04-26T09:19:19.961Z</time></trkpt><trkpt lat="41.4662843" lon="14.0561921"><ele>168.33333333333334</ele><time>2026-04-26T09:19:20.937Z</time></trkpt><trkpt lat="41.4664356" lon="14.056084"><ele>168.0</ele><time>2026-04-26T09:19:21.928Z</time></trkpt><trkpt lat="41.4665903" lon="14.055974"><ele>168.0</ele><time>2026-04-26T09:19:22.937Z</time></trkpt><trkpt lat="41.4667522" lon="14.0558579"><ele>168.0</ele><time>2026-04-26T09:19:23.936Z</time></trkpt><trkpt lat="41.4669214" lon="14.0557342"><ele>168.0</ele><time>2026-04-26T09:19:24.936Z</time></trkpt><trkpt lat="41.4670961" lon="14.055605"><ele>168.33333333333334</ele><time>2026-04-26T09:19:25.939Z</time></trkpt><trkpt lat="41.4672732" lon="14.0554773"><ele>168.66666666666669</ele><time>2026-04-26T09:19:26.928Z</time></trkpt><trkpt lat="41.4674523" lon="14.0553548"><ele>169.0</ele><time>2026-04-26T09:19:27.944Z</time></trkpt><trkpt lat="41.4676357" lon="14.0552385"><ele>169.0</ele><time>2026-04-26T09:19:28.942Z</time></trkpt><trkpt lat="41.4678194" lon="14.0551214"><ele>169.0</ele><time>2026-04-26T09:19:29.934Z</time></trkpt><trkpt lat="41.4680024" lon="14.054998"><ele>169.0</ele><time>2026-04-26T09:19:30.931Z</time></trkpt><trkpt lat="41.4681839" lon="14.0548704"><ele>168.66666666666669</ele><time>2026-04-26T09:19:31.937Z</time></trkpt><trkpt lat="41.4683667" lon="14.0547429"><ele>168.33333333333334</ele><time>2026-04-26T09:19:32.942Z</time></trkpt><trkpt lat="41.468551" lon="14.0546157"><ele>168.0</ele><time>2026-04-26T09:19:33.938Z</time></trkpt><trkpt lat="41.4687356" lon="14.0544875"><ele>168.33333333333334</ele><time>2026-04-26T09:19:34.943Z</time></trkpt><trkpt lat="41.4689213" lon="14.0543583"><ele>168.66666666666669</ele><time>2026-04-26T09:19:35.938Z</time></trkpt><trkpt lat="41.4691068" lon="14.0542287"><ele>169.0</ele><time>2026-04-26T09:19:36.939Z</time></trkpt><trkpt lat="41.469293" lon="14.0540988"><ele>169.0</ele><time>2026-04-26T09:19:37.932Z</time></trkpt><trkpt lat="41.4694802" lon="14.0539679"><ele>169.0</ele><time>2026-04-26T09:19:38.939Z</time></trkpt><trkpt lat="41.4696675" lon="14.0538364"><ele>169.0</ele><time>2026-04-26T09:19:39.934Z</time></trkpt><trkpt lat="41.4698533" lon="14.0537064"><ele>169.0</ele><time>2026-04-26T09:19:40.939Z</time></trkpt><trkpt lat="41.470036" lon="14.0535785"><ele>169.0</ele><time>2026-04-26T09:19:41.935Z</time></trkpt><trkpt lat="41.4702144" lon="14.0534529"><ele>169.0</ele><time>2026-04-26T09:19:42.935Z</time></trkpt><trkpt lat="41.4703839" lon="14.053335"><ele>169.0</ele><time>2026-04-26T09:19:43.939Z</time></trkpt><trkpt lat="41.4705441" lon="14.0532255"><ele>169.0</ele><time>2026-04-26T09:19:44.942Z</time></trkpt><trkpt lat="41.4706982" lon="14.0531193"><ele>169.0</ele><time>2026-04-26T09:19:45.933Z</time></trkpt><trkpt lat="41.4708484" lon="14.0530145"><ele>169.0</ele><time>2026-04-26T09:19:46.944Z</time></trkpt><trkpt lat="41.470995" lon="14.05291"><ele>169.0</ele><time>2026-04-26T09:19:47.94Z</time></trkpt><trkpt lat="41.4711386" lon="14.0528069"><ele>169.0</ele><time>2026-04-26T09:19:48.936Z</time></trkpt><trkpt lat="41.47128" lon="14.0527054"><ele>169.0</ele><time>2026-04-26T09:19:49.939Z</time></trkpt><trkpt lat="41.4714193" lon="14.0526056"><ele>169.0</ele><time>2026-04-26T09:19:50.944Z</time></trkpt><trkpt lat="41.4715541" lon="14.0525061"><ele>169.0</ele><time>2026-04-26T09:19:51.943Z</time></trkpt><trkpt lat="41.4716864" lon="14.0524084"><ele>169.0</ele><time>2026-04-26T09:19:52.941Z</time></trkpt><trkpt lat="41.471817" lon="14.0523138"><ele>169.0</ele><time>2026-04-26T09:19:53.938Z</time></trkpt><trkpt lat="41.4719477" lon="14.0522256"><ele>169.0</ele><time>2026-04-26T09:19:54.934Z</time></trkpt><trkpt lat="41.4720842" lon="14.0521392"><ele>169.0</ele><time>2026-04-26T09:19:55.936Z</time></trkpt><trkpt lat="41.4722257" lon="14.0520487"><ele>169.0</ele><time>2026-04-26T09:19:56.943Z</time></trkpt><trkpt lat="41.4723712" lon="14.0519501"><ele>169.0</ele><time>2026-04-26T09:19:57.948Z</time></trkpt><trkpt lat="41.4725245" lon="14.0518451"><ele>169.0</ele><time>2026-04-26T09:19:58.94Z</time></trkpt><trkpt lat="41.4726866" lon="14.051734"><ele>169.0</ele><time>2026-04-26T09:19:59.943Z</time></trkpt><trkpt lat="41.4728551" lon="14.0516176"><ele>169.0</ele><time>2026-04-26T09:20:00.934Z</time></trkpt><trkpt lat="41.4730238" lon="14.0515001"><ele>169.0</ele><time>2026-04-26T09:20:01.942Z</time></trkpt><trkpt lat="41.4731946" lon="14.051382"><ele>169.0</ele><time>2026-04-26T09:20:02.932Z</time></trkpt><trkpt lat="41.4733673" lon="14.0512619"><ele>169.0</ele><time>2026-04-26T09:20:03.945Z</time></trkpt><trkpt lat="41.4735431" lon="14.051141"><ele>169.0</ele><time>2026-04-26T09:20:04.939Z</time></trkpt><trkpt lat="41.4737219" lon="14.0510178"><ele>169.0</ele><time>2026-04-26T09:20:05.94Z</time></trkpt><trkpt lat="41.4739034" lon="14.0508911"><ele>169.0</ele><time>2026-04-26T09:20:06.941Z</time></trkpt><trkpt lat="41.474087" lon="14.0507604"><ele>169.0</ele><time>2026-04-26T09:20:07.942Z</time></trkpt><trkpt lat="41.4742699" lon="14.0506296"><ele>168.66666666666669</ele><time>2026-04-26T09:20:08.935Z</time></trkpt><trkpt lat="41.4744505" lon="14.0505031"><ele>168.33333333333334</ele><time>2026-04-26T09:20:09.945Z</time></trkpt><trkpt lat="41.4746248" lon="14.0503827"><ele>168.0</ele><time>2026-04-26T09:20:10.945Z</time></trkpt><trkpt lat="41.474788" lon="14.0502676"><ele>168.66666666666666</ele><time>2026-04-26T09:20:11.935Z</time></trkpt><trkpt lat="41.474939" lon="14.0501575"><ele>169.33333333333331</ele><time>2026-04-26T09:20:12.942Z</time></trkpt><trkpt lat="41.475079" lon="14.0500552"><ele>170.0</ele><time>2026-04-26T09:20:13.941Z</time></trkpt><trkpt lat="41.475212" lon="14.0499614"><ele>170.25</ele><time>2026-04-26T09:20:14.949Z</time></trkpt><trkpt lat="41.4753401" lon="14.0498715"><ele>170.5</ele><time>2026-04-26T09:20:15.941Z</time></trkpt><trkpt lat="41.4754596" lon="14.0497847"><ele>170.75</ele><time>2026-04-26T09:20:16.943Z</time></trkpt><trkpt lat="41.4755677" lon="14.0497056"><ele>171.0</ele><time>2026-04-26T09:20:17.941Z</time></trkpt><trkpt lat="41.4756795" lon="14.0496247"><ele>171.0</ele><time>2026-04-26T09:20:18.931Z</time></trkpt><trkpt lat="41.475799" lon="14.0495418"><ele>171.0</ele><time>2026-04-26T09:20:19.944Z</time></trkpt><trkpt lat="41.4759246" lon="14.0494585"><ele>171.0</ele><time>2026-04-26T09:20:20.939Z</time></trkpt><trkpt lat="41.4760518" lon="14.0493754"><ele>171.0</ele><time>2026-04-26T09:20:21.948Z</time></trkpt><trkpt lat="41.4761782" lon="14.049289"><ele>171.25</ele><time>2026-04-26T09:20:22.947Z</time></trkpt><trkpt lat="41.4763042" lon="14.0492006"><ele>171.5</ele><time>2026-04-26T09:20:23.951Z</time></trkpt><trkpt lat="41.4764306" lon="14.0491126"><ele>171.75</ele><time>2026-04-26T09:20:24.939Z</time></trkpt><trkpt lat="41.4765551" lon="14.0490263"><ele>172.0</ele><time>2026-04-26T09:20:25.945Z</time></trkpt><trkpt lat="41.4766721" lon="14.0489437"><ele>172.0</ele><time>2026-04-26T09:20:26.945Z</time></trkpt><trkpt lat="41.4767794" lon="14.0488656"><ele>172.0</ele><time>2026-04-26T09:20:27.936Z</time></trkpt><trkpt lat="41.4768797" lon="14.0487943"><ele>172.0</ele><time>2026-04-26T09:20:28.944Z</time></trkpt><trkpt lat="41.4769769" lon="14.0487265"><ele>172.0</ele><time>2026-04-26T09:20:29.947Z</time></trkpt><trkpt lat="41.4770702" lon="14.04866"><ele>172.39999999999998</ele><time>2026-04-26T09:20:30.937Z</time></trkpt><trkpt lat="41.4771606" lon="14.0485966"><ele>172.79999999999998</ele><time>2026-04-26T09:20:31.94Z</time></trkpt><trkpt lat="41.4772481" lon="14.0485382"><ele>173.2</ele><time>2026-04-26T09:20:32.937Z</time></trkpt><trkpt lat="41.4773334" lon="14.0484825"><ele>173.6</ele><time>2026-04-26T09:20:33.941Z</time></trkpt><trkpt lat="41.4774176" lon="14.0484305"><ele>174.0</ele><time>2026-04-26T09:20:34.935Z</time></trkpt><trkpt lat="41.4775006" lon="14.0483806"><ele>174.0</ele><time>2026-04-26T09:20:35.944Z</time></trkpt><trkpt lat="41.4775829" lon="14.0483312"><ele>174.0</ele><time>2026-04-26T09:20:36.943Z</time></trkpt><trkpt lat="41.4776642" lon="14.0482839"><ele>174.0</ele><time>2026-04-26T09:20:37.933Z</time></trkpt><trkpt lat="41.4777447" lon="14.0482361"><ele>174.0</ele><time>2026-04-26T09:20:38.934Z</time></trkpt><trkpt lat="41.4778253" lon="14.0481862"><ele>174.0</ele><time>2026-04-26T09:20:39.941Z</time></trkpt><trkpt lat="41.4779076" lon="14.0481351"><ele>174.0</ele><time>2026-04-26T09:20:40.939Z</time></trkpt><trkpt lat="41.4779911" lon="14.0480803"><ele>174.39999999999998</ele><time>2026-04-26T09:20:41.947Z</time></trkpt><trkpt lat="41.4780769" lon="14.0480243"><ele>174.8</ele><time>2026-04-26T09:20:42.938Z</time></trkpt><trkpt lat="41.4781662" lon="14.0479681"><ele>175.2</ele><time>2026-04-26T09:20:43.95Z</time></trkpt><trkpt lat="41.4782587" lon="14.0479115"><ele>175.60000000000002</ele><time>2026-04-26T09:20:44.947Z</time></trkpt><trkpt lat="41.4783528" lon="14.0478514"><ele>176.0</ele><time>2026-04-26T09:20:45.943Z</time></trkpt><trkpt lat="41.4784474" lon="14.0477892"><ele>176.0</ele><time>2026-04-26T09:20:46.934Z</time></trkpt><trkpt lat="41.4785422" lon="14.0477284"><ele>176.0</ele><time>2026-04-26T09:20:47.939Z</time></trkpt><trkpt lat="41.4786373" lon="14.0476703"><ele>176.0</ele><time>2026-04-26T09:20:48.94Z</time></trkpt><trkpt lat="41.4787317" lon="14.0476113"><ele>176.0</ele><time>2026-04-26T09:20:49.944Z</time></trkpt><trkpt lat="41.4788254" lon="14.0475519"><ele>176.0</ele><time>2026-04-26T09:20:50.948Z</time></trkpt><trkpt lat="41.4789183" lon="14.0474917"><ele>175.8</ele><time>2026-04-26T09:20:51.933Z</time></trkpt><trkpt lat="41.4790102" lon="14.0474312"><ele>175.60000000000002</ele><time>2026-04-26T09:20:52.936Z</time></trkpt><trkpt lat="41.479102" lon="14.0473713"><ele>175.4</ele><time>2026-04-26T09:20:53.947Z</time></trkpt><trkpt lat="41.4791939" lon="14.0473123"><ele>175.2</ele><time>2026-04-26T09:20:54.932Z</time></trkpt><trkpt lat="41.4792833" lon="14.0472534"><ele>175.0</ele><time>2026-04-26T09:20:55.943Z</time></trkpt><trkpt lat="41.4793671" lon="14.047197"><ele>175.0</ele><time>2026-04-26T09:20:56.934Z</time></trkpt><trkpt lat="41.4794434" lon="14.0471455"><ele>175.0</ele><time>2026-04-26T09:20:57.936Z</time></trkpt><trkpt lat="41.4795076" lon="14.0471034"><ele>175.0</ele><time>2026-04-26T09:20:58.942Z</time></trkpt><trkpt lat="41.479615" lon="14.0470405"><ele>175.0</ele><time>2026-04-26T09:21:00.935Z</time></trkpt><trkpt lat="41.4797254" lon="14.0469775"><ele>175.0</ele><time>2026-04-26T09:21:02.929Z</time></trkpt><trkpt lat="41.4797903" lon="14.0469353"><ele>175.2</ele><time>2026-04-26T09:21:03.929Z</time></trkpt><trkpt lat="41.4798635" lon="14.0468905"><ele>175.4</ele><time>2026-04-26T09:21:04.947Z</time></trkpt><trkpt lat="41.4799447" lon="14.0468405"><ele>175.60000000000002</ele><time>2026-04-26T09:21:05.94Z</time></trkpt><trkpt lat="41.4800307" lon="14.0467853"><ele>175.8</ele><time>2026-04-26T09:21:06.94Z</time></trkpt><trkpt lat="41.4801193" lon="14.0467277"><ele>176.0</ele><time>2026-04-26T09:21:07.938Z</time></trkpt><trkpt lat="41.4802081" lon="14.0466678"><ele>176.0</ele><time>2026-04-26T09:21:08.947Z</time></trkpt><trkpt lat="41.480295" lon="14.046611"><ele>176.0</ele><time>2026-04-26T09:21:09.938Z</time></trkpt><trkpt lat="41.4803763" lon="14.0465615"><ele>176.0</ele><time>2026-04-26T09:21:10.933Z</time></trkpt><trkpt lat="41.4804525" lon="14.0465167"><ele>176.0</ele><time>2026-04-26T09:21:11.941Z</time></trkpt><trkpt lat="41.4805228" lon="14.0464755"><ele>176.0</ele><time>2026-04-26T09:21:12.947Z</time></trkpt><trkpt lat="41.4805828" lon="14.0464404"><ele>176.0</ele><time>2026-04-26T09:21:13.93Z</time></trkpt><trkpt lat="41.4806931" lon="14.0463818"><ele>176.0</ele><time>2026-04-26T09:21:18.944Z</time></trkpt><trkpt lat="41.4807553" lon="14.0463426"><ele>176.0</ele><time>2026-04-26T09:21:20.94Z</time></trkpt><trkpt lat="41.480819" lon="14.0462976"><ele>176.0</ele><time>2026-04-26T09:21:22.939Z</time></trkpt><trkpt lat="41.4808968" lon="14.0462396"><ele>176.0</ele><time>2026-04-26T09:21:24.94Z</time></trkpt><trkpt lat="41.4809804" lon="14.0461849"><ele>176.0</ele><time>2026-04-26T09:21:26.944Z</time></trkpt><trkpt lat="41.4810784" lon="14.0461311"><ele>176.0</ele><time>2026-04-26T09:21:28.946Z</time></trkpt><trkpt lat="41.4811882" lon="14.046065"><ele>176.0</ele><time>2026-04-26T09:21:30.938Z</time></trkpt><trkpt lat="41.4812475" lon="14.0460307"><ele>176.0</ele><time>2026-04-26T09:21:31.951Z</time></trkpt><trkpt lat="41.4813081" lon="14.0459964"><ele>176.0</ele><time>2026-04-26T09:21:32.946Z</time></trkpt><trkpt lat="41.4813679" lon="14.0459599"><ele>176.0</ele><time>2026-04-26T09:21:33.939Z</time></trkpt><trkpt lat="41.4814265" lon="14.0459208"><ele>176.0</ele><time>2026-04-26T09:21:34.939Z</time></trkpt><trkpt lat="41.4814842" lon="14.045884"><ele>176.0</ele><time>2026-04-26T09:21:35.943Z</time></trkpt><trkpt lat="41.4815944" lon="14.0458153"><ele>176.0</ele><time>2026-04-26T09:21:37.946Z</time></trkpt><trkpt lat="41.4816648" lon="14.0457728"><ele>175.8</ele><time>2026-04-26T09:21:38.937Z</time></trkpt><trkpt lat="41.4817242" lon="14.0457334"><ele>175.60000000000002</ele><time>2026-04-26T09:21:39.943Z</time></trkpt><trkpt lat="41.4817815" lon="14.0456946"><ele>175.4</ele><time>2026-04-26T09:21:40.95Z</time></trkpt><trkpt lat="41.4818891" lon="14.0456265"><ele>175.2</ele><time>2026-04-26T09:21:42.946Z</time></trkpt><trkpt lat="41.482002" lon="14.0455376"><ele>175.0</ele><time>2026-04-26T09:21:44.94Z</time></trkpt><trkpt lat="41.4820617" lon="14.0454884"><ele>175.42857142857142</ele><time>2026-04-26T09:21:45.936Z</time></trkpt><trkpt lat="41.4821189" lon="14.0454366"><ele>175.85714285714286</ele><time>2026-04-26T09:21:46.952Z</time></trkpt><trkpt lat="41.4821789" lon="14.0453871"><ele>176.28571428571428</ele><time>2026-04-26T09:21:47.943Z</time></trkpt><trkpt lat="41.4822415" lon="14.0453392"><ele>176.71428571428572</ele><time>2026-04-26T09:21:48.938Z</time></trkpt><trkpt lat="41.4823024" lon="14.0452926"><ele>177.14285714285714</ele><time>2026-04-26T09:21:49.943Z</time></trkpt><trkpt lat="41.4823667" lon="14.0452471"><ele>177.57142857142856</ele><time>2026-04-26T09:21:50.947Z</time></trkpt><trkpt lat="41.4824311" lon="14.0452015"><ele>178.0</ele><time>2026-04-26T09:21:51.937Z</time></trkpt><trkpt lat="41.4824924" lon="14.0451528"><ele>178.0</ele><time>2026-04-26T09:21:52.946Z</time></trkpt><trkpt lat="41.4825478" lon="14.0451072"><ele>178.0</ele><time>2026-04-26T09:21:53.94Z</time></trkpt><trkpt lat="41.4826189" lon="14.0450514"><ele>178.0</ele><time>2026-04-26T09:21:55.939Z</time></trkpt><trkpt lat="41.4826804" lon="14.0450054"><ele>178.0</ele><time>2026-04-26T09:21:58.943Z</time></trkpt><trkpt lat="41.4827596" lon="14.044934"><ele>178.0</ele><time>2026-04-26T09:22:01.948Z</time></trkpt><trkpt lat="41.4828658" lon="14.0448799"><ele>178.0</ele><time>2026-04-26T09:22:12.962Z</time></trkpt><trkpt lat="41.4829674" lon="14.0449015"><ele>178.33333333333334</ele><time>2026-04-26T09:22:15.944Z</time></trkpt><trkpt lat="41.4830464" lon="14.0450042"><ele>178.66666666666669</ele><time>2026-04-26T09:22:17.951Z</time></trkpt><trkpt lat="41.4830795" lon="14.0450822"><ele>179.0</ele><time>2026-04-26T09:22:18.938Z</time></trkpt><trkpt lat="41.4831156" lon="14.0451707"><ele>179.33333333333334</ele><time>2026-04-26T09:22:19.948Z</time></trkpt><trkpt lat="41.4831589" lon="14.045259"><ele>179.66666666666666</ele><time>2026-04-26T09:22:20.944Z</time></trkpt><trkpt lat="41.4832032" lon="14.0453444"><ele>180.0</ele><time>2026-04-26T09:22:21.936Z</time></trkpt><trkpt lat="41.4832402" lon="14.0454251"><ele>180.0</ele><time>2026-04-26T09:22:22.936Z</time></trkpt><trkpt lat="41.483272" lon="14.0454979"><ele>180.0</ele><time>2026-04-26T09:22:23.946Z</time></trkpt><trkpt lat="41.483331" lon="14.0456329"><ele>180.0</ele><time>2026-04-26T09:22:25.937Z</time></trkpt><trkpt lat="41.483362" lon="14.0457067"><ele>180.0</ele><time>2026-04-26T09:22:26.938Z</time></trkpt><trkpt lat="41.4833951" lon="14.0457856"><ele>180.0</ele><time>2026-04-26T09:22:27.939Z</time></trkpt><trkpt lat="41.4834342" lon="14.0458652"><ele>180.0</ele><time>2026-04-26T09:22:28.951Z</time></trkpt><trkpt lat="41.4834756" lon="14.0459469"><ele>180.0</ele><time>2026-04-26T09:22:29.938Z</time></trkpt><trkpt lat="41.4835147" lon="14.0460342"><ele>180.0</ele><time>2026-04-26T09:22:30.941Z</time></trkpt><trkpt lat="41.4835506" lon="14.046124"><ele>180.0</ele><time>2026-04-26T09:22:31.945Z</time></trkpt><trkpt lat="41.4835872" lon="14.0462134"><ele>180.0</ele><time>2026-04-26T09:22:32.949Z</time></trkpt><trkpt lat="41.483627" lon="14.0462992"><ele>180.0</ele><time>2026-04-26T09:22:33.938Z</time></trkpt><trkpt lat="41.4836677" lon="14.0463833"><ele>180.0</ele><time>2026-04-26T09:22:34.933Z</time></trkpt><trkpt lat="41.4837086" lon="14.0464664"><ele>180.0</ele><time>2026-04-26T09:22:35.941Z</time></trkpt><trkpt lat="41.4837484" lon="14.0465488"><ele>180.0</ele><time>2026-04-26T09:22:36.95Z</time></trkpt><trkpt lat="41.4837882" lon="14.0466323"><ele>180.0</ele><time>2026-04-26T09:22:37.938Z</time></trkpt><trkpt lat="41.4838268" lon="14.0467159"><ele>180.0</ele><time>2026-04-26T09:22:38.943Z</time></trkpt><trkpt lat="41.4838674" lon="14.0467974"><ele>180.0</ele><time>2026-04-26T09:22:39.953Z</time></trkpt><trkpt lat="41.4839072" lon="14.0468798"><ele>180.0</ele><time>2026-04-26T09:22:40.931Z</time></trkpt><trkpt lat="41.4839449" lon="14.0469661"><ele>180.0</ele><time>2026-04-26T09:22:41.936Z</time></trkpt><trkpt lat="41.4839854" lon="14.0470506"><ele>180.33333333333334</ele><time>2026-04-26T09:22:42.931Z</time></trkpt><trkpt lat="41.4840257" lon="14.0471354"><ele>180.66666666666666</ele><time>2026-04-26T09:22:43.932Z</time></trkpt><trkpt lat="41.4840652" lon="14.0472218"><ele>181.0</ele><time>2026-04-26T09:22:44.945Z</time></trkpt><trkpt lat="41.4841034" lon="14.0473097"><ele>181.33333333333331</ele><time>2026-04-26T09:22:45.941Z</time></trkpt><trkpt lat="41.4841411" lon="14.047399"><ele>181.66666666666666</ele><time>2026-04-26T09:22:46.939Z</time></trkpt><trkpt lat="41.484181" lon="14.0474873"><ele>182.0</ele><time>2026-04-26T09:22:47.946Z</time></trkpt><trkpt lat="41.4842215" lon="14.0475766"><ele>182.0</ele><time>2026-04-26T09:22:48.939Z</time></trkpt><trkpt lat="41.4842616" lon="14.0476647"><ele>182.0</ele><time>2026-04-26T09:22:49.938Z</time></trkpt><trkpt lat="41.4843" lon="14.0477501"><ele>182.0</ele><time>2026-04-26T09:22:50.939Z</time></trkpt><trkpt lat="41.4843398" lon="14.0478378"><ele>182.0</ele><time>2026-04-26T09:22:51.944Z</time></trkpt><trkpt lat="41.4843826" lon="14.0479276"><ele>182.0</ele><time>2026-04-26T09:22:52.945Z</time></trkpt><trkpt lat="41.4844241" lon="14.0480275"><ele>182.0</ele><time>2026-04-26T09:22:53.938Z</time></trkpt><trkpt lat="41.4844602" lon="14.0481258"><ele>182.0</ele><time>2026-04-26T09:22:54.931Z</time></trkpt><trkpt lat="41.4845082" lon="14.0482278"><ele>182.0</ele><time>2026-04-26T09:22:55.937Z</time></trkpt><trkpt lat="41.4845551" lon="14.0483274"><ele>182.0</ele><time>2026-04-26T09:22:56.936Z</time></trkpt><trkpt lat="41.4845996" lon="14.0484246"><ele>182.0</ele><time>2026-04-26T09:22:57.956Z</time></trkpt><trkpt lat="41.4846437" lon="14.0485227"><ele>182.0</ele><time>2026-04-26T09:22:58.947Z</time></trkpt><trkpt lat="41.4846863" lon="14.048617"><ele>182.0</ele><time>2026-04-26T09:22:59.985Z</time></trkpt><trkpt lat="41.4847265" lon="14.0487052"><ele>182.28571428571428</ele><time>2026-04-26T09:23:00.958Z</time></trkpt><trkpt lat="41.4847669" lon="14.0487881"><ele>182.57142857142856</ele><time>2026-04-26T09:23:01.983Z</time></trkpt><trkpt lat="41.4848047" lon="14.0488713"><ele>182.85714285714286</ele><time>2026-04-26T09:23:02.946Z</time></trkpt><trkpt lat="41.4848448" lon="14.048956"><ele>183.14285714285714</ele><time>2026-04-26T09:23:03.954Z</time></trkpt><trkpt lat="41.4848846" lon="14.0490423"><ele>183.42857142857142</ele><time>2026-04-26T09:23:04.966Z</time></trkpt><trkpt lat="41.4849213" lon="14.0491283"><ele>183.71428571428572</ele><time>2026-04-26T09:23:05.985Z</time></trkpt><trkpt lat="41.4849572" lon="14.049216"><ele>184.0</ele><time>2026-04-26T09:23:06.967Z</time></trkpt><trkpt lat="41.4849955" lon="14.0493065"><ele>184.0</ele><time>2026-04-26T09:23:07.97Z</time></trkpt><trkpt lat="41.4850368" lon="14.0493956"><ele>184.0</ele><time>2026-04-26T09:23:08.953Z</time></trkpt><trkpt lat="41.4850788" lon="14.0494891"><ele>184.0</ele><time>2026-04-26T09:23:09.976Z</time></trkpt><trkpt lat="41.4851207" lon="14.0495856"><ele>184.0</ele><time>2026-04-26T09:23:10.967Z</time></trkpt><trkpt lat="41.4851681" lon="14.0496823"><ele>184.0</ele><time>2026-04-26T09:23:11.969Z</time></trkpt><trkpt lat="41.4852171" lon="14.0497829"><ele>184.0</ele><time>2026-04-26T09:23:12.978Z</time></trkpt><trkpt lat="41.4852688" lon="14.0498855"><ele>184.0</ele><time>2026-04-26T09:23:13.94Z</time></trkpt><trkpt lat="41.4853242" lon="14.0499896"><ele>184.0</ele><time>2026-04-26T09:23:14.947Z</time></trkpt><trkpt lat="41.4853804" lon="14.0500947"><ele>184.0</ele><time>2026-04-26T09:23:15.933Z</time></trkpt><trkpt lat="41.4854375" lon="14.0502041"><ele>184.0</ele><time>2026-04-26T09:23:16.948Z</time></trkpt><trkpt lat="41.4854951" lon="14.0503157"><ele>184.0</ele><time>2026-04-26T09:23:17.958Z</time></trkpt><trkpt lat="41.4855534" lon="14.0504285"><ele>184.0</ele><time>2026-04-26T09:23:18.945Z</time></trkpt><trkpt lat="41.4856119" lon="14.0505425"><ele>184.0</ele><time>2026-04-26T09:23:19.94Z</time></trkpt><trkpt lat="41.4856704" lon="14.0506599"><ele>184.0</ele><time>2026-04-26T09:23:20.941Z</time></trkpt><trkpt lat="41.4857289" lon="14.0507867"><ele>184.0</ele><time>2026-04-26T09:23:21.945Z</time></trkpt><trkpt lat="41.4857888" lon="14.0509204"><ele>184.0</ele><time>2026-04-26T09:23:22.951Z</time></trkpt><trkpt lat="41.4858471" lon="14.0510552"><ele>183.75</ele><time>2026-04-26T09:23:23.938Z</time></trkpt><trkpt lat="41.4859079" lon="14.0511921"><ele>183.5</ele><time>2026-04-26T09:23:24.959Z</time></trkpt><trkpt lat="41.4859683" lon="14.0513339"><ele>183.25</ele><time>2026-04-26T09:23:25.939Z</time></trkpt><trkpt lat="41.4860303" lon="14.0514789"><ele>183.0</ele><time>2026-04-26T09:23:26.947Z</time></trkpt><trkpt lat="41.4860938" lon="14.0516253"><ele>183.0</ele><time>2026-04-26T09:23:27.947Z</time></trkpt><trkpt lat="41.486158" lon="14.0517719"><ele>183.0</ele><time>2026-04-26T09:23:28.94Z</time></trkpt><trkpt lat="41.4862227" lon="14.051919"><ele>183.0</ele><time>2026-04-26T09:23:29.941Z</time></trkpt><trkpt lat="41.4862878" lon="14.0520704"><ele>183.0</ele><time>2026-04-26T09:23:30.947Z</time></trkpt><trkpt lat="41.4863545" lon="14.0522261"><ele>183.25</ele><time>2026-04-26T09:23:31.954Z</time></trkpt><trkpt lat="41.4864222" lon="14.0523863"><ele>183.5</ele><time>2026-04-26T09:23:32.946Z</time></trkpt><trkpt lat="41.4864921" lon="14.0525499"><ele>183.75</ele><time>2026-04-26T09:23:33.935Z</time></trkpt><trkpt lat="41.4865639" lon="14.0527142"><ele>184.0</ele><time>2026-04-26T09:23:34.939Z</time></trkpt><trkpt lat="41.4866363" lon="14.0528822"><ele>183.5</ele><time>2026-04-26T09:23:35.945Z</time></trkpt><trkpt lat="41.4867089" lon="14.0530534"><ele>183.0</ele><time>2026-04-26T09:23:36.94Z</time></trkpt><trkpt lat="41.4867818" lon="14.0532261"><ele>182.5</ele><time>2026-04-26T09:23:37.959Z</time></trkpt><trkpt lat="41.4868558" lon="14.0533994"><ele>182.0</ele><time>2026-04-26T09:23:38.947Z</time></trkpt><trkpt lat="41.4869309" lon="14.0535739"><ele>182.0</ele><time>2026-04-26T09:23:39.941Z</time></trkpt><trkpt lat="41.4870058" lon="14.05375"><ele>182.0</ele><time>2026-04-26T09:23:40.954Z</time></trkpt><trkpt lat="41.4870811" lon="14.0539262"><ele>182.0</ele><time>2026-04-26T09:23:41.952Z</time></trkpt><trkpt lat="41.4871574" lon="14.0541011"><ele>182.25</ele><time>2026-04-26T09:23:42.94Z</time></trkpt><trkpt lat="41.487232" lon="14.0542746"><ele>182.5</ele><time>2026-04-26T09:23:43.947Z</time></trkpt><trkpt lat="41.4873055" lon="14.0544483"><ele>182.75</ele><time>2026-04-26T09:23:44.941Z</time></trkpt><trkpt lat="41.4873798" lon="14.05462"><ele>183.0</ele><time>2026-04-26T09:23:45.945Z</time></trkpt><trkpt lat="41.4874536" lon="14.0547894"><ele>182.75</ele><time>2026-04-26T09:23:46.943Z</time></trkpt><trkpt lat="41.4875267" lon="14.0549578"><ele>182.5</ele><time>2026-04-26T09:23:47.941Z</time></trkpt><trkpt lat="41.4876005" lon="14.0551249"><ele>182.25</ele><time>2026-04-26T09:23:48.935Z</time></trkpt><trkpt lat="41.4876723" lon="14.0552921"><ele>182.0</ele><time>2026-04-26T09:23:49.944Z</time></trkpt><trkpt lat="41.4877432" lon="14.0554596"><ele>182.0</ele><time>2026-04-26T09:23:50.936Z</time></trkpt><trkpt lat="41.4878127" lon="14.0556256"><ele>182.0</ele><time>2026-04-26T09:23:51.94Z</time></trkpt><trkpt lat="41.487883" lon="14.0557905"><ele>182.0</ele><time>2026-04-26T09:23:52.941Z</time></trkpt><trkpt lat="41.4879549" lon="14.0559552"><ele>182.0</ele><time>2026-04-26T09:23:53.946Z</time></trkpt><trkpt lat="41.4880268" lon="14.056121"><ele>182.0</ele><time>2026-04-26T09:23:54.944Z</time></trkpt><trkpt lat="41.4880987" lon="14.0562881"><ele>182.0</ele><time>2026-04-26T09:23:55.938Z</time></trkpt><trkpt lat="41.4881706" lon="14.0564561"><ele>182.0</ele><time>2026-04-26T09:23:56.944Z</time></trkpt><trkpt lat="41.4882423" lon="14.0566257"><ele>182.0</ele><time>2026-04-26T09:23:57.935Z</time></trkpt><trkpt lat="41.488314" lon="14.0567956"><ele>182.0</ele><time>2026-04-26T09:23:58.95Z</time></trkpt><trkpt lat="41.4883863" lon="14.0569641"><ele>182.0</ele><time>2026-04-26T09:23:59.937Z</time></trkpt><trkpt lat="41.4884564" lon="14.0571283"><ele>182.0</ele><time>2026-04-26T09:24:00.932Z</time></trkpt><trkpt lat="41.4885247" lon="14.057289"><ele>182.0</ele><time>2026-04-26T09:24:01.947Z</time></trkpt><trkpt lat="41.4885925" lon="14.0574456"><ele>182.25</ele><time>2026-04-26T09:24:02.948Z</time></trkpt><trkpt lat="41.4886586" lon="14.0575995"><ele>182.5</ele><time>2026-04-26T09:24:03.939Z</time></trkpt><trkpt lat="41.4887244" lon="14.0577525"><ele>182.75</ele><time>2026-04-26T09:24:04.948Z</time></trkpt><trkpt lat="41.4887897" lon="14.0579058"><ele>183.0</ele><time>2026-04-26T09:24:05.944Z</time></trkpt><trkpt lat="41.4888564" lon="14.0580612"><ele>183.5</ele><time>2026-04-26T09:24:06.934Z</time></trkpt><trkpt lat="41.4889238" lon="14.058219"><ele>184.0</ele><time>2026-04-26T09:24:07.944Z</time></trkpt><trkpt lat="41.4889914" lon="14.0583803"><ele>184.5</ele><time>2026-04-26T09:24:08.948Z</time></trkpt><trkpt lat="41.4890594" lon="14.0585387"><ele>185.0</ele><time>2026-04-26T09:24:09.949Z</time></trkpt><trkpt lat="41.4891271" lon="14.0586921"><ele>185.0</ele><time>2026-04-26T09:24:10.943Z</time></trkpt><trkpt lat="41.4891938" lon="14.0588399"><ele>185.0</ele><time>2026-04-26T09:24:11.949Z</time></trkpt><trkpt lat="41.4892621" lon="14.0589814"><ele>185.0</ele><time>2026-04-26T09:24:12.936Z</time></trkpt><trkpt lat="41.4893383" lon="14.0591161"><ele>185.0</ele><time>2026-04-26T09:24:13.934Z</time></trkpt><trkpt lat="41.4894219" lon="14.059244"><ele>185.0</ele><time>2026-04-26T09:24:14.941Z</time></trkpt><trkpt lat="41.4895154" lon="14.0593677"><ele>185.0</ele><time>2026-04-26T09:24:15.952Z</time></trkpt><trkpt lat="41.4896179" lon="14.0594844"><ele>185.0</ele><time>2026-04-26T09:24:16.937Z</time></trkpt><trkpt lat="41.4897309" lon="14.0595913"><ele>185.0</ele><time>2026-04-26T09:24:17.936Z</time></trkpt><trkpt lat="41.4898534" lon="14.0596882"><ele>185.0</ele><time>2026-04-26T09:24:18.945Z</time></trkpt><trkpt lat="41.4899855" lon="14.0597778"><ele>185.0</ele><time>2026-04-26T09:24:19.949Z</time></trkpt><trkpt lat="41.4901243" lon="14.0598663"><ele>185.0</ele><time>2026-04-26T09:24:20.948Z</time></trkpt><trkpt lat="41.4902693" lon="14.0599582"><ele>185.66666666666666</ele><time>2026-04-26T09:24:21.944Z</time></trkpt><trkpt lat="41.4904167" lon="14.0600584"><ele>186.33333333333334</ele><time>2026-04-26T09:24:22.929Z</time></trkpt><trkpt lat="41.4905619" lon="14.0601636"><ele>187.0</ele><time>2026-04-26T09:24:23.947Z</time></trkpt><trkpt lat="41.4907021" lon="14.0602747"><ele>187.0</ele><time>2026-04-26T09:24:24.947Z</time></trkpt><trkpt lat="41.4908364" lon="14.0603984"><ele>187.0</ele><time>2026-04-26T09:24:25.939Z</time></trkpt><trkpt lat="41.4909661" lon="14.060535"><ele>187.0</ele><time>2026-04-26T09:24:26.932Z</time></trkpt><trkpt lat="41.4910892" lon="14.0606873"><ele>187.0</ele><time>2026-04-26T09:24:27.947Z</time></trkpt><trkpt lat="41.4912029" lon="14.060855"><ele>187.0</ele><time>2026-04-26T09:24:28.943Z</time></trkpt><trkpt lat="41.4913073" lon="14.0610332"><ele>187.0</ele><time>2026-04-26T09:24:29.943Z</time></trkpt><trkpt lat="41.4914007" lon="14.0612183"><ele>187.0</ele><time>2026-04-26T09:24:30.937Z</time></trkpt><trkpt lat="41.4914808" lon="14.0614087"><ele>187.0</ele><time>2026-04-26T09:24:31.947Z</time></trkpt><trkpt lat="41.491547" lon="14.0616075"><ele>187.0</ele><time>2026-04-26T09:24:32.945Z</time></trkpt><trkpt lat="41.4916029" lon="14.0618149"><ele>187.0</ele><time>2026-04-26T09:24:33.942Z</time></trkpt><trkpt lat="41.491655" lon="14.0620274"><ele>187.0</ele><time>2026-04-26T09:24:34.943Z</time></trkpt><trkpt lat="41.4917083" lon="14.0622421"><ele>187.0</ele><time>2026-04-26T09:24:35.948Z</time></trkpt><trkpt lat="41.4917623" lon="14.0624581"><ele>187.33333333333334</ele><time>2026-04-26T09:24:36.942Z</time></trkpt><trkpt lat="41.4918191" lon="14.0626788"><ele>187.66666666666666</ele><time>2026-04-26T09:24:37.935Z</time></trkpt><trkpt lat="41.4918782" lon="14.0629067"><ele>188.0</ele><time>2026-04-26T09:24:38.936Z</time></trkpt><trkpt lat="41.4919365" lon="14.0631401"><ele>188.0</ele><time>2026-04-26T09:24:39.946Z</time></trkpt><trkpt lat="41.4919951" lon="14.0633777"><ele>188.0</ele><time>2026-04-26T09:24:40.929Z</time></trkpt><trkpt lat="41.4920534" lon="14.0636164"><ele>188.0</ele><time>2026-04-26T09:24:41.936Z</time></trkpt><trkpt lat="41.4921114" lon="14.0638554"><ele>188.0</ele><time>2026-04-26T09:24:42.947Z</time></trkpt><trkpt lat="41.4921683" lon="14.0640871"><ele>188.0</ele><time>2026-04-26T09:24:43.939Z</time></trkpt><trkpt lat="41.4922241" lon="14.0643085"><ele>188.0</ele><time>2026-04-26T09:24:44.937Z</time></trkpt><trkpt lat="41.4922767" lon="14.0645186"><ele>188.0</ele><time>2026-04-26T09:24:45.943Z</time></trkpt><trkpt lat="41.4923286" lon="14.0647217"><ele>188.0</ele><time>2026-04-26T09:24:46.965Z</time></trkpt><trkpt lat="41.4923802" lon="14.0649232"><ele>188.0</ele><time>2026-04-26T09:24:47.944Z</time></trkpt><trkpt lat="41.492432" lon="14.0651226"><ele>188.0</ele><time>2026-04-26T09:24:48.942Z</time></trkpt><trkpt lat="41.4924828" lon="14.0653226"><ele>188.0</ele><time>2026-04-26T09:24:49.944Z</time></trkpt><trkpt lat="41.4925344" lon="14.0655276"><ele>188.0</ele><time>2026-04-26T09:24:50.946Z</time></trkpt><trkpt lat="41.4925861" lon="14.0657363"><ele>188.33333333333331</ele><time>2026-04-26T09:24:51.941Z</time></trkpt><trkpt lat="41.4926374" lon="14.0659443"><ele>188.66666666666666</ele><time>2026-04-26T09:24:52.944Z</time></trkpt><trkpt lat="41.4926894" lon="14.0661504"><ele>189.0</ele><time>2026-04-26T09:24:53.936Z</time></trkpt><trkpt lat="41.4927412" lon="14.0663554"><ele>189.0</ele><time>2026-04-26T09:24:54.943Z</time></trkpt><trkpt lat="41.4927913" lon="14.0665576"><ele>189.0</ele><time>2026-04-26T09:24:55.948Z</time></trkpt><trkpt lat="41.4928413" lon="14.0667544"><ele>189.0</ele><time>2026-04-26T09:24:56.933Z</time></trkpt><trkpt lat="41.492889" lon="14.0669453"><ele>189.0</ele><time>2026-04-26T09:24:57.943Z</time></trkpt><trkpt lat="41.4929354" lon="14.0671326"><ele>189.0</ele><time>2026-04-26T09:24:58.945Z</time></trkpt><trkpt lat="41.4929814" lon="14.0673213"><ele>189.0</ele><time>2026-04-26T09:24:59.934Z</time></trkpt><trkpt lat="41.4930287" lon="14.0675091"><ele>189.0</ele><time>2026-04-26T09:25:00.94Z</time></trkpt><trkpt lat="41.4930755" lon="14.0676932"><ele>189.25</ele><time>2026-04-26T09:25:01.953Z</time></trkpt><trkpt lat="41.4931249" lon="14.0678792"><ele>189.5</ele><time>2026-04-26T09:25:02.934Z</time></trkpt><trkpt lat="41.4931761" lon="14.0680538"><ele>189.75</ele><time>2026-04-26T09:25:03.986Z</time></trkpt><trkpt lat="41.4932241" lon="14.0682464"><ele>190.0</ele><time>2026-04-26T09:25:04.932Z</time></trkpt><trkpt lat="41.4932687" lon="14.0684413"><ele>190.0</ele><time>2026-04-26T09:25:05.937Z</time></trkpt><trkpt lat="41.4933205" lon="14.0686399"><ele>190.0</ele><time>2026-04-26T09:25:06.937Z</time></trkpt><trkpt lat="41.4933702" lon="14.0688367"><ele>190.0</ele><time>2026-04-26T09:25:07.944Z</time></trkpt><trkpt lat="41.4934215" lon="14.0690317"><ele>189.66666666666669</ele><time>2026-04-26T09:25:08.939Z</time></trkpt><trkpt lat="41.4934746" lon="14.0692289"><ele>189.33333333333334</ele><time>2026-04-26T09:25:09.951Z</time></trkpt><trkpt lat="41.4935224" lon="14.0694242"><ele>189.0</ele><time>2026-04-26T09:25:10.937Z</time></trkpt><trkpt lat="41.4935712" lon="14.0696193"><ele>189.0</ele><time>2026-04-26T09:25:11.935Z</time></trkpt><trkpt lat="41.4936181" lon="14.0698159"><ele>189.0</ele><time>2026-04-26T09:25:12.944Z</time></trkpt><trkpt lat="41.493671" lon="14.0700117"><ele>189.0</ele><time>2026-04-26T09:25:13.939Z</time></trkpt><trkpt lat="41.493724" lon="14.0702127"><ele>189.0</ele><time>2026-04-26T09:25:14.937Z</time></trkpt><trkpt lat="41.493778" lon="14.0704179"><ele>189.0</ele><time>2026-04-26T09:25:15.944Z</time></trkpt><trkpt lat="41.4938313" lon="14.0706267"><ele>189.0</ele><time>2026-04-26T09:25:16.954Z</time></trkpt><trkpt lat="41.4938841" lon="14.0708401"><ele>189.66666666666666</ele><time>2026-04-26T09:25:17.936Z</time></trkpt><trkpt lat="41.4939394" lon="14.0710622"><ele>190.33333333333331</ele><time>2026-04-26T09:25:18.937Z</time></trkpt><trkpt lat="41.4939972" lon="14.071291"><ele>191.0</ele><time>2026-04-26T09:25:19.946Z</time></trkpt><trkpt lat="41.4940576" lon="14.0715247"><ele>191.33333333333331</ele><time>2026-04-26T09:25:20.939Z</time></trkpt><trkpt lat="41.4941162" lon="14.071759"><ele>191.66666666666666</ele><time>2026-04-26T09:25:21.953Z</time></trkpt><trkpt lat="41.494176" lon="14.0719943"><ele>192.0</ele><time>2026-04-26T09:25:22.939Z</time></trkpt><trkpt lat="41.494236" lon="14.0722288"><ele>191.66666666666666</ele><time>2026-04-26T09:25:23.945Z</time></trkpt><trkpt lat="41.4942959" lon="14.0724653"><ele>191.33333333333331</ele><time>2026-04-26T09:25:24.938Z</time></trkpt><trkpt lat="41.4943551" lon="14.0727013"><ele>191.0</ele><time>2026-04-26T09:25:25.939Z</time></trkpt><trkpt lat="41.4944124" lon="14.0729384"><ele>191.0</ele><time>2026-04-26T09:25:26.935Z</time></trkpt><trkpt lat="41.4944697" lon="14.0731759"><ele>191.0</ele><time>2026-04-26T09:25:27.949Z</time></trkpt><trkpt lat="41.4945264" lon="14.0734134"><ele>191.0</ele><time>2026-04-26T09:25:28.939Z</time></trkpt><trkpt lat="41.4945841" lon="14.073651"><ele>192.0</ele><time>2026-04-26T09:25:29.946Z</time></trkpt><trkpt lat="41.4946426" lon="14.0738901"><ele>193.0</ele><time>2026-04-26T09:25:30.941Z</time></trkpt><trkpt lat="41.4947016" lon="14.0741295"><ele>194.0</ele><time>2026-04-26T09:25:31.942Z</time></trkpt><trkpt lat="41.4947617" lon="14.0743714"><ele>194.33333333333334</ele><time>2026-04-26T09:25:32.938Z</time></trkpt><trkpt lat="41.4948212" lon="14.0746146"><ele>194.66666666666669</ele><time>2026-04-26T09:25:33.943Z</time></trkpt><trkpt lat="41.4948803" lon="14.0748538"><ele>195.0</ele><time>2026-04-26T09:25:34.944Z</time></trkpt><trkpt lat="41.4949392" lon="14.07509"><ele>194.33333333333331</ele><time>2026-04-26T09:25:35.944Z</time></trkpt><trkpt lat="41.4949991" lon="14.0753298"><ele>193.66666666666666</ele><time>2026-04-26T09:25:36.947Z</time></trkpt><trkpt lat="41.4950647" lon="14.0755786"><ele>193.0</ele><time>2026-04-26T09:25:37.941Z</time></trkpt><trkpt lat="41.4951407" lon="14.0758387"><ele>192.5</ele><time>2026-04-26T09:25:38.957Z</time></trkpt><trkpt lat="41.495222" lon="14.0761257"><ele>192.0</ele><time>2026-04-26T09:25:39.937Z</time></trkpt><trkpt lat="41.4953038" lon="14.0764479"><ele>192.5</ele><time>2026-04-26T09:25:40.939Z</time></trkpt><trkpt lat="41.495384" lon="14.0767974"><ele>193.0</ele><time>2026-04-26T09:25:41.938Z</time></trkpt><trkpt lat="41.4954666" lon="14.0771581"><ele>194.5</ele><time>2026-04-26T09:25:42.939Z</time></trkpt><trkpt lat="41.4955529" lon="14.0775193"><ele>196.0</ele><time>2026-04-26T09:25:43.938Z</time></trkpt><trkpt lat="41.4956407" lon="14.0778758"><ele>196.0</ele><time>2026-04-26T09:25:44.935Z</time></trkpt><trkpt lat="41.4957275" lon="14.0782266"><ele>196.0</ele><time>2026-04-26T09:25:45.944Z</time></trkpt><trkpt lat="41.4958124" lon="14.078571"><ele>196.0</ele><time>2026-04-26T09:25:46.933Z</time></trkpt><trkpt lat="41.4958945" lon="14.0789077"><ele>196.0</ele><time>2026-04-26T09:25:47.947Z</time></trkpt><trkpt lat="41.4959747" lon="14.0792361"><ele>196.0</ele><time>2026-04-26T09:25:48.943Z</time></trkpt><trkpt lat="41.496053" lon="14.0795566"><ele>196.0</ele><time>2026-04-26T09:25:49.937Z</time></trkpt><trkpt lat="41.4961301" lon="14.0798693"><ele>197.0</ele><time>2026-04-26T09:25:50.934Z</time></trkpt><trkpt lat="41.4962065" lon="14.0801749"><ele>198.0</ele><time>2026-04-26T09:25:51.946Z</time></trkpt><trkpt lat="41.4962822" lon="14.0804746"><ele>199.0</ele><time>2026-04-26T09:25:52.941Z</time></trkpt><trkpt lat="41.4963552" lon="14.0807681"><ele>200.0</ele><time>2026-04-26T09:25:53.936Z</time></trkpt><trkpt lat="41.4964281" lon="14.0810571"><ele>200.0</ele><time>2026-04-26T09:25:54.936Z</time></trkpt><trkpt lat="41.4965008" lon="14.0813414"><ele>200.0</ele><time>2026-04-26T09:25:55.94Z</time></trkpt><trkpt lat="41.4965716" lon="14.0816134"><ele>200.0</ele><time>2026-04-26T09:25:56.937Z</time></trkpt><trkpt lat="41.4966397" lon="14.0818705"><ele>200.33333333333334</ele><time>2026-04-26T09:25:57.943Z</time></trkpt><trkpt lat="41.4967066" lon="14.0821172"><ele>200.66666666666669</ele><time>2026-04-26T09:25:58.949Z</time></trkpt><trkpt lat="41.4967732" lon="14.0823592"><ele>201.0</ele><time>2026-04-26T09:25:59.96Z</time></trkpt><trkpt lat="41.4968399" lon="14.0826024"><ele>201.0</ele><time>2026-04-26T09:26:00.965Z</time></trkpt><trkpt lat="41.4969088" lon="14.0828498"><ele>201.0</ele><time>2026-04-26T09:26:01.939Z</time></trkpt><trkpt lat="41.4969814" lon="14.0831146"><ele>201.0</ele><time>2026-04-26T09:26:02.955Z</time></trkpt><trkpt lat="41.4970512" lon="14.0833985"><ele>200.5</ele><time>2026-04-26T09:26:03.943Z</time></trkpt><trkpt lat="41.4971152" lon="14.0836905"><ele>200.0</ele><time>2026-04-26T09:26:04.934Z</time></trkpt><trkpt lat="41.4971807" lon="14.0839837"><ele>200.0</ele><time>2026-04-26T09:26:05.95Z</time></trkpt><trkpt lat="41.4972512" lon="14.0842752"><ele>200.0</ele><time>2026-04-26T09:26:06.934Z</time></trkpt><trkpt lat="41.4973245" lon="14.0845671"><ele>200.0</ele><time>2026-04-26T09:26:07.938Z</time></trkpt><trkpt lat="41.4973986" lon="14.0848612"><ele>200.0</ele><time>2026-04-26T09:26:08.94Z</time></trkpt><trkpt lat="41.497473" lon="14.0851558"><ele>201.0</ele><time>2026-04-26T09:26:09.94Z</time></trkpt><trkpt lat="41.4975467" lon="14.0854483"><ele>202.0</ele><time>2026-04-26T09:26:10.936Z</time></trkpt><trkpt lat="41.4976213" lon="14.0857385"><ele>201.5</ele><time>2026-04-26T09:26:11.945Z</time></trkpt><trkpt lat="41.4976965" lon="14.0860285"><ele>201.0</ele><time>2026-04-26T09:26:12.935Z</time></trkpt><trkpt lat="41.4977706" lon="14.0863217"><ele>202.0</ele><time>2026-04-26T09:26:13.939Z</time></trkpt><trkpt lat="41.4978451" lon="14.0866152"><ele>203.0</ele><time>2026-04-26T09:26:14.944Z</time></trkpt><trkpt lat="41.4979198" lon="14.0869107"><ele>203.0</ele><time>2026-04-26T09:26:15.937Z</time></trkpt><trkpt lat="41.497995" lon="14.0872063"><ele>203.0</ele><time>2026-04-26T09:26:16.926Z</time></trkpt><trkpt lat="41.4980739" lon="14.0875116"><ele>203.0</ele><time>2026-04-26T09:26:17.939Z</time></trkpt><trkpt lat="41.4981555" lon="14.0878279"><ele>203.0</ele><time>2026-04-26T09:26:18.939Z</time></trkpt><trkpt lat="41.4982372" lon="14.0881592"><ele>204.0</ele><time>2026-04-26T09:26:19.939Z</time></trkpt><trkpt lat="41.4983219" lon="14.0885128"><ele>205.0</ele><time>2026-04-26T09:26:20.935Z</time></trkpt><trkpt lat="41.4984081" lon="14.0888693"><ele>204.5</ele><time>2026-04-26T09:26:21.936Z</time></trkpt><trkpt lat="41.4984959" lon="14.0892246"><ele>204.0</ele><time>2026-04-26T09:26:22.932Z</time></trkpt><trkpt lat="41.4985846" lon="14.0895781"><ele>203.0</ele><time>2026-04-26T09:26:23.95Z</time></trkpt><trkpt lat="41.4986708" lon="14.0899304"><ele>202.0</ele><time>2026-04-26T09:26:24.935Z</time></trkpt><trkpt lat="41.4987574" lon="14.0902807"><ele>203.0</ele><time>2026-04-26T09:26:25.935Z</time></trkpt><trkpt lat="41.498846" lon="14.0906274"><ele>204.0</ele><time>2026-04-26T09:26:26.94Z</time></trkpt><trkpt lat="41.4989365" lon="14.0909705"><ele>204.0</ele><time>2026-04-26T09:26:27.938Z</time></trkpt><trkpt lat="41.4990296" lon="14.0913097"><ele>204.0</ele><time>2026-04-26T09:26:28.937Z</time></trkpt><trkpt lat="41.499128" lon="14.0916432"><ele>204.5</ele><time>2026-04-26T09:26:29.939Z</time></trkpt><trkpt lat="41.4992328" lon="14.09197"><ele>205.0</ele><time>2026-04-26T09:26:30.939Z</time></trkpt><trkpt lat="41.4993407" lon="14.0922904"><ele>205.0</ele><time>2026-04-26T09:26:31.936Z</time></trkpt><trkpt lat="41.4994488" lon="14.0926061"><ele>205.0</ele><time>2026-04-26T09:26:32.94Z</time></trkpt><trkpt lat="41.4995553" lon="14.0929179"><ele>206.0</ele><time>2026-04-26T09:26:33.937Z</time></trkpt><trkpt lat="41.4996599" lon="14.0932257"><ele>207.0</ele><time>2026-04-26T09:26:34.944Z</time></trkpt><trkpt lat="41.499763" lon="14.0935296"><ele>207.0</ele><time>2026-04-26T09:26:35.948Z</time></trkpt><trkpt lat="41.4998665" lon="14.0938294"><ele>207.0</ele><time>2026-04-26T09:26:36.946Z</time></trkpt><trkpt lat="41.4999703" lon="14.094128"><ele>207.0</ele><time>2026-04-26T09:26:37.948Z</time></trkpt><trkpt lat="41.5000726" lon="14.0944268"><ele>207.0</ele><time>2026-04-26T09:26:38.933Z</time></trkpt><trkpt lat="41.5001733" lon="14.0947258"><ele>208.5</ele><time>2026-04-26T09:26:39.939Z</time></trkpt><trkpt lat="41.5002744" lon="14.095024"><ele>210.0</ele><time>2026-04-26T09:26:40.942Z</time></trkpt><trkpt lat="41.5003773" lon="14.0953191"><ele>209.5</ele><time>2026-04-26T09:26:41.941Z</time></trkpt><trkpt lat="41.5004821" lon="14.0956095"><ele>209.0</ele><time>2026-04-26T09:26:42.943Z</time></trkpt><trkpt lat="41.5005895" lon="14.0958951"><ele>209.0</ele><time>2026-04-26T09:26:43.936Z</time></trkpt><trkpt lat="41.5006971" lon="14.0961779"><ele>209.0</ele><time>2026-04-26T09:26:44.942Z</time></trkpt><trkpt lat="41.5008059" lon="14.0964576"><ele>209.0</ele><time>2026-04-26T09:26:45.947Z</time></trkpt><trkpt lat="41.5009126" lon="14.096738"><ele>209.0</ele><time>2026-04-26T09:26:46.935Z</time></trkpt><trkpt lat="41.5010186" lon="14.0970198"><ele>209.0</ele><time>2026-04-26T09:26:47.933Z</time></trkpt><trkpt lat="41.5011244" lon="14.0973011"><ele>209.0</ele><time>2026-04-26T09:26:48.941Z</time></trkpt><trkpt lat="41.5012286" lon="14.0975805"><ele>209.0</ele><time>2026-04-26T09:26:49.948Z</time></trkpt><trkpt lat="41.5013322" lon="14.0978583"><ele>209.0</ele><time>2026-04-26T09:26:50.943Z</time></trkpt><trkpt lat="41.5014353" lon="14.098135"><ele>208.5</ele><time>2026-04-26T09:26:51.936Z</time></trkpt><trkpt lat="41.5015402" lon="14.0984122"><ele>208.0</ele><time>2026-04-26T09:26:52.93Z</time></trkpt><trkpt lat="41.5016476" lon="14.0986871"><ele>208.0</ele><time>2026-04-26T09:26:53.938Z</time></trkpt><trkpt lat="41.5017573" lon="14.0989601"><ele>208.0</ele><time>2026-04-26T09:26:54.938Z</time></trkpt><trkpt lat="41.5018668" lon="14.0992324"><ele>208.0</ele><time>2026-04-26T09:26:55.936Z</time></trkpt><trkpt lat="41.5019777" lon="14.0995036"><ele>208.0</ele><time>2026-04-26T09:26:56.933Z</time></trkpt><trkpt lat="41.5020938" lon="14.0997705"><ele>208.5</ele><time>2026-04-26T09:26:57.933Z</time></trkpt><trkpt lat="41.502217" lon="14.1000329"><ele>209.0</ele><time>2026-04-26T09:26:58.936Z</time></trkpt><trkpt lat="41.5023466" lon="14.1002906"><ele>209.0</ele><time>2026-04-26T09:26:59.943Z</time></trkpt><trkpt lat="41.5024795" lon="14.1005478"><ele>209.0</ele><time>2026-04-26T09:27:00.936Z</time></trkpt><trkpt lat="41.5026139" lon="14.1008049"><ele>208.5</ele><time>2026-04-26T09:27:01.928Z</time></trkpt><trkpt lat="41.5027498" lon="14.1010636"><ele>208.0</ele><time>2026-04-26T09:27:02.936Z</time></trkpt><trkpt lat="41.5028869" lon="14.101322"><ele>208.0</ele><time>2026-04-26T09:27:03.932Z</time></trkpt><trkpt lat="41.5030243" lon="14.1015819"><ele>208.0</ele><time>2026-04-26T09:27:04.937Z</time></trkpt><trkpt lat="41.5031621" lon="14.1018424"><ele>206.5</ele><time>2026-04-26T09:27:05.945Z</time></trkpt><trkpt lat="41.5032988" lon="14.1021039"><ele>205.0</ele><time>2026-04-26T09:27:06.948Z</time></trkpt><trkpt lat="41.5034354" lon="14.1023673"><ele>204.5</ele><time>2026-04-26T09:27:07.943Z</time></trkpt><trkpt lat="41.5035728" lon="14.1026321"><ele>204.0</ele><time>2026-04-26T09:27:08.938Z</time></trkpt><trkpt lat="41.5037108" lon="14.1028967"><ele>206.0</ele><time>2026-04-26T09:27:09.955Z</time></trkpt><trkpt lat="41.5038499" lon="14.1031617"><ele>208.0</ele><time>2026-04-26T09:27:10.943Z</time></trkpt><trkpt lat="41.5039882" lon="14.1034276"><ele>208.0</ele><time>2026-04-26T09:27:11.938Z</time></trkpt><trkpt lat="41.5041267" lon="14.1036942"><ele>208.0</ele><time>2026-04-26T09:27:12.94Z</time></trkpt><trkpt lat="41.5042665" lon="14.1039602"><ele>208.5</ele><time>2026-04-26T09:27:13.94Z</time></trkpt><trkpt lat="41.5044045" lon="14.1042281"><ele>209.0</ele><time>2026-04-26T09:27:14.926Z</time></trkpt><trkpt lat="41.5045413" lon="14.1044975"><ele>209.0</ele><time>2026-04-26T09:27:15.941Z</time></trkpt><trkpt lat="41.5046782" lon="14.1047666"><ele>209.0</ele><time>2026-04-26T09:27:16.937Z</time></trkpt><trkpt lat="41.504815" lon="14.1050354"><ele>208.5</ele><time>2026-04-26T09:27:17.931Z</time></trkpt><trkpt lat="41.5049508" lon="14.1053045"><ele>208.0</ele><time>2026-04-26T09:27:18.953Z</time></trkpt><trkpt lat="41.5050865" lon="14.1055727"><ele>207.5</ele><time>2026-04-26T09:27:19.94Z</time></trkpt><trkpt lat="41.5052219" lon="14.1058406"><ele>207.0</ele><time>2026-04-26T09:27:20.942Z</time></trkpt><trkpt lat="41.505358" lon="14.1061075"><ele>207.5</ele><time>2026-04-26T09:27:21.944Z</time></trkpt><trkpt lat="41.5054923" lon="14.1063746"><ele>208.0</ele><time>2026-04-26T09:27:22.955Z</time></trkpt><trkpt lat="41.5056255" lon="14.1066418"><ele>208.0</ele><time>2026-04-26T09:27:23.953Z</time></trkpt><trkpt lat="41.5057585" lon="14.1069088"><ele>208.0</ele><time>2026-04-26T09:27:24.966Z</time></trkpt><trkpt lat="41.5058915" lon="14.1071754"><ele>208.5</ele><time>2026-04-26T09:27:25.937Z</time></trkpt><trkpt lat="41.5060241" lon="14.1074417"><ele>209.0</ele><time>2026-04-26T09:27:26.952Z</time></trkpt><trkpt lat="41.5061562" lon="14.1077076"><ele>211.0</ele><time>2026-04-26T09:27:27.943Z</time></trkpt><trkpt lat="41.5062882" lon="14.1079728"><ele>213.0</ele><time>2026-04-26T09:27:28.954Z</time></trkpt><trkpt lat="41.5064202" lon="14.1082362"><ele>213.0</ele><time>2026-04-26T09:27:29.942Z</time></trkpt><trkpt lat="41.5065519" lon="14.1084997"><ele>213.0</ele><time>2026-04-26T09:27:30.949Z</time></trkpt><trkpt lat="41.5066828" lon="14.108763"><ele>213.0</ele><time>2026-04-26T09:27:31.951Z</time></trkpt><trkpt lat="41.5068134" lon="14.1090252"><ele>213.0</ele><time>2026-04-26T09:27:32.959Z</time></trkpt><trkpt lat="41.5069451" lon="14.1092861"><ele>212.5</ele><time>2026-04-26T09:27:33.944Z</time></trkpt><trkpt lat="41.507079" lon="14.1095472"><ele>212.0</ele><time>2026-04-26T09:27:34.943Z</time></trkpt><trkpt lat="41.5072147" lon="14.1098098"><ele>212.0</ele><time>2026-04-26T09:27:35.942Z</time></trkpt><trkpt lat="41.5073504" lon="14.1100727"><ele>212.0</ele><time>2026-04-26T09:27:36.94Z</time></trkpt><trkpt lat="41.507484" lon="14.1103324"><ele>212.0</ele><time>2026-04-26T09:27:37.934Z</time></trkpt><trkpt lat="41.5076162" lon="14.1105876"><ele>212.0</ele><time>2026-04-26T09:27:38.949Z</time></trkpt><trkpt lat="41.5077456" lon="14.1108415"><ele>212.0</ele><time>2026-04-26T09:27:39.935Z</time></trkpt><trkpt lat="41.5078689" lon="14.1110926"><ele>212.0</ele><time>2026-04-26T09:27:40.934Z</time></trkpt><trkpt lat="41.5079827" lon="14.1113424"><ele>212.0</ele><time>2026-04-26T09:27:41.957Z</time></trkpt><trkpt lat="41.5080836" lon="14.1115939"><ele>214.33333333333334</ele><time>2026-04-26T09:27:42.938Z</time></trkpt><trkpt lat="41.508168" lon="14.1118511"><ele>216.66666666666669</ele><time>2026-04-26T09:27:43.937Z</time></trkpt><trkpt lat="41.5082362" lon="14.1121155"><ele>219.0</ele><time>2026-04-26T09:27:44.942Z</time></trkpt><trkpt lat="41.5082877" lon="14.1123867"><ele>217.66666666666669</ele><time>2026-04-26T09:27:45.936Z</time></trkpt><trkpt lat="41.5083216" lon="14.1126637"><ele>216.33333333333334</ele><time>2026-04-26T09:27:46.933Z</time></trkpt><trkpt lat="41.5083456" lon="14.1129433"><ele>215.0</ele><time>2026-04-26T09:27:47.93Z</time></trkpt><trkpt lat="41.5083687" lon="14.1132001"><ele>213.0</ele><time>2026-04-26T09:27:48.942Z</time></trkpt><trkpt lat="41.5083778" lon="14.1134639"><ele>211.0</ele><time>2026-04-26T09:27:49.934Z</time></trkpt><trkpt lat="41.5083791" lon="14.113734"><ele>209.0</ele><time>2026-04-26T09:27:50.936Z</time></trkpt><trkpt lat="41.5083812" lon="14.1139868"><ele>207.25</ele><time>2026-04-26T09:27:51.936Z</time></trkpt><trkpt lat="41.5083944" lon="14.1142098"><ele>205.5</ele><time>2026-04-26T09:27:52.939Z</time></trkpt><trkpt lat="41.5084331" lon="14.114391"><ele>203.75</ele><time>2026-04-26T09:27:53.932Z</time></trkpt><trkpt lat="41.5085" lon="14.1145467"><ele>202.0</ele><time>2026-04-26T09:27:54.938Z</time></trkpt><trkpt lat="41.5085911" lon="14.1146705"><ele>202.0</ele><time>2026-04-26T09:27:55.938Z</time></trkpt><trkpt lat="41.5087056" lon="14.1147511"><ele>202.0</ele><time>2026-04-26T09:27:56.936Z</time></trkpt><trkpt lat="41.5088384" lon="14.1147863"><ele>202.0</ele><time>2026-04-26T09:27:57.939Z</time></trkpt><trkpt lat="41.5089931" lon="14.1147843"><ele>202.0</ele><time>2026-04-26T09:27:58.945Z</time></trkpt><trkpt lat="41.509158" lon="14.1147395"><ele>204.0</ele><time>2026-04-26T09:27:59.946Z</time></trkpt><trkpt lat="41.5093316" lon="14.1146842"><ele>206.0</ele><time>2026-04-26T09:28:00.938Z</time></trkpt><trkpt lat="41.5095109" lon="14.1146404"><ele>208.0</ele><time>2026-04-26T09:28:01.93Z</time></trkpt><trkpt lat="41.5096996" lon="14.1146248"><ele>210.66666666666666</ele><time>2026-04-26T09:28:02.93Z</time></trkpt><trkpt lat="41.5098818" lon="14.1146329"><ele>213.33333333333331</ele><time>2026-04-26T09:28:03.937Z</time></trkpt><trkpt lat="41.5100619" lon="14.1146597"><ele>216.0</ele><time>2026-04-26T09:28:04.931Z</time></trkpt><trkpt lat="41.5102405" lon="14.1147381"><ele>216.66666666666669</ele><time>2026-04-26T09:28:05.935Z</time></trkpt><trkpt lat="41.5104247" lon="14.1148506"><ele>217.33333333333334</ele><time>2026-04-26T09:28:06.941Z</time></trkpt><trkpt lat="41.5106133" lon="14.1150231"><ele>218.0</ele><time>2026-04-26T09:28:07.95Z</time></trkpt><trkpt lat="41.5107941" lon="14.1151959"><ele>218.33333333333334</ele><time>2026-04-26T09:28:08.95Z</time></trkpt><trkpt lat="41.5109591" lon="14.1153574"><ele>218.66666666666669</ele><time>2026-04-26T09:28:09.94Z</time></trkpt><trkpt lat="41.5111088" lon="14.1155067"><ele>219.0</ele><time>2026-04-26T09:28:10.939Z</time></trkpt><trkpt lat="41.5112523" lon="14.1156453"><ele>220.0</ele><time>2026-04-26T09:28:11.94Z</time></trkpt><trkpt lat="41.511394" lon="14.1157852"><ele>221.0</ele><time>2026-04-26T09:28:12.936Z</time></trkpt><trkpt lat="41.5115338" lon="14.1159339"><ele>222.0</ele><time>2026-04-26T09:28:13.941Z</time></trkpt><trkpt lat="41.5116712" lon="14.1160931"><ele>222.0</ele><time>2026-04-26T09:28:14.926Z</time></trkpt><trkpt lat="41.5118036" lon="14.1162569"><ele>222.0</ele><time>2026-04-26T09:28:15.949Z</time></trkpt><trkpt lat="41.5119345" lon="14.1164266"><ele>222.0</ele><time>2026-04-26T09:28:16.937Z</time></trkpt><trkpt lat="41.5120605" lon="14.1166038"><ele>222.33333333333331</ele><time>2026-04-26T09:28:17.934Z</time></trkpt><trkpt lat="41.5121838" lon="14.1167892"><ele>222.66666666666666</ele><time>2026-04-26T09:28:18.943Z</time></trkpt><trkpt lat="41.5123067" lon="14.1169822"><ele>223.0</ele><time>2026-04-26T09:28:19.946Z</time></trkpt><trkpt lat="41.5124341" lon="14.1171866"><ele>223.0</ele><time>2026-04-26T09:28:20.936Z</time></trkpt><trkpt lat="41.5125628" lon="14.1174015"><ele>223.0</ele><time>2026-04-26T09:28:21.935Z</time></trkpt><trkpt lat="41.5126947" lon="14.1176264"><ele>223.0</ele><time>2026-04-26T09:28:22.935Z</time></trkpt><trkpt lat="41.5128304" lon="14.1178568"><ele>223.0</ele><time>2026-04-26T09:28:23.95Z</time></trkpt><trkpt lat="41.5129661" lon="14.1180906"><ele>223.0</ele><time>2026-04-26T09:28:24.942Z</time></trkpt><trkpt lat="41.5131019" lon="14.1183256"><ele>223.0</ele><time>2026-04-26T09:28:25.943Z</time></trkpt><trkpt lat="41.513236" lon="14.1185597"><ele>223.33333333333331</ele><time>2026-04-26T09:28:26.942Z</time></trkpt><trkpt lat="41.5133688" lon="14.1187919"><ele>223.66666666666669</ele><time>2026-04-26T09:28:27.936Z</time></trkpt><trkpt lat="41.5135005" lon="14.1190223"><ele>224.0</ele><time>2026-04-26T09:28:28.945Z</time></trkpt><trkpt lat="41.513631" lon="14.1192496"><ele>224.33333333333334</ele><time>2026-04-26T09:28:29.945Z</time></trkpt><trkpt lat="41.5137602" lon="14.1194739"><ele>224.66666666666669</ele><time>2026-04-26T09:28:30.939Z</time></trkpt><trkpt lat="41.5138877" lon="14.1196937"><ele>225.0</ele><time>2026-04-26T09:28:31.943Z</time></trkpt><trkpt lat="41.5140108" lon="14.1199047"><ele>225.0</ele><time>2026-04-26T09:28:32.939Z</time></trkpt><trkpt lat="41.5141283" lon="14.120108"><ele>225.0</ele><time>2026-04-26T09:28:33.933Z</time></trkpt><trkpt lat="41.5142405" lon="14.1203023"><ele>225.0</ele><time>2026-04-26T09:28:34.936Z</time></trkpt><trkpt lat="41.5143473" lon="14.1204897"><ele>225.0</ele><time>2026-04-26T09:28:35.946Z</time></trkpt><trkpt lat="41.5144475" lon="14.1206626"><ele>225.0</ele><time>2026-04-26T09:28:36.94Z</time></trkpt><trkpt lat="41.5145388" lon="14.1208199"><ele>225.0</ele><time>2026-04-26T09:28:37.931Z</time></trkpt><trkpt lat="41.5146257" lon="14.1209669"><ele>225.0</ele><time>2026-04-26T09:28:38.948Z</time></trkpt><trkpt lat="41.5147118" lon="14.1211115"><ele>225.0</ele><time>2026-04-26T09:28:39.938Z</time></trkpt><trkpt lat="41.5147982" lon="14.1212593"><ele>225.0</ele><time>2026-04-26T09:28:40.937Z</time></trkpt><trkpt lat="41.5148851" lon="14.121416"><ele>225.0</ele><time>2026-04-26T09:28:41.94Z</time></trkpt><trkpt lat="41.5149736" lon="14.1215799"><ele>225.0</ele><time>2026-04-26T09:28:42.944Z</time></trkpt><trkpt lat="41.5150636" lon="14.1217499"><ele>225.0</ele><time>2026-04-26T09:28:43.936Z</time></trkpt><trkpt lat="41.5151582" lon="14.1219262"><ele>225.0</ele><time>2026-04-26T09:28:44.945Z</time></trkpt><trkpt lat="41.5152554" lon="14.1221045"><ele>225.0</ele><time>2026-04-26T09:28:45.935Z</time></trkpt><trkpt lat="41.5153509" lon="14.1222831"><ele>225.0</ele><time>2026-04-26T09:28:46.939Z</time></trkpt><trkpt lat="41.5154425" lon="14.1224627"><ele>225.0</ele><time>2026-04-26T09:28:47.931Z</time></trkpt><trkpt lat="41.5155268" lon="14.1226359"><ele>225.0</ele><time>2026-04-26T09:28:48.948Z</time></trkpt><trkpt lat="41.5156018" lon="14.1228001"><ele>225.0</ele><time>2026-04-26T09:28:49.938Z</time></trkpt><trkpt lat="41.51567" lon="14.1229523"><ele>225.0</ele><time>2026-04-26T09:28:50.935Z</time></trkpt><trkpt lat="41.5157336" lon="14.1230987"><ele>225.0</ele><time>2026-04-26T09:28:51.939Z</time></trkpt><trkpt lat="41.5157938" lon="14.1232425"><ele>225.0</ele><time>2026-04-26T09:28:52.934Z</time></trkpt><trkpt lat="41.5158528" lon="14.1233829"><ele>225.0</ele><time>2026-04-26T09:28:53.933Z</time></trkpt><trkpt lat="41.5159107" lon="14.1235189"><ele>225.0</ele><time>2026-04-26T09:28:54.949Z</time></trkpt><trkpt lat="41.5159671" lon="14.1236551"><ele>225.0</ele><time>2026-04-26T09:28:55.942Z</time></trkpt><trkpt lat="41.5160239" lon="14.1237954"><ele>225.0</ele><time>2026-04-26T09:28:56.932Z</time></trkpt><trkpt lat="41.5160809" lon="14.1239385"><ele>225.0</ele><time>2026-04-26T09:28:57.94Z</time></trkpt><trkpt lat="41.516139" lon="14.1240827"><ele>225.0</ele><time>2026-04-26T09:28:58.937Z</time></trkpt><trkpt lat="41.5161987" lon="14.1242322"><ele>225.0</ele><time>2026-04-26T09:28:59.942Z</time></trkpt><trkpt lat="41.5162606" lon="14.1243867"><ele>225.25</ele><time>2026-04-26T09:29:00.938Z</time></trkpt><trkpt lat="41.5163254" lon="14.1245455"><ele>225.5</ele><time>2026-04-26T09:29:01.942Z</time></trkpt><trkpt lat="41.5163928" lon="14.1247065"><ele>225.75</ele><time>2026-04-26T09:29:02.944Z</time></trkpt><trkpt lat="41.5164654" lon="14.1248662"><ele>226.0</ele><time>2026-04-26T09:29:03.942Z</time></trkpt><trkpt lat="41.5165473" lon="14.1250198"><ele>226.5</ele><time>2026-04-26T09:29:04.987Z</time></trkpt><trkpt lat="41.5166405" lon="14.1251596"><ele>227.0</ele><time>2026-04-26T09:29:05.952Z</time></trkpt><trkpt lat="41.5167438" lon="14.1252789"><ele>227.5</ele><time>2026-04-26T09:29:06.945Z</time></trkpt><trkpt lat="41.5168599" lon="14.125379"><ele>228.0</ele><time>2026-04-26T09:29:07.951Z</time></trkpt><trkpt lat="41.5169632" lon="14.1254729"><ele>228.0</ele><time>2026-04-26T09:29:08.942Z</time></trkpt><trkpt lat="41.5170568" lon="14.1255593"><ele>228.0</ele><time>2026-04-26T09:29:09.94Z</time></trkpt><trkpt lat="41.5171428" lon="14.1256402"><ele>228.0</ele><time>2026-04-26T09:29:10.95Z</time></trkpt><trkpt lat="41.5172254" lon="14.1257143"><ele>228.0</ele><time>2026-04-26T09:29:11.942Z</time></trkpt><trkpt lat="41.5173105" lon="14.1257857"><ele>228.0</ele><time>2026-04-26T09:29:12.939Z</time></trkpt><trkpt lat="41.5173935" lon="14.1258578"><ele>228.2</ele><time>2026-04-26T09:29:13.933Z</time></trkpt><trkpt lat="41.5174793" lon="14.1259334"><ele>228.4</ele><time>2026-04-26T09:29:14.941Z</time></trkpt><trkpt lat="41.517567" lon="14.1260114"><ele>228.59999999999997</ele><time>2026-04-26T09:29:15.939Z</time></trkpt><trkpt lat="41.5176601" lon="14.1260931"><ele>228.79999999999998</ele><time>2026-04-26T09:29:16.934Z</time></trkpt><trkpt lat="41.5177584" lon="14.1261835"><ele>229.0</ele><time>2026-04-26T09:29:17.937Z</time></trkpt><trkpt lat="41.5178637" lon="14.1262813"><ele>229.0</ele><time>2026-04-26T09:29:18.945Z</time></trkpt><trkpt lat="41.5179755" lon="14.126381"><ele>229.0</ele><time>2026-04-26T09:29:19.961Z</time></trkpt><trkpt lat="41.5180918" lon="14.1264826"><ele>229.0</ele><time>2026-04-26T09:29:20.945Z</time></trkpt><trkpt lat="41.518215" lon="14.1265889"><ele>229.0</ele><time>2026-04-26T09:29:21.942Z</time></trkpt><trkpt lat="41.51834" lon="14.1266998"><ele>229.0</ele><time>2026-04-26T09:29:22.941Z</time></trkpt><trkpt lat="41.5184657" lon="14.1268154"><ele>229.0</ele><time>2026-04-26T09:29:23.943Z</time></trkpt><trkpt lat="41.5185927" lon="14.1269296"><ele>229.0</ele><time>2026-04-26T09:29:24.939Z</time></trkpt><trkpt lat="41.5187194" lon="14.1270474"><ele>229.33333333333331</ele><time>2026-04-26T09:29:25.951Z</time></trkpt><trkpt lat="41.5188471" lon="14.1271667"><ele>229.66666666666669</ele><time>2026-04-26T09:29:26.94Z</time></trkpt><trkpt lat="41.5189717" lon="14.127286"><ele>230.0</ele><time>2026-04-26T09:29:27.935Z</time></trkpt><trkpt lat="41.5190944" lon="14.1273997"><ele>229.25</ele><time>2026-04-26T09:29:28.94Z</time></trkpt><trkpt lat="41.5192117" lon="14.1275044"><ele>228.5</ele><time>2026-04-26T09:29:29.948Z</time></trkpt><trkpt lat="41.5193204" lon="14.1276003"><ele>227.75</ele><time>2026-04-26T09:29:30.944Z</time></trkpt><trkpt lat="41.5194224" lon="14.1276911"><ele>227.0</ele><time>2026-04-26T09:29:31.946Z</time></trkpt><trkpt lat="41.5195207" lon="14.1277796"><ele>227.6</ele><time>2026-04-26T09:29:32.941Z</time></trkpt><trkpt lat="41.5196167" lon="14.1278663"><ele>228.2</ele><time>2026-04-26T09:29:33.993Z</time></trkpt><trkpt lat="41.5197101" lon="14.1279518"><ele>228.8</ele><time>2026-04-26T09:29:34.951Z</time></trkpt><trkpt lat="41.5198009" lon="14.1280361"><ele>229.4</ele><time>2026-04-26T09:29:35.949Z</time></trkpt><trkpt lat="41.5198891" lon="14.1281176"><ele>230.0</ele><time>2026-04-26T09:29:36.943Z</time></trkpt><trkpt lat="41.5199772" lon="14.1281964"><ele>229.25</ele><time>2026-04-26T09:29:37.951Z</time></trkpt><trkpt lat="41.5200681" lon="14.1282776"><ele>228.5</ele><time>2026-04-26T09:29:38.936Z</time></trkpt><trkpt lat="41.5201622" lon="14.1283646"><ele>227.75</ele><time>2026-04-26T09:29:39.946Z</time></trkpt><trkpt lat="41.5202602" lon="14.1284538"><ele>227.0</ele><time>2026-04-26T09:29:40.943Z</time></trkpt><trkpt lat="41.5203637" lon="14.1285367"><ele>226.0</ele><time>2026-04-26T09:29:41.937Z</time></trkpt><trkpt lat="41.5204709" lon="14.1286062"><ele>225.0</ele><time>2026-04-26T09:29:42.943Z</time></trkpt><trkpt lat="41.5205828" lon="14.1286594"><ele>224.0</ele><time>2026-04-26T09:29:43.946Z</time></trkpt><trkpt lat="41.5206992" lon="14.1287038"><ele>223.0</ele><time>2026-04-26T09:29:44.943Z</time></trkpt><trkpt lat="41.5208141" lon="14.1287436"><ele>223.0</ele><time>2026-04-26T09:29:45.945Z</time></trkpt><trkpt lat="41.520923" lon="14.1287802"><ele>223.0</ele><time>2026-04-26T09:29:46.956Z</time></trkpt><trkpt lat="41.5210326" lon="14.1288156"><ele>223.0</ele><time>2026-04-26T09:29:47.935Z</time></trkpt><trkpt lat="41.5211441" lon="14.1288506"><ele>223.0</ele><time>2026-04-26T09:29:48.943Z</time></trkpt><trkpt lat="41.5212564" lon="14.1288854"><ele>223.25</ele><time>2026-04-26T09:29:49.942Z</time></trkpt><trkpt lat="41.5213683" lon="14.1289205"><ele>223.5</ele><time>2026-04-26T09:29:50.944Z</time></trkpt><trkpt lat="41.5214794" lon="14.1289554"><ele>223.75</ele><time>2026-04-26T09:29:51.934Z</time></trkpt><trkpt lat="41.5215887" lon="14.1289906"><ele>224.0</ele><time>2026-04-26T09:29:52.943Z</time></trkpt><trkpt lat="41.5216986" lon="14.129025"><ele>224.0</ele><time>2026-04-26T09:29:53.948Z</time></trkpt><trkpt lat="41.521811" lon="14.1290597"><ele>224.0</ele><time>2026-04-26T09:29:54.946Z</time></trkpt><trkpt lat="41.5219254" lon="14.1290937"><ele>224.0</ele><time>2026-04-26T09:29:55.938Z</time></trkpt><trkpt lat="41.5220402" lon="14.1291269"><ele>224.0</ele><time>2026-04-26T09:29:56.937Z</time></trkpt><trkpt lat="41.5221556" lon="14.1291589"><ele>224.5</ele><time>2026-04-26T09:29:57.946Z</time></trkpt><trkpt lat="41.5222716" lon="14.1291891"><ele>225.0</ele><time>2026-04-26T09:29:58.934Z</time></trkpt><trkpt lat="41.5223877" lon="14.1292204"><ele>225.5</ele><time>2026-04-26T09:29:59.943Z</time></trkpt><trkpt lat="41.5225025" lon="14.1292542"><ele>226.0</ele><time>2026-04-26T09:30:00.951Z</time></trkpt><trkpt lat="41.5226161" lon="14.1292894"><ele>226.0</ele><time>2026-04-26T09:30:01.939Z</time></trkpt><trkpt lat="41.5227288" lon="14.129324"><ele>226.0</ele><time>2026-04-26T09:30:02.945Z</time></trkpt><trkpt lat="41.5228441" lon="14.129359"><ele>226.0</ele><time>2026-04-26T09:30:03.948Z</time></trkpt><trkpt lat="41.5229623" lon="14.129396"><ele>226.0</ele><time>2026-04-26T09:30:04.936Z</time></trkpt><trkpt lat="41.5230858" lon="14.1294357"><ele>226.75</ele><time>2026-04-26T09:30:05.939Z</time></trkpt><trkpt lat="41.5232142" lon="14.1294759"><ele>227.5</ele><time>2026-04-26T09:30:06.941Z</time></trkpt><trkpt lat="41.5233481" lon="14.1295178"><ele>228.25</ele><time>2026-04-26T09:30:07.938Z</time></trkpt><trkpt lat="41.5234896" lon="14.1295621"><ele>229.0</ele><time>2026-04-26T09:30:08.944Z</time></trkpt><trkpt lat="41.5236368" lon="14.1296075"><ele>229.66666666666666</ele><time>2026-04-26T09:30:09.947Z</time></trkpt><trkpt lat="41.5237855" lon="14.1296514"><ele>230.33333333333331</ele><time>2026-04-26T09:30:10.937Z</time></trkpt><trkpt lat="41.5239321" lon="14.1296939"><ele>231.0</ele><time>2026-04-26T09:30:11.955Z</time></trkpt><trkpt lat="41.5240804" lon="14.1297333"><ele>231.0</ele><time>2026-04-26T09:30:12.94Z</time></trkpt><trkpt lat="41.5242295" lon="14.1297705"><ele>231.0</ele><time>2026-04-26T09:30:13.938Z</time></trkpt><trkpt lat="41.5243807" lon="14.1297998"><ele>231.0</ele><time>2026-04-26T09:30:14.963Z</time></trkpt><trkpt lat="41.5245334" lon="14.1298167"><ele>231.66666666666669</ele><time>2026-04-26T09:30:15.939Z</time></trkpt><trkpt lat="41.524689" lon="14.1298233"><ele>232.33333333333334</ele><time>2026-04-26T09:30:16.937Z</time></trkpt><trkpt lat="41.5248453" lon="14.1298252"><ele>233.0</ele><time>2026-04-26T09:30:17.943Z</time></trkpt><trkpt lat="41.5250031" lon="14.1298266"><ele>233.0</ele><time>2026-04-26T09:30:18.952Z</time></trkpt><trkpt lat="41.5251616" lon="14.1298317"><ele>233.0</ele><time>2026-04-26T09:30:19.941Z</time></trkpt><trkpt lat="41.5253218" lon="14.1298402"><ele>233.0</ele><time>2026-04-26T09:30:20.947Z</time></trkpt><trkpt lat="41.5254832" lon="14.1298488"><ele>233.66666666666669</ele><time>2026-04-26T09:30:21.944Z</time></trkpt><trkpt lat="41.5256453" lon="14.129855"><ele>234.33333333333331</ele><time>2026-04-26T09:30:22.94Z</time></trkpt><trkpt lat="41.525809" lon="14.1298604"><ele>235.0</ele><time>2026-04-26T09:30:23.938Z</time></trkpt><trkpt lat="41.5259736" lon="14.1298582"><ele>235.0</ele><time>2026-04-26T09:30:24.947Z</time></trkpt><trkpt lat="41.5261435" lon="14.1298595"><ele>235.0</ele><time>2026-04-26T09:30:25.95Z</time></trkpt><trkpt lat="41.5263061" lon="14.1298644"><ele>235.0</ele><time>2026-04-26T09:30:26.935Z</time></trkpt><trkpt lat="41.5264775" lon="14.1298699"><ele>235.66666666666666</ele><time>2026-04-26T09:30:27.943Z</time></trkpt><trkpt lat="41.5266533" lon="14.1298715"><ele>236.33333333333331</ele><time>2026-04-26T09:30:28.952Z</time></trkpt><trkpt lat="41.5268297" lon="14.1298755"><ele>237.0</ele><time>2026-04-26T09:30:29.935Z</time></trkpt><trkpt lat="41.5270101" lon="14.1298758"><ele>238.33333333333331</ele><time>2026-04-26T09:30:30.952Z</time></trkpt><trkpt lat="41.5271922" lon="14.1298765"><ele>239.66666666666666</ele><time>2026-04-26T09:30:31.94Z</time></trkpt><trkpt lat="41.5273752" lon="14.1298773"><ele>241.0</ele><time>2026-04-26T09:30:32.936Z</time></trkpt><trkpt lat="41.5275605" lon="14.1298815"><ele>241.0</ele><time>2026-04-26T09:30:33.934Z</time></trkpt><trkpt lat="41.5277426" lon="14.129885"><ele>241.0</ele><time>2026-04-26T09:30:34.94Z</time></trkpt><trkpt lat="41.5279257" lon="14.1298891"><ele>241.0</ele><time>2026-04-26T09:30:35.943Z</time></trkpt><trkpt lat="41.5281066" lon="14.1298922"><ele>237.66666666666666</ele><time>2026-04-26T09:30:36.943Z</time></trkpt><trkpt lat="41.5282798" lon="14.1298973"><ele>234.33333333333331</ele><time>2026-04-26T09:30:37.94Z</time></trkpt><trkpt lat="41.5284373" lon="14.1299008"><ele>231.0</ele><time>2026-04-26T09:30:38.947Z</time></trkpt><trkpt lat="41.5285668" lon="14.129906"><ele>231.0</ele><time>2026-04-26T09:30:39.95Z</time></trkpt><trkpt lat="41.52867" lon="14.1299137"><ele>231.00000000000003</ele><time>2026-04-26T09:30:40.941Z</time></trkpt><trkpt lat="41.528767" lon="14.1299184"><ele>231.00000000000003</ele><time>2026-04-26T09:30:41.955Z</time></trkpt><trkpt lat="41.528866" lon="14.1299193"><ele>231.0</ele><time>2026-04-26T09:30:42.951Z</time></trkpt><trkpt lat="41.5289686" lon="14.1299155"><ele>231.0</ele><time>2026-04-26T09:30:43.941Z</time></trkpt><trkpt lat="41.5290788" lon="14.12992"><ele>231.5</ele><time>2026-04-26T09:30:44.949Z</time></trkpt><trkpt lat="41.5292014" lon="14.1299333"><ele>232.0</ele><time>2026-04-26T09:30:45.955Z</time></trkpt><trkpt lat="41.5293411" lon="14.1299656"><ele>232.5</ele><time>2026-04-26T09:30:46.941Z</time></trkpt><trkpt lat="41.5294924" lon="14.1300247"><ele>233.0</ele><time>2026-04-26T09:30:47.945Z</time></trkpt><trkpt lat="41.5296412" lon="14.1301052"><ele>234.66666666666669</ele><time>2026-04-26T09:30:48.949Z</time></trkpt><trkpt lat="41.5297887" lon="14.1302014"><ele>236.33333333333331</ele><time>2026-04-26T09:30:49.939Z</time></trkpt><trkpt lat="41.5299454" lon="14.1303053"><ele>238.0</ele><time>2026-04-26T09:30:50.947Z</time></trkpt><trkpt lat="41.5301106" lon="14.1304153"><ele>238.0</ele><time>2026-04-26T09:30:51.949Z</time></trkpt><trkpt lat="41.53028" lon="14.130527"><ele>238.0</ele><time>2026-04-26T09:30:52.938Z</time></trkpt><trkpt lat="41.5304535" lon="14.1306395"><ele>238.0</ele><time>2026-04-26T09:30:53.942Z</time></trkpt><trkpt lat="41.5306289" lon="14.1307429"><ele>236.66666666666666</ele><time>2026-04-26T09:30:54.944Z</time></trkpt><trkpt lat="41.5308082" lon="14.1308357"><ele>235.33333333333331</ele><time>2026-04-26T09:30:55.943Z</time></trkpt><trkpt lat="41.5309836" lon="14.1309264"><ele>234.0</ele><time>2026-04-26T09:30:56.939Z</time></trkpt><trkpt lat="41.5311678" lon="14.1309809"><ele>235.66666666666669</ele><time>2026-04-26T09:30:57.947Z</time></trkpt><trkpt lat="41.5313578" lon="14.131021"><ele>237.33333333333334</ele><time>2026-04-26T09:30:58.944Z</time></trkpt><trkpt lat="41.5315454" lon="14.1310403"><ele>239.0</ele><time>2026-04-26T09:30:59.943Z</time></trkpt><trkpt lat="41.5317297" lon="14.1310491"><ele>239.0</ele><time>2026-04-26T09:31:00.938Z</time></trkpt><trkpt lat="41.531911" lon="14.1310517"><ele>239.0</ele><time>2026-04-26T09:31:01.935Z</time></trkpt><trkpt lat="41.5320957" lon="14.1310579"><ele>239.0</ele><time>2026-04-26T09:31:02.932Z</time></trkpt><trkpt lat="41.5322789" lon="14.1310584"><ele>239.66666666666669</ele><time>2026-04-26T09:31:03.936Z</time></trkpt><trkpt lat="41.5324606" lon="14.1310669"><ele>240.33333333333331</ele><time>2026-04-26T09:31:04.942Z</time></trkpt><trkpt lat="41.5326501" lon="14.1310753"><ele>241.0</ele><time>2026-04-26T09:31:05.935Z</time></trkpt><trkpt lat="41.532835" lon="14.1310907"><ele>241.66666666666666</ele><time>2026-04-26T09:31:06.938Z</time></trkpt><trkpt lat="41.5330153" lon="14.1311162"><ele>242.33333333333331</ele><time>2026-04-26T09:31:07.947Z</time></trkpt><trkpt lat="41.5331997" lon="14.1311491"><ele>243.0</ele><time>2026-04-26T09:31:08.941Z</time></trkpt><trkpt lat="41.5333826" lon="14.1311855"><ele>243.0</ele><time>2026-04-26T09:31:09.935Z</time></trkpt><trkpt lat="41.5335662" lon="14.1312238"><ele>243.0</ele><time>2026-04-26T09:31:10.946Z</time></trkpt><trkpt lat="41.5337486" lon="14.1312621"><ele>243.0</ele><time>2026-04-26T09:31:11.941Z</time></trkpt><trkpt lat="41.5339291" lon="14.1312939"><ele>243.0</ele><time>2026-04-26T09:31:12.941Z</time></trkpt><trkpt lat="41.5341027" lon="14.1313122"><ele>243.0</ele><time>2026-04-26T09:31:13.941Z</time></trkpt><trkpt lat="41.5342595" lon="14.1313081"><ele>243.0</ele><time>2026-04-26T09:31:14.943Z</time></trkpt><trkpt lat="41.5344094" lon="14.1312736"><ele>242.33333333333331</ele><time>2026-04-26T09:31:15.941Z</time></trkpt><trkpt lat="41.5345549" lon="14.1312089"><ele>241.66666666666666</ele><time>2026-04-26T09:31:16.949Z</time></trkpt><trkpt lat="41.534694" lon="14.1311295"><ele>241.0</ele><time>2026-04-26T09:31:17.954Z</time></trkpt><trkpt lat="41.534831" lon="14.1310431"><ele>241.0</ele><time>2026-04-26T09:31:18.949Z</time></trkpt><trkpt lat="41.5349701" lon="14.1309582"><ele>241.0</ele><time>2026-04-26T09:31:19.943Z</time></trkpt><trkpt lat="41.5351134" lon="14.1308747"><ele>241.0</ele><time>2026-04-26T09:31:20.942Z</time></trkpt><trkpt lat="41.5352593" lon="14.1307939"><ele>243.0</ele><time>2026-04-26T09:31:21.944Z</time></trkpt><trkpt lat="41.5354273" lon="14.1307052"><ele>245.0</ele><time>2026-04-26T09:31:22.938Z</time></trkpt><trkpt lat="41.5355985" lon="14.1305991"><ele>247.0</ele><time>2026-04-26T09:31:23.958Z</time></trkpt><trkpt lat="41.5357771" lon="14.1304781"><ele>247.0</ele><time>2026-04-26T09:31:24.949Z</time></trkpt><trkpt lat="41.535969" lon="14.1303484"><ele>247.0</ele><time>2026-04-26T09:31:25.934Z</time></trkpt><trkpt lat="41.5361878" lon="14.1302137"><ele>246.5</ele><time>2026-04-26T09:31:26.94Z</time></trkpt><trkpt lat="41.5364389" lon="14.1300784"><ele>246.0</ele><time>2026-04-26T09:31:27.946Z</time></trkpt><trkpt lat="41.5367003" lon="14.1299435"><ele>247.0</ele><time>2026-04-26T09:31:28.948Z</time></trkpt><trkpt lat="41.5369613" lon="14.1297984"><ele>248.0</ele><time>2026-04-26T09:31:29.945Z</time></trkpt><trkpt lat="41.5372184" lon="14.1296502"><ele>248.0</ele><time>2026-04-26T09:31:30.95Z</time></trkpt><trkpt lat="41.5374692" lon="14.1295009"><ele>248.0</ele><time>2026-04-26T09:31:31.948Z</time></trkpt><trkpt lat="41.5377135" lon="14.1293561"><ele>249.0</ele><time>2026-04-26T09:31:32.94Z</time></trkpt><trkpt lat="41.5379491" lon="14.1292158"><ele>250.0</ele><time>2026-04-26T09:31:33.946Z</time></trkpt><trkpt lat="41.5381782" lon="14.1290804"><ele>251.5</ele><time>2026-04-26T09:31:34.95Z</time></trkpt><trkpt lat="41.5384025" lon="14.128947"><ele>253.0</ele><time>2026-04-26T09:31:35.946Z</time></trkpt><trkpt lat="41.5386214" lon="14.1288164"><ele>253.5</ele><time>2026-04-26T09:31:36.948Z</time></trkpt><trkpt lat="41.5388362" lon="14.1286861"><ele>254.0</ele><time>2026-04-26T09:31:37.944Z</time></trkpt><trkpt lat="41.539046" lon="14.1285581"><ele>254.0</ele><time>2026-04-26T09:31:38.947Z</time></trkpt><trkpt lat="41.539247" lon="14.1284353"><ele>254.0</ele><time>2026-04-26T09:31:39.951Z</time></trkpt><trkpt lat="41.5394341" lon="14.1283226"><ele>254.0</ele><time>2026-04-26T09:31:40.938Z</time></trkpt><trkpt lat="41.5396046" lon="14.1282224"><ele>254.0</ele><time>2026-04-26T09:31:41.941Z</time></trkpt><trkpt lat="41.5397625" lon="14.1281289"><ele>254.0</ele><time>2026-04-26T09:31:42.942Z</time></trkpt><trkpt lat="41.5399166" lon="14.1280322"><ele>254.0</ele><time>2026-04-26T09:31:43.947Z</time></trkpt><trkpt lat="41.5400733" lon="14.127931"><ele>254.0</ele><time>2026-04-26T09:31:44.94Z</time></trkpt><trkpt lat="41.5402348" lon="14.127831"><ele>254.0</ele><time>2026-04-26T09:31:45.943Z</time></trkpt><trkpt lat="41.5404035" lon="14.1277375"><ele>254.0</ele><time>2026-04-26T09:31:46.939Z</time></trkpt><trkpt lat="41.5405759" lon="14.1276445"><ele>254.66666666666669</ele><time>2026-04-26T09:31:47.942Z</time></trkpt><trkpt lat="41.5407457" lon="14.1275432"><ele>255.33333333333331</ele><time>2026-04-26T09:31:48.938Z</time></trkpt><trkpt lat="41.5409136" lon="14.1274353"><ele>256.0</ele><time>2026-04-26T09:31:49.945Z</time></trkpt><trkpt lat="41.5410831" lon="14.1273291"><ele>257.3333333333333</ele><time>2026-04-26T09:31:50.942Z</time></trkpt><trkpt lat="41.5412563" lon="14.1272286"><ele>258.6666666666667</ele><time>2026-04-26T09:31:51.944Z</time></trkpt><trkpt lat="41.5414318" lon="14.1271311"><ele>260.0</ele><time>2026-04-26T09:31:52.94Z</time></trkpt><trkpt lat="41.5416098" lon="14.1270352"><ele>260.0</ele><time>2026-04-26T09:31:53.948Z</time></trkpt><trkpt lat="41.5417876" lon="14.1269368"><ele>260.0</ele><time>2026-04-26T09:31:54.946Z</time></trkpt><trkpt lat="41.5419684" lon="14.1268341"><ele>260.0</ele><time>2026-04-26T09:31:55.942Z</time></trkpt><trkpt lat="41.5421512" lon="14.1267276"><ele>260.33333333333337</ele><time>2026-04-26T09:31:56.939Z</time></trkpt><trkpt lat="41.5423361" lon="14.1266196"><ele>260.6666666666667</ele><time>2026-04-26T09:31:57.944Z</time></trkpt><trkpt lat="41.542524" lon="14.1265111"><ele>261.0</ele><time>2026-04-26T09:31:58.946Z</time></trkpt><trkpt lat="41.5427106" lon="14.1264043"><ele>260.3333333333333</ele><time>2026-04-26T09:31:59.935Z</time></trkpt><trkpt lat="41.5428935" lon="14.1263004"><ele>259.66666666666663</ele><time>2026-04-26T09:32:00.947Z</time></trkpt><trkpt lat="41.5430739" lon="14.1261981"><ele>259.0</ele><time>2026-04-26T09:32:01.949Z</time></trkpt><trkpt lat="41.543254" lon="14.1260965"><ele>259.0</ele><time>2026-04-26T09:32:02.934Z</time></trkpt><trkpt lat="41.5434332" lon="14.1259923"><ele>259.0</ele><time>2026-04-26T09:32:03.947Z</time></trkpt><trkpt lat="41.5436137" lon="14.1258855"><ele>259.0</ele><time>2026-04-26T09:32:04.94Z</time></trkpt><trkpt lat="41.5437956" lon="14.125778"><ele>258.66666666666663</ele><time>2026-04-26T09:32:05.935Z</time></trkpt><trkpt lat="41.5439816" lon="14.12567"><ele>258.3333333333333</ele><time>2026-04-26T09:32:06.946Z</time></trkpt><trkpt lat="41.5441723" lon="14.1255608"><ele>258.0</ele><time>2026-04-26T09:32:07.946Z</time></trkpt><trkpt lat="41.5443658" lon="14.1254484"><ele>259.3333333333333</ele><time>2026-04-26T09:32:08.935Z</time></trkpt><trkpt lat="41.5445595" lon="14.1253312"><ele>260.66666666666663</ele><time>2026-04-26T09:32:09.952Z</time></trkpt><trkpt lat="41.5447529" lon="14.1252116"><ele>262.0</ele><time>2026-04-26T09:32:10.947Z</time></trkpt><trkpt lat="41.5449473" lon="14.1250922"><ele>262.0</ele><time>2026-04-26T09:32:11.936Z</time></trkpt><trkpt lat="41.5451428" lon="14.1249745"><ele>262.0</ele><time>2026-04-26T09:32:12.949Z</time></trkpt><trkpt lat="41.5453394" lon="14.1248578"><ele>262.0</ele><time>2026-04-26T09:32:13.951Z</time></trkpt><trkpt lat="41.5455367" lon="14.1247414"><ele>262.66666666666663</ele><time>2026-04-26T09:32:14.942Z</time></trkpt><trkpt lat="41.5457342" lon="14.1246245"><ele>263.3333333333333</ele><time>2026-04-26T09:32:15.936Z</time></trkpt><trkpt lat="41.5459318" lon="14.1245075"><ele>264.0</ele><time>2026-04-26T09:32:16.948Z</time></trkpt><trkpt lat="41.5461305" lon="14.1243902"><ele>264.3333333333333</ele><time>2026-04-26T09:32:17.945Z</time></trkpt><trkpt lat="41.546329" lon="14.1242731"><ele>264.66666666666663</ele><time>2026-04-26T09:32:18.943Z</time></trkpt><trkpt lat="41.5465277" lon="14.1241566"><ele>265.0</ele><time>2026-04-26T09:32:19.946Z</time></trkpt><trkpt lat="41.5467272" lon="14.1240408"><ele>265.0</ele><time>2026-04-26T09:32:20.945Z</time></trkpt><trkpt lat="41.5469265" lon="14.1239263"><ele>265.0</ele><time>2026-04-26T09:32:21.948Z</time></trkpt><trkpt lat="41.5471263" lon="14.1238114"><ele>265.0</ele><time>2026-04-26T09:32:22.95Z</time></trkpt><trkpt lat="41.5473258" lon="14.123696"><ele>265.0</ele><time>2026-04-26T09:32:23.938Z</time></trkpt><trkpt lat="41.5475242" lon="14.1235809"><ele>265.0</ele><time>2026-04-26T09:32:24.949Z</time></trkpt><trkpt lat="41.5477221" lon="14.1234657"><ele>265.0</ele><time>2026-04-26T09:32:25.947Z</time></trkpt><trkpt lat="41.5479194" lon="14.1233503"><ele>265.3333333333333</ele><time>2026-04-26T09:32:26.942Z</time></trkpt><trkpt lat="41.5481164" lon="14.1232353"><ele>265.6666666666667</ele><time>2026-04-26T09:32:27.941Z</time></trkpt><trkpt lat="41.5483136" lon="14.1231196"><ele>266.0</ele><time>2026-04-26T09:32:28.95Z</time></trkpt><trkpt lat="41.5485112" lon="14.1230039"><ele>266.6666666666667</ele><time>2026-04-26T09:32:29.94Z</time></trkpt><trkpt lat="41.5487095" lon="14.1228863"><ele>267.3333333333333</ele><time>2026-04-26T09:32:30.935Z</time></trkpt><trkpt lat="41.5489095" lon="14.1227663"><ele>268.0</ele><time>2026-04-26T09:32:31.942Z</time></trkpt><trkpt lat="41.5491114" lon="14.1226461"><ele>268.0</ele><time>2026-04-26T09:32:32.941Z</time></trkpt><trkpt lat="41.5493154" lon="14.1225261"><ele>268.0</ele><time>2026-04-26T09:32:33.94Z</time></trkpt><trkpt lat="41.5495203" lon="14.1224038"><ele>268.0</ele><time>2026-04-26T09:32:34.951Z</time></trkpt><trkpt lat="41.5497261" lon="14.1222791"><ele>269.5</ele><time>2026-04-26T09:32:35.941Z</time></trkpt><trkpt lat="41.5499335" lon="14.1221535"><ele>271.0</ele><time>2026-04-26T09:32:36.935Z</time></trkpt><trkpt lat="41.550142" lon="14.1220289"><ele>271.0</ele><time>2026-04-26T09:32:37.947Z</time></trkpt><trkpt lat="41.5503509" lon="14.1219066"><ele>271.0</ele><time>2026-04-26T09:32:38.944Z</time></trkpt><trkpt lat="41.5505603" lon="14.1217897"><ele>272.5</ele><time>2026-04-26T09:32:39.978Z</time></trkpt><trkpt lat="41.55077" lon="14.1216787"><ele>274.0</ele><time>2026-04-26T09:32:40.945Z</time></trkpt><trkpt lat="41.5509818" lon="14.1215775"><ele>274.3333333333333</ele><time>2026-04-26T09:32:41.944Z</time></trkpt><trkpt lat="41.5511935" lon="14.1214839"><ele>274.6666666666667</ele><time>2026-04-26T09:32:42.946Z</time></trkpt><trkpt lat="41.5514049" lon="14.1213946"><ele>275.0</ele><time>2026-04-26T09:32:43.942Z</time></trkpt><trkpt lat="41.5516145" lon="14.1213065"><ele>276.0</ele><time>2026-04-26T09:32:44.944Z</time></trkpt><trkpt lat="41.5518227" lon="14.1212189"><ele>277.0</ele><time>2026-04-26T09:32:45.945Z</time></trkpt><trkpt lat="41.5520304" lon="14.1211309"><ele>278.0</ele><time>2026-04-26T09:32:46.946Z</time></trkpt><trkpt lat="41.5522344" lon="14.1210447"><ele>279.33333333333337</ele><time>2026-04-26T09:32:47.936Z</time></trkpt><trkpt lat="41.5524341" lon="14.1209593"><ele>280.6666666666667</ele><time>2026-04-26T09:32:48.937Z</time></trkpt><trkpt lat="41.5526274" lon="14.1208746"><ele>282.0</ele><time>2026-04-26T09:32:49.945Z</time></trkpt><trkpt lat="41.5528182" lon="14.1207904"><ele>283.3333333333333</ele><time>2026-04-26T09:32:50.936Z</time></trkpt><trkpt lat="41.5530086" lon="14.1207086"><ele>284.66666666666663</ele><time>2026-04-26T09:32:51.936Z</time></trkpt><trkpt lat="41.5531993" lon="14.1206264"><ele>286.0</ele><time>2026-04-26T09:32:52.947Z</time></trkpt><trkpt lat="41.5533905" lon="14.1205457"><ele>286.0</ele><time>2026-04-26T09:32:53.935Z</time></trkpt><trkpt lat="41.5535817" lon="14.1204711"><ele>286.0</ele><time>2026-04-26T09:32:54.95Z</time></trkpt><trkpt lat="41.5537741" lon="14.1204117"><ele>286.0</ele><time>2026-04-26T09:32:55.946Z</time></trkpt><trkpt lat="41.5539671" lon="14.120377"><ele>289.66666666666663</ele><time>2026-04-26T09:32:56.936Z</time></trkpt><trkpt lat="41.5541577" lon="14.1203694"><ele>293.3333333333333</ele><time>2026-04-26T09:32:57.931Z</time></trkpt><trkpt lat="41.554344" lon="14.1203793"><ele>297.0</ele><time>2026-04-26T09:32:58.949Z</time></trkpt><trkpt lat="41.5545255" lon="14.1203844"><ele>298.6666666666667</ele><time>2026-04-26T09:32:59.946Z</time></trkpt><trkpt lat="41.554699" lon="14.1203503"><ele>300.33333333333337</ele><time>2026-04-26T09:33:00.939Z</time></trkpt><trkpt lat="41.5548576" lon="14.1202621"><ele>302.0</ele><time>2026-04-26T09:33:01.95Z</time></trkpt><trkpt lat="41.5550086" lon="14.1201287"><ele>302.0</ele><time>2026-04-26T09:33:02.946Z</time></trkpt><trkpt lat="41.5551822" lon="14.1199696"><ele>302.0</ele><time>2026-04-26T09:33:03.93Z</time></trkpt><trkpt lat="41.5553683" lon="14.1197938"><ele>302.0</ele><time>2026-04-26T09:33:04.937Z</time></trkpt><trkpt lat="41.5555871" lon="14.1196252"><ele>305.0</ele><time>2026-04-26T09:33:05.938Z</time></trkpt><trkpt lat="41.5558041" lon="14.1194453"><ele>308.0</ele><time>2026-04-26T09:33:06.936Z</time></trkpt><trkpt lat="41.5560155" lon="14.1192655"><ele>310.5</ele><time>2026-04-26T09:33:07.939Z</time></trkpt><trkpt lat="41.5562223" lon="14.1190865"><ele>313.0</ele><time>2026-04-26T09:33:08.941Z</time></trkpt><trkpt lat="41.5564171" lon="14.1189038"><ele>316.0</ele><time>2026-04-26T09:33:09.938Z</time></trkpt><trkpt lat="41.5565913" lon="14.118704"><ele>319.0</ele><time>2026-04-26T09:33:10.943Z</time></trkpt><trkpt lat="41.5567448" lon="14.118474"><ele>322.5</ele><time>2026-04-26T09:33:11.941Z</time></trkpt><trkpt lat="41.5568874" lon="14.1182299"><ele>326.0</ele><time>2026-04-26T09:33:12.939Z</time></trkpt><trkpt lat="41.5570273" lon="14.1179717"><ele>324.0</ele><time>2026-04-26T09:33:13.946Z</time></trkpt><trkpt lat="41.5571711" lon="14.1177124"><ele>322.0</ele><time>2026-04-26T09:33:14.937Z</time></trkpt><trkpt lat="41.5573203" lon="14.1174493"><ele>325.0</ele><time>2026-04-26T09:33:15.931Z</time></trkpt><trkpt lat="41.5574686" lon="14.1171885"><ele>328.0</ele><time>2026-04-26T09:33:16.936Z</time></trkpt><trkpt lat="41.557613" lon="14.1169306"><ele>328.0</ele><time>2026-04-26T09:33:17.942Z</time></trkpt><trkpt lat="41.5577472" lon="14.116668"><ele>328.0</ele><time>2026-04-26T09:33:18.935Z</time></trkpt><trkpt lat="41.5578659" lon="14.1163949"><ele>328.5</ele><time>2026-04-26T09:33:19.947Z</time></trkpt><trkpt lat="41.5579671" lon="14.1161146"><ele>329.0</ele><time>2026-04-26T09:33:20.941Z</time></trkpt><trkpt lat="41.5580588" lon="14.1158365"><ele>327.6666666666667</ele><time>2026-04-26T09:33:21.935Z</time></trkpt><trkpt lat="41.5581436" lon="14.1155771"><ele>326.3333333333333</ele><time>2026-04-26T09:33:22.944Z</time></trkpt><trkpt lat="41.5582221" lon="14.115343"><ele>325.0</ele><time>2026-04-26T09:33:23.947Z</time></trkpt><trkpt lat="41.5582972" lon="14.1151368"><ele>325.0</ele><time>2026-04-26T09:33:24.931Z</time></trkpt><trkpt lat="41.5583758" lon="14.1149496"><ele>325.0</ele><time>2026-04-26T09:33:25.937Z</time></trkpt><trkpt lat="41.5584628" lon="14.1147858"><ele>325.0</ele><time>2026-04-26T09:33:26.943Z</time></trkpt><trkpt lat="41.5585728" lon="14.1146644"><ele>327.3333333333333</ele><time>2026-04-26T09:33:27.942Z</time></trkpt><trkpt lat="41.5587054" lon="14.1145847"><ele>329.6666666666667</ele><time>2026-04-26T09:33:28.939Z</time></trkpt><trkpt lat="41.5588561" lon="14.1145487"><ele>332.0</ele><time>2026-04-26T09:33:29.942Z</time></trkpt><trkpt lat="41.5590158" lon="14.1145449"><ele>332.0</ele><time>2026-04-26T09:33:30.941Z</time></trkpt><trkpt lat="41.5591848" lon="14.1145693"><ele>332.0</ele><time>2026-04-26T09:33:31.944Z</time></trkpt><trkpt lat="41.5593553" lon="14.1146175"><ele>332.0</ele><time>2026-04-26T09:33:32.934Z</time></trkpt><trkpt lat="41.5595214" lon="14.1146999"><ele>333.0</ele><time>2026-04-26T09:33:33.941Z</time></trkpt><trkpt lat="41.5596703" lon="14.1148063"><ele>334.0</ele><time>2026-04-26T09:33:34.942Z</time></trkpt><trkpt lat="41.5597977" lon="14.1149144"><ele>335.0</ele><time>2026-04-26T09:33:35.939Z</time></trkpt><trkpt lat="41.5598751" lon="14.1150488"><ele>336.0</ele><time>2026-04-26T09:33:36.938Z</time></trkpt><trkpt lat="41.5599177" lon="14.1152046"><ele>336.0</ele><time>2026-04-26T09:33:37.947Z</time></trkpt><trkpt lat="41.5599222" lon="14.1153802"><ele>336.0</ele><time>2026-04-26T09:33:38.939Z</time></trkpt><trkpt lat="41.5599073" lon="14.115568"><ele>336.0</ele><time>2026-04-26T09:33:39.944Z</time></trkpt><trkpt lat="41.5598806" lon="14.1157763"><ele>336.0</ele><time>2026-04-26T09:33:40.947Z</time></trkpt><trkpt lat="41.5598565" lon="14.1160049"><ele>336.0</ele><time>2026-04-26T09:33:41.941Z</time></trkpt><trkpt lat="41.5598299" lon="14.1162412"><ele>336.0</ele><time>2026-04-26T09:33:42.938Z</time></trkpt><trkpt lat="41.5598075" lon="14.1164939"><ele>336.0</ele><time>2026-04-26T09:33:43.949Z</time></trkpt><trkpt lat="41.5597711" lon="14.1167549"><ele>336.0</ele><time>2026-04-26T09:33:44.944Z</time></trkpt><trkpt lat="41.5597362" lon="14.1170272"><ele>336.0</ele><time>2026-04-26T09:33:45.929Z</time></trkpt><trkpt lat="41.5597039" lon="14.1172991"><ele>336.0</ele><time>2026-04-26T09:33:46.938Z</time></trkpt><trkpt lat="41.5596735" lon="14.1175604"><ele>338.3333333333333</ele><time>2026-04-26T09:33:47.947Z</time></trkpt><trkpt lat="41.5596534" lon="14.1178093"><ele>340.66666666666663</ele><time>2026-04-26T09:33:48.94Z</time></trkpt><trkpt lat="41.5596542" lon="14.1180505"><ele>343.0</ele><time>2026-04-26T09:33:49.942Z</time></trkpt><trkpt lat="41.55968" lon="14.1182787"><ele>343.0</ele><time>2026-04-26T09:33:50.939Z</time></trkpt><trkpt lat="41.5597281" lon="14.1184982"><ele>343.0</ele><time>2026-04-26T09:33:51.954Z</time></trkpt><trkpt lat="41.559796" lon="14.118705"><ele>343.0</ele><time>2026-04-26T09:33:52.943Z</time></trkpt><trkpt lat="41.5598873" lon="14.1188862"><ele>343.0</ele><time>2026-04-26T09:33:53.941Z</time></trkpt><trkpt lat="41.5600027" lon="14.1190384"><ele>343.0</ele><time>2026-04-26T09:33:54.943Z</time></trkpt><trkpt lat="41.5601405" lon="14.1191596"><ele>343.0</ele><time>2026-04-26T09:33:55.942Z</time></trkpt><trkpt lat="41.5602932" lon="14.119259"><ele>342.66666666666663</ele><time>2026-04-26T09:33:56.951Z</time></trkpt><trkpt lat="41.5604583" lon="14.1193402"><ele>342.3333333333333</ele><time>2026-04-26T09:33:57.941Z</time></trkpt><trkpt lat="41.5606341" lon="14.1193961"><ele>342.0</ele><time>2026-04-26T09:33:58.939Z</time></trkpt><trkpt lat="41.5608218" lon="14.1194176"><ele>342.0</ele><time>2026-04-26T09:33:59.955Z</time></trkpt><trkpt lat="41.5610172" lon="14.1194119"><ele>342.0</ele><time>2026-04-26T09:34:00.937Z</time></trkpt><trkpt lat="41.5612188" lon="14.1193803"><ele>342.0</ele><time>2026-04-26T09:34:01.94Z</time></trkpt><trkpt lat="41.5614204" lon="14.119319"><ele>340.0</ele><time>2026-04-26T09:34:02.947Z</time></trkpt><trkpt lat="41.5616192" lon="14.1192328"><ele>338.0</ele><time>2026-04-26T09:34:03.949Z</time></trkpt><trkpt lat="41.5618136" lon="14.1191378"><ele>336.0</ele><time>2026-04-26T09:34:04.935Z</time></trkpt><trkpt lat="41.5620001" lon="14.119045"><ele>341.3333333333333</ele><time>2026-04-26T09:34:05.95Z</time></trkpt><trkpt lat="41.5621769" lon="14.1189667"><ele>346.66666666666663</ele><time>2026-04-26T09:34:06.94Z</time></trkpt><trkpt lat="41.5623462" lon="14.1189147"><ele>352.0</ele><time>2026-04-26T09:34:07.949Z</time></trkpt><trkpt lat="41.5625076" lon="14.1189006"><ele>352.0</ele><time>2026-04-26T09:34:08.944Z</time></trkpt><trkpt lat="41.5626611" lon="14.1189301"><ele>352.0</ele><time>2026-04-26T09:34:09.945Z</time></trkpt><trkpt lat="41.5628055" lon="14.1190077"><ele>352.0</ele><time>2026-04-26T09:34:10.94Z</time></trkpt><trkpt lat="41.562934" lon="14.1191343"><ele>348.0</ele><time>2026-04-26T09:34:11.933Z</time></trkpt><trkpt lat="41.5630506" lon="14.1192995"><ele>344.0</ele><time>2026-04-26T09:34:12.94Z</time></trkpt><trkpt lat="41.5631667" lon="14.1194844"><ele>340.0</ele><time>2026-04-26T09:34:13.945Z</time></trkpt><trkpt lat="41.5632941" lon="14.1196766"><ele>340.0</ele><time>2026-04-26T09:34:14.942Z</time></trkpt><trkpt lat="41.5634411" lon="14.1198667"><ele>340.0</ele><time>2026-04-26T09:34:15.948Z</time></trkpt><trkpt lat="41.5636066" lon="14.1200458"><ele>340.0</ele><time>2026-04-26T09:34:16.937Z</time></trkpt><trkpt lat="41.5637837" lon="14.120215"><ele>339.3333333333333</ele><time>2026-04-26T09:34:17.941Z</time></trkpt><trkpt lat="41.5639671" lon="14.1203851"><ele>338.6666666666667</ele><time>2026-04-26T09:34:18.936Z</time></trkpt><trkpt lat="41.5641503" lon="14.1205581"><ele>338.0</ele><time>2026-04-26T09:34:19.943Z</time></trkpt><trkpt lat="41.5643311" lon="14.120719"><ele>335.6666666666667</ele><time>2026-04-26T09:34:20.938Z</time></trkpt><trkpt lat="41.5645168" lon="14.1208577"><ele>333.3333333333333</ele><time>2026-04-26T09:34:21.936Z</time></trkpt><trkpt lat="41.5647157" lon="14.1209598"><ele>331.0</ele><time>2026-04-26T09:34:22.944Z</time></trkpt><trkpt lat="41.564923" lon="14.1210368"><ele>331.0</ele><time>2026-04-26T09:34:23.94Z</time></trkpt><trkpt lat="41.5651332" lon="14.1211021"><ele>331.0</ele><time>2026-04-26T09:34:24.942Z</time></trkpt><trkpt lat="41.5653441" lon="14.1211653"><ele>331.0</ele><time>2026-04-26T09:34:25.944Z</time></trkpt><trkpt lat="41.5655576" lon="14.1212275"><ele>333.3333333333333</ele><time>2026-04-26T09:34:26.961Z</time></trkpt><trkpt lat="41.5657706" lon="14.1212879"><ele>335.6666666666667</ele><time>2026-04-26T09:34:27.943Z</time></trkpt><trkpt lat="41.5659828" lon="14.1213493"><ele>338.0</ele><time>2026-04-26T09:34:28.939Z</time></trkpt><trkpt lat="41.5661885" lon="14.1214081"><ele>337.33333333333337</ele><time>2026-04-26T09:34:29.939Z</time></trkpt><trkpt lat="41.566385" lon="14.1214576"><ele>336.6666666666667</ele><time>2026-04-26T09:34:30.946Z</time></trkpt><trkpt lat="41.5665787" lon="14.1214834"><ele>336.0</ele><time>2026-04-26T09:34:31.94Z</time></trkpt><trkpt lat="41.5667674" lon="14.1214729"><ele>336.0</ele><time>2026-04-26T09:34:32.937Z</time></trkpt><trkpt lat="41.5669432" lon="14.121421"><ele>336.0</ele><time>2026-04-26T09:34:33.945Z</time></trkpt><trkpt lat="41.5670933" lon="14.1213238"><ele>336.0</ele><time>2026-04-26T09:34:34.947Z</time></trkpt><trkpt lat="41.5672147" lon="14.1211792"><ele>334.0</ele><time>2026-04-26T09:34:35.944Z</time></trkpt><trkpt lat="41.5673067" lon="14.1209961"><ele>332.0</ele><time>2026-04-26T09:34:36.946Z</time></trkpt><trkpt lat="41.5673811" lon="14.1207899"><ele>330.0</ele><time>2026-04-26T09:34:37.943Z</time></trkpt><trkpt lat="41.5674535" lon="14.1205702"><ele>330.0</ele><time>2026-04-26T09:34:38.951Z</time></trkpt><trkpt lat="41.5675326" lon="14.1203468"><ele>330.0</ele><time>2026-04-26T09:34:39.945Z</time></trkpt><trkpt lat="41.5676251" lon="14.1201319"><ele>330.0</ele><time>2026-04-26T09:34:40.939Z</time></trkpt><trkpt lat="41.5677367" lon="14.1199392"><ele>331.3333333333333</ele><time>2026-04-26T09:34:41.937Z</time></trkpt><trkpt lat="41.5678695" lon="14.1197793"><ele>332.66666666666663</ele><time>2026-04-26T09:34:42.939Z</time></trkpt><trkpt lat="41.5680228" lon="14.1196582"><ele>334.0</ele><time>2026-04-26T09:34:43.938Z</time></trkpt><trkpt lat="41.5681929" lon="14.1195647"><ele>334.0</ele><time>2026-04-26T09:34:44.938Z</time></trkpt><trkpt lat="41.568383" lon="14.1194819"><ele>334.0</ele><time>2026-04-26T09:34:45.945Z</time></trkpt><trkpt lat="41.5685922" lon="14.1194058"><ele>334.0</ele><time>2026-04-26T09:34:46.931Z</time></trkpt><trkpt lat="41.5688192" lon="14.1193375"><ele>331.0</ele><time>2026-04-26T09:34:47.944Z</time></trkpt><trkpt lat="41.569051" lon="14.1192728"><ele>328.0</ele><time>2026-04-26T09:34:48.942Z</time></trkpt><trkpt lat="41.5692859" lon="14.1192146"><ele>328.0</ele><time>2026-04-26T09:34:49.932Z</time></trkpt><trkpt lat="41.5695077" lon="14.1191478"><ele>328.0</ele><time>2026-04-26T09:34:50.946Z</time></trkpt><trkpt lat="41.5697141" lon="14.1190831"><ele>328.0</ele><time>2026-04-26T09:34:51.947Z</time></trkpt><trkpt lat="41.5699028" lon="14.1190022"><ele>329.3333333333333</ele><time>2026-04-26T09:34:52.939Z</time></trkpt><trkpt lat="41.570076" lon="14.1188752"><ele>330.6666666666667</ele><time>2026-04-26T09:34:53.945Z</time></trkpt><trkpt lat="41.5702373" lon="14.1187236"><ele>332.0</ele><time>2026-04-26T09:34:54.941Z</time></trkpt><trkpt lat="41.5703731" lon="14.1185389"><ele>329.0</ele><time>2026-04-26T09:34:55.937Z</time></trkpt><trkpt lat="41.5705012" lon="14.1183305"><ele>326.0</ele><time>2026-04-26T09:34:56.949Z</time></trkpt><trkpt lat="41.5705873" lon="14.1180831"><ele>323.0</ele><time>2026-04-26T09:34:57.949Z</time></trkpt><trkpt lat="41.5706534" lon="14.1178202"><ele>323.0</ele><time>2026-04-26T09:34:58.944Z</time></trkpt><trkpt lat="41.5707186" lon="14.1175776"><ele>323.0</ele><time>2026-04-26T09:34:59.935Z</time></trkpt><trkpt lat="41.5707885" lon="14.117361"><ele>323.0</ele><time>2026-04-26T09:35:00.949Z</time></trkpt><trkpt lat="41.5708782" lon="14.1171838"><ele>323.25</ele><time>2026-04-26T09:35:01.939Z</time></trkpt><trkpt lat="41.5709922" lon="14.1170592"><ele>323.5</ele><time>2026-04-26T09:35:02.934Z</time></trkpt><trkpt lat="41.5711233" lon="14.1169726"><ele>323.75</ele><time>2026-04-26T09:35:03.945Z</time></trkpt><trkpt lat="41.5712744" lon="14.1169334"><ele>324.0</ele><time>2026-04-26T09:35:04.952Z</time></trkpt><trkpt lat="41.5714399" lon="14.1169335"><ele>324.0</ele><time>2026-04-26T09:35:05.941Z</time></trkpt><trkpt lat="41.5716194" lon="14.116971"><ele>324.0</ele><time>2026-04-26T09:35:06.948Z</time></trkpt><trkpt lat="41.5718081" lon="14.1170215"><ele>324.0</ele><time>2026-04-26T09:35:07.936Z</time></trkpt><trkpt lat="41.5720051" lon="14.1170889"><ele>324.3333333333333</ele><time>2026-04-26T09:35:08.942Z</time></trkpt><trkpt lat="41.5722064" lon="14.1171691"><ele>324.66666666666663</ele><time>2026-04-26T09:35:09.941Z</time></trkpt><trkpt lat="41.5724077" lon="14.1172428"><ele>325.0</ele><time>2026-04-26T09:35:10.959Z</time></trkpt><trkpt lat="41.572594" lon="14.1173106"><ele>325.0</ele><time>2026-04-26T09:35:11.951Z</time></trkpt><trkpt lat="41.5727621" lon="14.117378"><ele>325.0</ele><time>2026-04-26T09:35:12.944Z</time></trkpt><trkpt lat="41.5729107" lon="14.1174598"><ele>325.0</ele><time>2026-04-26T09:35:13.949Z</time></trkpt><trkpt lat="41.5730386" lon="14.1175735"><ele>326.3333333333333</ele><time>2026-04-26T09:35:14.938Z</time></trkpt><trkpt lat="41.5731354" lon="14.1177233"><ele>327.6666666666667</ele><time>2026-04-26T09:35:15.934Z</time></trkpt><trkpt lat="41.5732323" lon="14.1178826"><ele>329.0</ele><time>2026-04-26T09:35:16.953Z</time></trkpt><trkpt lat="41.5732804" lon="14.1180907"><ele>327.6666666666667</ele><time>2026-04-26T09:35:17.947Z</time></trkpt><trkpt lat="41.5732933" lon="14.1183109"><ele>326.3333333333333</ele><time>2026-04-26T09:35:18.938Z</time></trkpt><trkpt lat="41.5732767" lon="14.1185409"><ele>325.0</ele><time>2026-04-26T09:35:19.941Z</time></trkpt><trkpt lat="41.5732522" lon="14.1187912"><ele>325.0</ele><time>2026-04-26T09:35:20.936Z</time></trkpt><trkpt lat="41.5732203" lon="14.119061"><ele>325.0</ele><time>2026-04-26T09:35:21.942Z</time></trkpt><trkpt lat="41.5731908" lon="14.1193486"><ele>325.0</ele><time>2026-04-26T09:35:22.946Z</time></trkpt><trkpt lat="41.5731584" lon="14.1196477"><ele>323.0</ele><time>2026-04-26T09:35:23.936Z</time></trkpt><trkpt lat="41.5731212" lon="14.1199555"><ele>321.0</ele><time>2026-04-26T09:35:24.94Z</time></trkpt><trkpt lat="41.5730841" lon="14.1202682"><ele>321.0</ele><time>2026-04-26T09:35:25.94Z</time></trkpt><trkpt lat="41.5730501" lon="14.1205759"><ele>321.0</ele><time>2026-04-26T09:35:26.939Z</time></trkpt><trkpt lat="41.5730182" lon="14.1208723"><ele>319.6666666666667</ele><time>2026-04-26T09:35:27.935Z</time></trkpt><trkpt lat="41.5729846" lon="14.1211519"><ele>318.33333333333337</ele><time>2026-04-26T09:35:28.94Z</time></trkpt><trkpt lat="41.5729552" lon="14.1214085"><ele>317.0</ele><time>2026-04-26T09:35:29.943Z</time></trkpt><trkpt lat="41.5729313" lon="14.1216433"><ele>316.0</ele><time>2026-04-26T09:35:30.943Z</time></trkpt><trkpt lat="41.5729341" lon="14.1218634"><ele>315.0</ele><time>2026-04-26T09:35:31.942Z</time></trkpt><trkpt lat="41.5729723" lon="14.1220717"><ele>314.0</ele><time>2026-04-26T09:35:32.94Z</time></trkpt><trkpt lat="41.5730493" lon="14.1222569"><ele>310.0</ele><time>2026-04-26T09:35:33.945Z</time></trkpt><trkpt lat="41.5731617" lon="14.1224086"><ele>306.0</ele><time>2026-04-26T09:35:34.938Z</time></trkpt><trkpt lat="41.5733007" lon="14.1225133"><ele>302.0</ele><time>2026-04-26T09:35:35.941Z</time></trkpt><trkpt lat="41.5734489" lon="14.1225923"><ele>302.0</ele><time>2026-04-26T09:35:36.959Z</time></trkpt><trkpt lat="41.5736225" lon="14.1226137"><ele>302.0</ele><time>2026-04-26T09:35:37.942Z</time></trkpt><trkpt lat="41.5738046" lon="14.1226565"><ele>302.0</ele><time>2026-04-26T09:35:38.942Z</time></trkpt><trkpt lat="41.5739977" lon="14.1227307"><ele>302.0</ele><time>2026-04-26T09:35:39.939Z</time></trkpt><trkpt lat="41.5741896" lon="14.1228487"><ele>302.0</ele><time>2026-04-26T09:35:40.947Z</time></trkpt><trkpt lat="41.5743796" lon="14.1230049"><ele>302.0</ele><time>2026-04-26T09:35:41.94Z</time></trkpt><trkpt lat="41.5745644" lon="14.1231827"><ele>298.5</ele><time>2026-04-26T09:35:42.936Z</time></trkpt><trkpt lat="41.5747413" lon="14.1233712"><ele>295.0</ele><time>2026-04-26T09:35:43.945Z</time></trkpt><trkpt lat="41.5749153" lon="14.1235636"><ele>295.0</ele><time>2026-04-26T09:35:44.945Z</time></trkpt><trkpt lat="41.5750772" lon="14.1237437"><ele>295.0</ele><time>2026-04-26T09:35:45.935Z</time></trkpt><trkpt lat="41.5752246" lon="14.1239027"><ele>295.0</ele><time>2026-04-26T09:35:46.945Z</time></trkpt><trkpt lat="41.5753655" lon="14.1240482"><ele>293.3333333333333</ele><time>2026-04-26T09:35:47.938Z</time></trkpt><trkpt lat="41.575521" lon="14.124113"><ele>291.6666666666667</ele><time>2026-04-26T09:35:48.936Z</time></trkpt><trkpt lat="41.5756832" lon="14.1241462"><ele>290.0</ele><time>2026-04-26T09:35:49.94Z</time></trkpt><trkpt lat="41.5758526" lon="14.1240954"><ele>295.33333333333337</ele><time>2026-04-26T09:35:50.94Z</time></trkpt><trkpt lat="41.5760321" lon="14.1240015"><ele>300.6666666666667</ele><time>2026-04-26T09:35:51.932Z</time></trkpt><trkpt lat="41.576219" lon="14.1238797"><ele>306.0</ele><time>2026-04-26T09:35:52.944Z</time></trkpt><trkpt lat="41.5764093" lon="14.1237549"><ele>306.0</ele><time>2026-04-26T09:35:53.954Z</time></trkpt><trkpt lat="41.5766044" lon="14.1236449"><ele>306.0</ele><time>2026-04-26T09:35:54.945Z</time></trkpt><trkpt lat="41.5768019" lon="14.1235456"><ele>306.0</ele><time>2026-04-26T09:35:55.931Z</time></trkpt><trkpt lat="41.5770032" lon="14.1234475"><ele>302.0</ele><time>2026-04-26T09:35:56.94Z</time></trkpt><trkpt lat="41.5772057" lon="14.1234022"><ele>298.0</ele><time>2026-04-26T09:35:57.936Z</time></trkpt><trkpt lat="41.577421" lon="14.1234059"><ele>294.0</ele><time>2026-04-26T09:35:58.935Z</time></trkpt><trkpt lat="41.5776368" lon="14.1234377"><ele>293.3333333333333</ele><time>2026-04-26T09:35:59.939Z</time></trkpt><trkpt lat="41.5778518" lon="14.1234934"><ele>292.66666666666663</ele><time>2026-04-26T09:36:00.942Z</time></trkpt><trkpt lat="41.5780668" lon="14.1235444"><ele>292.0</ele><time>2026-04-26T09:36:01.94Z</time></trkpt><trkpt lat="41.5782727" lon="14.123588"><ele>292.0</ele><time>2026-04-26T09:36:02.939Z</time></trkpt><trkpt lat="41.5784651" lon="14.1236083"><ele>292.0</ele><time>2026-04-26T09:36:03.942Z</time></trkpt><trkpt lat="41.578652" lon="14.1235721"><ele>292.0</ele><time>2026-04-26T09:36:04.941Z</time></trkpt><trkpt lat="41.5788309" lon="14.1234769"><ele>292.66666666666663</ele><time>2026-04-26T09:36:05.939Z</time></trkpt><trkpt lat="41.579003" lon="14.1233432"><ele>293.3333333333333</ele><time>2026-04-26T09:36:06.953Z</time></trkpt><trkpt lat="41.5791735" lon="14.123193"><ele>294.0</ele><time>2026-04-26T09:36:07.94Z</time></trkpt><trkpt lat="41.5793453" lon="14.1230371"><ele>291.0</ele><time>2026-04-26T09:36:08.946Z</time></trkpt><trkpt lat="41.5795218" lon="14.1228781"><ele>288.0</ele><time>2026-04-26T09:36:09.945Z</time></trkpt><trkpt lat="41.5796986" lon="14.1227159"><ele>285.0</ele><time>2026-04-26T09:36:10.943Z</time></trkpt><trkpt lat="41.5798755" lon="14.1225526"><ele>285.3333333333333</ele><time>2026-04-26T09:36:11.948Z</time></trkpt><trkpt lat="41.5800541" lon="14.1223893"><ele>285.66666666666663</ele><time>2026-04-26T09:36:12.946Z</time></trkpt><trkpt lat="41.5802317" lon="14.1222275"><ele>286.0</ele><time>2026-04-26T09:36:13.946Z</time></trkpt><trkpt lat="41.5804034" lon="14.1220684"><ele>287.66666666666663</ele><time>2026-04-26T09:36:14.944Z</time></trkpt><trkpt lat="41.5805605" lon="14.1219056"><ele>289.3333333333333</ele><time>2026-04-26T09:36:15.929Z</time></trkpt><trkpt lat="41.5807005" lon="14.1217245"><ele>291.0</ele><time>2026-04-26T09:36:16.939Z</time></trkpt><trkpt lat="41.5808196" lon="14.1215137"><ele>292.6666666666667</ele><time>2026-04-26T09:36:17.94Z</time></trkpt><trkpt lat="41.5809127" lon="14.1212721"><ele>294.33333333333337</ele><time>2026-04-26T09:36:18.941Z</time></trkpt><trkpt lat="41.5810011" lon="14.1210209"><ele>296.0</ele><time>2026-04-26T09:36:19.938Z</time></trkpt><trkpt lat="41.5810569" lon="14.1207465"><ele>298.0</ele><time>2026-04-26T09:36:20.95Z</time></trkpt><trkpt lat="41.5811134" lon="14.1204756"><ele>300.0</ele><time>2026-04-26T09:36:21.939Z</time></trkpt><trkpt lat="41.58118" lon="14.120226"><ele>302.0</ele><time>2026-04-26T09:36:22.944Z</time></trkpt><trkpt lat="41.5812674" lon="14.1199938"><ele>300.0</ele><time>2026-04-26T09:36:23.941Z</time></trkpt><trkpt lat="41.5813523" lon="14.1197679"><ele>298.0</ele><time>2026-04-26T09:36:24.944Z</time></trkpt><trkpt lat="41.5814785" lon="14.1195788"><ele>296.0</ele><time>2026-04-26T09:36:25.933Z</time></trkpt><trkpt lat="41.5816286" lon="14.1194139"><ele>296.0</ele><time>2026-04-26T09:36:26.948Z</time></trkpt><trkpt lat="41.5818004" lon="14.1192612"><ele>296.0</ele><time>2026-04-26T09:36:27.957Z</time></trkpt><trkpt lat="41.5819901" lon="14.1191359"><ele>296.0</ele><time>2026-04-26T09:36:28.939Z</time></trkpt><trkpt lat="41.5821956" lon="14.1190216"><ele>296.0</ele><time>2026-04-26T09:36:29.932Z</time></trkpt><trkpt lat="41.5824172" lon="14.1189154"><ele>296.0</ele><time>2026-04-26T09:36:30.946Z</time></trkpt><trkpt lat="41.5826424" lon="14.1188121"><ele>295.5</ele><time>2026-04-26T09:36:31.943Z</time></trkpt><trkpt lat="41.582876" lon="14.1187104"><ele>295.0</ele><time>2026-04-26T09:36:32.936Z</time></trkpt><trkpt lat="41.5831128" lon="14.1186041"><ele>295.0</ele><time>2026-04-26T09:36:33.948Z</time></trkpt><trkpt lat="41.5833328" lon="14.1184964"><ele>295.0</ele><time>2026-04-26T09:36:34.945Z</time></trkpt><trkpt lat="41.5835694" lon="14.1184033"><ele>294.0</ele><time>2026-04-26T09:36:35.933Z</time></trkpt><trkpt lat="41.5838083" lon="14.1183064"><ele>293.0</ele><time>2026-04-26T09:36:36.941Z</time></trkpt><trkpt lat="41.5840418" lon="14.1182075"><ele>295.0</ele><time>2026-04-26T09:36:37.936Z</time></trkpt><trkpt lat="41.584279" lon="14.1181083"><ele>297.0</ele><time>2026-04-26T09:36:38.939Z</time></trkpt><trkpt lat="41.5845158" lon="14.1180103"><ele>297.0</ele><time>2026-04-26T09:36:39.947Z</time></trkpt><trkpt lat="41.5847526" lon="14.1179125"><ele>297.0</ele><time>2026-04-26T09:36:40.953Z</time></trkpt><trkpt lat="41.5849881" lon="14.1178126"><ele>297.0</ele><time>2026-04-26T09:36:41.936Z</time></trkpt><trkpt lat="41.5852252" lon="14.1177135"><ele>297.0</ele><time>2026-04-26T09:36:42.944Z</time></trkpt><trkpt lat="41.5854618" lon="14.1176136"><ele>296.0</ele><time>2026-04-26T09:36:43.945Z</time></trkpt><trkpt lat="41.5856975" lon="14.1175131"><ele>295.0</ele><time>2026-04-26T09:36:44.931Z</time></trkpt><trkpt lat="41.5859345" lon="14.1174135"><ele>302.5</ele><time>2026-04-26T09:36:45.951Z</time></trkpt><trkpt lat="41.5861716" lon="14.1173145"><ele>310.0</ele><time>2026-04-26T09:36:46.94Z</time></trkpt><trkpt lat="41.5864098" lon="14.1172167"><ele>310.5</ele><time>2026-04-26T09:36:47.934Z</time></trkpt><trkpt lat="41.5866464" lon="14.1171179"><ele>311.0</ele><time>2026-04-26T09:36:48.938Z</time></trkpt><trkpt lat="41.5868801" lon="14.1170077"><ele>306.0</ele><time>2026-04-26T09:36:49.942Z</time></trkpt><trkpt lat="41.5871074" lon="14.1168795"><ele>301.0</ele><time>2026-04-26T09:36:50.934Z</time></trkpt><trkpt lat="41.5873237" lon="14.1167232"><ele>314.0</ele><time>2026-04-26T09:36:51.933Z</time></trkpt><trkpt lat="41.5875288" lon="14.116542"><ele>327.0</ele><time>2026-04-26T09:36:52.942Z</time></trkpt><trkpt lat="41.5877251" lon="14.1163508"><ele>315.5</ele><time>2026-04-26T09:36:53.934Z</time></trkpt><trkpt lat="41.5879189" lon="14.1161611"><ele>304.0</ele><time>2026-04-26T09:36:54.938Z</time></trkpt><trkpt lat="41.5881093" lon="14.1159775"><ele>304.0</ele><time>2026-04-26T09:36:55.937Z</time></trkpt><trkpt lat="41.5882958" lon="14.1157978"><ele>304.0</ele><time>2026-04-26T09:36:56.945Z</time></trkpt><trkpt lat="41.5884788" lon="14.1156214"><ele>303.3333333333333</ele><time>2026-04-26T09:36:57.941Z</time></trkpt><trkpt lat="41.5886582" lon="14.1154462"><ele>302.6666666666667</ele><time>2026-04-26T09:36:58.928Z</time></trkpt><trkpt lat="41.588836" lon="14.1152794"><ele>302.0</ele><time>2026-04-26T09:36:59.938Z</time></trkpt><trkpt lat="41.5890112" lon="14.115107"><ele>302.0</ele><time>2026-04-26T09:37:00.943Z</time></trkpt><trkpt lat="41.5891772" lon="14.1149412"><ele>302.0</ele><time>2026-04-26T09:37:01.936Z</time></trkpt><trkpt lat="41.5893409" lon="14.1147737"><ele>302.0</ele><time>2026-04-26T09:37:02.936Z</time></trkpt><trkpt lat="41.5894982" lon="14.1145979"><ele>302.0</ele><time>2026-04-26T09:37:03.934Z</time></trkpt><trkpt lat="41.589641" lon="14.1144106"><ele>302.0</ele><time>2026-04-26T09:37:04.937Z</time></trkpt><trkpt lat="41.5897753" lon="14.1142108"><ele>302.0</ele><time>2026-04-26T09:37:05.93Z</time></trkpt><trkpt lat="41.589915" lon="14.1139916"><ele>312.5</ele><time>2026-04-26T09:37:06.94Z</time></trkpt><trkpt lat="41.5900521" lon="14.1137532"><ele>323.0</ele><time>2026-04-26T09:37:07.933Z</time></trkpt><trkpt lat="41.5901949" lon="14.1134976"><ele>316.5</ele><time>2026-04-26T09:37:08.938Z</time></trkpt><trkpt lat="41.5903565" lon="14.1132214"><ele>310.0</ele><time>2026-04-26T09:37:09.942Z</time></trkpt><trkpt lat="41.5905241" lon="14.1129402"><ele>310.0</ele><time>2026-04-26T09:37:10.939Z</time></trkpt><trkpt lat="41.5906924" lon="14.1126607"><ele>310.0</ele><time>2026-04-26T09:37:11.946Z</time></trkpt><trkpt lat="41.5908596" lon="14.1123883"><ele>308.66666666666663</ele><time>2026-04-26T09:37:12.936Z</time></trkpt><trkpt lat="41.5910127" lon="14.1121435"><ele>307.3333333333333</ele><time>2026-04-26T09:37:13.937Z</time></trkpt><trkpt lat="41.5911509" lon="14.1119306"><ele>306.0</ele><time>2026-04-26T09:37:14.935Z</time></trkpt><trkpt lat="41.5912718" lon="14.1117436"><ele>306.0</ele><time>2026-04-26T09:37:15.935Z</time></trkpt><trkpt lat="41.5913773" lon="14.1115767"><ele>306.0</ele><time>2026-04-26T09:37:16.94Z</time></trkpt><trkpt lat="41.5914763" lon="14.1114153"><ele>306.0</ele><time>2026-04-26T09:37:17.931Z</time></trkpt><trkpt lat="41.5915727" lon="14.1112549"><ele>309.0</ele><time>2026-04-26T09:37:18.939Z</time></trkpt><trkpt lat="41.5916678" lon="14.111093"><ele>312.0</ele><time>2026-04-26T09:37:19.927Z</time></trkpt><trkpt lat="41.5917608" lon="14.1109336"><ele>315.0</ele><time>2026-04-26T09:37:20.935Z</time></trkpt><trkpt lat="41.5918492" lon="14.1107793"><ele>314.0</ele><time>2026-04-26T09:37:21.935Z</time></trkpt><trkpt lat="41.5919345" lon="14.1106333"><ele>313.0</ele><time>2026-04-26T09:37:22.947Z</time></trkpt><trkpt lat="41.5920182" lon="14.1104954"><ele>312.0</ele><time>2026-04-26T09:37:23.945Z</time></trkpt><trkpt lat="41.5920995" lon="14.1103568"><ele>311.0</ele><time>2026-04-26T09:37:24.938Z</time></trkpt><trkpt lat="41.5921707" lon="14.1102049"><ele>311.0</ele><time>2026-04-26T09:37:25.934Z</time></trkpt><trkpt lat="41.592221" lon="14.1100229"><ele>311.0</ele><time>2026-04-26T09:37:26.947Z</time></trkpt><trkpt lat="41.5922492" lon="14.1098218"><ele>311.0</ele><time>2026-04-26T09:37:27.934Z</time></trkpt><trkpt lat="41.5922699" lon="14.1096244"><ele>311.0</ele><time>2026-04-26T09:37:28.941Z</time></trkpt><trkpt lat="41.5922895" lon="14.1094367"><ele>310.5</ele><time>2026-04-26T09:37:29.937Z</time></trkpt><trkpt lat="41.5923092" lon="14.1092693"><ele>310.0</ele><time>2026-04-26T09:37:30.94Z</time></trkpt><trkpt lat="41.5923271" lon="14.109112"><ele>309.5</ele><time>2026-04-26T09:37:31.936Z</time></trkpt><trkpt lat="41.5923428" lon="14.1089623"><ele>309.0</ele><time>2026-04-26T09:37:32.95Z</time></trkpt><trkpt lat="41.5923609" lon="14.1088161"><ele>310.5</ele><time>2026-04-26T09:37:33.933Z</time></trkpt><trkpt lat="41.5923778" lon="14.1086678"><ele>312.0</ele><time>2026-04-26T09:37:34.948Z</time></trkpt><trkpt lat="41.5923932" lon="14.1085178"><ele>313.5</ele><time>2026-04-26T09:37:35.956Z</time></trkpt><trkpt lat="41.5924092" lon="14.1083646"><ele>315.0</ele><time>2026-04-26T09:37:36.948Z</time></trkpt><trkpt lat="41.5924288" lon="14.1082097"><ele>318.0</ele><time>2026-04-26T09:37:37.958Z</time></trkpt><trkpt lat="41.5924552" lon="14.1080591"><ele>321.0</ele><time>2026-04-26T09:37:38.958Z</time></trkpt><trkpt lat="41.5924981" lon="14.1079154"><ele>324.0</ele><time>2026-04-26T09:37:39.959Z</time></trkpt><trkpt lat="41.59256" lon="14.1077572"><ele>327.0</ele><time>2026-04-26T09:37:40.943Z</time></trkpt><trkpt lat="41.5926382" lon="14.1075701"><ele>325.0</ele><time>2026-04-26T09:37:41.95Z</time></trkpt><trkpt lat="41.5927338" lon="14.1073528"><ele>323.0</ele><time>2026-04-26T09:37:42.957Z</time></trkpt><trkpt lat="41.5928546" lon="14.1070933"><ele>321.0</ele><time>2026-04-26T09:37:43.948Z</time></trkpt><trkpt lat="41.5929954" lon="14.1068024"><ele>322.5</ele><time>2026-04-26T09:37:44.951Z</time></trkpt><trkpt lat="41.5931566" lon="14.1064855"><ele>324.0</ele><time>2026-04-26T09:37:45.955Z</time></trkpt><trkpt lat="41.5933313" lon="14.1061493"><ele>324.0</ele><time>2026-04-26T09:37:46.943Z</time></trkpt><trkpt lat="41.5935019" lon="14.1058184"><ele>324.0</ele><time>2026-04-26T09:37:47.958Z</time></trkpt><trkpt lat="41.5936599" lon="14.1055089"><ele>326.5</ele><time>2026-04-26T09:37:48.94Z</time></trkpt><trkpt lat="41.5938016" lon="14.1052284"><ele>329.0</ele><time>2026-04-26T09:37:49.944Z</time></trkpt><trkpt lat="41.5939212" lon="14.1049724"><ele>326.6666666666667</ele><time>2026-04-26T09:37:50.94Z</time></trkpt><trkpt lat="41.5940121" lon="14.1047221"><ele>324.3333333333333</ele><time>2026-04-26T09:37:51.942Z</time></trkpt><trkpt lat="41.5940749" lon="14.1044788"><ele>322.0</ele><time>2026-04-26T09:37:52.942Z</time></trkpt><trkpt lat="41.5941242" lon="14.1042497"><ele>324.0</ele><time>2026-04-26T09:37:53.941Z</time></trkpt><trkpt lat="41.5941763" lon="14.1040411"><ele>326.0</ele><time>2026-04-26T09:37:54.948Z</time></trkpt><trkpt lat="41.5942387" lon="14.103856"><ele>328.0</ele><time>2026-04-26T09:37:55.948Z</time></trkpt><trkpt lat="41.5943058" lon="14.1036913"><ele>328.0</ele><time>2026-04-26T09:37:56.949Z</time></trkpt><trkpt lat="41.5943802" lon="14.1035409"><ele>328.0</ele><time>2026-04-26T09:37:57.946Z</time></trkpt><trkpt lat="41.5944698" lon="14.103405"><ele>328.0</ele><time>2026-04-26T09:37:58.936Z</time></trkpt><trkpt lat="41.5945742" lon="14.1032928"><ele>328.0</ele><time>2026-04-26T09:37:59.959Z</time></trkpt><trkpt lat="41.5946889" lon="14.103217"><ele>327.79999999999995</ele><time>2026-04-26T09:38:00.938Z</time></trkpt><trkpt lat="41.5948023" lon="14.1031805"><ele>327.6</ele><time>2026-04-26T09:38:01.934Z</time></trkpt><trkpt lat="41.5949037" lon="14.1031763"><ele>327.4</ele><time>2026-04-26T09:38:02.955Z</time></trkpt><trkpt lat="41.5949941" lon="14.1032028"><ele>327.20000000000005</ele><time>2026-04-26T09:38:03.945Z</time></trkpt><trkpt lat="41.5950757" lon="14.1032577"><ele>327.0</ele><time>2026-04-26T09:38:04.93Z</time></trkpt><trkpt lat="41.5951448" lon="14.1033339"><ele>326.0</ele><time>2026-04-26T09:38:05.947Z</time></trkpt><trkpt lat="41.5952111" lon="14.1034317"><ele>325.0</ele><time>2026-04-26T09:38:06.945Z</time></trkpt><trkpt lat="41.5952776" lon="14.1035349"><ele>324.0</ele><time>2026-04-26T09:38:07.939Z</time></trkpt><trkpt lat="41.5953473" lon="14.1036363"><ele>323.0</ele><time>2026-04-26T09:38:08.947Z</time></trkpt><trkpt lat="41.5954318" lon="14.1037259"><ele>322.0</ele><time>2026-04-26T09:38:09.942Z</time></trkpt><trkpt lat="41.5955355" lon="14.1037906"><ele>322.0</ele><time>2026-04-26T09:38:10.945Z</time></trkpt><trkpt lat="41.5956495" lon="14.1038186"><ele>322.0</ele><time>2026-04-26T09:38:11.948Z</time></trkpt><trkpt lat="41.5957656" lon="14.1038264"><ele>322.0</ele><time>2026-04-26T09:38:12.948Z</time></trkpt><trkpt lat="41.5958732" lon="14.1037718"><ele>322.0</ele><time>2026-04-26T09:38:13.935Z</time></trkpt><trkpt lat="41.5959645" lon="14.1036995"><ele>322.0</ele><time>2026-04-26T09:38:14.952Z</time></trkpt><trkpt lat="41.5960378" lon="14.1035985"><ele>322.0</ele><time>2026-04-26T09:38:15.934Z</time></trkpt><trkpt lat="41.5960804" lon="14.10347"><ele>322.0</ele><time>2026-04-26T09:38:16.942Z</time></trkpt><trkpt lat="41.5961047" lon="14.1033216"><ele>322.0</ele><time>2026-04-26T09:38:17.942Z</time></trkpt><trkpt lat="41.5961239" lon="14.1031609"><ele>322.0</ele><time>2026-04-26T09:38:18.944Z</time></trkpt><trkpt lat="41.5961569" lon="14.1029848"><ele>332.0</ele><time>2026-04-26T09:38:19.941Z</time></trkpt><trkpt lat="41.5962135" lon="14.1027982"><ele>342.0</ele><time>2026-04-26T09:38:20.942Z</time></trkpt><trkpt lat="41.5962895" lon="14.102615"><ele>352.0</ele><time>2026-04-26T09:38:21.946Z</time></trkpt><trkpt lat="41.5963784" lon="14.1024408"><ele>346.66666666666663</ele><time>2026-04-26T09:38:22.952Z</time></trkpt><trkpt lat="41.5964691" lon="14.1022686"><ele>341.3333333333333</ele><time>2026-04-26T09:38:23.943Z</time></trkpt><trkpt lat="41.596549" lon="14.1020856"><ele>336.0</ele><time>2026-04-26T09:38:24.948Z</time></trkpt><trkpt lat="41.5965978" lon="14.1018875"><ele>336.0</ele><time>2026-04-26T09:38:25.943Z</time></trkpt><trkpt lat="41.5966123" lon="14.1016776"><ele>336.0</ele><time>2026-04-26T09:38:26.94Z</time></trkpt><trkpt lat="41.5966118" lon="14.1014638"><ele>336.0</ele><time>2026-04-26T09:38:27.954Z</time></trkpt><trkpt lat="41.5966232" lon="14.1012499"><ele>334.3333333333333</ele><time>2026-04-26T09:38:28.95Z</time></trkpt><trkpt lat="41.5966555" lon="14.1010366"><ele>332.66666666666663</ele><time>2026-04-26T09:38:29.934Z</time></trkpt><trkpt lat="41.5967135" lon="14.1008399"><ele>331.0</ele><time>2026-04-26T09:38:30.947Z</time></trkpt><trkpt lat="41.5968" lon="14.1006652"><ele>331.3333333333333</ele><time>2026-04-26T09:38:31.931Z</time></trkpt><trkpt lat="41.5969102" lon="14.1005074"><ele>331.6666666666667</ele><time>2026-04-26T09:38:32.941Z</time></trkpt><trkpt lat="41.5970265" lon="14.1003662"><ele>332.0</ele><time>2026-04-26T09:38:33.939Z</time></trkpt><trkpt lat="41.5971459" lon="14.1002545"><ele>332.0</ele><time>2026-04-26T09:38:34.95Z</time></trkpt><trkpt lat="41.5972717" lon="14.1001899"><ele>332.0</ele><time>2026-04-26T09:38:35.94Z</time></trkpt><trkpt lat="41.5974096" lon="14.1001635"><ele>332.0</ele><time>2026-04-26T09:38:36.946Z</time></trkpt><trkpt lat="41.5975554" lon="14.1001542"><ele>332.0</ele><time>2026-04-26T09:38:37.949Z</time></trkpt><trkpt lat="41.5977058" lon="14.1001429"><ele>330.6666666666667</ele><time>2026-04-26T09:38:38.954Z</time></trkpt><trkpt lat="41.5978557" lon="14.1001272"><ele>329.3333333333333</ele><time>2026-04-26T09:38:39.944Z</time></trkpt><trkpt lat="41.5980055" lon="14.1001097"><ele>328.0</ele><time>2026-04-26T09:38:40.942Z</time></trkpt><trkpt lat="41.5981562" lon="14.1000932"><ele>328.0</ele><time>2026-04-26T09:38:41.944Z</time></trkpt><trkpt lat="41.5983083" lon="14.1000787"><ele>328.0</ele><time>2026-04-26T09:38:42.953Z</time></trkpt><trkpt lat="41.5984655" lon="14.1000654"><ele>328.0</ele><time>2026-04-26T09:38:43.936Z</time></trkpt><trkpt lat="41.5986256" lon="14.1000534"><ele>329.66666666666663</ele><time>2026-04-26T09:38:44.94Z</time></trkpt><trkpt lat="41.598788" lon="14.1000384"><ele>331.3333333333333</ele><time>2026-04-26T09:38:45.953Z</time></trkpt><trkpt lat="41.5989502" lon="14.1000218"><ele>333.0</ele><time>2026-04-26T09:38:46.934Z</time></trkpt><trkpt lat="41.5991124" lon="14.1000066"><ele>333.0</ele><time>2026-04-26T09:38:47.952Z</time></trkpt><trkpt lat="41.5992656" lon="14.0999932"><ele>333.0</ele><time>2026-04-26T09:38:48.943Z</time></trkpt><trkpt lat="41.5994035" lon="14.0999803"><ele>333.0</ele><time>2026-04-26T09:38:49.947Z</time></trkpt><trkpt lat="41.5995245" lon="14.0999707"><ele>333.0</ele><time>2026-04-26T09:38:50.944Z</time></trkpt><trkpt lat="41.5996418" lon="14.099961"><ele>334.0</ele><time>2026-04-26T09:38:51.953Z</time></trkpt><trkpt lat="41.5997672" lon="14.0999487"><ele>335.0</ele><time>2026-04-26T09:38:52.936Z</time></trkpt><trkpt lat="41.5999" lon="14.0999342"><ele>336.0</ele><time>2026-04-26T09:38:53.942Z</time></trkpt><trkpt lat="41.6000401" lon="14.0999151"><ele>337.0</ele><time>2026-04-26T09:38:54.942Z</time></trkpt><trkpt lat="41.6001866" lon="14.0998909"><ele>334.66666666666663</ele><time>2026-04-26T09:38:55.935Z</time></trkpt><trkpt lat="41.6003419" lon="14.0998583"><ele>332.3333333333333</ele><time>2026-04-26T09:38:56.931Z</time></trkpt><trkpt lat="41.6005136" lon="14.0998123"><ele>330.0</ele><time>2026-04-26T09:38:57.938Z</time></trkpt><trkpt lat="41.6006939" lon="14.0997503"><ele>330.0</ele><time>2026-04-26T09:38:58.943Z</time></trkpt><trkpt lat="41.6008712" lon="14.0996758"><ele>330.0</ele><time>2026-04-26T09:38:59.938Z</time></trkpt><trkpt lat="41.6010461" lon="14.0995915"><ele>330.0</ele><time>2026-04-26T09:39:00.949Z</time></trkpt><trkpt lat="41.6012227" lon="14.0995011"><ele>331.6666666666667</ele><time>2026-04-26T09:39:01.949Z</time></trkpt><trkpt lat="41.6014013" lon="14.0994079"><ele>333.33333333333337</ele><time>2026-04-26T09:39:02.932Z</time></trkpt><trkpt lat="41.6015812" lon="14.0993116"><ele>335.0</ele><time>2026-04-26T09:39:03.94Z</time></trkpt><trkpt lat="41.6017614" lon="14.0992162"><ele>335.0</ele><time>2026-04-26T09:39:04.934Z</time></trkpt><trkpt lat="41.6019368" lon="14.0991219"><ele>335.0</ele><time>2026-04-26T09:39:05.94Z</time></trkpt><trkpt lat="41.6021073" lon="14.0990328"><ele>335.0</ele><time>2026-04-26T09:39:06.941Z</time></trkpt><trkpt lat="41.6022713" lon="14.098964"><ele>332.33333333333337</ele><time>2026-04-26T09:39:07.947Z</time></trkpt><trkpt lat="41.6024316" lon="14.0989356"><ele>329.6666666666667</ele><time>2026-04-26T09:39:08.945Z</time></trkpt><trkpt lat="41.6025877" lon="14.0989556"><ele>327.0</ele><time>2026-04-26T09:39:09.942Z</time></trkpt><trkpt lat="41.6027394" lon="14.0990198"><ele>330.6666666666667</ele><time>2026-04-26T09:39:10.949Z</time></trkpt><trkpt lat="41.6028901" lon="14.0991072"><ele>334.33333333333337</ele><time>2026-04-26T09:39:11.943Z</time></trkpt><trkpt lat="41.6030415" lon="14.0992012"><ele>338.0</ele><time>2026-04-26T09:39:12.931Z</time></trkpt><trkpt lat="41.603192" lon="14.0992924"><ele>338.0</ele><time>2026-04-26T09:39:13.94Z</time></trkpt><trkpt lat="41.6033354" lon="14.0993785"><ele>338.0</ele><time>2026-04-26T09:39:14.932Z</time></trkpt><trkpt lat="41.6034704" lon="14.0994563"><ele>338.0</ele><time>2026-04-26T09:39:15.94Z</time></trkpt><trkpt lat="41.6036005" lon="14.0995268"><ele>338.0</ele><time>2026-04-26T09:39:16.935Z</time></trkpt><trkpt lat="41.6037304" lon="14.099589"><ele>338.0</ele><time>2026-04-26T09:39:17.953Z</time></trkpt><trkpt lat="41.6038651" lon="14.0996314"><ele>338.0</ele><time>2026-04-26T09:39:18.93Z</time></trkpt><trkpt lat="41.6040075" lon="14.0996389"><ele>338.0</ele><time>2026-04-26T09:39:19.941Z</time></trkpt><trkpt lat="41.6041533" lon="14.0996125"><ele>338.0</ele><time>2026-04-26T09:39:20.94Z</time></trkpt><trkpt lat="41.6042977" lon="14.0995623"><ele>338.0</ele><time>2026-04-26T09:39:21.939Z</time></trkpt><trkpt lat="41.6044391" lon="14.0995018"><ele>338.0</ele><time>2026-04-26T09:39:22.943Z</time></trkpt><trkpt lat="41.6045792" lon="14.0994398"><ele>338.0</ele><time>2026-04-26T09:39:23.95Z</time></trkpt><trkpt lat="41.6047162" lon="14.0993833"><ele>338.0</ele><time>2026-04-26T09:39:24.948Z</time></trkpt><trkpt lat="41.6048501" lon="14.0993284"><ele>337.75</ele><time>2026-04-26T09:39:25.94Z</time></trkpt><trkpt lat="41.6049822" lon="14.0992716"><ele>337.5</ele><time>2026-04-26T09:39:26.933Z</time></trkpt><trkpt lat="41.6051107" lon="14.09921"><ele>337.25</ele><time>2026-04-26T09:39:27.939Z</time></trkpt><trkpt lat="41.6052334" lon="14.0991434"><ele>337.0</ele><time>2026-04-26T09:39:28.939Z</time></trkpt><trkpt lat="41.605345" lon="14.0990776"><ele>337.0</ele><time>2026-04-26T09:39:29.942Z</time></trkpt><trkpt lat="41.6054466" lon="14.0990106"><ele>337.0</ele><time>2026-04-26T09:39:30.94Z</time></trkpt><trkpt lat="41.6055422" lon="14.0989471"><ele>337.0</ele><time>2026-04-26T09:39:31.939Z</time></trkpt><trkpt lat="41.6056366" lon="14.0988938"><ele>337.0</ele><time>2026-04-26T09:39:32.944Z</time></trkpt><trkpt lat="41.605735" lon="14.0988619"><ele>337.0</ele><time>2026-04-26T09:39:33.935Z</time></trkpt><trkpt lat="41.6058367" lon="14.0988615"><ele>337.0</ele><time>2026-04-26T09:39:34.936Z</time></trkpt><trkpt lat="41.6059382" lon="14.0988928"><ele>337.0</ele><time>2026-04-26T09:39:35.936Z</time></trkpt><trkpt lat="41.6060381" lon="14.0989432"><ele>337.0</ele><time>2026-04-26T09:39:36.946Z</time></trkpt><trkpt lat="41.6061385" lon="14.0990003"><ele>337.0</ele><time>2026-04-26T09:39:37.936Z</time></trkpt><trkpt lat="41.6062417" lon="14.0990533"><ele>337.0</ele><time>2026-04-26T09:39:38.942Z</time></trkpt><trkpt lat="41.6063467" lon="14.0990973"><ele>337.0</ele><time>2026-04-26T09:39:39.947Z</time></trkpt><trkpt lat="41.606451" lon="14.0991241"><ele>337.0</ele><time>2026-04-26T09:39:40.94Z</time></trkpt><trkpt lat="41.6065558" lon="14.0991301"><ele>337.0</ele><time>2026-04-26T09:39:41.95Z</time></trkpt><trkpt lat="41.6066581" lon="14.0991127"><ele>337.0</ele><time>2026-04-26T09:39:42.946Z</time></trkpt><trkpt lat="41.6067573" lon="14.099073"><ele>337.0</ele><time>2026-04-26T09:39:43.935Z</time></trkpt><trkpt lat="41.6068546" lon="14.0990166"><ele>337.0</ele><time>2026-04-26T09:39:44.948Z</time></trkpt><trkpt lat="41.6069488" lon="14.0989408"><ele>337.0</ele><time>2026-04-26T09:39:45.942Z</time></trkpt><trkpt lat="41.6070402" lon="14.0988489"><ele>337.0</ele><time>2026-04-26T09:39:46.941Z</time></trkpt><trkpt lat="41.6071306" lon="14.0987455"><ele>337.0</ele><time>2026-04-26T09:39:47.934Z</time></trkpt><trkpt lat="41.6072205" lon="14.098635"><ele>336.5</ele><time>2026-04-26T09:39:48.943Z</time></trkpt><trkpt lat="41.607312" lon="14.0985208"><ele>336.0</ele><time>2026-04-26T09:39:49.944Z</time></trkpt><trkpt lat="41.6074041" lon="14.0984042"><ele>335.5</ele><time>2026-04-26T09:39:50.943Z</time></trkpt><trkpt lat="41.6074969" lon="14.0982895"><ele>335.0</ele><time>2026-04-26T09:39:51.96Z</time></trkpt><trkpt lat="41.6075896" lon="14.0981764"><ele>335.25</ele><time>2026-04-26T09:39:52.94Z</time></trkpt><trkpt lat="41.6076806" lon="14.0980613"><ele>335.5</ele><time>2026-04-26T09:39:53.945Z</time></trkpt><trkpt lat="41.6077711" lon="14.0979438"><ele>335.75</ele><time>2026-04-26T09:39:54.935Z</time></trkpt><trkpt lat="41.6078608" lon="14.0978238"><ele>336.0</ele><time>2026-04-26T09:39:55.941Z</time></trkpt><trkpt lat="41.6079511" lon="14.0977037"><ele>336.0</ele><time>2026-04-26T09:39:56.949Z</time></trkpt><trkpt lat="41.608041" lon="14.0975845"><ele>336.0</ele><time>2026-04-26T09:39:57.937Z</time></trkpt><trkpt lat="41.6081276" lon="14.09747"><ele>336.0</ele><time>2026-04-26T09:39:58.94Z</time></trkpt><trkpt lat="41.6082103" lon="14.0973621"><ele>336.0</ele><time>2026-04-26T09:39:59.941Z</time></trkpt><trkpt lat="41.6082875" lon="14.0972648"><ele>336.4</ele><time>2026-04-26T09:40:00.946Z</time></trkpt><trkpt lat="41.6083564" lon="14.0971836"><ele>336.8</ele><time>2026-04-26T09:40:01.941Z</time></trkpt><trkpt lat="41.6084197" lon="14.0971121"><ele>337.2</ele><time>2026-04-26T09:40:02.94Z</time></trkpt><trkpt lat="41.6084657" lon="14.0970445"><ele>337.59999999999997</ele><time>2026-04-26T09:40:03.947Z</time></trkpt><trkpt lat="41.6084861" lon="14.0969149"><ele>338.0</ele><time>2026-04-26T09:40:05.946Z</time></trkpt><trkpt lat="41.6084277" lon="14.0967842"><ele>338.0</ele><time>2026-04-26T09:40:07.933Z</time></trkpt><trkpt lat="41.6083543" lon="14.0967511"><ele>338.0</ele><time>2026-04-26T09:40:09.947Z</time></trkpt><trkpt lat="41.6083554" lon="14.0968862"><ele>338.0</ele><time>2026-04-26T09:40:12.952Z</time></trkpt><trkpt lat="41.6083385" lon="14.097057"><ele>338.0</ele><time>2026-04-26T09:40:14.938Z</time></trkpt><trkpt lat="41.6082917" lon="14.0971601"><ele>338.0</ele><time>2026-04-26T09:40:15.947Z</time></trkpt><trkpt lat="41.6082219" lon="14.0972728"><ele>338.0</ele><time>2026-04-26T09:40:16.949Z</time></trkpt><trkpt lat="41.6081336" lon="14.0973931"><ele>338.0</ele><time>2026-04-26T09:40:17.939Z</time></trkpt><trkpt lat="41.6080408" lon="14.0975202"><ele>338.0</ele><time>2026-04-26T09:40:18.948Z</time></trkpt><trkpt lat="41.607942" lon="14.0976552"><ele>338.0</ele><time>2026-04-26T09:40:19.942Z</time></trkpt><trkpt lat="41.607839" lon="14.0977986"><ele>337.0</ele><time>2026-04-26T09:40:20.948Z</time></trkpt><trkpt lat="41.607737" lon="14.0979409"><ele>336.0</ele><time>2026-04-26T09:40:21.952Z</time></trkpt><trkpt lat="41.607629" lon="14.0980793"><ele>335.0</ele><time>2026-04-26T09:40:22.943Z</time></trkpt><trkpt lat="41.6074358" lon="14.0983294"><ele>335.0</ele><time>2026-04-26T09:40:24.951Z</time></trkpt><trkpt lat="41.6073608" lon="14.0984291"><ele>335.0</ele><time>2026-04-26T09:40:25.958Z</time></trkpt><trkpt lat="41.6073061" lon="14.09851"><ele>335.0</ele><time>2026-04-26T09:40:26.952Z</time></trkpt><trkpt lat="41.6072657" lon="14.0985826"><ele>335.0</ele><time>2026-04-26T09:40:27.941Z</time></trkpt><trkpt lat="41.6072454" lon="14.0987048"><ele>335.0</ele><time>2026-04-26T09:40:29.949Z</time></trkpt><trkpt lat="41.6072276" lon="14.0987946"><ele>335.0</ele><time>2026-04-26T09:40:31.941Z</time></trkpt><trkpt lat="41.6071875" lon="14.0988643"><ele>334.99999999999994</ele><time>2026-04-26T09:40:33.941Z</time></trkpt><trkpt lat="41.6071268" lon="14.098918"><ele>335.0</ele><time>2026-04-26T09:40:36.95Z</time></trkpt><trkpt lat="41.6070636" lon="14.0989847"><ele>335.0</ele><time>2026-04-26T09:40:39.948Z</time></trkpt><trkpt lat="41.6071248" lon="14.0989593"><ele>335.0</ele><time>2026-04-26T09:42:11.945Z</time></trkpt><trkpt lat="41.6071948" lon="14.0989437"><ele>335.0</ele><time>2026-04-26T09:42:18.96Z</time></trkpt><trkpt lat="41.607255" lon="14.0989782"><ele>334.99999999999994</ele><time>2026-04-26T09:42:29.99Z</time></trkpt><trkpt lat="41.6072125" lon="14.0989139"><ele>335.0</ele><time>2026-04-26T09:50:23.985Z</time></trkpt><trkpt lat="41.6071473" lon="14.0989152"><ele>335.0</ele><time>2026-04-26T10:08:37.887Z</time></trkpt><trkpt lat="41.6071091" lon="14.0989881"><ele>335.0</ele><time>2026-04-26T10:08:42.687Z</time></trkpt><trkpt lat="41.6070277" lon="14.0989857"><ele>335.0</ele><time>2026-04-26T10:08:47.001Z</time></trkpt><trkpt lat="41.607142" lon="14.0988656"><ele>335.0</ele><time>2026-04-26T10:12:09.95Z</time></trkpt><trkpt lat="41.6071806" lon="14.0987608"><ele>335.0</ele><time>2026-04-26T10:12:10.942Z</time></trkpt><trkpt lat="41.6072266" lon="14.0986473"><ele>335.0</ele><time>2026-04-26T10:12:11.945Z</time></trkpt><trkpt lat="41.6072989" lon="14.0985134"><ele>335.0</ele><time>2026-04-26T10:12:12.949Z</time></trkpt><trkpt lat="41.6074033" lon="14.0983708"><ele>335.0</ele><time>2026-04-26T10:12:13.95Z</time></trkpt><trkpt lat="41.6075272" lon="14.0982121"><ele>335.0</ele><time>2026-04-26T10:12:14.952Z</time></trkpt><trkpt lat="41.6076693" lon="14.0980336"><ele>335.33333333333337</ele><time>2026-04-26T10:12:15.944Z</time></trkpt><trkpt lat="41.6078131" lon="14.0978456"><ele>335.6666666666667</ele><time>2026-04-26T10:12:16.946Z</time></trkpt><trkpt lat="41.6079516" lon="14.0976622"><ele>336.0</ele><time>2026-04-26T10:12:17.941Z</time></trkpt><trkpt lat="41.6080796" lon="14.0975007"><ele>336.5</ele><time>2026-04-26T10:12:18.949Z</time></trkpt><trkpt lat="41.6081988" lon="14.097355"><ele>337.0</ele><time>2026-04-26T10:12:19.943Z</time></trkpt><trkpt lat="41.6083108" lon="14.0972366"><ele>337.5</ele><time>2026-04-26T10:12:20.946Z</time></trkpt><trkpt lat="41.6084221" lon="14.0971642"><ele>338.0</ele><time>2026-04-26T10:12:21.941Z</time></trkpt><trkpt lat="41.6085395" lon="14.0971499"><ele>338.75</ele><time>2026-04-26T10:12:22.94Z</time></trkpt><trkpt lat="41.6086625" lon="14.0971862"><ele>339.5</ele><time>2026-04-26T10:12:23.952Z</time></trkpt><trkpt lat="41.6087996" lon="14.0972382"><ele>340.25</ele><time>2026-04-26T10:12:24.956Z</time></trkpt><trkpt lat="41.6089334" lon="14.0973393"><ele>341.0</ele><time>2026-04-26T10:12:25.954Z</time></trkpt><trkpt lat="41.6090816" lon="14.0974344"><ele>341.0</ele><time>2026-04-26T10:12:26.957Z</time></trkpt><trkpt lat="41.609243" lon="14.0975386"><ele>341.0</ele><time>2026-04-26T10:12:27.953Z</time></trkpt><trkpt lat="41.6094243" lon="14.0976491"><ele>341.0</ele><time>2026-04-26T10:12:28.944Z</time></trkpt><trkpt lat="41.6096105" lon="14.0977642"><ele>344.6666666666667</ele><time>2026-04-26T10:12:29.959Z</time></trkpt><trkpt lat="41.6097997" lon="14.0978826"><ele>348.3333333333333</ele><time>2026-04-26T10:12:30.953Z</time></trkpt><trkpt lat="41.6099851" lon="14.098005"><ele>352.0</ele><time>2026-04-26T10:12:31.941Z</time></trkpt><trkpt lat="41.6101669" lon="14.0981383"><ele>352.66666666666663</ele><time>2026-04-26T10:12:32.943Z</time></trkpt><trkpt lat="41.6103445" lon="14.0982888"><ele>353.3333333333333</ele><time>2026-04-26T10:12:33.945Z</time></trkpt><trkpt lat="41.610522" lon="14.0984515"><ele>354.0</ele><time>2026-04-26T10:12:34.942Z</time></trkpt><trkpt lat="41.610695" lon="14.0986086"><ele>354.0</ele><time>2026-04-26T10:12:35.944Z</time></trkpt><trkpt lat="41.610863" lon="14.0987611"><ele>354.0</ele><time>2026-04-26T10:12:36.948Z</time></trkpt><trkpt lat="41.6110424" lon="14.098855"><ele>354.0</ele><time>2026-04-26T10:12:37.948Z</time></trkpt><trkpt lat="41.6112237" lon="14.0989205"><ele>355.3333333333333</ele><time>2026-04-26T10:12:38.946Z</time></trkpt><trkpt lat="41.611416" lon="14.0989413"><ele>356.66666666666663</ele><time>2026-04-26T10:12:39.949Z</time></trkpt><trkpt lat="41.6116138" lon="14.0989118"><ele>358.0</ele><time>2026-04-26T10:12:40.95Z</time></trkpt><trkpt lat="41.6118274" lon="14.0988324"><ele>356.5</ele><time>2026-04-26T10:12:41.948Z</time></trkpt><trkpt lat="41.6120601" lon="14.0987223"><ele>355.0</ele><time>2026-04-26T10:12:42.943Z</time></trkpt><trkpt lat="41.6123069" lon="14.098601"><ele>355.0</ele><time>2026-04-26T10:12:43.947Z</time></trkpt><trkpt lat="41.6125636" lon="14.0984732"><ele>355.0</ele><time>2026-04-26T10:12:44.944Z</time></trkpt><trkpt lat="41.612817" lon="14.0983503"><ele>358.5</ele><time>2026-04-26T10:12:45.948Z</time></trkpt><trkpt lat="41.6130711" lon="14.0982427"><ele>362.0</ele><time>2026-04-26T10:12:46.94Z</time></trkpt><trkpt lat="41.6133281" lon="14.0981505"><ele>362.0</ele><time>2026-04-26T10:12:47.94Z</time></trkpt><trkpt lat="41.6135873" lon="14.0980732"><ele>362.0</ele><time>2026-04-26T10:12:48.955Z</time></trkpt><trkpt lat="41.6138496" lon="14.098001"><ele>357.5</ele><time>2026-04-26T10:12:49.975Z</time></trkpt><trkpt lat="41.6141108" lon="14.0979282"><ele>353.0</ele><time>2026-04-26T10:12:50.948Z</time></trkpt><trkpt lat="41.6143697" lon="14.0978562"><ele>356.5</ele><time>2026-04-26T10:12:51.959Z</time></trkpt><trkpt lat="41.6146302" lon="14.0977844"><ele>360.0</ele><time>2026-04-26T10:12:52.974Z</time></trkpt><trkpt lat="41.614891" lon="14.0977068"><ele>360.0</ele><time>2026-04-26T10:12:53.96Z</time></trkpt><trkpt lat="41.615148" lon="14.0976094"><ele>360.0</ele><time>2026-04-26T10:12:54.944Z</time></trkpt><trkpt lat="41.615399" lon="14.0974832"><ele>367.5</ele><time>2026-04-26T10:12:55.964Z</time></trkpt><trkpt lat="41.6156485" lon="14.0973271"><ele>375.0</ele><time>2026-04-26T10:12:56.955Z</time></trkpt><trkpt lat="41.6159024" lon="14.0971442"><ele>370.5</ele><time>2026-04-26T10:12:57.945Z</time></trkpt><trkpt lat="41.6161581" lon="14.0969509"><ele>366.0</ele><time>2026-04-26T10:12:58.955Z</time></trkpt><trkpt lat="41.6164214" lon="14.096766"><ele>366.0</ele><time>2026-04-26T10:12:59.946Z</time></trkpt><trkpt lat="41.616672" lon="14.0966066"><ele>366.0</ele><time>2026-04-26T10:13:00.946Z</time></trkpt><trkpt lat="41.6169293" lon="14.0964973"><ele>374.0</ele><time>2026-04-26T10:13:01.958Z</time></trkpt><trkpt lat="41.6171826" lon="14.0964368"><ele>382.0</ele><time>2026-04-26T10:13:02.941Z</time></trkpt><trkpt lat="41.6174437" lon="14.096414"><ele>382.0</ele><time>2026-04-26T10:13:03.943Z</time></trkpt><trkpt lat="41.617692" lon="14.0964354"><ele>382.0</ele><time>2026-04-26T10:13:04.951Z</time></trkpt><trkpt lat="41.6179365" lon="14.0964895"><ele>377.5</ele><time>2026-04-26T10:13:05.955Z</time></trkpt><trkpt lat="41.6181748" lon="14.0965905"><ele>373.0</ele><time>2026-04-26T10:13:06.944Z</time></trkpt><trkpt lat="41.6184146" lon="14.0967353"><ele>385.0</ele><time>2026-04-26T10:13:07.946Z</time></trkpt><trkpt lat="41.6186619" lon="14.0969076"><ele>397.0</ele><time>2026-04-26T10:13:08.94Z</time></trkpt><trkpt lat="41.6189041" lon="14.0970865"><ele>397.0</ele><time>2026-04-26T10:13:09.946Z</time></trkpt><trkpt lat="41.6191424" lon="14.0972642"><ele>397.0</ele><time>2026-04-26T10:13:10.954Z</time></trkpt><trkpt lat="41.6193807" lon="14.0974302"><ele>393.0</ele><time>2026-04-26T10:13:11.945Z</time></trkpt><trkpt lat="41.6196255" lon="14.0975681"><ele>389.0</ele><time>2026-04-26T10:13:12.945Z</time></trkpt><trkpt lat="41.6198766" lon="14.0976837"><ele>389.0</ele><time>2026-04-26T10:13:13.947Z</time></trkpt><trkpt lat="41.6201284" lon="14.0977946"><ele>389.0</ele><time>2026-04-26T10:13:14.945Z</time></trkpt><trkpt lat="41.6203788" lon="14.0979054"><ele>402.5</ele><time>2026-04-26T10:13:15.945Z</time></trkpt><trkpt lat="41.6206293" lon="14.0980183"><ele>416.0</ele><time>2026-04-26T10:13:16.946Z</time></trkpt><trkpt lat="41.6208832" lon="14.0981489"><ele>411.5</ele><time>2026-04-26T10:13:17.943Z</time></trkpt><trkpt lat="41.621141" lon="14.0983073"><ele>407.0</ele><time>2026-04-26T10:13:18.948Z</time></trkpt><trkpt lat="41.6214033" lon="14.0984706"><ele>407.0</ele><time>2026-04-26T10:13:19.947Z</time></trkpt><trkpt lat="41.6216583" lon="14.0986077"><ele>407.0</ele><time>2026-04-26T10:13:20.939Z</time></trkpt><trkpt lat="41.6218993" lon="14.0987271"><ele>414.5</ele><time>2026-04-26T10:13:21.943Z</time></trkpt><trkpt lat="41.6221289" lon="14.0988258"><ele>422.0</ele><time>2026-04-26T10:13:22.948Z</time></trkpt><trkpt lat="41.6223534" lon="14.0988944"><ele>422.0</ele><time>2026-04-26T10:13:23.938Z</time></trkpt><trkpt lat="41.622575" lon="14.0989623"><ele>422.0</ele><time>2026-04-26T10:13:24.953Z</time></trkpt><trkpt lat="41.6227991" lon="14.0989751"><ele>423.0</ele><time>2026-04-26T10:13:25.943Z</time></trkpt><trkpt lat="41.623017" lon="14.0989585"><ele>424.0</ele><time>2026-04-26T10:13:26.94Z</time></trkpt><trkpt lat="41.623241" lon="14.0989199"><ele>425.0</ele><time>2026-04-26T10:13:27.952Z</time></trkpt><trkpt lat="41.6234656" lon="14.0988564"><ele>424.5</ele><time>2026-04-26T10:13:28.952Z</time></trkpt><trkpt lat="41.6236932" lon="14.0987659"><ele>424.0</ele><time>2026-04-26T10:13:29.948Z</time></trkpt><trkpt lat="41.6239323" lon="14.0986688"><ele>424.0</ele><time>2026-04-26T10:13:30.95Z</time></trkpt><trkpt lat="41.6241746" lon="14.0985722"><ele>424.0</ele><time>2026-04-26T10:13:31.936Z</time></trkpt><trkpt lat="41.6244217" lon="14.0984751"><ele>418.0</ele><time>2026-04-26T10:13:32.942Z</time></trkpt><trkpt lat="41.6246875" lon="14.0983774"><ele>412.0</ele><time>2026-04-26T10:13:33.938Z</time></trkpt><trkpt lat="41.6249719" lon="14.0983088"><ele>412.0</ele><time>2026-04-26T10:13:34.948Z</time></trkpt><trkpt lat="41.6252636" lon="14.0982771"><ele>412.0</ele><time>2026-04-26T10:13:35.942Z</time></trkpt><trkpt lat="41.6255498" lon="14.0982806"><ele>413.0</ele><time>2026-04-26T10:13:36.942Z</time></trkpt><trkpt lat="41.6258201" lon="14.0983219"><ele>414.0</ele><time>2026-04-26T10:13:37.943Z</time></trkpt><trkpt lat="41.6260715" lon="14.098404"><ele>422.0</ele><time>2026-04-26T10:13:38.942Z</time></trkpt><trkpt lat="41.6263156" lon="14.0984986"><ele>430.0</ele><time>2026-04-26T10:13:39.933Z</time></trkpt><trkpt lat="41.6265471" lon="14.0985827"><ele>430.0</ele><time>2026-04-26T10:13:40.948Z</time></trkpt><trkpt lat="41.6267796" lon="14.0986377"><ele>430.0</ele><time>2026-04-26T10:13:41.942Z</time></trkpt><trkpt lat="41.6270177" lon="14.0986663"><ele>432.0</ele><time>2026-04-26T10:13:42.938Z</time></trkpt><trkpt lat="41.6272659" lon="14.0986502"><ele>434.0</ele><time>2026-04-26T10:13:43.938Z</time></trkpt><trkpt lat="41.627519" lon="14.0986024"><ele>434.0</ele><time>2026-04-26T10:13:44.942Z</time></trkpt><trkpt lat="41.6277728" lon="14.0985413"><ele>434.0</ele><time>2026-04-26T10:13:45.943Z</time></trkpt><trkpt lat="41.6280414" lon="14.098469"><ele>428.5</ele><time>2026-04-26T10:13:46.949Z</time></trkpt><trkpt lat="41.6283142" lon="14.0984099"><ele>423.0</ele><time>2026-04-26T10:13:47.952Z</time></trkpt><trkpt lat="41.6285826" lon="14.0983448"><ele>423.0</ele><time>2026-04-26T10:13:48.946Z</time></trkpt><trkpt lat="41.6288607" lon="14.0983284"><ele>423.0</ele><time>2026-04-26T10:13:49.947Z</time></trkpt><trkpt lat="41.6291515" lon="14.0983225"><ele>423.0</ele><time>2026-04-26T10:13:50.939Z</time></trkpt><trkpt lat="41.6294501" lon="14.098335"><ele>423.0</ele><time>2026-04-26T10:13:51.944Z</time></trkpt><trkpt lat="41.6297553" lon="14.0983587"><ele>427.5</ele><time>2026-04-26T10:13:52.986Z</time></trkpt><trkpt lat="41.6300535" lon="14.0983883"><ele>432.0</ele><time>2026-04-26T10:13:53.947Z</time></trkpt><trkpt lat="41.6303363" lon="14.0984136"><ele>432.66666666666663</ele><time>2026-04-26T10:13:54.94Z</time></trkpt><trkpt lat="41.6305819" lon="14.0984341"><ele>433.3333333333333</ele><time>2026-04-26T10:13:55.944Z</time></trkpt><trkpt lat="41.6307767" lon="14.09845"><ele>434.0</ele><time>2026-04-26T10:13:56.944Z</time></trkpt><trkpt lat="41.6309301" lon="14.0984657"><ele>434.0</ele><time>2026-04-26T10:13:57.935Z</time></trkpt><trkpt lat="41.6310693" lon="14.0984803"><ele>434.0</ele><time>2026-04-26T10:13:58.941Z</time></trkpt><trkpt lat="41.6312099" lon="14.0984954"><ele>434.0</ele><time>2026-04-26T10:13:59.942Z</time></trkpt><trkpt lat="41.6313547" lon="14.098505"><ele>434.0</ele><time>2026-04-26T10:14:00.952Z</time></trkpt><trkpt lat="41.6315027" lon="14.0985098"><ele>434.75</ele><time>2026-04-26T10:14:01.941Z</time></trkpt><trkpt lat="41.6316445" lon="14.0985085"><ele>435.5</ele><time>2026-04-26T10:14:02.938Z</time></trkpt><trkpt lat="41.631789" lon="14.0985149"><ele>436.25</ele><time>2026-04-26T10:14:03.937Z</time></trkpt><trkpt lat="41.6319244" lon="14.0985069"><ele>437.0</ele><time>2026-04-26T10:14:04.946Z</time></trkpt><trkpt lat="41.6320747" lon="14.0985"><ele>457.0</ele><time>2026-04-26T10:14:05.936Z</time></trkpt><trkpt lat="41.6322254" lon="14.0984965"><ele>477.0</ele><time>2026-04-26T10:14:06.938Z</time></trkpt><trkpt lat="41.6404013" lon="14.0984556"><ele>479.33333333333337</ele><time>2026-04-26T10:14:42.948Z</time></trkpt><trkpt lat="41.6405727" lon="14.0984369"><ele>481.6666666666667</ele><time>2026-04-26T10:14:43.951Z</time></trkpt><trkpt lat="41.640766" lon="14.0984069"><ele>484.0</ele><time>2026-04-26T10:14:44.951Z</time></trkpt><trkpt lat="41.6409614" lon="14.0984013"><ele>482.0</ele><time>2026-04-26T10:14:45.943Z</time></trkpt><trkpt lat="41.6411879" lon="14.0983953"><ele>480.0</ele><time>2026-04-26T10:14:46.95Z</time></trkpt><trkpt lat="41.6414319" lon="14.0983719"><ele>480.0</ele><time>2026-04-26T10:14:47.943Z</time></trkpt><trkpt lat="41.6416852" lon="14.0983291"><ele>480.0</ele><time>2026-04-26T10:14:48.938Z</time></trkpt><trkpt lat="41.6419408" lon="14.0982671"><ele>495.5</ele><time>2026-04-26T10:14:49.942Z</time></trkpt><trkpt lat="41.6422015" lon="14.0981852"><ele>511.0</ele><time>2026-04-26T10:14:50.943Z</time></trkpt><trkpt lat="41.6424605" lon="14.0980841"><ele>511.0</ele><time>2026-04-26T10:14:51.936Z</time></trkpt><trkpt lat="41.6427297" lon="14.0979658"><ele>511.0</ele><time>2026-04-26T10:14:52.993Z</time></trkpt><trkpt lat="41.6429847" lon="14.0978278"><ele>506.0</ele><time>2026-04-26T10:14:53.982Z</time></trkpt><trkpt lat="41.6432353" lon="14.0976754"><ele>501.0</ele><time>2026-04-26T10:14:54.987Z</time></trkpt><trkpt lat="41.6434716" lon="14.097501"><ele>498.5</ele><time>2026-04-26T10:14:55.953Z</time></trkpt><trkpt lat="41.6436962" lon="14.0973145"><ele>496.0</ele><time>2026-04-26T10:14:56.976Z</time></trkpt><trkpt lat="41.6439055" lon="14.0971198"><ele>496.0</ele><time>2026-04-26T10:14:57.956Z</time></trkpt><trkpt lat="41.6440995" lon="14.0969049"><ele>496.0</ele><time>2026-04-26T10:14:58.947Z</time></trkpt><trkpt lat="41.644293" lon="14.0966926"><ele>496.5</ele><time>2026-04-26T10:14:59.97Z</time></trkpt><trkpt lat="41.6444745" lon="14.0964761"><ele>497.0</ele><time>2026-04-26T10:15:00.967Z</time></trkpt><trkpt lat="41.644632" lon="14.0962769"><ele>497.0</ele><time>2026-04-26T10:15:01.94Z</time></trkpt><trkpt lat="41.6447893" lon="14.0960817"><ele>497.0</ele><time>2026-04-26T10:15:02.947Z</time></trkpt><trkpt lat="41.6449342" lon="14.0959088"><ele>497.0</ele><time>2026-04-26T10:15:03.955Z</time></trkpt><trkpt lat="41.6450724" lon="14.0957534"><ele>498.3333333333333</ele><time>2026-04-26T10:15:04.969Z</time></trkpt><trkpt lat="41.6452054" lon="14.0956169"><ele>499.66666666666663</ele><time>2026-04-26T10:15:05.946Z</time></trkpt><trkpt lat="41.6453384" lon="14.0955037"><ele>501.0</ele><time>2026-04-26T10:15:06.94Z</time></trkpt><trkpt lat="41.6454728" lon="14.0954133"><ele>501.0</ele><time>2026-04-26T10:15:07.957Z</time></trkpt><trkpt lat="41.6456079" lon="14.0953429"><ele>501.0</ele><time>2026-04-26T10:15:08.941Z</time></trkpt><trkpt lat="41.6457496" lon="14.095291"><ele>501.0</ele><time>2026-04-26T10:15:09.94Z</time></trkpt><trkpt lat="41.6458922" lon="14.0952505"><ele>501.0</ele><time>2026-04-26T10:15:10.961Z</time></trkpt><trkpt lat="41.6460367" lon="14.0952252"><ele>500.66666666666663</ele><time>2026-04-26T10:15:11.945Z</time></trkpt><trkpt lat="41.6461848" lon="14.0952284"><ele>500.3333333333333</ele><time>2026-04-26T10:15:12.945Z</time></trkpt><trkpt lat="41.6463317" lon="14.0952477"><ele>500.0</ele><time>2026-04-26T10:15:13.945Z</time></trkpt><trkpt lat="41.6464869" lon="14.0952637"><ele>500.0</ele><time>2026-04-26T10:15:14.974Z</time></trkpt><trkpt lat="41.6466506" lon="14.0952753"><ele>500.0</ele><time>2026-04-26T10:15:15.944Z</time></trkpt><trkpt lat="41.646812" lon="14.0952736"><ele>500.0</ele><time>2026-04-26T10:15:16.945Z</time></trkpt><trkpt lat="41.646999" lon="14.095269"><ele>499.0</ele><time>2026-04-26T10:15:17.956Z</time></trkpt><trkpt lat="41.6471829" lon="14.0952587"><ele>498.0</ele><time>2026-04-26T10:15:18.995Z</time></trkpt><trkpt lat="41.6473714" lon="14.0952176"><ele>497.0</ele><time>2026-04-26T10:15:19.954Z</time></trkpt><trkpt lat="41.647549" lon="14.0951511"><ele>497.0</ele><time>2026-04-26T10:15:20.947Z</time></trkpt><trkpt lat="41.6477157" lon="14.0950494"><ele>497.0</ele><time>2026-04-26T10:15:21.951Z</time></trkpt><trkpt lat="41.6478729" lon="14.094923"><ele>497.0</ele><time>2026-04-26T10:15:22.936Z</time></trkpt><trkpt lat="41.6480218" lon="14.0947751"><ele>498.3333333333333</ele><time>2026-04-26T10:15:23.943Z</time></trkpt><trkpt lat="41.6481572" lon="14.0946103"><ele>499.66666666666663</ele><time>2026-04-26T10:15:24.945Z</time></trkpt><trkpt lat="41.6482734" lon="14.0944238"><ele>501.0</ele><time>2026-04-26T10:15:25.949Z</time></trkpt><trkpt lat="41.6483735" lon="14.0942233"><ele>502.66666666666663</ele><time>2026-04-26T10:15:26.941Z</time></trkpt><trkpt lat="41.6484552" lon="14.0940054"><ele>504.3333333333333</ele><time>2026-04-26T10:15:27.935Z</time></trkpt><trkpt lat="41.6485236" lon="14.0937758"><ele>506.0</ele><time>2026-04-26T10:15:28.943Z</time></trkpt><trkpt lat="41.6485818" lon="14.0935446"><ele>503.66666666666663</ele><time>2026-04-26T10:15:29.939Z</time></trkpt><trkpt lat="41.6486394" lon="14.0933"><ele>501.33333333333337</ele><time>2026-04-26T10:15:30.942Z</time></trkpt><trkpt lat="41.6487017" lon="14.0930536"><ele>499.0</ele><time>2026-04-26T10:15:31.94Z</time></trkpt><trkpt lat="41.6487606" lon="14.0928035"><ele>499.33333333333337</ele><time>2026-04-26T10:15:32.945Z</time></trkpt><trkpt lat="41.6488181" lon="14.0925453"><ele>499.66666666666663</ele><time>2026-04-26T10:15:33.938Z</time></trkpt><trkpt lat="41.6488712" lon="14.0922803"><ele>500.0</ele><time>2026-04-26T10:15:34.938Z</time></trkpt><trkpt lat="41.6489266" lon="14.092021"><ele>500.0</ele><time>2026-04-26T10:15:35.941Z</time></trkpt><trkpt lat="41.6489775" lon="14.0917649"><ele>500.0</ele><time>2026-04-26T10:15:36.962Z</time></trkpt><trkpt lat="41.6490306" lon="14.0915109"><ele>500.0</ele><time>2026-04-26T10:15:37.938Z</time></trkpt><trkpt lat="41.6490872" lon="14.0912687"><ele>505.3333333333333</ele><time>2026-04-26T10:15:38.935Z</time></trkpt><trkpt lat="41.6491584" lon="14.091041"><ele>510.66666666666663</ele><time>2026-04-26T10:15:39.946Z</time></trkpt><trkpt lat="41.6492501" lon="14.0908376"><ele>516.0</ele><time>2026-04-26T10:15:40.938Z</time></trkpt><trkpt lat="41.6493637" lon="14.0906861"><ele>516.75</ele><time>2026-04-26T10:15:41.936Z</time></trkpt><trkpt lat="41.6494927" lon="14.0905931"><ele>517.5</ele><time>2026-04-26T10:15:42.94Z</time></trkpt><trkpt lat="41.6496355" lon="14.090556"><ele>518.25</ele><time>2026-04-26T10:15:43.932Z</time></trkpt><trkpt lat="41.6497927" lon="14.0905648"><ele>519.0</ele><time>2026-04-26T10:15:44.939Z</time></trkpt><trkpt lat="41.6499617" lon="14.0905987"><ele>519.0</ele><time>2026-04-26T10:15:45.938Z</time></trkpt><trkpt lat="41.6501222" lon="14.0906286"><ele>519.0</ele><time>2026-04-26T10:15:46.936Z</time></trkpt><trkpt lat="41.6502698" lon="14.0906349"><ele>519.0</ele><time>2026-04-26T10:15:47.936Z</time></trkpt><trkpt lat="41.6503963" lon="14.0905557"><ele>519.0</ele><time>2026-04-26T10:15:48.936Z</time></trkpt><trkpt lat="41.6504853" lon="14.0904283"><ele>519.5</ele><time>2026-04-26T10:15:49.945Z</time></trkpt><trkpt lat="41.6505407" lon="14.0902616"><ele>520.0</ele><time>2026-04-26T10:15:50.938Z</time></trkpt><trkpt lat="41.6505897" lon="14.0900728"><ele>520.5</ele><time>2026-04-26T10:15:51.945Z</time></trkpt><trkpt lat="41.6506279" lon="14.0898819"><ele>521.0</ele><time>2026-04-26T10:15:52.95Z</time></trkpt><trkpt lat="41.65069" lon="14.0897085"><ele>521.0</ele><time>2026-04-26T10:15:53.942Z</time></trkpt><trkpt lat="41.6507759" lon="14.0895743"><ele>521.0</ele><time>2026-04-26T10:15:54.94Z</time></trkpt><trkpt lat="41.6508901" lon="14.089486"><ele>521.0</ele><time>2026-04-26T10:15:55.936Z</time></trkpt><trkpt lat="41.6510242" lon="14.0894271"><ele>521.0</ele><time>2026-04-26T10:15:56.944Z</time></trkpt><trkpt lat="41.6511711" lon="14.089378"><ele>524.3333333333333</ele><time>2026-04-26T10:15:57.936Z</time></trkpt><trkpt lat="41.6513246" lon="14.0893133"><ele>527.6666666666666</ele><time>2026-04-26T10:15:58.944Z</time></trkpt><trkpt lat="41.6514691" lon="14.0892177"><ele>531.0</ele><time>2026-04-26T10:15:59.945Z</time></trkpt><trkpt lat="41.6515957" lon="14.089084"><ele>531.0</ele><time>2026-04-26T10:16:00.938Z</time></trkpt><trkpt lat="41.651713" lon="14.0889133"><ele>531.0</ele><time>2026-04-26T10:16:01.942Z</time></trkpt><trkpt lat="41.6518347" lon="14.0887251"><ele>531.0</ele><time>2026-04-26T10:16:02.941Z</time></trkpt><trkpt lat="41.6519541" lon="14.0885284"><ele>531.0</ele><time>2026-04-26T10:16:03.938Z</time></trkpt><trkpt lat="41.6520745" lon="14.088335"><ele>531.0</ele><time>2026-04-26T10:16:04.946Z</time></trkpt><trkpt lat="41.6521908" lon="14.0881541"><ele>531.0</ele><time>2026-04-26T10:16:05.932Z</time></trkpt><trkpt lat="41.6522988" lon="14.0879872"><ele>531.0</ele><time>2026-04-26T10:16:06.94Z</time></trkpt><trkpt lat="41.6524048" lon="14.0878402"><ele>531.0</ele><time>2026-04-26T10:16:07.94Z</time></trkpt><trkpt lat="41.6524983" lon="14.0877121"><ele>531.0</ele><time>2026-04-26T10:16:08.934Z</time></trkpt><trkpt lat="41.6526122" lon="14.0876525"><ele>531.0</ele><time>2026-04-26T10:16:09.939Z</time></trkpt><trkpt lat="41.6527706" lon="14.0876958"><ele>527.0</ele><time>2026-04-26T10:16:10.948Z</time></trkpt><trkpt lat="41.6529123" lon="14.0877548"><ele>523.0</ele><time>2026-04-26T10:16:11.938Z</time></trkpt><trkpt lat="41.6530699" lon="14.0878084"><ele>519.0</ele><time>2026-04-26T10:16:12.941Z</time></trkpt><trkpt lat="41.6532318" lon="14.0878661"><ele>519.0</ele><time>2026-04-26T10:16:13.945Z</time></trkpt><trkpt lat="41.6534089" lon="14.0879233"><ele>519.0</ele><time>2026-04-26T10:16:14.942Z</time></trkpt><trkpt lat="41.6535842" lon="14.087971"><ele>519.0</ele><time>2026-04-26T10:16:15.935Z</time></trkpt><trkpt lat="41.6537533" lon="14.0880041"><ele>519.3333333333334</ele><time>2026-04-26T10:16:16.959Z</time></trkpt><trkpt lat="41.6539322" lon="14.088008"><ele>519.6666666666667</ele><time>2026-04-26T10:16:17.944Z</time></trkpt><trkpt lat="41.6540927" lon="14.0879681"><ele>520.0</ele><time>2026-04-26T10:16:18.94Z</time></trkpt><trkpt lat="41.6542326" lon="14.0878738"><ele>520.0</ele><time>2026-04-26T10:16:19.943Z</time></trkpt><trkpt lat="41.6543388" lon="14.0877317"><ele>520.0</ele><time>2026-04-26T10:16:20.944Z</time></trkpt><trkpt lat="41.6544079" lon="14.0875477"><ele>520.0</ele><time>2026-04-26T10:16:21.945Z</time></trkpt><trkpt lat="41.6544517" lon="14.0873253"><ele>520.6666666666667</ele><time>2026-04-26T10:16:22.943Z</time></trkpt><trkpt lat="41.6544903" lon="14.0870889"><ele>521.3333333333334</ele><time>2026-04-26T10:16:23.945Z</time></trkpt><trkpt lat="41.6545273" lon="14.0868589"><ele>522.0</ele><time>2026-04-26T10:16:24.95Z</time></trkpt><trkpt lat="41.6545644" lon="14.0866319"><ele>522.3333333333334</ele><time>2026-04-26T10:16:25.943Z</time></trkpt><trkpt lat="41.6545951" lon="14.0863988"><ele>522.6666666666667</ele><time>2026-04-26T10:16:26.944Z</time></trkpt><trkpt lat="41.6546264" lon="14.0861548"><ele>523.0</ele><time>2026-04-26T10:16:27.94Z</time></trkpt><trkpt lat="41.654673" lon="14.0859028"><ele>522.3333333333334</ele><time>2026-04-26T10:16:28.947Z</time></trkpt><trkpt lat="41.6547283" lon="14.0856289"><ele>521.6666666666666</ele><time>2026-04-26T10:16:29.944Z</time></trkpt><trkpt lat="41.6547814" lon="14.0853438"><ele>521.0</ele><time>2026-04-26T10:16:30.944Z</time></trkpt><trkpt lat="41.6548333" lon="14.0850518"><ele>521.5</ele><time>2026-04-26T10:16:31.943Z</time></trkpt><trkpt lat="41.6548802" lon="14.0847544"><ele>522.0</ele><time>2026-04-26T10:16:32.944Z</time></trkpt><trkpt lat="41.6549327" lon="14.0844501"><ele>522.0</ele><time>2026-04-26T10:16:33.95Z</time></trkpt><trkpt lat="41.6549838" lon="14.0841395"><ele>522.0</ele><time>2026-04-26T10:16:34.938Z</time></trkpt><trkpt lat="41.6550342" lon="14.0838269"><ele>523.0</ele><time>2026-04-26T10:16:35.939Z</time></trkpt><trkpt lat="41.655085" lon="14.0835164"><ele>524.0</ele><time>2026-04-26T10:16:36.94Z</time></trkpt><trkpt lat="41.6551376" lon="14.0832134"><ele>524.0</ele><time>2026-04-26T10:16:37.941Z</time></trkpt><trkpt lat="41.6551894" lon="14.0829117"><ele>524.0</ele><time>2026-04-26T10:16:38.943Z</time></trkpt><trkpt lat="41.6552413" lon="14.0826153"><ele>524.0</ele><time>2026-04-26T10:16:39.941Z</time></trkpt><trkpt lat="41.6552905" lon="14.0823241"><ele>524.0</ele><time>2026-04-26T10:16:40.954Z</time></trkpt><trkpt lat="41.6553365" lon="14.0820396"><ele>524.0</ele><time>2026-04-26T10:16:41.952Z</time></trkpt><trkpt lat="41.6553828" lon="14.0817619"><ele>524.0</ele><time>2026-04-26T10:16:42.947Z</time></trkpt><trkpt lat="41.6554284" lon="14.0814901"><ele>524.0</ele><time>2026-04-26T10:16:43.947Z</time></trkpt><trkpt lat="41.655473" lon="14.0812179"><ele>524.0</ele><time>2026-04-26T10:16:44.959Z</time></trkpt><trkpt lat="41.6555203" lon="14.0809469"><ele>523.6666666666666</ele><time>2026-04-26T10:16:45.947Z</time></trkpt><trkpt lat="41.6555655" lon="14.0806744"><ele>523.3333333333334</ele><time>2026-04-26T10:16:46.939Z</time></trkpt><trkpt lat="41.6556129" lon="14.0804011"><ele>523.0</ele><time>2026-04-26T10:16:47.951Z</time></trkpt><trkpt lat="41.6556596" lon="14.0801278"><ele>523.3333333333334</ele><time>2026-04-26T10:16:48.96Z</time></trkpt><trkpt lat="41.6557058" lon="14.0798542"><ele>523.6666666666666</ele><time>2026-04-26T10:16:50.007Z</time></trkpt><trkpt lat="41.6557512" lon="14.0795807"><ele>524.0</ele><time>2026-04-26T10:16:50.946Z</time></trkpt><trkpt lat="41.6557967" lon="14.0793067"><ele>525.0</ele><time>2026-04-26T10:16:51.951Z</time></trkpt><trkpt lat="41.6558418" lon="14.0790385"><ele>526.0</ele><time>2026-04-26T10:16:52.953Z</time></trkpt><trkpt lat="41.6558846" lon="14.0787734"><ele>527.0</ele><time>2026-04-26T10:16:53.943Z</time></trkpt><trkpt lat="41.6559301" lon="14.0785167"><ele>527.0</ele><time>2026-04-26T10:16:54.958Z</time></trkpt><trkpt lat="41.6559743" lon="14.0782789"><ele>527.0</ele><time>2026-04-26T10:16:55.946Z</time></trkpt><trkpt lat="41.6560109" lon="14.0780587"><ele>527.0</ele><time>2026-04-26T10:16:56.943Z</time></trkpt><trkpt lat="41.6560482" lon="14.0778572"><ele>527.0</ele><time>2026-04-26T10:16:57.952Z</time></trkpt><trkpt lat="41.6560925" lon="14.0776768"><ele>527.0</ele><time>2026-04-26T10:16:58.946Z</time></trkpt><trkpt lat="41.656148" lon="14.0775133"><ele>527.0</ele><time>2026-04-26T10:16:59.944Z</time></trkpt><trkpt lat="41.6562222" lon="14.0773639"><ele>527.0</ele><time>2026-04-26T10:17:00.955Z</time></trkpt><trkpt lat="41.6563062" lon="14.0772252"><ele>528.0</ele><time>2026-04-26T10:17:01.951Z</time></trkpt><trkpt lat="41.6564289" lon="14.0771177"><ele>529.0</ele><time>2026-04-26T10:17:02.947Z</time></trkpt><trkpt lat="41.6565532" lon="14.0770101"><ele>530.0</ele><time>2026-04-26T10:17:03.958Z</time></trkpt><trkpt lat="41.6566776" lon="14.0768926"><ele>531.0</ele><time>2026-04-26T10:17:04.956Z</time></trkpt><trkpt lat="41.6568142" lon="14.0767643"><ele>532.3333333333334</ele><time>2026-04-26T10:17:05.945Z</time></trkpt><trkpt lat="41.6569631" lon="14.0766364"><ele>533.6666666666667</ele><time>2026-04-26T10:17:06.951Z</time></trkpt><trkpt lat="41.6571223" lon="14.0765017"><ele>535.0</ele><time>2026-04-26T10:17:07.946Z</time></trkpt><trkpt lat="41.6572884" lon="14.0763565"><ele>535.0</ele><time>2026-04-26T10:17:08.952Z</time></trkpt><trkpt lat="41.6574495" lon="14.0762019"><ele>535.0</ele><time>2026-04-26T10:17:09.941Z</time></trkpt><trkpt lat="41.6576112" lon="14.0760464"><ele>535.0</ele><time>2026-04-26T10:17:10.951Z</time></trkpt><trkpt lat="41.6577709" lon="14.0758934"><ele>533.6666666666667</ele><time>2026-04-26T10:17:11.941Z</time></trkpt><trkpt lat="41.6579178" lon="14.0757497"><ele>532.3333333333334</ele><time>2026-04-26T10:17:12.94Z</time></trkpt><trkpt lat="41.6580374" lon="14.0755976"><ele>531.0</ele><time>2026-04-26T10:17:13.951Z</time></trkpt><trkpt lat="41.6581508" lon="14.0754522"><ele>531.0</ele><time>2026-04-26T10:17:14.941Z</time></trkpt><trkpt lat="41.6581906" lon="14.0752788"><ele>531.0</ele><time>2026-04-26T10:17:15.941Z</time></trkpt><trkpt lat="41.6582206" lon="14.075093"><ele>531.0</ele><time>2026-04-26T10:17:16.939Z</time></trkpt><trkpt lat="41.6582123" lon="14.0748888"><ele>531.0</ele><time>2026-04-26T10:17:17.944Z</time></trkpt><trkpt lat="41.6582021" lon="14.0746834"><ele>534.25</ele><time>2026-04-26T10:17:18.944Z</time></trkpt><trkpt lat="41.6581987" lon="14.0744776"><ele>537.5</ele><time>2026-04-26T10:17:19.947Z</time></trkpt><trkpt lat="41.6582226" lon="14.0742811"><ele>540.75</ele><time>2026-04-26T10:17:20.942Z</time></trkpt><trkpt lat="41.6582495" lon="14.0741054"><ele>544.0</ele><time>2026-04-26T10:17:21.937Z</time></trkpt><trkpt lat="41.6583381" lon="14.0739865"><ele>545.75</ele><time>2026-04-26T10:17:22.955Z</time></trkpt><trkpt lat="41.6584556" lon="14.0738927"><ele>547.5</ele><time>2026-04-26T10:17:23.948Z</time></trkpt><trkpt lat="41.6585795" lon="14.0738074"><ele>549.25</ele><time>2026-04-26T10:17:24.945Z</time></trkpt><trkpt lat="41.658728" lon="14.0737252"><ele>551.0</ele><time>2026-04-26T10:17:25.95Z</time></trkpt><trkpt lat="41.6588816" lon="14.0736396"><ele>551.0</ele><time>2026-04-26T10:17:26.949Z</time></trkpt><trkpt lat="41.6590502" lon="14.0735692"><ele>551.0</ele><time>2026-04-26T10:17:27.941Z</time></trkpt><trkpt lat="41.6592198" lon="14.0734984"><ele>551.0</ele><time>2026-04-26T10:17:28.939Z</time></trkpt><trkpt lat="41.6593975" lon="14.0734755"><ele>547.6666666666666</ele><time>2026-04-26T10:17:29.94Z</time></trkpt><trkpt lat="41.6595738" lon="14.0734519"><ele>544.3333333333334</ele><time>2026-04-26T10:17:30.95Z</time></trkpt><trkpt lat="41.6597477" lon="14.0734089"><ele>541.0</ele><time>2026-04-26T10:17:31.955Z</time></trkpt><trkpt lat="41.65991" lon="14.0733157"><ele>550.3333333333334</ele><time>2026-04-26T10:17:32.949Z</time></trkpt><trkpt lat="41.660056" lon="14.0731965"><ele>559.6666666666666</ele><time>2026-04-26T10:17:33.941Z</time></trkpt><trkpt lat="41.6601815" lon="14.07305"><ele>569.0</ele><time>2026-04-26T10:17:34.935Z</time></trkpt><trkpt lat="41.6602804" lon="14.0728777"><ele>561.0</ele><time>2026-04-26T10:17:35.947Z</time></trkpt><trkpt lat="41.6603449" lon="14.0726781"><ele>553.0</ele><time>2026-04-26T10:17:36.936Z</time></trkpt><trkpt lat="41.660388" lon="14.0724624"><ele>545.0</ele><time>2026-04-26T10:17:37.942Z</time></trkpt><trkpt lat="41.6604253" lon="14.0722416"><ele>545.0</ele><time>2026-04-26T10:17:38.939Z</time></trkpt><trkpt lat="41.6604663" lon="14.0720169"><ele>545.0</ele><time>2026-04-26T10:17:39.942Z</time></trkpt><trkpt lat="41.66052" lon="14.071795"><ele>545.0</ele><time>2026-04-26T10:17:40.939Z</time></trkpt><trkpt lat="41.6605923" lon="14.0715826"><ele>551.6666666666666</ele><time>2026-04-26T10:17:41.942Z</time></trkpt><trkpt lat="41.660688" lon="14.0713928"><ele>558.3333333333334</ele><time>2026-04-26T10:17:42.943Z</time></trkpt><trkpt lat="41.6607866" lon="14.0712164"><ele>565.0</ele><time>2026-04-26T10:17:43.94Z</time></trkpt><trkpt lat="41.6609233" lon="14.0710716"><ele>565.0</ele><time>2026-04-26T10:17:44.943Z</time></trkpt><trkpt lat="41.6610592" lon="14.0709394"><ele>565.0</ele><time>2026-04-26T10:17:45.935Z</time></trkpt><trkpt lat="41.6611806" lon="14.0708156"><ele>565.0</ele><time>2026-04-26T10:17:46.938Z</time></trkpt><trkpt lat="41.6612728" lon="14.0706955"><ele>565.0</ele><time>2026-04-26T10:17:47.941Z</time></trkpt><trkpt lat="41.6613205" lon="14.0705537"><ele>561.75</ele><time>2026-04-26T10:17:48.946Z</time></trkpt><trkpt lat="41.6613353" lon="14.0703904"><ele>558.5</ele><time>2026-04-26T10:17:49.944Z</time></trkpt><trkpt lat="41.6613359" lon="14.0702073"><ele>555.25</ele><time>2026-04-26T10:17:50.945Z</time></trkpt><trkpt lat="41.6613285" lon="14.0700015"><ele>552.0</ele><time>2026-04-26T10:17:51.94Z</time></trkpt><trkpt lat="41.6613182" lon="14.0697903"><ele>551.6666666666666</ele><time>2026-04-26T10:17:52.948Z</time></trkpt><trkpt lat="41.6613041" lon="14.0695674"><ele>551.3333333333333</ele><time>2026-04-26T10:17:53.952Z</time></trkpt><trkpt lat="41.661295" lon="14.0693438"><ele>551.0</ele><time>2026-04-26T10:17:54.94Z</time></trkpt><trkpt lat="41.6612772" lon="14.0691184"><ele>551.6666666666666</ele><time>2026-04-26T10:17:55.933Z</time></trkpt><trkpt lat="41.6612399" lon="14.0689121"><ele>552.3333333333334</ele><time>2026-04-26T10:17:56.94Z</time></trkpt><trkpt lat="41.6611822" lon="14.0687271"><ele>553.0</ele><time>2026-04-26T10:17:57.942Z</time></trkpt><trkpt lat="41.6611274" lon="14.0685474"><ele>553.5</ele><time>2026-04-26T10:17:58.942Z</time></trkpt><trkpt lat="41.6611011" lon="14.0683808"><ele>554.0</ele><time>2026-04-26T10:17:59.941Z</time></trkpt><trkpt lat="41.6610866" lon="14.0682002"><ele>554.5</ele><time>2026-04-26T10:18:00.945Z</time></trkpt><trkpt lat="41.6611341" lon="14.0680069"><ele>555.0</ele><time>2026-04-26T10:18:01.942Z</time></trkpt><trkpt lat="41.6612004" lon="14.0678155"><ele>555.0</ele><time>2026-04-26T10:18:02.947Z</time></trkpt><trkpt lat="41.6612796" lon="14.0676094"><ele>555.0</ele><time>2026-04-26T10:18:03.952Z</time></trkpt><trkpt lat="41.6613519" lon="14.0673874"><ele>555.0</ele><time>2026-04-26T10:18:04.949Z</time></trkpt><trkpt lat="41.6613956" lon="14.0671509"><ele>558.0</ele><time>2026-04-26T10:18:05.947Z</time></trkpt><trkpt lat="41.6614201" lon="14.0669126"><ele>561.0</ele><time>2026-04-26T10:18:06.939Z</time></trkpt><trkpt lat="41.6614436" lon="14.0666854"><ele>564.0</ele><time>2026-04-26T10:18:07.953Z</time></trkpt><trkpt lat="41.6614708" lon="14.066463"><ele>570.0</ele><time>2026-04-26T10:18:08.953Z</time></trkpt><trkpt lat="41.661523" lon="14.0662608"><ele>576.0</ele><time>2026-04-26T10:18:09.935Z</time></trkpt><trkpt lat="41.6616138" lon="14.0660724"><ele>582.0</ele><time>2026-04-26T10:18:10.936Z</time></trkpt><trkpt lat="41.6617246" lon="14.0658793"><ele>586.3333333333334</ele><time>2026-04-26T10:18:11.941Z</time></trkpt><trkpt lat="41.6618353" lon="14.0656651"><ele>590.6666666666667</ele><time>2026-04-26T10:18:12.941Z</time></trkpt><trkpt lat="41.661941" lon="14.0654431"><ele>595.0</ele><time>2026-04-26T10:18:13.938Z</time></trkpt><trkpt lat="41.6620507" lon="14.0652231"><ele>587.0</ele><time>2026-04-26T10:18:14.941Z</time></trkpt><trkpt lat="41.6621657" lon="14.065007"><ele>579.0</ele><time>2026-04-26T10:18:15.942Z</time></trkpt><trkpt lat="41.6622791" lon="14.0647962"><ele>571.0</ele><time>2026-04-26T10:18:16.943Z</time></trkpt><trkpt lat="41.6623782" lon="14.0645952"><ele>571.0</ele><time>2026-04-26T10:18:17.941Z</time></trkpt><trkpt lat="41.6624608" lon="14.0644112"><ele>571.0</ele><time>2026-04-26T10:18:18.94Z</time></trkpt><trkpt lat="41.6624953" lon="14.0642392"><ele>571.0</ele><time>2026-04-26T10:18:19.941Z</time></trkpt><trkpt lat="41.6624881" lon="14.0640888"><ele>571.0</ele><time>2026-04-26T10:18:20.942Z</time></trkpt><trkpt lat="41.6624356" lon="14.0639617"><ele>570.5</ele><time>2026-04-26T10:18:21.937Z</time></trkpt><trkpt lat="41.6623446" lon="14.0638684"><ele>570.0</ele><time>2026-04-26T10:18:22.945Z</time></trkpt><trkpt lat="41.6622361" lon="14.0638183"><ele>569.5</ele><time>2026-04-26T10:18:23.951Z</time></trkpt><trkpt lat="41.6621201" lon="14.0638065"><ele>569.0</ele><time>2026-04-26T10:18:24.944Z</time></trkpt><trkpt lat="41.6620023" lon="14.0638013"><ele>572.5</ele><time>2026-04-26T10:18:25.936Z</time></trkpt><trkpt lat="41.6618939" lon="14.063781"><ele>576.0</ele><time>2026-04-26T10:18:26.941Z</time></trkpt><trkpt lat="41.6618165" lon="14.0636897"><ele>579.5</ele><time>2026-04-26T10:18:27.936Z</time></trkpt><trkpt lat="41.6617482" lon="14.0635599"><ele>583.0</ele><time>2026-04-26T10:18:28.94Z</time></trkpt><trkpt lat="41.6616936" lon="14.0633997"><ele>584.3333333333334</ele><time>2026-04-26T10:18:29.938Z</time></trkpt><trkpt lat="41.6616559" lon="14.0631934"><ele>585.6666666666666</ele><time>2026-04-26T10:18:30.943Z</time></trkpt><trkpt lat="41.6616293" lon="14.0629632"><ele>587.0</ele><time>2026-04-26T10:18:31.943Z</time></trkpt><trkpt lat="41.6616031" lon="14.0627169"><ele>587.0</ele><time>2026-04-26T10:18:32.936Z</time></trkpt><trkpt lat="41.6615772" lon="14.062456"><ele>587.0</ele><time>2026-04-26T10:18:33.94Z</time></trkpt><trkpt lat="41.6615531" lon="14.0621997"><ele>587.0</ele><time>2026-04-26T10:18:34.946Z</time></trkpt><trkpt lat="41.6615326" lon="14.061952"><ele>587.0</ele><time>2026-04-26T10:18:35.944Z</time></trkpt><trkpt lat="41.6615239" lon="14.0617069"><ele>587.0</ele><time>2026-04-26T10:18:36.936Z</time></trkpt><trkpt lat="41.6615355" lon="14.0614654"><ele>587.0</ele><time>2026-04-26T10:18:37.947Z</time></trkpt><trkpt lat="41.6615684" lon="14.0612278"><ele>586.6666666666666</ele><time>2026-04-26T10:18:38.944Z</time></trkpt><trkpt lat="41.6616195" lon="14.0610051"><ele>586.3333333333334</ele><time>2026-04-26T10:18:39.944Z</time></trkpt><trkpt lat="41.6616792" lon="14.0607932"><ele>586.0</ele><time>2026-04-26T10:18:40.94Z</time></trkpt><trkpt lat="41.6617385" lon="14.0605919"><ele>585.75</ele><time>2026-04-26T10:18:41.941Z</time></trkpt><trkpt lat="41.6617781" lon="14.0604008"><ele>585.5</ele><time>2026-04-26T10:18:42.948Z</time></trkpt><trkpt lat="41.6618048" lon="14.0602201"><ele>585.25</ele><time>2026-04-26T10:18:43.94Z</time></trkpt><trkpt lat="41.6617509" lon="14.0600552"><ele>585.0</ele><time>2026-04-26T10:18:44.936Z</time></trkpt><trkpt lat="41.661668" lon="14.0599159"><ele>585.0</ele><time>2026-04-26T10:18:45.948Z</time></trkpt><trkpt lat="41.6615732" lon="14.0597652"><ele>585.0</ele><time>2026-04-26T10:18:46.94Z</time></trkpt><trkpt lat="41.6614842" lon="14.0596024"><ele>585.0</ele><time>2026-04-26T10:18:47.947Z</time></trkpt><trkpt lat="41.6614" lon="14.0594174"><ele>585.0</ele><time>2026-04-26T10:18:48.948Z</time></trkpt><trkpt lat="41.6613284" lon="14.0592171"><ele>585.0</ele><time>2026-04-26T10:18:49.957Z</time></trkpt><trkpt lat="41.6612743" lon="14.0590004"><ele>585.0</ele><time>2026-04-26T10:18:50.943Z</time></trkpt><trkpt lat="41.6612443" lon="14.0587578"><ele>584.6666666666666</ele><time>2026-04-26T10:18:51.943Z</time></trkpt><trkpt lat="41.6612293" lon="14.0584929"><ele>584.3333333333333</ele><time>2026-04-26T10:18:52.937Z</time></trkpt><trkpt lat="41.6612219" lon="14.0582213"><ele>584.0</ele><time>2026-04-26T10:18:53.944Z</time></trkpt><trkpt lat="41.6612131" lon="14.0579475"><ele>584.6666666666666</ele><time>2026-04-26T10:18:54.939Z</time></trkpt><trkpt lat="41.6612019" lon="14.0576796"><ele>585.3333333333334</ele><time>2026-04-26T10:18:55.943Z</time></trkpt><trkpt lat="41.6611893" lon="14.0574134"><ele>586.0</ele><time>2026-04-26T10:18:56.943Z</time></trkpt><trkpt lat="41.6611699" lon="14.0571568"><ele>587.0</ele><time>2026-04-26T10:18:57.938Z</time></trkpt><trkpt lat="41.6611562" lon="14.0569115"><ele>588.0</ele><time>2026-04-26T10:18:58.938Z</time></trkpt><trkpt lat="41.6611619" lon="14.0566676"><ele>589.0</ele><time>2026-04-26T10:18:59.956Z</time></trkpt><trkpt lat="41.6611903" lon="14.0564294"><ele>590.3333333333334</ele><time>2026-04-26T10:19:00.947Z</time></trkpt><trkpt lat="41.6612391" lon="14.0561904"><ele>591.6666666666666</ele><time>2026-04-26T10:19:01.944Z</time></trkpt><trkpt lat="41.6612931" lon="14.0559483"><ele>593.0</ele><time>2026-04-26T10:19:02.936Z</time></trkpt><trkpt lat="41.661346" lon="14.0556999"><ele>594.0</ele><time>2026-04-26T10:19:03.945Z</time></trkpt><trkpt lat="41.6614011" lon="14.0554455"><ele>595.0</ele><time>2026-04-26T10:19:04.941Z</time></trkpt><trkpt lat="41.6614528" lon="14.0551911"><ele>596.0</ele><time>2026-04-26T10:19:05.938Z</time></trkpt><trkpt lat="41.6615061" lon="14.0549297"><ele>597.6666666666666</ele><time>2026-04-26T10:19:06.943Z</time></trkpt><trkpt lat="41.6615577" lon="14.0546667"><ele>599.3333333333334</ele><time>2026-04-26T10:19:07.948Z</time></trkpt><trkpt lat="41.6616097" lon="14.0544142"><ele>601.0</ele><time>2026-04-26T10:19:08.944Z</time></trkpt><trkpt lat="41.6616531" lon="14.0541725"><ele>602.0</ele><time>2026-04-26T10:19:09.946Z</time></trkpt><trkpt lat="41.6616694" lon="14.0539353"><ele>603.0</ele><time>2026-04-26T10:19:10.948Z</time></trkpt><trkpt lat="41.6616706" lon="14.0536927"><ele>604.0</ele><time>2026-04-26T10:19:11.935Z</time></trkpt><trkpt lat="41.661669" lon="14.0534542"><ele>603.0</ele><time>2026-04-26T10:19:12.946Z</time></trkpt><trkpt lat="41.6616603" lon="14.053224"><ele>602.0</ele><time>2026-04-26T10:19:13.953Z</time></trkpt><trkpt lat="41.661656" lon="14.0529954"><ele>601.0</ele><time>2026-04-26T10:19:14.943Z</time></trkpt><trkpt lat="41.6616325" lon="14.0527806"><ele>601.0</ele><time>2026-04-26T10:19:15.949Z</time></trkpt><trkpt lat="41.6615943" lon="14.0525719"><ele>601.0</ele><time>2026-04-26T10:19:16.95Z</time></trkpt><trkpt lat="41.6615438" lon="14.0523663"><ele>601.0</ele><time>2026-04-26T10:19:17.942Z</time></trkpt><trkpt lat="41.6614949" lon="14.05217"><ele>601.0</ele><time>2026-04-26T10:19:18.943Z</time></trkpt><trkpt lat="41.6614471" lon="14.0519832"><ele>601.0</ele><time>2026-04-26T10:19:19.937Z</time></trkpt><trkpt lat="41.6614035" lon="14.0518118"><ele>601.0</ele><time>2026-04-26T10:19:20.935Z</time></trkpt><trkpt lat="41.6613742" lon="14.0516541"><ele>601.0</ele><time>2026-04-26T10:19:21.94Z</time></trkpt><trkpt lat="41.6613603" lon="14.0514993"><ele>601.5</ele><time>2026-04-26T10:19:22.942Z</time></trkpt><trkpt lat="41.6613814" lon="14.0513537"><ele>602.0</ele><time>2026-04-26T10:19:23.946Z</time></trkpt><trkpt lat="41.6614033" lon="14.0512363"><ele>602.5</ele><time>2026-04-26T10:19:24.951Z</time></trkpt><trkpt lat="41.6614164" lon="14.0511482"><ele>603.0</ele><time>2026-04-26T10:19:25.946Z</time></trkpt><trkpt lat="41.6614358" lon="14.0510604"><ele>603.5</ele><time>2026-04-26T10:19:27.944Z</time></trkpt><trkpt lat="41.6614911" lon="14.0509488"><ele>604.0</ele><time>2026-04-26T10:20:30.948Z</time></trkpt><trkpt lat="41.6615889" lon="14.0509097"><ele>604.0</ele><time>2026-04-26T10:20:32.949Z</time></trkpt><trkpt lat="41.6616594" lon="14.0509028"><ele>604.0</ele><time>2026-04-26T10:20:33.954Z</time></trkpt><trkpt lat="41.6617445" lon="14.0509008"><ele>604.0</ele><time>2026-04-26T10:20:34.956Z</time></trkpt><trkpt lat="41.6618362" lon="14.0509103"><ele>604.0</ele><time>2026-04-26T10:20:35.954Z</time></trkpt><trkpt lat="41.6619256" lon="14.0509171"><ele>604.0</ele><time>2026-04-26T10:20:36.951Z</time></trkpt><trkpt lat="41.6620187" lon="14.0509083"><ele>604.0</ele><time>2026-04-26T10:20:37.951Z</time></trkpt><trkpt lat="41.6621098" lon="14.0508778"><ele>604.0</ele><time>2026-04-26T10:20:38.941Z</time></trkpt><trkpt lat="41.6621997" lon="14.0508289"><ele>604.0</ele><time>2026-04-26T10:20:39.958Z</time></trkpt><trkpt lat="41.6622939" lon="14.0507754"><ele>604.0</ele><time>2026-04-26T10:20:40.957Z</time></trkpt><trkpt lat="41.6623945" lon="14.0507235"><ele>604.0</ele><time>2026-04-26T10:20:41.951Z</time></trkpt><trkpt lat="41.6624936" lon="14.0506907"><ele>604.0</ele><time>2026-04-26T10:20:42.95Z</time></trkpt><trkpt lat="41.6625836" lon="14.0506919"><ele>604.0</ele><time>2026-04-26T10:20:43.946Z</time></trkpt><trkpt lat="41.6626684" lon="14.0507053"><ele>604.0</ele><time>2026-04-26T10:20:44.947Z</time></trkpt><trkpt lat="41.6627304" lon="14.0507829"><ele>604.0</ele><time>2026-04-26T10:20:45.941Z</time></trkpt><trkpt lat="41.6627839" lon="14.0508552"><ele>604.0</ele><time>2026-04-26T10:20:46.956Z</time></trkpt><trkpt lat="41.6628816" lon="14.0509225"><ele>604.0</ele><time>2026-04-26T10:20:48.941Z</time></trkpt><trkpt lat="41.6629697" lon="14.0507945"><ele>604.6666666666667</ele><time>2026-04-26T10:20:50.952Z</time></trkpt><trkpt lat="41.6630014" lon="14.0506997"><ele>605.3333333333334</ele><time>2026-04-26T10:20:51.952Z</time></trkpt><trkpt lat="41.663014" lon="14.0505868"><ele>606.0</ele><time>2026-04-26T10:20:52.947Z</time></trkpt><trkpt lat="41.6630146" lon="14.0504745"><ele>606.6666666666666</ele><time>2026-04-26T10:20:53.95Z</time></trkpt><trkpt lat="41.663014" lon="14.0503789"><ele>607.3333333333333</ele><time>2026-04-26T10:20:54.939Z</time></trkpt><trkpt lat="41.6630668" lon="14.0502394"><ele>608.0</ele><time>2026-04-26T10:20:56.952Z</time></trkpt><trkpt lat="41.6632028" lon="14.0501918"><ele>608.0</ele><time>2026-04-26T10:20:58.947Z</time></trkpt><trkpt lat="41.6632956" lon="14.0501657"><ele>608.0</ele><time>2026-04-26T10:20:59.944Z</time></trkpt><trkpt lat="41.6634052" lon="14.0501245"><ele>608.0</ele><time>2026-04-26T10:21:00.954Z</time></trkpt><trkpt lat="41.6635144" lon="14.050066"><ele>608.0</ele><time>2026-04-26T10:21:01.946Z</time></trkpt><trkpt lat="41.6636192" lon="14.0499808"><ele>608.0</ele><time>2026-04-26T10:21:02.951Z</time></trkpt><trkpt lat="41.6637117" lon="14.0498542"><ele>608.0</ele><time>2026-04-26T10:21:03.953Z</time></trkpt><trkpt lat="41.6637922" lon="14.0496867"><ele>608.0</ele><time>2026-04-26T10:21:04.943Z</time></trkpt><trkpt lat="41.6638717" lon="14.0495024"><ele>608.0</ele><time>2026-04-26T10:21:05.948Z</time></trkpt><trkpt lat="41.6639531" lon="14.0493048"><ele>610.6666666666666</ele><time>2026-04-26T10:21:06.947Z</time></trkpt><trkpt lat="41.6640371" lon="14.0491032"><ele>613.3333333333334</ele><time>2026-04-26T10:21:07.948Z</time></trkpt><trkpt lat="41.6641283" lon="14.0488927"><ele>616.0</ele><time>2026-04-26T10:21:08.945Z</time></trkpt><trkpt lat="41.6642353" lon="14.0486823"><ele>616.0</ele><time>2026-04-26T10:21:09.956Z</time></trkpt><trkpt lat="41.6643506" lon="14.0484799"><ele>616.0</ele><time>2026-04-26T10:21:10.959Z</time></trkpt><trkpt lat="41.6644817" lon="14.0482829"><ele>616.0</ele><time>2026-04-26T10:21:11.941Z</time></trkpt><trkpt lat="41.6646143" lon="14.0480882"><ele>617.0</ele><time>2026-04-26T10:21:12.95Z</time></trkpt><trkpt lat="41.6647379" lon="14.0478854"><ele>618.0</ele><time>2026-04-26T10:21:13.95Z</time></trkpt><trkpt lat="41.6648459" lon="14.0476708"><ele>619.0</ele><time>2026-04-26T10:21:14.944Z</time></trkpt><trkpt lat="41.6649455" lon="14.047448"><ele>621.3333333333334</ele><time>2026-04-26T10:21:15.945Z</time></trkpt><trkpt lat="41.6650415" lon="14.0472265"><ele>623.6666666666666</ele><time>2026-04-26T10:21:16.948Z</time></trkpt><trkpt lat="41.6651324" lon="14.0470049"><ele>626.0</ele><time>2026-04-26T10:21:17.944Z</time></trkpt><trkpt lat="41.6652252" lon="14.0468058"><ele>627.0</ele><time>2026-04-26T10:21:18.946Z</time></trkpt><trkpt lat="41.6653295" lon="14.0466365"><ele>628.0</ele><time>2026-04-26T10:21:19.946Z</time></trkpt><trkpt lat="41.6654568" lon="14.0464932"><ele>629.0</ele><time>2026-04-26T10:21:20.944Z</time></trkpt><trkpt lat="41.6655922" lon="14.046364"><ele>629.0</ele><time>2026-04-26T10:21:21.942Z</time></trkpt><trkpt lat="41.6657277" lon="14.0462294"><ele>629.0</ele><time>2026-04-26T10:21:22.951Z</time></trkpt><trkpt lat="41.6658529" lon="14.0460597"><ele>629.0</ele><time>2026-04-26T10:21:23.942Z</time></trkpt><trkpt lat="41.6659686" lon="14.0458515"><ele>629.0</ele><time>2026-04-26T10:21:24.947Z</time></trkpt><trkpt lat="41.666086" lon="14.0456303"><ele>629.0</ele><time>2026-04-26T10:21:25.943Z</time></trkpt><trkpt lat="41.666215" lon="14.0453823"><ele>629.0</ele><time>2026-04-26T10:21:26.949Z</time></trkpt><trkpt lat="41.6663485" lon="14.0451291"><ele>631.0</ele><time>2026-04-26T10:21:27.95Z</time></trkpt><trkpt lat="41.6664788" lon="14.0448646"><ele>633.0</ele><time>2026-04-26T10:21:28.958Z</time></trkpt><trkpt lat="41.6666064" lon="14.0445894"><ele>633.0</ele><time>2026-04-26T10:21:29.946Z</time></trkpt><trkpt lat="41.6667281" lon="14.0443092"><ele>633.0</ele><time>2026-04-26T10:21:30.942Z</time></trkpt><trkpt lat="41.6668438" lon="14.0440206"><ele>634.0</ele><time>2026-04-26T10:21:31.945Z</time></trkpt><trkpt lat="41.6669547" lon="14.0437387"><ele>635.0</ele><time>2026-04-26T10:21:32.95Z</time></trkpt><trkpt lat="41.6671716" lon="14.0431927"><ele>635.0</ele><time>2026-04-26T10:21:34.95Z</time></trkpt><trkpt lat="41.6672739" lon="14.0429246"><ele>635.0</ele><time>2026-04-26T10:21:35.948Z</time></trkpt><trkpt lat="41.6673783" lon="14.0426658"><ele>635.0</ele><time>2026-04-26T10:21:36.945Z</time></trkpt><trkpt lat="41.6674791" lon="14.0424191"><ele>635.6666666666666</ele><time>2026-04-26T10:21:37.939Z</time></trkpt><trkpt lat="41.667583" lon="14.0421874"><ele>636.3333333333334</ele><time>2026-04-26T10:21:38.94Z</time></trkpt><trkpt lat="41.6677003" lon="14.0419784"><ele>637.0</ele><time>2026-04-26T10:21:39.941Z</time></trkpt><trkpt lat="41.6678363" lon="14.0417954"><ele>640.3333333333334</ele><time>2026-04-26T10:21:40.945Z</time></trkpt><trkpt lat="41.6679853" lon="14.0416256"><ele>643.6666666666666</ele><time>2026-04-26T10:21:41.949Z</time></trkpt><trkpt lat="41.6681459" lon="14.0414636"><ele>647.0</ele><time>2026-04-26T10:21:42.94Z</time></trkpt><trkpt lat="41.6683147" lon="14.0413037"><ele>647.0</ele><time>2026-04-26T10:21:43.942Z</time></trkpt><trkpt lat="41.6684954" lon="14.0411308"><ele>647.0</ele><time>2026-04-26T10:21:44.942Z</time></trkpt><trkpt lat="41.6686821" lon="14.0409498"><ele>649.0</ele><time>2026-04-26T10:21:45.937Z</time></trkpt><trkpt lat="41.6688707" lon="14.0407686"><ele>651.0</ele><time>2026-04-26T10:21:46.942Z</time></trkpt><trkpt lat="41.669059" lon="14.0405894"><ele>651.0</ele><time>2026-04-26T10:21:47.943Z</time></trkpt><trkpt lat="41.6692453" lon="14.0404108"><ele>651.0</ele><time>2026-04-26T10:21:48.941Z</time></trkpt><trkpt lat="41.6694307" lon="14.0402334"><ele>649.0</ele><time>2026-04-26T10:21:49.945Z</time></trkpt><trkpt lat="41.6696137" lon="14.0400558"><ele>647.0</ele><time>2026-04-26T10:21:50.947Z</time></trkpt><trkpt lat="41.6697948" lon="14.0398754"><ele>648.0</ele><time>2026-04-26T10:21:51.949Z</time></trkpt><trkpt lat="41.6699734" lon="14.0396937"><ele>649.0</ele><time>2026-04-26T10:21:52.946Z</time></trkpt><trkpt lat="41.6701511" lon="14.0395116"><ele>650.0</ele><time>2026-04-26T10:21:53.939Z</time></trkpt><trkpt lat="41.6703258" lon="14.0393264"><ele>650.0</ele><time>2026-04-26T10:21:54.957Z</time></trkpt><trkpt lat="41.6704986" lon="14.0391412"><ele>650.0</ele><time>2026-04-26T10:21:55.947Z</time></trkpt><trkpt lat="41.6706725" lon="14.0389572"><ele>650.0</ele><time>2026-04-26T10:21:56.947Z</time></trkpt><trkpt lat="41.6708494" lon="14.0387761"><ele>651.3333333333333</ele><time>2026-04-26T10:21:57.942Z</time></trkpt><trkpt lat="41.6710308" lon="14.038603"><ele>652.6666666666666</ele><time>2026-04-26T10:21:58.945Z</time></trkpt><trkpt lat="41.6712141" lon="14.0384395"><ele>654.0</ele><time>2026-04-26T10:21:59.953Z</time></trkpt><trkpt lat="41.6713961" lon="14.0382785"><ele>658.3333333333334</ele><time>2026-04-26T10:22:00.942Z</time></trkpt><trkpt lat="41.6715751" lon="14.0381154"><ele>662.6666666666667</ele><time>2026-04-26T10:22:01.941Z</time></trkpt><trkpt lat="41.6717508" lon="14.037959"><ele>667.0</ele><time>2026-04-26T10:22:02.943Z</time></trkpt><trkpt lat="41.6719271" lon="14.0378234"><ele>666.6666666666667</ele><time>2026-04-26T10:22:03.951Z</time></trkpt><trkpt lat="41.6721079" lon="14.037721"><ele>666.3333333333334</ele><time>2026-04-26T10:22:04.953Z</time></trkpt><trkpt lat="41.6722952" lon="14.0376503"><ele>666.0</ele><time>2026-04-26T10:22:05.941Z</time></trkpt><trkpt lat="41.6724898" lon="14.037602"><ele>666.0</ele><time>2026-04-26T10:22:06.943Z</time></trkpt><trkpt lat="41.6726885" lon="14.0375672"><ele>666.0</ele><time>2026-04-26T10:22:07.936Z</time></trkpt><trkpt lat="41.6728891" lon="14.0375401"><ele>666.0</ele><time>2026-04-26T10:22:08.944Z</time></trkpt><trkpt lat="41.6730876" lon="14.0375107"><ele>665.6666666666666</ele><time>2026-04-26T10:22:09.948Z</time></trkpt><trkpt lat="41.6732824" lon="14.0374815"><ele>665.3333333333333</ele><time>2026-04-26T10:22:10.951Z</time></trkpt><trkpt lat="41.6734718" lon="14.0374533"><ele>665.0</ele><time>2026-04-26T10:22:11.951Z</time></trkpt><trkpt lat="41.6736582" lon="14.0374229"><ele>670.3333333333333</ele><time>2026-04-26T10:22:12.942Z</time></trkpt><trkpt lat="41.6738421" lon="14.0373815"><ele>675.6666666666666</ele><time>2026-04-26T10:22:13.943Z</time></trkpt><trkpt lat="41.6740203" lon="14.0373193"><ele>681.0</ele><time>2026-04-26T10:22:14.946Z</time></trkpt><trkpt lat="41.6741894" lon="14.0372351"><ele>681.0</ele><time>2026-04-26T10:22:15.943Z</time></trkpt><trkpt lat="41.6743529" lon="14.0371447"><ele>681.0</ele><time>2026-04-26T10:22:16.94Z</time></trkpt><trkpt lat="41.6745197" lon="14.0370716"><ele>681.0</ele><time>2026-04-26T10:22:17.946Z</time></trkpt><trkpt lat="41.6746932" lon="14.0370255"><ele>680.3333333333334</ele><time>2026-04-26T10:22:18.944Z</time></trkpt><trkpt lat="41.6748691" lon="14.0369994"><ele>679.6666666666667</ele><time>2026-04-26T10:22:19.941Z</time></trkpt><trkpt lat="41.6750379" lon="14.036984"><ele>679.0</ele><time>2026-04-26T10:22:20.944Z</time></trkpt><trkpt lat="41.6752083" lon="14.0369632"><ele>679.0</ele><time>2026-04-26T10:22:21.944Z</time></trkpt><trkpt lat="41.6753851" lon="14.036935"><ele>679.0</ele><time>2026-04-26T10:22:22.958Z</time></trkpt><trkpt lat="41.6755643" lon="14.0369085"><ele>679.0</ele><time>2026-04-26T10:22:23.956Z</time></trkpt><trkpt lat="41.6757502" lon="14.0368907"><ele>679.0</ele><time>2026-04-26T10:22:24.95Z</time></trkpt><trkpt lat="41.675941" lon="14.0368683"><ele>679.0</ele><time>2026-04-26T10:22:25.943Z</time></trkpt><trkpt lat="41.6761303" lon="14.0368413"><ele>679.0</ele><time>2026-04-26T10:22:26.948Z</time></trkpt><trkpt lat="41.6763208" lon="14.0368144"><ele>679.6666666666667</ele><time>2026-04-26T10:22:27.945Z</time></trkpt><trkpt lat="41.6765096" lon="14.0367887"><ele>680.3333333333334</ele><time>2026-04-26T10:22:28.945Z</time></trkpt><trkpt lat="41.6766947" lon="14.0367599"><ele>681.0</ele><time>2026-04-26T10:22:29.946Z</time></trkpt><trkpt lat="41.6768794" lon="14.0367121"><ele>681.0</ele><time>2026-04-26T10:22:30.943Z</time></trkpt><trkpt lat="41.6770629" lon="14.0366432"><ele>681.0</ele><time>2026-04-26T10:22:31.943Z</time></trkpt><trkpt lat="41.6772451" lon="14.0365621"><ele>681.0</ele><time>2026-04-26T10:22:32.943Z</time></trkpt><trkpt lat="41.6774286" lon="14.0364743"><ele>685.3333333333334</ele><time>2026-04-26T10:22:33.942Z</time></trkpt><trkpt lat="41.6776119" lon="14.0363894"><ele>689.6666666666667</ele><time>2026-04-26T10:22:34.948Z</time></trkpt><trkpt lat="41.6777982" lon="14.0363193"><ele>694.0</ele><time>2026-04-26T10:22:35.948Z</time></trkpt><trkpt lat="41.6779727" lon="14.0362431"><ele>694.0</ele><time>2026-04-26T10:22:36.941Z</time></trkpt><trkpt lat="41.6781414" lon="14.0361468"><ele>694.0</ele><time>2026-04-26T10:22:37.945Z</time></trkpt><trkpt lat="41.6782919" lon="14.0360209"><ele>694.0</ele><time>2026-04-26T10:22:38.945Z</time></trkpt><trkpt lat="41.6784274" lon="14.0358692"><ele>693.0</ele><time>2026-04-26T10:22:39.942Z</time></trkpt><trkpt lat="41.6785536" lon="14.0357068"><ele>692.0</ele><time>2026-04-26T10:22:40.946Z</time></trkpt><trkpt lat="41.6786448" lon="14.0354956"><ele>691.0</ele><time>2026-04-26T10:22:41.947Z</time></trkpt><trkpt lat="41.6787414" lon="14.0352558"><ele>691.0</ele><time>2026-04-26T10:22:42.952Z</time></trkpt><trkpt lat="41.6788424" lon="14.0350146"><ele>691.0</ele><time>2026-04-26T10:22:43.948Z</time></trkpt><trkpt lat="41.6789425" lon="14.0347775"><ele>691.0</ele><time>2026-04-26T10:22:44.948Z</time></trkpt><trkpt lat="41.6790509" lon="14.0345428"><ele>694.6666666666667</ele><time>2026-04-26T10:22:45.95Z</time></trkpt><trkpt lat="41.6791627" lon="14.0343158"><ele>698.3333333333334</ele><time>2026-04-26T10:22:46.949Z</time></trkpt><trkpt lat="41.6792823" lon="14.0341056"><ele>702.0</ele><time>2026-04-26T10:22:47.94Z</time></trkpt><trkpt lat="41.6794206" lon="14.0339173"><ele>703.0</ele><time>2026-04-26T10:22:48.949Z</time></trkpt><trkpt lat="41.6795732" lon="14.0337459"><ele>704.0</ele><time>2026-04-26T10:22:49.947Z</time></trkpt><trkpt lat="41.6797391" lon="14.0335849"><ele>705.0</ele><time>2026-04-26T10:22:50.952Z</time></trkpt><trkpt lat="41.6799094" lon="14.0334242"><ele>707.0</ele><time>2026-04-26T10:22:51.951Z</time></trkpt><trkpt lat="41.6800805" lon="14.0332584"><ele>709.0</ele><time>2026-04-26T10:22:52.945Z</time></trkpt><trkpt lat="41.680253" lon="14.0330885"><ele>711.0</ele><time>2026-04-26T10:22:53.948Z</time></trkpt><trkpt lat="41.6804228" lon="14.0329211"><ele>711.0</ele><time>2026-04-26T10:22:54.946Z</time></trkpt><trkpt lat="41.6805935" lon="14.0327572"><ele>711.0</ele><time>2026-04-26T10:22:55.957Z</time></trkpt><trkpt lat="41.6807599" lon="14.0326011"><ele>711.0</ele><time>2026-04-26T10:22:56.946Z</time></trkpt><trkpt lat="41.680917" lon="14.0324586"><ele>714.6666666666666</ele><time>2026-04-26T10:22:57.941Z</time></trkpt><trkpt lat="41.6810724" lon="14.0323428"><ele>718.3333333333333</ele><time>2026-04-26T10:22:58.938Z</time></trkpt><trkpt lat="41.6812352" lon="14.0322583"><ele>722.0</ele><time>2026-04-26T10:22:59.95Z</time></trkpt><trkpt lat="41.6814054" lon="14.0321929"><ele>722.0</ele><time>2026-04-26T10:23:00.948Z</time></trkpt><trkpt lat="41.6815875" lon="14.0321769"><ele>722.0</ele><time>2026-04-26T10:23:01.943Z</time></trkpt><trkpt lat="41.6817654" lon="14.0321545"><ele>722.0</ele><time>2026-04-26T10:23:02.948Z</time></trkpt><trkpt lat="41.6819353" lon="14.0320985"><ele>718.0</ele><time>2026-04-26T10:23:03.954Z</time></trkpt><trkpt lat="41.6820921" lon="14.0320106"><ele>714.0</ele><time>2026-04-26T10:23:04.95Z</time></trkpt><trkpt lat="41.6822245" lon="14.0318957"><ele>710.0</ele><time>2026-04-26T10:23:05.943Z</time></trkpt><trkpt lat="41.6823379" lon="14.0317594"><ele>714.6666666666666</ele><time>2026-04-26T10:23:06.936Z</time></trkpt><trkpt lat="41.6824438" lon="14.0316028"><ele>719.3333333333334</ele><time>2026-04-26T10:23:07.938Z</time></trkpt><trkpt lat="41.6825478" lon="14.0314355"><ele>724.0</ele><time>2026-04-26T10:23:08.938Z</time></trkpt><trkpt lat="41.6826502" lon="14.0312598"><ele>724.0</ele><time>2026-04-26T10:23:09.939Z</time></trkpt><trkpt lat="41.6827547" lon="14.0310851"><ele>724.0</ele><time>2026-04-26T10:23:10.946Z</time></trkpt><trkpt lat="41.6828594" lon="14.0309213"><ele>724.0</ele><time>2026-04-26T10:23:11.942Z</time></trkpt><trkpt lat="41.6829544" lon="14.030777"><ele>722.0</ele><time>2026-04-26T10:23:12.942Z</time></trkpt><trkpt lat="41.6830562" lon="14.0306846"><ele>720.0</ele><time>2026-04-26T10:23:13.946Z</time></trkpt><trkpt lat="41.683156" lon="14.0306471"><ele>718.0</ele><time>2026-04-26T10:23:14.945Z</time></trkpt><trkpt lat="41.6832432" lon="14.0306586"><ele>716.0</ele><time>2026-04-26T10:23:15.955Z</time></trkpt><trkpt lat="41.6833215" lon="14.0307228"><ele>714.0</ele><time>2026-04-26T10:23:16.95Z</time></trkpt><trkpt lat="41.6833835" lon="14.0308222"><ele>714.0</ele><time>2026-04-26T10:23:17.936Z</time></trkpt><trkpt lat="41.6834471" lon="14.0309427"><ele>714.0</ele><time>2026-04-26T10:23:18.949Z</time></trkpt><trkpt lat="41.6834748" lon="14.0310991"><ele>714.0</ele><time>2026-04-26T10:23:19.948Z</time></trkpt><trkpt lat="41.6834616" lon="14.0312494"><ele>714.0</ele><time>2026-04-26T10:23:20.946Z</time></trkpt><trkpt lat="41.683421" lon="14.031401"><ele>714.0</ele><time>2026-04-26T10:23:21.949Z</time></trkpt><trkpt lat="41.6833458" lon="14.0315565"><ele>714.0</ele><time>2026-04-26T10:23:22.952Z</time></trkpt><trkpt lat="41.6832476" lon="14.0317183"><ele>714.0</ele><time>2026-04-26T10:23:23.957Z</time></trkpt><trkpt lat="41.6831351" lon="14.0318991"><ele>713.3333333333334</ele><time>2026-04-26T10:23:24.943Z</time></trkpt><trkpt lat="41.6830204" lon="14.0320834"><ele>712.6666666666667</ele><time>2026-04-26T10:23:25.942Z</time></trkpt><trkpt lat="41.6829137" lon="14.0322676"><ele>712.0</ele><time>2026-04-26T10:23:26.947Z</time></trkpt><trkpt lat="41.682826" lon="14.0324501"><ele>710.5</ele><time>2026-04-26T10:23:27.95Z</time></trkpt><trkpt lat="41.6827656" lon="14.0326379"><ele>709.0</ele><time>2026-04-26T10:23:28.948Z</time></trkpt><trkpt lat="41.6827304" lon="14.0328281"><ele>707.5</ele><time>2026-04-26T10:23:29.94Z</time></trkpt><trkpt lat="41.6826912" lon="14.0330094"><ele>706.0</ele><time>2026-04-26T10:23:30.951Z</time></trkpt><trkpt lat="41.6826237" lon="14.0331757"><ele>709.0</ele><time>2026-04-26T10:23:31.94Z</time></trkpt><trkpt lat="41.6825297" lon="14.0333242"><ele>712.0</ele><time>2026-04-26T10:23:32.934Z</time></trkpt><trkpt lat="41.6824231" lon="14.0334696"><ele>715.0</ele><time>2026-04-26T10:23:33.94Z</time></trkpt><trkpt lat="41.6823163" lon="14.0336157"><ele>715.0</ele><time>2026-04-26T10:23:34.943Z</time></trkpt><trkpt lat="41.6822261" lon="14.0337596"><ele>715.0</ele><time>2026-04-26T10:23:35.949Z</time></trkpt><trkpt lat="41.6821846" lon="14.033931"><ele>715.0</ele><time>2026-04-26T10:23:36.945Z</time></trkpt><trkpt lat="41.6821968" lon="14.0341302"><ele>715.0</ele><time>2026-04-26T10:23:37.944Z</time></trkpt><trkpt lat="41.6822091" lon="14.0343481"><ele>718.0</ele><time>2026-04-26T10:23:38.946Z</time></trkpt><trkpt lat="41.6822224" lon="14.0345782"><ele>721.0</ele><time>2026-04-26T10:23:39.94Z</time></trkpt><trkpt lat="41.682231" lon="14.0348282"><ele>724.0</ele><time>2026-04-26T10:23:40.957Z</time></trkpt><trkpt lat="41.6822363" lon="14.0350908"><ele>724.6666666666667</ele><time>2026-04-26T10:23:41.944Z</time></trkpt><trkpt lat="41.6822438" lon="14.0353753"><ele>725.3333333333334</ele><time>2026-04-26T10:23:42.949Z</time></trkpt><trkpt lat="41.6822506" lon="14.0356684"><ele>726.0</ele><time>2026-04-26T10:23:43.953Z</time></trkpt><trkpt lat="41.6822569" lon="14.0359677"><ele>726.5</ele><time>2026-04-26T10:23:44.951Z</time></trkpt><trkpt lat="41.6822632" lon="14.0362772"><ele>727.0</ele><time>2026-04-26T10:23:45.951Z</time></trkpt><trkpt lat="41.6822705" lon="14.036592"><ele>728.5</ele><time>2026-04-26T10:23:46.94Z</time></trkpt><trkpt lat="41.6822759" lon="14.0369099"><ele>730.0</ele><time>2026-04-26T10:23:47.948Z</time></trkpt><trkpt lat="41.6822805" lon="14.0372216"><ele>731.5</ele><time>2026-04-26T10:23:48.948Z</time></trkpt><trkpt lat="41.6822782" lon="14.0375405"><ele>733.0</ele><time>2026-04-26T10:23:49.945Z</time></trkpt><trkpt lat="41.6822804" lon="14.0378601"><ele>733.0</ele><time>2026-04-26T10:23:50.942Z</time></trkpt><trkpt lat="41.6822829" lon="14.0381744"><ele>733.0</ele><time>2026-04-26T10:23:51.949Z</time></trkpt><trkpt lat="41.6822888" lon="14.0384851"><ele>734.5</ele><time>2026-04-26T10:23:52.947Z</time></trkpt><trkpt lat="41.6822996" lon="14.0387872"><ele>736.0</ele><time>2026-04-26T10:23:53.951Z</time></trkpt><trkpt lat="41.6823228" lon="14.0390859"><ele>737.3333333333334</ele><time>2026-04-26T10:23:54.956Z</time></trkpt><trkpt lat="41.682361" lon="14.039377"><ele>738.6666666666666</ele><time>2026-04-26T10:23:55.947Z</time></trkpt><trkpt lat="41.6824" lon="14.0396551"><ele>740.0</ele><time>2026-04-26T10:23:56.948Z</time></trkpt><trkpt lat="41.6824403" lon="14.0399124"><ele>740.0</ele><time>2026-04-26T10:23:57.947Z</time></trkpt><trkpt lat="41.6824821" lon="14.0401467"><ele>740.0</ele><time>2026-04-26T10:23:58.954Z</time></trkpt><trkpt lat="41.6825002" lon="14.040366"><ele>740.0</ele><time>2026-04-26T10:23:59.948Z</time></trkpt><trkpt lat="41.6825073" lon="14.0405655"><ele>740.0</ele><time>2026-04-26T10:24:00.944Z</time></trkpt><trkpt lat="41.6824549" lon="14.040736"><ele>740.0</ele><time>2026-04-26T10:24:01.944Z</time></trkpt><trkpt lat="41.6824094" lon="14.0408953"><ele>740.0</ele><time>2026-04-26T10:24:02.947Z</time></trkpt><trkpt lat="41.6823727" lon="14.0410551"><ele>740.0</ele><time>2026-04-26T10:24:03.962Z</time></trkpt><trkpt lat="41.6824183" lon="14.0412319"><ele>741.3333333333333</ele><time>2026-04-26T10:24:04.953Z</time></trkpt><trkpt lat="41.6824508" lon="14.0414182"><ele>742.6666666666666</ele><time>2026-04-26T10:24:05.951Z</time></trkpt><trkpt lat="41.6824485" lon="14.0416324"><ele>744.0</ele><time>2026-04-26T10:24:06.942Z</time></trkpt><trkpt lat="41.6824343" lon="14.0418708"><ele>744.6666666666666</ele><time>2026-04-26T10:24:07.954Z</time></trkpt><trkpt lat="41.6824225" lon="14.042132"><ele>745.3333333333333</ele><time>2026-04-26T10:24:08.944Z</time></trkpt><trkpt lat="41.6824081" lon="14.0423996"><ele>746.0</ele><time>2026-04-26T10:24:09.947Z</time></trkpt><trkpt lat="41.6823813" lon="14.0426783"><ele>748.3333333333333</ele><time>2026-04-26T10:24:10.942Z</time></trkpt><trkpt lat="41.682355" lon="14.0429588"><ele>750.6666666666666</ele><time>2026-04-26T10:24:11.949Z</time></trkpt><trkpt lat="41.6823137" lon="14.043232"><ele>753.0</ele><time>2026-04-26T10:24:12.953Z</time></trkpt><trkpt lat="41.68229" lon="14.0434945"><ele>755.6666666666666</ele><time>2026-04-26T10:24:13.95Z</time></trkpt><trkpt lat="41.6822667" lon="14.0437366"><ele>758.3333333333333</ele><time>2026-04-26T10:24:14.947Z</time></trkpt><trkpt lat="41.6822462" lon="14.0439594"><ele>761.0</ele><time>2026-04-26T10:24:15.95Z</time></trkpt><trkpt lat="41.6822231" lon="14.0441611"><ele>762.5999999999999</ele><time>2026-04-26T10:24:16.945Z</time></trkpt><trkpt lat="41.6821968" lon="14.0443417"><ele>764.2</ele><time>2026-04-26T10:24:17.966Z</time></trkpt><trkpt lat="41.6821762" lon="14.0445005"><ele>765.8</ele><time>2026-04-26T10:24:18.947Z</time></trkpt><trkpt lat="41.682172" lon="14.0446369"><ele>767.4000000000001</ele><time>2026-04-26T10:24:19.946Z</time></trkpt><trkpt lat="41.6822023" lon="14.0447351"><ele>769.0</ele><time>2026-04-26T10:24:20.953Z</time></trkpt><trkpt lat="41.6822547" lon="14.044793"><ele>769.0</ele><time>2026-04-26T10:24:21.949Z</time></trkpt><trkpt lat="41.6823193" lon="14.0447933"><ele>769.0</ele><time>2026-04-26T10:24:22.938Z</time></trkpt><trkpt lat="41.6823773" lon="14.0447358"><ele>769.0</ele><time>2026-04-26T10:24:23.945Z</time></trkpt><trkpt lat="41.6824133" lon="14.0446264"><ele>769.0</ele><time>2026-04-26T10:24:24.947Z</time></trkpt><trkpt lat="41.6824329" lon="14.0444724"><ele>769.0</ele><time>2026-04-26T10:24:25.939Z</time></trkpt><trkpt lat="41.6824491" lon="14.0442903"><ele>766.3333333333333</ele><time>2026-04-26T10:24:26.944Z</time></trkpt><trkpt lat="41.6824693" lon="14.0440667"><ele>763.6666666666666</ele><time>2026-04-26T10:24:27.954Z</time></trkpt><trkpt lat="41.682508" lon="14.0438338"><ele>761.0</ele><time>2026-04-26T10:24:28.944Z</time></trkpt><trkpt lat="41.6825659" lon="14.0435848"><ele>761.0</ele><time>2026-04-26T10:24:29.953Z</time></trkpt><trkpt lat="41.6826317" lon="14.0433324"><ele>761.0</ele><time>2026-04-26T10:24:30.945Z</time></trkpt><trkpt lat="41.682692" lon="14.0430657"><ele>761.0</ele><time>2026-04-26T10:24:31.948Z</time></trkpt><trkpt lat="41.6827562" lon="14.0428019"><ele>765.6666666666666</ele><time>2026-04-26T10:24:32.95Z</time></trkpt><trkpt lat="41.6828257" lon="14.0425564"><ele>770.3333333333333</ele><time>2026-04-26T10:24:33.958Z</time></trkpt><trkpt lat="41.6828903" lon="14.042319"><ele>775.0</ele><time>2026-04-26T10:24:34.95Z</time></trkpt><trkpt lat="41.6829499" lon="14.0420898"><ele>775.0</ele><time>2026-04-26T10:24:35.941Z</time></trkpt><trkpt lat="41.6830107" lon="14.0418687"><ele>775.0</ele><time>2026-04-26T10:24:36.936Z</time></trkpt><trkpt lat="41.6830687" lon="14.041661"><ele>775.0</ele><time>2026-04-26T10:24:37.949Z</time></trkpt><trkpt lat="41.6831313" lon="14.0414612"><ele>774.3333333333333</ele><time>2026-04-26T10:24:38.946Z</time></trkpt><trkpt lat="41.6832017" lon="14.0412774"><ele>773.6666666666667</ele><time>2026-04-26T10:24:39.946Z</time></trkpt><trkpt lat="41.6832777" lon="14.0411045"><ele>773.0</ele><time>2026-04-26T10:24:40.942Z</time></trkpt><trkpt lat="41.6833602" lon="14.0409343"><ele>770.3333333333334</ele><time>2026-04-26T10:24:41.951Z</time></trkpt><trkpt lat="41.6834562" lon="14.0407678"><ele>767.6666666666667</ele><time>2026-04-26T10:24:42.95Z</time></trkpt><trkpt lat="41.6835581" lon="14.0406033"><ele>765.0</ele><time>2026-04-26T10:24:43.945Z</time></trkpt><trkpt lat="41.6836534" lon="14.0404448"><ele>772.25</ele><time>2026-04-26T10:24:44.941Z</time></trkpt><trkpt lat="41.6837243" lon="14.0402816"><ele>779.5</ele><time>2026-04-26T10:24:45.95Z</time></trkpt><trkpt lat="41.6837652" lon="14.0401138"><ele>786.75</ele><time>2026-04-26T10:24:46.946Z</time></trkpt><trkpt lat="41.6837721" lon="14.0399367"><ele>794.0</ele><time>2026-04-26T10:24:47.943Z</time></trkpt><trkpt lat="41.6837552" lon="14.0397626"><ele>794.0</ele><time>2026-04-26T10:24:48.958Z</time></trkpt><trkpt lat="41.6837375" lon="14.0395897"><ele>794.0</ele><time>2026-04-26T10:24:49.955Z</time></trkpt><trkpt lat="41.6837225" lon="14.0394254"><ele>794.0</ele><time>2026-04-26T10:24:50.943Z</time></trkpt><trkpt lat="41.6837609" lon="14.0392566"><ele>794.0</ele><time>2026-04-26T10:24:51.951Z</time></trkpt><trkpt lat="41.6838317" lon="14.0390959"><ele>789.6666666666667</ele><time>2026-04-26T10:24:52.948Z</time></trkpt><trkpt lat="41.683931" lon="14.0389213"><ele>785.3333333333333</ele><time>2026-04-26T10:24:53.939Z</time></trkpt><trkpt lat="41.6840409" lon="14.0387289"><ele>781.0</ele><time>2026-04-26T10:24:54.943Z</time></trkpt><trkpt lat="41.6841644" lon="14.0385216"><ele>781.0</ele><time>2026-04-26T10:24:55.956Z</time></trkpt><trkpt lat="41.6842937" lon="14.0383147"><ele>781.0</ele><time>2026-04-26T10:24:56.942Z</time></trkpt><trkpt lat="41.6844247" lon="14.0381077"><ele>781.0</ele><time>2026-04-26T10:24:57.947Z</time></trkpt><trkpt lat="41.684564" lon="14.0379151"><ele>784.0</ele><time>2026-04-26T10:24:58.947Z</time></trkpt><trkpt lat="41.6846951" lon="14.0377243"><ele>787.0</ele><time>2026-04-26T10:24:59.945Z</time></trkpt><trkpt lat="41.6848065" lon="14.0375191"><ele>790.0</ele><time>2026-04-26T10:25:00.949Z</time></trkpt><trkpt lat="41.6848942" lon="14.0372915"><ele>790.0</ele><time>2026-04-26T10:25:01.946Z</time></trkpt><trkpt lat="41.6849704" lon="14.0370551"><ele>790.0</ele><time>2026-04-26T10:25:02.946Z</time></trkpt><trkpt lat="41.6850545" lon="14.0368287"><ele>790.0</ele><time>2026-04-26T10:25:03.954Z</time></trkpt><trkpt lat="41.6851559" lon="14.0366157"><ele>794.0</ele><time>2026-04-26T10:25:04.959Z</time></trkpt><trkpt lat="41.68527" lon="14.0364073"><ele>798.0</ele><time>2026-04-26T10:25:05.953Z</time></trkpt><trkpt lat="41.6853912" lon="14.0362012"><ele>802.0</ele><time>2026-04-26T10:25:06.946Z</time></trkpt><trkpt lat="41.6855217" lon="14.0360011"><ele>802.0</ele><time>2026-04-26T10:25:07.964Z</time></trkpt><trkpt lat="41.6856668" lon="14.0358085"><ele>802.0</ele><time>2026-04-26T10:25:08.95Z</time></trkpt><trkpt lat="41.6858229" lon="14.035626"><ele>802.0</ele><time>2026-04-26T10:25:09.952Z</time></trkpt><trkpt lat="41.6859867" lon="14.0354486"><ele>801.3333333333333</ele><time>2026-04-26T10:25:10.957Z</time></trkpt><trkpt lat="41.6861551" lon="14.0352725"><ele>800.6666666666667</ele><time>2026-04-26T10:25:11.958Z</time></trkpt><trkpt lat="41.6863201" lon="14.035091"><ele>800.0</ele><time>2026-04-26T10:25:12.951Z</time></trkpt><trkpt lat="41.6864751" lon="14.0348917"><ele>800.0</ele><time>2026-04-26T10:25:13.951Z</time></trkpt><trkpt lat="41.6866245" lon="14.0346662"><ele>800.0</ele><time>2026-04-26T10:25:14.943Z</time></trkpt><trkpt lat="41.6867781" lon="14.0344135"><ele>807.0</ele><time>2026-04-26T10:25:15.95Z</time></trkpt><trkpt lat="41.6869378" lon="14.0341426"><ele>814.0</ele><time>2026-04-26T10:25:16.948Z</time></trkpt><trkpt lat="41.6870949" lon="14.0338742"><ele>814.0</ele><time>2026-04-26T10:25:17.949Z</time></trkpt><trkpt lat="41.6872506" lon="14.033614"><ele>814.0</ele><time>2026-04-26T10:25:18.958Z</time></trkpt><trkpt lat="41.6873968" lon="14.0333709"><ele>814.6666666666666</ele><time>2026-04-26T10:25:19.948Z</time></trkpt><trkpt lat="41.6875322" lon="14.0331515"><ele>815.3333333333333</ele><time>2026-04-26T10:25:20.936Z</time></trkpt><trkpt lat="41.6876648" lon="14.0329577"><ele>816.0</ele><time>2026-04-26T10:25:21.947Z</time></trkpt><trkpt lat="41.6878014" lon="14.0328019"><ele>816.0</ele><time>2026-04-26T10:25:22.949Z</time></trkpt><trkpt lat="41.6879453" lon="14.0326993"><ele>816.0</ele><time>2026-04-26T10:25:23.939Z</time></trkpt><trkpt lat="41.6881044" lon="14.0326331"><ele>816.0</ele><time>2026-04-26T10:25:24.946Z</time></trkpt><trkpt lat="41.6882871" lon="14.0325802"><ele>816.0</ele><time>2026-04-26T10:25:25.949Z</time></trkpt><trkpt lat="41.6884882" lon="14.0325219"><ele>816.0</ele><time>2026-04-26T10:25:26.944Z</time></trkpt><trkpt lat="41.6887013" lon="14.0324575"><ele>816.0</ele><time>2026-04-26T10:25:27.942Z</time></trkpt><trkpt lat="41.6889164" lon="14.0323937"><ele>814.0</ele><time>2026-04-26T10:25:28.95Z</time></trkpt><trkpt lat="41.6891287" lon="14.0323238"><ele>812.0</ele><time>2026-04-26T10:25:29.948Z</time></trkpt><trkpt lat="41.6893351" lon="14.0322373"><ele>810.0</ele><time>2026-04-26T10:25:30.942Z</time></trkpt><trkpt lat="41.6895302" lon="14.0321231"><ele>816.0</ele><time>2026-04-26T10:25:31.937Z</time></trkpt><trkpt lat="41.6897069" lon="14.0319827"><ele>822.0</ele><time>2026-04-26T10:25:32.947Z</time></trkpt><trkpt lat="41.6898649" lon="14.031827"><ele>828.0</ele><time>2026-04-26T10:25:33.939Z</time></trkpt><trkpt lat="41.690012" lon="14.0316699"><ele>826.0</ele><time>2026-04-26T10:25:34.938Z</time></trkpt><trkpt lat="41.6901665" lon="14.0315413"><ele>824.0</ele><time>2026-04-26T10:25:35.946Z</time></trkpt><trkpt lat="41.6903248" lon="14.0314428"><ele>822.0</ele><time>2026-04-26T10:25:36.956Z</time></trkpt><trkpt lat="41.6905032" lon="14.0314206"><ele>822.0</ele><time>2026-04-26T10:25:37.944Z</time></trkpt><trkpt lat="41.6906804" lon="14.0314163"><ele>822.0</ele><time>2026-04-26T10:25:38.935Z</time></trkpt><trkpt lat="41.6908501" lon="14.0313886"><ele>822.0</ele><time>2026-04-26T10:25:39.946Z</time></trkpt><trkpt lat="41.691008" lon="14.0313233"><ele>826.25</ele><time>2026-04-26T10:25:40.95Z</time></trkpt><trkpt lat="41.691138" lon="14.0312337"><ele>830.5</ele><time>2026-04-26T10:25:41.939Z</time></trkpt><trkpt lat="41.6912415" lon="14.0311444"><ele>834.75</ele><time>2026-04-26T10:25:42.936Z</time></trkpt><trkpt lat="41.691335" lon="14.0310924"><ele>839.0</ele><time>2026-04-26T10:25:43.948Z</time></trkpt><trkpt lat="41.6914176" lon="14.0310732"><ele>839.0000000000001</ele><time>2026-04-26T10:25:44.944Z</time></trkpt><trkpt lat="41.6914675" lon="14.031136"><ele>839.0</ele><time>2026-04-26T10:25:45.942Z</time></trkpt><trkpt lat="41.6914347" lon="14.031259"><ele>839.0</ele><time>2026-04-26T10:25:47.948Z</time></trkpt><trkpt lat="41.6913728" lon="14.0313206"><ele>839.0</ele><time>2026-04-26T10:25:48.936Z</time></trkpt><trkpt lat="41.6912965" lon="14.0313794"><ele>839.0000000000001</ele><time>2026-04-26T10:25:49.945Z</time></trkpt><trkpt lat="41.6911992" lon="14.0314435"><ele>839.0</ele><time>2026-04-26T10:25:50.961Z</time></trkpt><trkpt lat="41.6910885" lon="14.0315141"><ele>840.0</ele><time>2026-04-26T10:25:51.941Z</time></trkpt><trkpt lat="41.690963" lon="14.031591"><ele>841.0</ele><time>2026-04-26T10:25:52.949Z</time></trkpt><trkpt lat="41.6908183" lon="14.0316628"><ele>842.0</ele><time>2026-04-26T10:25:53.949Z</time></trkpt><trkpt lat="41.6906695" lon="14.0317308"><ele>842.0</ele><time>2026-04-26T10:25:54.939Z</time></trkpt><trkpt lat="41.6905328" lon="14.0318204"><ele>842.0</ele><time>2026-04-26T10:25:55.95Z</time></trkpt><trkpt lat="41.690397" lon="14.0319221"><ele>842.0</ele><time>2026-04-26T10:25:56.947Z</time></trkpt><trkpt lat="41.6902928" lon="14.0320752"><ele>844.3333333333334</ele><time>2026-04-26T10:25:57.95Z</time></trkpt><trkpt lat="41.6901992" lon="14.032251"><ele>846.6666666666667</ele><time>2026-04-26T10:25:58.942Z</time></trkpt><trkpt lat="41.6901133" lon="14.0324313"><ele>849.0</ele><time>2026-04-26T10:25:59.946Z</time></trkpt><trkpt lat="41.6900243" lon="14.0326126"><ele>849.0</ele><time>2026-04-26T10:26:00.947Z</time></trkpt><trkpt lat="41.6899244" lon="14.0327864"><ele>849.0</ele><time>2026-04-26T10:26:01.939Z</time></trkpt><trkpt lat="41.6898008" lon="14.0329473"><ele>849.0</ele><time>2026-04-26T10:26:02.941Z</time></trkpt><trkpt lat="41.6896586" lon="14.0330842"><ele>849.0</ele><time>2026-04-26T10:26:03.957Z</time></trkpt><trkpt lat="41.689506" lon="14.0332071"><ele>849.0</ele><time>2026-04-26T10:26:04.954Z</time></trkpt><trkpt lat="41.6893463" lon="14.0333204"><ele>849.0</ele><time>2026-04-26T10:26:05.951Z</time></trkpt><trkpt lat="41.6891947" lon="14.0334319"><ele>851.0</ele><time>2026-04-26T10:26:06.946Z</time></trkpt><trkpt lat="41.6890565" lon="14.0335637"><ele>853.0</ele><time>2026-04-26T10:26:07.947Z</time></trkpt><trkpt lat="41.6889349" lon="14.0337178"><ele>855.0</ele><time>2026-04-26T10:26:08.949Z</time></trkpt><trkpt lat="41.6888356" lon="14.0338943"><ele>855.0</ele><time>2026-04-26T10:26:09.942Z</time></trkpt><trkpt lat="41.6887529" lon="14.0340873"><ele>855.0</ele><time>2026-04-26T10:26:10.955Z</time></trkpt><trkpt lat="41.6886758" lon="14.0342887"><ele>855.0</ele><time>2026-04-26T10:26:11.947Z</time></trkpt><trkpt lat="41.6885965" lon="14.0344916"><ele>856.3333333333333</ele><time>2026-04-26T10:26:12.944Z</time></trkpt><trkpt lat="41.6885104" lon="14.0346913"><ele>857.6666666666666</ele><time>2026-04-26T10:26:13.953Z</time></trkpt><trkpt lat="41.6884187" lon="14.0348895"><ele>859.0</ele><time>2026-04-26T10:26:14.946Z</time></trkpt><trkpt lat="41.6883256" lon="14.0350845"><ele>859.0</ele><time>2026-04-26T10:26:15.935Z</time></trkpt><trkpt lat="41.6882292" lon="14.0352753"><ele>859.0</ele><time>2026-04-26T10:26:16.951Z</time></trkpt><trkpt lat="41.6881354" lon="14.0354653"><ele>859.0</ele><time>2026-04-26T10:26:17.946Z</time></trkpt><trkpt lat="41.6880483" lon="14.0356493"><ele>864.25</ele><time>2026-04-26T10:26:18.935Z</time></trkpt><trkpt lat="41.6879891" lon="14.0358549"><ele>869.5</ele><time>2026-04-26T10:26:19.947Z</time></trkpt><trkpt lat="41.6879472" lon="14.0360377"><ele>874.75</ele><time>2026-04-26T10:26:20.949Z</time></trkpt><trkpt lat="41.6879119" lon="14.036216"><ele>880.0</ele><time>2026-04-26T10:26:21.949Z</time></trkpt><trkpt lat="41.6878663" lon="14.0363606"><ele>880.0</ele><time>2026-04-26T10:26:22.948Z</time></trkpt><trkpt lat="41.6877909" lon="14.036492"><ele>880.0</ele><time>2026-04-26T10:26:23.953Z</time></trkpt><trkpt lat="41.6877068" lon="14.0366154"><ele>880.0</ele><time>2026-04-26T10:26:24.943Z</time></trkpt><trkpt lat="41.6875942" lon="14.0367049"><ele>880.0</ele><time>2026-04-26T10:26:25.947Z</time></trkpt><trkpt lat="41.687476" lon="14.0368152"><ele>875.0</ele><time>2026-04-26T10:26:26.948Z</time></trkpt><trkpt lat="41.6873492" lon="14.0369551"><ele>870.0</ele><time>2026-04-26T10:26:27.943Z</time></trkpt><trkpt lat="41.6872215" lon="14.0371247"><ele>865.0</ele><time>2026-04-26T10:26:28.943Z</time></trkpt><trkpt lat="41.687087" lon="14.0373044"><ele>864.3333333333333</ele><time>2026-04-26T10:26:29.957Z</time></trkpt><trkpt lat="41.6869454" lon="14.0374891"><ele>863.6666666666667</ele><time>2026-04-26T10:26:30.949Z</time></trkpt><trkpt lat="41.6868102" lon="14.0376755"><ele>863.0</ele><time>2026-04-26T10:26:31.94Z</time></trkpt><trkpt lat="41.6866739" lon="14.0378551"><ele>863.0</ele><time>2026-04-26T10:26:32.947Z</time></trkpt><trkpt lat="41.6865521" lon="14.0380215"><ele>863.0</ele><time>2026-04-26T10:26:33.942Z</time></trkpt><trkpt lat="41.6864639" lon="14.0382003"><ele>863.0</ele><time>2026-04-26T10:26:34.956Z</time></trkpt><trkpt lat="41.6864039" lon="14.0384027"><ele>871.0</ele><time>2026-04-26T10:26:35.946Z</time></trkpt><trkpt lat="41.6863441" lon="14.0385952"><ele>879.0</ele><time>2026-04-26T10:26:36.945Z</time></trkpt><trkpt lat="41.6863133" lon="14.0388171"><ele>887.0</ele><time>2026-04-26T10:26:37.948Z</time></trkpt><trkpt lat="41.6862669" lon="14.0390371"><ele>893.6666666666667</ele><time>2026-04-26T10:26:38.954Z</time></trkpt><trkpt lat="41.6862054" lon="14.0392566"><ele>900.3333333333333</ele><time>2026-04-26T10:26:39.941Z</time></trkpt><trkpt lat="41.686139" lon="14.0394702"><ele>907.0</ele><time>2026-04-26T10:26:40.944Z</time></trkpt><trkpt lat="41.6860594" lon="14.0396788"><ele>898.6666666666666</ele><time>2026-04-26T10:26:41.949Z</time></trkpt><trkpt lat="41.6859735" lon="14.0398829"><ele>890.3333333333333</ele><time>2026-04-26T10:26:42.947Z</time></trkpt><trkpt lat="41.6858722" lon="14.0400774"><ele>882.0</ele><time>2026-04-26T10:26:43.943Z</time></trkpt><trkpt lat="41.6857658" lon="14.0402622"><ele>882.0</ele><time>2026-04-26T10:26:44.939Z</time></trkpt><trkpt lat="41.6856715" lon="14.0404474"><ele>882.0</ele><time>2026-04-26T10:26:45.947Z</time></trkpt><trkpt lat="41.6856018" lon="14.0406461"><ele>882.0</ele><time>2026-04-26T10:26:46.952Z</time></trkpt><trkpt lat="41.6855594" lon="14.0408544"><ele>889.3333333333333</ele><time>2026-04-26T10:26:47.956Z</time></trkpt><trkpt lat="41.685519" lon="14.0410632"><ele>896.6666666666666</ele><time>2026-04-26T10:26:48.939Z</time></trkpt><trkpt lat="41.6855296" lon="14.0412774"><ele>904.0</ele><time>2026-04-26T10:26:49.97Z</time></trkpt><trkpt lat="41.685534" lon="14.041496"><ele>907.0</ele><time>2026-04-26T10:26:50.944Z</time></trkpt><trkpt lat="41.6855169" lon="14.0417095"><ele>910.0</ele><time>2026-04-26T10:26:51.946Z</time></trkpt><trkpt lat="41.6854746" lon="14.0419206"><ele>913.0</ele><time>2026-04-26T10:26:52.944Z</time></trkpt><trkpt lat="41.6854089" lon="14.0421284"><ele>913.0</ele><time>2026-04-26T10:26:53.961Z</time></trkpt><trkpt lat="41.6853367" lon="14.0423152"><ele>913.0</ele><time>2026-04-26T10:26:54.947Z</time></trkpt><trkpt lat="41.6852468" lon="14.0424757"><ele>913.0</ele><time>2026-04-26T10:26:55.94Z</time></trkpt><trkpt lat="41.6851328" lon="14.042611"><ele>904.3333333333333</ele><time>2026-04-26T10:26:56.955Z</time></trkpt><trkpt lat="41.685016" lon="14.0427491"><ele>895.6666666666667</ele><time>2026-04-26T10:26:57.941Z</time></trkpt><trkpt lat="41.6849049" lon="14.0429076"><ele>887.0</ele><time>2026-04-26T10:26:58.94Z</time></trkpt><trkpt lat="41.6848049" lon="14.043109"><ele>895.0</ele><time>2026-04-26T10:26:59.944Z</time></trkpt><trkpt lat="41.6847103" lon="14.0433281"><ele>903.0</ele><time>2026-04-26T10:27:00.953Z</time></trkpt><trkpt lat="41.6846283" lon="14.0435611"><ele>911.0</ele><time>2026-04-26T10:27:01.943Z</time></trkpt><trkpt lat="41.684563" lon="14.0438022"><ele>911.0</ele><time>2026-04-26T10:27:02.949Z</time></trkpt><trkpt lat="41.6845222" lon="14.0440595"><ele>911.0</ele><time>2026-04-26T10:27:03.946Z</time></trkpt><trkpt lat="41.6844999" lon="14.0443148"><ele>911.0</ele><time>2026-04-26T10:27:04.94Z</time></trkpt><trkpt lat="41.684478" lon="14.0445635"><ele>915.0</ele><time>2026-04-26T10:27:05.95Z</time></trkpt><trkpt lat="41.6844815" lon="14.0448123"><ele>919.0</ele><time>2026-04-26T10:27:06.951Z</time></trkpt><trkpt lat="41.6845114" lon="14.0450507"><ele>923.0</ele><time>2026-04-26T10:27:07.936Z</time></trkpt><trkpt lat="41.6845493" lon="14.0452785"><ele>923.6666666666667</ele><time>2026-04-26T10:27:08.948Z</time></trkpt><trkpt lat="41.6846251" lon="14.0455019"><ele>924.3333333333333</ele><time>2026-04-26T10:27:09.936Z</time></trkpt><trkpt lat="41.6846861" lon="14.0457149"><ele>925.0</ele><time>2026-04-26T10:27:10.94Z</time></trkpt><trkpt lat="41.6847155" lon="14.0459309"><ele>924.0</ele><time>2026-04-26T10:27:11.949Z</time></trkpt><trkpt lat="41.6847359" lon="14.0461308"><ele>923.0</ele><time>2026-04-26T10:27:12.946Z</time></trkpt><trkpt lat="41.6847298" lon="14.0463189"><ele>922.0</ele><time>2026-04-26T10:27:13.944Z</time></trkpt><trkpt lat="41.6847204" lon="14.0464957"><ele>921.0</ele><time>2026-04-26T10:27:14.947Z</time></trkpt><trkpt lat="41.6847283" lon="14.0466363"><ele>921.0</ele><time>2026-04-26T10:27:15.949Z</time></trkpt><trkpt lat="41.6847324" lon="14.0467414"><ele>920.9999999999999</ele><time>2026-04-26T10:27:16.954Z</time></trkpt><trkpt lat="41.6848374" lon="14.0467549"><ele>920.9999999999999</ele><time>2026-04-26T10:27:18.947Z</time></trkpt><trkpt lat="41.6848953" lon="14.0466189"><ele>921.0</ele><time>2026-04-26T10:27:20.948Z</time></trkpt><trkpt lat="41.6848887" lon="14.0465137"><ele>921.0</ele><time>2026-04-26T10:27:21.952Z</time></trkpt><trkpt lat="41.6848819" lon="14.046381"><ele>921.0</ele><time>2026-04-26T10:27:22.945Z</time></trkpt><trkpt lat="41.6848826" lon="14.0462236"><ele>921.0</ele><time>2026-04-26T10:27:23.947Z</time></trkpt><trkpt lat="41.6848928" lon="14.0460487"><ele>921.0</ele><time>2026-04-26T10:27:24.95Z</time></trkpt><trkpt lat="41.6849032" lon="14.0458609"><ele>921.0</ele><time>2026-04-26T10:27:25.944Z</time></trkpt><trkpt lat="41.6848977" lon="14.0456639"><ele>922.3333333333333</ele><time>2026-04-26T10:27:26.957Z</time></trkpt><trkpt lat="41.6848649" lon="14.0454595"><ele>923.6666666666666</ele><time>2026-04-26T10:27:27.944Z</time></trkpt><trkpt lat="41.684821" lon="14.0452535"><ele>925.0</ele><time>2026-04-26T10:27:28.949Z</time></trkpt><trkpt lat="41.6847824" lon="14.0450417"><ele>924.3333333333333</ele><time>2026-04-26T10:27:29.951Z</time></trkpt><trkpt lat="41.6847597" lon="14.0448247"><ele>923.6666666666667</ele><time>2026-04-26T10:27:30.944Z</time></trkpt><trkpt lat="41.6847572" lon="14.0446024"><ele>923.0</ele><time>2026-04-26T10:27:31.948Z</time></trkpt><trkpt lat="41.6847758" lon="14.0443779"><ele>923.0</ele><time>2026-04-26T10:27:32.954Z</time></trkpt><trkpt lat="41.6848165" lon="14.0441575"><ele>923.0</ele><time>2026-04-26T10:27:33.943Z</time></trkpt><trkpt lat="41.6848779" lon="14.0439553"><ele>923.0</ele><time>2026-04-26T10:27:34.952Z</time></trkpt><trkpt lat="41.6849584" lon="14.0437846"><ele>919.0</ele><time>2026-04-26T10:27:35.946Z</time></trkpt><trkpt lat="41.6850631" lon="14.0436453"><ele>915.0</ele><time>2026-04-26T10:27:36.943Z</time></trkpt><trkpt lat="41.6851877" lon="14.043526"><ele>911.0</ele><time>2026-04-26T10:27:37.94Z</time></trkpt><trkpt lat="41.6853212" lon="14.0434041"><ele>915.6666666666667</ele><time>2026-04-26T10:27:38.945Z</time></trkpt><trkpt lat="41.6854649" lon="14.0432717"><ele>920.3333333333333</ele><time>2026-04-26T10:27:39.947Z</time></trkpt><trkpt lat="41.6855892" lon="14.0430674"><ele>925.0</ele><time>2026-04-26T10:27:40.943Z</time></trkpt><trkpt lat="41.685718" lon="14.0428238"><ele>925.0</ele><time>2026-04-26T10:27:41.945Z</time></trkpt><trkpt lat="41.6858506" lon="14.0425649"><ele>925.0</ele><time>2026-04-26T10:27:42.938Z</time></trkpt><trkpt lat="41.6859778" lon="14.0422999"><ele>941.5</ele><time>2026-04-26T10:27:43.946Z</time></trkpt><trkpt lat="41.6861057" lon="14.0420311"><ele>958.0</ele><time>2026-04-26T10:27:44.942Z</time></trkpt><trkpt lat="41.6862303" lon="14.0417535"><ele>951.0</ele><time>2026-04-26T10:27:45.941Z</time></trkpt><trkpt lat="41.6863501" lon="14.0414703"><ele>944.0</ele><time>2026-04-26T10:27:46.947Z</time></trkpt><trkpt lat="41.6864654" lon="14.041188"><ele>944.0</ele><time>2026-04-26T10:27:47.934Z</time></trkpt><trkpt lat="41.686577" lon="14.0409012"><ele>944.0</ele><time>2026-04-26T10:27:48.949Z</time></trkpt><trkpt lat="41.6866886" lon="14.0406172"><ele>934.0</ele><time>2026-04-26T10:27:49.948Z</time></trkpt><trkpt lat="41.6868006" lon="14.0403483"><ele>924.0</ele><time>2026-04-26T10:27:50.95Z</time></trkpt><trkpt lat="41.6869086" lon="14.0400894"><ele>930.6666666666667</ele><time>2026-04-26T10:27:51.951Z</time></trkpt><trkpt lat="41.6870159" lon="14.0398433"><ele>937.3333333333334</ele><time>2026-04-26T10:27:52.946Z</time></trkpt><trkpt lat="41.6871271" lon="14.0396144"><ele>944.0</ele><time>2026-04-26T10:27:53.94Z</time></trkpt><trkpt lat="41.6872521" lon="14.0394072"><ele>944.0</ele><time>2026-04-26T10:27:54.949Z</time></trkpt><trkpt lat="41.6873988" lon="14.0392281"><ele>944.0</ele><time>2026-04-26T10:27:55.944Z</time></trkpt><trkpt lat="41.6875577" lon="14.0390751"><ele>944.0</ele><time>2026-04-26T10:27:56.943Z</time></trkpt><trkpt lat="41.6877277" lon="14.0389393"><ele>943.0</ele><time>2026-04-26T10:27:57.946Z</time></trkpt><trkpt lat="41.6879065" lon="14.0388174"><ele>942.0</ele><time>2026-04-26T10:27:58.951Z</time></trkpt><trkpt lat="41.6880904" lon="14.0387038"><ele>941.0</ele><time>2026-04-26T10:27:59.939Z</time></trkpt><trkpt lat="41.6882784" lon="14.0386053"><ele>941.0</ele><time>2026-04-26T10:28:00.944Z</time></trkpt><trkpt lat="41.68847" lon="14.0385354"><ele>941.0</ele><time>2026-04-26T10:28:01.945Z</time></trkpt><trkpt lat="41.6886538" lon="14.0384789"><ele>941.0</ele><time>2026-04-26T10:28:02.939Z</time></trkpt><trkpt lat="41.6888227" lon="14.0384281"><ele>941.6666666666667</ele><time>2026-04-26T10:28:03.946Z</time></trkpt><trkpt lat="41.6889718" lon="14.0383612"><ele>942.3333333333333</ele><time>2026-04-26T10:28:04.94Z</time></trkpt><trkpt lat="41.6891011" lon="14.0382561"><ele>943.0</ele><time>2026-04-26T10:28:05.939Z</time></trkpt><trkpt lat="41.6892109" lon="14.0381037"><ele>943.0</ele><time>2026-04-26T10:28:06.945Z</time></trkpt><trkpt lat="41.689311" lon="14.0379101"><ele>943.0</ele><time>2026-04-26T10:28:07.939Z</time></trkpt><trkpt lat="41.6894024" lon="14.0376852"><ele>943.0</ele><time>2026-04-26T10:28:08.949Z</time></trkpt><trkpt lat="41.6894862" lon="14.0374399"><ele>957.0</ele><time>2026-04-26T10:28:09.944Z</time></trkpt><trkpt lat="41.6895641" lon="14.0371795"><ele>971.0</ele><time>2026-04-26T10:28:10.94Z</time></trkpt><trkpt lat="41.6896396" lon="14.0369112"><ele>985.0</ele><time>2026-04-26T10:28:11.949Z</time></trkpt><trkpt lat="41.6897157" lon="14.0366421"><ele>978.3333333333333</ele><time>2026-04-26T10:28:12.946Z</time></trkpt><trkpt lat="41.6897916" lon="14.0363747"><ele>971.6666666666667</ele><time>2026-04-26T10:28:13.939Z</time></trkpt><trkpt lat="41.6898646" lon="14.0361142"><ele>965.0</ele><time>2026-04-26T10:28:14.943Z</time></trkpt><trkpt lat="41.6899429" lon="14.0358674"><ele>969.0</ele><time>2026-04-26T10:28:15.95Z</time></trkpt><trkpt lat="41.6900202" lon="14.0356323"><ele>973.0</ele><time>2026-04-26T10:28:16.937Z</time></trkpt><trkpt lat="41.6901417" lon="14.0354419"><ele>977.0</ele><time>2026-04-26T10:28:17.954Z</time></trkpt><trkpt lat="41.6902727" lon="14.0352882"><ele>977.0</ele><time>2026-04-26T10:28:18.958Z</time></trkpt><trkpt lat="41.6904308" lon="14.0351633"><ele>977.0</ele><time>2026-04-26T10:28:19.951Z</time></trkpt><trkpt lat="41.6906071" lon="14.0350459"><ele>977.0</ele><time>2026-04-26T10:28:20.94Z</time></trkpt><trkpt lat="41.6907878" lon="14.0349124"><ele>977.0</ele><time>2026-04-26T10:28:21.946Z</time></trkpt><trkpt lat="41.6909716" lon="14.034762"><ele>977.0</ele><time>2026-04-26T10:28:22.953Z</time></trkpt><trkpt lat="41.6911587" lon="14.0345951"><ele>977.0</ele><time>2026-04-26T10:28:23.945Z</time></trkpt><trkpt lat="41.6913484" lon="14.034423"><ele>977.0</ele><time>2026-04-26T10:28:24.937Z</time></trkpt><trkpt lat="41.6915412" lon="14.0342522"><ele>977.0</ele><time>2026-04-26T10:28:25.942Z</time></trkpt><trkpt lat="41.6917349" lon="14.0340922"><ele>973.6666666666667</ele><time>2026-04-26T10:28:26.952Z</time></trkpt><trkpt lat="41.6919269" lon="14.0339451"><ele>970.3333333333333</ele><time>2026-04-26T10:28:27.946Z</time></trkpt><trkpt lat="41.6921138" lon="14.0338072"><ele>967.0</ele><time>2026-04-26T10:28:28.958Z</time></trkpt><trkpt lat="41.6922919" lon="14.0336776"><ele>967.0</ele><time>2026-04-26T10:28:29.95Z</time></trkpt><trkpt lat="41.6924682" lon="14.0335692"><ele>967.0</ele><time>2026-04-26T10:28:30.937Z</time></trkpt><trkpt lat="41.6926485" lon="14.0334951"><ele>967.0</ele><time>2026-04-26T10:28:31.956Z</time></trkpt><trkpt lat="41.69283" lon="14.0334493"><ele>969.6666666666666</ele><time>2026-04-26T10:28:32.944Z</time></trkpt><trkpt lat="41.6930071" lon="14.0334204"><ele>972.3333333333333</ele><time>2026-04-26T10:28:33.941Z</time></trkpt><trkpt lat="41.6931679" lon="14.0334075"><ele>975.0</ele><time>2026-04-26T10:28:34.948Z</time></trkpt><trkpt lat="41.6933062" lon="14.0334162"><ele>975.0</ele><time>2026-04-26T10:28:35.956Z</time></trkpt><trkpt lat="41.693423" lon="14.0334723"><ele>975.0</ele><time>2026-04-26T10:28:36.942Z</time></trkpt><trkpt lat="41.6934987" lon="14.0335912"><ele>975.0</ele><time>2026-04-26T10:28:37.953Z</time></trkpt><trkpt lat="41.6935917" lon="14.0337047"><ele>975.0</ele><time>2026-04-26T10:28:38.943Z</time></trkpt><trkpt lat="41.693707" lon="14.0337988"><ele>977.5</ele><time>2026-04-26T10:28:39.945Z</time></trkpt><trkpt lat="41.6938222" lon="14.0339088"><ele>980.0</ele><time>2026-04-26T10:28:40.952Z</time></trkpt><trkpt lat="41.6939292" lon="14.0340522"><ele>982.5</ele><time>2026-04-26T10:28:41.952Z</time></trkpt><trkpt lat="41.6940263" lon="14.0342068"><ele>985.0</ele><time>2026-04-26T10:28:42.943Z</time></trkpt><trkpt lat="41.6941231" lon="14.0343879"><ele>985.0</ele><time>2026-04-26T10:28:43.955Z</time></trkpt><trkpt lat="41.6942203" lon="14.0345803"><ele>985.0</ele><time>2026-04-26T10:28:44.953Z</time></trkpt><trkpt lat="41.6943147" lon="14.0347804"><ele>985.0</ele><time>2026-04-26T10:28:45.95Z</time></trkpt><trkpt lat="41.694417" lon="14.0349757"><ele>987.6666666666666</ele><time>2026-04-26T10:28:46.952Z</time></trkpt><trkpt lat="41.6945279" lon="14.0351599"><ele>990.3333333333333</ele><time>2026-04-26T10:28:47.955Z</time></trkpt><trkpt lat="41.6946469" lon="14.0353198"><ele>993.0</ele><time>2026-04-26T10:28:48.956Z</time></trkpt><trkpt lat="41.6947668" lon="14.0354546"><ele>993.0</ele><time>2026-04-26T10:28:49.95Z</time></trkpt><trkpt lat="41.6948872" lon="14.0355544"><ele>993.0</ele><time>2026-04-26T10:28:50.944Z</time></trkpt><trkpt lat="41.6950019" lon="14.0355984"><ele>993.0</ele><time>2026-04-26T10:28:51.946Z</time></trkpt><trkpt lat="41.695109" lon="14.0355865"><ele>993.0</ele><time>2026-04-26T10:28:52.941Z</time></trkpt><trkpt lat="41.6952015" lon="14.0355157"><ele>994.75</ele><time>2026-04-26T10:28:53.942Z</time></trkpt><trkpt lat="41.6952884" lon="14.0354337"><ele>996.5</ele><time>2026-04-26T10:28:54.955Z</time></trkpt><trkpt lat="41.695352" lon="14.0352761"><ele>998.25</ele><time>2026-04-26T10:28:55.954Z</time></trkpt><trkpt lat="41.6954218" lon="14.0351067"><ele>1000.0</ele><time>2026-04-26T10:28:56.95Z</time></trkpt><trkpt lat="41.6954978" lon="14.0349313"><ele>1000.0</ele><time>2026-04-26T10:28:57.949Z</time></trkpt><trkpt lat="41.6955823" lon="14.0347595"><ele>1000.0</ele><time>2026-04-26T10:28:58.955Z</time></trkpt><trkpt lat="41.6956779" lon="14.0345977"><ele>1000.0</ele><time>2026-04-26T10:28:59.959Z</time></trkpt><trkpt lat="41.6957947" lon="14.0344706"><ele>1000.0</ele><time>2026-04-26T10:29:00.948Z</time></trkpt><trkpt lat="41.6959232" lon="14.034384"><ele>1000.0</ele><time>2026-04-26T10:29:01.953Z</time></trkpt><trkpt lat="41.6960468" lon="14.0342939"><ele>1000.0</ele><time>2026-04-26T10:29:02.959Z</time></trkpt><trkpt lat="41.6961443" lon="14.0341724"><ele>1000.0</ele><time>2026-04-26T10:29:03.942Z</time></trkpt><trkpt lat="41.6962069" lon="14.0340161"><ele>1007.6666666666666</ele><time>2026-04-26T10:29:04.954Z</time></trkpt><trkpt lat="41.6962453" lon="14.0338326"><ele>1015.3333333333333</ele><time>2026-04-26T10:29:05.944Z</time></trkpt><trkpt lat="41.6962817" lon="14.0336358"><ele>1023.0</ele><time>2026-04-26T10:29:06.943Z</time></trkpt><trkpt lat="41.6963245" lon="14.0334317"><ele>1022.3333333333333</ele><time>2026-04-26T10:29:07.949Z</time></trkpt><trkpt lat="41.696369" lon="14.0332162"><ele>1021.6666666666666</ele><time>2026-04-26T10:29:08.961Z</time></trkpt><trkpt lat="41.696413" lon="14.0329995"><ele>1021.0</ele><time>2026-04-26T10:29:09.943Z</time></trkpt><trkpt lat="41.6964597" lon="14.0327822"><ele>1021.0</ele><time>2026-04-26T10:29:10.944Z</time></trkpt><trkpt lat="41.6965102" lon="14.0325616"><ele>1021.0</ele><time>2026-04-26T10:29:11.959Z</time></trkpt><trkpt lat="41.6965682" lon="14.0323431"><ele>1021.0</ele><time>2026-04-26T10:29:12.952Z</time></trkpt><trkpt lat="41.696641" lon="14.032134"><ele>1018.6666666666666</ele><time>2026-04-26T10:29:13.944Z</time></trkpt><trkpt lat="41.6967339" lon="14.0319413"><ele>1016.3333333333333</ele><time>2026-04-26T10:29:14.946Z</time></trkpt><trkpt lat="41.69685" lon="14.0317737"><ele>1014.0</ele><time>2026-04-26T10:29:15.954Z</time></trkpt><trkpt lat="41.696988" lon="14.0316331"><ele>1009.3333333333333</ele><time>2026-04-26T10:29:16.968Z</time></trkpt><trkpt lat="41.6971464" lon="14.0315258"><ele>1004.6666666666666</ele><time>2026-04-26T10:29:17.945Z</time></trkpt><trkpt lat="41.6973156" lon="14.0314507"><ele>1000.0</ele><time>2026-04-26T10:29:18.945Z</time></trkpt><trkpt lat="41.697492" lon="14.0313976"><ele>1000.0</ele><time>2026-04-26T10:29:19.949Z</time></trkpt><trkpt lat="41.6976763" lon="14.0313545"><ele>1000.0</ele><time>2026-04-26T10:29:20.952Z</time></trkpt><trkpt lat="41.6978705" lon="14.0313136"><ele>1000.0</ele><time>2026-04-26T10:29:21.942Z</time></trkpt><trkpt lat="41.6980738" lon="14.0312695"><ele>1004.3333333333333</ele><time>2026-04-26T10:29:22.95Z</time></trkpt><trkpt lat="41.6982776" lon="14.0312209"><ele>1008.6666666666667</ele><time>2026-04-26T10:29:23.942Z</time></trkpt><trkpt lat="41.6984801" lon="14.0311717"><ele>1013.0</ele><time>2026-04-26T10:29:24.942Z</time></trkpt><trkpt lat="41.6986789" lon="14.0311282"><ele>1017.3333333333334</ele><time>2026-04-26T10:29:25.941Z</time></trkpt><trkpt lat="41.6988675" lon="14.0310886"><ele>1021.6666666666667</ele><time>2026-04-26T10:29:26.944Z</time></trkpt><trkpt lat="41.6990425" lon="14.0310374"><ele>1026.0</ele><time>2026-04-26T10:29:27.946Z</time></trkpt><trkpt lat="41.6992041" lon="14.0309568"><ele>1026.0</ele><time>2026-04-26T10:29:28.944Z</time></trkpt><trkpt lat="41.6993477" lon="14.0308415"><ele>1026.0</ele><time>2026-04-26T10:29:29.937Z</time></trkpt><trkpt lat="41.69947" lon="14.0306961"><ele>1026.0</ele><time>2026-04-26T10:29:30.943Z</time></trkpt><trkpt lat="41.6995769" lon="14.0305495"><ele>1025.75</ele><time>2026-04-26T10:29:31.938Z</time></trkpt><trkpt lat="41.6996854" lon="14.0304317"><ele>1025.5</ele><time>2026-04-26T10:29:32.942Z</time></trkpt><trkpt lat="41.6998056" lon="14.0303588"><ele>1025.25</ele><time>2026-04-26T10:29:33.945Z</time></trkpt><trkpt lat="41.6999387" lon="14.0303371"><ele>1025.0</ele><time>2026-04-26T10:29:34.944Z</time></trkpt><trkpt lat="41.7000793" lon="14.0303572"><ele>1025.0</ele><time>2026-04-26T10:29:35.955Z</time></trkpt><trkpt lat="41.7002213" lon="14.0304046"><ele>1025.0</ele><time>2026-04-26T10:29:36.958Z</time></trkpt><trkpt lat="41.7003648" lon="14.0304529"><ele>1025.0</ele><time>2026-04-26T10:29:37.939Z</time></trkpt><trkpt lat="41.7005133" lon="14.0304665"><ele>1025.0</ele><time>2026-04-26T10:29:38.951Z</time></trkpt><trkpt lat="41.7006683" lon="14.0304184"><ele>1028.0</ele><time>2026-04-26T10:29:39.947Z</time></trkpt><trkpt lat="41.7008285" lon="14.0303104"><ele>1031.0</ele><time>2026-04-26T10:29:40.94Z</time></trkpt><trkpt lat="41.7009953" lon="14.0301622"><ele>1034.0</ele><time>2026-04-26T10:29:41.944Z</time></trkpt><trkpt lat="41.7011676" lon="14.0299972"><ele>1035.3333333333335</ele><time>2026-04-26T10:29:42.955Z</time></trkpt><trkpt lat="41.7013463" lon="14.0298353"><ele>1036.6666666666667</ele><time>2026-04-26T10:29:43.94Z</time></trkpt><trkpt lat="41.7015258" lon="14.0296781"><ele>1038.0</ele><time>2026-04-26T10:29:44.948Z</time></trkpt><trkpt lat="41.7016966" lon="14.0295182"><ele>1038.0</ele><time>2026-04-26T10:29:45.959Z</time></trkpt><trkpt lat="41.7018491" lon="14.0293404"><ele>1038.0</ele><time>2026-04-26T10:29:46.943Z</time></trkpt><trkpt lat="41.7019792" lon="14.0291398"><ele>1038.0</ele><time>2026-04-26T10:29:47.943Z</time></trkpt><trkpt lat="41.7020924" lon="14.0289262"><ele>1041.0</ele><time>2026-04-26T10:29:48.942Z</time></trkpt><trkpt lat="41.7021973" lon="14.0287102"><ele>1044.0</ele><time>2026-04-26T10:29:49.945Z</time></trkpt><trkpt lat="41.7022989" lon="14.0284977"><ele>1047.0</ele><time>2026-04-26T10:29:50.942Z</time></trkpt><trkpt lat="41.702399" lon="14.0282946"><ele>1047.0</ele><time>2026-04-26T10:29:51.944Z</time></trkpt><trkpt lat="41.7024938" lon="14.0280984"><ele>1047.0</ele><time>2026-04-26T10:29:52.944Z</time></trkpt><trkpt lat="41.7025846" lon="14.0279105"><ele>1047.0</ele><time>2026-04-26T10:29:53.953Z</time></trkpt><trkpt lat="41.7026712" lon="14.0277319"><ele>1046.25</ele><time>2026-04-26T10:29:54.952Z</time></trkpt><trkpt lat="41.702758" lon="14.0275628"><ele>1045.5</ele><time>2026-04-26T10:29:55.943Z</time></trkpt><trkpt lat="41.7028527" lon="14.0274086"><ele>1044.75</ele><time>2026-04-26T10:29:56.943Z</time></trkpt><trkpt lat="41.7029478" lon="14.0272783"><ele>1044.0</ele><time>2026-04-26T10:29:57.946Z</time></trkpt><trkpt lat="41.7030766" lon="14.0271815"><ele>1044.0</ele><time>2026-04-26T10:29:58.947Z</time></trkpt><trkpt lat="41.7031987" lon="14.0270826"><ele>1044.0</ele><time>2026-04-26T10:29:59.945Z</time></trkpt><trkpt lat="41.7033333" lon="14.0270011"><ele>1044.0</ele><time>2026-04-26T10:30:00.949Z</time></trkpt><trkpt lat="41.7034733" lon="14.0269436"><ele>1044.0</ele><time>2026-04-26T10:30:01.957Z</time></trkpt><trkpt lat="41.7036233" lon="14.0269003"><ele>1045.5</ele><time>2026-04-26T10:30:02.94Z</time></trkpt><trkpt lat="41.7037757" lon="14.026887"><ele>1047.0</ele><time>2026-04-26T10:30:03.965Z</time></trkpt><trkpt lat="41.7038984" lon="14.0268839"><ele>1048.5</ele><time>2026-04-26T10:30:04.969Z</time></trkpt><trkpt lat="41.7040116" lon="14.0269147"><ele>1050.0</ele><time>2026-04-26T10:30:05.948Z</time></trkpt><trkpt lat="41.7040985" lon="14.0270083"><ele>1050.0</ele><time>2026-04-26T10:30:07.007Z</time></trkpt><trkpt lat="41.7041517" lon="14.0271219"><ele>1050.0</ele><time>2026-04-26T10:30:07.978Z</time></trkpt><trkpt lat="41.7042008" lon="14.02724"><ele>1050.0</ele><time>2026-04-26T10:30:08.947Z</time></trkpt><trkpt lat="41.7042501" lon="14.0273217"><ele>1050.0</ele><time>2026-04-26T10:30:09.951Z</time></trkpt><trkpt lat="41.7043297" lon="14.0273716"><ele>1050.0</ele><time>2026-04-26T10:30:10.965Z</time></trkpt><trkpt lat="41.7044205" lon="14.0273786"><ele>1051.0</ele><time>2026-04-26T10:30:11.957Z</time></trkpt><trkpt lat="41.7045076" lon="14.0273544"><ele>1052.0</ele><time>2026-04-26T10:30:12.946Z</time></trkpt><trkpt lat="41.7045677" lon="14.0272942"><ele>1053.0</ele><time>2026-04-26T10:30:13.949Z</time></trkpt><trkpt lat="41.7046364" lon="14.0272344"><ele>1054.0</ele><time>2026-04-26T10:30:14.952Z</time></trkpt><trkpt lat="41.7046948" lon="14.0271711"><ele>1055.0</ele><time>2026-04-26T10:30:15.94Z</time></trkpt><trkpt lat="41.7047516" lon="14.0271268"><ele>1056.0</ele><time>2026-04-26T10:30:16.957Z</time></trkpt><trkpt lat="41.7048232" lon="14.0270948"><ele>1056.0</ele><time>2026-04-26T10:30:17.948Z</time></trkpt><trkpt lat="41.7049084" lon="14.027088"><ele>1056.0</ele><time>2026-04-26T10:30:18.943Z</time></trkpt><trkpt lat="41.7049877" lon="14.0270769"><ele>1056.0</ele><time>2026-04-26T10:30:19.946Z</time></trkpt><trkpt lat="41.7050837" lon="14.0270712"><ele>1056.0</ele><time>2026-04-26T10:30:20.954Z</time></trkpt><trkpt lat="41.705179" lon="14.0270735"><ele>1056.0</ele><time>2026-04-26T10:30:21.943Z</time></trkpt><trkpt lat="41.7052646" lon="14.0270769"><ele>1056.0</ele><time>2026-04-26T10:30:22.944Z</time></trkpt><trkpt lat="41.7053499" lon="14.0270704"><ele>1056.6</ele><time>2026-04-26T10:30:23.959Z</time></trkpt><trkpt lat="41.7054385" lon="14.0270612"><ele>1057.1999999999998</ele><time>2026-04-26T10:30:24.951Z</time></trkpt><trkpt lat="41.7055433" lon="14.0270659"><ele>1057.8000000000002</ele><time>2026-04-26T10:30:25.955Z</time></trkpt><trkpt lat="41.7056373" lon="14.0270831"><ele>1058.4</ele><time>2026-04-26T10:30:26.945Z</time></trkpt><trkpt lat="41.7057213" lon="14.0271186"><ele>1059.0</ele><time>2026-04-26T10:30:27.95Z</time></trkpt><trkpt lat="41.7058176" lon="14.0271742"><ele>1059.0</ele><time>2026-04-26T10:30:28.947Z</time></trkpt><trkpt lat="41.7058936" lon="14.027247"><ele>1059.0</ele><time>2026-04-26T10:30:29.942Z</time></trkpt><trkpt lat="41.7059662" lon="14.027333"><ele>1059.0</ele><time>2026-04-26T10:30:30.941Z</time></trkpt><trkpt lat="41.7060314" lon="14.0274286"><ele>1059.0</ele><time>2026-04-26T10:30:31.948Z</time></trkpt><trkpt lat="41.7060949" lon="14.0275203"><ele>1059.0</ele><time>2026-04-26T10:30:32.946Z</time></trkpt><trkpt lat="41.7061525" lon="14.0276077"><ele>1062.8</ele><time>2026-04-26T10:30:33.944Z</time></trkpt><trkpt lat="41.7062135" lon="14.027696"><ele>1066.6000000000001</ele><time>2026-04-26T10:30:34.958Z</time></trkpt><trkpt lat="41.7062704" lon="14.0277751"><ele>1070.4</ele><time>2026-04-26T10:30:35.947Z</time></trkpt><trkpt lat="41.7063131" lon="14.0278396"><ele>1074.2</ele><time>2026-04-26T10:30:36.945Z</time></trkpt><trkpt lat="41.7063802" lon="14.027953"><ele>1078.0</ele><time>2026-04-26T10:31:19.96Z</time></trkpt><trkpt lat="41.7064768" lon="14.0280784"><ele>1078.0</ele><time>2026-04-26T10:31:21.955Z</time></trkpt><trkpt lat="41.7065307" lon="14.0281667"><ele>1078.0</ele><time>2026-04-26T10:31:22.944Z</time></trkpt><trkpt lat="41.7065852" lon="14.0282704"><ele>1078.0</ele><time>2026-04-26T10:31:23.96Z</time></trkpt><trkpt lat="41.7066376" lon="14.0283943"><ele>1078.0</ele><time>2026-04-26T10:31:24.949Z</time></trkpt><trkpt lat="41.7066878" lon="14.0285338"><ele>1078.0</ele><time>2026-04-26T10:31:25.937Z</time></trkpt><trkpt lat="41.7067403" lon="14.028683"><ele>1078.5</ele><time>2026-04-26T10:31:26.966Z</time></trkpt><trkpt lat="41.7068016" lon="14.0288361"><ele>1079.0</ele><time>2026-04-26T10:31:27.962Z</time></trkpt><trkpt lat="41.7068897" lon="14.02897"><ele>1079.5</ele><time>2026-04-26T10:31:28.944Z</time></trkpt><trkpt lat="41.7069991" lon="14.0290723"><ele>1080.0</ele><time>2026-04-26T10:31:29.953Z</time></trkpt><trkpt lat="41.7071297" lon="14.0291372"><ele>1078.75</ele><time>2026-04-26T10:31:30.952Z</time></trkpt><trkpt lat="41.7072702" lon="14.0291812"><ele>1077.5</ele><time>2026-04-26T10:31:31.945Z</time></trkpt><trkpt lat="41.7074156" lon="14.0292168"><ele>1076.25</ele><time>2026-04-26T10:31:32.954Z</time></trkpt><trkpt lat="41.7075699" lon="14.0292521"><ele>1075.0</ele><time>2026-04-26T10:31:33.953Z</time></trkpt><trkpt lat="41.7077253" lon="14.0292897"><ele>1074.6666666666665</ele><time>2026-04-26T10:31:34.951Z</time></trkpt><trkpt lat="41.7078809" lon="14.0293283"><ele>1074.3333333333333</ele><time>2026-04-26T10:31:35.988Z</time></trkpt><trkpt lat="41.7080416" lon="14.0293684"><ele>1074.0</ele><time>2026-04-26T10:31:36.997Z</time></trkpt><trkpt lat="41.7082027" lon="14.0294081"><ele>1074.0</ele><time>2026-04-26T10:31:37.974Z</time></trkpt><trkpt lat="41.7083666" lon="14.0294395"><ele>1074.0</ele><time>2026-04-26T10:31:38.959Z</time></trkpt><trkpt lat="41.7085334" lon="14.0294868"><ele>1074.0</ele><time>2026-04-26T10:31:39.972Z</time></trkpt><trkpt lat="41.7086979" lon="14.029529"><ele>1074.0</ele><time>2026-04-26T10:31:40.969Z</time></trkpt><trkpt lat="41.7088612" lon="14.0295681"><ele>1074.0</ele><time>2026-04-26T10:31:41.967Z</time></trkpt><trkpt lat="41.709025" lon="14.029593"><ele>1074.0</ele><time>2026-04-26T10:31:42.955Z</time></trkpt><trkpt lat="41.7091837" lon="14.029637"><ele>1074.0</ele><time>2026-04-26T10:31:43.938Z</time></trkpt><trkpt lat="41.7093352" lon="14.0296796"><ele>1074.0</ele><time>2026-04-26T10:31:44.944Z</time></trkpt><trkpt lat="41.7094887" lon="14.0297155"><ele>1074.0</ele><time>2026-04-26T10:31:45.951Z</time></trkpt><trkpt lat="41.7096563" lon="14.0297506"><ele>1075.0</ele><time>2026-04-26T10:31:46.947Z</time></trkpt><trkpt lat="41.7098188" lon="14.0297877"><ele>1076.0</ele><time>2026-04-26T10:31:47.944Z</time></trkpt><trkpt lat="41.7099752" lon="14.0298237"><ele>1077.0</ele><time>2026-04-26T10:31:48.951Z</time></trkpt><trkpt lat="41.7101304" lon="14.0298506"><ele>1078.5</ele><time>2026-04-26T10:31:49.952Z</time></trkpt><trkpt lat="41.7102816" lon="14.029869"><ele>1080.0</ele><time>2026-04-26T10:31:50.947Z</time></trkpt><trkpt lat="41.7104183" lon="14.0298956"><ele>1081.5</ele><time>2026-04-26T10:31:51.944Z</time></trkpt><trkpt lat="41.7105614" lon="14.0299326"><ele>1083.0</ele><time>2026-04-26T10:31:52.944Z</time></trkpt><trkpt lat="41.7107102" lon="14.029975"><ele>1082.6666666666667</ele><time>2026-04-26T10:31:53.948Z</time></trkpt><trkpt lat="41.710857" lon="14.0300159"><ele>1082.3333333333335</ele><time>2026-04-26T10:31:54.945Z</time></trkpt><trkpt lat="41.7110134" lon="14.0300521"><ele>1082.0</ele><time>2026-04-26T10:31:55.943Z</time></trkpt><trkpt lat="41.7111641" lon="14.0300777"><ele>1083.0</ele><time>2026-04-26T10:31:56.948Z</time></trkpt><trkpt lat="41.7113248" lon="14.0301051"><ele>1084.0</ele><time>2026-04-26T10:31:57.953Z</time></trkpt><trkpt lat="41.7114779" lon="14.0301393"><ele>1085.0</ele><time>2026-04-26T10:31:58.946Z</time></trkpt><trkpt lat="41.711628" lon="14.0301816"><ele>1085.0</ele><time>2026-04-26T10:31:59.952Z</time></trkpt><trkpt lat="41.7117697" lon="14.0302192"><ele>1085.0</ele><time>2026-04-26T10:32:00.948Z</time></trkpt><trkpt lat="41.7119149" lon="14.0302719"><ele>1085.0</ele><time>2026-04-26T10:32:01.943Z</time></trkpt><trkpt lat="41.7120573" lon="14.0303479"><ele>1085.0</ele><time>2026-04-26T10:32:02.949Z</time></trkpt><trkpt lat="41.712201" lon="14.0304145"><ele>1091.0</ele><time>2026-04-26T10:32:03.952Z</time></trkpt><trkpt lat="41.7123401" lon="14.0304903"><ele>1097.0</ele><time>2026-04-26T10:32:04.943Z</time></trkpt><trkpt lat="41.7124782" lon="14.0305532"><ele>1103.0</ele><time>2026-04-26T10:32:05.947Z</time></trkpt><trkpt lat="41.7126298" lon="14.0305915"><ele>1106.6666666666667</ele><time>2026-04-26T10:32:06.95Z</time></trkpt><trkpt lat="41.7128036" lon="14.0306133"><ele>1110.3333333333333</ele><time>2026-04-26T10:32:07.947Z</time></trkpt><trkpt lat="41.7129719" lon="14.0306316"><ele>1114.0</ele><time>2026-04-26T10:32:08.942Z</time></trkpt><trkpt lat="41.7131378" lon="14.0306711"><ele>1114.0</ele><time>2026-04-26T10:32:09.952Z</time></trkpt><trkpt lat="41.7133102" lon="14.0307038"><ele>1114.0</ele><time>2026-04-26T10:32:10.944Z</time></trkpt><trkpt lat="41.7134862" lon="14.030705"><ele>1114.0</ele><time>2026-04-26T10:32:11.947Z</time></trkpt><trkpt lat="41.7136726" lon="14.0306804"><ele>1114.3333333333333</ele><time>2026-04-26T10:32:12.947Z</time></trkpt><trkpt lat="41.7138539" lon="14.0306456"><ele>1114.6666666666667</ele><time>2026-04-26T10:32:13.943Z</time></trkpt><trkpt lat="41.7140316" lon="14.0306062"><ele>1115.0</ele><time>2026-04-26T10:32:14.949Z</time></trkpt><trkpt lat="41.7142035" lon="14.0305618"><ele>1115.0</ele><time>2026-04-26T10:32:15.938Z</time></trkpt><trkpt lat="41.7143631" lon="14.0305346"><ele>1115.0</ele><time>2026-04-26T10:32:16.94Z</time></trkpt><trkpt lat="41.7145274" lon="14.0305041"><ele>1115.0</ele><time>2026-04-26T10:32:17.954Z</time></trkpt><trkpt lat="41.7146904" lon="14.0304305"><ele>1112.75</ele><time>2026-04-26T10:32:18.971Z</time></trkpt><trkpt lat="41.7148018" lon="14.0303227"><ele>1110.5</ele><time>2026-04-26T10:32:19.945Z</time></trkpt><trkpt lat="41.7148877" lon="14.0301883"><ele>1108.25</ele><time>2026-04-26T10:32:20.952Z</time></trkpt><trkpt lat="41.7149823" lon="14.0300966"><ele>1106.0</ele><time>2026-04-26T10:32:22.001Z</time></trkpt><trkpt lat="41.7150766" lon="14.0300304"><ele>1106.0</ele><time>2026-04-26T10:32:22.965Z</time></trkpt><trkpt lat="41.7151638" lon="14.0300229"><ele>1106.0</ele><time>2026-04-26T10:32:23.943Z</time></trkpt><trkpt lat="41.7152624" lon="14.0300829"><ele>1106.0</ele><time>2026-04-26T10:32:24.955Z</time></trkpt><trkpt lat="41.7153408" lon="14.030152"><ele>1106.0</ele><time>2026-04-26T10:32:25.95Z</time></trkpt><trkpt lat="41.7153938" lon="14.0302675"><ele>1106.0</ele><time>2026-04-26T10:32:26.946Z</time></trkpt><trkpt lat="41.7154561" lon="14.0303871"><ele>1107.5</ele><time>2026-04-26T10:32:27.961Z</time></trkpt><trkpt lat="41.7155155" lon="14.0305123"><ele>1109.0</ele><time>2026-04-26T10:32:28.955Z</time></trkpt><trkpt lat="41.7156187" lon="14.0306119"><ele>1110.5</ele><time>2026-04-26T10:32:29.943Z</time></trkpt><trkpt lat="41.7157422" lon="14.0306908"><ele>1112.0</ele><time>2026-04-26T10:32:30.945Z</time></trkpt><trkpt lat="41.7158858" lon="14.0307405"><ele>1112.0</ele><time>2026-04-26T10:32:31.96Z</time></trkpt><trkpt lat="41.7160376" lon="14.0307902"><ele>1112.0</ele><time>2026-04-26T10:32:32.949Z</time></trkpt><trkpt lat="41.7161938" lon="14.0308439"><ele>1112.0</ele><time>2026-04-26T10:32:33.943Z</time></trkpt><trkpt lat="41.7163375" lon="14.0309624"><ele>1113.6666666666667</ele><time>2026-04-26T10:32:34.961Z</time></trkpt><trkpt lat="41.7164805" lon="14.0310971"><ele>1115.3333333333333</ele><time>2026-04-26T10:32:35.954Z</time></trkpt><trkpt lat="41.7166281" lon="14.0312532"><ele>1117.0</ele><time>2026-04-26T10:32:36.944Z</time></trkpt><trkpt lat="41.7167679" lon="14.0314231"><ele>1119.3333333333333</ele><time>2026-04-26T10:32:37.954Z</time></trkpt><trkpt lat="41.7169051" lon="14.0315941"><ele>1121.6666666666667</ele><time>2026-04-26T10:32:38.956Z</time></trkpt><trkpt lat="41.7170327" lon="14.0317927"><ele>1124.0</ele><time>2026-04-26T10:32:39.94Z</time></trkpt><trkpt lat="41.7171448" lon="14.0320089"><ele>1124.0</ele><time>2026-04-26T10:32:40.957Z</time></trkpt><trkpt lat="41.717246" lon="14.0322295"><ele>1124.0</ele><time>2026-04-26T10:32:41.952Z</time></trkpt><trkpt lat="41.717338" lon="14.032454"><ele>1124.0</ele><time>2026-04-26T10:32:42.954Z</time></trkpt><trkpt lat="41.7174297" lon="14.0326688"><ele>1123.0</ele><time>2026-04-26T10:32:43.946Z</time></trkpt><trkpt lat="41.717524" lon="14.0328673"><ele>1122.0</ele><time>2026-04-26T10:32:44.946Z</time></trkpt><trkpt lat="41.7176135" lon="14.0330484"><ele>1121.0</ele><time>2026-04-26T10:32:45.947Z</time></trkpt><trkpt lat="41.7177377" lon="14.0331749"><ele>1121.0</ele><time>2026-04-26T10:32:46.947Z</time></trkpt><trkpt lat="41.7178841" lon="14.0332577"><ele>1121.0</ele><time>2026-04-26T10:32:47.942Z</time></trkpt><trkpt lat="41.7180167" lon="14.0332997"><ele>1121.0</ele><time>2026-04-26T10:32:48.95Z</time></trkpt><trkpt lat="41.7181452" lon="14.0332939"><ele>1121.0</ele><time>2026-04-26T10:32:49.951Z</time></trkpt><trkpt lat="41.718256" lon="14.0332324"><ele>1121.0</ele><time>2026-04-26T10:32:50.941Z</time></trkpt><trkpt lat="41.7183529" lon="14.0331298"><ele>1121.0</ele><time>2026-04-26T10:32:51.956Z</time></trkpt><trkpt lat="41.7184364" lon="14.0330051"><ele>1121.0</ele><time>2026-04-26T10:32:52.953Z</time></trkpt><trkpt lat="41.7185216" lon="14.0328684"><ele>1121.0</ele><time>2026-04-26T10:32:53.96Z</time></trkpt><trkpt lat="41.7186142" lon="14.032733"><ele>1119.25</ele><time>2026-04-26T10:32:54.945Z</time></trkpt><trkpt lat="41.7187162" lon="14.0326063"><ele>1117.5</ele><time>2026-04-26T10:32:55.94Z</time></trkpt><trkpt lat="41.7188342" lon="14.0324989"><ele>1115.75</ele><time>2026-04-26T10:32:56.956Z</time></trkpt><trkpt lat="41.7189671" lon="14.03242"><ele>1114.0</ele><time>2026-04-26T10:32:57.952Z</time></trkpt><trkpt lat="41.7191091" lon="14.0323692"><ele>1118.6666666666665</ele><time>2026-04-26T10:32:58.94Z</time></trkpt><trkpt lat="41.719258" lon="14.0323401"><ele>1123.3333333333333</ele><time>2026-04-26T10:32:59.946Z</time></trkpt><trkpt lat="41.7194119" lon="14.0323127"><ele>1128.0</ele><time>2026-04-26T10:33:00.941Z</time></trkpt><trkpt lat="41.7195627" lon="14.0322937"><ele>1128.0</ele><time>2026-04-26T10:33:01.958Z</time></trkpt><trkpt lat="41.7197208" lon="14.0322754"><ele>1128.0</ele><time>2026-04-26T10:33:02.953Z</time></trkpt><trkpt lat="41.7198845" lon="14.0322814"><ele>1128.0</ele><time>2026-04-26T10:33:03.946Z</time></trkpt><trkpt lat="41.7200484" lon="14.0323112"><ele>1128.0</ele><time>2026-04-26T10:33:04.965Z</time></trkpt><trkpt lat="41.7202093" lon="14.0323667"><ele>1128.0</ele><time>2026-04-26T10:33:05.956Z</time></trkpt><trkpt lat="41.7203654" lon="14.0324353"><ele>1128.0</ele><time>2026-04-26T10:33:06.957Z</time></trkpt><trkpt lat="41.720519" lon="14.0325119"><ele>1123.0</ele><time>2026-04-26T10:33:07.956Z</time></trkpt><trkpt lat="41.7206729" lon="14.0325922"><ele>1118.0</ele><time>2026-04-26T10:33:08.948Z</time></trkpt><trkpt lat="41.7208238" lon="14.0326811"><ele>1113.0</ele><time>2026-04-26T10:33:09.954Z</time></trkpt><trkpt lat="41.7209737" lon="14.0327746"><ele>1117.3333333333333</ele><time>2026-04-26T10:33:10.953Z</time></trkpt><trkpt lat="41.7211189" lon="14.0328806"><ele>1121.6666666666665</ele><time>2026-04-26T10:33:11.944Z</time></trkpt><trkpt lat="41.7212568" lon="14.0329993"><ele>1126.0</ele><time>2026-04-26T10:33:12.948Z</time></trkpt><trkpt lat="41.7213906" lon="14.0331287"><ele>1126.0</ele><time>2026-04-26T10:33:13.955Z</time></trkpt><trkpt lat="41.7215183" lon="14.03327"><ele>1126.0</ele><time>2026-04-26T10:33:14.946Z</time></trkpt><trkpt lat="41.7216372" lon="14.0334234"><ele>1126.0</ele><time>2026-04-26T10:33:15.951Z</time></trkpt><trkpt lat="41.7217492" lon="14.0335867"><ele>1121.0</ele><time>2026-04-26T10:33:16.96Z</time></trkpt><trkpt lat="41.7218557" lon="14.0337526"><ele>1116.0</ele><time>2026-04-26T10:33:17.944Z</time></trkpt><trkpt lat="41.7219647" lon="14.0339194"><ele>1111.0</ele><time>2026-04-26T10:33:18.944Z</time></trkpt><trkpt lat="41.7220743" lon="14.034085"><ele>1106.6666666666665</ele><time>2026-04-26T10:33:19.955Z</time></trkpt><trkpt lat="41.7221853" lon="14.0342489"><ele>1102.3333333333333</ele><time>2026-04-26T10:33:20.967Z</time></trkpt><trkpt lat="41.7222992" lon="14.0344053"><ele>1098.0</ele><time>2026-04-26T10:33:21.941Z</time></trkpt><trkpt lat="41.7224216" lon="14.0345467"><ele>1098.0</ele><time>2026-04-26T10:33:22.939Z</time></trkpt><trkpt lat="41.722548" lon="14.0346588"><ele>1098.0</ele><time>2026-04-26T10:33:23.95Z</time></trkpt><trkpt lat="41.7226697" lon="14.0347206"><ele>1098.0</ele><time>2026-04-26T10:33:24.952Z</time></trkpt><trkpt lat="41.7227878" lon="14.0347339"><ele>1098.0</ele><time>2026-04-26T10:33:25.942Z</time></trkpt><trkpt lat="41.7229027" lon="14.0347054"><ele>1096.25</ele><time>2026-04-26T10:33:26.965Z</time></trkpt><trkpt lat="41.7230137" lon="14.0346437"><ele>1094.5</ele><time>2026-04-26T10:33:27.943Z</time></trkpt><trkpt lat="41.7231186" lon="14.0345574"><ele>1092.75</ele><time>2026-04-26T10:33:28.942Z</time></trkpt><trkpt lat="41.7232199" lon="14.034453"><ele>1091.0</ele><time>2026-04-26T10:33:29.952Z</time></trkpt><trkpt lat="41.7233224" lon="14.0343392"><ele>1091.0</ele><time>2026-04-26T10:33:30.949Z</time></trkpt><trkpt lat="41.7234273" lon="14.0342205"><ele>1091.0</ele><time>2026-04-26T10:33:31.939Z</time></trkpt><trkpt lat="41.7235342" lon="14.0340998"><ele>1091.0</ele><time>2026-04-26T10:33:32.955Z</time></trkpt><trkpt lat="41.7236418" lon="14.0339851"><ele>1091.0</ele><time>2026-04-26T10:33:33.946Z</time></trkpt><trkpt lat="41.7237506" lon="14.0338911"><ele>1086.0</ele><time>2026-04-26T10:33:34.944Z</time></trkpt><trkpt lat="41.7238581" lon="14.0338493"><ele>1081.0</ele><time>2026-04-26T10:33:35.951Z</time></trkpt><trkpt lat="41.7239572" lon="14.0338685"><ele>1076.0</ele><time>2026-04-26T10:33:36.948Z</time></trkpt><trkpt lat="41.7240585" lon="14.0339015"><ele>1071.0</ele><time>2026-04-26T10:33:37.949Z</time></trkpt><trkpt lat="41.7241205" lon="14.0340033"><ele>1066.0</ele><time>2026-04-26T10:33:38.949Z</time></trkpt><trkpt lat="41.7241783" lon="14.0341167"><ele>1063.0</ele><time>2026-04-26T10:33:39.957Z</time></trkpt><trkpt lat="41.7242395" lon="14.0342343"><ele>1060.0</ele><time>2026-04-26T10:33:40.947Z</time></trkpt><trkpt lat="41.7243064" lon="14.0343589"><ele>1057.0</ele><time>2026-04-26T10:33:41.954Z</time></trkpt><trkpt lat="41.7243725" lon="14.0344878"><ele>1054.0</ele><time>2026-04-26T10:33:42.962Z</time></trkpt><trkpt lat="41.7244366" lon="14.0346282"><ele>1054.0</ele><time>2026-04-26T10:33:43.945Z</time></trkpt><trkpt lat="41.724501" lon="14.0347718"><ele>1054.0</ele><time>2026-04-26T10:33:44.949Z</time></trkpt><trkpt lat="41.7245721" lon="14.0349132"><ele>1054.0</ele><time>2026-04-26T10:33:45.952Z</time></trkpt><trkpt lat="41.7246469" lon="14.0350558"><ele>1054.0</ele><time>2026-04-26T10:33:46.942Z</time></trkpt><trkpt lat="41.7247271" lon="14.0351982"><ele>1057.75</ele><time>2026-04-26T10:33:47.95Z</time></trkpt><trkpt lat="41.7248119" lon="14.0353342"><ele>1061.5</ele><time>2026-04-26T10:33:48.953Z</time></trkpt><trkpt lat="41.7249076" lon="14.0354585"><ele>1065.25</ele><time>2026-04-26T10:33:49.939Z</time></trkpt><trkpt lat="41.7250125" lon="14.0355699"><ele>1069.0</ele><time>2026-04-26T10:33:50.949Z</time></trkpt><trkpt lat="41.7251221" lon="14.0356742"><ele>1067.0</ele><time>2026-04-26T10:33:51.959Z</time></trkpt><trkpt lat="41.7252355" lon="14.0357744"><ele>1065.0</ele><time>2026-04-26T10:33:52.947Z</time></trkpt><trkpt lat="41.72535" lon="14.0358734"><ele>1063.0</ele><time>2026-04-26T10:33:53.951Z</time></trkpt><trkpt lat="41.7254619" lon="14.0359781"><ele>1061.0</ele><time>2026-04-26T10:33:54.943Z</time></trkpt><trkpt lat="41.7255752" lon="14.0360838"><ele>1061.0</ele><time>2026-04-26T10:33:55.952Z</time></trkpt><trkpt lat="41.725686" lon="14.0361851"><ele>1061.0</ele><time>2026-04-26T10:33:56.947Z</time></trkpt><trkpt lat="41.7257883" lon="14.0362835"><ele>1061.0</ele><time>2026-04-26T10:33:57.938Z</time></trkpt><trkpt lat="41.7258792" lon="14.036386"><ele>1061.0</ele><time>2026-04-26T10:33:58.944Z</time></trkpt><trkpt lat="41.7259606" lon="14.0364954"><ele>1061.0</ele><time>2026-04-26T10:33:59.946Z</time></trkpt><trkpt lat="41.7260385" lon="14.0366005"><ele>1061.0</ele><time>2026-04-26T10:34:00.938Z</time></trkpt><trkpt lat="41.7261171" lon="14.0367114"><ele>1061.0</ele><time>2026-04-26T10:34:01.938Z</time></trkpt><trkpt lat="41.7261977" lon="14.0368319"><ele>1061.0</ele><time>2026-04-26T10:34:02.947Z</time></trkpt><trkpt lat="41.7262796" lon="14.0369548"><ele>1059.75</ele><time>2026-04-26T10:34:03.95Z</time></trkpt><trkpt lat="41.726366" lon="14.0370785"><ele>1058.5</ele><time>2026-04-26T10:34:04.941Z</time></trkpt><trkpt lat="41.7264617" lon="14.037206"><ele>1057.25</ele><time>2026-04-26T10:34:05.944Z</time></trkpt><trkpt lat="41.7265779" lon="14.0373358"><ele>1056.0</ele><time>2026-04-26T10:34:06.953Z</time></trkpt><trkpt lat="41.7267071" lon="14.0374574"><ele>1057.3333333333333</ele><time>2026-04-26T10:34:07.945Z</time></trkpt><trkpt lat="41.7268393" lon="14.0375717"><ele>1058.6666666666665</ele><time>2026-04-26T10:34:08.946Z</time></trkpt><trkpt lat="41.7269981" lon="14.0376433"><ele>1060.0</ele><time>2026-04-26T10:34:09.944Z</time></trkpt><trkpt lat="41.7271604" lon="14.0377154"><ele>1060.0</ele><time>2026-04-26T10:34:10.943Z</time></trkpt><trkpt lat="41.7273188" lon="14.0377941"><ele>1060.0</ele><time>2026-04-26T10:34:11.943Z</time></trkpt><trkpt lat="41.7274839" lon="14.0378756"><ele>1060.0</ele><time>2026-04-26T10:34:12.943Z</time></trkpt><trkpt lat="41.7276361" lon="14.0379771"><ele>1057.0</ele><time>2026-04-26T10:34:13.945Z</time></trkpt><trkpt lat="41.7277739" lon="14.0381116"><ele>1054.0</ele><time>2026-04-26T10:34:14.948Z</time></trkpt><trkpt lat="41.7279006" lon="14.0382729"><ele>1051.0</ele><time>2026-04-26T10:34:15.944Z</time></trkpt><trkpt lat="41.7280201" lon="14.0384518"><ele>1051.0</ele><time>2026-04-26T10:34:16.953Z</time></trkpt><trkpt lat="41.7281429" lon="14.0386379"><ele>1051.0</ele><time>2026-04-26T10:34:17.947Z</time></trkpt><trkpt lat="41.7282672" lon="14.0388306"><ele>1051.0</ele><time>2026-04-26T10:34:18.943Z</time></trkpt><trkpt lat="41.728393" lon="14.0390256"><ele>1046.3333333333333</ele><time>2026-04-26T10:34:19.947Z</time></trkpt><trkpt lat="41.7285217" lon="14.0392243"><ele>1041.6666666666667</ele><time>2026-04-26T10:34:20.971Z</time></trkpt><trkpt lat="41.7286525" lon="14.0394247"><ele>1037.0</ele><time>2026-04-26T10:34:21.949Z</time></trkpt><trkpt lat="41.7287813" lon="14.0396258"><ele>1037.0</ele><time>2026-04-26T10:34:22.944Z</time></trkpt><trkpt lat="41.7289116" lon="14.0398258"><ele>1037.0</ele><time>2026-04-26T10:34:23.944Z</time></trkpt><trkpt lat="41.7290453" lon="14.0400253"><ele>1037.0</ele><time>2026-04-26T10:34:24.937Z</time></trkpt><trkpt lat="41.7291854" lon="14.0402179"><ele>1034.6666666666667</ele><time>2026-04-26T10:34:25.945Z</time></trkpt><trkpt lat="41.7293323" lon="14.0404045"><ele>1032.3333333333333</ele><time>2026-04-26T10:34:26.952Z</time></trkpt><trkpt lat="41.7294855" lon="14.0405842"><ele>1030.0</ele><time>2026-04-26T10:34:27.944Z</time></trkpt><trkpt lat="41.7296435" lon="14.0407565"><ele>1035.6666666666665</ele><time>2026-04-26T10:34:28.95Z</time></trkpt><trkpt lat="41.7298024" lon="14.0409158"><ele>1041.3333333333333</ele><time>2026-04-26T10:34:29.945Z</time></trkpt><trkpt lat="41.7299551" lon="14.0410684"><ele>1047.0</ele><time>2026-04-26T10:34:30.947Z</time></trkpt><trkpt lat="41.7300961" lon="14.0412333"><ele>1047.0</ele><time>2026-04-26T10:34:31.943Z</time></trkpt><trkpt lat="41.7302241" lon="14.0414202"><ele>1047.0</ele><time>2026-04-26T10:34:32.95Z</time></trkpt><trkpt lat="41.7303458" lon="14.0416183"><ele>1047.0</ele><time>2026-04-26T10:34:33.938Z</time></trkpt><trkpt lat="41.7304748" lon="14.0418115"><ele>1042.0</ele><time>2026-04-26T10:34:34.944Z</time></trkpt><trkpt lat="41.7306101" lon="14.0420004"><ele>1037.0</ele><time>2026-04-26T10:34:35.942Z</time></trkpt><trkpt lat="41.7307404" lon="14.0421996"><ele>1032.0</ele><time>2026-04-26T10:34:36.954Z</time></trkpt><trkpt lat="41.7308573" lon="14.0424138"><ele>1035.6666666666667</ele><time>2026-04-26T10:34:37.943Z</time></trkpt><trkpt lat="41.7309666" lon="14.042638"><ele>1039.3333333333335</ele><time>2026-04-26T10:34:38.945Z</time></trkpt><trkpt lat="41.7310726" lon="14.0428666"><ele>1043.0</ele><time>2026-04-26T10:34:39.946Z</time></trkpt><trkpt lat="41.7311763" lon="14.0431002"><ele>1035.0</ele><time>2026-04-26T10:34:40.951Z</time></trkpt><trkpt lat="41.7312777" lon="14.043338"><ele>1027.0</ele><time>2026-04-26T10:34:41.946Z</time></trkpt><trkpt lat="41.7313787" lon="14.0435765"><ele>1019.0</ele><time>2026-04-26T10:34:42.945Z</time></trkpt><trkpt lat="41.7314687" lon="14.0438233"><ele>1019.0</ele><time>2026-04-26T10:34:43.949Z</time></trkpt><trkpt lat="41.7315586" lon="14.0440718"><ele>1019.0</ele><time>2026-04-26T10:34:44.945Z</time></trkpt><trkpt lat="41.7316408" lon="14.0443283"><ele>1019.0</ele><time>2026-04-26T10:34:45.954Z</time></trkpt><trkpt lat="41.731717" lon="14.0445834"><ele>1022.3333333333334</ele><time>2026-04-26T10:34:46.95Z</time></trkpt><trkpt lat="41.7317861" lon="14.0448468"><ele>1025.6666666666667</ele><time>2026-04-26T10:34:47.949Z</time></trkpt><trkpt lat="41.7318507" lon="14.0451125"><ele>1029.0</ele><time>2026-04-26T10:34:48.948Z</time></trkpt><trkpt lat="41.7319123" lon="14.0453786"><ele>1025.3333333333333</ele><time>2026-04-26T10:34:49.947Z</time></trkpt><trkpt lat="41.731972" lon="14.0456478"><ele>1021.6666666666666</ele><time>2026-04-26T10:34:50.95Z</time></trkpt><trkpt lat="41.7320281" lon="14.045914"><ele>1018.0</ele><time>2026-04-26T10:34:51.953Z</time></trkpt><trkpt lat="41.7320819" lon="14.0461706"><ele>1018.0</ele><time>2026-04-26T10:34:52.952Z</time></trkpt><trkpt lat="41.7321425" lon="14.0464146"><ele>1018.0</ele><time>2026-04-26T10:34:53.946Z</time></trkpt><trkpt lat="41.7322173" lon="14.0466398"><ele>1018.0</ele><time>2026-04-26T10:34:54.944Z</time></trkpt><trkpt lat="41.7323142" lon="14.0468415"><ele>1019.0</ele><time>2026-04-26T10:34:55.948Z</time></trkpt><trkpt lat="41.7324285" lon="14.0470177"><ele>1020.0</ele><time>2026-04-26T10:34:56.946Z</time></trkpt><trkpt lat="41.7325476" lon="14.0471782"><ele>1021.0</ele><time>2026-04-26T10:34:57.94Z</time></trkpt><trkpt lat="41.7326462" lon="14.0473515"><ele>1023.0</ele><time>2026-04-26T10:34:58.947Z</time></trkpt><trkpt lat="41.7327169" lon="14.0475434"><ele>1025.0</ele><time>2026-04-26T10:34:59.948Z</time></trkpt><trkpt lat="41.7327709" lon="14.0477295"><ele>1027.0</ele><time>2026-04-26T10:35:00.941Z</time></trkpt><trkpt lat="41.7327579" lon="14.0479385"><ele>1027.0</ele><time>2026-04-26T10:35:01.948Z</time></trkpt><trkpt lat="41.7327219" lon="14.0481408"><ele>1027.0</ele><time>2026-04-26T10:35:02.947Z</time></trkpt><trkpt lat="41.7326913" lon="14.0483512"><ele>1027.0</ele><time>2026-04-26T10:35:03.951Z</time></trkpt><trkpt lat="41.7326772" lon="14.0485762"><ele>1027.0</ele><time>2026-04-26T10:35:04.945Z</time></trkpt><trkpt lat="41.7326822" lon="14.048818"><ele>1027.0</ele><time>2026-04-26T10:35:05.949Z</time></trkpt><trkpt lat="41.732698" lon="14.0490654"><ele>1027.0</ele><time>2026-04-26T10:35:06.945Z</time></trkpt><trkpt lat="41.7327215" lon="14.0493248"><ele>1017.6666666666666</ele><time>2026-04-26T10:35:07.939Z</time></trkpt><trkpt lat="41.7327531" lon="14.0495903"><ele>1008.3333333333333</ele><time>2026-04-26T10:35:08.945Z</time></trkpt><trkpt lat="41.732789" lon="14.0498653"><ele>999.0</ele><time>2026-04-26T10:35:09.945Z</time></trkpt><trkpt lat="41.7328275" lon="14.0501474"><ele>998.6666666666667</ele><time>2026-04-26T10:35:10.946Z</time></trkpt><trkpt lat="41.7328669" lon="14.0504365"><ele>998.3333333333334</ele><time>2026-04-26T10:35:11.945Z</time></trkpt><trkpt lat="41.7329078" lon="14.0507296"><ele>998.0</ele><time>2026-04-26T10:35:12.947Z</time></trkpt><trkpt lat="41.7329538" lon="14.0510242"><ele>999.5</ele><time>2026-04-26T10:35:13.943Z</time></trkpt><trkpt lat="41.7330043" lon="14.0513201"><ele>1001.0</ele><time>2026-04-26T10:35:14.942Z</time></trkpt><trkpt lat="41.7330635" lon="14.0516121"><ele>1002.3333333333334</ele><time>2026-04-26T10:35:15.939Z</time></trkpt><trkpt lat="41.7331315" lon="14.0518914"><ele>1003.6666666666667</ele><time>2026-04-26T10:35:16.952Z</time></trkpt><trkpt lat="41.7332045" lon="14.0521554"><ele>1005.0</ele><time>2026-04-26T10:35:17.947Z</time></trkpt><trkpt lat="41.7332734" lon="14.0524091"><ele>1006.0</ele><time>2026-04-26T10:35:18.946Z</time></trkpt><trkpt lat="41.7333335" lon="14.0526589"><ele>1007.0</ele><time>2026-04-26T10:35:19.949Z</time></trkpt><trkpt lat="41.7333858" lon="14.0529137"><ele>1008.0</ele><time>2026-04-26T10:35:20.958Z</time></trkpt><trkpt lat="41.7334243" lon="14.0531734"><ele>1008.0</ele><time>2026-04-26T10:35:21.944Z</time></trkpt><trkpt lat="41.7334499" lon="14.0534354"><ele>1008.0</ele><time>2026-04-26T10:35:22.949Z</time></trkpt><trkpt lat="41.7334669" lon="14.0536974"><ele>1008.0</ele><time>2026-04-26T10:35:23.969Z</time></trkpt><trkpt lat="41.7334816" lon="14.0539574"><ele>1008.0</ele><time>2026-04-26T10:35:24.968Z</time></trkpt><trkpt lat="41.7334994" lon="14.0542233"><ele>1008.0</ele><time>2026-04-26T10:35:25.959Z</time></trkpt><trkpt lat="41.7335014" lon="14.0544758"><ele>1008.0</ele><time>2026-04-26T10:35:26.963Z</time></trkpt><trkpt lat="41.7334743" lon="14.0547155"><ele>1008.0</ele><time>2026-04-26T10:35:27.951Z</time></trkpt><trkpt lat="41.7334222" lon="14.0549371"><ele>1008.0</ele><time>2026-04-26T10:35:28.951Z</time></trkpt><trkpt lat="41.7333329" lon="14.0551339"><ele>1008.0</ele><time>2026-04-26T10:35:29.967Z</time></trkpt><trkpt lat="41.7332228" lon="14.0553061"><ele>1006.25</ele><time>2026-04-26T10:35:30.954Z</time></trkpt><trkpt lat="41.7331118" lon="14.0554647"><ele>1004.5</ele><time>2026-04-26T10:35:31.942Z</time></trkpt><trkpt lat="41.733025" lon="14.0556123"><ele>1002.75</ele><time>2026-04-26T10:35:32.946Z</time></trkpt><trkpt lat="41.7329694" lon="14.055768"><ele>1001.0</ele><time>2026-04-26T10:35:33.964Z</time></trkpt><trkpt lat="41.732957" lon="14.0559286"><ele>999.25</ele><time>2026-04-26T10:35:34.951Z</time></trkpt><trkpt lat="41.7329814" lon="14.056078"><ele>997.5</ele><time>2026-04-26T10:35:35.952Z</time></trkpt><trkpt lat="41.7330242" lon="14.056218"><ele>995.75</ele><time>2026-04-26T10:35:36.955Z</time></trkpt><trkpt lat="41.7331159" lon="14.0563246"><ele>994.0</ele><time>2026-04-26T10:35:37.938Z</time></trkpt><trkpt lat="41.7332298" lon="14.0563835"><ele>994.0</ele><time>2026-04-26T10:35:38.956Z</time></trkpt><trkpt lat="41.7333501" lon="14.0563894"><ele>994.0</ele><time>2026-04-26T10:35:39.961Z</time></trkpt><trkpt lat="41.7334722" lon="14.0563479"><ele>994.0</ele><time>2026-04-26T10:35:40.939Z</time></trkpt><trkpt lat="41.7335761" lon="14.0562588"><ele>994.0</ele><time>2026-04-26T10:35:41.95Z</time></trkpt><trkpt lat="41.7336468" lon="14.056135"><ele>987.25</ele><time>2026-04-26T10:35:42.949Z</time></trkpt><trkpt lat="41.7336875" lon="14.0559805"><ele>980.5</ele><time>2026-04-26T10:35:43.948Z</time></trkpt><trkpt lat="41.7337122" lon="14.0558016"><ele>973.75</ele><time>2026-04-26T10:35:44.961Z</time></trkpt><trkpt lat="41.7337302" lon="14.0556011"><ele>967.0</ele><time>2026-04-26T10:35:45.953Z</time></trkpt><trkpt lat="41.7337539" lon="14.0553861"><ele>967.0</ele><time>2026-04-26T10:35:46.942Z</time></trkpt><trkpt lat="41.7337852" lon="14.0551584"><ele>967.0</ele><time>2026-04-26T10:35:47.96Z</time></trkpt><trkpt lat="41.7338256" lon="14.0549159"><ele>967.0</ele><time>2026-04-26T10:35:48.951Z</time></trkpt><trkpt lat="41.7338735" lon="14.0546597"><ele>969.3333333333333</ele><time>2026-04-26T10:35:49.944Z</time></trkpt><trkpt lat="41.7339313" lon="14.0543916"><ele>971.6666666666667</ele><time>2026-04-26T10:35:50.957Z</time></trkpt><trkpt lat="41.7339974" lon="14.0541113"><ele>974.0</ele><time>2026-04-26T10:35:51.963Z</time></trkpt><trkpt lat="41.7340714" lon="14.0538187"><ele>976.5</ele><time>2026-04-26T10:35:52.94Z</time></trkpt><trkpt lat="41.7341504" lon="14.0535131"><ele>979.0</ele><time>2026-04-26T10:35:53.956Z</time></trkpt><trkpt lat="41.7342304" lon="14.0531961"><ele>980.0</ele><time>2026-04-26T10:35:54.946Z</time></trkpt><trkpt lat="41.7343104" lon="14.0528693"><ele>981.0</ele><time>2026-04-26T10:35:55.944Z</time></trkpt><trkpt lat="41.7343927" lon="14.0525435"><ele>971.0</ele><time>2026-04-26T10:35:56.952Z</time></trkpt><trkpt lat="41.7344754" lon="14.0522258"><ele>961.0</ele><time>2026-04-26T10:35:57.948Z</time></trkpt><trkpt lat="41.7345566" lon="14.0519197"><ele>961.0</ele><time>2026-04-26T10:35:58.944Z</time></trkpt><trkpt lat="41.7346335" lon="14.0516312"><ele>961.0</ele><time>2026-04-26T10:35:59.947Z</time></trkpt><trkpt lat="41.7347011" lon="14.0513582"><ele>961.0</ele><time>2026-04-26T10:36:00.954Z</time></trkpt><trkpt lat="41.7347531" lon="14.0510896"><ele>961.3333333333333</ele><time>2026-04-26T10:36:01.951Z</time></trkpt><trkpt lat="41.7347779" lon="14.0508148"><ele>961.6666666666667</ele><time>2026-04-26T10:36:02.952Z</time></trkpt><trkpt lat="41.7347803" lon="14.0505343"><ele>962.0</ele><time>2026-04-26T10:36:03.981Z</time></trkpt><trkpt lat="41.7347774" lon="14.0502533"><ele>962.0</ele><time>2026-04-26T10:36:04.949Z</time></trkpt><trkpt lat="41.7347761" lon="14.0499724"><ele>962.0</ele><time>2026-04-26T10:36:05.942Z</time></trkpt><trkpt lat="41.7347744" lon="14.0497088"><ele>962.0</ele><time>2026-04-26T10:36:06.947Z</time></trkpt><trkpt lat="41.7347701" lon="14.0494622"><ele>960.3333333333334</ele><time>2026-04-26T10:36:07.954Z</time></trkpt><trkpt lat="41.734754" lon="14.049231"><ele>958.6666666666667</ele><time>2026-04-26T10:36:08.951Z</time></trkpt><trkpt lat="41.7346845" lon="14.049014"><ele>957.0</ele><time>2026-04-26T10:36:09.942Z</time></trkpt><trkpt lat="41.7345852" lon="14.0488157"><ele>957.3333333333333</ele><time>2026-04-26T10:36:10.953Z</time></trkpt><trkpt lat="41.7344811" lon="14.0486337"><ele>957.6666666666666</ele><time>2026-04-26T10:36:11.953Z</time></trkpt><trkpt lat="41.7343867" lon="14.0484605"><ele>958.0</ele><time>2026-04-26T10:36:12.945Z</time></trkpt><trkpt lat="41.7343165" lon="14.0482895"><ele>958.0</ele><time>2026-04-26T10:36:13.955Z</time></trkpt><trkpt lat="41.7342716" lon="14.0480997"><ele>958.0</ele><time>2026-04-26T10:36:14.948Z</time></trkpt><trkpt lat="41.734246" lon="14.0478959"><ele>958.0</ele><time>2026-04-26T10:36:15.942Z</time></trkpt><trkpt lat="41.7342353" lon="14.0476698"><ele>957.6666666666666</ele><time>2026-04-26T10:36:16.942Z</time></trkpt><trkpt lat="41.7342311" lon="14.0474274"><ele>957.3333333333333</ele><time>2026-04-26T10:36:17.947Z</time></trkpt><trkpt lat="41.7342288" lon="14.0471808"><ele>957.0</ele><time>2026-04-26T10:36:18.944Z</time></trkpt><trkpt lat="41.7342301" lon="14.0469309"><ele>957.0</ele><time>2026-04-26T10:36:19.943Z</time></trkpt><trkpt lat="41.7342447" lon="14.0466937"><ele>957.0</ele><time>2026-04-26T10:36:20.957Z</time></trkpt><trkpt lat="41.7342847" lon="14.0464639"><ele>957.0</ele><time>2026-04-26T10:36:21.949Z</time></trkpt><trkpt lat="41.7343498" lon="14.046244"><ele>948.3333333333333</ele><time>2026-04-26T10:36:22.948Z</time></trkpt><trkpt lat="41.7344201" lon="14.0460378"><ele>939.6666666666666</ele><time>2026-04-26T10:36:23.949Z</time></trkpt><trkpt lat="41.7344859" lon="14.0458405"><ele>931.0</ele><time>2026-04-26T10:36:24.96Z</time></trkpt><trkpt lat="41.7344878" lon="14.04565"><ele>930.5</ele><time>2026-04-26T10:36:25.946Z</time></trkpt><trkpt lat="41.7344652" lon="14.0454591"><ele>930.0</ele><time>2026-04-26T10:36:26.957Z</time></trkpt><trkpt lat="41.7344171" lon="14.0452743"><ele>929.5</ele><time>2026-04-26T10:36:27.956Z</time></trkpt><trkpt lat="41.7343563" lon="14.0450896"><ele>929.0</ele><time>2026-04-26T10:36:28.945Z</time></trkpt><trkpt lat="41.734287" lon="14.0448964"><ele>933.6666666666667</ele><time>2026-04-26T10:36:29.952Z</time></trkpt><trkpt lat="41.7342204" lon="14.0446915"><ele>938.3333333333333</ele><time>2026-04-26T10:36:30.96Z</time></trkpt><trkpt lat="41.7341626" lon="14.044481"><ele>943.0</ele><time>2026-04-26T10:36:31.945Z</time></trkpt><trkpt lat="41.7341139" lon="14.044259"><ele>940.6666666666666</ele><time>2026-04-26T10:36:32.955Z</time></trkpt><trkpt lat="41.7340714" lon="14.0440264"><ele>938.3333333333333</ele><time>2026-04-26T10:36:33.955Z</time></trkpt><trkpt lat="41.7340252" lon="14.0437818"><ele>936.0</ele><time>2026-04-26T10:36:34.947Z</time></trkpt><trkpt lat="41.7339799" lon="14.0435231"><ele>934.0</ele><time>2026-04-26T10:36:35.946Z</time></trkpt><trkpt lat="41.7339313" lon="14.0432559"><ele>932.0</ele><time>2026-04-26T10:36:36.953Z</time></trkpt><trkpt lat="41.7338837" lon="14.042985"><ele>930.0</ele><time>2026-04-26T10:36:37.956Z</time></trkpt><trkpt lat="41.7338335" lon="14.0427105"><ele>927.3333333333333</ele><time>2026-04-26T10:36:38.959Z</time></trkpt><trkpt lat="41.7337809" lon="14.0424354"><ele>924.6666666666666</ele><time>2026-04-26T10:36:39.96Z</time></trkpt><trkpt lat="41.7337287" lon="14.042169"><ele>922.0</ele><time>2026-04-26T10:36:40.951Z</time></trkpt><trkpt lat="41.7336752" lon="14.0418871"><ele>920.6666666666666</ele><time>2026-04-26T10:36:41.944Z</time></trkpt><trkpt lat="41.7336228" lon="14.0416046"><ele>919.3333333333333</ele><time>2026-04-26T10:36:42.948Z</time></trkpt><trkpt lat="41.733569" lon="14.0413284"><ele>918.0</ele><time>2026-04-26T10:36:43.949Z</time></trkpt><trkpt lat="41.7335286" lon="14.0410436"><ele>924.3333333333333</ele><time>2026-04-26T10:36:44.957Z</time></trkpt><trkpt lat="41.7334967" lon="14.0407778"><ele>930.6666666666666</ele><time>2026-04-26T10:36:45.952Z</time></trkpt><trkpt lat="41.7334895" lon="14.0405067"><ele>937.0</ele><time>2026-04-26T10:36:46.956Z</time></trkpt><trkpt lat="41.7335073" lon="14.0402326"><ele>936.6666666666666</ele><time>2026-04-26T10:36:47.954Z</time></trkpt><trkpt lat="41.7335341" lon="14.0399591"><ele>936.3333333333333</ele><time>2026-04-26T10:36:48.941Z</time></trkpt><trkpt lat="41.733556" lon="14.0396917"><ele>936.0</ele><time>2026-04-26T10:36:49.951Z</time></trkpt><trkpt lat="41.7335782" lon="14.0394213"><ele>928.6666666666667</ele><time>2026-04-26T10:36:50.955Z</time></trkpt><trkpt lat="41.7336041" lon="14.0391525"><ele>921.3333333333334</ele><time>2026-04-26T10:36:51.943Z</time></trkpt><trkpt lat="41.7336296" lon="14.0388928"><ele>914.0</ele><time>2026-04-26T10:36:52.955Z</time></trkpt><trkpt lat="41.7336479" lon="14.0386408"><ele>914.0</ele><time>2026-04-26T10:36:53.945Z</time></trkpt><trkpt lat="41.733665" lon="14.0383937"><ele>914.0</ele><time>2026-04-26T10:36:54.952Z</time></trkpt><trkpt lat="41.7336835" lon="14.0381521"><ele>914.0</ele><time>2026-04-26T10:36:55.95Z</time></trkpt><trkpt lat="41.7337054" lon="14.0379159"><ele>913.0</ele><time>2026-04-26T10:36:56.952Z</time></trkpt><trkpt lat="41.7337262" lon="14.0376868"><ele>912.0</ele><time>2026-04-26T10:36:57.942Z</time></trkpt><trkpt lat="41.7337363" lon="14.0374642"><ele>911.0</ele><time>2026-04-26T10:36:58.944Z</time></trkpt><trkpt lat="41.7337235" lon="14.037257"><ele>911.25</ele><time>2026-04-26T10:36:59.953Z</time></trkpt><trkpt lat="41.7336799" lon="14.037066"><ele>911.5</ele><time>2026-04-26T10:37:00.946Z</time></trkpt><trkpt lat="41.7336095" lon="14.0369003"><ele>911.75</ele><time>2026-04-26T10:37:01.95Z</time></trkpt><trkpt lat="41.7335267" lon="14.0367551"><ele>912.0</ele><time>2026-04-26T10:37:02.944Z</time></trkpt><trkpt lat="41.7334359" lon="14.0366186"><ele>912.0</ele><time>2026-04-26T10:37:03.947Z</time></trkpt><trkpt lat="41.733352" lon="14.0364838"><ele>912.0</ele><time>2026-04-26T10:37:04.96Z</time></trkpt><trkpt lat="41.733266" lon="14.0363494"><ele>912.0</ele><time>2026-04-26T10:37:05.947Z</time></trkpt><trkpt lat="41.7331832" lon="14.0362038"><ele>912.0</ele><time>2026-04-26T10:37:06.955Z</time></trkpt><trkpt lat="41.7330924" lon="14.0360619"><ele>912.0</ele><time>2026-04-26T10:37:07.939Z</time></trkpt><trkpt lat="41.7330035" lon="14.0359204"><ele>912.0</ele><time>2026-04-26T10:37:08.94Z</time></trkpt><trkpt lat="41.7329104" lon="14.0357734"><ele>912.0</ele><time>2026-04-26T10:37:09.943Z</time></trkpt><trkpt lat="41.7328162" lon="14.0356223"><ele>912.0</ele><time>2026-04-26T10:37:10.944Z</time></trkpt><trkpt lat="41.7327211" lon="14.0354665"><ele>912.75</ele><time>2026-04-26T10:37:11.948Z</time></trkpt><trkpt lat="41.7326335" lon="14.0353026"><ele>913.5</ele><time>2026-04-26T10:37:12.96Z</time></trkpt><trkpt lat="41.7325645" lon="14.0351263"><ele>914.25</ele><time>2026-04-26T10:37:13.95Z</time></trkpt><trkpt lat="41.7325131" lon="14.0349413"><ele>915.0</ele><time>2026-04-26T10:37:14.942Z</time></trkpt><trkpt lat="41.732467" lon="14.0347683"><ele>915.25</ele><time>2026-04-26T10:37:15.944Z</time></trkpt><trkpt lat="41.7324495" lon="14.0345824"><ele>915.5</ele><time>2026-04-26T10:37:16.951Z</time></trkpt><trkpt lat="41.7324505" lon="14.0344091"><ele>915.75</ele><time>2026-04-26T10:37:17.946Z</time></trkpt><trkpt lat="41.7324708" lon="14.0342502"><ele>916.0</ele><time>2026-04-26T10:37:18.954Z</time></trkpt><trkpt lat="41.7325109" lon="14.0341119"><ele>916.0</ele><time>2026-04-26T10:37:19.955Z</time></trkpt><trkpt lat="41.7325732" lon="14.0340077"><ele>915.9999999999999</ele><time>2026-04-26T10:37:20.948Z</time></trkpt><trkpt lat="41.7326565" lon="14.0339343"><ele>915.9999999999999</ele><time>2026-04-26T10:37:21.963Z</time></trkpt><trkpt lat="41.7327529" lon="14.0338973"><ele>916.0</ele><time>2026-04-26T10:37:22.947Z</time></trkpt><trkpt lat="41.7328589" lon="14.0338982"><ele>916.0</ele><time>2026-04-26T10:37:23.94Z</time></trkpt><trkpt lat="41.7329635" lon="14.0339359"><ele>916.0</ele><time>2026-04-26T10:37:24.949Z</time></trkpt><trkpt lat="41.7330641" lon="14.0339981"><ele>915.9999999999999</ele><time>2026-04-26T10:37:25.954Z</time></trkpt><trkpt lat="41.7331568" lon="14.0340699"><ele>915.9999999999999</ele><time>2026-04-26T10:37:26.953Z</time></trkpt><trkpt lat="41.7332432" lon="14.0341374"><ele>916.0</ele><time>2026-04-26T10:37:27.95Z</time></trkpt><trkpt lat="41.7333268" lon="14.0342007"><ele>916.0</ele><time>2026-04-26T10:37:28.954Z</time></trkpt><trkpt lat="41.7334054" lon="14.0342621"><ele>914.9999999999999</ele><time>2026-04-26T10:37:29.948Z</time></trkpt><trkpt lat="41.7334781" lon="14.0343181"><ele>914.0</ele><time>2026-04-26T10:37:30.943Z</time></trkpt><trkpt lat="41.7335347" lon="14.0343704"><ele>913.0</ele><time>2026-04-26T10:37:31.942Z</time></trkpt><trkpt lat="41.7336216" lon="14.0344294"><ele>912.0</ele><time>2026-04-26T10:37:33.943Z</time></trkpt><trkpt lat="41.7336986" lon="14.0344514"><ele>910.9999999999999</ele><time>2026-04-26T10:37:38.945Z</time></trkpt><trkpt lat="41.733751" lon="14.0343979"><ele>910.0</ele><time>2026-04-26T10:37:40.959Z</time></trkpt><trkpt lat="41.7338097" lon="14.0342882"><ele>909.8</ele><time>2026-04-26T10:37:42.954Z</time></trkpt><trkpt lat="41.7338518" lon="14.0342231"><ele>909.6</ele><time>2026-04-26T10:37:43.945Z</time></trkpt><trkpt lat="41.7339356" lon="14.0341051"><ele>909.4000000000001</ele><time>2026-04-26T10:37:45.952Z</time></trkpt><trkpt lat="41.734009" lon="14.0339749"><ele>909.2</ele><time>2026-04-26T10:37:47.939Z</time></trkpt><trkpt lat="41.7340746" lon="14.033857"><ele>909.0</ele><time>2026-04-26T10:37:49.95Z</time></trkpt><trkpt lat="41.7341471" lon="14.0337377"><ele>909.0</ele><time>2026-04-26T10:37:51.95Z</time></trkpt><trkpt lat="41.7342203" lon="14.0336085"><ele>909.0000000000001</ele><time>2026-04-26T10:37:53.944Z</time></trkpt><trkpt lat="41.7342991" lon="14.033488"><ele>909.0000000000001</ele><time>2026-04-26T10:37:55.947Z</time></trkpt><trkpt lat="41.7343671" lon="14.0333759"><ele>909.0</ele><time>2026-04-26T10:37:57.944Z</time></trkpt><trkpt lat="41.7344325" lon="14.0332774"><ele>909.0</ele><time>2026-04-26T10:37:59.952Z</time></trkpt><trkpt lat="41.7344957" lon="14.0331928"><ele>909.2</ele><time>2026-04-26T10:38:01.942Z</time></trkpt><trkpt lat="41.7345123" lon="14.0330914"><ele>909.4000000000001</ele><time>2026-04-26T10:38:03.952Z</time></trkpt><trkpt lat="41.7344769" lon="14.0329946"><ele>909.6</ele><time>2026-04-26T10:38:05.954Z</time></trkpt><trkpt lat="41.7344058" lon="14.032884"><ele>909.8</ele><time>2026-04-26T10:38:07.945Z</time></trkpt><trkpt lat="41.7343518" lon="14.0327691"><ele>910.0</ele><time>2026-04-26T10:38:09.949Z</time></trkpt><trkpt lat="41.7343247" lon="14.0326178"><ele>910.0</ele><time>2026-04-26T10:38:11.944Z</time></trkpt><trkpt lat="41.7343113" lon="14.0324823"><ele>910.0</ele><time>2026-04-26T10:38:13.946Z</time></trkpt><trkpt lat="41.7342797" lon="14.0323576"><ele>910.0</ele><time>2026-04-26T10:38:15.95Z</time></trkpt><trkpt lat="41.7342383" lon="14.0322525"><ele>910.0</ele><time>2026-04-26T10:38:17.95Z</time></trkpt><trkpt lat="41.734191" lon="14.0321561"><ele>910.0</ele><time>2026-04-26T10:38:20.956Z</time></trkpt><trkpt lat="41.7341408" lon="14.0320566"><ele>910.4</ele><time>2026-04-26T10:38:23.946Z</time></trkpt><trkpt lat="41.7340845" lon="14.0319552"><ele>910.8</ele><time>2026-04-26T10:38:25.94Z</time></trkpt><trkpt lat="41.7340268" lon="14.0318515"><ele>911.2</ele><time>2026-04-26T10:38:27.954Z</time></trkpt><trkpt lat="41.7339683" lon="14.031739"><ele>911.6</ele><time>2026-04-26T10:38:29.948Z</time></trkpt><trkpt lat="41.7339148" lon="14.0316007"><ele>912.0</ele><time>2026-04-26T10:38:31.94Z</time></trkpt><trkpt lat="41.7338514" lon="14.0314525"><ele>912.0</ele><time>2026-04-26T10:38:33.958Z</time></trkpt><trkpt lat="41.7338126" lon="14.031378"><ele>911.9999999999999</ele><time>2026-04-26T10:38:34.944Z</time></trkpt><trkpt lat="41.7337701" lon="14.0313029"><ele>912.0</ele><time>2026-04-26T10:38:35.942Z</time></trkpt><trkpt lat="41.7337243" lon="14.0312263"><ele>912.0</ele><time>2026-04-26T10:38:36.946Z</time></trkpt><trkpt lat="41.7336737" lon="14.0311464"><ele>911.9999999999999</ele><time>2026-04-26T10:38:37.945Z</time></trkpt><trkpt lat="41.733616" lon="14.0310743"><ele>912.0</ele><time>2026-04-26T10:38:38.956Z</time></trkpt><trkpt lat="41.7335469" lon="14.0310247"><ele>912.0</ele><time>2026-04-26T10:38:39.946Z</time></trkpt><trkpt lat="41.7334712" lon="14.0309933"><ele>912.6666666666666</ele><time>2026-04-26T10:38:40.944Z</time></trkpt><trkpt lat="41.7333898" lon="14.0309753"><ele>913.3333333333333</ele><time>2026-04-26T10:38:41.954Z</time></trkpt><trkpt lat="41.7333062" lon="14.030962"><ele>914.0</ele><time>2026-04-26T10:38:42.957Z</time></trkpt><trkpt lat="41.7332192" lon="14.0309537"><ele>914.6666666666666</ele><time>2026-04-26T10:38:43.945Z</time></trkpt><trkpt lat="41.7331312" lon="14.0309464"><ele>915.3333333333333</ele><time>2026-04-26T10:38:44.948Z</time></trkpt><trkpt lat="41.7330416" lon="14.030935"><ele>916.0</ele><time>2026-04-26T10:38:45.953Z</time></trkpt><trkpt lat="41.7329505" lon="14.0309119"><ele>916.0</ele><time>2026-04-26T10:38:46.952Z</time></trkpt><trkpt lat="41.7328595" lon="14.0308719"><ele>915.9999999999999</ele><time>2026-04-26T10:38:47.945Z</time></trkpt><trkpt lat="41.7327686" lon="14.0308213"><ele>915.9999999999999</ele><time>2026-04-26T10:38:48.946Z</time></trkpt><trkpt lat="41.7326738" lon="14.0307638"><ele>916.0</ele><time>2026-04-26T10:38:49.955Z</time></trkpt><trkpt lat="41.7325774" lon="14.0307019"><ele>916.0</ele><time>2026-04-26T10:38:50.953Z</time></trkpt><trkpt lat="41.7324781" lon="14.0306394"><ele>917.5999999999999</ele><time>2026-04-26T10:38:51.944Z</time></trkpt><trkpt lat="41.7323759" lon="14.0305764"><ele>919.1999999999999</ele><time>2026-04-26T10:38:52.945Z</time></trkpt><trkpt lat="41.7322702" lon="14.0305177"><ele>920.8000000000001</ele><time>2026-04-26T10:38:53.952Z</time></trkpt><trkpt lat="41.7321746" lon="14.0304437"><ele>922.4000000000001</ele><time>2026-04-26T10:38:54.94Z</time></trkpt><trkpt lat="41.73208" lon="14.0303677"><ele>924.0</ele><time>2026-04-26T10:38:55.942Z</time></trkpt><trkpt lat="41.7320001" lon="14.0302778"><ele>924.0</ele><time>2026-04-26T10:38:56.956Z</time></trkpt><trkpt lat="41.7319387" lon="14.0301694"><ele>924.0000000000001</ele><time>2026-04-26T10:38:57.942Z</time></trkpt><trkpt lat="41.7318867" lon="14.0300468"><ele>924.0000000000001</ele><time>2026-04-26T10:38:58.946Z</time></trkpt><trkpt lat="41.7318384" lon="14.0299156"><ele>924.0</ele><time>2026-04-26T10:38:59.95Z</time></trkpt><trkpt lat="41.7317873" lon="14.0297821"><ele>924.0</ele><time>2026-04-26T10:39:00.948Z</time></trkpt><trkpt lat="41.7317332" lon="14.0296517"><ele>923.25</ele><time>2026-04-26T10:39:01.945Z</time></trkpt><trkpt lat="41.7316833" lon="14.0295182"><ele>922.5</ele><time>2026-04-26T10:39:02.953Z</time></trkpt><trkpt lat="41.7316311" lon="14.0293862"><ele>921.75</ele><time>2026-04-26T10:39:03.954Z</time></trkpt><trkpt lat="41.7315662" lon="14.0292614"><ele>921.0</ele><time>2026-04-26T10:39:04.949Z</time></trkpt><trkpt lat="41.7314916" lon="14.029145"><ele>922.1999999999999</ele><time>2026-04-26T10:39:05.949Z</time></trkpt><trkpt lat="41.7314076" lon="14.029038"><ele>923.3999999999999</ele><time>2026-04-26T10:39:06.942Z</time></trkpt><trkpt lat="41.7313229" lon="14.0289394"><ele>924.6</ele><time>2026-04-26T10:39:07.966Z</time></trkpt><trkpt lat="41.7312453" lon="14.0288437"><ele>925.8</ele><time>2026-04-26T10:39:08.958Z</time></trkpt><trkpt lat="41.7311778" lon="14.0287543"><ele>927.0</ele><time>2026-04-26T10:39:09.949Z</time></trkpt><trkpt lat="41.7311217" lon="14.0286675"><ele>927.0</ele><time>2026-04-26T10:39:10.948Z</time></trkpt><trkpt lat="41.7310782" lon="14.0285718"><ele>927.0</ele><time>2026-04-26T10:39:11.952Z</time></trkpt><trkpt lat="41.731051" lon="14.0284642"><ele>927.0</ele><time>2026-04-26T10:39:12.945Z</time></trkpt><trkpt lat="41.7310404" lon="14.028351"><ele>927.0</ele><time>2026-04-26T10:39:13.955Z</time></trkpt><trkpt lat="41.7310455" lon="14.0282322"><ele>927.0</ele><time>2026-04-26T10:39:14.956Z</time></trkpt><trkpt lat="41.7310724" lon="14.0281045"><ele>927.0</ele><time>2026-04-26T10:39:15.941Z</time></trkpt><trkpt lat="41.73112" lon="14.0279698"><ele>927.5</ele><time>2026-04-26T10:39:16.962Z</time></trkpt><trkpt lat="41.7311799" lon="14.0278251"><ele>928.0</ele><time>2026-04-26T10:39:17.964Z</time></trkpt><trkpt lat="41.7312456" lon="14.0276738"><ele>928.5</ele><time>2026-04-26T10:39:18.955Z</time></trkpt><trkpt lat="41.7313141" lon="14.0275223"><ele>929.0</ele><time>2026-04-26T10:39:19.956Z</time></trkpt><trkpt lat="41.7313813" lon="14.0273853"><ele>929.8000000000001</ele><time>2026-04-26T10:39:20.953Z</time></trkpt><trkpt lat="41.7314437" lon="14.0272602"><ele>930.6000000000001</ele><time>2026-04-26T10:39:21.947Z</time></trkpt><trkpt lat="41.7315032" lon="14.0271408"><ele>931.4</ele><time>2026-04-26T10:39:22.972Z</time></trkpt><trkpt lat="41.7315662" lon="14.0270273"><ele>932.2</ele><time>2026-04-26T10:39:23.958Z</time></trkpt><trkpt lat="41.7316328" lon="14.0269264"><ele>933.0</ele><time>2026-04-26T10:39:24.943Z</time></trkpt><trkpt lat="41.7316984" lon="14.0268285"><ele>933.0</ele><time>2026-04-26T10:39:25.964Z</time></trkpt><trkpt lat="41.7317876" lon="14.0267717"><ele>933.0</ele><time>2026-04-26T10:39:26.957Z</time></trkpt><trkpt lat="41.7318855" lon="14.0267348"><ele>933.0</ele><time>2026-04-26T10:39:27.947Z</time></trkpt><trkpt lat="41.7319912" lon="14.0267148"><ele>933.0</ele><time>2026-04-26T10:39:28.95Z</time></trkpt><trkpt lat="41.7321003" lon="14.0267198"><ele>933.0</ele><time>2026-04-26T10:39:29.963Z</time></trkpt><trkpt lat="41.7322152" lon="14.0267443"><ele>932.75</ele><time>2026-04-26T10:39:30.947Z</time></trkpt><trkpt lat="41.7323313" lon="14.0267842"><ele>932.5</ele><time>2026-04-26T10:39:31.957Z</time></trkpt><trkpt lat="41.7324539" lon="14.0268347"><ele>932.25</ele><time>2026-04-26T10:39:32.948Z</time></trkpt><trkpt lat="41.7325817" lon="14.0268915"><ele>932.0</ele><time>2026-04-26T10:39:33.944Z</time></trkpt><trkpt lat="41.7327187" lon="14.0269459"><ele>932.25</ele><time>2026-04-26T10:39:34.949Z</time></trkpt><trkpt lat="41.7328605" lon="14.0269928"><ele>932.5</ele><time>2026-04-26T10:39:35.954Z</time></trkpt><trkpt lat="41.7329954" lon="14.0270259"><ele>932.75</ele><time>2026-04-26T10:39:36.94Z</time></trkpt><trkpt lat="41.7331239" lon="14.0270319"><ele>933.0</ele><time>2026-04-26T10:39:37.955Z</time></trkpt><trkpt lat="41.7332509" lon="14.0269965"><ele>933.0</ele><time>2026-04-26T10:39:38.96Z</time></trkpt><trkpt lat="41.7333657" lon="14.0269129"><ele>933.0</ele><time>2026-04-26T10:39:39.948Z</time></trkpt><trkpt lat="41.7334689" lon="14.0267944"><ele>933.0</ele><time>2026-04-26T10:39:40.939Z</time></trkpt><trkpt lat="41.7335693" lon="14.0266611"><ele>933.0</ele><time>2026-04-26T10:39:41.957Z</time></trkpt><trkpt lat="41.7336719" lon="14.0265241"><ele>935.5</ele><time>2026-04-26T10:39:42.959Z</time></trkpt><trkpt lat="41.7337759" lon="14.0263835"><ele>938.0</ele><time>2026-04-26T10:39:43.948Z</time></trkpt><trkpt lat="41.7338786" lon="14.026251"><ele>940.5</ele><time>2026-04-26T10:39:44.956Z</time></trkpt><trkpt lat="41.7339809" lon="14.0261332"><ele>943.0</ele><time>2026-04-26T10:39:45.96Z</time></trkpt><trkpt lat="41.7340858" lon="14.0260331"><ele>943.0</ele><time>2026-04-26T10:39:46.941Z</time></trkpt><trkpt lat="41.7341947" lon="14.0259552"><ele>943.0</ele><time>2026-04-26T10:39:47.946Z</time></trkpt><trkpt lat="41.7343196" lon="14.025894"><ele>943.0</ele><time>2026-04-26T10:39:48.955Z</time></trkpt><trkpt lat="41.73446" lon="14.0258504"><ele>943.0</ele><time>2026-04-26T10:39:49.943Z</time></trkpt><trkpt lat="41.734611" lon="14.0258152"><ele>948.3333333333333</ele><time>2026-04-26T10:39:50.95Z</time></trkpt><trkpt lat="41.7347623" lon="14.0257706"><ele>953.6666666666667</ele><time>2026-04-26T10:39:51.941Z</time></trkpt><trkpt lat="41.7349086" lon="14.0257141"><ele>959.0</ele><time>2026-04-26T10:39:52.957Z</time></trkpt><trkpt lat="41.7350476" lon="14.0256529"><ele>959.0</ele><time>2026-04-26T10:39:53.95Z</time></trkpt><trkpt lat="41.7351826" lon="14.0255968"><ele>959.0</ele><time>2026-04-26T10:39:54.943Z</time></trkpt><trkpt lat="41.7353121" lon="14.025554"><ele>959.0</ele><time>2026-04-26T10:39:55.948Z</time></trkpt><trkpt lat="41.7354389" lon="14.0255295"><ele>959.0</ele><time>2026-04-26T10:39:56.95Z</time></trkpt><trkpt lat="41.7355622" lon="14.0255245"><ele>958.75</ele><time>2026-04-26T10:39:57.94Z</time></trkpt><trkpt lat="41.7356839" lon="14.0255411"><ele>958.5</ele><time>2026-04-26T10:39:58.952Z</time></trkpt><trkpt lat="41.7358044" lon="14.0255773"><ele>958.25</ele><time>2026-04-26T10:39:59.953Z</time></trkpt><trkpt lat="41.7359255" lon="14.0256215"><ele>958.0</ele><time>2026-04-26T10:40:00.947Z</time></trkpt><trkpt lat="41.7360472" lon="14.0256621"><ele>958.5</ele><time>2026-04-26T10:40:01.956Z</time></trkpt><trkpt lat="41.7361692" lon="14.0256984"><ele>959.0</ele><time>2026-04-26T10:40:02.953Z</time></trkpt><trkpt lat="41.7362913" lon="14.0257274"><ele>959.5</ele><time>2026-04-26T10:40:03.944Z</time></trkpt><trkpt lat="41.7364117" lon="14.0257407"><ele>960.0</ele><time>2026-04-26T10:40:04.944Z</time></trkpt><trkpt lat="41.7365312" lon="14.0257316"><ele>960.0</ele><time>2026-04-26T10:40:05.951Z</time></trkpt><trkpt lat="41.7366485" lon="14.0257048"><ele>960.0</ele><time>2026-04-26T10:40:06.939Z</time></trkpt><trkpt lat="41.7367654" lon="14.0256668"><ele>960.0</ele><time>2026-04-26T10:40:07.96Z</time></trkpt><trkpt lat="41.7368805" lon="14.0256212"><ele>960.0</ele><time>2026-04-26T10:40:08.958Z</time></trkpt><trkpt lat="41.7369942" lon="14.02557"><ele>958.5</ele><time>2026-04-26T10:40:09.944Z</time></trkpt><trkpt lat="41.7371071" lon="14.0255131"><ele>957.0</ele><time>2026-04-26T10:40:10.951Z</time></trkpt><trkpt lat="41.7372176" lon="14.025451"><ele>955.5</ele><time>2026-04-26T10:40:11.965Z</time></trkpt><trkpt lat="41.7373188" lon="14.0253722"><ele>954.0</ele><time>2026-04-26T10:40:12.951Z</time></trkpt><trkpt lat="41.7374062" lon="14.0252709"><ele>954.0</ele><time>2026-04-26T10:40:13.943Z</time></trkpt><trkpt lat="41.7374773" lon="14.0251549"><ele>954.0000000000001</ele><time>2026-04-26T10:40:14.952Z</time></trkpt><trkpt lat="41.7375293" lon="14.0250267"><ele>954.0000000000001</ele><time>2026-04-26T10:40:15.955Z</time></trkpt><trkpt lat="41.7375517" lon="14.0248907"><ele>954.0</ele><time>2026-04-26T10:40:16.942Z</time></trkpt><trkpt lat="41.7375361" lon="14.0247581"><ele>954.0</ele><time>2026-04-26T10:40:17.951Z</time></trkpt><trkpt lat="41.7375096" lon="14.0246261"><ele>957.75</ele><time>2026-04-26T10:40:18.954Z</time></trkpt><trkpt lat="41.7374276" lon="14.0245205"><ele>961.5</ele><time>2026-04-26T10:40:19.942Z</time></trkpt><trkpt lat="41.7373367" lon="14.0244304"><ele>965.25</ele><time>2026-04-26T10:40:20.952Z</time></trkpt><trkpt lat="41.7372361" lon="14.0243558"><ele>969.0</ele><time>2026-04-26T10:40:21.956Z</time></trkpt><trkpt lat="41.737126" lon="14.0243214"><ele>969.0</ele><time>2026-04-26T10:40:22.949Z</time></trkpt><trkpt lat="41.7370107" lon="14.0243391"><ele>969.0</ele><time>2026-04-26T10:40:23.956Z</time></trkpt><trkpt lat="41.7368874" lon="14.0243695"><ele>969.0</ele><time>2026-04-26T10:40:24.947Z</time></trkpt><trkpt lat="41.7367599" lon="14.0244422"><ele>969.0</ele><time>2026-04-26T10:40:25.942Z</time></trkpt><trkpt lat="41.7366285" lon="14.0245076"><ele>968.5</ele><time>2026-04-26T10:40:26.945Z</time></trkpt><trkpt lat="41.7365072" lon="14.024577"><ele>968.0</ele><time>2026-04-26T10:40:27.953Z</time></trkpt><trkpt lat="41.7363817" lon="14.0246386"><ele>967.5</ele><time>2026-04-26T10:40:28.951Z</time></trkpt><trkpt lat="41.7362546" lon="14.0246888"><ele>967.0</ele><time>2026-04-26T10:40:29.944Z</time></trkpt><trkpt lat="41.7361229" lon="14.024721"><ele>968.6666666666666</ele><time>2026-04-26T10:40:30.945Z</time></trkpt><trkpt lat="41.7359638" lon="14.0247546"><ele>970.3333333333333</ele><time>2026-04-26T10:40:31.948Z</time></trkpt><trkpt lat="41.7357695" lon="14.0247674"><ele>972.0</ele><time>2026-04-26T10:40:32.947Z</time></trkpt><trkpt lat="41.7355418" lon="14.0247661"><ele>972.0</ele><time>2026-04-26T10:40:33.947Z</time></trkpt><trkpt lat="41.7352986" lon="14.0247555"><ele>972.0</ele><time>2026-04-26T10:40:34.958Z</time></trkpt><trkpt lat="41.7350649" lon="14.0247332"><ele>973.6666666666667</ele><time>2026-04-26T10:40:35.949Z</time></trkpt><trkpt lat="41.7348407" lon="14.0247051"><ele>975.3333333333334</ele><time>2026-04-26T10:40:36.949Z</time></trkpt><trkpt lat="41.7346517" lon="14.0246956"><ele>977.0</ele><time>2026-04-26T10:40:37.943Z</time></trkpt><trkpt lat="41.7344718" lon="14.0246976"><ele>974.6666666666667</ele><time>2026-04-26T10:40:38.953Z</time></trkpt><trkpt lat="41.7343277" lon="14.0247787"><ele>972.3333333333333</ele><time>2026-04-26T10:40:39.949Z</time></trkpt><trkpt lat="41.7341961" lon="14.0248936"><ele>970.0</ele><time>2026-04-26T10:40:40.948Z</time></trkpt><trkpt lat="41.7340803" lon="14.0250194"><ele>970.0</ele><time>2026-04-26T10:40:41.954Z</time></trkpt><trkpt lat="41.733971" lon="14.0251436"><ele>970.0</ele><time>2026-04-26T10:40:42.956Z</time></trkpt><trkpt lat="41.7338652" lon="14.0252512"><ele>970.0</ele><time>2026-04-26T10:40:43.955Z</time></trkpt><trkpt lat="41.7337521" lon="14.0253005"><ele>970.0</ele><time>2026-04-26T10:40:44.947Z</time></trkpt><trkpt lat="41.7336279" lon="14.025287"><ele>971.5</ele><time>2026-04-26T10:40:45.959Z</time></trkpt><trkpt lat="41.7335029" lon="14.0252389"><ele>973.0</ele><time>2026-04-26T10:40:46.951Z</time></trkpt><trkpt lat="41.7333947" lon="14.0251617"><ele>974.5</ele><time>2026-04-26T10:40:47.944Z</time></trkpt><trkpt lat="41.7333172" lon="14.0250489"><ele>976.0</ele><time>2026-04-26T10:40:48.948Z</time></trkpt><trkpt lat="41.7332603" lon="14.0249044"><ele>980.0</ele><time>2026-04-26T10:40:49.957Z</time></trkpt><trkpt lat="41.733209" lon="14.0247472"><ele>984.0</ele><time>2026-04-26T10:40:50.947Z</time></trkpt><trkpt lat="41.7331736" lon="14.0245773"><ele>988.0</ele><time>2026-04-26T10:40:51.948Z</time></trkpt><trkpt lat="41.7331035" lon="14.024459"><ele>992.0</ele><time>2026-04-26T10:40:52.951Z</time></trkpt><trkpt lat="41.733022" lon="14.0243585"><ele>992.0</ele><time>2026-04-26T10:40:53.951Z</time></trkpt><trkpt lat="41.732904" lon="14.0243397"><ele>992.0</ele><time>2026-04-26T10:40:54.946Z</time></trkpt><trkpt lat="41.7327861" lon="14.0243483"><ele>992.0</ele><time>2026-04-26T10:40:55.948Z</time></trkpt><trkpt lat="41.7326635" lon="14.0243744"><ele>992.0</ele><time>2026-04-26T10:40:56.949Z</time></trkpt><trkpt lat="41.7325372" lon="14.0244141"><ele>994.75</ele><time>2026-04-26T10:40:57.955Z</time></trkpt><trkpt lat="41.7324139" lon="14.0244742"><ele>997.5</ele><time>2026-04-26T10:40:58.948Z</time></trkpt><trkpt lat="41.7322906" lon="14.0245713"><ele>1000.25</ele><time>2026-04-26T10:40:59.957Z</time></trkpt><trkpt lat="41.7321783" lon="14.0246979"><ele>1003.0</ele><time>2026-04-26T10:41:00.95Z</time></trkpt><trkpt lat="41.7320756" lon="14.0248355"><ele>1003.0</ele><time>2026-04-26T10:41:01.947Z</time></trkpt><trkpt lat="41.7319767" lon="14.0249611"><ele>1003.0</ele><time>2026-04-26T10:41:02.946Z</time></trkpt><trkpt lat="41.7318733" lon="14.0250453"><ele>1003.0</ele><time>2026-04-26T10:41:03.955Z</time></trkpt><trkpt lat="41.7317645" lon="14.0250718"><ele>1003.0</ele><time>2026-04-26T10:41:04.947Z</time></trkpt><trkpt lat="41.7316534" lon="14.0250645"><ele>998.75</ele><time>2026-04-26T10:41:05.944Z</time></trkpt><trkpt lat="41.7315404" lon="14.0250643"><ele>994.5</ele><time>2026-04-26T10:41:06.956Z</time></trkpt><trkpt lat="41.7314274" lon="14.0250989"><ele>990.25</ele><time>2026-04-26T10:41:07.955Z</time></trkpt><trkpt lat="41.731315" lon="14.0251586"><ele>986.0</ele><time>2026-04-26T10:41:08.942Z</time></trkpt><trkpt lat="41.7312027" lon="14.0252228"><ele>986.0</ele><time>2026-04-26T10:41:09.947Z</time></trkpt><trkpt lat="41.7310917" lon="14.0252745"><ele>986.0</ele><time>2026-04-26T10:41:10.944Z</time></trkpt><trkpt lat="41.7309646" lon="14.0252883"><ele>986.0</ele><time>2026-04-26T10:41:11.94Z</time></trkpt><trkpt lat="41.730832" lon="14.025277"><ele>986.0</ele><time>2026-04-26T10:41:12.956Z</time></trkpt><trkpt lat="41.7306905" lon="14.0252412"><ele>989.6666666666667</ele><time>2026-04-26T10:41:13.952Z</time></trkpt><trkpt lat="41.7305301" lon="14.0252023"><ele>993.3333333333333</ele><time>2026-04-26T10:41:14.945Z</time></trkpt><trkpt lat="41.7303596" lon="14.025161"><ele>997.0</ele><time>2026-04-26T10:41:15.951Z</time></trkpt><trkpt lat="41.7301884" lon="14.0251261"><ele>997.3333333333333</ele><time>2026-04-26T10:41:16.958Z</time></trkpt><trkpt lat="41.7300141" lon="14.0250907"><ele>997.6666666666667</ele><time>2026-04-26T10:41:17.946Z</time></trkpt><trkpt lat="41.7298414" lon="14.0250502"><ele>998.0</ele><time>2026-04-26T10:41:18.957Z</time></trkpt><trkpt lat="41.7296648" lon="14.0250062"><ele>1001.0</ele><time>2026-04-26T10:41:19.954Z</time></trkpt><trkpt lat="41.7294887" lon="14.0249681"><ele>1004.0</ele><time>2026-04-26T10:41:20.942Z</time></trkpt><trkpt lat="41.7293214" lon="14.0249364"><ele>1007.0</ele><time>2026-04-26T10:41:21.945Z</time></trkpt><trkpt lat="41.7291686" lon="14.0249042"><ele>1007.0000000000001</ele><time>2026-04-26T10:41:22.95Z</time></trkpt><trkpt lat="41.7290371" lon="14.0248711"><ele>1007.0</ele><time>2026-04-26T10:41:23.948Z</time></trkpt><trkpt lat="41.7289558" lon="14.0248048"><ele>1007.0</ele><time>2026-04-26T10:41:24.954Z</time></trkpt><trkpt lat="41.7289264" lon="14.0247156"><ele>1007.0</ele><time>2026-04-26T10:41:25.95Z</time></trkpt><trkpt lat="41.7289414" lon="14.0246206"><ele>1007.0000000000001</ele><time>2026-04-26T10:41:26.94Z</time></trkpt><trkpt lat="41.7289876" lon="14.0245607"><ele>1007.0</ele><time>2026-04-26T10:41:27.957Z</time></trkpt><trkpt lat="41.7290518" lon="14.0245358"><ele>1007.0</ele><time>2026-04-26T10:41:28.951Z</time></trkpt><trkpt lat="41.7291256" lon="14.0245479"><ele>1007.0</ele><time>2026-04-26T10:41:29.95Z</time></trkpt><trkpt lat="41.7292118" lon="14.0245803"><ele>1007.0</ele><time>2026-04-26T10:41:30.948Z</time></trkpt><trkpt lat="41.7293171" lon="14.0246153"><ele>1007.0</ele><time>2026-04-26T10:41:31.947Z</time></trkpt><trkpt lat="41.7294367" lon="14.0246566"><ele>1007.0</ele><time>2026-04-26T10:41:32.951Z</time></trkpt><trkpt lat="41.7295566" lon="14.0247002"><ele>1009.5</ele><time>2026-04-26T10:41:33.948Z</time></trkpt><trkpt lat="41.7296812" lon="14.024742"><ele>1012.0</ele><time>2026-04-26T10:41:34.952Z</time></trkpt><trkpt lat="41.7298134" lon="14.0247762"><ele>1014.5</ele><time>2026-04-26T10:41:35.95Z</time></trkpt><trkpt lat="41.7299521" lon="14.0247876"><ele>1017.0</ele><time>2026-04-26T10:41:36.952Z</time></trkpt><trkpt lat="41.730093" lon="14.0247733"><ele>1019.3333333333333</ele><time>2026-04-26T10:41:37.956Z</time></trkpt><trkpt lat="41.7302384" lon="14.0247406"><ele>1021.6666666666666</ele><time>2026-04-26T10:41:38.948Z</time></trkpt><trkpt lat="41.7303886" lon="14.0246999"><ele>1024.0</ele><time>2026-04-26T10:41:39.95Z</time></trkpt><trkpt lat="41.7305383" lon="14.024666"><ele>1024.0</ele><time>2026-04-26T10:41:40.95Z</time></trkpt><trkpt lat="41.7306872" lon="14.0246443"><ele>1024.0</ele><time>2026-04-26T10:41:41.946Z</time></trkpt><trkpt lat="41.7308359" lon="14.0246298"><ele>1024.0</ele><time>2026-04-26T10:41:42.945Z</time></trkpt><trkpt lat="41.7309873" lon="14.0246158"><ele>1023.3333333333333</ele><time>2026-04-26T10:41:43.952Z</time></trkpt><trkpt lat="41.7311404" lon="14.0245968"><ele>1022.6666666666667</ele><time>2026-04-26T10:41:44.956Z</time></trkpt><trkpt lat="41.7312943" lon="14.0245558"><ele>1022.0</ele><time>2026-04-26T10:41:45.947Z</time></trkpt><trkpt lat="41.7314491" lon="14.0244918"><ele>1022.0</ele><time>2026-04-26T10:41:46.946Z</time></trkpt><trkpt lat="41.7316043" lon="14.0244117"><ele>1022.0</ele><time>2026-04-26T10:41:47.946Z</time></trkpt><trkpt lat="41.7317613" lon="14.0243326"><ele>1022.0</ele><time>2026-04-26T10:41:48.945Z</time></trkpt><trkpt lat="41.7319197" lon="14.0242564"><ele>1023.3333333333334</ele><time>2026-04-26T10:41:49.954Z</time></trkpt><trkpt lat="41.7320768" lon="14.0241765"><ele>1024.6666666666667</ele><time>2026-04-26T10:41:50.952Z</time></trkpt><trkpt lat="41.7322263" lon="14.0240767"><ele>1026.0</ele><time>2026-04-26T10:41:51.952Z</time></trkpt><trkpt lat="41.7323653" lon="14.0239512"><ele>1026.0</ele><time>2026-04-26T10:41:52.949Z</time></trkpt><trkpt lat="41.7324864" lon="14.0238002"><ele>1026.0</ele><time>2026-04-26T10:41:53.95Z</time></trkpt><trkpt lat="41.7325819" lon="14.0236239"><ele>1026.0</ele><time>2026-04-26T10:41:54.951Z</time></trkpt><trkpt lat="41.7326471" lon="14.0234316"><ele>1029.0</ele><time>2026-04-26T10:41:55.954Z</time></trkpt><trkpt lat="41.7326983" lon="14.0232457"><ele>1032.0</ele><time>2026-04-26T10:41:56.948Z</time></trkpt><trkpt lat="41.7327577" lon="14.023093"><ele>1035.0</ele><time>2026-04-26T10:41:57.941Z</time></trkpt><trkpt lat="41.7328303" lon="14.0230005"><ele>1038.0</ele><time>2026-04-26T10:41:58.955Z</time></trkpt><trkpt lat="41.7329102" lon="14.0229685"><ele>1038.0</ele><time>2026-04-26T10:41:59.957Z</time></trkpt><trkpt lat="41.7329966" lon="14.022982"><ele>1038.0</ele><time>2026-04-26T10:42:00.949Z</time></trkpt><trkpt lat="41.7331005" lon="14.0230056"><ele>1038.0</ele><time>2026-04-26T10:42:01.946Z</time></trkpt><trkpt lat="41.7332395" lon="14.0230289"><ele>1038.0</ele><time>2026-04-26T10:42:02.944Z</time></trkpt><trkpt lat="41.7333949" lon="14.0230538"><ele>1038.0</ele><time>2026-04-26T10:42:03.953Z</time></trkpt><trkpt lat="41.7335537" lon="14.0230684"><ele>1038.0</ele><time>2026-04-26T10:42:04.949Z</time></trkpt><trkpt lat="41.7337099" lon="14.0230586"><ele>1038.0</ele><time>2026-04-26T10:42:05.946Z</time></trkpt><trkpt lat="41.7338604" lon="14.0230201"><ele>1036.25</ele><time>2026-04-26T10:42:06.948Z</time></trkpt><trkpt lat="41.7339954" lon="14.0229489"><ele>1034.5</ele><time>2026-04-26T10:42:07.959Z</time></trkpt><trkpt lat="41.7341079" lon="14.0228362"><ele>1032.75</ele><time>2026-04-26T10:42:08.954Z</time></trkpt><trkpt lat="41.734203" lon="14.0226852"><ele>1031.0</ele><time>2026-04-26T10:42:09.948Z</time></trkpt><trkpt lat="41.7342849" lon="14.0225056"><ele>1031.3333333333335</ele><time>2026-04-26T10:42:10.958Z</time></trkpt><trkpt lat="41.7343535" lon="14.0223058"><ele>1031.6666666666667</ele><time>2026-04-26T10:42:11.946Z</time></trkpt><trkpt lat="41.734413" lon="14.0221043"><ele>1032.0</ele><time>2026-04-26T10:42:12.941Z</time></trkpt><trkpt lat="41.7344796" lon="14.0219126"><ele>1032.0</ele><time>2026-04-26T10:42:13.942Z</time></trkpt><trkpt lat="41.7345645" lon="14.0217405"><ele>1032.0</ele><time>2026-04-26T10:42:14.953Z</time></trkpt><trkpt lat="41.7346721" lon="14.0215996"><ele>1032.0</ele><time>2026-04-26T10:42:15.95Z</time></trkpt><trkpt lat="41.734797" lon="14.0215021"><ele>1032.0</ele><time>2026-04-26T10:42:16.958Z</time></trkpt><trkpt lat="41.7349348" lon="14.021447"><ele>1034.5</ele><time>2026-04-26T10:42:17.961Z</time></trkpt><trkpt lat="41.7350769" lon="14.0214242"><ele>1037.0</ele><time>2026-04-26T10:42:18.953Z</time></trkpt><trkpt lat="41.7352181" lon="14.0214144"><ele>1039.5</ele><time>2026-04-26T10:42:19.96Z</time></trkpt><trkpt lat="41.7353536" lon="14.0213873"><ele>1042.0</ele><time>2026-04-26T10:42:20.952Z</time></trkpt><trkpt lat="41.7354732" lon="14.0213285"><ele>1042.0</ele><time>2026-04-26T10:42:21.947Z</time></trkpt><trkpt lat="41.735571" lon="14.0212424"><ele>1042.0</ele><time>2026-04-26T10:42:22.962Z</time></trkpt><trkpt lat="41.7356467" lon="14.0211325"><ele>1042.0</ele><time>2026-04-26T10:42:23.958Z</time></trkpt><trkpt lat="41.7357056" lon="14.0210054"><ele>1042.0</ele><time>2026-04-26T10:42:24.951Z</time></trkpt><trkpt lat="41.7357555" lon="14.0208673"><ele>1045.0</ele><time>2026-04-26T10:42:25.964Z</time></trkpt><trkpt lat="41.7358037" lon="14.0207269"><ele>1048.0</ele><time>2026-04-26T10:42:26.972Z</time></trkpt><trkpt lat="41.7358542" lon="14.0205966"><ele>1051.0</ele><time>2026-04-26T10:42:27.949Z</time></trkpt><trkpt lat="41.7359298" lon="14.0205009"><ele>1054.0</ele><time>2026-04-26T10:42:28.956Z</time></trkpt><trkpt lat="41.7360225" lon="14.0204403"><ele>1057.0</ele><time>2026-04-26T10:42:29.96Z</time></trkpt><trkpt lat="41.7361304" lon="14.0203956"><ele>1057.0</ele><time>2026-04-26T10:42:30.953Z</time></trkpt><trkpt lat="41.7362324" lon="14.020343"><ele>1057.0</ele><time>2026-04-26T10:42:31.96Z</time></trkpt><trkpt lat="41.7363363" lon="14.0203134"><ele>1057.0</ele><time>2026-04-26T10:42:32.95Z</time></trkpt><trkpt lat="41.7364541" lon="14.0202932"><ele>1057.0</ele><time>2026-04-26T10:42:33.951Z</time></trkpt><trkpt lat="41.7365775" lon="14.0202907"><ele>1057.0</ele><time>2026-04-26T10:42:34.954Z</time></trkpt><trkpt lat="41.7367103" lon="14.0203056"><ele>1057.0</ele><time>2026-04-26T10:42:35.965Z</time></trkpt><trkpt lat="41.7368444" lon="14.0203253"><ele>1057.0</ele><time>2026-04-26T10:42:36.948Z</time></trkpt><trkpt lat="41.7369805" lon="14.0203482"><ele>1057.0</ele><time>2026-04-26T10:42:37.957Z</time></trkpt><trkpt lat="41.7371189" lon="14.0203869"><ele>1059.0</ele><time>2026-04-26T10:42:38.963Z</time></trkpt><trkpt lat="41.7372578" lon="14.0204428"><ele>1061.0</ele><time>2026-04-26T10:42:39.96Z</time></trkpt><trkpt lat="41.7373903" lon="14.0205088"><ele>1063.0</ele><time>2026-04-26T10:42:40.959Z</time></trkpt><trkpt lat="41.7375254" lon="14.0205594"><ele>1065.0</ele><time>2026-04-26T10:42:41.958Z</time></trkpt><trkpt lat="41.7376622" lon="14.0205813"><ele>1066.75</ele><time>2026-04-26T10:42:42.956Z</time></trkpt><trkpt lat="41.7377969" lon="14.0205714"><ele>1068.5</ele><time>2026-04-26T10:42:43.941Z</time></trkpt><trkpt lat="41.7379329" lon="14.0205558"><ele>1070.25</ele><time>2026-04-26T10:42:44.955Z</time></trkpt><trkpt lat="41.7380631" lon="14.0205231"><ele>1072.0</ele><time>2026-04-26T10:42:45.959Z</time></trkpt><trkpt lat="41.7381923" lon="14.020501"><ele>1072.0</ele><time>2026-04-26T10:42:46.945Z</time></trkpt><trkpt lat="41.7383221" lon="14.0204753"><ele>1072.0</ele><time>2026-04-26T10:42:47.952Z</time></trkpt><trkpt lat="41.738454" lon="14.0204517"><ele>1072.0</ele><time>2026-04-26T10:42:48.951Z</time></trkpt><trkpt lat="41.7385901" lon="14.0204276"><ele>1072.0</ele><time>2026-04-26T10:42:49.948Z</time></trkpt><trkpt lat="41.7387258" lon="14.0203992"><ele>1072.5</ele><time>2026-04-26T10:42:50.963Z</time></trkpt><trkpt lat="41.7388578" lon="14.0203689"><ele>1073.0</ele><time>2026-04-26T10:42:51.953Z</time></trkpt><trkpt lat="41.7389914" lon="14.0203429"><ele>1073.5</ele><time>2026-04-26T10:42:52.942Z</time></trkpt><trkpt lat="41.7391262" lon="14.0203226"><ele>1074.0</ele><time>2026-04-26T10:42:53.963Z</time></trkpt><trkpt lat="41.7392635" lon="14.0202973"><ele>1072.5</ele><time>2026-04-26T10:42:54.958Z</time></trkpt><trkpt lat="41.7393997" lon="14.0202677"><ele>1071.0</ele><time>2026-04-26T10:42:55.943Z</time></trkpt><trkpt lat="41.7395421" lon="14.0202288"><ele>1069.5</ele><time>2026-04-26T10:42:56.95Z</time></trkpt><trkpt lat="41.7396882" lon="14.0201729"><ele>1068.0</ele><time>2026-04-26T10:42:57.958Z</time></trkpt><trkpt lat="41.7398347" lon="14.0201032"><ele>1068.0</ele><time>2026-04-26T10:42:58.949Z</time></trkpt><trkpt lat="41.7399825" lon="14.0200319"><ele>1068.0</ele><time>2026-04-26T10:42:59.973Z</time></trkpt><trkpt lat="41.7401321" lon="14.0199672"><ele>1068.0</ele><time>2026-04-26T10:43:00.968Z</time></trkpt><trkpt lat="41.7402814" lon="14.0199103"><ele>1070.3333333333333</ele><time>2026-04-26T10:43:01.946Z</time></trkpt><trkpt lat="41.7404296" lon="14.0198614"><ele>1072.6666666666665</ele><time>2026-04-26T10:43:02.949Z</time></trkpt><trkpt lat="41.7405741" lon="14.0198136"><ele>1075.0</ele><time>2026-04-26T10:43:03.944Z</time></trkpt><trkpt lat="41.7407204" lon="14.0197701"><ele>1075.0</ele><time>2026-04-26T10:43:04.949Z</time></trkpt><trkpt lat="41.7408687" lon="14.019738"><ele>1075.0</ele><time>2026-04-26T10:43:05.949Z</time></trkpt><trkpt lat="41.7410171" lon="14.0197125"><ele>1075.0</ele><time>2026-04-26T10:43:06.945Z</time></trkpt><trkpt lat="41.7411652" lon="14.0196885"><ele>1075.0</ele><time>2026-04-26T10:43:07.945Z</time></trkpt><trkpt lat="41.741307" lon="14.0196669"><ele>1074.4</ele><time>2026-04-26T10:43:08.967Z</time></trkpt><trkpt lat="41.7414334" lon="14.0196497"><ele>1073.8</ele><time>2026-04-26T10:43:09.954Z</time></trkpt><trkpt lat="41.7415368" lon="14.0196322"><ele>1073.2</ele><time>2026-04-26T10:43:10.948Z</time></trkpt><trkpt lat="41.7416183" lon="14.0195915"><ele>1072.6</ele><time>2026-04-26T10:43:11.99Z</time></trkpt><trkpt lat="41.741678" lon="14.0195215"><ele>1072.0</ele><time>2026-04-26T10:43:12.954Z</time></trkpt><trkpt lat="41.7417148" lon="14.0194235"><ele>1072.0</ele><time>2026-04-26T10:43:13.942Z</time></trkpt><trkpt lat="41.7417456" lon="14.0193142"><ele>1072.0</ele><time>2026-04-26T10:43:14.964Z</time></trkpt><trkpt lat="41.7417001" lon="14.0192056"><ele>1072.0</ele><time>2026-04-26T10:43:15.954Z</time></trkpt><trkpt lat="41.7416325" lon="14.0191271"><ele>1072.0</ele><time>2026-04-26T10:43:16.939Z</time></trkpt><trkpt lat="41.7415518" lon="14.0190628"><ele>1072.0</ele><time>2026-04-26T10:43:17.956Z</time></trkpt><trkpt lat="41.7414592" lon="14.0190002"><ele>1069.6</ele><time>2026-04-26T10:43:18.954Z</time></trkpt><trkpt lat="41.7413608" lon="14.0189469"><ele>1067.2</ele><time>2026-04-26T10:43:19.946Z</time></trkpt><trkpt lat="41.7412619" lon="14.0189086"><ele>1064.8</ele><time>2026-04-26T10:43:20.954Z</time></trkpt><trkpt lat="41.7411597" lon="14.0188885"><ele>1062.4</ele><time>2026-04-26T10:43:21.949Z</time></trkpt><trkpt lat="41.7410521" lon="14.0188901"><ele>1060.0</ele><time>2026-04-26T10:43:22.944Z</time></trkpt><trkpt lat="41.7409405" lon="14.0189138"><ele>1060.0</ele><time>2026-04-26T10:43:23.946Z</time></trkpt><trkpt lat="41.7408247" lon="14.0189595"><ele>1060.0</ele><time>2026-04-26T10:43:24.949Z</time></trkpt><trkpt lat="41.7407075" lon="14.0190121"><ele>1060.0</ele><time>2026-04-26T10:43:25.948Z</time></trkpt><trkpt lat="41.740588" lon="14.0190602"><ele>1060.0</ele><time>2026-04-26T10:43:26.947Z</time></trkpt><trkpt lat="41.7404713" lon="14.0190709"><ele>1060.0</ele><time>2026-04-26T10:43:27.945Z</time></trkpt><trkpt lat="41.7403595" lon="14.0190343"><ele>1060.0</ele><time>2026-04-26T10:43:28.943Z</time></trkpt><trkpt lat="41.7402633" lon="14.0189638"><ele>1060.0</ele><time>2026-04-26T10:43:29.947Z</time></trkpt><trkpt lat="41.7401809" lon="14.0188603"><ele>1060.0</ele><time>2026-04-26T10:43:30.964Z</time></trkpt><trkpt lat="41.7401046" lon="14.0187334"><ele>1059.75</ele><time>2026-04-26T10:43:31.955Z</time></trkpt><trkpt lat="41.7400278" lon="14.0186001"><ele>1059.5</ele><time>2026-04-26T10:43:32.943Z</time></trkpt><trkpt lat="41.739952" lon="14.0184631"><ele>1059.25</ele><time>2026-04-26T10:43:33.957Z</time></trkpt><trkpt lat="41.7398787" lon="14.0183215"><ele>1059.0</ele><time>2026-04-26T10:43:34.951Z</time></trkpt><trkpt lat="41.7398101" lon="14.0181662"><ele>1059.0</ele><time>2026-04-26T10:43:35.941Z</time></trkpt><trkpt lat="41.7397351" lon="14.0180196"><ele>1059.0</ele><time>2026-04-26T10:43:36.947Z</time></trkpt><trkpt lat="41.7396407" lon="14.0178921"><ele>1059.0</ele><time>2026-04-26T10:43:37.949Z</time></trkpt><trkpt lat="41.7395254" lon="14.0177716"><ele>1059.0</ele><time>2026-04-26T10:43:38.94Z</time></trkpt><trkpt lat="41.7394096" lon="14.0176423"><ele>1064.3333333333333</ele><time>2026-04-26T10:43:39.954Z</time></trkpt><trkpt lat="41.7393023" lon="14.0175002"><ele>1069.6666666666665</ele><time>2026-04-26T10:43:40.949Z</time></trkpt><trkpt lat="41.7391972" lon="14.0173457"><ele>1075.0</ele><time>2026-04-26T10:43:41.938Z</time></trkpt><trkpt lat="41.7390927" lon="14.0171889"><ele>1075.0</ele><time>2026-04-26T10:43:42.951Z</time></trkpt><trkpt lat="41.7389821" lon="14.0170374"><ele>1075.0</ele><time>2026-04-26T10:43:43.955Z</time></trkpt><trkpt lat="41.7388527" lon="14.0169052"><ele>1075.0</ele><time>2026-04-26T10:43:44.941Z</time></trkpt><trkpt lat="41.7387055" lon="14.0167924"><ele>1078.0</ele><time>2026-04-26T10:43:45.952Z</time></trkpt><trkpt lat="41.7385474" lon="14.0166898"><ele>1081.0</ele><time>2026-04-26T10:43:46.955Z</time></trkpt><trkpt lat="41.7383896" lon="14.0165879"><ele>1084.0</ele><time>2026-04-26T10:43:47.936Z</time></trkpt><trkpt lat="41.7382353" lon="14.0164823"><ele>1084.0</ele><time>2026-04-26T10:43:48.953Z</time></trkpt><trkpt lat="41.7380819" lon="14.016379"><ele>1084.0</ele><time>2026-04-26T10:43:49.947Z</time></trkpt><trkpt lat="41.7379296" lon="14.0162783"><ele>1084.0</ele><time>2026-04-26T10:43:50.944Z</time></trkpt><trkpt lat="41.7377756" lon="14.0161822"><ele>1084.6666666666665</ele><time>2026-04-26T10:43:51.946Z</time></trkpt><trkpt lat="41.7376191" lon="14.0160976"><ele>1085.3333333333333</ele><time>2026-04-26T10:43:52.95Z</time></trkpt><trkpt lat="41.7374624" lon="14.0160323"><ele>1086.0</ele><time>2026-04-26T10:43:53.95Z</time></trkpt><trkpt lat="41.7373018" lon="14.0159875"><ele>1086.0</ele><time>2026-04-26T10:43:54.944Z</time></trkpt><trkpt lat="41.7371409" lon="14.0159669"><ele>1086.0</ele><time>2026-04-26T10:43:55.948Z</time></trkpt><trkpt lat="41.7369809" lon="14.0159646"><ele>1086.0</ele><time>2026-04-26T10:43:56.949Z</time></trkpt><trkpt lat="41.7368264" lon="14.015965"><ele>1086.25</ele><time>2026-04-26T10:43:57.953Z</time></trkpt><trkpt lat="41.7366816" lon="14.0159594"><ele>1086.5</ele><time>2026-04-26T10:43:58.956Z</time></trkpt><trkpt lat="41.7365485" lon="14.0159403"><ele>1086.75</ele><time>2026-04-26T10:43:59.963Z</time></trkpt><trkpt lat="41.7364244" lon="14.0158887"><ele>1087.0</ele><time>2026-04-26T10:44:00.968Z</time></trkpt><trkpt lat="41.7363079" lon="14.0158024"><ele>1087.0</ele><time>2026-04-26T10:44:01.951Z</time></trkpt><trkpt lat="41.736194" lon="14.0156953"><ele>1087.0</ele><time>2026-04-26T10:44:02.941Z</time></trkpt><trkpt lat="41.7360778" lon="14.0155843"><ele>1087.0</ele><time>2026-04-26T10:44:03.949Z</time></trkpt><trkpt lat="41.7359601" lon="14.0154789"><ele>1087.0</ele><time>2026-04-26T10:44:04.957Z</time></trkpt><trkpt lat="41.7358335" lon="14.0153648"><ele>1087.0</ele><time>2026-04-26T10:44:05.959Z</time></trkpt><trkpt lat="41.7356783" lon="14.0152826"><ele>1087.0</ele><time>2026-04-26T10:44:06.951Z</time></trkpt><trkpt lat="41.7355252" lon="14.0152126"><ele>1087.0</ele><time>2026-04-26T10:44:07.948Z</time></trkpt><trkpt lat="41.7353704" lon="14.0151513"><ele>1087.0</ele><time>2026-04-26T10:44:08.954Z</time></trkpt><trkpt lat="41.7352226" lon="14.0150821"><ele>1087.0</ele><time>2026-04-26T10:44:09.959Z</time></trkpt><trkpt lat="41.7350797" lon="14.0150201"><ele>1087.0</ele><time>2026-04-26T10:44:10.948Z</time></trkpt><trkpt lat="41.7349368" lon="14.0149591"><ele>1086.0</ele><time>2026-04-26T10:44:11.947Z</time></trkpt><trkpt lat="41.7347828" lon="14.0149075"><ele>1085.0</ele><time>2026-04-26T10:44:12.954Z</time></trkpt><trkpt lat="41.734605" lon="14.0148719"><ele>1084.0</ele><time>2026-04-26T10:44:13.936Z</time></trkpt><trkpt lat="41.7344195" lon="14.0148337"><ele>1085.6666666666665</ele><time>2026-04-26T10:44:14.955Z</time></trkpt><trkpt lat="41.7342367" lon="14.0148101"><ele>1087.3333333333333</ele><time>2026-04-26T10:44:15.946Z</time></trkpt><trkpt lat="41.7340698" lon="14.0147777"><ele>1089.0</ele><time>2026-04-26T10:44:16.943Z</time></trkpt><trkpt lat="41.733922" lon="14.014743"><ele>1089.0</ele><time>2026-04-26T10:44:17.952Z</time></trkpt><trkpt lat="41.7337745" lon="14.0146906"><ele>1089.0</ele><time>2026-04-26T10:44:18.947Z</time></trkpt><trkpt lat="41.7336005" lon="14.0146032"><ele>1089.0</ele><time>2026-04-26T10:44:19.94Z</time></trkpt><trkpt lat="41.7334076" lon="14.014486"><ele>1092.0</ele><time>2026-04-26T10:44:20.947Z</time></trkpt><trkpt lat="41.7332164" lon="14.0143667"><ele>1095.0</ele><time>2026-04-26T10:44:21.942Z</time></trkpt><trkpt lat="41.7330334" lon="14.0142587"><ele>1098.0</ele><time>2026-04-26T10:44:22.943Z</time></trkpt><trkpt lat="41.732874" lon="14.0141658"><ele>1099.6</ele><time>2026-04-26T10:44:23.948Z</time></trkpt><trkpt lat="41.7327502" lon="14.0140867"><ele>1101.1999999999998</ele><time>2026-04-26T10:44:24.956Z</time></trkpt><trkpt lat="41.7326492" lon="14.0140123"><ele>1102.8</ele><time>2026-04-26T10:44:25.941Z</time></trkpt><trkpt lat="41.7326036" lon="14.0139296"><ele>1104.3999999999999</ele><time>2026-04-26T10:44:26.943Z</time></trkpt><trkpt lat="41.7326155" lon="14.013798"><ele>1106.0</ele><time>2026-04-26T10:44:27.948Z</time></trkpt><trkpt lat="41.7326666" lon="14.0136827"><ele>1106.0</ele><time>2026-04-26T10:44:28.95Z</time></trkpt><trkpt lat="41.7327165" lon="14.013598"><ele>1106.0</ele><time>2026-04-26T10:44:29.942Z</time></trkpt><trkpt lat="41.73281" lon="14.0135803"><ele>1106.0</ele><time>2026-04-26T10:44:30.945Z</time></trkpt><trkpt lat="41.7329088" lon="14.0135907"><ele>1106.0</ele><time>2026-04-26T10:44:31.943Z</time></trkpt><trkpt lat="41.7330114" lon="14.0136001"><ele>1106.0</ele><time>2026-04-26T10:44:32.938Z</time></trkpt><trkpt lat="41.7331305" lon="14.013605"><ele>1106.75</ele><time>2026-04-26T10:44:33.948Z</time></trkpt><trkpt lat="41.7332568" lon="14.013603"><ele>1107.5</ele><time>2026-04-26T10:44:34.945Z</time></trkpt><trkpt lat="41.7333914" lon="14.0135986"><ele>1108.25</ele><time>2026-04-26T10:44:35.942Z</time></trkpt><trkpt lat="41.7335332" lon="14.0135724"><ele>1109.0</ele><time>2026-04-26T10:44:36.946Z</time></trkpt><trkpt lat="41.7336757" lon="14.0135221"><ele>1109.0</ele><time>2026-04-26T10:44:37.947Z</time></trkpt><trkpt lat="41.7338278" lon="14.0134672"><ele>1109.0</ele><time>2026-04-26T10:44:38.94Z</time></trkpt><trkpt lat="41.733987" lon="14.0134243"><ele>1109.0</ele><time>2026-04-26T10:44:39.941Z</time></trkpt><trkpt lat="41.7341534" lon="14.0133935"><ele>1109.0</ele><time>2026-04-26T10:44:40.948Z</time></trkpt><trkpt lat="41.7343214" lon="14.0133453"><ele>1109.0</ele><time>2026-04-26T10:44:41.943Z</time></trkpt><trkpt lat="41.7344901" lon="14.0132738"><ele>1109.0</ele><time>2026-04-26T10:44:42.955Z</time></trkpt><trkpt lat="41.7346548" lon="14.0131943"><ele>1111.0</ele><time>2026-04-26T10:44:43.956Z</time></trkpt><trkpt lat="41.7348175" lon="14.0131106"><ele>1113.0</ele><time>2026-04-26T10:44:44.96Z</time></trkpt><trkpt lat="41.7349773" lon="14.0130171"><ele>1115.0</ele><time>2026-04-26T10:44:45.953Z</time></trkpt><trkpt lat="41.7351307" lon="14.0129075"><ele>1114.6666666666667</ele><time>2026-04-26T10:44:46.951Z</time></trkpt><trkpt lat="41.735276" lon="14.0127806"><ele>1114.3333333333333</ele><time>2026-04-26T10:44:47.941Z</time></trkpt><trkpt lat="41.7354239" lon="14.0126554"><ele>1114.0</ele><time>2026-04-26T10:44:48.948Z</time></trkpt><trkpt lat="41.73559" lon="14.0125471"><ele>1113.0</ele><time>2026-04-26T10:44:49.946Z</time></trkpt><trkpt lat="41.7357718" lon="14.0124599"><ele>1112.0</ele><time>2026-04-26T10:44:50.943Z</time></trkpt><trkpt lat="41.7359657" lon="14.0123776"><ele>1111.0</ele><time>2026-04-26T10:44:51.946Z</time></trkpt><trkpt lat="41.7361647" lon="14.0122888"><ele>1111.0</ele><time>2026-04-26T10:44:52.95Z</time></trkpt><trkpt lat="41.7363701" lon="14.012196"><ele>1111.0</ele><time>2026-04-26T10:44:53.943Z</time></trkpt><trkpt lat="41.7365853" lon="14.0121059"><ele>1111.0</ele><time>2026-04-26T10:44:54.941Z</time></trkpt><trkpt lat="41.7368059" lon="14.0120189"><ele>1116.5</ele><time>2026-04-26T10:44:55.945Z</time></trkpt><trkpt lat="41.737025" lon="14.0119309"><ele>1122.0</ele><time>2026-04-26T10:44:56.949Z</time></trkpt><trkpt lat="41.7372426" lon="14.0118429"><ele>1122.0</ele><time>2026-04-26T10:44:57.941Z</time></trkpt><trkpt lat="41.7374582" lon="14.0117565"><ele>1122.0</ele><time>2026-04-26T10:44:58.945Z</time></trkpt><trkpt lat="41.7376689" lon="14.0116729"><ele>1122.0</ele><time>2026-04-26T10:44:59.95Z</time></trkpt><trkpt lat="41.7378673" lon="14.0115933"><ele>1125.6666666666667</ele><time>2026-04-26T10:45:00.955Z</time></trkpt><trkpt lat="41.7380501" lon="14.0115142"><ele>1129.3333333333335</ele><time>2026-04-26T10:45:01.941Z</time></trkpt><trkpt lat="41.7382108" lon="14.0114366"><ele>1133.0</ele><time>2026-04-26T10:45:02.946Z</time></trkpt><trkpt lat="41.7383393" lon="14.011348"><ele>1133.0</ele><time>2026-04-26T10:45:03.956Z</time></trkpt><trkpt lat="41.7384297" lon="14.011233"><ele>1133.0</ele><time>2026-04-26T10:45:04.943Z</time></trkpt><trkpt lat="41.7384766" lon="14.0110933"><ele>1133.0</ele><time>2026-04-26T10:45:05.943Z</time></trkpt><trkpt lat="41.7384777" lon="14.0109385"><ele>1133.0</ele><time>2026-04-26T10:45:06.954Z</time></trkpt><trkpt lat="41.7384474" lon="14.0107666"><ele>1135.6666666666667</ele><time>2026-04-26T10:45:07.95Z</time></trkpt><trkpt lat="41.7384041" lon="14.0105785"><ele>1138.3333333333333</ele><time>2026-04-26T10:45:08.95Z</time></trkpt><trkpt lat="41.7383519" lon="14.0103728"><ele>1141.0</ele><time>2026-04-26T10:45:09.954Z</time></trkpt><trkpt lat="41.7382879" lon="14.0101567"><ele>1141.6666666666665</ele><time>2026-04-26T10:45:10.951Z</time></trkpt><trkpt lat="41.738216" lon="14.0099388"><ele>1142.3333333333333</ele><time>2026-04-26T10:45:11.951Z</time></trkpt><trkpt lat="41.7381529" lon="14.009719"><ele>1143.0</ele><time>2026-04-26T10:45:12.946Z</time></trkpt><trkpt lat="41.7381059" lon="14.0094948"><ele>1143.0</ele><time>2026-04-26T10:45:13.944Z</time></trkpt><trkpt lat="41.7380733" lon="14.0092605"><ele>1143.0</ele><time>2026-04-26T10:45:14.956Z</time></trkpt><trkpt lat="41.7380493" lon="14.0090108"><ele>1143.0</ele><time>2026-04-26T10:45:15.955Z</time></trkpt><trkpt lat="41.7380292" lon="14.00875"><ele>1141.3333333333333</ele><time>2026-04-26T10:45:16.942Z</time></trkpt><trkpt lat="41.7380103" lon="14.0084776"><ele>1139.6666666666665</ele><time>2026-04-26T10:45:17.959Z</time></trkpt><trkpt lat="41.7379908" lon="14.0081949"><ele>1138.0</ele><time>2026-04-26T10:45:18.949Z</time></trkpt><trkpt lat="41.7379685" lon="14.007904"><ele>1138.0</ele><time>2026-04-26T10:45:19.942Z</time></trkpt><trkpt lat="41.7379439" lon="14.007605"><ele>1138.0</ele><time>2026-04-26T10:45:20.945Z</time></trkpt><trkpt lat="41.7379195" lon="14.0072993"><ele>1138.0</ele><time>2026-04-26T10:45:21.941Z</time></trkpt><trkpt lat="41.7378992" lon="14.0069901"><ele>1138.0</ele><time>2026-04-26T10:45:22.94Z</time></trkpt><trkpt lat="41.7378795" lon="14.0066788"><ele>1139.5</ele><time>2026-04-26T10:45:23.949Z</time></trkpt><trkpt lat="41.7378573" lon="14.0063692"><ele>1141.0</ele><time>2026-04-26T10:45:24.944Z</time></trkpt><trkpt lat="41.737836" lon="14.0060625"><ele>1142.6666666666665</ele><time>2026-04-26T10:45:25.939Z</time></trkpt><trkpt lat="41.7378196" lon="14.005765"><ele>1144.3333333333333</ele><time>2026-04-26T10:45:26.954Z</time></trkpt><trkpt lat="41.7378133" lon="14.0054885"><ele>1146.0</ele><time>2026-04-26T10:45:27.949Z</time></trkpt><trkpt lat="41.7378156" lon="14.0052419"><ele>1146.0</ele><time>2026-04-26T10:45:28.939Z</time></trkpt><trkpt lat="41.7378248" lon="14.0050263"><ele>1146.0</ele><time>2026-04-26T10:45:29.941Z</time></trkpt><trkpt lat="41.7378511" lon="14.0048463"><ele>1146.0</ele><time>2026-04-26T10:45:30.952Z</time></trkpt><trkpt lat="41.7379088" lon="14.0047022"><ele>1146.0</ele><time>2026-04-26T10:45:31.948Z</time></trkpt><trkpt lat="41.7379803" lon="14.0045751"><ele>1145.5</ele><time>2026-04-26T10:45:32.941Z</time></trkpt><trkpt lat="41.7380934" lon="14.0044885"><ele>1145.0</ele><time>2026-04-26T10:45:33.956Z</time></trkpt><trkpt lat="41.7382096" lon="14.0043813"><ele>1144.5</ele><time>2026-04-26T10:45:34.95Z</time></trkpt><trkpt lat="41.7383346" lon="14.0042691"><ele>1144.0</ele><time>2026-04-26T10:45:35.951Z</time></trkpt><trkpt lat="41.7384328" lon="14.0041119"><ele>1143.0</ele><time>2026-04-26T10:45:36.985Z</time></trkpt><trkpt lat="41.7385058" lon="14.0039197"><ele>1142.0</ele><time>2026-04-26T10:45:37.951Z</time></trkpt><trkpt lat="41.7385689" lon="14.0037141"><ele>1141.0</ele><time>2026-04-26T10:45:38.948Z</time></trkpt><trkpt lat="41.7386354" lon="14.0034945"><ele>1142.0</ele><time>2026-04-26T10:45:39.953Z</time></trkpt><trkpt lat="41.738703" lon="14.0032706"><ele>1143.0</ele><time>2026-04-26T10:45:40.953Z</time></trkpt><trkpt lat="41.738768" lon="14.0030374"><ele>1144.0</ele><time>2026-04-26T10:45:41.946Z</time></trkpt><trkpt lat="41.7388214" lon="14.0027896"><ele>1144.0</ele><time>2026-04-26T10:45:42.956Z</time></trkpt><trkpt lat="41.7388705" lon="14.0025376"><ele>1144.0</ele><time>2026-04-26T10:45:43.949Z</time></trkpt><trkpt lat="41.7389176" lon="14.0022813"><ele>1144.0</ele><time>2026-04-26T10:45:44.947Z</time></trkpt><trkpt lat="41.7389674" lon="14.002024"><ele>1144.0</ele><time>2026-04-26T10:45:45.954Z</time></trkpt><trkpt lat="41.7390135" lon="14.0017689"><ele>1144.0</ele><time>2026-04-26T10:45:46.953Z</time></trkpt><trkpt lat="41.7390602" lon="14.0015121"><ele>1144.0</ele><time>2026-04-26T10:45:47.946Z</time></trkpt><trkpt lat="41.7391055" lon="14.0012529"><ele>1144.3333333333333</ele><time>2026-04-26T10:45:48.952Z</time></trkpt><trkpt lat="41.7391577" lon="14.0009999"><ele>1144.6666666666667</ele><time>2026-04-26T10:45:49.956Z</time></trkpt><trkpt lat="41.7392034" lon="14.0007359"><ele>1145.0</ele><time>2026-04-26T10:45:50.946Z</time></trkpt><trkpt lat="41.7392405" lon="14.00049"><ele>1144.0</ele><time>2026-04-26T10:45:51.958Z</time></trkpt><trkpt lat="41.7392862" lon="14.0002537"><ele>1143.0</ele><time>2026-04-26T10:45:52.953Z</time></trkpt><trkpt lat="41.739334" lon="14.0000131"><ele>1142.0</ele><time>2026-04-26T10:45:53.946Z</time></trkpt><trkpt lat="41.739391" lon="13.9997954"><ele>1144.6666666666667</ele><time>2026-04-26T10:45:54.956Z</time></trkpt><trkpt lat="41.7394649" lon="13.9995978"><ele>1147.3333333333333</ele><time>2026-04-26T10:45:55.956Z</time></trkpt><trkpt lat="41.7395596" lon="13.9994159"><ele>1150.0</ele><time>2026-04-26T10:45:56.947Z</time></trkpt><trkpt lat="41.7396597" lon="13.9992406"><ele>1149.3333333333333</ele><time>2026-04-26T10:45:57.97Z</time></trkpt><trkpt lat="41.7397654" lon="13.9990671"><ele>1148.6666666666667</ele><time>2026-04-26T10:45:58.948Z</time></trkpt><trkpt lat="41.7398646" lon="13.9988805"><ele>1148.0</ele><time>2026-04-26T10:45:59.944Z</time></trkpt><trkpt lat="41.7399404" lon="13.9986772"><ele>1148.0</ele><time>2026-04-26T10:46:00.952Z</time></trkpt><trkpt lat="41.7399934" lon="13.9984612"><ele>1148.0</ele><time>2026-04-26T10:46:01.953Z</time></trkpt><trkpt lat="41.7400361" lon="13.9982435"><ele>1148.0</ele><time>2026-04-26T10:46:02.953Z</time></trkpt><trkpt lat="41.7400821" lon="13.9980377"><ele>1147.75</ele><time>2026-04-26T10:46:03.961Z</time></trkpt><trkpt lat="41.7401452" lon="13.9978565"><ele>1147.5</ele><time>2026-04-26T10:46:04.945Z</time></trkpt><trkpt lat="41.7402346" lon="13.9977018"><ele>1147.25</ele><time>2026-04-26T10:46:05.948Z</time></trkpt><trkpt lat="41.740338" lon="13.9975587"><ele>1147.0</ele><time>2026-04-26T10:46:06.951Z</time></trkpt><trkpt lat="41.740441" lon="13.9974117"><ele>1149.3333333333333</ele><time>2026-04-26T10:46:07.951Z</time></trkpt><trkpt lat="41.7405285" lon="13.9972466"><ele>1151.6666666666667</ele><time>2026-04-26T10:46:08.952Z</time></trkpt><trkpt lat="41.7406021" lon="13.9970667"><ele>1154.0</ele><time>2026-04-26T10:46:09.964Z</time></trkpt><trkpt lat="41.740665" lon="13.9968805"><ele>1154.0</ele><time>2026-04-26T10:46:10.947Z</time></trkpt><trkpt lat="41.7407191" lon="13.9966858"><ele>1154.0</ele><time>2026-04-26T10:46:11.944Z</time></trkpt><trkpt lat="41.7407659" lon="13.9964831"><ele>1154.0</ele><time>2026-04-26T10:46:12.953Z</time></trkpt><trkpt lat="41.7408078" lon="13.9962766"><ele>1154.6666666666667</ele><time>2026-04-26T10:46:13.961Z</time></trkpt><trkpt lat="41.7408481" lon="13.9960688"><ele>1155.3333333333333</ele><time>2026-04-26T10:46:14.95Z</time></trkpt><trkpt lat="41.7408885" lon="13.9958638"><ele>1156.0</ele><time>2026-04-26T10:46:15.941Z</time></trkpt><trkpt lat="41.7409274" lon="13.9956636"><ele>1157.0</ele><time>2026-04-26T10:46:16.949Z</time></trkpt><trkpt lat="41.740965" lon="13.9954703"><ele>1158.0</ele><time>2026-04-26T10:46:17.953Z</time></trkpt><trkpt lat="41.7410015" lon="13.9952841"><ele>1159.0</ele><time>2026-04-26T10:46:18.954Z</time></trkpt><trkpt lat="41.741038" lon="13.9951017"><ele>1160.0</ele><time>2026-04-26T10:46:19.95Z</time></trkpt><trkpt lat="41.7410747" lon="13.9949198"><ele>1165.25</ele><time>2026-04-26T10:46:20.94Z</time></trkpt><trkpt lat="41.7411105" lon="13.9947351"><ele>1170.5</ele><time>2026-04-26T10:46:21.952Z</time></trkpt><trkpt lat="41.7411465" lon="13.9945418"><ele>1175.75</ele><time>2026-04-26T10:46:22.963Z</time></trkpt><trkpt lat="41.741182" lon="13.994344"><ele>1181.0</ele><time>2026-04-26T10:46:23.952Z</time></trkpt><trkpt lat="41.7412116" lon="13.9941414"><ele>1181.0</ele><time>2026-04-26T10:46:24.958Z</time></trkpt><trkpt lat="41.7412328" lon="13.9939313"><ele>1181.0</ele><time>2026-04-26T10:46:25.958Z</time></trkpt><trkpt lat="41.7412501" lon="13.9937127"><ele>1181.0</ele><time>2026-04-26T10:46:26.959Z</time></trkpt><trkpt lat="41.7412643" lon="13.9934839"><ele>1181.0</ele><time>2026-04-26T10:46:27.948Z</time></trkpt><trkpt lat="41.7412768" lon="13.9932493"><ele>1181.0</ele><time>2026-04-26T10:46:28.948Z</time></trkpt><trkpt lat="41.7412831" lon="13.9930136"><ele>1181.0</ele><time>2026-04-26T10:46:29.965Z</time></trkpt><trkpt lat="41.7412756" lon="13.99278"><ele>1181.0</ele><time>2026-04-26T10:46:30.947Z</time></trkpt><trkpt lat="41.7412516" lon="13.9925527"><ele>1181.0</ele><time>2026-04-26T10:46:31.951Z</time></trkpt><trkpt lat="41.7412195" lon="13.992328"><ele>1181.0</ele><time>2026-04-26T10:46:32.955Z</time></trkpt><trkpt lat="41.7411866" lon="13.9921085"><ele>1179.5</ele><time>2026-04-26T10:46:33.959Z</time></trkpt><trkpt lat="41.7411599" lon="13.9919042"><ele>1178.0</ele><time>2026-04-26T10:46:34.963Z</time></trkpt><trkpt lat="41.7411492" lon="13.9917216"><ele>1176.5</ele><time>2026-04-26T10:46:35.952Z</time></trkpt><trkpt lat="41.7411684" lon="13.9915721"><ele>1175.0</ele><time>2026-04-26T10:46:36.961Z</time></trkpt><trkpt lat="41.7412278" lon="13.9914556"><ele>1173.0</ele><time>2026-04-26T10:46:37.956Z</time></trkpt><trkpt lat="41.7413246" lon="13.991359"><ele>1171.0</ele><time>2026-04-26T10:46:38.949Z</time></trkpt><trkpt lat="41.7414502" lon="13.991269"><ele>1169.0</ele><time>2026-04-26T10:46:39.95Z</time></trkpt><trkpt lat="41.7415885" lon="13.9911782"><ele>1167.0</ele><time>2026-04-26T10:46:40.951Z</time></trkpt><trkpt lat="41.7417334" lon="13.9910846"><ele>1167.0</ele><time>2026-04-26T10:46:41.956Z</time></trkpt><trkpt lat="41.7418719" lon="13.9909858"><ele>1167.0</ele><time>2026-04-26T10:46:42.947Z</time></trkpt><trkpt lat="41.7419871" lon="13.9908662"><ele>1167.0</ele><time>2026-04-26T10:46:43.951Z</time></trkpt><trkpt lat="41.7420627" lon="13.9907183"><ele>1167.0</ele><time>2026-04-26T10:46:44.949Z</time></trkpt><trkpt lat="41.7421295" lon="13.9905543"><ele>1163.0</ele><time>2026-04-26T10:46:45.955Z</time></trkpt><trkpt lat="41.7421605" lon="13.9903516"><ele>1159.0</ele><time>2026-04-26T10:46:46.955Z</time></trkpt><trkpt lat="41.7421879" lon="13.990126"><ele>1155.0</ele><time>2026-04-26T10:46:47.946Z</time></trkpt><trkpt lat="41.7422199" lon="13.9898949"><ele>1154.3333333333333</ele><time>2026-04-26T10:46:48.951Z</time></trkpt><trkpt lat="41.7422644" lon="13.989644"><ele>1153.6666666666665</ele><time>2026-04-26T10:46:49.946Z</time></trkpt><trkpt lat="41.7423152" lon="13.989411"><ele>1153.0</ele><time>2026-04-26T10:46:50.942Z</time></trkpt><trkpt lat="41.742366" lon="13.9891995"><ele>1153.25</ele><time>2026-04-26T10:46:51.95Z</time></trkpt><trkpt lat="41.7424256" lon="13.9890199"><ele>1153.5</ele><time>2026-04-26T10:46:52.952Z</time></trkpt><trkpt lat="41.7425046" lon="13.9888782"><ele>1153.75</ele><time>2026-04-26T10:46:53.94Z</time></trkpt><trkpt lat="41.7426092" lon="13.9887774"><ele>1154.0</ele><time>2026-04-26T10:46:54.95Z</time></trkpt><trkpt lat="41.7427325" lon="13.9887076"><ele>1151.25</ele><time>2026-04-26T10:46:55.949Z</time></trkpt><trkpt lat="41.7428667" lon="13.9886403"><ele>1148.5</ele><time>2026-04-26T10:46:56.95Z</time></trkpt><trkpt lat="41.7429927" lon="13.9885621"><ele>1145.75</ele><time>2026-04-26T10:46:57.952Z</time></trkpt><trkpt lat="41.7431117" lon="13.9884699"><ele>1143.0</ele><time>2026-04-26T10:46:58.952Z</time></trkpt><trkpt lat="41.7431772" lon="13.9883036"><ele>1143.0</ele><time>2026-04-26T10:46:59.939Z</time></trkpt><trkpt lat="41.7432234" lon="13.9881137"><ele>1143.0</ele><time>2026-04-26T10:47:00.956Z</time></trkpt><trkpt lat="41.7432577" lon="13.9879187"><ele>1143.0</ele><time>2026-04-26T10:47:01.949Z</time></trkpt><trkpt lat="41.7432607" lon="13.9877165"><ele>1143.0</ele><time>2026-04-26T10:47:02.943Z</time></trkpt><trkpt lat="41.7432323" lon="13.9875227"><ele>1142.75</ele><time>2026-04-26T10:47:03.947Z</time></trkpt><trkpt lat="41.743187" lon="13.9873352"><ele>1142.5</ele><time>2026-04-26T10:47:04.955Z</time></trkpt><trkpt lat="41.7431597" lon="13.9871576"><ele>1142.25</ele><time>2026-04-26T10:47:05.945Z</time></trkpt><trkpt lat="41.7431615" lon="13.9869754"><ele>1142.0</ele><time>2026-04-26T10:47:06.948Z</time></trkpt><trkpt lat="41.7431872" lon="13.9867912"><ele>1141.8</ele><time>2026-04-26T10:47:07.948Z</time></trkpt><trkpt lat="41.7432005" lon="13.9866297"><ele>1141.6</ele><time>2026-04-26T10:47:08.952Z</time></trkpt><trkpt lat="41.7432577" lon="13.9865196"><ele>1141.3999999999999</ele><time>2026-04-26T10:47:09.939Z</time></trkpt><trkpt lat="41.743306" lon="13.9864496"><ele>1141.2</ele><time>2026-04-26T10:47:10.949Z</time></trkpt><trkpt lat="41.743399" lon="13.986443"><ele>1141.0</ele><time>2026-04-26T10:47:11.94Z</time></trkpt><trkpt lat="41.7434759" lon="13.9865231"><ele>1141.0</ele><time>2026-04-26T10:47:12.939Z</time></trkpt><trkpt lat="41.7435242" lon="13.9866564"><ele>1141.0</ele><time>2026-04-26T10:47:13.942Z</time></trkpt><trkpt lat="41.7435624" lon="13.9868441"><ele>1141.0</ele><time>2026-04-26T10:47:14.946Z</time></trkpt><trkpt lat="41.7435957" lon="13.9870791"><ele>1141.0</ele><time>2026-04-26T10:47:15.948Z</time></trkpt><trkpt lat="41.7436379" lon="13.987306"><ele>1137.6666666666665</ele><time>2026-04-26T10:47:16.949Z</time></trkpt><trkpt lat="41.743706" lon="13.9875356"><ele>1134.3333333333333</ele><time>2026-04-26T10:47:17.947Z</time></trkpt><trkpt lat="41.7437951" lon="13.9877643"><ele>1131.0</ele><time>2026-04-26T10:47:18.955Z</time></trkpt><trkpt lat="41.7438984" lon="13.9879727"><ele>1131.0</ele><time>2026-04-26T10:47:19.943Z</time></trkpt><trkpt lat="41.7440021" lon="13.9881743"><ele>1131.0</ele><time>2026-04-26T10:47:20.943Z</time></trkpt><trkpt lat="41.7440819" lon="13.9883777"><ele>1131.0</ele><time>2026-04-26T10:47:21.946Z</time></trkpt><trkpt lat="41.7441377" lon="13.9885862"><ele>1130.0</ele><time>2026-04-26T10:47:22.94Z</time></trkpt><trkpt lat="41.7441697" lon="13.9887991"><ele>1129.0</ele><time>2026-04-26T10:47:23.94Z</time></trkpt><trkpt lat="41.7441873" lon="13.9890137"><ele>1128.0</ele><time>2026-04-26T10:47:24.947Z</time></trkpt><trkpt lat="41.7441801" lon="13.9892267"><ele>1127.0</ele><time>2026-04-26T10:47:25.947Z</time></trkpt><trkpt lat="41.744157" lon="13.9894373"><ele>1126.0</ele><time>2026-04-26T10:47:26.939Z</time></trkpt><trkpt lat="41.7441013" lon="13.9896296"><ele>1125.0</ele><time>2026-04-26T10:47:27.96Z</time></trkpt><trkpt lat="41.7440723" lon="13.9898497"><ele>1127.6666666666667</ele><time>2026-04-26T10:47:28.948Z</time></trkpt><trkpt lat="41.7440814" lon="13.990069"><ele>1130.3333333333335</ele><time>2026-04-26T10:47:29.944Z</time></trkpt><trkpt lat="41.7441078" lon="13.990274"><ele>1133.0</ele><time>2026-04-26T10:47:30.945Z</time></trkpt><trkpt lat="41.7441682" lon="13.9904629"><ele>1133.0</ele><time>2026-04-26T10:47:31.945Z</time></trkpt><trkpt lat="41.7442668" lon="13.9906347"><ele>1133.0</ele><time>2026-04-26T10:47:32.945Z</time></trkpt><trkpt lat="41.744395" lon="13.9908014"><ele>1133.0</ele><time>2026-04-26T10:47:33.951Z</time></trkpt><trkpt lat="41.7445384" lon="13.9909462"><ele>1138.3333333333335</ele><time>2026-04-26T10:47:34.947Z</time></trkpt><trkpt lat="41.7446927" lon="13.991049"><ele>1143.6666666666667</ele><time>2026-04-26T10:47:35.938Z</time></trkpt><trkpt lat="41.7448535" lon="13.9911376"><ele>1149.0</ele><time>2026-04-26T10:47:36.94Z</time></trkpt><trkpt lat="41.7450396" lon="13.9911363"><ele>1146.6666666666667</ele><time>2026-04-26T10:47:37.942Z</time></trkpt><trkpt lat="41.745216" lon="13.9911234"><ele>1144.3333333333335</ele><time>2026-04-26T10:47:38.944Z</time></trkpt><trkpt lat="41.7453988" lon="13.9911179"><ele>1142.0</ele><time>2026-04-26T10:47:39.948Z</time></trkpt><trkpt lat="41.7455874" lon="13.9911104"><ele>1142.0</ele><time>2026-04-26T10:47:40.947Z</time></trkpt><trkpt lat="41.7457753" lon="13.9911034"><ele>1142.0</ele><time>2026-04-26T10:47:41.938Z</time></trkpt><trkpt lat="41.7459626" lon="13.9910953"><ele>1142.0</ele><time>2026-04-26T10:47:42.951Z</time></trkpt><trkpt lat="41.7461442" lon="13.9910846"><ele>1138.3333333333335</ele><time>2026-04-26T10:47:43.952Z</time></trkpt><trkpt lat="41.7463214" lon="13.9910779"><ele>1134.6666666666667</ele><time>2026-04-26T10:47:44.94Z</time></trkpt><trkpt lat="41.7464978" lon="13.9910775"><ele>1131.0</ele><time>2026-04-26T10:47:45.945Z</time></trkpt><trkpt lat="41.7466799" lon="13.9911"><ele>1131.0</ele><time>2026-04-26T10:47:46.947Z</time></trkpt><trkpt lat="41.746867" lon="13.9911351"><ele>1131.0</ele><time>2026-04-26T10:47:47.939Z</time></trkpt><trkpt lat="41.7470544" lon="13.9911704"><ele>1131.0</ele><time>2026-04-26T10:47:48.951Z</time></trkpt><trkpt lat="41.7472402" lon="13.9911993"><ele>1127.3333333333333</ele><time>2026-04-26T10:47:49.947Z</time></trkpt><trkpt lat="41.7474231" lon="13.9912242"><ele>1123.6666666666665</ele><time>2026-04-26T10:47:50.947Z</time></trkpt><trkpt lat="41.7476045" lon="13.9912371"><ele>1120.0</ele><time>2026-04-26T10:47:51.95Z</time></trkpt><trkpt lat="41.7477917" lon="13.9912231"><ele>1117.6666666666665</ele><time>2026-04-26T10:47:52.944Z</time></trkpt><trkpt lat="41.7479828" lon="13.9911926"><ele>1115.3333333333333</ele><time>2026-04-26T10:47:53.939Z</time></trkpt><trkpt lat="41.7481777" lon="13.9911583"><ele>1113.0</ele><time>2026-04-26T10:47:54.948Z</time></trkpt><trkpt lat="41.7483704" lon="13.9911249"><ele>1110.0</ele><time>2026-04-26T10:47:55.944Z</time></trkpt><trkpt lat="41.7485578" lon="13.9910968"><ele>1107.0</ele><time>2026-04-26T10:47:56.951Z</time></trkpt><trkpt lat="41.7487383" lon="13.9910877"><ele>1104.0</ele><time>2026-04-26T10:47:57.95Z</time></trkpt><trkpt lat="41.7489105" lon="13.9911017"><ele>1104.0</ele><time>2026-04-26T10:47:58.945Z</time></trkpt><trkpt lat="41.7490746" lon="13.9911274"><ele>1104.0</ele><time>2026-04-26T10:47:59.957Z</time></trkpt><trkpt lat="41.7492309" lon="13.9911528"><ele>1104.0</ele><time>2026-04-26T10:48:00.958Z</time></trkpt><trkpt lat="41.7493813" lon="13.9911598"><ele>1102.75</ele><time>2026-04-26T10:48:01.94Z</time></trkpt><trkpt lat="41.749525" lon="13.9911351"><ele>1101.5</ele><time>2026-04-26T10:48:02.952Z</time></trkpt><trkpt lat="41.7496546" lon="13.9910701"><ele>1100.25</ele><time>2026-04-26T10:48:03.956Z</time></trkpt><trkpt lat="41.7497642" lon="13.9909799"><ele>1099.0</ele><time>2026-04-26T10:48:04.939Z</time></trkpt><trkpt lat="41.7498607" lon="13.9908988"><ele>1099.0</ele><time>2026-04-26T10:48:05.945Z</time></trkpt><trkpt lat="41.7499663" lon="13.9908829"><ele>1099.0</ele><time>2026-04-26T10:48:06.951Z</time></trkpt><trkpt lat="41.7500621" lon="13.990924"><ele>1099.0</ele><time>2026-04-26T10:48:07.948Z</time></trkpt><trkpt lat="41.7501657" lon="13.9910072"><ele>1099.0</ele><time>2026-04-26T10:48:08.947Z</time></trkpt><trkpt lat="41.7502686" lon="13.9911582"><ele>1097.0</ele><time>2026-04-26T10:48:09.937Z</time></trkpt><trkpt lat="41.7504006" lon="13.9912982"><ele>1095.0</ele><time>2026-04-26T10:48:10.943Z</time></trkpt><trkpt lat="41.7505451" lon="13.9914354"><ele>1093.0</ele><time>2026-04-26T10:48:11.941Z</time></trkpt><trkpt lat="41.7507006" lon="13.9915598"><ele>1093.0</ele><time>2026-04-26T10:48:12.953Z</time></trkpt><trkpt lat="41.7508559" lon="13.9916724"><ele>1093.0</ele><time>2026-04-26T10:48:13.949Z</time></trkpt><trkpt lat="41.750999" lon="13.9917709"><ele>1093.0</ele><time>2026-04-26T10:48:14.945Z</time></trkpt><trkpt lat="41.7511291" lon="13.9918578"><ele>1093.25</ele><time>2026-04-26T10:48:15.939Z</time></trkpt><trkpt lat="41.7512507" lon="13.9919239"><ele>1093.5</ele><time>2026-04-26T10:48:16.944Z</time></trkpt><trkpt lat="41.7513711" lon="13.9919589"><ele>1093.75</ele><time>2026-04-26T10:48:17.951Z</time></trkpt><trkpt lat="41.7514976" lon="13.9919925"><ele>1094.0</ele><time>2026-04-26T10:48:18.954Z</time></trkpt><trkpt lat="41.7516288" lon="13.9919856"><ele>1094.0</ele><time>2026-04-26T10:48:19.942Z</time></trkpt><trkpt lat="41.7517679" lon="13.9919898"><ele>1094.0</ele><time>2026-04-26T10:48:20.943Z</time></trkpt><trkpt lat="41.7519072" lon="13.9919899"><ele>1094.0</ele><time>2026-04-26T10:48:21.942Z</time></trkpt><trkpt lat="41.7520493" lon="13.9920118"><ele>1094.0</ele><time>2026-04-26T10:48:22.946Z</time></trkpt><trkpt lat="41.7521889" lon="13.992041"><ele>1093.0</ele><time>2026-04-26T10:48:23.953Z</time></trkpt><trkpt lat="41.7523283" lon="13.9920822"><ele>1092.0</ele><time>2026-04-26T10:48:24.944Z</time></trkpt><trkpt lat="41.7524676" lon="13.9921352"><ele>1091.0</ele><time>2026-04-26T10:48:25.942Z</time></trkpt><trkpt lat="41.7526028" lon="13.9921977"><ele>1090.0</ele><time>2026-04-26T10:48:26.947Z</time></trkpt><trkpt lat="41.752735" lon="13.9922641"><ele>1088.5</ele><time>2026-04-26T10:48:27.945Z</time></trkpt><trkpt lat="41.752867" lon="13.992331"><ele>1087.0</ele><time>2026-04-26T10:48:28.95Z</time></trkpt><trkpt lat="41.7529993" lon="13.9923882"><ele>1085.5</ele><time>2026-04-26T10:48:29.942Z</time></trkpt><trkpt lat="41.753135" lon="13.9924299"><ele>1084.0</ele><time>2026-04-26T10:48:30.944Z</time></trkpt><trkpt lat="41.7532709" lon="13.992459"><ele>1084.0</ele><time>2026-04-26T10:48:31.939Z</time></trkpt><trkpt lat="41.7534063" lon="13.9924862"><ele>1084.0</ele><time>2026-04-26T10:48:32.94Z</time></trkpt><trkpt lat="41.7535405" lon="13.9925184"><ele>1084.0</ele><time>2026-04-26T10:48:33.948Z</time></trkpt><trkpt lat="41.753673" lon="13.992561"><ele>1084.0</ele><time>2026-04-26T10:48:34.949Z</time></trkpt><trkpt lat="41.7538011" lon="13.992609"><ele>1088.0</ele><time>2026-04-26T10:48:35.95Z</time></trkpt><trkpt lat="41.7539225" lon="13.9926512"><ele>1092.0</ele><time>2026-04-26T10:48:36.95Z</time></trkpt><trkpt lat="41.7540412" lon="13.9926669"><ele>1096.0</ele><time>2026-04-26T10:48:37.948Z</time></trkpt><trkpt lat="41.7541617" lon="13.992658"><ele>1100.0</ele><time>2026-04-26T10:48:38.939Z</time></trkpt><trkpt lat="41.754286" lon="13.992627"><ele>1098.5</ele><time>2026-04-26T10:48:39.943Z</time></trkpt><trkpt lat="41.7544118" lon="13.9925843"><ele>1097.0</ele><time>2026-04-26T10:48:40.941Z</time></trkpt><trkpt lat="41.7545393" lon="13.9925503"><ele>1095.5</ele><time>2026-04-26T10:48:41.949Z</time></trkpt><trkpt lat="41.754663" lon="13.9925333"><ele>1094.0</ele><time>2026-04-26T10:48:42.941Z</time></trkpt><trkpt lat="41.7547809" lon="13.9925318"><ele>1094.0</ele><time>2026-04-26T10:48:43.943Z</time></trkpt><trkpt lat="41.7548946" lon="13.992544"><ele>1094.0</ele><time>2026-04-26T10:48:44.943Z</time></trkpt><trkpt lat="41.7550093" lon="13.9925839"><ele>1094.0</ele><time>2026-04-26T10:48:45.947Z</time></trkpt><trkpt lat="41.7551207" lon="13.9926229"><ele>1094.0</ele><time>2026-04-26T10:48:46.94Z</time></trkpt><trkpt lat="41.7552283" lon="13.9926719"><ele>1091.8</ele><time>2026-04-26T10:48:47.956Z</time></trkpt><trkpt lat="41.7553306" lon="13.9927183"><ele>1089.6000000000001</ele><time>2026-04-26T10:48:48.947Z</time></trkpt><trkpt lat="41.7554331" lon="13.9927544"><ele>1087.4</ele><time>2026-04-26T10:48:49.938Z</time></trkpt><trkpt lat="41.7555325" lon="13.9927786"><ele>1085.2</ele><time>2026-04-26T10:48:50.948Z</time></trkpt><trkpt lat="41.7556239" lon="13.9927918"><ele>1083.0</ele><time>2026-04-26T10:48:51.946Z</time></trkpt><trkpt lat="41.755705" lon="13.9927868"><ele>1083.0</ele><time>2026-04-26T10:48:52.945Z</time></trkpt><trkpt lat="41.75578" lon="13.9927871"><ele>1083.0</ele><time>2026-04-26T10:48:53.958Z</time></trkpt><trkpt lat="41.7558491" lon="13.9927744"><ele>1083.0</ele><time>2026-04-26T10:48:54.958Z</time></trkpt><trkpt lat="41.7558951" lon="13.9926754"><ele>1083.0</ele><time>2026-04-26T10:48:56.944Z</time></trkpt><trkpt lat="41.7558872" lon="13.9925543"><ele>1083.0</ele><time>2026-04-26T10:49:12.953Z</time></trkpt><trkpt lat="41.7557992" lon="13.9924913"><ele>1083.0</ele><time>2026-04-26T10:49:16.941Z</time></trkpt><trkpt lat="41.7557062" lon="13.9925351"><ele>1079.8</ele><time>2026-04-26T10:49:19.95Z</time></trkpt><trkpt lat="41.755645" lon="13.992458"><ele>1076.6</ele><time>2026-04-26T10:59:49.925Z</time></trkpt><trkpt lat="41.7555138" lon="13.9924935"><ele>1073.4</ele><time>2026-04-26T11:12:03.946Z</time></trkpt><trkpt lat="41.7554165" lon="13.9924822"><ele>1070.2</ele><time>2026-04-26T11:12:04.95Z</time></trkpt><trkpt lat="41.7552993" lon="13.992436"><ele>1067.0</ele><time>2026-04-26T11:12:05.977Z</time></trkpt><trkpt lat="41.7550231" lon="13.9923156"><ele>1067.0</ele><time>2026-04-26T11:12:07.942Z</time></trkpt><trkpt lat="41.754894" lon="13.9922654"><ele>1067.0</ele><time>2026-04-26T11:12:08.95Z</time></trkpt><trkpt lat="41.7547713" lon="13.9922152"><ele>1067.0</ele><time>2026-04-26T11:12:09.942Z</time></trkpt><trkpt lat="41.7546616" lon="13.9921955"><ele>1067.0</ele><time>2026-04-26T11:12:10.939Z</time></trkpt><trkpt lat="41.7545575" lon="13.9922005"><ele>1067.0</ele><time>2026-04-26T11:12:11.96Z</time></trkpt><trkpt lat="41.7544579" lon="13.9922145"><ele>1067.0</ele><time>2026-04-26T11:12:12.951Z</time></trkpt><trkpt lat="41.7543627" lon="13.9922208"><ele>1067.0</ele><time>2026-04-26T11:12:13.944Z</time></trkpt><trkpt lat="41.7542805" lon="13.992204"><ele>1067.0</ele><time>2026-04-26T11:12:14.95Z</time></trkpt><trkpt lat="41.7542039" lon="13.9921527"><ele>1067.0</ele><time>2026-04-26T11:12:15.954Z</time></trkpt><trkpt lat="41.7541318" lon="13.9920778"><ele>1068.4</ele><time>2026-04-26T11:12:16.948Z</time></trkpt><trkpt lat="41.7540545" lon="13.9919913"><ele>1069.8000000000002</ele><time>2026-04-26T11:12:17.943Z</time></trkpt><trkpt lat="41.7539728" lon="13.9918993"><ele>1071.2</ele><time>2026-04-26T11:12:18.94Z</time></trkpt><trkpt lat="41.753884" lon="13.9917994"><ele>1072.6000000000001</ele><time>2026-04-26T11:12:19.949Z</time></trkpt><trkpt lat="41.7537873" lon="13.9916917"><ele>1074.0</ele><time>2026-04-26T11:12:20.954Z</time></trkpt><trkpt lat="41.7536918" lon="13.9915813"><ele>1071.75</ele><time>2026-04-26T11:12:21.944Z</time></trkpt><trkpt lat="41.753603" lon="13.9914618"><ele>1069.5</ele><time>2026-04-26T11:12:22.956Z</time></trkpt><trkpt lat="41.7535273" lon="13.9913388"><ele>1067.25</ele><time>2026-04-26T11:12:23.949Z</time></trkpt><trkpt lat="41.7534654" lon="13.9912185"><ele>1065.0</ele><time>2026-04-26T11:12:24.945Z</time></trkpt><trkpt lat="41.7534063" lon="13.9910964"><ele>1065.0</ele><time>2026-04-26T11:12:25.941Z</time></trkpt><trkpt lat="41.7533457" lon="13.9909716"><ele>1065.0</ele><time>2026-04-26T11:12:26.947Z</time></trkpt><trkpt lat="41.7532813" lon="13.990849"><ele>1065.0</ele><time>2026-04-26T11:12:27.945Z</time></trkpt><trkpt lat="41.7532077" lon="13.9907393"><ele>1065.0</ele><time>2026-04-26T11:12:28.947Z</time></trkpt><trkpt lat="41.7531211" lon="13.9906504"><ele>1065.0</ele><time>2026-04-26T11:12:29.95Z</time></trkpt><trkpt lat="41.7530192" lon="13.9905883"><ele>1063.75</ele><time>2026-04-26T11:12:30.957Z</time></trkpt><trkpt lat="41.7529088" lon="13.9905411"><ele>1062.5</ele><time>2026-04-26T11:12:31.957Z</time></trkpt><trkpt lat="41.7527928" lon="13.9904943"><ele>1061.25</ele><time>2026-04-26T11:12:32.943Z</time></trkpt><trkpt lat="41.7526805" lon="13.9904359"><ele>1060.0</ele><time>2026-04-26T11:12:33.967Z</time></trkpt><trkpt lat="41.7525782" lon="13.9903621"><ele>1060.0</ele><time>2026-04-26T11:12:34.955Z</time></trkpt><trkpt lat="41.7524949" lon="13.9902801"><ele>1060.0</ele><time>2026-04-26T11:12:35.943Z</time></trkpt><trkpt lat="41.7524211" lon="13.9902066"><ele>1060.0</ele><time>2026-04-26T11:12:36.946Z</time></trkpt><trkpt lat="41.7524089" lon="13.9901049"><ele>1060.0</ele><time>2026-04-26T11:12:37.952Z</time></trkpt><trkpt lat="41.7524367" lon="13.9900114"><ele>1060.0</ele><time>2026-04-26T11:12:38.954Z</time></trkpt><trkpt lat="41.7524978" lon="13.9899495"><ele>1060.0</ele><time>2026-04-26T11:12:39.949Z</time></trkpt><trkpt lat="41.7525838" lon="13.9899337"><ele>1058.25</ele><time>2026-04-26T11:12:40.949Z</time></trkpt><trkpt lat="41.7526815" lon="13.9899689"><ele>1056.5</ele><time>2026-04-26T11:12:41.946Z</time></trkpt><trkpt lat="41.7527922" lon="13.9900098"><ele>1054.75</ele><time>2026-04-26T11:12:42.948Z</time></trkpt><trkpt lat="41.752906" lon="13.99009"><ele>1053.0</ele><time>2026-04-26T11:12:43.957Z</time></trkpt><trkpt lat="41.7530257" lon="13.9901342"><ele>1053.0</ele><time>2026-04-26T11:12:44.937Z</time></trkpt><trkpt lat="41.753141" lon="13.9901364"><ele>1053.0</ele><time>2026-04-26T11:12:45.95Z</time></trkpt><trkpt lat="41.7532404" lon="13.9901157"><ele>1053.0</ele><time>2026-04-26T11:12:46.942Z</time></trkpt><trkpt lat="41.7533388" lon="13.9901104"><ele>1053.0</ele><time>2026-04-26T11:12:47.951Z</time></trkpt><trkpt lat="41.7534414" lon="13.9901386"><ele>1053.0</ele><time>2026-04-26T11:12:48.95Z</time></trkpt><trkpt lat="41.7535343" lon="13.9902137"><ele>1050.0</ele><time>2026-04-26T11:12:49.958Z</time></trkpt><trkpt lat="41.7536124" lon="13.9903209"><ele>1047.0</ele><time>2026-04-26T11:12:50.941Z</time></trkpt><trkpt lat="41.7536775" lon="13.9904553"><ele>1044.0</ele><time>2026-04-26T11:12:51.945Z</time></trkpt><trkpt lat="41.7537383" lon="13.9905924"><ele>1041.0</ele><time>2026-04-26T11:12:52.953Z</time></trkpt><trkpt lat="41.7538171" lon="13.9907139"><ele>1041.0</ele><time>2026-04-26T11:12:53.955Z</time></trkpt><trkpt lat="41.7539165" lon="13.9908048"><ele>1041.0</ele><time>2026-04-26T11:12:54.941Z</time></trkpt><trkpt lat="41.7540275" lon="13.9908751"><ele>1041.0</ele><time>2026-04-26T11:12:55.947Z</time></trkpt><trkpt lat="41.7541382" lon="13.9909194"><ele>1041.0</ele><time>2026-04-26T11:12:56.957Z</time></trkpt><trkpt lat="41.7542465" lon="13.9909266"><ele>1041.3999999999999</ele><time>2026-04-26T11:12:57.948Z</time></trkpt><trkpt lat="41.7543477" lon="13.9909063"><ele>1041.8</ele><time>2026-04-26T11:12:58.943Z</time></trkpt><trkpt lat="41.754439" lon="13.9908494"><ele>1042.1999999999998</ele><time>2026-04-26T11:12:59.966Z</time></trkpt><trkpt lat="41.7545167" lon="13.9907531"><ele>1042.6</ele><time>2026-04-26T11:13:00.953Z</time></trkpt><trkpt lat="41.7545854" lon="13.9906406"><ele>1043.0</ele><time>2026-04-26T11:13:01.951Z</time></trkpt><trkpt lat="41.7546581" lon="13.9905456"><ele>1040.8</ele><time>2026-04-26T11:13:02.948Z</time></trkpt><trkpt lat="41.7547447" lon="13.9904945"><ele>1038.6</ele><time>2026-04-26T11:13:03.95Z</time></trkpt><trkpt lat="41.7548442" lon="13.9904925"><ele>1036.4</ele><time>2026-04-26T11:13:04.946Z</time></trkpt><trkpt lat="41.7549501" lon="13.9905321"><ele>1034.2</ele><time>2026-04-26T11:13:05.949Z</time></trkpt><trkpt lat="41.7550582" lon="13.9905739"><ele>1032.0</ele><time>2026-04-26T11:13:06.949Z</time></trkpt><trkpt lat="41.7551557" lon="13.9906531"><ele>1032.0</ele><time>2026-04-26T11:13:07.942Z</time></trkpt><trkpt lat="41.7552035" lon="13.990771"><ele>1032.0</ele><time>2026-04-26T11:13:08.949Z</time></trkpt><trkpt lat="41.755247" lon="13.9908837"><ele>1032.0</ele><time>2026-04-26T11:13:09.945Z</time></trkpt><trkpt lat="41.7552253" lon="13.9910041"><ele>1032.0</ele><time>2026-04-26T11:13:10.943Z</time></trkpt><trkpt lat="41.755205" lon="13.9911211"><ele>1032.0</ele><time>2026-04-26T11:13:11.955Z</time></trkpt><trkpt lat="41.7552105" lon="13.9912372"><ele>1032.0</ele><time>2026-04-26T11:13:12.95Z</time></trkpt><trkpt lat="41.7552477" lon="13.9913326"><ele>1032.0</ele><time>2026-04-26T11:13:13.94Z</time></trkpt><trkpt lat="41.7553081" lon="13.9914104"><ele>1032.0</ele><time>2026-04-26T11:13:14.952Z</time></trkpt><trkpt lat="41.7553949" lon="13.9914664"><ele>1032.0</ele><time>2026-04-26T11:13:15.945Z</time></trkpt><trkpt lat="41.7554987" lon="13.9915141"><ele>1032.0</ele><time>2026-04-26T11:13:16.938Z</time></trkpt><trkpt lat="41.7556112" lon="13.991566"><ele>1032.0</ele><time>2026-04-26T11:13:17.946Z</time></trkpt><trkpt lat="41.7557292" lon="13.9916247"><ele>1032.0</ele><time>2026-04-26T11:13:18.951Z</time></trkpt><trkpt lat="41.7558521" lon="13.9916859"><ele>1032.0</ele><time>2026-04-26T11:13:19.94Z</time></trkpt><trkpt lat="41.7559671" lon="13.991736"><ele>1032.0</ele><time>2026-04-26T11:13:20.951Z</time></trkpt><trkpt lat="41.7560653" lon="13.9917568"><ele>1031.9999999999998</ele><time>2026-04-26T11:13:21.943Z</time></trkpt><trkpt lat="41.7561479" lon="13.9917348"><ele>1032.0</ele><time>2026-04-26T11:13:22.95Z</time></trkpt><trkpt lat="41.7562068" lon="13.9916744"><ele>1032.0</ele><time>2026-04-26T11:13:23.956Z</time></trkpt><trkpt lat="41.7562291" lon="13.9915904"><ele>1032.0</ele><time>2026-04-26T11:13:24.952Z</time></trkpt><trkpt lat="41.7562147" lon="13.9915048"><ele>1032.0</ele><time>2026-04-26T11:13:25.943Z</time></trkpt><trkpt lat="41.7561719" lon="13.991435"><ele>1031.9999999999998</ele><time>2026-04-26T11:13:26.948Z</time></trkpt><trkpt lat="41.7561083" lon="13.9913795"><ele>1032.0</ele><time>2026-04-26T11:13:27.957Z</time></trkpt><trkpt lat="41.7560314" lon="13.9913293"><ele>1032.0</ele><time>2026-04-26T11:13:28.942Z</time></trkpt><trkpt lat="41.755946" lon="13.9912743"><ele>1032.0</ele><time>2026-04-26T11:13:29.95Z</time></trkpt><trkpt lat="41.7558585" lon="13.9912121"><ele>1032.0</ele><time>2026-04-26T11:13:30.953Z</time></trkpt><trkpt lat="41.7557788" lon="13.9911317"><ele>1032.0</ele><time>2026-04-26T11:13:31.94Z</time></trkpt><trkpt lat="41.7557164" lon="13.9910244"><ele>1032.0</ele><time>2026-04-26T11:13:32.946Z</time></trkpt><trkpt lat="41.7556663" lon="13.990901"><ele>1028.8</ele><time>2026-04-26T11:13:33.948Z</time></trkpt><trkpt lat="41.7556184" lon="13.9907723"><ele>1025.6</ele><time>2026-04-26T11:13:34.953Z</time></trkpt><trkpt lat="41.7555715" lon="13.9906419"><ele>1022.3999999999999</ele><time>2026-04-26T11:13:35.951Z</time></trkpt><trkpt lat="41.7555193" lon="13.9905143"><ele>1019.1999999999999</ele><time>2026-04-26T11:13:36.946Z</time></trkpt><trkpt lat="41.7554546" lon="13.9903973"><ele>1016.0</ele><time>2026-04-26T11:13:37.939Z</time></trkpt><trkpt lat="41.7553903" lon="13.9902841"><ele>1016.0</ele><time>2026-04-26T11:13:38.947Z</time></trkpt><trkpt lat="41.755297" lon="13.9901946"><ele>1016.0</ele><time>2026-04-26T11:13:39.958Z</time></trkpt><trkpt lat="41.7552034" lon="13.9901067"><ele>1016.0</ele><time>2026-04-26T11:13:40.94Z</time></trkpt><trkpt lat="41.7551058" lon="13.9900175"><ele>1016.0</ele><time>2026-04-26T11:13:41.952Z</time></trkpt><trkpt lat="41.7550101" lon="13.9899231"><ele>1016.4</ele><time>2026-04-26T11:13:42.957Z</time></trkpt><trkpt lat="41.7549181" lon="13.9898259"><ele>1016.8</ele><time>2026-04-26T11:13:43.951Z</time></trkpt><trkpt lat="41.7548355" lon="13.9897256"><ele>1017.1999999999999</ele><time>2026-04-26T11:13:44.939Z</time></trkpt><trkpt lat="41.754762" lon="13.9896279"><ele>1017.5999999999999</ele><time>2026-04-26T11:13:45.946Z</time></trkpt><trkpt lat="41.7546959" lon="13.9895366"><ele>1018.0</ele><time>2026-04-26T11:13:46.952Z</time></trkpt><trkpt lat="41.7546315" lon="13.9894516"><ele>1017.9999999999999</ele><time>2026-04-26T11:13:47.946Z</time></trkpt><trkpt lat="41.7545671" lon="13.9893695"><ele>1018.0</ele><time>2026-04-26T11:13:48.949Z</time></trkpt><trkpt lat="41.7545053" lon="13.9892912"><ele>1018.0</ele><time>2026-04-26T11:13:49.949Z</time></trkpt><trkpt lat="41.7544443" lon="13.989215"><ele>1018.0</ele><time>2026-04-26T11:13:50.948Z</time></trkpt><trkpt lat="41.7543872" lon="13.9891387"><ele>1017.9999999999999</ele><time>2026-04-26T11:13:51.949Z</time></trkpt><trkpt lat="41.7543315" lon="13.9890625"><ele>1018.0</ele><time>2026-04-26T11:13:52.958Z</time></trkpt><trkpt lat="41.7542757" lon="13.9889896"><ele>1018.6666666666666</ele><time>2026-04-26T11:13:53.948Z</time></trkpt><trkpt lat="41.7542223" lon="13.9889194"><ele>1019.3333333333333</ele><time>2026-04-26T11:13:54.952Z</time></trkpt><trkpt lat="41.7541712" lon="13.9888507"><ele>1020.0</ele><time>2026-04-26T11:13:55.952Z</time></trkpt><trkpt lat="41.7541243" lon="13.9887817"><ele>1020.6666666666667</ele><time>2026-04-26T11:13:56.96Z</time></trkpt><trkpt lat="41.7540742" lon="13.9886626"><ele>1021.3333333333334</ele><time>2026-04-26T11:13:58.947Z</time></trkpt><trkpt lat="41.7540695" lon="13.9885337"><ele>1022.0</ele><time>2026-04-26T11:14:00.957Z</time></trkpt><trkpt lat="41.7541517" lon="13.988422"><ele>1022.0</ele><time>2026-04-26T11:14:02.941Z</time></trkpt><trkpt lat="41.7542811" lon="13.988409"><ele>1022.0</ele><time>2026-04-26T11:14:04.949Z</time></trkpt><trkpt lat="41.7543731" lon="13.9884908"><ele>1022.0</ele><time>2026-04-26T11:14:05.946Z</time></trkpt><trkpt lat="41.7544808" lon="13.9886327"><ele>1022.0</ele><time>2026-04-26T11:14:06.945Z</time></trkpt><trkpt lat="41.7546034" lon="13.9888143"><ele>1020.6666666666667</ele><time>2026-04-26T11:14:07.957Z</time></trkpt><trkpt lat="41.7547438" lon="13.9890142"><ele>1019.3333333333333</ele><time>2026-04-26T11:14:08.94Z</time></trkpt><trkpt lat="41.7549042" lon="13.9892185"><ele>1018.0</ele><time>2026-04-26T11:14:09.941Z</time></trkpt><trkpt lat="41.7550708" lon="13.9894184"><ele>1013.0</ele><time>2026-04-26T11:14:10.945Z</time></trkpt><trkpt lat="41.7552314" lon="13.9896055"><ele>1008.0</ele><time>2026-04-26T11:14:11.943Z</time></trkpt><trkpt lat="41.7553836" lon="13.9897775"><ele>1003.0</ele><time>2026-04-26T11:14:12.963Z</time></trkpt><trkpt lat="41.755529" lon="13.9899317"><ele>1007.3333333333333</ele><time>2026-04-26T11:14:13.955Z</time></trkpt><trkpt lat="41.7556698" lon="13.990061"><ele>1011.6666666666667</ele><time>2026-04-26T11:14:14.943Z</time></trkpt><trkpt lat="41.7558109" lon="13.9901552"><ele>1016.0</ele><time>2026-04-26T11:14:15.951Z</time></trkpt><trkpt lat="41.7559506" lon="13.9902046"><ele>1015.75</ele><time>2026-04-26T11:14:16.943Z</time></trkpt><trkpt lat="41.7560951" lon="13.990202"><ele>1015.5</ele><time>2026-04-26T11:14:17.945Z</time></trkpt><trkpt lat="41.7562395" lon="13.9901616"><ele>1015.25</ele><time>2026-04-26T11:14:18.942Z</time></trkpt><trkpt lat="41.7563802" lon="13.9900781"><ele>1015.0</ele><time>2026-04-26T11:14:19.958Z</time></trkpt><trkpt lat="41.7565169" lon="13.9899733"><ele>1013.0</ele><time>2026-04-26T11:14:20.957Z</time></trkpt><trkpt lat="41.7566543" lon="13.989862"><ele>1011.0</ele><time>2026-04-26T11:14:21.95Z</time></trkpt><trkpt lat="41.7567913" lon="13.9897476"><ele>1009.0</ele><time>2026-04-26T11:14:22.948Z</time></trkpt><trkpt lat="41.7569291" lon="13.9896306"><ele>1009.0</ele><time>2026-04-26T11:14:23.96Z</time></trkpt><trkpt lat="41.7570655" lon="13.9895048"><ele>1009.0</ele><time>2026-04-26T11:14:24.952Z</time></trkpt><trkpt lat="41.757196" lon="13.9893668"><ele>1009.0</ele><time>2026-04-26T11:14:25.946Z</time></trkpt><trkpt lat="41.7573241" lon="13.9892227"><ele>1009.3333333333333</ele><time>2026-04-26T11:14:26.965Z</time></trkpt><trkpt lat="41.7574518" lon="13.9890776"><ele>1009.6666666666667</ele><time>2026-04-26T11:14:27.96Z</time></trkpt><trkpt lat="41.7575802" lon="13.9889393"><ele>1010.0</ele><time>2026-04-26T11:14:28.944Z</time></trkpt><trkpt lat="41.7577089" lon="13.9888041"><ele>1010.0</ele><time>2026-04-26T11:14:29.945Z</time></trkpt><trkpt lat="41.7578338" lon="13.9886654"><ele>1010.0</ele><time>2026-04-26T11:14:30.957Z</time></trkpt><trkpt lat="41.7579584" lon="13.9885211"><ele>1010.0</ele><time>2026-04-26T11:14:31.954Z</time></trkpt><trkpt lat="41.7580789" lon="13.9883783"><ele>1002.6666666666667</ele><time>2026-04-26T11:14:32.95Z</time></trkpt><trkpt lat="41.7581948" lon="13.9882345"><ele>995.3333333333333</ele><time>2026-04-26T11:14:33.956Z</time></trkpt><trkpt lat="41.7583133" lon="13.9880915"><ele>988.0</ele><time>2026-04-26T11:14:34.958Z</time></trkpt><trkpt lat="41.7584318" lon="13.987963"><ele>989.0</ele><time>2026-04-26T11:14:35.941Z</time></trkpt><trkpt lat="41.7585508" lon="13.9878678"><ele>990.0</ele><time>2026-04-26T11:14:36.952Z</time></trkpt><trkpt lat="41.758673" lon="13.9878106"><ele>991.0</ele><time>2026-04-26T11:14:37.948Z</time></trkpt><trkpt lat="41.7588049" lon="13.9877855"><ele>992.0</ele><time>2026-04-26T11:14:38.944Z</time></trkpt><trkpt lat="41.7589359" lon="13.9877868"><ele>992.0</ele><time>2026-04-26T11:14:39.943Z</time></trkpt><trkpt lat="41.7590562" lon="13.9878113"><ele>992.0</ele><time>2026-04-26T11:14:40.956Z</time></trkpt><trkpt lat="41.7591673" lon="13.9878768"><ele>992.0</ele><time>2026-04-26T11:14:41.949Z</time></trkpt><trkpt lat="41.7592595" lon="13.9879766"><ele>992.0</ele><time>2026-04-26T11:14:42.954Z</time></trkpt><trkpt lat="41.7593371" lon="13.9880994"><ele>991.5</ele><time>2026-04-26T11:14:43.962Z</time></trkpt><trkpt lat="41.7594058" lon="13.9882449"><ele>991.0</ele><time>2026-04-26T11:14:44.953Z</time></trkpt><trkpt lat="41.7594755" lon="13.988392"><ele>990.5</ele><time>2026-04-26T11:14:45.946Z</time></trkpt><trkpt lat="41.7595542" lon="13.9885248"><ele>990.0</ele><time>2026-04-26T11:14:46.95Z</time></trkpt><trkpt lat="41.7596345" lon="13.9886335"><ele>990.0</ele><time>2026-04-26T11:14:47.942Z</time></trkpt><trkpt lat="41.75971" lon="13.9887209"><ele>990.0</ele><time>2026-04-26T11:14:48.947Z</time></trkpt><trkpt lat="41.7598235" lon="13.9887492"><ele>990.0</ele><time>2026-04-26T11:14:49.962Z</time></trkpt><trkpt lat="41.759934" lon="13.9887342"><ele>990.0</ele><time>2026-04-26T11:14:50.948Z</time></trkpt><trkpt lat="41.7600444" lon="13.9887025"><ele>990.0</ele><time>2026-04-26T11:14:51.942Z</time></trkpt><trkpt lat="41.760159" lon="13.9886583"><ele>991.75</ele><time>2026-04-26T11:14:52.944Z</time></trkpt><trkpt lat="41.7602645" lon="13.9886014"><ele>993.5</ele><time>2026-04-26T11:14:53.948Z</time></trkpt><trkpt lat="41.7603602" lon="13.9885289"><ele>995.25</ele><time>2026-04-26T11:14:54.96Z</time></trkpt><trkpt lat="41.7604513" lon="13.9884402"><ele>997.0</ele><time>2026-04-26T11:14:55.956Z</time></trkpt><trkpt lat="41.760536" lon="13.9883343"><ele>997.0</ele><time>2026-04-26T11:14:56.944Z</time></trkpt><trkpt lat="41.7606149" lon="13.9882088"><ele>997.0</ele><time>2026-04-26T11:14:57.951Z</time></trkpt><trkpt lat="41.7606909" lon="13.9880773"><ele>997.0</ele><time>2026-04-26T11:14:58.96Z</time></trkpt><trkpt lat="41.760776" lon="13.987945"><ele>997.0</ele><time>2026-04-26T11:14:59.942Z</time></trkpt><trkpt lat="41.7608756" lon="13.9878185"><ele>997.0</ele><time>2026-04-26T11:15:00.95Z</time></trkpt><trkpt lat="41.7609988" lon="13.9876919"><ele>997.0</ele><time>2026-04-26T11:15:01.948Z</time></trkpt><trkpt lat="41.7611532" lon="13.9875565"><ele>997.0</ele><time>2026-04-26T11:15:02.944Z</time></trkpt><trkpt lat="41.7613309" lon="13.9874185"><ele>995.0</ele><time>2026-04-26T11:15:03.944Z</time></trkpt><trkpt lat="41.7615169" lon="13.9872782"><ele>993.0</ele><time>2026-04-26T11:15:04.951Z</time></trkpt><trkpt lat="41.7617014" lon="13.9871414"><ele>991.0</ele><time>2026-04-26T11:15:05.953Z</time></trkpt><trkpt lat="41.7618784" lon="13.9869986"><ele>992.3333333333333</ele><time>2026-04-26T11:15:06.938Z</time></trkpt><trkpt lat="41.7620437" lon="13.9868432"><ele>993.6666666666667</ele><time>2026-04-26T11:15:07.949Z</time></trkpt><trkpt lat="41.762199" lon="13.9866763"><ele>995.0</ele><time>2026-04-26T11:15:08.95Z</time></trkpt><trkpt lat="41.7623445" lon="13.9865118"><ele>995.0</ele><time>2026-04-26T11:15:09.939Z</time></trkpt><trkpt lat="41.7624754" lon="13.9863485"><ele>995.0</ele><time>2026-04-26T11:15:10.948Z</time></trkpt><trkpt lat="41.7625855" lon="13.9861682"><ele>995.0</ele><time>2026-04-26T11:15:11.943Z</time></trkpt><trkpt lat="41.7626691" lon="13.9859683"><ele>998.0</ele><time>2026-04-26T11:15:12.945Z</time></trkpt><trkpt lat="41.7627242" lon="13.9857573"><ele>1001.0</ele><time>2026-04-26T11:15:13.941Z</time></trkpt><trkpt lat="41.7627466" lon="13.9855334"><ele>1004.0</ele><time>2026-04-26T11:15:14.94Z</time></trkpt><trkpt lat="41.7627629" lon="13.9852911"><ele>1004.0</ele><time>2026-04-26T11:15:15.949Z</time></trkpt><trkpt lat="41.7627335" lon="13.9850426"><ele>1004.0</ele><time>2026-04-26T11:15:16.953Z</time></trkpt><trkpt lat="41.7627036" lon="13.984792"><ele>1004.0</ele><time>2026-04-26T11:15:17.937Z</time></trkpt><trkpt lat="41.7626863" lon="13.9845457"><ele>1003.6666666666667</ele><time>2026-04-26T11:15:18.94Z</time></trkpt><trkpt lat="41.7626993" lon="13.9843032"><ele>1003.3333333333333</ele><time>2026-04-26T11:15:19.954Z</time></trkpt><trkpt lat="41.7627184" lon="13.9840572"><ele>1003.0</ele><time>2026-04-26T11:15:20.939Z</time></trkpt><trkpt lat="41.7627674" lon="13.9838235"><ele>1003.0</ele><time>2026-04-26T11:15:21.938Z</time></trkpt><trkpt lat="41.7628137" lon="13.9835714"><ele>1003.0</ele><time>2026-04-26T11:15:22.946Z</time></trkpt><trkpt lat="41.7628395" lon="13.983322"><ele>1003.0</ele><time>2026-04-26T11:15:23.955Z</time></trkpt><trkpt lat="41.7628387" lon="13.9830631"><ele>1004.0</ele><time>2026-04-26T11:15:24.946Z</time></trkpt><trkpt lat="41.7628131" lon="13.9828033"><ele>1005.0</ele><time>2026-04-26T11:15:25.941Z</time></trkpt><trkpt lat="41.7627928" lon="13.9825382"><ele>1006.0</ele><time>2026-04-26T11:15:26.949Z</time></trkpt><trkpt lat="41.7627929" lon="13.9822603"><ele>1006.0</ele><time>2026-04-26T11:15:27.944Z</time></trkpt><trkpt lat="41.7628069" lon="13.9819815"><ele>1006.0</ele><time>2026-04-26T11:15:28.941Z</time></trkpt><trkpt lat="41.7628212" lon="13.9817017"><ele>1006.0</ele><time>2026-04-26T11:15:29.952Z</time></trkpt><trkpt lat="41.7628302" lon="13.9814219"><ele>1005.0</ele><time>2026-04-26T11:15:30.942Z</time></trkpt><trkpt lat="41.7628387" lon="13.981157"><ele>1004.0</ele><time>2026-04-26T11:15:31.945Z</time></trkpt><trkpt lat="41.7628464" lon="13.9809058"><ele>1003.0</ele><time>2026-04-26T11:15:32.945Z</time></trkpt><trkpt lat="41.7628683" lon="13.9806644"><ele>1002.6666666666666</ele><time>2026-04-26T11:15:33.944Z</time></trkpt><trkpt lat="41.7629135" lon="13.9804295"><ele>1002.3333333333333</ele><time>2026-04-26T11:15:34.945Z</time></trkpt><trkpt lat="41.762979" lon="13.9801911"><ele>1002.0</ele><time>2026-04-26T11:15:35.942Z</time></trkpt><trkpt lat="41.763049" lon="13.9799456"><ele>999.6666666666667</ele><time>2026-04-26T11:15:36.951Z</time></trkpt><trkpt lat="41.7631214" lon="13.9796905"><ele>997.3333333333334</ele><time>2026-04-26T11:15:37.949Z</time></trkpt><trkpt lat="41.7631921" lon="13.9794323"><ele>995.0</ele><time>2026-04-26T11:15:38.942Z</time></trkpt><trkpt lat="41.763274" lon="13.9791651"><ele>992.3333333333334</ele><time>2026-04-26T11:15:39.949Z</time></trkpt><trkpt lat="41.7633575" lon="13.9788907"><ele>989.6666666666667</ele><time>2026-04-26T11:15:40.943Z</time></trkpt><trkpt lat="41.76344" lon="13.9786156"><ele>987.0</ele><time>2026-04-26T11:15:41.941Z</time></trkpt><trkpt lat="41.7635256" lon="13.9783419"><ele>990.6666666666667</ele><time>2026-04-26T11:15:42.982Z</time></trkpt><trkpt lat="41.7636122" lon="13.9780732"><ele>994.3333333333334</ele><time>2026-04-26T11:15:43.952Z</time></trkpt><trkpt lat="41.763708" lon="13.9778171"><ele>998.0</ele><time>2026-04-26T11:15:44.964Z</time></trkpt><trkpt lat="41.7638205" lon="13.9775733"><ele>994.3333333333334</ele><time>2026-04-26T11:15:45.973Z</time></trkpt><trkpt lat="41.7639478" lon="13.9773446"><ele>990.6666666666667</ele><time>2026-04-26T11:15:46.998Z</time></trkpt><trkpt lat="41.7640811" lon="13.9771284"><ele>987.0</ele><time>2026-04-26T11:15:47.95Z</time></trkpt><trkpt lat="41.7642131" lon="13.9769201"><ele>987.0</ele><time>2026-04-26T11:15:48.941Z</time></trkpt><trkpt lat="41.7643313" lon="13.9767142"><ele>987.0</ele><time>2026-04-26T11:15:49.954Z</time></trkpt><trkpt lat="41.764426" lon="13.9765088"><ele>987.0</ele><time>2026-04-26T11:15:50.95Z</time></trkpt><trkpt lat="41.7645144" lon="13.9763096"><ele>991.3333333333333</ele><time>2026-04-26T11:15:51.945Z</time></trkpt><trkpt lat="41.7645434" lon="13.9760958"><ele>995.6666666666666</ele><time>2026-04-26T11:15:52.949Z</time></trkpt><trkpt lat="41.7645499" lon="13.975874"><ele>1000.0</ele><time>2026-04-26T11:15:53.951Z</time></trkpt><trkpt lat="41.7645181" lon="13.9756527"><ele>1000.0</ele><time>2026-04-26T11:15:54.947Z</time></trkpt><trkpt lat="41.764475" lon="13.9754275"><ele>1000.0</ele><time>2026-04-26T11:15:55.943Z</time></trkpt><trkpt lat="41.7644333" lon="13.9751975"><ele>1000.0</ele><time>2026-04-26T11:15:56.95Z</time></trkpt><trkpt lat="41.7643947" lon="13.9749702"><ele>993.0</ele><time>2026-04-26T11:15:57.952Z</time></trkpt><trkpt lat="41.7643617" lon="13.9747375"><ele>986.0</ele><time>2026-04-26T11:15:58.941Z</time></trkpt><trkpt lat="41.7643215" lon="13.9745088"><ele>979.0</ele><time>2026-04-26T11:15:59.941Z</time></trkpt><trkpt lat="41.764286" lon="13.9742786"><ele>981.0</ele><time>2026-04-26T11:16:00.946Z</time></trkpt><trkpt lat="41.7642462" lon="13.9740504"><ele>983.0</ele><time>2026-04-26T11:16:01.942Z</time></trkpt><trkpt lat="41.7642101" lon="13.9738328"><ele>985.0</ele><time>2026-04-26T11:16:02.948Z</time></trkpt><trkpt lat="41.7641841" lon="13.9736217"><ele>985.0</ele><time>2026-04-26T11:16:03.946Z</time></trkpt><trkpt lat="41.7641782" lon="13.9734199"><ele>985.0</ele><time>2026-04-26T11:16:04.949Z</time></trkpt><trkpt lat="41.7641962" lon="13.9732373"><ele>985.0</ele><time>2026-04-26T11:16:05.947Z</time></trkpt><trkpt lat="41.7642277" lon="13.9730682"><ele>985.0</ele><time>2026-04-26T11:16:06.945Z</time></trkpt><trkpt lat="41.7642746" lon="13.9728918"><ele>985.3333333333333</ele><time>2026-04-26T11:16:07.959Z</time></trkpt><trkpt lat="41.7643447" lon="13.9726879"><ele>985.6666666666667</ele><time>2026-04-26T11:16:08.96Z</time></trkpt><trkpt lat="41.7644365" lon="13.9724561"><ele>986.0</ele><time>2026-04-26T11:16:09.945Z</time></trkpt><trkpt lat="41.7645375" lon="13.9722046"><ele>989.5</ele><time>2026-04-26T11:16:10.948Z</time></trkpt><trkpt lat="41.7646438" lon="13.9719407"><ele>993.0</ele><time>2026-04-26T11:16:11.951Z</time></trkpt><trkpt lat="41.7647524" lon="13.9716616"><ele>993.0</ele><time>2026-04-26T11:16:12.947Z</time></trkpt><trkpt lat="41.764865" lon="13.9713704"><ele>993.0</ele><time>2026-04-26T11:16:13.943Z</time></trkpt><trkpt lat="41.7649732" lon="13.9710755"><ele>990.0</ele><time>2026-04-26T11:16:14.945Z</time></trkpt><trkpt lat="41.7650707" lon="13.9707838"><ele>987.0</ele><time>2026-04-26T11:16:15.942Z</time></trkpt><trkpt lat="41.7651582" lon="13.9704962"><ele>992.3333333333333</ele><time>2026-04-26T11:16:16.949Z</time></trkpt><trkpt lat="41.7652409" lon="13.9702155"><ele>997.6666666666666</ele><time>2026-04-26T11:16:17.953Z</time></trkpt><trkpt lat="41.7653189" lon="13.9699419"><ele>1003.0</ele><time>2026-04-26T11:16:18.939Z</time></trkpt><trkpt lat="41.7653936" lon="13.9696721"><ele>1003.0</ele><time>2026-04-26T11:16:19.943Z</time></trkpt><trkpt lat="41.7654606" lon="13.9694004"><ele>1003.0</ele><time>2026-04-26T11:16:20.938Z</time></trkpt><trkpt lat="41.7655196" lon="13.9691259"><ele>1003.0</ele><time>2026-04-26T11:16:21.949Z</time></trkpt><trkpt lat="41.7655717" lon="13.9688479"><ele>1001.3333333333333</ele><time>2026-04-26T11:16:22.947Z</time></trkpt><trkpt lat="41.7656224" lon="13.968573"><ele>999.6666666666667</ele><time>2026-04-26T11:16:23.943Z</time></trkpt><trkpt lat="41.7656648" lon="13.9682967"><ele>998.0</ele><time>2026-04-26T11:16:24.94Z</time></trkpt><trkpt lat="41.7657095" lon="13.968025"><ele>995.6666666666667</ele><time>2026-04-26T11:16:25.948Z</time></trkpt><trkpt lat="41.7657564" lon="13.9677702"><ele>993.3333333333333</ele><time>2026-04-26T11:16:26.941Z</time></trkpt><trkpt lat="41.7658014" lon="13.9675294"><ele>991.0</ele><time>2026-04-26T11:16:27.942Z</time></trkpt><trkpt lat="41.7658419" lon="13.9673008"><ele>990.0</ele><time>2026-04-26T11:16:28.949Z</time></trkpt><trkpt lat="41.7658783" lon="13.9670824"><ele>989.0</ele><time>2026-04-26T11:16:29.949Z</time></trkpt><trkpt lat="41.7659097" lon="13.9668728"><ele>988.0</ele><time>2026-04-26T11:16:30.942Z</time></trkpt><trkpt lat="41.7659431" lon="13.9666615"><ele>986.6666666666666</ele><time>2026-04-26T11:16:31.951Z</time></trkpt><trkpt lat="41.7659768" lon="13.9664486"><ele>985.3333333333333</ele><time>2026-04-26T11:16:32.949Z</time></trkpt><trkpt lat="41.7660143" lon="13.9662283"><ele>984.0</ele><time>2026-04-26T11:16:33.939Z</time></trkpt><trkpt lat="41.766049" lon="13.9660028"><ele>990.6666666666667</ele><time>2026-04-26T11:16:34.95Z</time></trkpt><trkpt lat="41.7660845" lon="13.9657727"><ele>997.3333333333334</ele><time>2026-04-26T11:16:35.945Z</time></trkpt><trkpt lat="41.7661242" lon="13.9655399"><ele>1004.0</ele><time>2026-04-26T11:16:36.943Z</time></trkpt><trkpt lat="41.7661682" lon="13.965304"><ele>1004.0</ele><time>2026-04-26T11:16:37.939Z</time></trkpt><trkpt lat="41.7662212" lon="13.965066"><ele>1004.0</ele><time>2026-04-26T11:16:38.944Z</time></trkpt><trkpt lat="41.766289" lon="13.9648302"><ele>1004.0</ele><time>2026-04-26T11:16:39.946Z</time></trkpt><trkpt lat="41.7663713" lon="13.9645955"><ele>1002.6666666666667</ele><time>2026-04-26T11:16:40.942Z</time></trkpt><trkpt lat="41.7664653" lon="13.964357"><ele>1001.3333333333333</ele><time>2026-04-26T11:16:41.945Z</time></trkpt><trkpt lat="41.7665654" lon="13.9641118"><ele>1000.0</ele><time>2026-04-26T11:16:42.945Z</time></trkpt><trkpt lat="41.7666725" lon="13.9638615"><ele>999.0</ele><time>2026-04-26T11:16:43.955Z</time></trkpt><trkpt lat="41.7667802" lon="13.9636068"><ele>998.0</ele><time>2026-04-26T11:16:44.949Z</time></trkpt><trkpt lat="41.7668887" lon="13.9633479"><ele>997.0</ele><time>2026-04-26T11:16:45.939Z</time></trkpt><trkpt lat="41.7669954" lon="13.9630877"><ele>997.0</ele><time>2026-04-26T11:16:46.943Z</time></trkpt><trkpt lat="41.7671025" lon="13.9628265"><ele>997.0</ele><time>2026-04-26T11:16:47.954Z</time></trkpt><trkpt lat="41.7672126" lon="13.9625666"><ele>997.0</ele><time>2026-04-26T11:16:48.942Z</time></trkpt><trkpt lat="41.7673213" lon="13.962306"><ele>992.5</ele><time>2026-04-26T11:16:49.938Z</time></trkpt><trkpt lat="41.7674337" lon="13.9620451"><ele>988.0</ele><time>2026-04-26T11:16:50.95Z</time></trkpt><trkpt lat="41.7675474" lon="13.9617825"><ele>983.5</ele><time>2026-04-26T11:16:51.94Z</time></trkpt><trkpt lat="41.7676618" lon="13.9615172"><ele>979.0</ele><time>2026-04-26T11:16:52.939Z</time></trkpt><trkpt lat="41.7677767" lon="13.9612481"><ele>984.5</ele><time>2026-04-26T11:16:53.94Z</time></trkpt><trkpt lat="41.7678917" lon="13.9609736"><ele>990.0</ele><time>2026-04-26T11:16:54.941Z</time></trkpt><trkpt lat="41.768006" lon="13.9606975"><ele>990.0</ele><time>2026-04-26T11:16:55.945Z</time></trkpt><trkpt lat="41.7681221" lon="13.9604191"><ele>990.0</ele><time>2026-04-26T11:16:56.942Z</time></trkpt><trkpt lat="41.7682408" lon="13.9601398"><ele>985.5</ele><time>2026-04-26T11:16:57.952Z</time></trkpt><trkpt lat="41.7683617" lon="13.9598588"><ele>981.0</ele><time>2026-04-26T11:16:58.948Z</time></trkpt><trkpt lat="41.7684826" lon="13.959576"><ele>987.5</ele><time>2026-04-26T11:16:59.946Z</time></trkpt><trkpt lat="41.7686023" lon="13.9592918"><ele>994.0</ele><time>2026-04-26T11:17:00.941Z</time></trkpt><trkpt lat="41.7687228" lon="13.9590105"><ele>994.0</ele><time>2026-04-26T11:17:01.948Z</time></trkpt><trkpt lat="41.7688404" lon="13.9587374"><ele>994.0</ele><time>2026-04-26T11:17:02.944Z</time></trkpt><trkpt lat="41.7689526" lon="13.9584739"><ele>992.0</ele><time>2026-04-26T11:17:03.945Z</time></trkpt><trkpt lat="41.7690538" lon="13.9582147"><ele>990.0</ele><time>2026-04-26T11:17:04.953Z</time></trkpt><trkpt lat="41.7691388" lon="13.9579545"><ele>988.0</ele><time>2026-04-26T11:17:05.949Z</time></trkpt><trkpt lat="41.7692" lon="13.9576863"><ele>987.0</ele><time>2026-04-26T11:17:06.949Z</time></trkpt><trkpt lat="41.7692358" lon="13.9574118"><ele>986.0</ele><time>2026-04-26T11:17:07.952Z</time></trkpt><trkpt lat="41.7692549" lon="13.9571339"><ele>985.0</ele><time>2026-04-26T11:17:08.937Z</time></trkpt><trkpt lat="41.7692697" lon="13.956841"><ele>985.0</ele><time>2026-04-26T11:17:09.946Z</time></trkpt><trkpt lat="41.7692853" lon="13.9565462"><ele>985.0</ele><time>2026-04-26T11:17:10.942Z</time></trkpt><trkpt lat="41.7693023" lon="13.9562643"><ele>985.0</ele><time>2026-04-26T11:17:11.949Z</time></trkpt><trkpt lat="41.7693221" lon="13.9559978"><ele>984.3333333333333</ele><time>2026-04-26T11:17:12.94Z</time></trkpt><trkpt lat="41.7693469" lon="13.9557462"><ele>983.6666666666667</ele><time>2026-04-26T11:17:13.94Z</time></trkpt><trkpt lat="41.7693733" lon="13.9555105"><ele>983.0</ele><time>2026-04-26T11:17:14.942Z</time></trkpt><trkpt lat="41.7694294" lon="13.9552909"><ele>986.3333333333334</ele><time>2026-04-26T11:17:15.939Z</time></trkpt><trkpt lat="41.7695" lon="13.9550858"><ele>989.6666666666667</ele><time>2026-04-26T11:17:16.939Z</time></trkpt><trkpt lat="41.7695879" lon="13.9548988"><ele>993.0</ele><time>2026-04-26T11:17:17.953Z</time></trkpt><trkpt lat="41.7696989" lon="13.9547312"><ele>993.0</ele><time>2026-04-26T11:17:18.956Z</time></trkpt><trkpt lat="41.7698217" lon="13.954575"><ele>993.0</ele><time>2026-04-26T11:17:19.947Z</time></trkpt><trkpt lat="41.7699505" lon="13.9544248"><ele>993.0</ele><time>2026-04-26T11:17:20.956Z</time></trkpt><trkpt lat="41.7700878" lon="13.9542755"><ele>992.3333333333333</ele><time>2026-04-26T11:17:21.946Z</time></trkpt><trkpt lat="41.7702312" lon="13.9541433"><ele>991.6666666666666</ele><time>2026-04-26T11:17:22.939Z</time></trkpt><trkpt lat="41.7703831" lon="13.9540362"><ele>991.0</ele><time>2026-04-26T11:17:23.946Z</time></trkpt><trkpt lat="41.7705363" lon="13.9539601"><ele>991.0</ele><time>2026-04-26T11:17:24.946Z</time></trkpt><trkpt lat="41.7706891" lon="13.9538962"><ele>991.0</ele><time>2026-04-26T11:17:25.94Z</time></trkpt><trkpt lat="41.77084" lon="13.9538394"><ele>991.0</ele><time>2026-04-26T11:17:26.953Z</time></trkpt><trkpt lat="41.7709844" lon="13.9537863"><ele>990.75</ele><time>2026-04-26T11:17:27.958Z</time></trkpt><trkpt lat="41.7711185" lon="13.9537174"><ele>990.5</ele><time>2026-04-26T11:17:28.936Z</time></trkpt><trkpt lat="41.7712297" lon="13.9536104"><ele>990.25</ele><time>2026-04-26T11:17:29.946Z</time></trkpt><trkpt lat="41.7713305" lon="13.9534885"><ele>990.0</ele><time>2026-04-26T11:17:30.955Z</time></trkpt><trkpt lat="41.7713887" lon="13.9533188"><ele>990.0</ele><time>2026-04-26T11:17:31.937Z</time></trkpt><trkpt lat="41.7714418" lon="13.95315"><ele>990.0</ele><time>2026-04-26T11:17:32.939Z</time></trkpt><trkpt lat="41.7714928" lon="13.9529674"><ele>990.0</ele><time>2026-04-26T11:17:33.948Z</time></trkpt><trkpt lat="41.7715441" lon="13.9527868"><ele>990.0</ele><time>2026-04-26T11:17:34.951Z</time></trkpt><trkpt lat="41.7715981" lon="13.9526065"><ele>988.25</ele><time>2026-04-26T11:17:35.947Z</time></trkpt><trkpt lat="41.7716488" lon="13.9524247"><ele>986.5</ele><time>2026-04-26T11:17:36.944Z</time></trkpt><trkpt lat="41.7717016" lon="13.9522404"><ele>984.75</ele><time>2026-04-26T11:17:37.942Z</time></trkpt><trkpt lat="41.7717564" lon="13.9520503"><ele>983.0</ele><time>2026-04-26T11:17:38.955Z</time></trkpt><trkpt lat="41.7718182" lon="13.9518569"><ele>987.3333333333334</ele><time>2026-04-26T11:17:39.946Z</time></trkpt><trkpt lat="41.7718885" lon="13.9516638"><ele>991.6666666666667</ele><time>2026-04-26T11:17:40.936Z</time></trkpt><trkpt lat="41.7719733" lon="13.9514781"><ele>996.0</ele><time>2026-04-26T11:17:41.956Z</time></trkpt><trkpt lat="41.7720717" lon="13.9513031"><ele>996.0</ele><time>2026-04-26T11:17:42.936Z</time></trkpt><trkpt lat="41.7721767" lon="13.9511333"><ele>996.0</ele><time>2026-04-26T11:17:43.943Z</time></trkpt><trkpt lat="41.7722837" lon="13.9509626"><ele>996.0</ele><time>2026-04-26T11:17:44.94Z</time></trkpt><trkpt lat="41.7723917" lon="13.9507904"><ele>996.3333333333333</ele><time>2026-04-26T11:17:45.941Z</time></trkpt><trkpt lat="41.7725037" lon="13.9506156"><ele>996.6666666666666</ele><time>2026-04-26T11:17:46.942Z</time></trkpt><trkpt lat="41.7726167" lon="13.9504364"><ele>997.0</ele><time>2026-04-26T11:17:47.951Z</time></trkpt><trkpt lat="41.7727303" lon="13.9502514"><ele>997.0</ele><time>2026-04-26T11:17:48.942Z</time></trkpt><trkpt lat="41.772845" lon="13.9500617"><ele>997.0</ele><time>2026-04-26T11:17:49.944Z</time></trkpt><trkpt lat="41.7729632" lon="13.9498726"><ele>997.0</ele><time>2026-04-26T11:17:50.947Z</time></trkpt><trkpt lat="41.7730833" lon="13.94968"><ele>993.6666666666666</ele><time>2026-04-26T11:17:51.95Z</time></trkpt><trkpt lat="41.7732038" lon="13.9494839"><ele>990.3333333333333</ele><time>2026-04-26T11:17:52.938Z</time></trkpt><trkpt lat="41.7733243" lon="13.9492888"><ele>987.0</ele><time>2026-04-26T11:17:53.94Z</time></trkpt><trkpt lat="41.7734438" lon="13.9490998"><ele>988.3333333333333</ele><time>2026-04-26T11:17:54.944Z</time></trkpt><trkpt lat="41.7735614" lon="13.9489187"><ele>989.6666666666666</ele><time>2026-04-26T11:17:55.952Z</time></trkpt><trkpt lat="41.7736445" lon="13.9487082"><ele>991.0</ele><time>2026-04-26T11:17:56.95Z</time></trkpt><trkpt lat="41.7737009" lon="13.9484872"><ele>989.0</ele><time>2026-04-26T11:17:57.943Z</time></trkpt><trkpt lat="41.7737301" lon="13.9482599"><ele>987.0</ele><time>2026-04-26T11:17:58.951Z</time></trkpt><trkpt lat="41.7737564" lon="13.9480382"><ele>985.0</ele><time>2026-04-26T11:17:59.942Z</time></trkpt><trkpt lat="41.7737657" lon="13.9478215"><ele>985.0</ele><time>2026-04-26T11:18:00.939Z</time></trkpt><trkpt lat="41.7737825" lon="13.9476153"><ele>985.0</ele><time>2026-04-26T11:18:01.945Z</time></trkpt><trkpt lat="41.7737849" lon="13.9474267"><ele>985.0</ele><time>2026-04-26T11:18:02.948Z</time></trkpt><trkpt lat="41.7738005" lon="13.9472281"><ele>985.0</ele><time>2026-04-26T11:18:03.94Z</time></trkpt><trkpt lat="41.7738133" lon="13.9470447"><ele>984.75</ele><time>2026-04-26T11:18:04.946Z</time></trkpt><trkpt lat="41.7738278" lon="13.9468709"><ele>984.5</ele><time>2026-04-26T11:18:05.94Z</time></trkpt><trkpt lat="41.7738409" lon="13.9467004"><ele>984.25</ele><time>2026-04-26T11:18:06.942Z</time></trkpt><trkpt lat="41.7738534" lon="13.9465397"><ele>984.0</ele><time>2026-04-26T11:18:07.948Z</time></trkpt><trkpt lat="41.7738625" lon="13.9463791"><ele>983.8000000000001</ele><time>2026-04-26T11:18:08.945Z</time></trkpt><trkpt lat="41.773874" lon="13.9462279"><ele>983.6000000000001</ele><time>2026-04-26T11:18:09.955Z</time></trkpt><trkpt lat="41.7738858" lon="13.9460842"><ele>983.4</ele><time>2026-04-26T11:18:10.951Z</time></trkpt><trkpt lat="41.7738953" lon="13.945952"><ele>983.2</ele><time>2026-04-26T11:18:11.941Z</time></trkpt><trkpt lat="41.7739009" lon="13.9458309"><ele>983.0</ele><time>2026-04-26T11:18:12.948Z</time></trkpt><trkpt lat="41.7739076" lon="13.9457186"><ele>982.8333333333334</ele><time>2026-04-26T11:18:13.946Z</time></trkpt><trkpt lat="41.7739195" lon="13.9456138"><ele>982.6666666666667</ele><time>2026-04-26T11:18:14.949Z</time></trkpt><trkpt lat="41.7739277" lon="13.9455018"><ele>982.5</ele><time>2026-04-26T11:18:15.95Z</time></trkpt><trkpt lat="41.7739422" lon="13.945387"><ele>982.3333333333333</ele><time>2026-04-26T11:18:16.945Z</time></trkpt><trkpt lat="41.7739502" lon="13.9452749"><ele>982.1666666666666</ele><time>2026-04-26T11:18:17.947Z</time></trkpt><trkpt lat="41.7739633" lon="13.9451559"><ele>982.0</ele><time>2026-04-26T11:18:18.947Z</time></trkpt><trkpt lat="41.7739733" lon="13.9450321"><ele>981.75</ele><time>2026-04-26T11:18:19.962Z</time></trkpt><trkpt lat="41.7739879" lon="13.9449041"><ele>981.5</ele><time>2026-04-26T11:18:20.948Z</time></trkpt><trkpt lat="41.7740159" lon="13.9447701"><ele>981.25</ele><time>2026-04-26T11:18:21.949Z</time></trkpt><trkpt lat="41.7740608" lon="13.9446217"><ele>981.0</ele><time>2026-04-26T11:18:22.956Z</time></trkpt><trkpt lat="41.7741176" lon="13.9444646"><ele>981.0</ele><time>2026-04-26T11:18:23.952Z</time></trkpt><trkpt lat="41.7741825" lon="13.9442969"><ele>981.0</ele><time>2026-04-26T11:18:24.946Z</time></trkpt><trkpt lat="41.7742504" lon="13.9441234"><ele>981.0</ele><time>2026-04-26T11:18:25.948Z</time></trkpt><trkpt lat="41.7743214" lon="13.9439478"><ele>981.0</ele><time>2026-04-26T11:18:26.954Z</time></trkpt><trkpt lat="41.7743946" lon="13.9437702"><ele>982.0</ele><time>2026-04-26T11:18:27.958Z</time></trkpt><trkpt lat="41.7744687" lon="13.9435896"><ele>983.0</ele><time>2026-04-26T11:18:28.949Z</time></trkpt><trkpt lat="41.7745411" lon="13.943408"><ele>984.0</ele><time>2026-04-26T11:18:29.94Z</time></trkpt><trkpt lat="41.7746157" lon="13.9432247"><ele>984.0</ele><time>2026-04-26T11:18:30.943Z</time></trkpt><trkpt lat="41.7746896" lon="13.9430435"><ele>984.0</ele><time>2026-04-26T11:18:31.951Z</time></trkpt><trkpt lat="41.7747641" lon="13.9428608"><ele>984.0</ele><time>2026-04-26T11:18:32.943Z</time></trkpt><trkpt lat="41.7748397" lon="13.942682"><ele>984.25</ele><time>2026-04-26T11:18:33.949Z</time></trkpt><trkpt lat="41.77491" lon="13.9425049"><ele>984.5</ele><time>2026-04-26T11:18:34.955Z</time></trkpt><trkpt lat="41.7749783" lon="13.9423298"><ele>984.75</ele><time>2026-04-26T11:18:35.938Z</time></trkpt><trkpt lat="41.7750459" lon="13.9421593"><ele>985.0</ele><time>2026-04-26T11:18:36.947Z</time></trkpt><trkpt lat="41.7751143" lon="13.9419908"><ele>985.0</ele><time>2026-04-26T11:18:37.943Z</time></trkpt><trkpt lat="41.7751822" lon="13.9418266"><ele>985.0</ele><time>2026-04-26T11:18:38.94Z</time></trkpt><trkpt lat="41.7752504" lon="13.9416669"><ele>985.0</ele><time>2026-04-26T11:18:39.95Z</time></trkpt><trkpt lat="41.775315" lon="13.9415083"><ele>985.0</ele><time>2026-04-26T11:18:40.953Z</time></trkpt><trkpt lat="41.775381" lon="13.9413488"><ele>985.0</ele><time>2026-04-26T11:18:41.938Z</time></trkpt><trkpt lat="41.7754456" lon="13.9411851"><ele>985.0</ele><time>2026-04-26T11:18:42.949Z</time></trkpt><trkpt lat="41.7755111" lon="13.9410232"><ele>985.0</ele><time>2026-04-26T11:18:43.946Z</time></trkpt><trkpt lat="41.7755788" lon="13.9408613"><ele>985.0</ele><time>2026-04-26T11:18:44.94Z</time></trkpt><trkpt lat="41.7756453" lon="13.9406965"><ele>984.75</ele><time>2026-04-26T11:18:45.952Z</time></trkpt><trkpt lat="41.7757131" lon="13.9405297"><ele>984.5</ele><time>2026-04-26T11:18:46.949Z</time></trkpt><trkpt lat="41.7757811" lon="13.940366"><ele>984.25</ele><time>2026-04-26T11:18:47.942Z</time></trkpt><trkpt lat="41.7758485" lon="13.9402037"><ele>984.0</ele><time>2026-04-26T11:18:48.948Z</time></trkpt><trkpt lat="41.7759145" lon="13.9400434"><ele>983.75</ele><time>2026-04-26T11:18:49.944Z</time></trkpt><trkpt lat="41.77598" lon="13.9398832"><ele>983.5</ele><time>2026-04-26T11:18:50.945Z</time></trkpt><trkpt lat="41.7760442" lon="13.9397271"><ele>983.25</ele><time>2026-04-26T11:18:51.942Z</time></trkpt><trkpt lat="41.7761052" lon="13.9395796"><ele>983.0</ele><time>2026-04-26T11:18:52.94Z</time></trkpt><trkpt lat="41.7761602" lon="13.9394476"><ele>983.6666666666667</ele><time>2026-04-26T11:18:53.936Z</time></trkpt><trkpt lat="41.7762082" lon="13.9393307"><ele>984.3333333333334</ele><time>2026-04-26T11:18:54.954Z</time></trkpt><trkpt lat="41.77625" lon="13.9392289"><ele>985.0</ele><time>2026-04-26T11:18:55.942Z</time></trkpt><trkpt lat="41.7762874" lon="13.9391332"><ele>985.6666666666667</ele><time>2026-04-26T11:18:56.941Z</time></trkpt><trkpt lat="41.7763221" lon="13.9390435"><ele>986.3333333333334</ele><time>2026-04-26T11:18:57.952Z</time></trkpt><trkpt lat="41.7763538" lon="13.9389616"><ele>987.0</ele><time>2026-04-26T11:18:58.939Z</time></trkpt><trkpt lat="41.7764004" lon="13.9388389"><ele>987.0</ele><time>2026-04-26T11:19:00.95Z</time></trkpt><trkpt lat="41.7764451" lon="13.9387374"><ele>987.0</ele><time>2026-04-26T11:19:02.944Z</time></trkpt><trkpt lat="41.776491" lon="13.9386269"><ele>987.0</ele><time>2026-04-26T11:19:04.948Z</time></trkpt><trkpt lat="41.7765178" lon="13.9385394"><ele>987.0</ele><time>2026-04-26T11:19:06.954Z</time></trkpt><trkpt lat="41.7765295" lon="13.9384338"><ele>987.0</ele><time>2026-04-26T11:19:09.941Z</time></trkpt><trkpt lat="41.7765088" lon="13.938317"><ele>987.0</ele><time>2026-04-26T11:19:11.954Z</time></trkpt><trkpt lat="41.7764767" lon="13.9381639"><ele>987.1666666666666</ele><time>2026-04-26T11:19:13.941Z</time></trkpt><trkpt lat="41.7764542" lon="13.9380697"><ele>987.3333333333333</ele><time>2026-04-26T11:19:14.947Z</time></trkpt><trkpt lat="41.7764279" lon="13.9379798"><ele>987.5</ele><time>2026-04-26T11:19:15.949Z</time></trkpt><trkpt lat="41.7763993" lon="13.9378923"><ele>987.6666666666666</ele><time>2026-04-26T11:19:16.947Z</time></trkpt><trkpt lat="41.7763699" lon="13.9377936"><ele>987.8333333333333</ele><time>2026-04-26T11:19:17.942Z</time></trkpt><trkpt lat="41.7763367" lon="13.9376984"><ele>988.0</ele><time>2026-04-26T11:19:18.949Z</time></trkpt><trkpt lat="41.7763005" lon="13.9376042"><ele>988.4999999999999</ele><time>2026-04-26T11:19:19.953Z</time></trkpt><trkpt lat="41.776265" lon="13.9375125"><ele>989.0</ele><time>2026-04-26T11:19:20.947Z</time></trkpt><trkpt lat="41.7762297" lon="13.9374201"><ele>989.5</ele><time>2026-04-26T11:19:21.937Z</time></trkpt><trkpt lat="41.7761979" lon="13.9373201"><ele>990.0</ele><time>2026-04-26T11:19:22.945Z</time></trkpt><trkpt lat="41.7761703" lon="13.9372161"><ele>990.4999999999999</ele><time>2026-04-26T11:19:23.947Z</time></trkpt><trkpt lat="41.7761415" lon="13.9371134"><ele>991.0</ele><time>2026-04-26T11:19:24.946Z</time></trkpt><trkpt lat="41.7761137" lon="13.9370097"><ele>990.9999999999999</ele><time>2026-04-26T11:19:25.94Z</time></trkpt><trkpt lat="41.7760861" lon="13.9369041"><ele>991.0</ele><time>2026-04-26T11:19:26.949Z</time></trkpt><trkpt lat="41.7760642" lon="13.936797"><ele>991.0</ele><time>2026-04-26T11:19:27.951Z</time></trkpt><trkpt lat="41.7760447" lon="13.9366914"><ele>991.0</ele><time>2026-04-26T11:19:28.945Z</time></trkpt><trkpt lat="41.7760269" lon="13.9365888"><ele>990.9999999999999</ele><time>2026-04-26T11:19:29.942Z</time></trkpt><trkpt lat="41.7760101" lon="13.9364865"><ele>991.0</ele><time>2026-04-26T11:19:30.94Z</time></trkpt><trkpt lat="41.7759915" lon="13.9363815"><ele>990.4</ele><time>2026-04-26T11:19:31.948Z</time></trkpt><trkpt lat="41.7759712" lon="13.9362714"><ele>989.8</ele><time>2026-04-26T11:19:32.94Z</time></trkpt><trkpt lat="41.7759481" lon="13.9361553"><ele>989.1999999999999</ele><time>2026-04-26T11:19:33.944Z</time></trkpt><trkpt lat="41.7759213" lon="13.9360363"><ele>988.5999999999999</ele><time>2026-04-26T11:19:34.959Z</time></trkpt><trkpt lat="41.7758927" lon="13.9359159"><ele>988.0</ele><time>2026-04-26T11:19:35.958Z</time></trkpt><trkpt lat="41.7758633" lon="13.9357971"><ele>988.0</ele><time>2026-04-26T11:19:36.954Z</time></trkpt><trkpt lat="41.7758333" lon="13.9356793"><ele>988.0</ele><time>2026-04-26T11:19:37.947Z</time></trkpt><trkpt lat="41.7758101" lon="13.9355563"><ele>988.0</ele><time>2026-04-26T11:19:38.954Z</time></trkpt><trkpt lat="41.7757816" lon="13.9354405"><ele>988.0</ele><time>2026-04-26T11:19:39.949Z</time></trkpt><trkpt lat="41.7757554" lon="13.9353216"><ele>988.0</ele><time>2026-04-26T11:19:40.943Z</time></trkpt><trkpt lat="41.7757197" lon="13.9352046"><ele>987.9999999999999</ele><time>2026-04-26T11:19:41.948Z</time></trkpt><trkpt lat="41.7756883" lon="13.9350869"><ele>988.0</ele><time>2026-04-26T11:19:42.942Z</time></trkpt><trkpt lat="41.7756656" lon="13.9349662"><ele>988.0</ele><time>2026-04-26T11:19:43.943Z</time></trkpt><trkpt lat="41.7756463" lon="13.9348632"><ele>988.0</ele><time>2026-04-26T11:19:44.945Z</time></trkpt><trkpt lat="41.7756304" lon="13.9347636"><ele>987.9999999999999</ele><time>2026-04-26T11:19:45.949Z</time></trkpt><trkpt lat="41.7756178" lon="13.9346687"><ele>988.0</ele><time>2026-04-26T11:19:46.937Z</time></trkpt><trkpt lat="41.77562" lon="13.9345693"><ele>988.4999999999999</ele><time>2026-04-26T11:19:47.948Z</time></trkpt><trkpt lat="41.7756358" lon="13.9344582"><ele>989.0</ele><time>2026-04-26T11:19:48.95Z</time></trkpt><trkpt lat="41.7756451" lon="13.9343482"><ele>989.5</ele><time>2026-04-26T11:19:49.949Z</time></trkpt><trkpt lat="41.7756563" lon="13.9342346"><ele>990.0</ele><time>2026-04-26T11:19:50.938Z</time></trkpt><trkpt lat="41.775669" lon="13.9341209"><ele>990.4999999999999</ele><time>2026-04-26T11:19:51.95Z</time></trkpt><trkpt lat="41.7756831" lon="13.9340056"><ele>991.0</ele><time>2026-04-26T11:19:52.947Z</time></trkpt><trkpt lat="41.7756934" lon="13.9338969"><ele>991.1666666666666</ele><time>2026-04-26T11:19:53.936Z</time></trkpt><trkpt lat="41.7757002" lon="13.9338018"><ele>991.3333333333333</ele><time>2026-04-26T11:19:54.944Z</time></trkpt><trkpt lat="41.7757041" lon="13.93371"><ele>991.5</ele><time>2026-04-26T11:19:55.951Z</time></trkpt><trkpt lat="41.7757078" lon="13.9336126"><ele>991.6666666666667</ele><time>2026-04-26T11:19:56.942Z</time></trkpt><trkpt lat="41.7757199" lon="13.9335043"><ele>991.8333333333334</ele><time>2026-04-26T11:19:57.941Z</time></trkpt><trkpt lat="41.7757432" lon="13.9333804"><ele>992.0</ele><time>2026-04-26T11:19:58.945Z</time></trkpt><trkpt lat="41.7757769" lon="13.9332462"><ele>991.25</ele><time>2026-04-26T11:19:59.967Z</time></trkpt><trkpt lat="41.7758141" lon="13.933096"><ele>990.5</ele><time>2026-04-26T11:20:00.949Z</time></trkpt><trkpt lat="41.7758552" lon="13.9329283"><ele>989.75</ele><time>2026-04-26T11:20:01.94Z</time></trkpt><trkpt lat="41.7758999" lon="13.9327466"><ele>989.0</ele><time>2026-04-26T11:20:02.953Z</time></trkpt><trkpt lat="41.7759408" lon="13.9325634"><ele>988.25</ele><time>2026-04-26T11:20:03.949Z</time></trkpt><trkpt lat="41.775976" lon="13.9323908"><ele>987.5</ele><time>2026-04-26T11:20:04.94Z</time></trkpt><trkpt lat="41.7760114" lon="13.9322198"><ele>986.75</ele><time>2026-04-26T11:20:05.952Z</time></trkpt><trkpt lat="41.7760419" lon="13.9320535"><ele>986.0</ele><time>2026-04-26T11:20:06.954Z</time></trkpt><trkpt lat="41.7760721" lon="13.9318917"><ele>992.5</ele><time>2026-04-26T11:20:07.943Z</time></trkpt><trkpt lat="41.7760977" lon="13.9317241"><ele>999.0</ele><time>2026-04-26T11:20:08.95Z</time></trkpt><trkpt lat="41.7761242" lon="13.9315632"><ele>1005.5</ele><time>2026-04-26T11:20:09.959Z</time></trkpt><trkpt lat="41.7761493" lon="13.9314013"><ele>1012.0</ele><time>2026-04-26T11:20:10.951Z</time></trkpt><trkpt lat="41.7761708" lon="13.9312357"><ele>1012.0</ele><time>2026-04-26T11:20:11.946Z</time></trkpt><trkpt lat="41.7761936" lon="13.9310492"><ele>1012.0</ele><time>2026-04-26T11:20:12.941Z</time></trkpt><trkpt lat="41.7762194" lon="13.9308423"><ele>1012.0</ele><time>2026-04-26T11:20:13.943Z</time></trkpt><trkpt lat="41.7762472" lon="13.93062"><ele>1010.3333333333333</ele><time>2026-04-26T11:20:14.939Z</time></trkpt><trkpt lat="41.7762754" lon="13.9303975"><ele>1008.6666666666667</ele><time>2026-04-26T11:20:15.946Z</time></trkpt><trkpt lat="41.7763015" lon="13.9301767"><ele>1007.0</ele><time>2026-04-26T11:20:16.956Z</time></trkpt><trkpt lat="41.7763304" lon="13.9299567"><ele>1006.3333333333334</ele><time>2026-04-26T11:20:17.94Z</time></trkpt><trkpt lat="41.7763592" lon="13.9297396"><ele>1005.6666666666667</ele><time>2026-04-26T11:20:18.945Z</time></trkpt><trkpt lat="41.7763875" lon="13.9295255"><ele>1005.0</ele><time>2026-04-26T11:20:19.948Z</time></trkpt><trkpt lat="41.7764152" lon="13.9293153"><ele>1002.3333333333333</ele><time>2026-04-26T11:20:20.939Z</time></trkpt><trkpt lat="41.776447" lon="13.9291143"><ele>999.6666666666666</ele><time>2026-04-26T11:20:21.945Z</time></trkpt><trkpt lat="41.7764748" lon="13.9289025"><ele>997.0</ele><time>2026-04-26T11:20:22.945Z</time></trkpt><trkpt lat="41.7764996" lon="13.9286947"><ele>997.0</ele><time>2026-04-26T11:20:23.941Z</time></trkpt><trkpt lat="41.7765096" lon="13.9284754"><ele>997.0</ele><time>2026-04-26T11:20:24.94Z</time></trkpt><trkpt lat="41.7765191" lon="13.9282558"><ele>997.0</ele><time>2026-04-26T11:20:25.945Z</time></trkpt><trkpt lat="41.7765311" lon="13.9280383"><ele>996.25</ele><time>2026-04-26T11:20:26.94Z</time></trkpt><trkpt lat="41.7765405" lon="13.9278293"><ele>995.5</ele><time>2026-04-26T11:20:27.945Z</time></trkpt><trkpt lat="41.7765453" lon="13.9276288"><ele>994.75</ele><time>2026-04-26T11:20:28.945Z</time></trkpt><trkpt lat="41.7765471" lon="13.9274397"><ele>994.0</ele><time>2026-04-26T11:20:29.945Z</time></trkpt><trkpt lat="41.7765453" lon="13.9272643"><ele>993.5</ele><time>2026-04-26T11:20:30.943Z</time></trkpt><trkpt lat="41.7765366" lon="13.9270976"><ele>993.0</ele><time>2026-04-26T11:20:31.953Z</time></trkpt><trkpt lat="41.7765195" lon="13.9269319"><ele>992.5</ele><time>2026-04-26T11:20:32.946Z</time></trkpt><trkpt lat="41.7764905" lon="13.9267625"><ele>992.0</ele><time>2026-04-26T11:20:33.944Z</time></trkpt><trkpt lat="41.7764431" lon="13.926593"><ele>994.0</ele><time>2026-04-26T11:20:34.946Z</time></trkpt><trkpt lat="41.7763887" lon="13.9264246"><ele>996.0</ele><time>2026-04-26T11:20:35.946Z</time></trkpt><trkpt lat="41.7763326" lon="13.9262613"><ele>998.0</ele><time>2026-04-26T11:20:36.943Z</time></trkpt><trkpt lat="41.7762777" lon="13.9261072"><ele>1000.0</ele><time>2026-04-26T11:20:37.956Z</time></trkpt><trkpt lat="41.776228" lon="13.9259708"><ele>1003.4</ele><time>2026-04-26T11:20:38.94Z</time></trkpt><trkpt lat="41.7761846" lon="13.925849"><ele>1006.8</ele><time>2026-04-26T11:20:39.946Z</time></trkpt><trkpt lat="41.7761478" lon="13.9257363"><ele>1010.2</ele><time>2026-04-26T11:20:40.943Z</time></trkpt><trkpt lat="41.7761163" lon="13.9256293"><ele>1013.6</ele><time>2026-04-26T11:20:41.946Z</time></trkpt><trkpt lat="41.776091" lon="13.9255153"><ele>1017.0</ele><time>2026-04-26T11:20:42.937Z</time></trkpt><trkpt lat="41.7760752" lon="13.9253877"><ele>1017.0</ele><time>2026-04-26T11:20:43.949Z</time></trkpt><trkpt lat="41.7760723" lon="13.9252466"><ele>1017.0</ele><time>2026-04-26T11:20:44.945Z</time></trkpt><trkpt lat="41.7760799" lon="13.9250845"><ele>1017.0</ele><time>2026-04-26T11:20:45.939Z</time></trkpt><trkpt lat="41.7760901" lon="13.9248999"><ele>1017.0</ele><time>2026-04-26T11:20:46.941Z</time></trkpt><trkpt lat="41.7761152" lon="13.9246938"><ele>1022.3333333333333</ele><time>2026-04-26T11:20:47.944Z</time></trkpt><trkpt lat="41.7761366" lon="13.9244494"><ele>1027.6666666666665</ele><time>2026-04-26T11:20:48.939Z</time></trkpt><trkpt lat="41.7761664" lon="13.9241912"><ele>1033.0</ele><time>2026-04-26T11:20:49.948Z</time></trkpt><trkpt lat="41.7761942" lon="13.9239135"><ele>1033.0</ele><time>2026-04-26T11:20:50.949Z</time></trkpt><trkpt lat="41.7762018" lon="13.9236276"><ele>1033.0</ele><time>2026-04-26T11:20:51.944Z</time></trkpt><trkpt lat="41.7762061" lon="13.9233379"><ele>1033.0</ele><time>2026-04-26T11:20:52.943Z</time></trkpt><trkpt lat="41.7762209" lon="13.923052"><ele>1029.3333333333333</ele><time>2026-04-26T11:20:53.941Z</time></trkpt><trkpt lat="41.7762494" lon="13.9227732"><ele>1025.6666666666667</ele><time>2026-04-26T11:20:54.946Z</time></trkpt><trkpt lat="41.7762928" lon="13.922515"><ele>1022.0</ele><time>2026-04-26T11:20:55.952Z</time></trkpt><trkpt lat="41.7763433" lon="13.9222681"><ele>1019.0</ele><time>2026-04-26T11:20:56.945Z</time></trkpt><trkpt lat="41.7763991" lon="13.9220348"><ele>1016.0</ele><time>2026-04-26T11:20:57.955Z</time></trkpt><trkpt lat="41.7764697" lon="13.9218249"><ele>1013.0</ele><time>2026-04-26T11:20:58.942Z</time></trkpt><trkpt lat="41.7765504" lon="13.9216189"><ele>1010.6666666666667</ele><time>2026-04-26T11:20:59.948Z</time></trkpt><trkpt lat="41.776657" lon="13.9214247"><ele>1008.3333333333333</ele><time>2026-04-26T11:21:00.94Z</time></trkpt><trkpt lat="41.7767685" lon="13.9212379"><ele>1006.0</ele><time>2026-04-26T11:21:01.94Z</time></trkpt><trkpt lat="41.7768739" lon="13.9210478"><ele>1014.0</ele><time>2026-04-26T11:21:02.953Z</time></trkpt><trkpt lat="41.7769802" lon="13.9208586"><ele>1022.0</ele><time>2026-04-26T11:21:03.951Z</time></trkpt><trkpt lat="41.7770802" lon="13.9206753"><ele>1030.0</ele><time>2026-04-26T11:21:04.948Z</time></trkpt><trkpt lat="41.7771731" lon="13.9204893"><ele>1030.0</ele><time>2026-04-26T11:21:05.951Z</time></trkpt><trkpt lat="41.7772447" lon="13.9202943"><ele>1030.0</ele><time>2026-04-26T11:21:06.946Z</time></trkpt><trkpt lat="41.777284" lon="13.920083"><ele>1030.0</ele><time>2026-04-26T11:21:07.948Z</time></trkpt><trkpt lat="41.7773031" lon="13.9198647"><ele>1023.3333333333333</ele><time>2026-04-26T11:21:08.943Z</time></trkpt><trkpt lat="41.7773206" lon="13.9196424"><ele>1016.6666666666667</ele><time>2026-04-26T11:21:09.948Z</time></trkpt><trkpt lat="41.7773425" lon="13.9194165"><ele>1010.0</ele><time>2026-04-26T11:21:10.945Z</time></trkpt><trkpt lat="41.7773652" lon="13.9191841"><ele>1009.6666666666667</ele><time>2026-04-26T11:21:11.951Z</time></trkpt><trkpt lat="41.7773861" lon="13.9189461"><ele>1009.3333333333333</ele><time>2026-04-26T11:21:12.944Z</time></trkpt><trkpt lat="41.7774064" lon="13.9187098"><ele>1009.0</ele><time>2026-04-26T11:21:13.935Z</time></trkpt><trkpt lat="41.7774301" lon="13.9184839"><ele>1008.0</ele><time>2026-04-26T11:21:14.946Z</time></trkpt><trkpt lat="41.7774679" lon="13.9182733"><ele>1007.0</ele><time>2026-04-26T11:21:15.949Z</time></trkpt><trkpt lat="41.7775333" lon="13.9180787"><ele>1006.0</ele><time>2026-04-26T11:21:16.939Z</time></trkpt><trkpt lat="41.7776244" lon="13.9179025"><ele>1012.0</ele><time>2026-04-26T11:21:17.948Z</time></trkpt><trkpt lat="41.7777226" lon="13.9177289"><ele>1018.0</ele><time>2026-04-26T11:21:18.946Z</time></trkpt><trkpt lat="41.7778239" lon="13.9175459"><ele>1024.0</ele><time>2026-04-26T11:21:19.945Z</time></trkpt><trkpt lat="41.7779297" lon="13.9173516"><ele>1024.0</ele><time>2026-04-26T11:21:20.94Z</time></trkpt><trkpt lat="41.7780349" lon="13.9171483"><ele>1024.0</ele><time>2026-04-26T11:21:21.951Z</time></trkpt><trkpt lat="41.7781314" lon="13.9169343"><ele>1024.0</ele><time>2026-04-26T11:21:22.956Z</time></trkpt><trkpt lat="41.7782248" lon="13.9167158"><ele>1018.3333333333333</ele><time>2026-04-26T11:21:23.95Z</time></trkpt><trkpt lat="41.7783159" lon="13.9164931"><ele>1012.6666666666667</ele><time>2026-04-26T11:21:24.947Z</time></trkpt><trkpt lat="41.7784075" lon="13.916266"><ele>1007.0</ele><time>2026-04-26T11:21:25.949Z</time></trkpt><trkpt lat="41.7784993" lon="13.9160378"><ele>1017.6666666666667</ele><time>2026-04-26T11:21:26.946Z</time></trkpt><trkpt lat="41.7785914" lon="13.9158083"><ele>1028.3333333333333</ele><time>2026-04-26T11:21:27.954Z</time></trkpt><trkpt lat="41.7786869" lon="13.9155818"><ele>1039.0</ele><time>2026-04-26T11:21:28.961Z</time></trkpt><trkpt lat="41.7787815" lon="13.9153568"><ele>1039.0</ele><time>2026-04-26T11:21:29.941Z</time></trkpt><trkpt lat="41.7788719" lon="13.9151363"><ele>1039.0</ele><time>2026-04-26T11:21:30.944Z</time></trkpt><trkpt lat="41.7789593" lon="13.914933"><ele>1039.0</ele><time>2026-04-26T11:21:31.946Z</time></trkpt><trkpt lat="41.7790516" lon="13.9147687"><ele>1042.5</ele><time>2026-04-26T11:21:32.941Z</time></trkpt><trkpt lat="41.7791544" lon="13.9146583"><ele>1046.0</ele><time>2026-04-26T11:21:33.939Z</time></trkpt><trkpt lat="41.7792305" lon="13.91456"><ele>1049.5</ele><time>2026-04-26T11:21:34.952Z</time></trkpt><trkpt lat="41.7793585" lon="13.9144998"><ele>1053.0</ele><time>2026-04-26T11:21:35.944Z</time></trkpt><trkpt lat="41.7794939" lon="13.9144158"><ele>1053.0</ele><time>2026-04-26T11:21:36.938Z</time></trkpt><trkpt lat="41.7796315" lon="13.914321"><ele>1053.0</ele><time>2026-04-26T11:21:37.949Z</time></trkpt><trkpt lat="41.7797674" lon="13.9142332"><ele>1053.0</ele><time>2026-04-26T11:21:38.948Z</time></trkpt><trkpt lat="41.7799101" lon="13.914157"><ele>1054.0</ele><time>2026-04-26T11:21:39.938Z</time></trkpt><trkpt lat="41.7800512" lon="13.9140726"><ele>1055.0</ele><time>2026-04-26T11:21:40.95Z</time></trkpt><trkpt lat="41.7801822" lon="13.9139529"><ele>1056.0</ele><time>2026-04-26T11:21:41.942Z</time></trkpt><trkpt lat="41.7803073" lon="13.9138069"><ele>1056.0</ele><time>2026-04-26T11:21:42.935Z</time></trkpt><trkpt lat="41.7804295" lon="13.9136499"><ele>1056.0</ele><time>2026-04-26T11:21:43.942Z</time></trkpt><trkpt lat="41.7805458" lon="13.9134781"><ele>1056.0</ele><time>2026-04-26T11:21:44.943Z</time></trkpt><trkpt lat="41.7806608" lon="13.9133023"><ele>1046.0</ele><time>2026-04-26T11:21:45.944Z</time></trkpt><trkpt lat="41.7807764" lon="13.9131271"><ele>1036.0</ele><time>2026-04-26T11:21:46.937Z</time></trkpt><trkpt lat="41.7808855" lon="13.9129425"><ele>1026.0</ele><time>2026-04-26T11:21:47.943Z</time></trkpt><trkpt lat="41.7809895" lon="13.9127491"><ele>1031.0</ele><time>2026-04-26T11:21:48.942Z</time></trkpt><trkpt lat="41.7811035" lon="13.9125665"><ele>1036.0</ele><time>2026-04-26T11:21:49.941Z</time></trkpt><trkpt lat="41.7812333" lon="13.9124068"><ele>1041.0</ele><time>2026-04-26T11:21:50.939Z</time></trkpt><trkpt lat="41.7813719" lon="13.9122691"><ele>1041.0</ele><time>2026-04-26T11:21:51.948Z</time></trkpt><trkpt lat="41.7815047" lon="13.9121334"><ele>1041.0</ele><time>2026-04-26T11:21:52.934Z</time></trkpt><trkpt lat="41.781622" lon="13.9119827"><ele>1041.0</ele><time>2026-04-26T11:21:53.936Z</time></trkpt><trkpt lat="41.7817249" lon="13.9118186"><ele>1035.0</ele><time>2026-04-26T11:21:54.939Z</time></trkpt><trkpt lat="41.7818167" lon="13.9116439"><ele>1029.0</ele><time>2026-04-26T11:21:55.94Z</time></trkpt><trkpt lat="41.7818973" lon="13.9114633"><ele>1023.0</ele><time>2026-04-26T11:21:56.941Z</time></trkpt><trkpt lat="41.7819662" lon="13.9112787"><ele>1034.0</ele><time>2026-04-26T11:21:57.952Z</time></trkpt><trkpt lat="41.7820215" lon="13.9110789"><ele>1045.0</ele><time>2026-04-26T11:21:58.947Z</time></trkpt><trkpt lat="41.7820625" lon="13.9108663"><ele>1056.0</ele><time>2026-04-26T11:21:59.94Z</time></trkpt><trkpt lat="41.7820919" lon="13.910648"><ele>1056.0</ele><time>2026-04-26T11:22:00.945Z</time></trkpt><trkpt lat="41.7821127" lon="13.910423"><ele>1056.0</ele><time>2026-04-26T11:22:01.942Z</time></trkpt><trkpt lat="41.782127" lon="13.9101991"><ele>1056.0</ele><time>2026-04-26T11:22:02.942Z</time></trkpt><trkpt lat="41.7821396" lon="13.9099805"><ele>1055.3333333333333</ele><time>2026-04-26T11:22:03.952Z</time></trkpt><trkpt lat="41.7821485" lon="13.9097634"><ele>1054.6666666666665</ele><time>2026-04-26T11:22:04.941Z</time></trkpt><trkpt lat="41.7821514" lon="13.9095492"><ele>1054.0</ele><time>2026-04-26T11:22:05.939Z</time></trkpt><trkpt lat="41.7821515" lon="13.9093363"><ele>1053.0</ele><time>2026-04-26T11:22:06.942Z</time></trkpt><trkpt lat="41.7821506" lon="13.9091242"><ele>1052.0</ele><time>2026-04-26T11:22:07.948Z</time></trkpt><trkpt lat="41.7821483" lon="13.9089115"><ele>1051.0</ele><time>2026-04-26T11:22:08.947Z</time></trkpt><trkpt lat="41.7821473" lon="13.9086969"><ele>1051.0</ele><time>2026-04-26T11:22:09.944Z</time></trkpt><trkpt lat="41.78215" lon="13.9084841"><ele>1051.0</ele><time>2026-04-26T11:22:10.942Z</time></trkpt><trkpt lat="41.7821537" lon="13.9082758"><ele>1051.0</ele><time>2026-04-26T11:22:11.951Z</time></trkpt><trkpt lat="41.7821655" lon="13.9080779"><ele>1049.75</ele><time>2026-04-26T11:22:12.943Z</time></trkpt><trkpt lat="41.7821935" lon="13.9078909"><ele>1048.5</ele><time>2026-04-26T11:22:13.941Z</time></trkpt><trkpt lat="41.7822385" lon="13.9077146"><ele>1047.25</ele><time>2026-04-26T11:22:14.941Z</time></trkpt><trkpt lat="41.7822775" lon="13.9075426"><ele>1046.0</ele><time>2026-04-26T11:22:15.954Z</time></trkpt><trkpt lat="41.7822833" lon="13.9073682"><ele>1045.5</ele><time>2026-04-26T11:22:16.955Z</time></trkpt><trkpt lat="41.7822603" lon="13.9071955"><ele>1045.0</ele><time>2026-04-26T11:22:17.942Z</time></trkpt><trkpt lat="41.7822263" lon="13.9070243"><ele>1044.5</ele><time>2026-04-26T11:22:18.954Z</time></trkpt><trkpt lat="41.7821937" lon="13.9068477"><ele>1044.0</ele><time>2026-04-26T11:22:19.95Z</time></trkpt><trkpt lat="41.7821683" lon="13.9066632"><ele>1043.75</ele><time>2026-04-26T11:22:20.948Z</time></trkpt><trkpt lat="41.7821398" lon="13.906476"><ele>1043.5</ele><time>2026-04-26T11:22:21.953Z</time></trkpt><trkpt lat="41.7820983" lon="13.9063047"><ele>1043.25</ele><time>2026-04-26T11:22:22.946Z</time></trkpt><trkpt lat="41.782056" lon="13.9061452"><ele>1043.0</ele><time>2026-04-26T11:22:23.955Z</time></trkpt><trkpt lat="41.7820279" lon="13.9059821"><ele>1042.6666666666667</ele><time>2026-04-26T11:22:24.955Z</time></trkpt><trkpt lat="41.7820186" lon="13.9058003"><ele>1042.3333333333333</ele><time>2026-04-26T11:22:25.951Z</time></trkpt><trkpt lat="41.7820124" lon="13.9055978"><ele>1042.0</ele><time>2026-04-26T11:22:26.942Z</time></trkpt><trkpt lat="41.7820037" lon="13.9053494"><ele>1038.3333333333333</ele><time>2026-04-26T11:22:27.948Z</time></trkpt><trkpt lat="41.7819854" lon="13.9050667"><ele>1034.6666666666667</ele><time>2026-04-26T11:22:28.952Z</time></trkpt><trkpt lat="41.7819727" lon="13.904757"><ele>1031.0</ele><time>2026-04-26T11:22:29.952Z</time></trkpt><trkpt lat="41.781956" lon="13.9044352"><ele>1031.5</ele><time>2026-04-26T11:22:30.953Z</time></trkpt><trkpt lat="41.7819482" lon="13.9041135"><ele>1032.0</ele><time>2026-04-26T11:22:31.954Z</time></trkpt><trkpt lat="41.7819345" lon="13.9037973"><ele>1032.0</ele><time>2026-04-26T11:22:32.947Z</time></trkpt><trkpt lat="41.781917" lon="13.9034891"><ele>1032.0</ele><time>2026-04-26T11:22:33.942Z</time></trkpt><trkpt lat="41.7819024" lon="13.9031866"><ele>1035.0</ele><time>2026-04-26T11:22:34.946Z</time></trkpt><trkpt lat="41.7818946" lon="13.9028844"><ele>1038.0</ele><time>2026-04-26T11:22:35.946Z</time></trkpt><trkpt lat="41.7818938" lon="13.9025834"><ele>1039.5</ele><time>2026-04-26T11:22:36.944Z</time></trkpt><trkpt lat="41.7818986" lon="13.9022799"><ele>1041.0</ele><time>2026-04-26T11:22:37.941Z</time></trkpt><trkpt lat="41.7819047" lon="13.9019776"><ele>1041.5</ele><time>2026-04-26T11:22:38.954Z</time></trkpt><trkpt lat="41.7819094" lon="13.9016727"><ele>1042.0</ele><time>2026-04-26T11:22:39.95Z</time></trkpt><trkpt lat="41.7819146" lon="13.9013698"><ele>1042.0</ele><time>2026-04-26T11:22:40.939Z</time></trkpt><trkpt lat="41.7819201" lon="13.9010681"><ele>1042.0</ele><time>2026-04-26T11:22:41.958Z</time></trkpt><trkpt lat="41.7819277" lon="13.9007787"><ele>1042.0</ele><time>2026-04-26T11:22:42.943Z</time></trkpt><trkpt lat="41.7819541" lon="13.9004893"><ele>1042.0</ele><time>2026-04-26T11:22:43.948Z</time></trkpt><trkpt lat="41.7820014" lon="13.900205"><ele>1042.0</ele><time>2026-04-26T11:22:44.959Z</time></trkpt><trkpt lat="41.7820584" lon="13.8999576"><ele>1042.0</ele><time>2026-04-26T11:22:45.942Z</time></trkpt><trkpt lat="41.782115" lon="13.8997248"><ele>1042.3333333333333</ele><time>2026-04-26T11:22:46.949Z</time></trkpt><trkpt lat="41.7821697" lon="13.8995127"><ele>1042.6666666666667</ele><time>2026-04-26T11:22:47.955Z</time></trkpt><trkpt lat="41.7822149" lon="13.8993162"><ele>1043.0</ele><time>2026-04-26T11:22:48.944Z</time></trkpt><trkpt lat="41.7822203" lon="13.8991402"><ele>1043.0</ele><time>2026-04-26T11:22:49.944Z</time></trkpt><trkpt lat="41.7822072" lon="13.8989639"><ele>1043.0</ele><time>2026-04-26T11:22:50.944Z</time></trkpt><trkpt lat="41.7821285" lon="13.8988167"><ele>1043.0</ele><time>2026-04-26T11:22:51.94Z</time></trkpt><trkpt lat="41.7820337" lon="13.8986593"><ele>1043.0</ele><time>2026-04-26T11:22:52.95Z</time></trkpt><trkpt lat="41.7819376" lon="13.89849"><ele>1041.0</ele><time>2026-04-26T11:22:53.955Z</time></trkpt><trkpt lat="41.7818385" lon="13.8983094"><ele>1039.0</ele><time>2026-04-26T11:22:54.946Z</time></trkpt><trkpt lat="41.7817337" lon="13.8981145"><ele>1037.0</ele><time>2026-04-26T11:22:55.959Z</time></trkpt><trkpt lat="41.7816275" lon="13.8979125"><ele>1037.0</ele><time>2026-04-26T11:22:56.953Z</time></trkpt><trkpt lat="41.7815224" lon="13.8977112"><ele>1037.0</ele><time>2026-04-26T11:22:57.943Z</time></trkpt><trkpt lat="41.7814122" lon="13.8975126"><ele>1037.0</ele><time>2026-04-26T11:22:58.953Z</time></trkpt><trkpt lat="41.7813043" lon="13.897312"><ele>1037.6666666666667</ele><time>2026-04-26T11:22:59.956Z</time></trkpt><trkpt lat="41.7811976" lon="13.8971091"><ele>1038.3333333333333</ele><time>2026-04-26T11:23:00.944Z</time></trkpt><trkpt lat="41.781094" lon="13.896906"><ele>1039.0</ele><time>2026-04-26T11:23:01.949Z</time></trkpt><trkpt lat="41.7809984" lon="13.8966986"><ele>1037.0</ele><time>2026-04-26T11:23:02.948Z</time></trkpt><trkpt lat="41.7809223" lon="13.8964815"><ele>1035.0</ele><time>2026-04-26T11:23:03.949Z</time></trkpt><trkpt lat="41.7808645" lon="13.8962512"><ele>1033.0</ele><time>2026-04-26T11:23:04.948Z</time></trkpt><trkpt lat="41.7808257" lon="13.8960088"><ele>1033.6666666666665</ele><time>2026-04-26T11:23:05.947Z</time></trkpt><trkpt lat="41.7807979" lon="13.8957609"><ele>1034.3333333333333</ele><time>2026-04-26T11:23:06.944Z</time></trkpt><trkpt lat="41.7807766" lon="13.8955135"><ele>1035.0</ele><time>2026-04-26T11:23:07.952Z</time></trkpt><trkpt lat="41.7807617" lon="13.8952757"><ele>1035.6666666666667</ele><time>2026-04-26T11:23:08.945Z</time></trkpt><trkpt lat="41.7807653" lon="13.8950534"><ele>1036.3333333333335</ele><time>2026-04-26T11:23:09.952Z</time></trkpt><trkpt lat="41.780797" lon="13.8948456"><ele>1037.0</ele><time>2026-04-26T11:23:10.946Z</time></trkpt><trkpt lat="41.7808614" lon="13.8946611"><ele>1037.0</ele><time>2026-04-26T11:23:11.948Z</time></trkpt><trkpt lat="41.7809581" lon="13.894506"><ele>1037.0</ele><time>2026-04-26T11:23:12.948Z</time></trkpt><trkpt lat="41.781082" lon="13.894385"><ele>1037.0</ele><time>2026-04-26T11:23:13.946Z</time></trkpt><trkpt lat="41.7812146" lon="13.8942776"><ele>1039.75</ele><time>2026-04-26T11:23:14.941Z</time></trkpt><trkpt lat="41.7813367" lon="13.8941638"><ele>1042.5</ele><time>2026-04-26T11:23:15.942Z</time></trkpt><trkpt lat="41.7814465" lon="13.8940593"><ele>1045.25</ele><time>2026-04-26T11:23:16.948Z</time></trkpt><trkpt lat="41.7814967" lon="13.8938872"><ele>1048.0</ele><time>2026-04-26T11:23:17.946Z</time></trkpt><trkpt lat="41.7815304" lon="13.8937015"><ele>1048.0</ele><time>2026-04-26T11:23:18.944Z</time></trkpt><trkpt lat="41.7815529" lon="13.8934897"><ele>1048.0</ele><time>2026-04-26T11:23:19.949Z</time></trkpt><trkpt lat="41.7815762" lon="13.8932575"><ele>1048.0</ele><time>2026-04-26T11:23:20.955Z</time></trkpt><trkpt lat="41.7816121" lon="13.8930045"><ele>1047.6666666666665</ele><time>2026-04-26T11:23:21.942Z</time></trkpt><trkpt lat="41.7816466" lon="13.8927293"><ele>1047.3333333333333</ele><time>2026-04-26T11:23:22.948Z</time></trkpt><trkpt lat="41.7816815" lon="13.8924526"><ele>1047.0</ele><time>2026-04-26T11:23:23.948Z</time></trkpt><trkpt lat="41.7817043" lon="13.8921849"><ele>1046.6666666666667</ele><time>2026-04-26T11:23:24.947Z</time></trkpt><trkpt lat="41.7817037" lon="13.8919277"><ele>1046.3333333333335</ele><time>2026-04-26T11:23:25.944Z</time></trkpt><trkpt lat="41.7817004" lon="13.8916781"><ele>1046.0</ele><time>2026-04-26T11:23:26.949Z</time></trkpt><trkpt lat="41.7816576" lon="13.8914525"><ele>1046.0</ele><time>2026-04-26T11:23:27.946Z</time></trkpt><trkpt lat="41.7815467" lon="13.8912768"><ele>1046.0</ele><time>2026-04-26T11:23:28.941Z</time></trkpt><trkpt lat="41.7814331" lon="13.8911081"><ele>1046.0</ele><time>2026-04-26T11:23:29.958Z</time></trkpt><trkpt lat="41.7813441" lon="13.8909188"><ele>1048.0</ele><time>2026-04-26T11:23:30.95Z</time></trkpt><trkpt lat="41.7812917" lon="13.8906995"><ele>1050.0</ele><time>2026-04-26T11:23:31.945Z</time></trkpt><trkpt lat="41.781276" lon="13.8904767"><ele>1052.0</ele><time>2026-04-26T11:23:32.956Z</time></trkpt><trkpt lat="41.7812961" lon="13.8902432"><ele>1054.3333333333335</ele><time>2026-04-26T11:23:33.948Z</time></trkpt><trkpt lat="41.7813146" lon="13.8899942"><ele>1056.6666666666667</ele><time>2026-04-26T11:23:34.943Z</time></trkpt><trkpt lat="41.7813607" lon="13.8897263"><ele>1059.0</ele><time>2026-04-26T11:23:35.95Z</time></trkpt><trkpt lat="41.7814146" lon="13.8894327"><ele>1057.0</ele><time>2026-04-26T11:23:36.945Z</time></trkpt><trkpt lat="41.7814623" lon="13.8891372"><ele>1055.0</ele><time>2026-04-26T11:23:37.949Z</time></trkpt><trkpt lat="41.7815004" lon="13.8888405"><ele>1055.0</ele><time>2026-04-26T11:23:38.951Z</time></trkpt><trkpt lat="41.7815265" lon="13.8885507"><ele>1055.0</ele><time>2026-04-26T11:23:39.948Z</time></trkpt><trkpt lat="41.7815162" lon="13.8882617"><ele>1055.0</ele><time>2026-04-26T11:23:40.947Z</time></trkpt><trkpt lat="41.7815163" lon="13.8879794"><ele>1055.0</ele><time>2026-04-26T11:23:41.941Z</time></trkpt><trkpt lat="41.781536" lon="13.8877095"><ele>1055.0</ele><time>2026-04-26T11:23:42.951Z</time></trkpt><trkpt lat="41.781566" lon="13.8874721"><ele>1055.0</ele><time>2026-04-26T11:23:43.952Z</time></trkpt><trkpt lat="41.7815947" lon="13.8872544"><ele>1055.0</ele><time>2026-04-26T11:23:44.944Z</time></trkpt><trkpt lat="41.7815858" lon="13.8870609"><ele>1055.0</ele><time>2026-04-26T11:23:45.951Z</time></trkpt><trkpt lat="41.7815411" lon="13.8868637"><ele>1055.0</ele><time>2026-04-26T11:23:46.948Z</time></trkpt><trkpt lat="41.7814765" lon="13.8866737"><ele>1057.3333333333335</ele><time>2026-04-26T11:23:47.943Z</time></trkpt><trkpt lat="41.7814214" lon="13.8864868"><ele>1059.6666666666667</ele><time>2026-04-26T11:23:48.945Z</time></trkpt><trkpt lat="41.7813895" lon="13.8862905"><ele>1062.0</ele><time>2026-04-26T11:23:49.943Z</time></trkpt><trkpt lat="41.7813899" lon="13.8860851"><ele>1064.3333333333333</ele><time>2026-04-26T11:23:50.951Z</time></trkpt><trkpt lat="41.7813999" lon="13.8858656"><ele>1066.6666666666665</ele><time>2026-04-26T11:23:51.951Z</time></trkpt><trkpt lat="41.7813864" lon="13.8856296"><ele>1069.0</ele><time>2026-04-26T11:23:52.942Z</time></trkpt><trkpt lat="41.7813503" lon="13.8853755"><ele>1069.0</ele><time>2026-04-26T11:23:53.949Z</time></trkpt><trkpt lat="41.7812976" lon="13.8851179"><ele>1069.0</ele><time>2026-04-26T11:23:54.951Z</time></trkpt><trkpt lat="41.781232" lon="13.8848649"><ele>1069.0</ele><time>2026-04-26T11:23:55.94Z</time></trkpt><trkpt lat="41.781142" lon="13.8846247"><ele>1070.3333333333333</ele><time>2026-04-26T11:23:56.949Z</time></trkpt><trkpt lat="41.7810319" lon="13.8844031"><ele>1071.6666666666667</ele><time>2026-04-26T11:23:57.949Z</time></trkpt><trkpt lat="41.7809123" lon="13.8841924"><ele>1073.0</ele><time>2026-04-26T11:23:58.945Z</time></trkpt><trkpt lat="41.7807947" lon="13.883989"><ele>1066.0</ele><time>2026-04-26T11:23:59.947Z</time></trkpt><trkpt lat="41.7806907" lon="13.8837995"><ele>1059.0</ele><time>2026-04-26T11:24:00.944Z</time></trkpt><trkpt lat="41.7806065" lon="13.8836177"><ele>1052.0</ele><time>2026-04-26T11:24:01.96Z</time></trkpt><trkpt lat="41.7805638" lon="13.8834363"><ele>1054.6666666666667</ele><time>2026-04-26T11:24:02.959Z</time></trkpt><trkpt lat="41.7805622" lon="13.8832471"><ele>1057.3333333333333</ele><time>2026-04-26T11:24:03.966Z</time></trkpt><trkpt lat="41.7805709" lon="13.8830526"><ele>1060.0</ele><time>2026-04-26T11:24:04.956Z</time></trkpt><trkpt lat="41.7805639" lon="13.8828131"><ele>1061.6666666666665</ele><time>2026-04-26T11:24:05.953Z</time></trkpt><trkpt lat="41.780541" lon="13.8825349"><ele>1063.3333333333333</ele><time>2026-04-26T11:24:06.944Z</time></trkpt><trkpt lat="41.7804651" lon="13.8822452"><ele>1065.0</ele><time>2026-04-26T11:24:07.955Z</time></trkpt><trkpt lat="41.7803862" lon="13.8819511"><ele>1068.0</ele><time>2026-04-26T11:24:08.964Z</time></trkpt><trkpt lat="41.7803207" lon="13.8816697"><ele>1071.0</ele><time>2026-04-26T11:24:09.966Z</time></trkpt><trkpt lat="41.7802684" lon="13.8814034"><ele>1074.0</ele><time>2026-04-26T11:24:10.95Z</time></trkpt><trkpt lat="41.7802417" lon="13.8811538"><ele>1077.3333333333333</ele><time>2026-04-26T11:24:11.955Z</time></trkpt><trkpt lat="41.7802434" lon="13.8809098"><ele>1080.6666666666665</ele><time>2026-04-26T11:24:12.953Z</time></trkpt><trkpt lat="41.7802436" lon="13.8806707"><ele>1084.0</ele><time>2026-04-26T11:24:13.942Z</time></trkpt><trkpt lat="41.7802727" lon="13.8804221"><ele>1084.0</ele><time>2026-04-26T11:24:14.958Z</time></trkpt><trkpt lat="41.7802843" lon="13.8801645"><ele>1084.0</ele><time>2026-04-26T11:24:15.962Z</time></trkpt><trkpt lat="41.7802785" lon="13.8798965"><ele>1084.0</ele><time>2026-04-26T11:24:16.942Z</time></trkpt><trkpt lat="41.7802559" lon="13.8796146"><ele>1085.0</ele><time>2026-04-26T11:24:17.998Z</time></trkpt><trkpt lat="41.7802219" lon="13.8793279"><ele>1086.0</ele><time>2026-04-26T11:24:18.959Z</time></trkpt><trkpt lat="41.7801933" lon="13.879044"><ele>1087.0</ele><time>2026-04-26T11:24:19.942Z</time></trkpt><trkpt lat="41.7801551" lon="13.8787561"><ele>1074.5</ele><time>2026-04-26T11:24:20.959Z</time></trkpt><trkpt lat="41.7800952" lon="13.8784669"><ele>1062.0</ele><time>2026-04-26T11:24:21.961Z</time></trkpt><trkpt lat="41.780018" lon="13.8781803"><ele>1062.0</ele><time>2026-04-26T11:24:22.945Z</time></trkpt><trkpt lat="41.7799267" lon="13.8779037"><ele>1062.0</ele><time>2026-04-26T11:24:23.953Z</time></trkpt><trkpt lat="41.7798384" lon="13.8776445"><ele>1062.0</ele><time>2026-04-26T11:24:24.964Z</time></trkpt><trkpt lat="41.7797347" lon="13.8774203"><ele>1065.3333333333333</ele><time>2026-04-26T11:24:25.945Z</time></trkpt><trkpt lat="41.7796252" lon="13.8772253"><ele>1068.6666666666665</ele><time>2026-04-26T11:24:26.953Z</time></trkpt><trkpt lat="41.7795064" lon="13.8770464"><ele>1072.0</ele><time>2026-04-26T11:24:27.949Z</time></trkpt><trkpt lat="41.7793881" lon="13.8768764"><ele>1069.5</ele><time>2026-04-26T11:24:28.946Z</time></trkpt><trkpt lat="41.7792804" lon="13.8767065"><ele>1067.0</ele><time>2026-04-26T11:24:29.955Z</time></trkpt><trkpt lat="41.7792061" lon="13.8765524"><ele>1064.5</ele><time>2026-04-26T11:24:30.953Z</time></trkpt><trkpt lat="41.7791489" lon="13.8764166"><ele>1062.0</ele><time>2026-04-26T11:24:31.944Z</time></trkpt><trkpt lat="41.7791599" lon="13.8762493"><ele>1062.0</ele><time>2026-04-26T11:24:32.999Z</time></trkpt><trkpt lat="41.7792033" lon="13.8760726"><ele>1062.0</ele><time>2026-04-26T11:24:33.98Z</time></trkpt><trkpt lat="41.7792667" lon="13.8758783"><ele>1062.0</ele><time>2026-04-26T11:24:34.94Z</time></trkpt><trkpt lat="41.7793306" lon="13.8756645"><ele>1066.0</ele><time>2026-04-26T11:24:35.947Z</time></trkpt><trkpt lat="41.7794014" lon="13.875423"><ele>1070.0</ele><time>2026-04-26T11:24:36.962Z</time></trkpt><trkpt lat="41.7794741" lon="13.8751763"><ele>1074.0</ele><time>2026-04-26T11:24:37.947Z</time></trkpt><trkpt lat="41.7795411" lon="13.8749351"><ele>1074.0</ele><time>2026-04-26T11:24:38.954Z</time></trkpt><trkpt lat="41.7795994" lon="13.874711"><ele>1074.0</ele><time>2026-04-26T11:24:39.945Z</time></trkpt><trkpt lat="41.7796255" lon="13.8744946"><ele>1074.0</ele><time>2026-04-26T11:24:40.937Z</time></trkpt><trkpt lat="41.7796143" lon="13.8742723"><ele>1075.6666666666667</ele><time>2026-04-26T11:24:41.957Z</time></trkpt><trkpt lat="41.7795751" lon="13.8740433"><ele>1077.3333333333335</ele><time>2026-04-26T11:24:42.947Z</time></trkpt><trkpt lat="41.7795255" lon="13.8738053"><ele>1079.0</ele><time>2026-04-26T11:24:43.946Z</time></trkpt><trkpt lat="41.7794773" lon="13.8735494"><ele>1084.0</ele><time>2026-04-26T11:24:44.941Z</time></trkpt><trkpt lat="41.7794327" lon="13.8732739"><ele>1089.0</ele><time>2026-04-26T11:24:45.953Z</time></trkpt><trkpt lat="41.7794029" lon="13.872983"><ele>1094.0</ele><time>2026-04-26T11:24:46.955Z</time></trkpt><trkpt lat="41.7793799" lon="13.8726877"><ele>1086.3333333333335</ele><time>2026-04-26T11:24:47.953Z</time></trkpt><trkpt lat="41.7793384" lon="13.8723937"><ele>1078.6666666666667</ele><time>2026-04-26T11:24:48.946Z</time></trkpt><trkpt lat="41.7792759" lon="13.8721049"><ele>1071.0</ele><time>2026-04-26T11:24:49.948Z</time></trkpt><trkpt lat="41.7792102" lon="13.8718138"><ele>1072.0</ele><time>2026-04-26T11:24:50.949Z</time></trkpt><trkpt lat="41.7791477" lon="13.8715135"><ele>1073.0</ele><time>2026-04-26T11:24:51.952Z</time></trkpt><trkpt lat="41.7791028" lon="13.8712152"><ele>1072.6666666666667</ele><time>2026-04-26T11:24:52.974Z</time></trkpt><trkpt lat="41.7790881" lon="13.8709171"><ele>1072.3333333333333</ele><time>2026-04-26T11:24:53.973Z</time></trkpt><trkpt lat="41.7791125" lon="13.8706159"><ele>1072.0</ele><time>2026-04-26T11:24:54.946Z</time></trkpt><trkpt lat="41.7791691" lon="13.8703233"><ele>1072.0</ele><time>2026-04-26T11:24:55.959Z</time></trkpt><trkpt lat="41.7792471" lon="13.8700389"><ele>1072.0</ele><time>2026-04-26T11:24:56.959Z</time></trkpt><trkpt lat="41.7793286" lon="13.8697543"><ele>1077.5</ele><time>2026-04-26T11:24:57.944Z</time></trkpt><trkpt lat="41.7794109" lon="13.869468"><ele>1083.0</ele><time>2026-04-26T11:24:58.963Z</time></trkpt><trkpt lat="41.7794949" lon="13.8691804"><ele>1083.0</ele><time>2026-04-26T11:24:59.946Z</time></trkpt><trkpt lat="41.7795781" lon="13.8688874"><ele>1083.0</ele><time>2026-04-26T11:25:00.945Z</time></trkpt><trkpt lat="41.7796599" lon="13.8685932"><ele>1080.0</ele><time>2026-04-26T11:25:01.957Z</time></trkpt><trkpt lat="41.7797436" lon="13.8682993"><ele>1077.0</ele><time>2026-04-26T11:25:02.958Z</time></trkpt><trkpt lat="41.7798259" lon="13.8680139"><ele>1077.0</ele><time>2026-04-26T11:25:03.949Z</time></trkpt><trkpt lat="41.7798989" lon="13.8677389"><ele>1077.0</ele><time>2026-04-26T11:25:04.964Z</time></trkpt><trkpt lat="41.7799485" lon="13.8674725"><ele>1077.0</ele><time>2026-04-26T11:25:05.948Z</time></trkpt><trkpt lat="41.7799884" lon="13.8672037"><ele>1077.0</ele><time>2026-04-26T11:25:06.944Z</time></trkpt><trkpt lat="41.779979" lon="13.866927"><ele>1077.0</ele><time>2026-04-26T11:25:07.949Z</time></trkpt><trkpt lat="41.7799436" lon="13.8666674"><ele>1077.0</ele><time>2026-04-26T11:25:08.946Z</time></trkpt><trkpt lat="41.7799232" lon="13.8664001"><ele>1077.0</ele><time>2026-04-26T11:25:09.943Z</time></trkpt><trkpt lat="41.7799052" lon="13.8661343"><ele>1077.0</ele><time>2026-04-26T11:25:10.956Z</time></trkpt><trkpt lat="41.7798816" lon="13.865869"><ele>1077.0</ele><time>2026-04-26T11:25:11.951Z</time></trkpt><trkpt lat="41.779861" lon="13.8656172"><ele>1078.0</ele><time>2026-04-26T11:25:12.944Z</time></trkpt><trkpt lat="41.7798373" lon="13.865376"><ele>1079.0</ele><time>2026-04-26T11:25:13.952Z</time></trkpt><trkpt lat="41.779804" lon="13.8651491"><ele>1080.0</ele><time>2026-04-26T11:25:14.957Z</time></trkpt><trkpt lat="41.7797568" lon="13.864926"><ele>1080.6666666666667</ele><time>2026-04-26T11:25:15.948Z</time></trkpt><trkpt lat="41.779694" lon="13.8646862"><ele>1081.3333333333335</ele><time>2026-04-26T11:25:16.95Z</time></trkpt><trkpt lat="41.7796265" lon="13.8644351"><ele>1082.0</ele><time>2026-04-26T11:25:17.954Z</time></trkpt><trkpt lat="41.7795622" lon="13.8641495"><ele>1082.3333333333335</ele><time>2026-04-26T11:25:18.944Z</time></trkpt><trkpt lat="41.7794877" lon="13.8638736"><ele>1082.6666666666667</ele><time>2026-04-26T11:25:19.948Z</time></trkpt><trkpt lat="41.779415" lon="13.8636027"><ele>1083.0</ele><time>2026-04-26T11:25:20.947Z</time></trkpt><trkpt lat="41.7793369" lon="13.863344"><ele>1080.3333333333333</ele><time>2026-04-26T11:25:21.94Z</time></trkpt><trkpt lat="41.7792564" lon="13.8630925"><ele>1077.6666666666665</ele><time>2026-04-26T11:25:22.949Z</time></trkpt><trkpt lat="41.7791773" lon="13.8628504"><ele>1075.0</ele><time>2026-04-26T11:25:23.948Z</time></trkpt><trkpt lat="41.7791162" lon="13.8626188"><ele>1075.6666666666665</ele><time>2026-04-26T11:25:24.952Z</time></trkpt><trkpt lat="41.7790803" lon="13.8623828"><ele>1076.3333333333333</ele><time>2026-04-26T11:25:25.946Z</time></trkpt><trkpt lat="41.7790684" lon="13.862128"><ele>1077.0</ele><time>2026-04-26T11:25:26.948Z</time></trkpt><trkpt lat="41.7790669" lon="13.8618622"><ele>1078.3333333333333</ele><time>2026-04-26T11:25:27.952Z</time></trkpt><trkpt lat="41.779069" lon="13.861582"><ele>1079.6666666666665</ele><time>2026-04-26T11:25:28.951Z</time></trkpt><trkpt lat="41.7790721" lon="13.8613018"><ele>1081.0</ele><time>2026-04-26T11:25:29.944Z</time></trkpt><trkpt lat="41.779084" lon="13.8610266"><ele>1081.0</ele><time>2026-04-26T11:25:30.959Z</time></trkpt><trkpt lat="41.7791192" lon="13.8607526"><ele>1081.0</ele><time>2026-04-26T11:25:31.95Z</time></trkpt><trkpt lat="41.7791719" lon="13.8604795"><ele>1081.0</ele><time>2026-04-26T11:25:32.958Z</time></trkpt><trkpt lat="41.7792326" lon="13.8602052"><ele>1080.6666666666665</ele><time>2026-04-26T11:25:33.952Z</time></trkpt><trkpt lat="41.779284" lon="13.8599235"><ele>1080.3333333333333</ele><time>2026-04-26T11:25:34.952Z</time></trkpt><trkpt lat="41.7793229" lon="13.8596338"><ele>1080.0</ele><time>2026-04-26T11:25:35.953Z</time></trkpt><trkpt lat="41.7793609" lon="13.8593404"><ele>1086.6666666666667</ele><time>2026-04-26T11:25:36.945Z</time></trkpt><trkpt lat="41.7794027" lon="13.8590518"><ele>1093.3333333333335</ele><time>2026-04-26T11:25:37.946Z</time></trkpt><trkpt lat="41.7794498" lon="13.8587667"><ele>1100.0</ele><time>2026-04-26T11:25:38.945Z</time></trkpt><trkpt lat="41.779502" lon="13.858487"><ele>1098.0</ele><time>2026-04-26T11:25:39.955Z</time></trkpt><trkpt lat="41.7795596" lon="13.8582105"><ele>1096.0</ele><time>2026-04-26T11:25:40.939Z</time></trkpt><trkpt lat="41.7796191" lon="13.857936"><ele>1094.0</ele><time>2026-04-26T11:25:41.946Z</time></trkpt><trkpt lat="41.7796808" lon="13.8576608"><ele>1092.0</ele><time>2026-04-26T11:25:42.952Z</time></trkpt><trkpt lat="41.7797468" lon="13.8573841"><ele>1090.0</ele><time>2026-04-26T11:25:43.939Z</time></trkpt><trkpt lat="41.7798156" lon="13.8571062"><ele>1088.0</ele><time>2026-04-26T11:25:44.957Z</time></trkpt><trkpt lat="41.7798847" lon="13.8568275"><ele>1086.3333333333335</ele><time>2026-04-26T11:25:45.943Z</time></trkpt><trkpt lat="41.7799532" lon="13.8565479"><ele>1084.6666666666667</ele><time>2026-04-26T11:25:46.947Z</time></trkpt><trkpt lat="41.7800211" lon="13.8562673"><ele>1083.0</ele><time>2026-04-26T11:25:47.949Z</time></trkpt><trkpt lat="41.7800882" lon="13.8559867"><ele>1082.3333333333333</ele><time>2026-04-26T11:25:48.96Z</time></trkpt><trkpt lat="41.7801527" lon="13.8557053"><ele>1081.6666666666665</ele><time>2026-04-26T11:25:49.947Z</time></trkpt><trkpt lat="41.7802168" lon="13.8554279"><ele>1081.0</ele><time>2026-04-26T11:25:50.947Z</time></trkpt><trkpt lat="41.7802763" lon="13.8551546"><ele>1086.3333333333333</ele><time>2026-04-26T11:25:51.956Z</time></trkpt><trkpt lat="41.7803228" lon="13.8548773"><ele>1091.6666666666667</ele><time>2026-04-26T11:25:52.942Z</time></trkpt><trkpt lat="41.7803493" lon="13.8545956"><ele>1097.0</ele><time>2026-04-26T11:25:53.946Z</time></trkpt><trkpt lat="41.7803571" lon="13.8543112"><ele>1097.3333333333335</ele><time>2026-04-26T11:25:54.952Z</time></trkpt><trkpt lat="41.7803549" lon="13.8540236"><ele>1097.6666666666667</ele><time>2026-04-26T11:25:55.951Z</time></trkpt><trkpt lat="41.7803511" lon="13.8537344"><ele>1098.0</ele><time>2026-04-26T11:25:56.948Z</time></trkpt><trkpt lat="41.7803513" lon="13.8534454"><ele>1097.6666666666667</ele><time>2026-04-26T11:25:57.954Z</time></trkpt><trkpt lat="41.7803594" lon="13.8531589"><ele>1097.3333333333335</ele><time>2026-04-26T11:25:58.949Z</time></trkpt><trkpt lat="41.780375" lon="13.8528739"><ele>1097.0</ele><time>2026-04-26T11:25:59.946Z</time></trkpt><trkpt lat="41.7803873" lon="13.8525944"><ele>1097.0</ele><time>2026-04-26T11:26:00.952Z</time></trkpt><trkpt lat="41.7804091" lon="13.8523133"><ele>1097.0</ele><time>2026-04-26T11:26:01.952Z</time></trkpt><trkpt lat="41.7804262" lon="13.8520214"><ele>1097.0</ele><time>2026-04-26T11:26:02.951Z</time></trkpt><trkpt lat="41.7804492" lon="13.8517345"><ele>1096.0</ele><time>2026-04-26T11:26:03.944Z</time></trkpt><trkpt lat="41.7804721" lon="13.8514554"><ele>1095.0</ele><time>2026-04-26T11:26:04.947Z</time></trkpt><trkpt lat="41.7805072" lon="13.8511888"><ele>1094.0</ele><time>2026-04-26T11:26:05.946Z</time></trkpt><trkpt lat="41.7805233" lon="13.85094"><ele>1093.0</ele><time>2026-04-26T11:26:06.949Z</time></trkpt><trkpt lat="41.7805585" lon="13.8506982"><ele>1092.0</ele><time>2026-04-26T11:26:07.95Z</time></trkpt><trkpt lat="41.7806216" lon="13.8504858"><ele>1091.0</ele><time>2026-04-26T11:26:08.956Z</time></trkpt><trkpt lat="41.7807182" lon="13.8503036"><ele>1091.0</ele><time>2026-04-26T11:26:09.954Z</time></trkpt><trkpt lat="41.780829" lon="13.850129"><ele>1091.0</ele><time>2026-04-26T11:26:10.944Z</time></trkpt><trkpt lat="41.7809376" lon="13.8499485"><ele>1091.0</ele><time>2026-04-26T11:26:11.945Z</time></trkpt><trkpt lat="41.7810355" lon="13.8497539"><ele>1092.6666666666667</ele><time>2026-04-26T11:26:12.949Z</time></trkpt><trkpt lat="41.7811217" lon="13.8495506"><ele>1094.3333333333333</ele><time>2026-04-26T11:26:13.944Z</time></trkpt><trkpt lat="41.7811916" lon="13.8493379"><ele>1096.0</ele><time>2026-04-26T11:26:14.95Z</time></trkpt><trkpt lat="41.7812372" lon="13.8491179"><ele>1096.0</ele><time>2026-04-26T11:26:15.952Z</time></trkpt><trkpt lat="41.7812517" lon="13.8488877"><ele>1096.0</ele><time>2026-04-26T11:26:16.949Z</time></trkpt><trkpt lat="41.7812346" lon="13.848654"><ele>1096.0</ele><time>2026-04-26T11:26:17.942Z</time></trkpt><trkpt lat="41.7811946" lon="13.8484236"><ele>1096.6666666666665</ele><time>2026-04-26T11:26:18.946Z</time></trkpt><trkpt lat="41.7811463" lon="13.8481987"><ele>1097.3333333333333</ele><time>2026-04-26T11:26:19.947Z</time></trkpt><trkpt lat="41.7810996" lon="13.8479739"><ele>1098.0</ele><time>2026-04-26T11:26:20.946Z</time></trkpt><trkpt lat="41.7810948" lon="13.8477324"><ele>1098.6666666666667</ele><time>2026-04-26T11:26:21.956Z</time></trkpt><trkpt lat="41.781117" lon="13.8474773"><ele>1099.3333333333335</ele><time>2026-04-26T11:26:22.955Z</time></trkpt><trkpt lat="41.7811614" lon="13.8472179"><ele>1100.0</ele><time>2026-04-26T11:26:23.954Z</time></trkpt><trkpt lat="41.7812202" lon="13.8469584"><ele>1098.6666666666667</ele><time>2026-04-26T11:26:24.954Z</time></trkpt><trkpt lat="41.7812992" lon="13.8466908"><ele>1097.3333333333333</ele><time>2026-04-26T11:26:25.955Z</time></trkpt><trkpt lat="41.7813863" lon="13.8464256"><ele>1096.0</ele><time>2026-04-26T11:26:26.951Z</time></trkpt><trkpt lat="41.7814803" lon="13.8461703"><ele>1094.0</ele><time>2026-04-26T11:26:27.946Z</time></trkpt><trkpt lat="41.7815716" lon="13.8459112"><ele>1092.0</ele><time>2026-04-26T11:26:28.951Z</time></trkpt><trkpt lat="41.7816697" lon="13.8456473"><ele>1090.0</ele><time>2026-04-26T11:26:29.953Z</time></trkpt><trkpt lat="41.781767" lon="13.8453783"><ele>1092.0</ele><time>2026-04-26T11:26:30.943Z</time></trkpt><trkpt lat="41.7818675" lon="13.8451107"><ele>1094.0</ele><time>2026-04-26T11:26:31.951Z</time></trkpt><trkpt lat="41.7819741" lon="13.8448417"><ele>1094.0</ele><time>2026-04-26T11:26:32.953Z</time></trkpt><trkpt lat="41.7820756" lon="13.8445719"><ele>1094.0</ele><time>2026-04-26T11:26:33.946Z</time></trkpt><trkpt lat="41.7821775" lon="13.84431"><ele>1094.0</ele><time>2026-04-26T11:26:34.951Z</time></trkpt><trkpt lat="41.782276" lon="13.8440577"><ele>1092.0</ele><time>2026-04-26T11:26:35.947Z</time></trkpt><trkpt lat="41.7823658" lon="13.843815"><ele>1090.0</ele><time>2026-04-26T11:26:36.938Z</time></trkpt><trkpt lat="41.7824474" lon="13.8435748"><ele>1088.0</ele><time>2026-04-26T11:26:37.947Z</time></trkpt><trkpt lat="41.7824875" lon="13.8433321"><ele>1087.6666666666667</ele><time>2026-04-26T11:26:38.948Z</time></trkpt><trkpt lat="41.7825119" lon="13.843077"><ele>1087.3333333333333</ele><time>2026-04-26T11:26:39.938Z</time></trkpt><trkpt lat="41.7825472" lon="13.842826"><ele>1087.0</ele><time>2026-04-26T11:26:40.947Z</time></trkpt><trkpt lat="41.7825659" lon="13.8425728"><ele>1087.0</ele><time>2026-04-26T11:26:41.95Z</time></trkpt><trkpt lat="41.7825828" lon="13.8423327"><ele>1087.0</ele><time>2026-04-26T11:26:42.948Z</time></trkpt><trkpt lat="41.7826004" lon="13.8420937"><ele>1087.0</ele><time>2026-04-26T11:26:43.949Z</time></trkpt><trkpt lat="41.7826017" lon="13.8418624"><ele>1086.6666666666665</ele><time>2026-04-26T11:26:44.953Z</time></trkpt><trkpt lat="41.7825751" lon="13.8416343"><ele>1086.3333333333333</ele><time>2026-04-26T11:26:45.946Z</time></trkpt><trkpt lat="41.7825385" lon="13.8414134"><ele>1086.0</ele><time>2026-04-26T11:26:46.943Z</time></trkpt><trkpt lat="41.7824969" lon="13.8411935"><ele>1086.0</ele><time>2026-04-26T11:26:47.949Z</time></trkpt><trkpt lat="41.7824523" lon="13.8409746"><ele>1086.0</ele><time>2026-04-26T11:26:48.946Z</time></trkpt><trkpt lat="41.7824125" lon="13.8407571"><ele>1086.0</ele><time>2026-04-26T11:26:49.946Z</time></trkpt><trkpt lat="41.7823755" lon="13.8405393"><ele>1086.3333333333333</ele><time>2026-04-26T11:26:50.95Z</time></trkpt><trkpt lat="41.7823395" lon="13.8403213"><ele>1086.6666666666665</ele><time>2026-04-26T11:26:51.951Z</time></trkpt><trkpt lat="41.782305" lon="13.8401019"><ele>1087.0</ele><time>2026-04-26T11:26:52.946Z</time></trkpt><trkpt lat="41.7822666" lon="13.8398819"><ele>1087.3333333333333</ele><time>2026-04-26T11:26:53.945Z</time></trkpt><trkpt lat="41.7822287" lon="13.8396639"><ele>1087.6666666666667</ele><time>2026-04-26T11:26:54.951Z</time></trkpt><trkpt lat="41.7821896" lon="13.8394452"><ele>1088.0</ele><time>2026-04-26T11:26:55.95Z</time></trkpt><trkpt lat="41.7821499" lon="13.8392204"><ele>1088.0</ele><time>2026-04-26T11:26:56.937Z</time></trkpt><trkpt lat="41.7821092" lon="13.8389916"><ele>1088.0</ele><time>2026-04-26T11:26:57.946Z</time></trkpt><trkpt lat="41.7820675" lon="13.838761"><ele>1088.0</ele><time>2026-04-26T11:26:58.956Z</time></trkpt><trkpt lat="41.7820275" lon="13.8385286"><ele>1088.6666666666667</ele><time>2026-04-26T11:26:59.939Z</time></trkpt><trkpt lat="41.7819836" lon="13.8382986"><ele>1089.3333333333333</ele><time>2026-04-26T11:27:00.943Z</time></trkpt><trkpt lat="41.7819406" lon="13.8380714"><ele>1090.0</ele><time>2026-04-26T11:27:01.939Z</time></trkpt><trkpt lat="41.7818988" lon="13.8378458"><ele>1090.0</ele><time>2026-04-26T11:27:02.945Z</time></trkpt><trkpt lat="41.7818583" lon="13.8376223"><ele>1090.0</ele><time>2026-04-26T11:27:03.95Z</time></trkpt><trkpt lat="41.7818181" lon="13.8374011"><ele>1090.0</ele><time>2026-04-26T11:27:04.953Z</time></trkpt><trkpt lat="41.7817796" lon="13.8371794"><ele>1092.3333333333333</ele><time>2026-04-26T11:27:05.941Z</time></trkpt><trkpt lat="41.7817423" lon="13.8369595"><ele>1094.6666666666667</ele><time>2026-04-26T11:27:06.951Z</time></trkpt><trkpt lat="41.781705" lon="13.8367394"><ele>1097.0</ele><time>2026-04-26T11:27:07.952Z</time></trkpt><trkpt lat="41.7816668" lon="13.836523"><ele>1097.3333333333335</ele><time>2026-04-26T11:27:08.936Z</time></trkpt><trkpt lat="41.7816266" lon="13.8363055"><ele>1097.6666666666667</ele><time>2026-04-26T11:27:09.947Z</time></trkpt><trkpt lat="41.7815848" lon="13.8360859"><ele>1098.0</ele><time>2026-04-26T11:27:10.943Z</time></trkpt><trkpt lat="41.7815429" lon="13.8358646"><ele>1098.3333333333333</ele><time>2026-04-26T11:27:11.945Z</time></trkpt><trkpt lat="41.7814922" lon="13.8356481"><ele>1098.6666666666665</ele><time>2026-04-26T11:27:12.946Z</time></trkpt><trkpt lat="41.7814467" lon="13.8354309"><ele>1099.0</ele><time>2026-04-26T11:27:13.955Z</time></trkpt><trkpt lat="41.7814049" lon="13.8352079"><ele>1099.0</ele><time>2026-04-26T11:27:14.941Z</time></trkpt><trkpt lat="41.7813684" lon="13.8349846"><ele>1099.0</ele><time>2026-04-26T11:27:15.947Z</time></trkpt><trkpt lat="41.7813327" lon="13.8347657"><ele>1099.0</ele><time>2026-04-26T11:27:16.947Z</time></trkpt><trkpt lat="41.781294" lon="13.8345439"><ele>1099.0</ele><time>2026-04-26T11:27:17.949Z</time></trkpt><trkpt lat="41.7812525" lon="13.8343251"><ele>1099.0</ele><time>2026-04-26T11:27:18.949Z</time></trkpt><trkpt lat="41.7812009" lon="13.8341276"><ele>1099.0</ele><time>2026-04-26T11:27:19.948Z</time></trkpt><trkpt lat="41.7811274" lon="13.8339511"><ele>1100.0</ele><time>2026-04-26T11:27:20.949Z</time></trkpt><trkpt lat="41.7810256" lon="13.8337971"><ele>1101.0</ele><time>2026-04-26T11:27:21.945Z</time></trkpt><trkpt lat="41.7809056" lon="13.8336619"><ele>1102.0</ele><time>2026-04-26T11:27:22.946Z</time></trkpt><trkpt lat="41.7807696" lon="13.8335409"><ele>1105.0</ele><time>2026-04-26T11:27:23.95Z</time></trkpt><trkpt lat="41.7806261" lon="13.8334256"><ele>1108.0</ele><time>2026-04-26T11:27:24.946Z</time></trkpt><trkpt lat="41.7804754" lon="13.8333115"><ele>1111.0</ele><time>2026-04-26T11:27:25.948Z</time></trkpt><trkpt lat="41.7803199" lon="13.8331962"><ele>1110.3333333333333</ele><time>2026-04-26T11:27:26.941Z</time></trkpt><trkpt lat="41.7801629" lon="13.8330774"><ele>1109.6666666666667</ele><time>2026-04-26T11:27:27.941Z</time></trkpt><trkpt lat="41.7800051" lon="13.8329538"><ele>1109.0</ele><time>2026-04-26T11:27:28.944Z</time></trkpt><trkpt lat="41.7798428" lon="13.8328326"><ele>1109.0</ele><time>2026-04-26T11:27:29.953Z</time></trkpt><trkpt lat="41.7796756" lon="13.8327149"><ele>1109.0</ele><time>2026-04-26T11:27:30.942Z</time></trkpt><trkpt lat="41.7795002" lon="13.8325995"><ele>1109.0</ele><time>2026-04-26T11:27:31.95Z</time></trkpt><trkpt lat="41.7793197" lon="13.8324824"><ele>1112.3333333333335</ele><time>2026-04-26T11:27:32.946Z</time></trkpt><trkpt lat="41.7791369" lon="13.8323633"><ele>1115.6666666666667</ele><time>2026-04-26T11:27:33.948Z</time></trkpt><trkpt lat="41.7789565" lon="13.8322409"><ele>1119.0</ele><time>2026-04-26T11:27:34.944Z</time></trkpt><trkpt lat="41.77878" lon="13.8321133"><ele>1119.0</ele><time>2026-04-26T11:27:35.953Z</time></trkpt><trkpt lat="41.7786069" lon="13.8319809"><ele>1119.0</ele><time>2026-04-26T11:27:36.949Z</time></trkpt><trkpt lat="41.778434" lon="13.831846"><ele>1119.0</ele><time>2026-04-26T11:27:37.945Z</time></trkpt><trkpt lat="41.7782612" lon="13.8317118"><ele>1123.6666666666667</ele><time>2026-04-26T11:27:38.948Z</time></trkpt><trkpt lat="41.7780916" lon="13.8315792"><ele>1128.3333333333335</ele><time>2026-04-26T11:27:39.948Z</time></trkpt><trkpt lat="41.7779252" lon="13.8314459"><ele>1133.0</ele><time>2026-04-26T11:27:40.952Z</time></trkpt><trkpt lat="41.7777611" lon="13.8313108"><ele>1136.3333333333335</ele><time>2026-04-26T11:27:41.953Z</time></trkpt><trkpt lat="41.7776013" lon="13.8311763"><ele>1139.6666666666667</ele><time>2026-04-26T11:27:42.95Z</time></trkpt><trkpt lat="41.777444" lon="13.8310525"><ele>1143.0</ele><time>2026-04-26T11:27:43.936Z</time></trkpt><trkpt lat="41.7772937" lon="13.8309412"><ele>1143.0</ele><time>2026-04-26T11:27:44.952Z</time></trkpt><trkpt lat="41.777128" lon="13.8308808"><ele>1143.0</ele><time>2026-04-26T11:27:45.947Z</time></trkpt><trkpt lat="41.776957" lon="13.8308381"><ele>1143.0</ele><time>2026-04-26T11:27:46.942Z</time></trkpt><trkpt lat="41.7767861" lon="13.8308013"><ele>1140.3333333333333</ele><time>2026-04-26T11:27:47.947Z</time></trkpt><trkpt lat="41.7766141" lon="13.8307723"><ele>1137.6666666666665</ele><time>2026-04-26T11:27:48.953Z</time></trkpt><trkpt lat="41.7764434" lon="13.830741"><ele>1135.0</ele><time>2026-04-26T11:27:49.939Z</time></trkpt><trkpt lat="41.7762768" lon="13.8307031"><ele>1135.0</ele><time>2026-04-26T11:27:50.954Z</time></trkpt><trkpt lat="41.7761159" lon="13.8306548"><ele>1135.0</ele><time>2026-04-26T11:27:51.943Z</time></trkpt><trkpt lat="41.7759625" lon="13.8306027"><ele>1135.0</ele><time>2026-04-26T11:27:52.949Z</time></trkpt><trkpt lat="41.7758193" lon="13.8305558"><ele>1135.4</ele><time>2026-04-26T11:27:53.943Z</time></trkpt><trkpt lat="41.7756921" lon="13.8305049"><ele>1135.8</ele><time>2026-04-26T11:27:54.954Z</time></trkpt><trkpt lat="41.7755838" lon="13.8304516"><ele>1136.2</ele><time>2026-04-26T11:27:55.948Z</time></trkpt><trkpt lat="41.7755016" lon="13.8303904"><ele>1136.6</ele><time>2026-04-26T11:27:56.947Z</time></trkpt><trkpt lat="41.7754525" lon="13.8303231"><ele>1137.0</ele><time>2026-04-26T11:27:57.946Z</time></trkpt><trkpt lat="41.7754265" lon="13.8301916"><ele>1137.6666666666667</ele><time>2026-04-26T11:27:59.941Z</time></trkpt><trkpt lat="41.7754455" lon="13.8300776"><ele>1138.3333333333333</ele><time>2026-04-26T11:28:01.951Z</time></trkpt><trkpt lat="41.7754767" lon="13.8299754"><ele>1139.0</ele><time>2026-04-26T11:28:04.946Z</time></trkpt><trkpt lat="41.7755231" lon="13.8299056"><ele>1139.6666666666665</ele><time>2026-04-26T11:28:07.954Z</time></trkpt><trkpt lat="41.7755802" lon="13.8298608"><ele>1140.3333333333333</ele><time>2026-04-26T11:28:09.955Z</time></trkpt><trkpt lat="41.7756905" lon="13.8298074"><ele>1141.0</ele><time>2026-04-26T11:28:11.949Z</time></trkpt><trkpt lat="41.7757619" lon="13.8297821"><ele>1141.0</ele><time>2026-04-26T11:28:12.949Z</time></trkpt><trkpt lat="41.7758398" lon="13.8297535"><ele>1141.0</ele><time>2026-04-26T11:28:13.948Z</time></trkpt><trkpt lat="41.7759197" lon="13.8297245"><ele>1141.0</ele><time>2026-04-26T11:28:14.955Z</time></trkpt><trkpt lat="41.7760024" lon="13.829691"><ele>1141.0</ele><time>2026-04-26T11:28:15.952Z</time></trkpt><trkpt lat="41.7760867" lon="13.8296549"><ele>1141.0</ele><time>2026-04-26T11:28:16.944Z</time></trkpt><trkpt lat="41.7761695" lon="13.829621"><ele>1141.0</ele><time>2026-04-26T11:28:17.949Z</time></trkpt><trkpt lat="41.7762443" lon="13.829595"><ele>1141.8333333333333</ele><time>2026-04-26T11:28:18.948Z</time></trkpt><trkpt lat="41.7763106" lon="13.8295769"><ele>1142.6666666666665</ele><time>2026-04-26T11:28:19.953Z</time></trkpt><trkpt lat="41.7763928" lon="13.8295174"><ele>1143.5</ele><time>2026-04-26T11:28:21.959Z</time></trkpt><trkpt lat="41.7763549" lon="13.8294408"><ele>1144.3333333333333</ele><time>2026-04-26T11:28:24.972Z</time></trkpt><trkpt lat="41.7762768" lon="13.8294913"><ele>1145.1666666666667</ele><time>2026-04-26T11:28:27.959Z</time></trkpt><trkpt lat="41.7761812" lon="13.8295544"><ele>1146.0</ele><time>2026-04-26T11:28:29.952Z</time></trkpt><trkpt lat="41.7761209" lon="13.8295886"><ele>1146.0</ele><time>2026-04-26T11:28:30.943Z</time></trkpt><trkpt lat="41.7760519" lon="13.8296192"><ele>1146.0</ele><time>2026-04-26T11:28:31.95Z</time></trkpt><trkpt lat="41.775977" lon="13.8296477"><ele>1146.0</ele><time>2026-04-26T11:28:32.948Z</time></trkpt><trkpt lat="41.775894" lon="13.8296756"><ele>1146.0</ele><time>2026-04-26T11:28:33.95Z</time></trkpt><trkpt lat="41.7758131" lon="13.8297055"><ele>1146.0</ele><time>2026-04-26T11:28:34.948Z</time></trkpt><trkpt lat="41.7757385" lon="13.8297353"><ele>1146.0</ele><time>2026-04-26T11:28:35.945Z</time></trkpt><trkpt lat="41.7756662" lon="13.8297607"><ele>1145.0</ele><time>2026-04-26T11:28:36.949Z</time></trkpt><trkpt lat="41.7756041" lon="13.8297785"><ele>1144.0</ele><time>2026-04-26T11:28:37.95Z</time></trkpt><trkpt lat="41.7754897" lon="13.8297789"><ele>1143.0</ele><time>2026-04-26T11:28:39.948Z</time></trkpt><trkpt lat="41.7753824" lon="13.8297314"><ele>1142.0</ele><time>2026-04-26T11:29:24.959Z</time></trkpt><trkpt lat="41.7752982" lon="13.8296417"><ele>1141.0</ele><time>2026-04-26T11:29:26.944Z</time></trkpt><trkpt lat="41.775256" lon="13.8295653"><ele>1141.0</ele><time>2026-04-26T11:29:27.955Z</time></trkpt><trkpt lat="41.7752241" lon="13.8294702"><ele>1141.0</ele><time>2026-04-26T11:29:28.95Z</time></trkpt><trkpt lat="41.7751965" lon="13.8293518"><ele>1141.0</ele><time>2026-04-26T11:29:29.947Z</time></trkpt><trkpt lat="41.7751687" lon="13.8292073"><ele>1141.0</ele><time>2026-04-26T11:29:30.951Z</time></trkpt><trkpt lat="41.7751425" lon="13.8290472"><ele>1141.0</ele><time>2026-04-26T11:29:31.965Z</time></trkpt><trkpt lat="41.7751304" lon="13.8288799"><ele>1141.25</ele><time>2026-04-26T11:29:32.954Z</time></trkpt><trkpt lat="41.7751466" lon="13.8287072"><ele>1141.5</ele><time>2026-04-26T11:29:33.943Z</time></trkpt><trkpt lat="41.775198" lon="13.8285237"><ele>1141.75</ele><time>2026-04-26T11:29:34.96Z</time></trkpt><trkpt lat="41.7752841" lon="13.8283266"><ele>1142.0</ele><time>2026-04-26T11:29:35.945Z</time></trkpt><trkpt lat="41.7753886" lon="13.8280992"><ele>1142.0</ele><time>2026-04-26T11:29:36.949Z</time></trkpt><trkpt lat="41.7755016" lon="13.8278465"><ele>1142.0</ele><time>2026-04-26T11:29:37.955Z</time></trkpt><trkpt lat="41.7756197" lon="13.8275772"><ele>1142.0</ele><time>2026-04-26T11:29:38.953Z</time></trkpt><trkpt lat="41.7757436" lon="13.8272933"><ele>1142.0</ele><time>2026-04-26T11:29:39.946Z</time></trkpt><trkpt lat="41.7758749" lon="13.826997"><ele>1138.0</ele><time>2026-04-26T11:29:40.956Z</time></trkpt><trkpt lat="41.7760134" lon="13.8266913"><ele>1134.0</ele><time>2026-04-26T11:29:41.949Z</time></trkpt><trkpt lat="41.7761558" lon="13.8263836"><ele>1134.0</ele><time>2026-04-26T11:29:42.944Z</time></trkpt><trkpt lat="41.7762952" lon="13.826082"><ele>1134.0</ele><time>2026-04-26T11:29:43.949Z</time></trkpt><trkpt lat="41.776434" lon="13.8257943"><ele>1141.5</ele><time>2026-04-26T11:29:44.961Z</time></trkpt><trkpt lat="41.7765831" lon="13.8255297"><ele>1149.0</ele><time>2026-04-26T11:29:45.95Z</time></trkpt><trkpt lat="41.7767456" lon="13.8252888"><ele>1146.5</ele><time>2026-04-26T11:29:46.936Z</time></trkpt><trkpt lat="41.7769112" lon="13.8250589"><ele>1144.0</ele><time>2026-04-26T11:29:47.95Z</time></trkpt><trkpt lat="41.777068" lon="13.8248233"><ele>1144.0</ele><time>2026-04-26T11:29:48.952Z</time></trkpt><trkpt lat="41.7772073" lon="13.8245745"><ele>1144.0</ele><time>2026-04-26T11:29:49.943Z</time></trkpt><trkpt lat="41.7773298" lon="13.8243132"><ele>1151.6666666666665</ele><time>2026-04-26T11:29:50.952Z</time></trkpt><trkpt lat="41.7774486" lon="13.8240562"><ele>1159.3333333333333</ele><time>2026-04-26T11:29:51.953Z</time></trkpt><trkpt lat="41.7775554" lon="13.8238191"><ele>1167.0</ele><time>2026-04-26T11:29:52.945Z</time></trkpt><trkpt lat="41.7776837" lon="13.8235943"><ele>1164.3333333333333</ele><time>2026-04-26T11:29:53.942Z</time></trkpt><trkpt lat="41.7778225" lon="13.8233842"><ele>1161.6666666666665</ele><time>2026-04-26T11:29:54.95Z</time></trkpt><trkpt lat="41.7779756" lon="13.8231783"><ele>1159.0</ele><time>2026-04-26T11:29:55.949Z</time></trkpt><trkpt lat="41.778132" lon="13.8229766"><ele>1159.0</ele><time>2026-04-26T11:29:56.948Z</time></trkpt><trkpt lat="41.7782879" lon="13.8227686"><ele>1159.0</ele><time>2026-04-26T11:29:57.945Z</time></trkpt><trkpt lat="41.7784385" lon="13.8225565"><ele>1159.0</ele><time>2026-04-26T11:29:58.946Z</time></trkpt><trkpt lat="41.7785798" lon="13.8223358"><ele>1155.6666666666665</ele><time>2026-04-26T11:29:59.954Z</time></trkpt><trkpt lat="41.778711" lon="13.8221027"><ele>1152.3333333333333</ele><time>2026-04-26T11:30:00.942Z</time></trkpt><trkpt lat="41.7788332" lon="13.8218682"><ele>1149.0</ele><time>2026-04-26T11:30:01.946Z</time></trkpt><trkpt lat="41.7789546" lon="13.8216345"><ele>1156.3333333333333</ele><time>2026-04-26T11:30:02.952Z</time></trkpt><trkpt lat="41.7790662" lon="13.8214247"><ele>1163.6666666666665</ele><time>2026-04-26T11:30:03.94Z</time></trkpt><trkpt lat="41.7791686" lon="13.8212487"><ele>1171.0</ele><time>2026-04-26T11:30:04.941Z</time></trkpt><trkpt lat="41.7792776" lon="13.8211348"><ele>1171.0</ele><time>2026-04-26T11:30:05.951Z</time></trkpt><trkpt lat="41.7793451" lon="13.821044"><ele>1171.0</ele><time>2026-04-26T11:30:06.944Z</time></trkpt><trkpt lat="41.7793854" lon="13.8209654"><ele>1171.0</ele><time>2026-04-26T11:30:07.94Z</time></trkpt><trkpt lat="41.7793922" lon="13.8208768"><ele>1171.0</ele><time>2026-04-26T11:30:08.956Z</time></trkpt><trkpt lat="41.7793073" lon="13.8207573"><ele>1171.0</ele><time>2026-04-26T11:30:10.939Z</time></trkpt><trkpt lat="41.7792435" lon="13.8207488"><ele>1171.0</ele><time>2026-04-26T11:30:11.951Z</time></trkpt><trkpt lat="41.7791853" lon="13.8207827"><ele>1171.0</ele><time>2026-04-26T11:30:12.953Z</time></trkpt><trkpt lat="41.7791317" lon="13.8208576"><ele>1171.0</ele><time>2026-04-26T11:30:13.943Z</time></trkpt><trkpt lat="41.7790786" lon="13.8209687"><ele>1171.0</ele><time>2026-04-26T11:30:14.955Z</time></trkpt><trkpt lat="41.7790136" lon="13.8211096"><ele>1171.0</ele><time>2026-04-26T11:30:15.941Z</time></trkpt><trkpt lat="41.7789314" lon="13.8212766"><ele>1171.0</ele><time>2026-04-26T11:30:16.94Z</time></trkpt><trkpt lat="41.7788405" lon="13.8214571"><ele>1171.0</ele><time>2026-04-26T11:30:17.947Z</time></trkpt><trkpt lat="41.7787359" lon="13.8216408"><ele>1171.0</ele><time>2026-04-26T11:30:18.954Z</time></trkpt><trkpt lat="41.778611" lon="13.8218218"><ele>1171.0</ele><time>2026-04-26T11:30:19.954Z</time></trkpt><trkpt lat="41.7784709" lon="13.822002"><ele>1176.3333333333333</ele><time>2026-04-26T11:30:20.939Z</time></trkpt><trkpt lat="41.7783256" lon="13.8221864"><ele>1181.6666666666667</ele><time>2026-04-26T11:30:21.954Z</time></trkpt><trkpt lat="41.7781796" lon="13.8223766"><ele>1187.0</ele><time>2026-04-26T11:30:22.946Z</time></trkpt><trkpt lat="41.7780309" lon="13.8225704"><ele>1189.3333333333335</ele><time>2026-04-26T11:30:23.943Z</time></trkpt><trkpt lat="41.7778691" lon="13.8227493"><ele>1191.6666666666667</ele><time>2026-04-26T11:30:24.943Z</time></trkpt><trkpt lat="41.7777023" lon="13.8229194"><ele>1194.0</ele><time>2026-04-26T11:30:25.942Z</time></trkpt><trkpt lat="41.7775368" lon="13.8230837"><ele>1194.0</ele><time>2026-04-26T11:30:26.939Z</time></trkpt><trkpt lat="41.7773616" lon="13.8232229"><ele>1194.0</ele><time>2026-04-26T11:30:27.945Z</time></trkpt><trkpt lat="41.777198" lon="13.8233484"><ele>1194.0</ele><time>2026-04-26T11:30:28.944Z</time></trkpt><trkpt lat="41.7770502" lon="13.8234573"><ele>1197.75</ele><time>2026-04-26T11:30:29.943Z</time></trkpt><trkpt lat="41.7769252" lon="13.8235568"><ele>1201.5</ele><time>2026-04-26T11:30:30.944Z</time></trkpt><trkpt lat="41.7768272" lon="13.8236792"><ele>1205.25</ele><time>2026-04-26T11:30:31.946Z</time></trkpt><trkpt lat="41.7767211" lon="13.8238039"><ele>1209.0</ele><time>2026-04-26T11:30:32.951Z</time></trkpt><trkpt lat="41.7766435" lon="13.8240032"><ele>1209.0</ele><time>2026-04-26T11:30:33.955Z</time></trkpt><trkpt lat="41.7765356" lon="13.824216"><ele>1209.0</ele><time>2026-04-26T11:30:34.95Z</time></trkpt><trkpt lat="41.776413" lon="13.8244296"><ele>1209.0</ele><time>2026-04-26T11:30:35.941Z</time></trkpt><trkpt lat="41.7762612" lon="13.8246085"><ele>1210.0</ele><time>2026-04-26T11:30:36.968Z</time></trkpt><trkpt lat="41.7760993" lon="13.8247706"><ele>1211.0</ele><time>2026-04-26T11:30:37.947Z</time></trkpt><trkpt lat="41.7759228" lon="13.824901"><ele>1212.0</ele><time>2026-04-26T11:30:38.949Z</time></trkpt><trkpt lat="41.7757582" lon="13.8250144"><ele>1212.0</ele><time>2026-04-26T11:30:39.965Z</time></trkpt><trkpt lat="41.7756027" lon="13.8251213"><ele>1212.0</ele><time>2026-04-26T11:30:40.945Z</time></trkpt><trkpt lat="41.7754802" lon="13.8252581"><ele>1212.0</ele><time>2026-04-26T11:30:41.949Z</time></trkpt><trkpt lat="41.7753818" lon="13.8253721"><ele>1211.25</ele><time>2026-04-26T11:30:42.948Z</time></trkpt><trkpt lat="41.7752624" lon="13.8254426"><ele>1210.5</ele><time>2026-04-26T11:30:43.967Z</time></trkpt><trkpt lat="41.7751418" lon="13.8254963"><ele>1209.75</ele><time>2026-04-26T11:30:44.949Z</time></trkpt><trkpt lat="41.7750311" lon="13.8255452"><ele>1209.0</ele><time>2026-04-26T11:30:45.965Z</time></trkpt><trkpt lat="41.7749138" lon="13.8255943"><ele>1209.0</ele><time>2026-04-26T11:30:46.961Z</time></trkpt><trkpt lat="41.7748167" lon="13.8256692"><ele>1209.0</ele><time>2026-04-26T11:30:47.962Z</time></trkpt><trkpt lat="41.7747211" lon="13.8257522"><ele>1209.0</ele><time>2026-04-26T11:30:48.943Z</time></trkpt><trkpt lat="41.7746534" lon="13.8258893"><ele>1209.0</ele><time>2026-04-26T11:30:49.948Z</time></trkpt><trkpt lat="41.7745726" lon="13.826059"><ele>1216.3333333333333</ele><time>2026-04-26T11:30:50.955Z</time></trkpt><trkpt lat="41.774491" lon="13.8262614"><ele>1223.6666666666665</ele><time>2026-04-26T11:30:51.962Z</time></trkpt><trkpt lat="41.7744098" lon="13.8264621"><ele>1231.0</ele><time>2026-04-26T11:30:52.952Z</time></trkpt><trkpt lat="41.7743206" lon="13.8266518"><ele>1220.6666666666665</ele><time>2026-04-26T11:30:53.95Z</time></trkpt><trkpt lat="41.7741961" lon="13.8268192"><ele>1210.3333333333333</ele><time>2026-04-26T11:30:54.957Z</time></trkpt><trkpt lat="41.7740593" lon="13.8269647"><ele>1200.0</ele><time>2026-04-26T11:30:55.955Z</time></trkpt><trkpt lat="41.7739032" lon="13.8270903"><ele>1200.0</ele><time>2026-04-26T11:30:56.955Z</time></trkpt><trkpt lat="41.7737395" lon="13.8272104"><ele>1200.0</ele><time>2026-04-26T11:30:57.94Z</time></trkpt><trkpt lat="41.7735716" lon="13.8273399"><ele>1200.0</ele><time>2026-04-26T11:30:58.947Z</time></trkpt><trkpt lat="41.7734136" lon="13.8274956"><ele>1205.3333333333333</ele><time>2026-04-26T11:30:59.946Z</time></trkpt><trkpt lat="41.7732715" lon="13.8276604"><ele>1210.6666666666665</ele><time>2026-04-26T11:31:00.942Z</time></trkpt><trkpt lat="41.7731361" lon="13.8278241"><ele>1216.0</ele><time>2026-04-26T11:31:01.954Z</time></trkpt><trkpt lat="41.7730129" lon="13.8279728"><ele>1216.0</ele><time>2026-04-26T11:31:02.954Z</time></trkpt><trkpt lat="41.7729163" lon="13.8281213"><ele>1216.0</ele><time>2026-04-26T11:31:03.939Z</time></trkpt><trkpt lat="41.7728472" lon="13.828278"><ele>1216.0</ele><time>2026-04-26T11:31:04.948Z</time></trkpt><trkpt lat="41.7727801" lon="13.8284422"><ele>1216.0</ele><time>2026-04-26T11:31:05.954Z</time></trkpt><trkpt lat="41.7727755" lon="13.8286635"><ele>1213.0</ele><time>2026-04-26T11:31:06.952Z</time></trkpt><trkpt lat="41.772805" lon="13.8289007"><ele>1210.0</ele><time>2026-04-26T11:31:07.962Z</time></trkpt><trkpt lat="41.7728141" lon="13.8291471"><ele>1207.0</ele><time>2026-04-26T11:31:08.957Z</time></trkpt><trkpt lat="41.772836" lon="13.8294003"><ele>1205.3333333333333</ele><time>2026-04-26T11:31:09.942Z</time></trkpt><trkpt lat="41.7728223" lon="13.8296909"><ele>1203.6666666666667</ele><time>2026-04-26T11:31:10.953Z</time></trkpt><trkpt lat="41.7728008" lon="13.8299771"><ele>1202.0</ele><time>2026-04-26T11:31:11.953Z</time></trkpt><trkpt lat="41.77278" lon="13.8302596"><ele>1201.6666666666667</ele><time>2026-04-26T11:31:12.941Z</time></trkpt><trkpt lat="41.7727583" lon="13.8305438"><ele>1201.3333333333333</ele><time>2026-04-26T11:31:13.957Z</time></trkpt><trkpt lat="41.7727047" lon="13.8307974"><ele>1201.0</ele><time>2026-04-26T11:31:14.95Z</time></trkpt><trkpt lat="41.7726484" lon="13.8310352"><ele>1210.6666666666665</ele><time>2026-04-26T11:31:15.945Z</time></trkpt><trkpt lat="41.7725766" lon="13.83124"><ele>1220.3333333333333</ele><time>2026-04-26T11:31:16.951Z</time></trkpt><trkpt lat="41.7724828" lon="13.8314025"><ele>1230.0</ele><time>2026-04-26T11:31:17.951Z</time></trkpt><trkpt lat="41.7723617" lon="13.8315309"><ele>1230.0</ele><time>2026-04-26T11:31:18.952Z</time></trkpt><trkpt lat="41.7722362" lon="13.8316325"><ele>1230.0</ele><time>2026-04-26T11:31:19.942Z</time></trkpt><trkpt lat="41.7720794" lon="13.8316748"><ele>1230.0</ele><time>2026-04-26T11:31:20.953Z</time></trkpt><trkpt lat="41.7719037" lon="13.831697"><ele>1236.0</ele><time>2026-04-26T11:31:21.955Z</time></trkpt><trkpt lat="41.7717189" lon="13.8317223"><ele>1242.0</ele><time>2026-04-26T11:31:22.956Z</time></trkpt><trkpt lat="41.7715249" lon="13.8317393"><ele>1248.0</ele><time>2026-04-26T11:31:23.948Z</time></trkpt><trkpt lat="41.7713238" lon="13.8317378"><ele>1248.0</ele><time>2026-04-26T11:31:24.948Z</time></trkpt><trkpt lat="41.7711376" lon="13.831723"><ele>1248.0</ele><time>2026-04-26T11:31:25.95Z</time></trkpt><trkpt lat="41.7709706" lon="13.8317159"><ele>1248.0</ele><time>2026-04-26T11:31:26.941Z</time></trkpt><trkpt lat="41.7708349" lon="13.8317403"><ele>1250.0</ele><time>2026-04-26T11:31:27.948Z</time></trkpt><trkpt lat="41.7707417" lon="13.8318101"><ele>1252.0</ele><time>2026-04-26T11:31:28.945Z</time></trkpt><trkpt lat="41.7706792" lon="13.8319212"><ele>1254.0</ele><time>2026-04-26T11:31:29.941Z</time></trkpt><trkpt lat="41.770652" lon="13.8320671"><ele>1256.0</ele><time>2026-04-26T11:31:30.95Z</time></trkpt><trkpt lat="41.770659" lon="13.8322522"><ele>1256.0</ele><time>2026-04-26T11:31:31.956Z</time></trkpt><trkpt lat="41.7706854" lon="13.8324729"><ele>1256.0</ele><time>2026-04-26T11:31:32.943Z</time></trkpt><trkpt lat="41.7707127" lon="13.8327186"><ele>1256.0</ele><time>2026-04-26T11:31:33.96Z</time></trkpt><trkpt lat="41.7707201" lon="13.8329719"><ele>1258.3333333333335</ele><time>2026-04-26T11:31:34.96Z</time></trkpt><trkpt lat="41.7707203" lon="13.8332228"><ele>1260.6666666666667</ele><time>2026-04-26T11:31:35.945Z</time></trkpt><trkpt lat="41.7707268" lon="13.8334724"><ele>1263.0</ele><time>2026-04-26T11:31:36.947Z</time></trkpt><trkpt lat="41.7707736" lon="13.8337079"><ele>1261.3333333333333</ele><time>2026-04-26T11:31:37.949Z</time></trkpt><trkpt lat="41.7708474" lon="13.8339304"><ele>1259.6666666666665</ele><time>2026-04-26T11:31:38.948Z</time></trkpt><trkpt lat="41.7709263" lon="13.8341515"><ele>1258.0</ele><time>2026-04-26T11:31:39.939Z</time></trkpt><trkpt lat="41.7710439" lon="13.8343538"><ele>1258.0</ele><time>2026-04-26T11:31:40.948Z</time></trkpt><trkpt lat="41.7711598" lon="13.834588"><ele>1258.0</ele><time>2026-04-26T11:31:41.946Z</time></trkpt><trkpt lat="41.7712725" lon="13.8348279"><ele>1258.0</ele><time>2026-04-26T11:31:42.939Z</time></trkpt><trkpt lat="41.7713894" lon="13.8350802"><ele>1271.5</ele><time>2026-04-26T11:31:43.94Z</time></trkpt><trkpt lat="41.771503" lon="13.8353356"><ele>1285.0</ele><time>2026-04-26T11:31:44.95Z</time></trkpt><trkpt lat="41.7716055" lon="13.8356091"><ele>1285.0</ele><time>2026-04-26T11:31:45.95Z</time></trkpt><trkpt lat="41.7717121" lon="13.8358815"><ele>1285.0</ele><time>2026-04-26T11:31:46.947Z</time></trkpt><trkpt lat="41.7718176" lon="13.8361634"><ele>1270.5</ele><time>2026-04-26T11:31:47.948Z</time></trkpt><trkpt lat="41.7719249" lon="13.8364477"><ele>1256.0</ele><time>2026-04-26T11:31:48.949Z</time></trkpt><trkpt lat="41.7720432" lon="13.8367183"><ele>1264.6666666666667</ele><time>2026-04-26T11:31:49.949Z</time></trkpt><trkpt lat="41.7721629" lon="13.8369731"><ele>1273.3333333333333</ele><time>2026-04-26T11:31:50.955Z</time></trkpt><trkpt lat="41.772304" lon="13.8371932"><ele>1282.0</ele><time>2026-04-26T11:31:51.953Z</time></trkpt><trkpt lat="41.7724349" lon="13.8374146"><ele>1282.0</ele><time>2026-04-26T11:31:52.954Z</time></trkpt><trkpt lat="41.7725561" lon="13.8376122"><ele>1282.0</ele><time>2026-04-26T11:31:53.959Z</time></trkpt><trkpt lat="41.7726497" lon="13.8377906"><ele>1282.0</ele><time>2026-04-26T11:31:54.95Z</time></trkpt><trkpt lat="41.7727036" lon="13.8379549"><ele>1280.25</ele><time>2026-04-26T11:31:55.945Z</time></trkpt><trkpt lat="41.7727142" lon="13.8381077"><ele>1278.5</ele><time>2026-04-26T11:31:56.955Z</time></trkpt><trkpt lat="41.7726879" lon="13.8382481"><ele>1276.75</ele><time>2026-04-26T11:31:57.941Z</time></trkpt><trkpt lat="41.7726533" lon="13.8384015"><ele>1275.0</ele><time>2026-04-26T11:31:58.948Z</time></trkpt><trkpt lat="41.7725864" lon="13.8385559"><ele>1275.0</ele><time>2026-04-26T11:31:59.95Z</time></trkpt><trkpt lat="41.7725222" lon="13.8387208"><ele>1275.0</ele><time>2026-04-26T11:32:00.951Z</time></trkpt><trkpt lat="41.772467" lon="13.8388922"><ele>1275.0</ele><time>2026-04-26T11:32:01.954Z</time></trkpt><trkpt lat="41.7723907" lon="13.8390462"><ele>1275.0</ele><time>2026-04-26T11:32:02.945Z</time></trkpt><trkpt lat="41.7722959" lon="13.8391849"><ele>1269.75</ele><time>2026-04-26T11:32:03.949Z</time></trkpt><trkpt lat="41.7721981" lon="13.839324"><ele>1264.5</ele><time>2026-04-26T11:32:04.949Z</time></trkpt><trkpt lat="41.7721006" lon="13.8394625"><ele>1259.25</ele><time>2026-04-26T11:32:05.944Z</time></trkpt><trkpt lat="41.7719936" lon="13.8395823"><ele>1254.0</ele><time>2026-04-26T11:32:06.943Z</time></trkpt><trkpt lat="41.771872" lon="13.8396638"><ele>1261.25</ele><time>2026-04-26T11:32:07.951Z</time></trkpt><trkpt lat="41.7717439" lon="13.8396927"><ele>1268.5</ele><time>2026-04-26T11:32:08.95Z</time></trkpt><trkpt lat="41.7716127" lon="13.8396736"><ele>1275.75</ele><time>2026-04-26T11:32:09.94Z</time></trkpt><trkpt lat="41.7714901" lon="13.8396376"><ele>1283.0</ele><time>2026-04-26T11:32:10.95Z</time></trkpt><trkpt lat="41.7713735" lon="13.8396226"><ele>1283.0</ele><time>2026-04-26T11:32:11.96Z</time></trkpt><trkpt lat="41.7712631" lon="13.8396241"><ele>1283.0</ele><time>2026-04-26T11:32:12.942Z</time></trkpt><trkpt lat="41.7711953" lon="13.8397134"><ele>1283.0</ele><time>2026-04-26T11:32:13.949Z</time></trkpt><trkpt lat="41.7711568" lon="13.8398292"><ele>1283.0</ele><time>2026-04-26T11:32:14.949Z</time></trkpt><trkpt lat="41.7711248" lon="13.839941"><ele>1283.0</ele><time>2026-04-26T11:32:15.942Z</time></trkpt><trkpt lat="41.7711464" lon="13.8401078"><ele>1282.1666666666667</ele><time>2026-04-26T11:32:16.95Z</time></trkpt><trkpt lat="41.7711472" lon="13.8402374"><ele>1281.3333333333335</ele><time>2026-04-26T11:32:17.945Z</time></trkpt><trkpt lat="41.7711214" lon="13.8403454"><ele>1280.5</ele><time>2026-04-26T11:32:18.946Z</time></trkpt><trkpt lat="41.7710608" lon="13.8404242"><ele>1279.6666666666667</ele><time>2026-04-26T11:32:19.955Z</time></trkpt><trkpt lat="41.7709812" lon="13.8404637"><ele>1278.8333333333333</ele><time>2026-04-26T11:32:20.964Z</time></trkpt><trkpt lat="41.7708858" lon="13.8404484"><ele>1278.0</ele><time>2026-04-26T11:32:21.946Z</time></trkpt><trkpt lat="41.7707744" lon="13.8403869"><ele>1278.0</ele><time>2026-04-26T11:32:22.947Z</time></trkpt><trkpt lat="41.7706418" lon="13.8402831"><ele>1278.0</ele><time>2026-04-26T11:32:23.947Z</time></trkpt><trkpt lat="41.7704747" lon="13.8401532"><ele>1278.0</ele><time>2026-04-26T11:32:24.955Z</time></trkpt><trkpt lat="41.7702705" lon="13.8399969"><ele>1287.5</ele><time>2026-04-26T11:32:25.947Z</time></trkpt><trkpt lat="41.7700311" lon="13.8398165"><ele>1297.0</ele><time>2026-04-26T11:32:26.954Z</time></trkpt><trkpt lat="41.76978" lon="13.8396248"><ele>1297.0</ele><time>2026-04-26T11:32:27.959Z</time></trkpt><trkpt lat="41.7695205" lon="13.8394338"><ele>1297.0</ele><time>2026-04-26T11:32:28.943Z</time></trkpt><trkpt lat="41.7692797" lon="13.8392477"><ele>1303.5</ele><time>2026-04-26T11:32:29.951Z</time></trkpt><trkpt lat="41.7690495" lon="13.839079"><ele>1310.0</ele><time>2026-04-26T11:32:30.947Z</time></trkpt><trkpt lat="41.7688384" lon="13.8389306"><ele>1310.0</ele><time>2026-04-26T11:32:31.955Z</time></trkpt><trkpt lat="41.7686445" lon="13.8387925"><ele>1310.0</ele><time>2026-04-26T11:32:32.952Z</time></trkpt><trkpt lat="41.7684749" lon="13.8386574"><ele>1310.0</ele><time>2026-04-26T11:32:33.959Z</time></trkpt><trkpt lat="41.7683236" lon="13.8384976"><ele>1312.6666666666667</ele><time>2026-04-26T11:32:34.971Z</time></trkpt><trkpt lat="41.7681892" lon="13.8383039"><ele>1315.3333333333333</ele><time>2026-04-26T11:32:35.951Z</time></trkpt><trkpt lat="41.7680604" lon="13.8380962"><ele>1318.0</ele><time>2026-04-26T11:32:36.949Z</time></trkpt><trkpt lat="41.7679326" lon="13.8378844"><ele>1318.0</ele><time>2026-04-26T11:32:37.948Z</time></trkpt><trkpt lat="41.7677967" lon="13.8376777"><ele>1318.0</ele><time>2026-04-26T11:32:38.946Z</time></trkpt><trkpt lat="41.7676541" lon="13.8374754"><ele>1318.0</ele><time>2026-04-26T11:32:39.949Z</time></trkpt><trkpt lat="41.7675021" lon="13.8372787"><ele>1317.0</ele><time>2026-04-26T11:32:40.948Z</time></trkpt><trkpt lat="41.7673312" lon="13.8370898"><ele>1316.0</ele><time>2026-04-26T11:32:41.949Z</time></trkpt><trkpt lat="41.7671491" lon="13.8369083"><ele>1315.0</ele><time>2026-04-26T11:32:42.955Z</time></trkpt><trkpt lat="41.766968" lon="13.8367276"><ele>1316.6666666666665</ele><time>2026-04-26T11:32:43.948Z</time></trkpt><trkpt lat="41.766791" lon="13.836552"><ele>1318.3333333333333</ele><time>2026-04-26T11:32:44.948Z</time></trkpt><trkpt lat="41.766613" lon="13.8363893"><ele>1320.0</ele><time>2026-04-26T11:32:45.949Z</time></trkpt><trkpt lat="41.7664292" lon="13.8362489"><ele>1320.0</ele><time>2026-04-26T11:32:46.939Z</time></trkpt><trkpt lat="41.7662403" lon="13.8361311"><ele>1320.0</ele><time>2026-04-26T11:32:47.941Z</time></trkpt><trkpt lat="41.7660476" lon="13.8360357"><ele>1320.0</ele><time>2026-04-26T11:32:48.945Z</time></trkpt><trkpt lat="41.7658532" lon="13.8359552"><ele>1326.3333333333333</ele><time>2026-04-26T11:32:49.943Z</time></trkpt><trkpt lat="41.7656597" lon="13.835878"><ele>1332.6666666666665</ele><time>2026-04-26T11:32:50.955Z</time></trkpt><trkpt lat="41.765475" lon="13.8357874"><ele>1339.0</ele><time>2026-04-26T11:32:51.951Z</time></trkpt><trkpt lat="41.7653049" lon="13.8356941"><ele>1337.0</ele><time>2026-04-26T11:32:52.941Z</time></trkpt><trkpt lat="41.7651383" lon="13.835615"><ele>1335.0</ele><time>2026-04-26T11:32:53.949Z</time></trkpt><trkpt lat="41.7649623" lon="13.8355712"><ele>1333.0</ele><time>2026-04-26T11:32:54.947Z</time></trkpt><trkpt lat="41.7647803" lon="13.8355289"><ele>1333.0</ele><time>2026-04-26T11:32:55.94Z</time></trkpt><trkpt lat="41.76458" lon="13.8355157"><ele>1333.0</ele><time>2026-04-26T11:32:56.954Z</time></trkpt><trkpt lat="41.7643638" lon="13.8355031"><ele>1333.0</ele><time>2026-04-26T11:32:57.944Z</time></trkpt><trkpt lat="41.7641543" lon="13.8355045"><ele>1332.0</ele><time>2026-04-26T11:32:58.942Z</time></trkpt><trkpt lat="41.7639443" lon="13.8355089"><ele>1331.0</ele><time>2026-04-26T11:32:59.957Z</time></trkpt><trkpt lat="41.7637395" lon="13.8354983"><ele>1330.0</ele><time>2026-04-26T11:33:00.942Z</time></trkpt><trkpt lat="41.7635303" lon="13.8354576"><ele>1330.0</ele><time>2026-04-26T11:33:01.945Z</time></trkpt><trkpt lat="41.7633167" lon="13.8354135"><ele>1330.0</ele><time>2026-04-26T11:33:02.946Z</time></trkpt><trkpt lat="41.7631003" lon="13.8353289"><ele>1330.0</ele><time>2026-04-26T11:33:03.944Z</time></trkpt><trkpt lat="41.7628727" lon="13.8352602"><ele>1330.0</ele><time>2026-04-26T11:33:04.949Z</time></trkpt><trkpt lat="41.7626367" lon="13.8352216"><ele>1330.0</ele><time>2026-04-26T11:33:05.942Z</time></trkpt><trkpt lat="41.7623955" lon="13.8351808"><ele>1347.0</ele><time>2026-04-26T11:33:06.952Z</time></trkpt><trkpt lat="41.7621564" lon="13.8351342"><ele>1364.0</ele><time>2026-04-26T11:33:07.947Z</time></trkpt><trkpt lat="41.7619152" lon="13.8350794"><ele>1362.5</ele><time>2026-04-26T11:33:08.943Z</time></trkpt><trkpt lat="41.761672" lon="13.8350171"><ele>1361.0</ele><time>2026-04-26T11:33:09.946Z</time></trkpt><trkpt lat="41.7614257" lon="13.8349452"><ele>1361.0</ele><time>2026-04-26T11:33:10.947Z</time></trkpt><trkpt lat="41.7611843" lon="13.834897"><ele>1361.0</ele><time>2026-04-26T11:33:11.943Z</time></trkpt><trkpt lat="41.7609458" lon="13.8348629"><ele>1359.0</ele><time>2026-04-26T11:33:12.951Z</time></trkpt><trkpt lat="41.7607023" lon="13.8348328"><ele>1357.0</ele><time>2026-04-26T11:33:13.947Z</time></trkpt><trkpt lat="41.7604582" lon="13.8348096"><ele>1357.0</ele><time>2026-04-26T11:33:14.942Z</time></trkpt><trkpt lat="41.7602145" lon="13.8347964"><ele>1357.0</ele><time>2026-04-26T11:33:15.956Z</time></trkpt><trkpt lat="41.7599733" lon="13.8348057"><ele>1358.0</ele><time>2026-04-26T11:33:16.948Z</time></trkpt><trkpt lat="41.7597347" lon="13.8348199"><ele>1359.0</ele><time>2026-04-26T11:33:17.94Z</time></trkpt><trkpt lat="41.7595009" lon="13.8348346"><ele>1359.3333333333333</ele><time>2026-04-26T11:33:18.949Z</time></trkpt><trkpt lat="41.7592753" lon="13.8348499"><ele>1359.6666666666665</ele><time>2026-04-26T11:33:19.955Z</time></trkpt><trkpt lat="41.759071" lon="13.8348491"><ele>1360.0</ele><time>2026-04-26T11:33:20.943Z</time></trkpt><trkpt lat="41.7588641" lon="13.8348139"><ele>1360.0</ele><time>2026-04-26T11:33:21.945Z</time></trkpt><trkpt lat="41.7586545" lon="13.8347548"><ele>1360.0</ele><time>2026-04-26T11:33:22.945Z</time></trkpt><trkpt lat="41.7584516" lon="13.834681"><ele>1360.0</ele><time>2026-04-26T11:33:23.945Z</time></trkpt><trkpt lat="41.7582597" lon="13.8346131"><ele>1362.3333333333333</ele><time>2026-04-26T11:33:24.944Z</time></trkpt><trkpt lat="41.7580776" lon="13.8345541"><ele>1364.6666666666667</ele><time>2026-04-26T11:33:25.949Z</time></trkpt><trkpt lat="41.7579099" lon="13.8345323"><ele>1367.0</ele><time>2026-04-26T11:33:26.95Z</time></trkpt><trkpt lat="41.7577401" lon="13.8345195"><ele>1370.0</ele><time>2026-04-26T11:33:27.946Z</time></trkpt><trkpt lat="41.7575677" lon="13.8345923"><ele>1373.0</ele><time>2026-04-26T11:33:28.948Z</time></trkpt><trkpt lat="41.7573801" lon="13.8346773"><ele>1376.0</ele><time>2026-04-26T11:33:29.945Z</time></trkpt><trkpt lat="41.7571837" lon="13.8347356"><ele>1376.0</ele><time>2026-04-26T11:33:30.942Z</time></trkpt><trkpt lat="41.7569554" lon="13.8347575"><ele>1376.0</ele><time>2026-04-26T11:33:31.951Z</time></trkpt><trkpt lat="41.7567291" lon="13.8347686"><ele>1377.3333333333335</ele><time>2026-04-26T11:33:32.949Z</time></trkpt><trkpt lat="41.7565259" lon="13.8347941"><ele>1378.6666666666667</ele><time>2026-04-26T11:33:33.94Z</time></trkpt><trkpt lat="41.7563028" lon="13.8347799"><ele>1380.0</ele><time>2026-04-26T11:33:34.947Z</time></trkpt><trkpt lat="41.7560831" lon="13.834775"><ele>1381.3333333333333</ele><time>2026-04-26T11:33:35.942Z</time></trkpt><trkpt lat="41.75588" lon="13.8347891"><ele>1382.6666666666665</ele><time>2026-04-26T11:33:36.941Z</time></trkpt><trkpt lat="41.7556888" lon="13.8348051"><ele>1384.0</ele><time>2026-04-26T11:33:37.942Z</time></trkpt><trkpt lat="41.7555059" lon="13.8348231"><ele>1384.0</ele><time>2026-04-26T11:33:38.948Z</time></trkpt><trkpt lat="41.7553337" lon="13.834871"><ele>1384.0</ele><time>2026-04-26T11:33:39.943Z</time></trkpt><trkpt lat="41.755182" lon="13.8349112"><ele>1384.0</ele><time>2026-04-26T11:33:40.955Z</time></trkpt><trkpt lat="41.7550376" lon="13.8349605"><ele>1386.4</ele><time>2026-04-26T11:33:41.953Z</time></trkpt><trkpt lat="41.7549037" lon="13.8350111"><ele>1388.8000000000002</ele><time>2026-04-26T11:33:42.945Z</time></trkpt><trkpt lat="41.7547881" lon="13.8350561"><ele>1391.1999999999998</ele><time>2026-04-26T11:33:43.939Z</time></trkpt><trkpt lat="41.7546941" lon="13.8350731"><ele>1393.6</ele><time>2026-04-26T11:33:44.959Z</time></trkpt><trkpt lat="41.7546188" lon="13.835042"><ele>1396.0</ele><time>2026-04-26T11:33:45.951Z</time></trkpt><trkpt lat="41.754576" lon="13.8349033"><ele>1396.0</ele><time>2026-04-26T11:33:47.952Z</time></trkpt><trkpt lat="41.7546491" lon="13.8348082"><ele>1396.0</ele><time>2026-04-26T11:33:49.946Z</time></trkpt><trkpt lat="41.7547204" lon="13.8347892"><ele>1396.0</ele><time>2026-04-26T11:33:50.943Z</time></trkpt><trkpt lat="41.7548155" lon="13.8347897"><ele>1396.0</ele><time>2026-04-26T11:33:51.95Z</time></trkpt><trkpt lat="41.7549297" lon="13.8347781"><ele>1396.0</ele><time>2026-04-26T11:33:52.948Z</time></trkpt><trkpt lat="41.7550634" lon="13.8347442"><ele>1392.0</ele><time>2026-04-26T11:33:53.949Z</time></trkpt><trkpt lat="41.755206" lon="13.8346839"><ele>1388.0</ele><time>2026-04-26T11:33:54.958Z</time></trkpt><trkpt lat="41.7553488" lon="13.8346023"><ele>1384.0</ele><time>2026-04-26T11:33:55.957Z</time></trkpt><trkpt lat="41.7554966" lon="13.8345298"><ele>1384.0</ele><time>2026-04-26T11:33:56.943Z</time></trkpt><trkpt lat="41.7556405" lon="13.8344608"><ele>1384.0</ele><time>2026-04-26T11:33:57.952Z</time></trkpt><trkpt lat="41.7557976" lon="13.8344417"><ele>1384.0</ele><time>2026-04-26T11:33:58.943Z</time></trkpt><trkpt lat="41.7559596" lon="13.8343966"><ele>1382.6666666666665</ele><time>2026-04-26T11:33:59.945Z</time></trkpt><trkpt lat="41.7561202" lon="13.8343382"><ele>1381.3333333333333</ele><time>2026-04-26T11:34:00.945Z</time></trkpt><trkpt lat="41.7562743" lon="13.8342502"><ele>1380.0</ele><time>2026-04-26T11:34:01.951Z</time></trkpt><trkpt lat="41.7564451" lon="13.8341552"><ele>1386.6666666666667</ele><time>2026-04-26T11:34:02.946Z</time></trkpt><trkpt lat="41.7566166" lon="13.8340479"><ele>1393.3333333333335</ele><time>2026-04-26T11:34:03.95Z</time></trkpt><trkpt lat="41.756823" lon="13.8339403"><ele>1400.0</ele><time>2026-04-26T11:34:04.952Z</time></trkpt><trkpt lat="41.7570143" lon="13.8338478"><ele>1400.0</ele><time>2026-04-26T11:34:05.954Z</time></trkpt><trkpt lat="41.7572242" lon="13.8337858"><ele>1400.0</ele><time>2026-04-26T11:34:06.94Z</time></trkpt><trkpt lat="41.7574499" lon="13.8337135"><ele>1400.0</ele><time>2026-04-26T11:34:07.95Z</time></trkpt><trkpt lat="41.7576711" lon="13.8336677"><ele>1398.3333333333335</ele><time>2026-04-26T11:34:08.943Z</time></trkpt><trkpt lat="41.7578806" lon="13.833625"><ele>1396.6666666666667</ele><time>2026-04-26T11:34:09.943Z</time></trkpt><trkpt lat="41.7580863" lon="13.8336185"><ele>1395.0</ele><time>2026-04-26T11:34:10.95Z</time></trkpt><trkpt lat="41.7582825" lon="13.8336512"><ele>1395.0</ele><time>2026-04-26T11:34:11.952Z</time></trkpt><trkpt lat="41.7584568" lon="13.8336772"><ele>1395.0</ele><time>2026-04-26T11:34:12.94Z</time></trkpt><trkpt lat="41.7586319" lon="13.8337232"><ele>1395.0</ele><time>2026-04-26T11:34:13.943Z</time></trkpt><trkpt lat="41.7587823" lon="13.8338062"><ele>1397.0</ele><time>2026-04-26T11:34:14.949Z</time></trkpt><trkpt lat="41.7589395" lon="13.8338414"><ele>1399.0</ele><time>2026-04-26T11:34:15.95Z</time></trkpt><trkpt lat="41.759088" lon="13.8338164"><ele>1401.0</ele><time>2026-04-26T11:34:16.943Z</time></trkpt><trkpt lat="41.7592411" lon="13.8337686"><ele>1399.3333333333333</ele><time>2026-04-26T11:34:17.947Z</time></trkpt><trkpt lat="41.7594063" lon="13.8336982"><ele>1397.6666666666665</ele><time>2026-04-26T11:34:18.951Z</time></trkpt><trkpt lat="41.7595792" lon="13.8336157"><ele>1396.0</ele><time>2026-04-26T11:34:19.956Z</time></trkpt><trkpt lat="41.7597543" lon="13.8335466"><ele>1396.0</ele><time>2026-04-26T11:34:20.946Z</time></trkpt><trkpt lat="41.7599414" lon="13.833482"><ele>1396.0</ele><time>2026-04-26T11:34:21.948Z</time></trkpt><trkpt lat="41.7601331" lon="13.8334277"><ele>1396.0</ele><time>2026-04-26T11:34:22.955Z</time></trkpt><trkpt lat="41.7603301" lon="13.833372"><ele>1407.3333333333333</ele><time>2026-04-26T11:34:23.95Z</time></trkpt><trkpt lat="41.7605374" lon="13.8333172"><ele>1418.6666666666667</ele><time>2026-04-26T11:34:24.953Z</time></trkpt><trkpt lat="41.7607507" lon="13.83328"><ele>1430.0</ele><time>2026-04-26T11:34:25.951Z</time></trkpt><trkpt lat="41.7609691" lon="13.8332599"><ele>1430.6666666666667</ele><time>2026-04-26T11:34:26.94Z</time></trkpt><trkpt lat="41.7611906" lon="13.833233"><ele>1431.3333333333333</ele><time>2026-04-26T11:34:27.948Z</time></trkpt><trkpt lat="41.7614123" lon="13.8331869"><ele>1432.0</ele><time>2026-04-26T11:34:28.939Z</time></trkpt><trkpt lat="41.7616304" lon="13.8331295"><ele>1432.0</ele><time>2026-04-26T11:34:29.942Z</time></trkpt><trkpt lat="41.76184" lon="13.8330869"><ele>1432.0</ele><time>2026-04-26T11:34:30.948Z</time></trkpt><trkpt lat="41.7620521" lon="13.8330484"><ele>1432.0</ele><time>2026-04-26T11:34:31.951Z</time></trkpt><trkpt lat="41.7622663" lon="13.833044"><ele>1432.3333333333333</ele><time>2026-04-26T11:34:32.939Z</time></trkpt><trkpt lat="41.7624865" lon="13.8330615"><ele>1432.6666666666667</ele><time>2026-04-26T11:34:33.946Z</time></trkpt><trkpt lat="41.7626878" lon="13.8330419"><ele>1433.0</ele><time>2026-04-26T11:34:34.947Z</time></trkpt><trkpt lat="41.7628813" lon="13.8330601"><ele>1433.0</ele><time>2026-04-26T11:34:35.94Z</time></trkpt><trkpt lat="41.7630623" lon="13.8331024"><ele>1433.0</ele><time>2026-04-26T11:34:36.954Z</time></trkpt><trkpt lat="41.7632408" lon="13.8331179"><ele>1433.0</ele><time>2026-04-26T11:34:37.948Z</time></trkpt><trkpt lat="41.763412" lon="13.833067"><ele>1433.0</ele><time>2026-04-26T11:34:38.947Z</time></trkpt><trkpt lat="41.7635845" lon="13.8330115"><ele>1433.0</ele><time>2026-04-26T11:34:39.944Z</time></trkpt><trkpt lat="41.7637572" lon="13.8329676"><ele>1433.0</ele><time>2026-04-26T11:34:40.951Z</time></trkpt><trkpt lat="41.7639402" lon="13.8329933"><ele>1433.0</ele><time>2026-04-26T11:34:41.945Z</time></trkpt><trkpt lat="41.7641154" lon="13.8330203"><ele>1433.0</ele><time>2026-04-26T11:34:42.945Z</time></trkpt><trkpt lat="41.7642886" lon="13.8329998"><ele>1433.0</ele><time>2026-04-26T11:34:43.947Z</time></trkpt><trkpt lat="41.7644465" lon="13.8329475"><ele>1434.0</ele><time>2026-04-26T11:34:44.948Z</time></trkpt><trkpt lat="41.7645889" lon="13.8328983"><ele>1435.0</ele><time>2026-04-26T11:34:45.952Z</time></trkpt><trkpt lat="41.7647224" lon="13.8328927"><ele>1436.0</ele><time>2026-04-26T11:34:46.944Z</time></trkpt><trkpt lat="41.7648506" lon="13.8329411"><ele>1437.0</ele><time>2026-04-26T11:34:47.946Z</time></trkpt><trkpt lat="41.7649818" lon="13.8330144"><ele>1437.0</ele><time>2026-04-26T11:34:48.946Z</time></trkpt><trkpt lat="41.7651142" lon="13.8330721"><ele>1437.0</ele><time>2026-04-26T11:34:49.941Z</time></trkpt><trkpt lat="41.7652503" lon="13.8331191"><ele>1437.0</ele><time>2026-04-26T11:34:50.95Z</time></trkpt><trkpt lat="41.765393" lon="13.8330802"><ele>1437.0</ele><time>2026-04-26T11:34:51.946Z</time></trkpt><trkpt lat="41.7655369" lon="13.8329718"><ele>1436.6666666666667</ele><time>2026-04-26T11:34:52.954Z</time></trkpt><trkpt lat="41.765678" lon="13.832839"><ele>1436.3333333333335</ele><time>2026-04-26T11:34:53.941Z</time></trkpt><trkpt lat="41.7658146" lon="13.8327144"><ele>1436.0</ele><time>2026-04-26T11:34:54.95Z</time></trkpt><trkpt lat="41.7659874" lon="13.832654"><ele>1438.75</ele><time>2026-04-26T11:34:55.95Z</time></trkpt><trkpt lat="41.7661448" lon="13.832602"><ele>1441.5</ele><time>2026-04-26T11:34:56.947Z</time></trkpt><trkpt lat="41.7662862" lon="13.8325841"><ele>1444.25</ele><time>2026-04-26T11:34:57.942Z</time></trkpt><trkpt lat="41.7664097" lon="13.8326095"><ele>1447.0</ele><time>2026-04-26T11:34:58.945Z</time></trkpt><trkpt lat="41.7665117" lon="13.832684"><ele>1447.0</ele><time>2026-04-26T11:34:59.954Z</time></trkpt><trkpt lat="41.7666156" lon="13.8328005"><ele>1447.0</ele><time>2026-04-26T11:35:00.944Z</time></trkpt><trkpt lat="41.7667356" lon="13.8329196"><ele>1447.0</ele><time>2026-04-26T11:35:01.945Z</time></trkpt><trkpt lat="41.7668696" lon="13.8330334"><ele>1447.0</ele><time>2026-04-26T11:35:02.952Z</time></trkpt><trkpt lat="41.767022" lon="13.8331229"><ele>1449.0</ele><time>2026-04-26T11:35:03.949Z</time></trkpt><trkpt lat="41.7671601" lon="13.8332107"><ele>1451.0</ele><time>2026-04-26T11:35:04.95Z</time></trkpt><trkpt lat="41.7672964" lon="13.8332787"><ele>1453.0</ele><time>2026-04-26T11:35:05.956Z</time></trkpt><trkpt lat="41.7673983" lon="13.8333331"><ele>1455.0</ele><time>2026-04-26T11:35:06.953Z</time></trkpt><trkpt lat="41.7674833" lon="13.8333208"><ele>1455.0</ele><time>2026-04-26T11:35:07.945Z</time></trkpt><trkpt lat="41.7675465" lon="13.833257"><ele>1455.0</ele><time>2026-04-26T11:35:08.967Z</time></trkpt><trkpt lat="41.7675613" lon="13.8331679"><ele>1455.0</ele><time>2026-04-26T11:35:09.954Z</time></trkpt><trkpt lat="41.7675327" lon="13.8330819"><ele>1455.0</ele><time>2026-04-26T11:35:10.945Z</time></trkpt><trkpt lat="41.767467" lon="13.8330248"><ele>1455.0</ele><time>2026-04-26T11:35:11.945Z</time></trkpt><trkpt lat="41.7673825" lon="13.8329694"><ele>1455.0</ele><time>2026-04-26T11:35:12.956Z</time></trkpt><trkpt lat="41.7672585" lon="13.8329538"><ele>1455.0</ele><time>2026-04-26T11:35:13.938Z</time></trkpt><trkpt lat="41.7671179" lon="13.8329035"><ele>1455.0</ele><time>2026-04-26T11:35:14.951Z</time></trkpt><trkpt lat="41.7669877" lon="13.8328056"><ele>1455.0</ele><time>2026-04-26T11:35:15.951Z</time></trkpt><trkpt lat="41.7668723" lon="13.8326548"><ele>1460.0</ele><time>2026-04-26T11:35:16.944Z</time></trkpt><trkpt lat="41.7667653" lon="13.8324936"><ele>1465.0</ele><time>2026-04-26T11:35:17.944Z</time></trkpt><trkpt lat="41.7666626" lon="13.8323535"><ele>1470.0</ele><time>2026-04-26T11:35:18.955Z</time></trkpt><trkpt lat="41.766538" lon="13.8322401"><ele>1470.0</ele><time>2026-04-26T11:35:19.94Z</time></trkpt><trkpt lat="41.7663999" lon="13.8321838"><ele>1470.0</ele><time>2026-04-26T11:35:20.955Z</time></trkpt><trkpt lat="41.7662553" lon="13.8321369"><ele>1470.0</ele><time>2026-04-26T11:35:21.949Z</time></trkpt><trkpt lat="41.7660888" lon="13.8321502"><ele>1470.6666666666667</ele><time>2026-04-26T11:35:22.943Z</time></trkpt><trkpt lat="41.7659193" lon="13.8321836"><ele>1471.3333333333335</ele><time>2026-04-26T11:35:23.949Z</time></trkpt><trkpt lat="41.7657523" lon="13.8322116"><ele>1472.0</ele><time>2026-04-26T11:35:24.948Z</time></trkpt><trkpt lat="41.765604" lon="13.8322822"><ele>1472.0</ele><time>2026-04-26T11:35:25.942Z</time></trkpt><trkpt lat="41.7654805" lon="13.8323896"><ele>1472.0</ele><time>2026-04-26T11:35:26.945Z</time></trkpt><trkpt lat="41.7653668" lon="13.8324729"><ele>1472.0</ele><time>2026-04-26T11:35:27.941Z</time></trkpt><trkpt lat="41.7652577" lon="13.8325291"><ele>1472.0</ele><time>2026-04-26T11:35:28.94Z</time></trkpt><trkpt lat="41.7651545" lon="13.8325133"><ele>1474.0</ele><time>2026-04-26T11:35:29.957Z</time></trkpt><trkpt lat="41.7650588" lon="13.8323923"><ele>1476.0</ele><time>2026-04-26T11:35:30.949Z</time></trkpt><trkpt lat="41.7649526" lon="13.8322782"><ele>1478.0</ele><time>2026-04-26T11:35:31.934Z</time></trkpt><trkpt lat="41.7648127" lon="13.8321912"><ele>1480.0</ele><time>2026-04-26T11:35:32.942Z</time></trkpt><trkpt lat="41.7646439" lon="13.8321508"><ele>1480.0</ele><time>2026-04-26T11:35:33.956Z</time></trkpt><trkpt lat="41.7644778" lon="13.8321209"><ele>1480.0</ele><time>2026-04-26T11:35:34.955Z</time></trkpt><trkpt lat="41.764301" lon="13.8321427"><ele>1480.0</ele><time>2026-04-26T11:35:35.945Z</time></trkpt><trkpt lat="41.7641244" lon="13.8321497"><ele>1478.5</ele><time>2026-04-26T11:35:36.947Z</time></trkpt><trkpt lat="41.7639668" lon="13.8321481"><ele>1477.0</ele><time>2026-04-26T11:35:37.95Z</time></trkpt><trkpt lat="41.7638204" lon="13.8321167"><ele>1475.5</ele><time>2026-04-26T11:35:38.933Z</time></trkpt><trkpt lat="41.76371" lon="13.8320505"><ele>1474.0</ele><time>2026-04-26T11:35:39.949Z</time></trkpt><trkpt lat="41.7636193" lon="13.8319355"><ele>1478.6666666666665</ele><time>2026-04-26T11:35:40.953Z</time></trkpt><trkpt lat="41.7635444" lon="13.8317729"><ele>1483.3333333333333</ele><time>2026-04-26T11:35:41.943Z</time></trkpt><trkpt lat="41.7634558" lon="13.8315864"><ele>1488.0</ele><time>2026-04-26T11:35:42.955Z</time></trkpt><trkpt lat="41.7633605" lon="13.8313887"><ele>1488.0</ele><time>2026-04-26T11:35:43.957Z</time></trkpt><trkpt lat="41.7632696" lon="13.8311953"><ele>1488.0</ele><time>2026-04-26T11:35:44.951Z</time></trkpt><trkpt lat="41.763208" lon="13.831"><ele>1488.0</ele><time>2026-04-26T11:35:45.951Z</time></trkpt><trkpt lat="41.7631666" lon="13.8308235"><ele>1491.75</ele><time>2026-04-26T11:35:46.945Z</time></trkpt><trkpt lat="41.7631215" lon="13.8306778"><ele>1495.5</ele><time>2026-04-26T11:35:47.944Z</time></trkpt><trkpt lat="41.7630834" lon="13.8305519"><ele>1499.25</ele><time>2026-04-26T11:35:48.958Z</time></trkpt><trkpt lat="41.7629894" lon="13.8304762"><ele>1503.0</ele><time>2026-04-26T11:35:49.943Z</time></trkpt><trkpt lat="41.762869" lon="13.8304921"><ele>1503.0</ele><time>2026-04-26T11:35:50.943Z</time></trkpt><trkpt lat="41.7627361" lon="13.8305314"><ele>1503.0</ele><time>2026-04-26T11:35:51.945Z</time></trkpt><trkpt lat="41.7625887" lon="13.8305629"><ele>1503.0</ele><time>2026-04-26T11:35:52.966Z</time></trkpt><trkpt lat="41.7623912" lon="13.8305569"><ele>1500.0</ele><time>2026-04-26T11:35:53.962Z</time></trkpt><trkpt lat="41.7621848" lon="13.8305017"><ele>1497.0</ele><time>2026-04-26T11:35:54.958Z</time></trkpt><trkpt lat="41.7619564" lon="13.830427"><ele>1494.0</ele><time>2026-04-26T11:35:55.95Z</time></trkpt><trkpt lat="41.7617423" lon="13.8303827"><ele>1494.0</ele><time>2026-04-26T11:35:56.94Z</time></trkpt><trkpt lat="41.7615236" lon="13.8303629"><ele>1494.0</ele><time>2026-04-26T11:35:57.952Z</time></trkpt><trkpt lat="41.7613305" lon="13.8303603"><ele>1494.0</ele><time>2026-04-26T11:35:58.965Z</time></trkpt><trkpt lat="41.7611383" lon="13.8303809"><ele>1492.0</ele><time>2026-04-26T11:35:59.937Z</time></trkpt><trkpt lat="41.7609656" lon="13.8303937"><ele>1490.0</ele><time>2026-04-26T11:36:00.956Z</time></trkpt><trkpt lat="41.7608112" lon="13.8303922"><ele>1488.0</ele><time>2026-04-26T11:36:01.945Z</time></trkpt><trkpt lat="41.7606717" lon="13.8303412"><ele>1488.0</ele><time>2026-04-26T11:36:02.948Z</time></trkpt><trkpt lat="41.7605827" lon="13.8302398"><ele>1488.0</ele><time>2026-04-26T11:36:03.95Z</time></trkpt><trkpt lat="41.7605209" lon="13.8300902"><ele>1488.0</ele><time>2026-04-26T11:36:04.948Z</time></trkpt><trkpt lat="41.7604548" lon="13.8299002"><ele>1488.0</ele><time>2026-04-26T11:36:05.944Z</time></trkpt><trkpt lat="41.7603719" lon="13.8296774"><ele>1492.0</ele><time>2026-04-26T11:36:06.951Z</time></trkpt><trkpt lat="41.7602527" lon="13.8294513"><ele>1496.0</ele><time>2026-04-26T11:36:07.956Z</time></trkpt><trkpt lat="41.7601183" lon="13.8292158"><ele>1500.0</ele><time>2026-04-26T11:36:08.958Z</time></trkpt><trkpt lat="41.7599951" lon="13.8289784"><ele>1500.0</ele><time>2026-04-26T11:36:09.956Z</time></trkpt><trkpt lat="41.759894" lon="13.828738"><ele>1500.0</ele><time>2026-04-26T11:36:10.943Z</time></trkpt><trkpt lat="41.7598064" lon="13.8285065"><ele>1500.0</ele><time>2026-04-26T11:36:11.944Z</time></trkpt><trkpt lat="41.7597183" lon="13.8282971"><ele>1506.3333333333333</ele><time>2026-04-26T11:36:12.962Z</time></trkpt><trkpt lat="41.7596193" lon="13.8281196"><ele>1512.6666666666665</ele><time>2026-04-26T11:36:13.947Z</time></trkpt><trkpt lat="41.7595197" lon="13.8279427"><ele>1519.0</ele><time>2026-04-26T11:36:14.945Z</time></trkpt><trkpt lat="41.7593839" lon="13.8278409"><ele>1516.3333333333333</ele><time>2026-04-26T11:36:15.952Z</time></trkpt><trkpt lat="41.7592401" lon="13.8277496"><ele>1513.6666666666667</ele><time>2026-04-26T11:36:16.944Z</time></trkpt><trkpt lat="41.7590662" lon="13.8276849"><ele>1511.0</ele><time>2026-04-26T11:36:17.943Z</time></trkpt><trkpt lat="41.7589124" lon="13.8276073"><ele>1511.0</ele><time>2026-04-26T11:36:18.948Z</time></trkpt><trkpt lat="41.7587622" lon="13.8275478"><ele>1511.0</ele><time>2026-04-26T11:36:19.955Z</time></trkpt><trkpt lat="41.7586293" lon="13.827483"><ele>1511.0</ele><time>2026-04-26T11:36:20.944Z</time></trkpt><trkpt lat="41.7585417" lon="13.8274203"><ele>1511.0</ele><time>2026-04-26T11:36:21.949Z</time></trkpt><trkpt lat="41.7584778" lon="13.8273518"><ele>1513.8</ele><time>2026-04-26T11:36:22.953Z</time></trkpt><trkpt lat="41.7584363" lon="13.8272529"><ele>1516.6</ele><time>2026-04-26T11:36:23.94Z</time></trkpt><trkpt lat="41.7584508" lon="13.8271172"><ele>1519.4</ele><time>2026-04-26T11:36:24.947Z</time></trkpt><trkpt lat="41.7584863" lon="13.8269587"><ele>1522.2</ele><time>2026-04-26T11:36:25.941Z</time></trkpt><trkpt lat="41.7585051" lon="13.826804"><ele>1525.0</ele><time>2026-04-26T11:36:26.939Z</time></trkpt><trkpt lat="41.7585133" lon="13.8266442"><ele>1525.0</ele><time>2026-04-26T11:36:27.952Z</time></trkpt><trkpt lat="41.7584997" lon="13.8264841"><ele>1525.0</ele><time>2026-04-26T11:36:28.951Z</time></trkpt><trkpt lat="41.7584754" lon="13.8263022"><ele>1525.0</ele><time>2026-04-26T11:36:29.939Z</time></trkpt><trkpt lat="41.7584307" lon="13.8261247"><ele>1525.0</ele><time>2026-04-26T11:36:30.949Z</time></trkpt><trkpt lat="41.7583787" lon="13.8259477"><ele>1523.6666666666665</ele><time>2026-04-26T11:36:31.957Z</time></trkpt><trkpt lat="41.7583265" lon="13.8257629"><ele>1522.3333333333333</ele><time>2026-04-26T11:36:32.943Z</time></trkpt><trkpt lat="41.7582868" lon="13.8255531"><ele>1521.0</ele><time>2026-04-26T11:36:33.958Z</time></trkpt><trkpt lat="41.7582412" lon="13.8253493"><ele>1521.0</ele><time>2026-04-26T11:36:34.96Z</time></trkpt><trkpt lat="41.7581835" lon="13.8251488"><ele>1521.0</ele><time>2026-04-26T11:36:35.944Z</time></trkpt><trkpt lat="41.7581293" lon="13.8249423"><ele>1521.0</ele><time>2026-04-26T11:36:36.944Z</time></trkpt><trkpt lat="41.7581011" lon="13.8247925"><ele>1521.0</ele><time>2026-04-26T11:36:37.945Z</time></trkpt><trkpt lat="41.7580654" lon="13.8246655"><ele>1519.6</ele><time>2026-04-26T11:36:38.947Z</time></trkpt><trkpt lat="41.7579913" lon="13.8246027"><ele>1518.1999999999998</ele><time>2026-04-26T11:36:39.941Z</time></trkpt><trkpt lat="41.7578968" lon="13.8245816"><ele>1516.8000000000002</ele><time>2026-04-26T11:36:40.95Z</time></trkpt><trkpt lat="41.7577909" lon="13.8246062"><ele>1515.4</ele><time>2026-04-26T11:36:41.955Z</time></trkpt><trkpt lat="41.7577063" lon="13.8246346"><ele>1514.0</ele><time>2026-04-26T11:36:42.947Z</time></trkpt><trkpt lat="41.7575983" lon="13.8246392"><ele>1517.6</ele><time>2026-04-26T11:36:43.945Z</time></trkpt><trkpt lat="41.7575193" lon="13.8245798"><ele>1521.2</ele><time>2026-04-26T11:36:44.952Z</time></trkpt><trkpt lat="41.7574904" lon="13.8244787"><ele>1524.8</ele><time>2026-04-26T11:36:45.954Z</time></trkpt><trkpt lat="41.7574755" lon="13.8243709"><ele>1528.3999999999999</ele><time>2026-04-26T11:36:46.943Z</time></trkpt><trkpt lat="41.7575245" lon="13.8242485"><ele>1532.0</ele><time>2026-04-26T11:36:47.954Z</time></trkpt><trkpt lat="41.7576211" lon="13.8241093"><ele>1526.75</ele><time>2026-04-26T11:36:48.946Z</time></trkpt><trkpt lat="41.7577242" lon="13.8239848"><ele>1521.5</ele><time>2026-04-26T11:36:49.94Z</time></trkpt><trkpt lat="41.7578194" lon="13.8238869"><ele>1516.25</ele><time>2026-04-26T11:36:50.957Z</time></trkpt><trkpt lat="41.7579026" lon="13.8237623"><ele>1511.0</ele><time>2026-04-26T11:36:51.95Z</time></trkpt><trkpt lat="41.7579584" lon="13.8236062"><ele>1511.5</ele><time>2026-04-26T11:36:52.945Z</time></trkpt><trkpt lat="41.7579379" lon="13.8233942"><ele>1512.0</ele><time>2026-04-26T11:36:53.953Z</time></trkpt><trkpt lat="41.7579368" lon="13.8232064"><ele>1512.5</ele><time>2026-04-26T11:36:54.958Z</time></trkpt><trkpt lat="41.7579329" lon="13.8230167"><ele>1513.0</ele><time>2026-04-26T11:36:55.943Z</time></trkpt><trkpt lat="41.7579134" lon="13.8228173"><ele>1513.75</ele><time>2026-04-26T11:36:56.951Z</time></trkpt><trkpt lat="41.7579243" lon="13.8226197"><ele>1514.5</ele><time>2026-04-26T11:36:57.952Z</time></trkpt><trkpt lat="41.7579447" lon="13.8224156"><ele>1515.25</ele><time>2026-04-26T11:36:58.942Z</time></trkpt><trkpt lat="41.7579667" lon="13.8222391"><ele>1516.0</ele><time>2026-04-26T11:36:59.963Z</time></trkpt><trkpt lat="41.7579852" lon="13.8220654"><ele>1516.0</ele><time>2026-04-26T11:37:00.951Z</time></trkpt><trkpt lat="41.7580091" lon="13.8219266"><ele>1516.0</ele><time>2026-04-26T11:37:01.945Z</time></trkpt><trkpt lat="41.757992" lon="13.8218188"><ele>1516.0</ele><time>2026-04-26T11:37:02.952Z</time></trkpt><trkpt lat="41.7579113" lon="13.8217482"><ele>1516.0</ele><time>2026-04-26T11:37:03.949Z</time></trkpt><trkpt lat="41.7578043" lon="13.8217667"><ele>1516.0</ele><time>2026-04-26T11:37:04.944Z</time></trkpt><trkpt lat="41.7576994" lon="13.8218216"><ele>1519.6</ele><time>2026-04-26T11:37:05.952Z</time></trkpt><trkpt lat="41.7576088" lon="13.8218802"><ele>1523.1999999999998</ele><time>2026-04-26T11:37:06.956Z</time></trkpt><trkpt lat="41.7575012" lon="13.8219334"><ele>1526.8000000000002</ele><time>2026-04-26T11:37:07.949Z</time></trkpt><trkpt lat="41.7573944" lon="13.8219905"><ele>1530.4</ele><time>2026-04-26T11:37:08.951Z</time></trkpt><trkpt lat="41.7572954" lon="13.8220142"><ele>1534.0</ele><time>2026-04-26T11:37:09.957Z</time></trkpt><trkpt lat="41.7571665" lon="13.8220337"><ele>1534.0</ele><time>2026-04-26T11:37:10.953Z</time></trkpt><trkpt lat="41.7570594" lon="13.8220264"><ele>1534.0</ele><time>2026-04-26T11:37:11.945Z</time></trkpt><trkpt lat="41.7569939" lon="13.8219452"><ele>1534.0</ele><time>2026-04-26T11:37:12.955Z</time></trkpt><trkpt lat="41.7569385" lon="13.821856"><ele>1534.0</ele><time>2026-04-26T11:37:13.948Z</time></trkpt><trkpt lat="41.7568909" lon="13.8217484"><ele>1534.0</ele><time>2026-04-26T11:37:14.95Z</time></trkpt><trkpt lat="41.7568666" lon="13.8216433"><ele>1534.8000000000002</ele><time>2026-04-26T11:37:15.948Z</time></trkpt><trkpt lat="41.7568115" lon="13.8215174"><ele>1535.6000000000001</ele><time>2026-04-26T11:37:16.969Z</time></trkpt><trkpt lat="41.7567046" lon="13.8214713"><ele>1536.4</ele><time>2026-04-26T11:37:17.967Z</time></trkpt><trkpt lat="41.7566106" lon="13.8214258"><ele>1537.2</ele><time>2026-04-26T11:37:18.949Z</time></trkpt><trkpt lat="41.756539" lon="13.8213733"><ele>1538.0</ele><time>2026-04-26T11:37:19.956Z</time></trkpt><trkpt lat="41.756487" lon="13.8212766"><ele>1537.9999999999998</ele><time>2026-04-26T11:37:20.971Z</time></trkpt><trkpt lat="41.7564332" lon="13.8211874"><ele>1538.0</ele><time>2026-04-26T11:37:21.959Z</time></trkpt><trkpt lat="41.7564321" lon="13.8210714"><ele>1538.0</ele><time>2026-04-26T11:37:22.935Z</time></trkpt><trkpt lat="41.7564185" lon="13.8209569"><ele>1538.0</ele><time>2026-04-26T11:37:23.963Z</time></trkpt><trkpt lat="41.7564276" lon="13.8208447"><ele>1537.9999999999998</ele><time>2026-04-26T11:37:24.956Z</time></trkpt><trkpt lat="41.7563966" lon="13.820746"><ele>1538.0</ele><time>2026-04-26T11:37:25.948Z</time></trkpt><trkpt lat="41.7563376" lon="13.8207134"><ele>1538.4</ele><time>2026-04-26T11:37:26.963Z</time></trkpt><trkpt lat="41.7562073" lon="13.8207562"><ele>1538.8000000000002</ele><time>2026-04-26T11:37:28.947Z</time></trkpt><trkpt lat="41.7561345" lon="13.8207498"><ele>1539.2</ele><time>2026-04-26T11:37:29.962Z</time></trkpt><trkpt lat="41.7560259" lon="13.8206999"><ele>1539.6</ele><time>2026-04-26T11:37:31.944Z</time></trkpt><trkpt lat="41.7559771" lon="13.8206312"><ele>1540.0</ele><time>2026-04-26T11:37:32.95Z</time></trkpt><trkpt lat="41.7559492" lon="13.82053"><ele>1540.0000000000002</ele><time>2026-04-26T11:37:33.948Z</time></trkpt><trkpt lat="41.7559384" lon="13.820418"><ele>1540.0</ele><time>2026-04-26T11:37:34.954Z</time></trkpt><trkpt lat="41.7558982" lon="13.8203198"><ele>1540.0</ele><time>2026-04-26T11:37:35.962Z</time></trkpt><trkpt lat="41.7558223" lon="13.8202457"><ele>1540.0</ele><time>2026-04-26T11:37:36.95Z</time></trkpt><trkpt lat="41.7557423" lon="13.8201802"><ele>1540.0000000000002</ele><time>2026-04-26T11:37:37.953Z</time></trkpt><trkpt lat="41.7556573" lon="13.8201705"><ele>1540.0</ele><time>2026-04-26T11:37:38.955Z</time></trkpt><trkpt lat="41.7555739" lon="13.8201891"><ele>1540.0</ele><time>2026-04-26T11:37:39.984Z</time></trkpt><trkpt lat="41.7554768" lon="13.8202322"><ele>1540.0</ele><time>2026-04-26T11:37:40.959Z</time></trkpt><trkpt lat="41.7553883" lon="13.8202886"><ele>1540.0</ele><time>2026-04-26T11:37:41.948Z</time></trkpt><trkpt lat="41.7553094" lon="13.8203544"><ele>1540.0</ele><time>2026-04-26T11:37:42.959Z</time></trkpt><trkpt lat="41.7552343" lon="13.8204064"><ele>1540.0</ele><time>2026-04-26T11:37:43.963Z</time></trkpt><trkpt lat="41.7551447" lon="13.8204369"><ele>1541.4</ele><time>2026-04-26T11:37:44.947Z</time></trkpt><trkpt lat="41.7550717" lon="13.8204179"><ele>1542.8</ele><time>2026-04-26T11:37:45.954Z</time></trkpt><trkpt lat="41.7549674" lon="13.820326"><ele>1544.1999999999998</ele><time>2026-04-26T11:37:47.947Z</time></trkpt><trkpt lat="41.7549322" lon="13.820213"><ele>1545.6</ele><time>2026-04-26T11:37:48.953Z</time></trkpt><trkpt lat="41.7548896" lon="13.82011"><ele>1547.0</ele><time>2026-04-26T11:37:49.953Z</time></trkpt><trkpt lat="41.7548134" lon="13.8200279"><ele>1543.5</ele><time>2026-04-26T11:37:50.949Z</time></trkpt><trkpt lat="41.7547194" lon="13.8199389"><ele>1540.0</ele><time>2026-04-26T11:37:51.947Z</time></trkpt><trkpt lat="41.7546007" lon="13.8198418"><ele>1536.5</ele><time>2026-04-26T11:37:52.952Z</time></trkpt><trkpt lat="41.7544895" lon="13.8197369"><ele>1533.0</ele><time>2026-04-26T11:37:53.964Z</time></trkpt><trkpt lat="41.7543888" lon="13.8196395"><ele>1533.25</ele><time>2026-04-26T11:37:54.955Z</time></trkpt><trkpt lat="41.7542738" lon="13.819527"><ele>1533.5</ele><time>2026-04-26T11:37:55.945Z</time></trkpt><trkpt lat="41.7541454" lon="13.8194433"><ele>1533.75</ele><time>2026-04-26T11:37:56.957Z</time></trkpt><trkpt lat="41.754043" lon="13.8193504"><ele>1534.0</ele><time>2026-04-26T11:37:57.949Z</time></trkpt><trkpt lat="41.753977" lon="13.8192537"><ele>1534.0</ele><time>2026-04-26T11:37:58.945Z</time></trkpt><trkpt lat="41.7539295" lon="13.8191372"><ele>1534.0</ele><time>2026-04-26T11:37:59.95Z</time></trkpt><trkpt lat="41.753893" lon="13.8190332"><ele>1534.0</ele><time>2026-04-26T11:38:00.946Z</time></trkpt><trkpt lat="41.7538923" lon="13.8189072"><ele>1534.0</ele><time>2026-04-26T11:38:01.946Z</time></trkpt><trkpt lat="41.7538705" lon="13.8188048"><ele>1534.0</ele><time>2026-04-26T11:38:02.947Z</time></trkpt><trkpt lat="41.7538116" lon="13.8187351"><ele>1534.0</ele><time>2026-04-26T11:38:03.949Z</time></trkpt><trkpt lat="41.7537143" lon="13.8187237"><ele>1534.0</ele><time>2026-04-26T11:38:04.95Z</time></trkpt><trkpt lat="41.7536137" lon="13.8187221"><ele>1534.0</ele><time>2026-04-26T11:38:05.951Z</time></trkpt><trkpt lat="41.7535225" lon="13.8187234"><ele>1534.0</ele><time>2026-04-26T11:38:06.954Z</time></trkpt><trkpt lat="41.7534231" lon="13.8187167"><ele>1534.0</ele><time>2026-04-26T11:38:07.939Z</time></trkpt><trkpt lat="41.7533171" lon="13.8186544"><ele>1534.0</ele><time>2026-04-26T11:38:08.956Z</time></trkpt><trkpt lat="41.7531916" lon="13.8185536"><ele>1534.5</ele><time>2026-04-26T11:38:09.955Z</time></trkpt><trkpt lat="41.7530958" lon="13.8184295"><ele>1535.0</ele><time>2026-04-26T11:38:10.954Z</time></trkpt><trkpt lat="41.7530276" lon="13.8182857"><ele>1535.5</ele><time>2026-04-26T11:38:11.961Z</time></trkpt><trkpt lat="41.7529725" lon="13.8181462"><ele>1536.0</ele><time>2026-04-26T11:38:12.952Z</time></trkpt><trkpt lat="41.752921" lon="13.8180329"><ele>1536.0</ele><time>2026-04-26T11:38:13.946Z</time></trkpt><trkpt lat="41.7528337" lon="13.8179773"><ele>1536.0</ele><time>2026-04-26T11:38:14.959Z</time></trkpt><trkpt lat="41.7527312" lon="13.8179828"><ele>1536.0</ele><time>2026-04-26T11:38:15.955Z</time></trkpt><trkpt lat="41.7526193" lon="13.8179512"><ele>1536.0</ele><time>2026-04-26T11:38:16.959Z</time></trkpt><trkpt lat="41.7525251" lon="13.817929"><ele>1536.0</ele><time>2026-04-26T11:38:17.954Z</time></trkpt><trkpt lat="41.7524523" lon="13.8178662"><ele>1535.75</ele><time>2026-04-26T11:38:18.946Z</time></trkpt><trkpt lat="41.7523889" lon="13.8177643"><ele>1535.5</ele><time>2026-04-26T11:38:19.954Z</time></trkpt><trkpt lat="41.7523367" lon="13.8176093"><ele>1535.25</ele><time>2026-04-26T11:38:20.951Z</time></trkpt><trkpt lat="41.7522832" lon="13.817438"><ele>1535.0</ele><time>2026-04-26T11:38:21.942Z</time></trkpt><trkpt lat="41.7521896" lon="13.8172737"><ele>1535.0</ele><time>2026-04-26T11:38:22.946Z</time></trkpt><trkpt lat="41.7520977" lon="13.8171254"><ele>1535.0</ele><time>2026-04-26T11:38:23.95Z</time></trkpt><trkpt lat="41.7519947" lon="13.8169802"><ele>1535.0</ele><time>2026-04-26T11:38:24.952Z</time></trkpt><trkpt lat="41.75191" lon="13.8168407"><ele>1535.0</ele><time>2026-04-26T11:38:25.944Z</time></trkpt><trkpt lat="41.751859" lon="13.8166949"><ele>1536.6666666666667</ele><time>2026-04-26T11:38:26.962Z</time></trkpt><trkpt lat="41.7518205" lon="13.8165657"><ele>1538.3333333333335</ele><time>2026-04-26T11:38:27.946Z</time></trkpt><trkpt lat="41.7518018" lon="13.8164623"><ele>1540.0</ele><time>2026-04-26T11:38:28.94Z</time></trkpt><trkpt lat="41.7518133" lon="13.8163699"><ele>1541.6666666666667</ele><time>2026-04-26T11:38:29.948Z</time></trkpt><trkpt lat="41.7518208" lon="13.8162424"><ele>1543.3333333333333</ele><time>2026-04-26T11:38:31.952Z</time></trkpt><trkpt lat="41.7518304" lon="13.8161353"><ele>1545.0</ele><time>2026-04-26T11:38:33.972Z</time></trkpt><trkpt lat="41.7518318" lon="13.8160363"><ele>1545.0</ele><time>2026-04-26T11:38:35.946Z</time></trkpt><trkpt lat="41.75183" lon="13.8159398"><ele>1537.0</ele><time>2026-04-26T11:38:38.956Z</time></trkpt><trkpt lat="41.7518235" lon="13.8158509"><ele>1537.0</ele><time>2026-04-26T11:39:45.955Z</time></trkpt><trkpt lat="41.7517523" lon="13.8158063"><ele>1537.0</ele><time>2026-04-26T11:39:47.954Z</time></trkpt></trkseg><trkseg><trkpt lat="41.7516866" lon="13.815798"><ele>1537.0</ele><time>2026-04-26T12:28:08.932Z</time></trkpt><trkpt lat="41.7515789" lon="13.8157005"><ele>1537.0</ele><time>2026-04-26T12:34:27.947Z</time></trkpt><trkpt lat="41.7515063" lon="13.8156547"><ele>1537.0</ele><time>2026-04-26T12:34:28.964Z</time></trkpt><trkpt lat="41.7513875" lon="13.8156236"><ele>1537.0</ele><time>2026-04-26T12:34:29.958Z</time></trkpt><trkpt lat="41.7512659" lon="13.8155928"><ele>1537.0</ele><time>2026-04-26T12:34:30.946Z</time></trkpt><trkpt lat="41.7511255" lon="13.8155562"><ele>1537.0</ele><time>2026-04-26T12:34:31.952Z</time></trkpt><trkpt lat="41.7509735" lon="13.8155041"><ele>1537.0</ele><time>2026-04-26T12:34:32.95Z</time></trkpt><trkpt lat="41.7508401" lon="13.8154338"><ele>1537.0</ele><time>2026-04-26T12:34:33.953Z</time></trkpt><trkpt lat="41.750719" lon="13.8153444"><ele>1539.5</ele><time>2026-04-26T12:34:34.944Z</time></trkpt><trkpt lat="41.7505951" lon="13.815249"><ele>1542.0</ele><time>2026-04-26T12:34:35.956Z</time></trkpt><trkpt lat="41.7504754" lon="13.8151858"><ele>1544.5</ele><time>2026-04-26T12:34:36.948Z</time></trkpt><trkpt lat="41.75035" lon="13.8151787"><ele>1547.0</ele><time>2026-04-26T12:34:37.943Z</time></trkpt><trkpt lat="41.7502213" lon="13.8151743"><ele>1547.75</ele><time>2026-04-26T12:34:38.95Z</time></trkpt><trkpt lat="41.750094" lon="13.8151677"><ele>1548.5</ele><time>2026-04-26T12:34:39.953Z</time></trkpt><trkpt lat="41.7499727" lon="13.8151495"><ele>1549.25</ele><time>2026-04-26T12:34:40.945Z</time></trkpt><trkpt lat="41.7498619" lon="13.8151107"><ele>1550.0</ele><time>2026-04-26T12:34:41.949Z</time></trkpt><trkpt lat="41.749754" lon="13.8150356"><ele>1545.0</ele><time>2026-04-26T12:34:42.942Z</time></trkpt><trkpt lat="41.7496487" lon="13.814937"><ele>1540.0</ele><time>2026-04-26T12:34:43.942Z</time></trkpt><trkpt lat="41.7495492" lon="13.814825"><ele>1535.0</ele><time>2026-04-26T12:34:44.95Z</time></trkpt><trkpt lat="41.749453" lon="13.8147126"><ele>1530.0</ele><time>2026-04-26T12:34:45.96Z</time></trkpt><trkpt lat="41.7493548" lon="13.8146103"><ele>1530.0</ele><time>2026-04-26T12:34:46.954Z</time></trkpt><trkpt lat="41.7492512" lon="13.8145083"><ele>1530.0</ele><time>2026-04-26T12:34:47.942Z</time></trkpt><trkpt lat="41.7491527" lon="13.8144068"><ele>1530.0</ele><time>2026-04-26T12:34:48.949Z</time></trkpt><trkpt lat="41.7490602" lon="13.8143108"><ele>1530.0</ele><time>2026-04-26T12:34:49.956Z</time></trkpt><trkpt lat="41.7489745" lon="13.8142287"><ele>1530.0</ele><time>2026-04-26T12:34:50.95Z</time></trkpt><trkpt lat="41.7488859" lon="13.8142015"><ele>1530.0</ele><time>2026-04-26T12:34:51.944Z</time></trkpt><trkpt lat="41.7488007" lon="13.8142435"><ele>1530.0</ele><time>2026-04-26T12:34:52.951Z</time></trkpt><trkpt lat="41.7487103" lon="13.8143157"><ele>1530.0</ele><time>2026-04-26T12:34:53.952Z</time></trkpt><trkpt lat="41.748605" lon="13.8144151"><ele>1530.0</ele><time>2026-04-26T12:34:54.944Z</time></trkpt><trkpt lat="41.7485068" lon="13.8145055"><ele>1528.8</ele><time>2026-04-26T12:34:55.955Z</time></trkpt><trkpt lat="41.7484086" lon="13.8145901"><ele>1527.6</ele><time>2026-04-26T12:34:56.963Z</time></trkpt><trkpt lat="41.7483077" lon="13.8146566"><ele>1526.4</ele><time>2026-04-26T12:34:57.94Z</time></trkpt><trkpt lat="41.7482099" lon="13.8147212"><ele>1525.2</ele><time>2026-04-26T12:34:58.974Z</time></trkpt><trkpt lat="41.7481075" lon="13.8147554"><ele>1524.0</ele><time>2026-04-26T12:35:00.02Z</time></trkpt><trkpt lat="41.7479926" lon="13.8147424"><ele>1524.0</ele><time>2026-04-26T12:35:00.956Z</time></trkpt><trkpt lat="41.7478733" lon="13.8147092"><ele>1524.0</ele><time>2026-04-26T12:35:01.975Z</time></trkpt><trkpt lat="41.7477486" lon="13.8146682"><ele>1524.0</ele><time>2026-04-26T12:35:02.973Z</time></trkpt><trkpt lat="41.7476218" lon="13.8146247"><ele>1524.0</ele><time>2026-04-26T12:35:03.952Z</time></trkpt><trkpt lat="41.7474946" lon="13.8145821"><ele>1524.75</ele><time>2026-04-26T12:35:04.957Z</time></trkpt><trkpt lat="41.7473644" lon="13.8145361"><ele>1525.5</ele><time>2026-04-26T12:35:05.95Z</time></trkpt><trkpt lat="41.7472366" lon="13.8144534"><ele>1526.25</ele><time>2026-04-26T12:35:06.954Z</time></trkpt><trkpt lat="41.7471119" lon="13.8143504"><ele>1527.0</ele><time>2026-04-26T12:35:07.951Z</time></trkpt><trkpt lat="41.7469946" lon="13.8142144"><ele>1524.3333333333333</ele><time>2026-04-26T12:35:08.95Z</time></trkpt><trkpt lat="41.7468807" lon="13.8140763"><ele>1521.6666666666665</ele><time>2026-04-26T12:35:09.949Z</time></trkpt><trkpt lat="41.7467746" lon="13.8139214"><ele>1519.0</ele><time>2026-04-26T12:35:10.953Z</time></trkpt><trkpt lat="41.7466729" lon="13.81377"><ele>1519.0</ele><time>2026-04-26T12:35:11.95Z</time></trkpt><trkpt lat="41.7465727" lon="13.8136255"><ele>1519.0</ele><time>2026-04-26T12:35:12.963Z</time></trkpt><trkpt lat="41.7464581" lon="13.8135231"><ele>1519.0</ele><time>2026-04-26T12:35:13.956Z</time></trkpt><trkpt lat="41.7463228" lon="13.8134655"><ele>1519.0</ele><time>2026-04-26T12:35:14.95Z</time></trkpt><trkpt lat="41.74617" lon="13.8134219"><ele>1511.6666666666665</ele><time>2026-04-26T12:35:15.959Z</time></trkpt><trkpt lat="41.7460006" lon="13.8133828"><ele>1504.3333333333333</ele><time>2026-04-26T12:35:16.959Z</time></trkpt><trkpt lat="41.7458201" lon="13.8133576"><ele>1497.0</ele><time>2026-04-26T12:35:17.951Z</time></trkpt><trkpt lat="41.7456357" lon="13.8133236"><ele>1497.0</ele><time>2026-04-26T12:35:18.952Z</time></trkpt><trkpt lat="41.7454408" lon="13.8132808"><ele>1497.0</ele><time>2026-04-26T12:35:19.958Z</time></trkpt><trkpt lat="41.7452604" lon="13.8132557"><ele>1497.0</ele><time>2026-04-26T12:35:20.943Z</time></trkpt><trkpt lat="41.7450632" lon="13.8132332"><ele>1498.6666666666667</ele><time>2026-04-26T12:35:21.959Z</time></trkpt><trkpt lat="41.7448773" lon="13.813206"><ele>1500.3333333333335</ele><time>2026-04-26T12:35:22.949Z</time></trkpt><trkpt lat="41.7447075" lon="13.8131526"><ele>1502.0</ele><time>2026-04-26T12:35:23.949Z</time></trkpt><trkpt lat="41.7445586" lon="13.8130462"><ele>1502.0</ele><time>2026-04-26T12:35:24.948Z</time></trkpt><trkpt lat="41.7444204" lon="13.8129318"><ele>1502.0</ele><time>2026-04-26T12:35:25.946Z</time></trkpt><trkpt lat="41.7442751" lon="13.8128331"><ele>1502.0</ele><time>2026-04-26T12:35:26.948Z</time></trkpt><trkpt lat="41.7441251" lon="13.8128316"><ele>1502.0</ele><time>2026-04-26T12:35:27.953Z</time></trkpt><trkpt lat="41.7439904" lon="13.8128972"><ele>1502.0</ele><time>2026-04-26T12:35:28.948Z</time></trkpt><trkpt lat="41.7438677" lon="13.8130131"><ele>1502.0</ele><time>2026-04-26T12:35:29.947Z</time></trkpt><trkpt lat="41.7437794" lon="13.8131333"><ele>1502.0</ele><time>2026-04-26T12:35:30.948Z</time></trkpt><trkpt lat="41.7437035" lon="13.8132235"><ele>1502.0</ele><time>2026-04-26T12:35:31.955Z</time></trkpt><trkpt lat="41.7436244" lon="13.8132956"><ele>1502.0</ele><time>2026-04-26T12:35:32.949Z</time></trkpt><trkpt lat="41.7435339" lon="13.8133296"><ele>1502.0</ele><time>2026-04-26T12:35:33.944Z</time></trkpt><trkpt lat="41.7434557" lon="13.8133597"><ele>1502.0</ele><time>2026-04-26T12:35:34.955Z</time></trkpt><trkpt lat="41.743367" lon="13.813392"><ele>1502.0</ele><time>2026-04-26T12:35:35.949Z</time></trkpt><trkpt lat="41.743275" lon="13.8133883"><ele>1499.0</ele><time>2026-04-26T12:35:36.942Z</time></trkpt><trkpt lat="41.7431732" lon="13.8133515"><ele>1496.0</ele><time>2026-04-26T12:35:37.96Z</time></trkpt><trkpt lat="41.7430809" lon="13.8133063"><ele>1493.0</ele><time>2026-04-26T12:35:38.946Z</time></trkpt><trkpt lat="41.7429934" lon="13.8132694"><ele>1490.0</ele><time>2026-04-26T12:35:39.948Z</time></trkpt><trkpt lat="41.7429011" lon="13.8132746"><ele>1487.0</ele><time>2026-04-26T12:35:40.958Z</time></trkpt><trkpt lat="41.7428144" lon="13.8132828"><ele>1487.0</ele><time>2026-04-26T12:35:41.953Z</time></trkpt><trkpt lat="41.7427295" lon="13.8133141"><ele>1487.0</ele><time>2026-04-26T12:35:42.952Z</time></trkpt><trkpt lat="41.7426448" lon="13.8133473"><ele>1487.0</ele><time>2026-04-26T12:35:43.952Z</time></trkpt><trkpt lat="41.7425665" lon="13.8133928"><ele>1487.0</ele><time>2026-04-26T12:35:44.949Z</time></trkpt><trkpt lat="41.7424822" lon="13.8134496"><ele>1487.0</ele><time>2026-04-26T12:35:45.949Z</time></trkpt><trkpt lat="41.7423989" lon="13.8135194"><ele>1489.8</ele><time>2026-04-26T12:35:46.948Z</time></trkpt><trkpt lat="41.7423115" lon="13.8135994"><ele>1492.6</ele><time>2026-04-26T12:35:47.955Z</time></trkpt><trkpt lat="41.7422242" lon="13.8136775"><ele>1495.3999999999999</ele><time>2026-04-26T12:35:48.953Z</time></trkpt><trkpt lat="41.7421299" lon="13.8137545"><ele>1498.1999999999998</ele><time>2026-04-26T12:35:49.945Z</time></trkpt><trkpt lat="41.7420341" lon="13.8138362"><ele>1501.0</ele><time>2026-04-26T12:35:50.95Z</time></trkpt><trkpt lat="41.741935" lon="13.8139031"><ele>1495.75</ele><time>2026-04-26T12:35:51.947Z</time></trkpt><trkpt lat="41.7418386" lon="13.813972"><ele>1490.5</ele><time>2026-04-26T12:35:52.949Z</time></trkpt><trkpt lat="41.7417186" lon="13.8140414"><ele>1485.25</ele><time>2026-04-26T12:35:53.95Z</time></trkpt><trkpt lat="41.7416016" lon="13.8140704"><ele>1480.0</ele><time>2026-04-26T12:35:54.947Z</time></trkpt><trkpt lat="41.7414791" lon="13.8141082"><ele>1480.0</ele><time>2026-04-26T12:35:55.946Z</time></trkpt><trkpt lat="41.7413484" lon="13.8141328"><ele>1480.0</ele><time>2026-04-26T12:35:56.95Z</time></trkpt><trkpt lat="41.7412143" lon="13.8141485"><ele>1480.0</ele><time>2026-04-26T12:35:57.948Z</time></trkpt><trkpt lat="41.7410803" lon="13.814111"><ele>1480.0</ele><time>2026-04-26T12:35:58.95Z</time></trkpt><trkpt lat="41.7409414" lon="13.8140898"><ele>1476.5</ele><time>2026-04-26T12:35:59.979Z</time></trkpt><trkpt lat="41.7408061" lon="13.8140741"><ele>1473.0</ele><time>2026-04-26T12:36:00.956Z</time></trkpt><trkpt lat="41.7406677" lon="13.8140849"><ele>1469.5</ele><time>2026-04-26T12:36:01.947Z</time></trkpt><trkpt lat="41.7405282" lon="13.8141069"><ele>1466.0</ele><time>2026-04-26T12:36:02.95Z</time></trkpt><trkpt lat="41.7404007" lon="13.8141665"><ele>1466.0</ele><time>2026-04-26T12:36:03.959Z</time></trkpt><trkpt lat="41.7402804" lon="13.8142622"><ele>1466.0</ele><time>2026-04-26T12:36:04.96Z</time></trkpt><trkpt lat="41.740167" lon="13.814384"><ele>1466.0</ele><time>2026-04-26T12:36:05.953Z</time></trkpt><trkpt lat="41.7400252" lon="13.8145093"><ele>1469.6666666666667</ele><time>2026-04-26T12:36:06.945Z</time></trkpt><trkpt lat="41.7398575" lon="13.8146158"><ele>1473.3333333333333</ele><time>2026-04-26T12:36:07.956Z</time></trkpt><trkpt lat="41.7396881" lon="13.8146946"><ele>1477.0</ele><time>2026-04-26T12:36:08.954Z</time></trkpt><trkpt lat="41.7395308" lon="13.8147618"><ele>1477.0</ele><time>2026-04-26T12:36:09.945Z</time></trkpt><trkpt lat="41.7393915" lon="13.8148222"><ele>1477.0</ele><time>2026-04-26T12:36:10.947Z</time></trkpt><trkpt lat="41.7392648" lon="13.8148743"><ele>1477.0</ele><time>2026-04-26T12:36:11.954Z</time></trkpt><trkpt lat="41.7391447" lon="13.8149121"><ele>1477.0</ele><time>2026-04-26T12:36:12.951Z</time></trkpt><trkpt lat="41.7390294" lon="13.8149283"><ele>1473.8</ele><time>2026-04-26T12:36:13.946Z</time></trkpt><trkpt lat="41.7389179" lon="13.8149149"><ele>1470.6</ele><time>2026-04-26T12:36:14.949Z</time></trkpt><trkpt lat="41.7388173" lon="13.814882"><ele>1467.3999999999999</ele><time>2026-04-26T12:36:15.957Z</time></trkpt><trkpt lat="41.738724" lon="13.8148416"><ele>1464.1999999999998</ele><time>2026-04-26T12:36:16.959Z</time></trkpt><trkpt lat="41.7386261" lon="13.8148066"><ele>1461.0</ele><time>2026-04-26T12:36:17.947Z</time></trkpt><trkpt lat="41.7385171" lon="13.8147923"><ele>1458.0</ele><time>2026-04-26T12:36:18.952Z</time></trkpt><trkpt lat="41.7383908" lon="13.8148262"><ele>1455.0</ele><time>2026-04-26T12:36:19.95Z</time></trkpt><trkpt lat="41.7382384" lon="13.8148881"><ele>1452.0</ele><time>2026-04-26T12:36:20.952Z</time></trkpt><trkpt lat="41.7380765" lon="13.8149423"><ele>1452.0</ele><time>2026-04-26T12:36:21.951Z</time></trkpt><trkpt lat="41.7379135" lon="13.814986"><ele>1452.0</ele><time>2026-04-26T12:36:22.951Z</time></trkpt><trkpt lat="41.7377629" lon="13.8150331"><ele>1452.0</ele><time>2026-04-26T12:36:23.957Z</time></trkpt><trkpt lat="41.7376301" lon="13.8151139"><ele>1456.6666666666667</ele><time>2026-04-26T12:36:24.952Z</time></trkpt><trkpt lat="41.7374873" lon="13.8152237"><ele>1461.3333333333335</ele><time>2026-04-26T12:36:25.946Z</time></trkpt><trkpt lat="41.7373408" lon="13.8153823"><ele>1466.0</ele><time>2026-04-26T12:36:26.955Z</time></trkpt><trkpt lat="41.7371979" lon="13.8155158"><ele>1466.0</ele><time>2026-04-26T12:36:27.944Z</time></trkpt><trkpt lat="41.7370371" lon="13.8156019"><ele>1466.0</ele><time>2026-04-26T12:36:28.947Z</time></trkpt><trkpt lat="41.7368655" lon="13.8156565"><ele>1466.0</ele><time>2026-04-26T12:36:29.953Z</time></trkpt><trkpt lat="41.7367013" lon="13.8156824"><ele>1467.0</ele><time>2026-04-26T12:36:30.957Z</time></trkpt><trkpt lat="41.7365513" lon="13.815716"><ele>1468.0</ele><time>2026-04-26T12:36:31.939Z</time></trkpt><trkpt lat="41.7364234" lon="13.8157894"><ele>1469.0</ele><time>2026-04-26T12:36:32.952Z</time></trkpt><trkpt lat="41.7363066" lon="13.8159064"><ele>1470.0</ele><time>2026-04-26T12:36:33.956Z</time></trkpt><trkpt lat="41.7361958" lon="13.8160458"><ele>1470.0</ele><time>2026-04-26T12:36:34.955Z</time></trkpt><trkpt lat="41.736079" lon="13.8162026"><ele>1470.0</ele><time>2026-04-26T12:36:35.943Z</time></trkpt><trkpt lat="41.7359588" lon="13.8163578"><ele>1470.0</ele><time>2026-04-26T12:36:36.953Z</time></trkpt><trkpt lat="41.7358321" lon="13.816505"><ele>1470.3333333333333</ele><time>2026-04-26T12:36:37.953Z</time></trkpt><trkpt lat="41.7356986" lon="13.81664"><ele>1470.6666666666665</ele><time>2026-04-26T12:36:38.957Z</time></trkpt><trkpt lat="41.7355597" lon="13.8167581"><ele>1471.0</ele><time>2026-04-26T12:36:39.957Z</time></trkpt><trkpt lat="41.7354158" lon="13.8168639"><ele>1471.0</ele><time>2026-04-26T12:36:40.956Z</time></trkpt><trkpt lat="41.7352716" lon="13.816957"><ele>1471.0</ele><time>2026-04-26T12:36:41.955Z</time></trkpt><trkpt lat="41.7351232" lon="13.8170356"><ele>1471.0</ele><time>2026-04-26T12:36:42.955Z</time></trkpt><trkpt lat="41.7349801" lon="13.8171173"><ele>1460.6666666666665</ele><time>2026-04-26T12:36:43.958Z</time></trkpt><trkpt lat="41.7348485" lon="13.8172182"><ele>1450.3333333333333</ele><time>2026-04-26T12:36:44.953Z</time></trkpt><trkpt lat="41.7347244" lon="13.8173455"><ele>1440.0</ele><time>2026-04-26T12:36:45.947Z</time></trkpt><trkpt lat="41.7346099" lon="13.8174977"><ele>1437.6666666666667</ele><time>2026-04-26T12:36:46.951Z</time></trkpt><trkpt lat="41.7345027" lon="13.8176689"><ele>1435.3333333333335</ele><time>2026-04-26T12:36:47.956Z</time></trkpt><trkpt lat="41.7343913" lon="13.8178365"><ele>1433.0</ele><time>2026-04-26T12:36:48.953Z</time></trkpt><trkpt lat="41.7342697" lon="13.8179881"><ele>1433.0</ele><time>2026-04-26T12:36:49.947Z</time></trkpt><trkpt lat="41.7341348" lon="13.8181124"><ele>1433.0</ele><time>2026-04-26T12:36:50.952Z</time></trkpt><trkpt lat="41.733991" lon="13.8182122"><ele>1433.0</ele><time>2026-04-26T12:36:51.947Z</time></trkpt><trkpt lat="41.7338448" lon="13.8182912"><ele>1433.0</ele><time>2026-04-26T12:36:52.951Z</time></trkpt><trkpt lat="41.733708" lon="13.8183746"><ele>1433.0</ele><time>2026-04-26T12:36:53.955Z</time></trkpt><trkpt lat="41.7335908" lon="13.8184847"><ele>1433.0</ele><time>2026-04-26T12:36:54.956Z</time></trkpt><trkpt lat="41.7334959" lon="13.8186271"><ele>1433.0</ele><time>2026-04-26T12:36:55.947Z</time></trkpt><trkpt lat="41.7334225" lon="13.8188115"><ele>1434.6666666666667</ele><time>2026-04-26T12:36:56.959Z</time></trkpt><trkpt lat="41.7333671" lon="13.8190255"><ele>1436.3333333333333</ele><time>2026-04-26T12:36:57.964Z</time></trkpt><trkpt lat="41.7333135" lon="13.8192308"><ele>1438.0</ele><time>2026-04-26T12:36:58.945Z</time></trkpt><trkpt lat="41.7332534" lon="13.8194089"><ele>1438.0</ele><time>2026-04-26T12:36:59.959Z</time></trkpt><trkpt lat="41.7331877" lon="13.8195487"><ele>1438.0</ele><time>2026-04-26T12:37:00.946Z</time></trkpt><trkpt lat="41.733132" lon="13.8196535"><ele>1438.0</ele><time>2026-04-26T12:37:01.948Z</time></trkpt><trkpt lat="41.7330519" lon="13.8196812"><ele>1438.0</ele><time>2026-04-26T12:37:02.951Z</time></trkpt><trkpt lat="41.7329735" lon="13.8195978"><ele>1438.0</ele><time>2026-04-26T12:37:04.949Z</time></trkpt><trkpt lat="41.7329815" lon="13.8194919"><ele>1438.0</ele><time>2026-04-26T12:37:05.947Z</time></trkpt><trkpt lat="41.7330142" lon="13.8193671"><ele>1438.0</ele><time>2026-04-26T12:37:06.961Z</time></trkpt><trkpt lat="41.7331086" lon="13.819219"><ele>1438.0</ele><time>2026-04-26T12:37:07.954Z</time></trkpt><trkpt lat="41.7331898" lon="13.8190222"><ele>1438.0</ele><time>2026-04-26T12:37:08.963Z</time></trkpt><trkpt lat="41.7332681" lon="13.8187818"><ele>1432.0</ele><time>2026-04-26T12:37:09.954Z</time></trkpt><trkpt lat="41.7333461" lon="13.8185331"><ele>1426.0</ele><time>2026-04-26T12:37:10.943Z</time></trkpt><trkpt lat="41.7334076" lon="13.8183118"><ele>1420.0</ele><time>2026-04-26T12:37:11.946Z</time></trkpt><trkpt lat="41.7335219" lon="13.8181561"><ele>1424.3333333333333</ele><time>2026-04-26T12:37:12.954Z</time></trkpt><trkpt lat="41.7336547" lon="13.8180376"><ele>1428.6666666666667</ele><time>2026-04-26T12:37:13.944Z</time></trkpt><trkpt lat="41.7338103" lon="13.8179312"><ele>1433.0</ele><time>2026-04-26T12:37:14.948Z</time></trkpt><trkpt lat="41.7339547" lon="13.8178081"><ele>1424.6666666666667</ele><time>2026-04-26T12:37:15.951Z</time></trkpt><trkpt lat="41.7340785" lon="13.8176272"><ele>1416.3333333333333</ele><time>2026-04-26T12:37:16.948Z</time></trkpt><trkpt lat="41.7341781" lon="13.817416"><ele>1408.0</ele><time>2026-04-26T12:37:17.945Z</time></trkpt><trkpt lat="41.7342633" lon="13.817203"><ele>1408.0</ele><time>2026-04-26T12:37:18.948Z</time></trkpt><trkpt lat="41.734336" lon="13.8169936"><ele>1408.0</ele><time>2026-04-26T12:37:19.954Z</time></trkpt><trkpt lat="41.7344134" lon="13.8167943"><ele>1408.0</ele><time>2026-04-26T12:37:20.946Z</time></trkpt><trkpt lat="41.7344987" lon="13.8166137"><ele>1409.6666666666665</ele><time>2026-04-26T12:37:21.951Z</time></trkpt><trkpt lat="41.7345986" lon="13.8164568"><ele>1411.3333333333333</ele><time>2026-04-26T12:37:22.949Z</time></trkpt><trkpt lat="41.7347138" lon="13.8163271"><ele>1413.0</ele><time>2026-04-26T12:37:23.96Z</time></trkpt><trkpt lat="41.7348478" lon="13.8162249"><ele>1413.0</ele><time>2026-04-26T12:37:24.943Z</time></trkpt><trkpt lat="41.7349877" lon="13.8161264"><ele>1413.0</ele><time>2026-04-26T12:37:25.95Z</time></trkpt><trkpt lat="41.7351225" lon="13.8160088"><ele>1413.0</ele><time>2026-04-26T12:37:26.949Z</time></trkpt><trkpt lat="41.7352504" lon="13.8158662"><ele>1413.0</ele><time>2026-04-26T12:37:27.946Z</time></trkpt><trkpt lat="41.7353715" lon="13.8157045"><ele>1413.0</ele><time>2026-04-26T12:37:28.944Z</time></trkpt><trkpt lat="41.7354873" lon="13.8155354"><ele>1413.0</ele><time>2026-04-26T12:37:29.95Z</time></trkpt><trkpt lat="41.7355942" lon="13.8153564"><ele>1413.0</ele><time>2026-04-26T12:37:30.949Z</time></trkpt><trkpt lat="41.7356851" lon="13.8151717"><ele>1413.0</ele><time>2026-04-26T12:37:31.955Z</time></trkpt><trkpt lat="41.7357602" lon="13.8149888"><ele>1413.0</ele><time>2026-04-26T12:37:32.95Z</time></trkpt><trkpt lat="41.7358269" lon="13.8148152"><ele>1412.5</ele><time>2026-04-26T12:37:33.956Z</time></trkpt><trkpt lat="41.735891" lon="13.8146551"><ele>1412.0</ele><time>2026-04-26T12:37:34.956Z</time></trkpt><trkpt lat="41.7360049" lon="13.8145498"><ele>1411.5</ele><time>2026-04-26T12:37:35.956Z</time></trkpt><trkpt lat="41.7361355" lon="13.8144607"><ele>1411.0</ele><time>2026-04-26T12:37:36.955Z</time></trkpt><trkpt lat="41.7362616" lon="13.814362"><ele>1402.6666666666665</ele><time>2026-04-26T12:37:37.954Z</time></trkpt><trkpt lat="41.7364055" lon="13.8142579"><ele>1394.3333333333333</ele><time>2026-04-26T12:37:38.944Z</time></trkpt><trkpt lat="41.7365509" lon="13.8141509"><ele>1386.0</ele><time>2026-04-26T12:37:39.948Z</time></trkpt><trkpt lat="41.7366963" lon="13.8140355"><ele>1386.0</ele><time>2026-04-26T12:37:40.948Z</time></trkpt><trkpt lat="41.7368307" lon="13.8138934"><ele>1386.0</ele><time>2026-04-26T12:37:41.965Z</time></trkpt><trkpt lat="41.7369488" lon="13.8137238"><ele>1386.0</ele><time>2026-04-26T12:37:42.973Z</time></trkpt><trkpt lat="41.7370599" lon="13.8135429"><ele>1385.3333333333333</ele><time>2026-04-26T12:37:43.943Z</time></trkpt><trkpt lat="41.7371368" lon="13.8133412"><ele>1384.6666666666665</ele><time>2026-04-26T12:37:44.947Z</time></trkpt><trkpt lat="41.7372198" lon="13.813141"><ele>1384.0</ele><time>2026-04-26T12:37:45.971Z</time></trkpt><trkpt lat="41.7373178" lon="13.8129568"><ele>1384.0</ele><time>2026-04-26T12:37:46.948Z</time></trkpt><trkpt lat="41.7374407" lon="13.812786"><ele>1384.0</ele><time>2026-04-26T12:37:47.946Z</time></trkpt><trkpt lat="41.7375941" lon="13.8126317"><ele>1384.0</ele><time>2026-04-26T12:37:48.948Z</time></trkpt><trkpt lat="41.7377546" lon="13.8124948"><ele>1381.3333333333333</ele><time>2026-04-26T12:37:49.951Z</time></trkpt><trkpt lat="41.7379039" lon="13.8123648"><ele>1378.6666666666667</ele><time>2026-04-26T12:37:50.958Z</time></trkpt><trkpt lat="41.738043" lon="13.8122364"><ele>1376.0</ele><time>2026-04-26T12:37:51.945Z</time></trkpt><trkpt lat="41.7381574" lon="13.8120927"><ele>1376.0</ele><time>2026-04-26T12:37:52.95Z</time></trkpt><trkpt lat="41.738246" lon="13.8119312"><ele>1376.0</ele><time>2026-04-26T12:37:53.951Z</time></trkpt><trkpt lat="41.7383048" lon="13.8117489"><ele>1376.0</ele><time>2026-04-26T12:37:54.952Z</time></trkpt><trkpt lat="41.7383251" lon="13.8115513"><ele>1376.0</ele><time>2026-04-26T12:37:55.947Z</time></trkpt><trkpt lat="41.7383119" lon="13.8113614"><ele>1375.5</ele><time>2026-04-26T12:37:56.946Z</time></trkpt><trkpt lat="41.7382716" lon="13.8111857"><ele>1375.0</ele><time>2026-04-26T12:37:57.948Z</time></trkpt><trkpt lat="41.7382125" lon="13.811033"><ele>1374.5</ele><time>2026-04-26T12:37:58.949Z</time></trkpt><trkpt lat="41.7381353" lon="13.8109166"><ele>1374.0</ele><time>2026-04-26T12:37:59.953Z</time></trkpt><trkpt lat="41.7380363" lon="13.8108366"><ele>1374.0</ele><time>2026-04-26T12:38:00.951Z</time></trkpt><trkpt lat="41.7379023" lon="13.8107847"><ele>1374.0</ele><time>2026-04-26T12:38:01.951Z</time></trkpt><trkpt lat="41.7377405" lon="13.8107546"><ele>1374.0</ele><time>2026-04-26T12:38:02.954Z</time></trkpt><trkpt lat="41.7375528" lon="13.8107409"><ele>1369.0</ele><time>2026-04-26T12:38:03.967Z</time></trkpt><trkpt lat="41.7373318" lon="13.8107462"><ele>1364.0</ele><time>2026-04-26T12:38:04.949Z</time></trkpt><trkpt lat="41.7370838" lon="13.8107814"><ele>1363.0</ele><time>2026-04-26T12:38:05.965Z</time></trkpt><trkpt lat="41.7368225" lon="13.8108423"><ele>1362.0</ele><time>2026-04-26T12:38:06.948Z</time></trkpt><trkpt lat="41.736552" lon="13.810929"><ele>1353.5</ele><time>2026-04-26T12:38:07.951Z</time></trkpt><trkpt lat="41.7362836" lon="13.8110477"><ele>1345.0</ele><time>2026-04-26T12:38:08.977Z</time></trkpt><trkpt lat="41.736021" lon="13.8111882"><ele>1343.0</ele><time>2026-04-26T12:38:09.963Z</time></trkpt><trkpt lat="41.7357677" lon="13.8113299"><ele>1341.0</ele><time>2026-04-26T12:38:10.988Z</time></trkpt><trkpt lat="41.7355227" lon="13.811462"><ele>1341.0</ele><time>2026-04-26T12:38:11.965Z</time></trkpt><trkpt lat="41.735286" lon="13.8115859"><ele>1341.0</ele><time>2026-04-26T12:38:13.003Z</time></trkpt><trkpt lat="41.7350574" lon="13.8117004"><ele>1344.0</ele><time>2026-04-26T12:38:13.945Z</time></trkpt><trkpt lat="41.7348338" lon="13.8118046"><ele>1347.0</ele><time>2026-04-26T12:38:14.98Z</time></trkpt><trkpt lat="41.7346143" lon="13.8118922"><ele>1341.0</ele><time>2026-04-26T12:38:15.945Z</time></trkpt><trkpt lat="41.7343996" lon="13.8119611"><ele>1335.0</ele><time>2026-04-26T12:38:16.944Z</time></trkpt><trkpt lat="41.7341884" lon="13.8120172"><ele>1329.0</ele><time>2026-04-26T12:38:17.961Z</time></trkpt><trkpt lat="41.7339816" lon="13.8120687"><ele>1327.3333333333333</ele><time>2026-04-26T12:38:18.947Z</time></trkpt><trkpt lat="41.7337793" lon="13.812128"><ele>1325.6666666666665</ele><time>2026-04-26T12:38:19.959Z</time></trkpt><trkpt lat="41.733583" lon="13.8122052"><ele>1324.0</ele><time>2026-04-26T12:38:20.95Z</time></trkpt><trkpt lat="41.733389" lon="13.8122977"><ele>1329.6666666666665</ele><time>2026-04-26T12:38:21.956Z</time></trkpt><trkpt lat="41.7331936" lon="13.8123937"><ele>1335.3333333333333</ele><time>2026-04-26T12:38:22.958Z</time></trkpt><trkpt lat="41.7329952" lon="13.8124816"><ele>1341.0</ele><time>2026-04-26T12:38:23.948Z</time></trkpt><trkpt lat="41.7327926" lon="13.8125607"><ele>1343.6666666666667</ele><time>2026-04-26T12:38:24.981Z</time></trkpt><trkpt lat="41.7325942" lon="13.8126413"><ele>1346.3333333333335</ele><time>2026-04-26T12:38:25.957Z</time></trkpt><trkpt lat="41.7323885" lon="13.812725"><ele>1349.0</ele><time>2026-04-26T12:38:26.955Z</time></trkpt><trkpt lat="41.7321814" lon="13.8128123"><ele>1339.3333333333335</ele><time>2026-04-26T12:38:27.957Z</time></trkpt><trkpt lat="41.7319663" lon="13.8128636"><ele>1329.6666666666667</ele><time>2026-04-26T12:38:28.945Z</time></trkpt><trkpt lat="41.7317587" lon="13.8128948"><ele>1320.0</ele><time>2026-04-26T12:38:29.956Z</time></trkpt><trkpt lat="41.7315551" lon="13.8129371"><ele>1319.6666666666667</ele><time>2026-04-26T12:38:30.984Z</time></trkpt><trkpt lat="41.7313508" lon="13.8129731"><ele>1319.3333333333335</ele><time>2026-04-26T12:38:31.963Z</time></trkpt><trkpt lat="41.7311477" lon="13.8130088"><ele>1319.0</ele><time>2026-04-26T12:38:32.946Z</time></trkpt><trkpt lat="41.7309474" lon="13.8130469"><ele>1319.0</ele><time>2026-04-26T12:38:33.972Z</time></trkpt><trkpt lat="41.730755" lon="13.8130879"><ele>1319.0</ele><time>2026-04-26T12:38:34.945Z</time></trkpt><trkpt lat="41.7305674" lon="13.8131333"><ele>1319.0</ele><time>2026-04-26T12:38:35.947Z</time></trkpt><trkpt lat="41.730387" lon="13.8131724"><ele>1319.6666666666667</ele><time>2026-04-26T12:38:36.959Z</time></trkpt><trkpt lat="41.730208" lon="13.8132023"><ele>1320.3333333333333</ele><time>2026-04-26T12:38:37.962Z</time></trkpt><trkpt lat="41.7300354" lon="13.8132298"><ele>1321.0</ele><time>2026-04-26T12:38:38.945Z</time></trkpt><trkpt lat="41.7298686" lon="13.8132661"><ele>1321.0</ele><time>2026-04-26T12:38:39.956Z</time></trkpt><trkpt lat="41.7297099" lon="13.8133288"><ele>1321.0</ele><time>2026-04-26T12:38:40.944Z</time></trkpt><trkpt lat="41.7295592" lon="13.8134062"><ele>1321.0</ele><time>2026-04-26T12:38:41.947Z</time></trkpt><trkpt lat="41.7294134" lon="13.8134908"><ele>1312.6666666666665</ele><time>2026-04-26T12:38:42.945Z</time></trkpt><trkpt lat="41.7292699" lon="13.8135702"><ele>1304.3333333333333</ele><time>2026-04-26T12:38:43.948Z</time></trkpt><trkpt lat="41.7291135" lon="13.8136036"><ele>1296.0</ele><time>2026-04-26T12:38:44.949Z</time></trkpt><trkpt lat="41.7289565" lon="13.8136121"><ele>1296.0</ele><time>2026-04-26T12:38:45.956Z</time></trkpt><trkpt lat="41.7287987" lon="13.8136026"><ele>1296.0</ele><time>2026-04-26T12:38:46.948Z</time></trkpt><trkpt lat="41.7286429" lon="13.8135882"><ele>1296.0</ele><time>2026-04-26T12:38:47.951Z</time></trkpt><trkpt lat="41.7284875" lon="13.8135623"><ele>1292.6666666666667</ele><time>2026-04-26T12:38:48.943Z</time></trkpt><trkpt lat="41.7283384" lon="13.8135155"><ele>1289.3333333333335</ele><time>2026-04-26T12:38:49.958Z</time></trkpt><trkpt lat="41.7282004" lon="13.8134362"><ele>1286.0</ele><time>2026-04-26T12:38:50.944Z</time></trkpt><trkpt lat="41.728076" lon="13.8133299"><ele>1288.5</ele><time>2026-04-26T12:38:51.944Z</time></trkpt><trkpt lat="41.7279618" lon="13.8132108"><ele>1291.0</ele><time>2026-04-26T12:38:52.943Z</time></trkpt><trkpt lat="41.7278418" lon="13.8130935"><ele>1293.5</ele><time>2026-04-26T12:38:53.964Z</time></trkpt><trkpt lat="41.7277098" lon="13.8129954"><ele>1296.0</ele><time>2026-04-26T12:38:54.955Z</time></trkpt><trkpt lat="41.727571" lon="13.8129145"><ele>1296.0</ele><time>2026-04-26T12:38:55.96Z</time></trkpt><trkpt lat="41.7274361" lon="13.8128462"><ele>1296.0</ele><time>2026-04-26T12:38:56.955Z</time></trkpt><trkpt lat="41.7273106" lon="13.8127884"><ele>1296.0</ele><time>2026-04-26T12:38:57.959Z</time></trkpt><trkpt lat="41.7271943" lon="13.8127537"><ele>1296.0</ele><time>2026-04-26T12:38:58.959Z</time></trkpt><trkpt lat="41.7270984" lon="13.8127441"><ele>1296.0</ele><time>2026-04-26T12:38:59.951Z</time></trkpt><trkpt lat="41.7269908" lon="13.8128034"><ele>1296.0</ele><time>2026-04-26T12:39:00.943Z</time></trkpt><trkpt lat="41.7268835" lon="13.812885"><ele>1296.0</ele><time>2026-04-26T12:39:01.946Z</time></trkpt><trkpt lat="41.7267718" lon="13.8129747"><ele>1296.0</ele><time>2026-04-26T12:39:02.939Z</time></trkpt><trkpt lat="41.7266554" lon="13.8130647"><ele>1294.0</ele><time>2026-04-26T12:39:03.949Z</time></trkpt><trkpt lat="41.7265284" lon="13.8131452"><ele>1292.0</ele><time>2026-04-26T12:39:04.944Z</time></trkpt><trkpt lat="41.7263954" lon="13.8132115"><ele>1290.0</ele><time>2026-04-26T12:39:05.947Z</time></trkpt><trkpt lat="41.726259" lon="13.8132503"><ele>1288.0</ele><time>2026-04-26T12:39:06.946Z</time></trkpt><trkpt lat="41.7261264" lon="13.8132554"><ele>1288.25</ele><time>2026-04-26T12:39:07.958Z</time></trkpt><trkpt lat="41.7259997" lon="13.8132226"><ele>1288.5</ele><time>2026-04-26T12:39:08.956Z</time></trkpt><trkpt lat="41.7258807" lon="13.8131542"><ele>1288.75</ele><time>2026-04-26T12:39:09.957Z</time></trkpt><trkpt lat="41.7257703" lon="13.8130587"><ele>1289.0</ele><time>2026-04-26T12:39:10.965Z</time></trkpt><trkpt lat="41.7256606" lon="13.8129654"><ele>1289.0</ele><time>2026-04-26T12:39:11.951Z</time></trkpt><trkpt lat="41.7255381" lon="13.8128922"><ele>1289.0</ele><time>2026-04-26T12:39:12.964Z</time></trkpt><trkpt lat="41.7253992" lon="13.8128644"><ele>1289.0</ele><time>2026-04-26T12:39:13.963Z</time></trkpt><trkpt lat="41.7252615" lon="13.8128732"><ele>1289.0</ele><time>2026-04-26T12:39:14.959Z</time></trkpt><trkpt lat="41.725119" lon="13.8129034"><ele>1284.6666666666667</ele><time>2026-04-26T12:39:15.954Z</time></trkpt><trkpt lat="41.7249722" lon="13.812943"><ele>1280.3333333333333</ele><time>2026-04-26T12:39:16.968Z</time></trkpt><trkpt lat="41.7248245" lon="13.8129843"><ele>1276.0</ele><time>2026-04-26T12:39:17.966Z</time></trkpt><trkpt lat="41.7246757" lon="13.8130344"><ele>1276.0</ele><time>2026-04-26T12:39:18.94Z</time></trkpt><trkpt lat="41.7245314" lon="13.813083"><ele>1276.0</ele><time>2026-04-26T12:39:19.958Z</time></trkpt><trkpt lat="41.724394" lon="13.8131196"><ele>1276.0</ele><time>2026-04-26T12:39:20.954Z</time></trkpt><trkpt lat="41.7242642" lon="13.8131201"><ele>1276.0</ele><time>2026-04-26T12:39:21.961Z</time></trkpt><trkpt lat="41.7241395" lon="13.8131047"><ele>1276.0</ele><time>2026-04-26T12:39:22.968Z</time></trkpt><trkpt lat="41.7240311" lon="13.8129992"><ele>1276.0</ele><time>2026-04-26T12:39:23.957Z</time></trkpt><trkpt lat="41.7239297" lon="13.8128651"><ele>1276.0</ele><time>2026-04-26T12:39:24.955Z</time></trkpt><trkpt lat="41.7238332" lon="13.8127189"><ele>1276.0</ele><time>2026-04-26T12:39:25.962Z</time></trkpt><trkpt lat="41.7237371" lon="13.8125585"><ele>1271.3333333333333</ele><time>2026-04-26T12:39:26.958Z</time></trkpt><trkpt lat="41.7236369" lon="13.8123879"><ele>1266.6666666666667</ele><time>2026-04-26T12:39:27.954Z</time></trkpt><trkpt lat="41.7235432" lon="13.8122046"><ele>1262.0</ele><time>2026-04-26T12:39:28.949Z</time></trkpt><trkpt lat="41.7234487" lon="13.8120173"><ele>1262.0</ele><time>2026-04-26T12:39:29.947Z</time></trkpt><trkpt lat="41.7233455" lon="13.811837"><ele>1262.0</ele><time>2026-04-26T12:39:30.952Z</time></trkpt><trkpt lat="41.723208" lon="13.8116971"><ele>1262.0</ele><time>2026-04-26T12:39:31.949Z</time></trkpt><trkpt lat="41.7230643" lon="13.8115583"><ele>1257.6666666666667</ele><time>2026-04-26T12:39:32.958Z</time></trkpt><trkpt lat="41.7229238" lon="13.8114214"><ele>1253.3333333333333</ele><time>2026-04-26T12:39:33.95Z</time></trkpt><trkpt lat="41.7227898" lon="13.8112776"><ele>1249.0</ele><time>2026-04-26T12:39:34.95Z</time></trkpt><trkpt lat="41.7226525" lon="13.8111436"><ele>1249.0</ele><time>2026-04-26T12:39:35.953Z</time></trkpt><trkpt lat="41.7225106" lon="13.8110317"><ele>1249.0</ele><time>2026-04-26T12:39:36.949Z</time></trkpt><trkpt lat="41.7223585" lon="13.8109463"><ele>1249.0</ele><time>2026-04-26T12:39:37.951Z</time></trkpt><trkpt lat="41.7222055" lon="13.8108647"><ele>1250.0</ele><time>2026-04-26T12:39:38.943Z</time></trkpt><trkpt lat="41.7220586" lon="13.8107763"><ele>1251.0</ele><time>2026-04-26T12:39:39.947Z</time></trkpt><trkpt lat="41.7219229" lon="13.8106685"><ele>1252.0</ele><time>2026-04-26T12:39:40.951Z</time></trkpt><trkpt lat="41.7218119" lon="13.8105309"><ele>1252.0</ele><time>2026-04-26T12:39:41.956Z</time></trkpt><trkpt lat="41.7217159" lon="13.8103807"><ele>1252.0</ele><time>2026-04-26T12:39:42.953Z</time></trkpt><trkpt lat="41.7216157" lon="13.8102355"><ele>1252.0</ele><time>2026-04-26T12:39:43.948Z</time></trkpt><trkpt lat="41.7215006" lon="13.8101051"><ele>1252.0</ele><time>2026-04-26T12:39:44.953Z</time></trkpt><trkpt lat="41.721384" lon="13.8099722"><ele>1252.6666666666665</ele><time>2026-04-26T12:39:45.948Z</time></trkpt><trkpt lat="41.7212326" lon="13.8098645"><ele>1253.3333333333333</ele><time>2026-04-26T12:39:46.947Z</time></trkpt><trkpt lat="41.7210809" lon="13.8097668"><ele>1254.0</ele><time>2026-04-26T12:39:47.955Z</time></trkpt><trkpt lat="41.7209217" lon="13.8096566"><ele>1254.0</ele><time>2026-04-26T12:39:48.953Z</time></trkpt><trkpt lat="41.7207625" lon="13.8095402"><ele>1254.0</ele><time>2026-04-26T12:39:49.945Z</time></trkpt><trkpt lat="41.7205991" lon="13.80942"><ele>1254.0</ele><time>2026-04-26T12:39:50.945Z</time></trkpt><trkpt lat="41.7204439" lon="13.8092923"><ele>1251.6666666666667</ele><time>2026-04-26T12:39:51.947Z</time></trkpt><trkpt lat="41.7202931" lon="13.8091691"><ele>1249.3333333333335</ele><time>2026-04-26T12:39:52.954Z</time></trkpt><trkpt lat="41.7201492" lon="13.8090642"><ele>1247.0</ele><time>2026-04-26T12:39:53.962Z</time></trkpt><trkpt lat="41.7200225" lon="13.8089822"><ele>1247.0</ele><time>2026-04-26T12:39:54.954Z</time></trkpt><trkpt lat="41.7199186" lon="13.8089104"><ele>1247.0</ele><time>2026-04-26T12:39:55.945Z</time></trkpt><trkpt lat="41.7198407" lon="13.8088359"><ele>1247.0</ele><time>2026-04-26T12:39:56.957Z</time></trkpt><trkpt lat="41.7198266" lon="13.8087291"><ele>1247.0</ele><time>2026-04-26T12:39:57.973Z</time></trkpt><trkpt lat="41.7198527" lon="13.8086294"><ele>1247.0</ele><time>2026-04-26T12:39:58.951Z</time></trkpt><trkpt lat="41.7199153" lon="13.8085699"><ele>1247.0</ele><time>2026-04-26T12:39:59.947Z</time></trkpt><trkpt lat="41.7199971" lon="13.8085378"><ele>1247.0</ele><time>2026-04-26T12:40:00.961Z</time></trkpt><trkpt lat="41.7200968" lon="13.8085076"><ele>1247.0</ele><time>2026-04-26T12:40:01.956Z</time></trkpt><trkpt lat="41.7202104" lon="13.8084648"><ele>1247.0</ele><time>2026-04-26T12:40:02.948Z</time></trkpt><trkpt lat="41.7203314" lon="13.8084139"><ele>1247.0</ele><time>2026-04-26T12:40:03.946Z</time></trkpt><trkpt lat="41.7204535" lon="13.8083458"><ele>1251.0</ele><time>2026-04-26T12:40:04.95Z</time></trkpt><trkpt lat="41.7205792" lon="13.8082601"><ele>1255.0</ele><time>2026-04-26T12:40:05.963Z</time></trkpt><trkpt lat="41.7207008" lon="13.8081479"><ele>1259.0</ele><time>2026-04-26T12:40:06.955Z</time></trkpt><trkpt lat="41.7208137" lon="13.8080042"><ele>1263.0</ele><time>2026-04-26T12:40:07.963Z</time></trkpt><trkpt lat="41.7209185" lon="13.8078386"><ele>1263.0</ele><time>2026-04-26T12:40:08.948Z</time></trkpt><trkpt lat="41.7210226" lon="13.8076694"><ele>1263.0</ele><time>2026-04-26T12:40:09.949Z</time></trkpt><trkpt lat="41.7211251" lon="13.8075006"><ele>1263.0</ele><time>2026-04-26T12:40:10.948Z</time></trkpt><trkpt lat="41.7212259" lon="13.8073366"><ele>1265.25</ele><time>2026-04-26T12:40:11.958Z</time></trkpt><trkpt lat="41.7213257" lon="13.8071826"><ele>1267.5</ele><time>2026-04-26T12:40:12.947Z</time></trkpt><trkpt lat="41.7214302" lon="13.8070445"><ele>1269.75</ele><time>2026-04-26T12:40:13.947Z</time></trkpt><trkpt lat="41.7215479" lon="13.8069251"><ele>1272.0</ele><time>2026-04-26T12:40:14.962Z</time></trkpt><trkpt lat="41.7216779" lon="13.8068286"><ele>1269.3333333333333</ele><time>2026-04-26T12:40:15.946Z</time></trkpt><trkpt lat="41.7218142" lon="13.8067451"><ele>1266.6666666666665</ele><time>2026-04-26T12:40:16.94Z</time></trkpt><trkpt lat="41.7219513" lon="13.806663"><ele>1264.0</ele><time>2026-04-26T12:40:17.955Z</time></trkpt><trkpt lat="41.7220841" lon="13.806567"><ele>1264.0</ele><time>2026-04-26T12:40:18.959Z</time></trkpt><trkpt lat="41.7222033" lon="13.8064436"><ele>1264.0</ele><time>2026-04-26T12:40:19.944Z</time></trkpt><trkpt lat="41.7223101" lon="13.8062991"><ele>1264.0</ele><time>2026-04-26T12:40:20.962Z</time></trkpt><trkpt lat="41.7224143" lon="13.8061579"><ele>1264.0</ele><time>2026-04-26T12:40:21.95Z</time></trkpt><trkpt lat="41.7225055" lon="13.8060095"><ele>1264.0</ele><time>2026-04-26T12:40:22.947Z</time></trkpt><trkpt lat="41.7225972" lon="13.8058708"><ele>1264.0</ele><time>2026-04-26T12:40:23.959Z</time></trkpt><trkpt lat="41.7226911" lon="13.8057449"><ele>1264.0</ele><time>2026-04-26T12:40:24.943Z</time></trkpt><trkpt lat="41.722796" lon="13.8056385"><ele>1264.25</ele><time>2026-04-26T12:40:25.945Z</time></trkpt><trkpt lat="41.7229098" lon="13.8055492"><ele>1264.5</ele><time>2026-04-26T12:40:26.943Z</time></trkpt><trkpt lat="41.7230186" lon="13.805454"><ele>1264.75</ele><time>2026-04-26T12:40:27.965Z</time></trkpt><trkpt lat="41.7231282" lon="13.8053546"><ele>1265.0</ele><time>2026-04-26T12:40:28.948Z</time></trkpt><trkpt lat="41.7232165" lon="13.8052216"><ele>1257.75</ele><time>2026-04-26T12:40:29.945Z</time></trkpt><trkpt lat="41.7233013" lon="13.8050802"><ele>1250.5</ele><time>2026-04-26T12:40:30.948Z</time></trkpt><trkpt lat="41.7233666" lon="13.8049244"><ele>1243.25</ele><time>2026-04-26T12:40:31.96Z</time></trkpt><trkpt lat="41.7234066" lon="13.8047507"><ele>1236.0</ele><time>2026-04-26T12:40:32.959Z</time></trkpt><trkpt lat="41.7234258" lon="13.8045645"><ele>1236.0</ele><time>2026-04-26T12:40:33.953Z</time></trkpt><trkpt lat="41.7234387" lon="13.8043676"><ele>1236.0</ele><time>2026-04-26T12:40:34.942Z</time></trkpt><trkpt lat="41.7234537" lon="13.8041567"><ele>1236.0</ele><time>2026-04-26T12:40:35.954Z</time></trkpt><trkpt lat="41.7234697" lon="13.8039393"><ele>1229.3333333333333</ele><time>2026-04-26T12:40:36.948Z</time></trkpt><trkpt lat="41.7234938" lon="13.8037206"><ele>1222.6666666666665</ele><time>2026-04-26T12:40:37.95Z</time></trkpt><trkpt lat="41.7235233" lon="13.8035005"><ele>1216.0</ele><time>2026-04-26T12:40:38.954Z</time></trkpt><trkpt lat="41.7235627" lon="13.8032789"><ele>1229.0</ele><time>2026-04-26T12:40:39.947Z</time></trkpt><trkpt lat="41.7235979" lon="13.8030572"><ele>1242.0</ele><time>2026-04-26T12:40:40.959Z</time></trkpt><trkpt lat="41.7236121" lon="13.8028379"><ele>1255.0</ele><time>2026-04-26T12:40:41.949Z</time></trkpt><trkpt lat="41.723609" lon="13.8026203"><ele>1255.0</ele><time>2026-04-26T12:40:42.955Z</time></trkpt><trkpt lat="41.7235921" lon="13.802407"><ele>1255.0</ele><time>2026-04-26T12:40:43.951Z</time></trkpt><trkpt lat="41.7235563" lon="13.8022076"><ele>1255.0</ele><time>2026-04-26T12:40:44.96Z</time></trkpt><trkpt lat="41.7235174" lon="13.8020266"><ele>1240.75</ele><time>2026-04-26T12:40:45.949Z</time></trkpt><trkpt lat="41.7234682" lon="13.8018567"><ele>1226.5</ele><time>2026-04-26T12:40:46.952Z</time></trkpt><trkpt lat="41.7234205" lon="13.8017079"><ele>1212.25</ele><time>2026-04-26T12:40:47.96Z</time></trkpt><trkpt lat="41.7234125" lon="13.8015666"><ele>1198.0</ele><time>2026-04-26T12:40:48.953Z</time></trkpt><trkpt lat="41.723463" lon="13.8014416"><ele>1197.5</ele><time>2026-04-26T12:40:49.951Z</time></trkpt><trkpt lat="41.7235213" lon="13.8013184"><ele>1197.0</ele><time>2026-04-26T12:40:50.955Z</time></trkpt><trkpt lat="41.7235783" lon="13.801181"><ele>1196.5</ele><time>2026-04-26T12:40:51.962Z</time></trkpt><trkpt lat="41.7236448" lon="13.8010239"><ele>1196.0</ele><time>2026-04-26T12:40:52.945Z</time></trkpt><trkpt lat="41.7237154" lon="13.8008473"><ele>1211.0</ele><time>2026-04-26T12:40:53.952Z</time></trkpt><trkpt lat="41.7237816" lon="13.8006626"><ele>1226.0</ele><time>2026-04-26T12:40:54.948Z</time></trkpt><trkpt lat="41.7238433" lon="13.8004748"><ele>1241.0</ele><time>2026-04-26T12:40:55.955Z</time></trkpt><trkpt lat="41.7238889" lon="13.8002849"><ele>1237.0</ele><time>2026-04-26T12:40:56.954Z</time></trkpt><trkpt lat="41.7239176" lon="13.8001009"><ele>1233.0</ele><time>2026-04-26T12:40:57.96Z</time></trkpt><trkpt lat="41.7239185" lon="13.7999274"><ele>1229.0</ele><time>2026-04-26T12:40:58.961Z</time></trkpt><trkpt lat="41.7238871" lon="13.7997632"><ele>1225.0</ele><time>2026-04-26T12:40:59.961Z</time></trkpt><trkpt lat="41.7238332" lon="13.7996106"><ele>1225.0</ele><time>2026-04-26T12:41:00.945Z</time></trkpt><trkpt lat="41.7237783" lon="13.7994666"><ele>1225.0</ele><time>2026-04-26T12:41:01.948Z</time></trkpt><trkpt lat="41.7237296" lon="13.7993276"><ele>1225.0</ele><time>2026-04-26T12:41:02.957Z</time></trkpt><trkpt lat="41.7237377" lon="13.7991752"><ele>1225.0</ele><time>2026-04-26T12:41:03.957Z</time></trkpt><trkpt lat="41.7237704" lon="13.7990272"><ele>1224.5</ele><time>2026-04-26T12:41:04.961Z</time></trkpt><trkpt lat="41.7238149" lon="13.7988659"><ele>1224.0</ele><time>2026-04-26T12:41:05.968Z</time></trkpt><trkpt lat="41.7238512" lon="13.798678"><ele>1223.5</ele><time>2026-04-26T12:41:06.947Z</time></trkpt><trkpt lat="41.7238782" lon="13.7984702"><ele>1223.0</ele><time>2026-04-26T12:41:07.967Z</time></trkpt><trkpt lat="41.7238894" lon="13.7982426"><ele>1223.0</ele><time>2026-04-26T12:41:08.965Z</time></trkpt><trkpt lat="41.7238861" lon="13.7979996"><ele>1223.0</ele><time>2026-04-26T12:41:09.967Z</time></trkpt><trkpt lat="41.7238755" lon="13.7977433"><ele>1223.0</ele><time>2026-04-26T12:41:10.951Z</time></trkpt><trkpt lat="41.7238629" lon="13.7974793"><ele>1222.6666666666667</ele><time>2026-04-26T12:41:11.951Z</time></trkpt><trkpt lat="41.7238512" lon="13.7972274"><ele>1222.3333333333333</ele><time>2026-04-26T12:41:12.96Z</time></trkpt><trkpt lat="41.7238385" lon="13.7969896"><ele>1222.0</ele><time>2026-04-26T12:41:13.963Z</time></trkpt><trkpt lat="41.7238329" lon="13.7967752"><ele>1222.0</ele><time>2026-04-26T12:41:14.962Z</time></trkpt><trkpt lat="41.7237936" lon="13.7965863"><ele>1222.0</ele><time>2026-04-26T12:41:15.961Z</time></trkpt><trkpt lat="41.7237241" lon="13.796397"><ele>1222.0</ele><time>2026-04-26T12:41:16.945Z</time></trkpt><trkpt lat="41.7236315" lon="13.7962129"><ele>1209.0</ele><time>2026-04-26T12:41:17.947Z</time></trkpt><trkpt lat="41.7235304" lon="13.7960196"><ele>1196.0</ele><time>2026-04-26T12:41:18.95Z</time></trkpt><trkpt lat="41.7234203" lon="13.795813"><ele>1183.0</ele><time>2026-04-26T12:41:19.946Z</time></trkpt><trkpt lat="41.7233112" lon="13.7955886"><ele>1183.0</ele><time>2026-04-26T12:41:20.968Z</time></trkpt><trkpt lat="41.7232183" lon="13.7953585"><ele>1183.0</ele><time>2026-04-26T12:41:21.947Z</time></trkpt><trkpt lat="41.7231327" lon="13.7951367"><ele>1183.0</ele><time>2026-04-26T12:41:22.941Z</time></trkpt><trkpt lat="41.7230587" lon="13.7949306"><ele>1187.0</ele><time>2026-04-26T12:41:23.946Z</time></trkpt><trkpt lat="41.7229923" lon="13.7947478"><ele>1191.0</ele><time>2026-04-26T12:41:24.951Z</time></trkpt><trkpt lat="41.7229442" lon="13.794586"><ele>1195.0</ele><time>2026-04-26T12:41:25.954Z</time></trkpt><trkpt lat="41.7229304" lon="13.7944292"><ele>1199.0</ele><time>2026-04-26T12:41:26.946Z</time></trkpt><trkpt lat="41.7229503" lon="13.7942746"><ele>1199.75</ele><time>2026-04-26T12:41:27.955Z</time></trkpt><trkpt lat="41.7229949" lon="13.794127"><ele>1200.5</ele><time>2026-04-26T12:41:28.952Z</time></trkpt><trkpt lat="41.723063" lon="13.7939858"><ele>1201.25</ele><time>2026-04-26T12:41:29.959Z</time></trkpt><trkpt lat="41.7231338" lon="13.7938431"><ele>1202.0</ele><time>2026-04-26T12:41:30.962Z</time></trkpt><trkpt lat="41.7232156" lon="13.7936838"><ele>1194.0</ele><time>2026-04-26T12:41:31.957Z</time></trkpt><trkpt lat="41.7232798" lon="13.793492"><ele>1186.0</ele><time>2026-04-26T12:41:32.952Z</time></trkpt><trkpt lat="41.7233245" lon="13.7932748"><ele>1178.0</ele><time>2026-04-26T12:41:33.95Z</time></trkpt><trkpt lat="41.7233685" lon="13.7930525"><ele>1178.0</ele><time>2026-04-26T12:41:34.945Z</time></trkpt><trkpt lat="41.7234073" lon="13.7928054"><ele>1178.0</ele><time>2026-04-26T12:41:35.95Z</time></trkpt><trkpt lat="41.7234645" lon="13.7925553"><ele>1178.0</ele><time>2026-04-26T12:41:36.951Z</time></trkpt><trkpt lat="41.7235467" lon="13.7923073"><ele>1185.0</ele><time>2026-04-26T12:41:37.947Z</time></trkpt><trkpt lat="41.7236398" lon="13.7920583"><ele>1192.0</ele><time>2026-04-26T12:41:38.955Z</time></trkpt><trkpt lat="41.7237291" lon="13.7918111"><ele>1199.0</ele><time>2026-04-26T12:41:39.963Z</time></trkpt><trkpt lat="41.723802" lon="13.7915648"><ele>1199.0</ele><time>2026-04-26T12:41:40.952Z</time></trkpt><trkpt lat="41.7238546" lon="13.7913174"><ele>1199.0</ele><time>2026-04-26T12:41:41.95Z</time></trkpt><trkpt lat="41.7238816" lon="13.7910631"><ele>1199.0</ele><time>2026-04-26T12:41:42.956Z</time></trkpt><trkpt lat="41.7238884" lon="13.7908036"><ele>1195.3333333333335</ele><time>2026-04-26T12:41:43.948Z</time></trkpt><trkpt lat="41.7238785" lon="13.7905445"><ele>1191.6666666666667</ele><time>2026-04-26T12:41:44.941Z</time></trkpt><trkpt lat="41.7238617" lon="13.7902909"><ele>1188.0</ele><time>2026-04-26T12:41:45.948Z</time></trkpt><trkpt lat="41.7238387" lon="13.7900433"><ele>1185.6666666666667</ele><time>2026-04-26T12:41:46.943Z</time></trkpt><trkpt lat="41.7238176" lon="13.789815"><ele>1183.3333333333335</ele><time>2026-04-26T12:41:47.949Z</time></trkpt><trkpt lat="41.7237928" lon="13.7895991"><ele>1181.0</ele><time>2026-04-26T12:41:48.944Z</time></trkpt><trkpt lat="41.7237589" lon="13.7893994"><ele>1179.3999999999999</ele><time>2026-04-26T12:41:49.951Z</time></trkpt><trkpt lat="41.7237175" lon="13.7892231"><ele>1177.8</ele><time>2026-04-26T12:41:50.943Z</time></trkpt><trkpt lat="41.7236912" lon="13.7890719"><ele>1176.1999999999998</ele><time>2026-04-26T12:41:51.958Z</time></trkpt><trkpt lat="41.7237059" lon="13.7889532"><ele>1174.6</ele><time>2026-04-26T12:41:52.972Z</time></trkpt><trkpt lat="41.7237576" lon="13.7888764"><ele>1173.0</ele><time>2026-04-26T12:41:53.974Z</time></trkpt><trkpt lat="41.7238147" lon="13.7888247"><ele>1173.0</ele><time>2026-04-26T12:41:54.953Z</time></trkpt><trkpt lat="41.7239039" lon="13.788822"><ele>1173.0</ele><time>2026-04-26T12:41:55.957Z</time></trkpt><trkpt lat="41.7239992" lon="13.7888603"><ele>1173.0</ele><time>2026-04-26T12:41:56.949Z</time></trkpt><trkpt lat="41.7241108" lon="13.7888858"><ele>1173.0</ele><time>2026-04-26T12:41:57.951Z</time></trkpt><trkpt lat="41.7242398" lon="13.788912"><ele>1173.0</ele><time>2026-04-26T12:41:58.97Z</time></trkpt><trkpt lat="41.7243873" lon="13.7889375"><ele>1172.0</ele><time>2026-04-26T12:41:59.954Z</time></trkpt><trkpt lat="41.7245449" lon="13.788958"><ele>1171.0</ele><time>2026-04-26T12:42:00.946Z</time></trkpt><trkpt lat="41.7247118" lon="13.7889762"><ele>1170.0</ele><time>2026-04-26T12:42:01.952Z</time></trkpt><trkpt lat="41.7248794" lon="13.7889943"><ele>1170.0</ele><time>2026-04-26T12:42:02.949Z</time></trkpt><trkpt lat="41.7250443" lon="13.7890116"><ele>1170.0</ele><time>2026-04-26T12:42:03.95Z</time></trkpt><trkpt lat="41.7252029" lon="13.7890261"><ele>1170.0</ele><time>2026-04-26T12:42:04.948Z</time></trkpt><trkpt lat="41.7253536" lon="13.7890403"><ele>1170.0</ele><time>2026-04-26T12:42:05.952Z</time></trkpt><trkpt lat="41.7254921" lon="13.7890493"><ele>1170.0</ele><time>2026-04-26T12:42:06.944Z</time></trkpt><trkpt lat="41.7256207" lon="13.7890438"><ele>1170.0</ele><time>2026-04-26T12:42:07.948Z</time></trkpt><trkpt lat="41.7257395" lon="13.7890285"><ele>1170.0</ele><time>2026-04-26T12:42:08.949Z</time></trkpt><trkpt lat="41.7258492" lon="13.7889498"><ele>1170.0</ele><time>2026-04-26T12:42:09.955Z</time></trkpt><trkpt lat="41.7259262" lon="13.7888211"><ele>1170.0</ele><time>2026-04-26T12:42:10.959Z</time></trkpt><trkpt lat="41.7259992" lon="13.7886801"><ele>1170.0</ele><time>2026-04-26T12:42:11.95Z</time></trkpt><trkpt lat="41.7260281" lon="13.7884842"><ele>1170.0</ele><time>2026-04-26T12:42:12.952Z</time></trkpt><trkpt lat="41.7260965" lon="13.7882915"><ele>1173.3333333333333</ele><time>2026-04-26T12:42:13.948Z</time></trkpt><trkpt lat="41.7261527" lon="13.7880757"><ele>1176.6666666666665</ele><time>2026-04-26T12:42:14.943Z</time></trkpt><trkpt lat="41.7262093" lon="13.7878309"><ele>1180.0</ele><time>2026-04-26T12:42:15.953Z</time></trkpt><trkpt lat="41.7262533" lon="13.7875707"><ele>1180.0</ele><time>2026-04-26T12:42:16.956Z</time></trkpt><trkpt lat="41.726288" lon="13.787299"><ele>1180.0</ele><time>2026-04-26T12:42:17.943Z</time></trkpt><trkpt lat="41.7263177" lon="13.787027"><ele>1180.0</ele><time>2026-04-26T12:42:18.946Z</time></trkpt><trkpt lat="41.726352" lon="13.786754"><ele>1173.3333333333333</ele><time>2026-04-26T12:42:19.949Z</time></trkpt><trkpt lat="41.7263925" lon="13.786485"><ele>1166.6666666666667</ele><time>2026-04-26T12:42:20.952Z</time></trkpt><trkpt lat="41.7264357" lon="13.786225"><ele>1160.0</ele><time>2026-04-26T12:42:21.961Z</time></trkpt><trkpt lat="41.7264875" lon="13.785979"><ele>1155.6666666666667</ele><time>2026-04-26T12:42:22.949Z</time></trkpt><trkpt lat="41.7265472" lon="13.7857474"><ele>1151.3333333333333</ele><time>2026-04-26T12:42:23.948Z</time></trkpt><trkpt lat="41.7266044" lon="13.7855279"><ele>1147.0</ele><time>2026-04-26T12:42:24.952Z</time></trkpt><trkpt lat="41.7266427" lon="13.7853167"><ele>1146.3333333333333</ele><time>2026-04-26T12:42:25.952Z</time></trkpt><trkpt lat="41.7266726" lon="13.7851101"><ele>1145.6666666666667</ele><time>2026-04-26T12:42:26.945Z</time></trkpt><trkpt lat="41.7266395" lon="13.7849012"><ele>1145.0</ele><time>2026-04-26T12:42:27.951Z</time></trkpt><trkpt lat="41.726597" lon="13.7846934"><ele>1145.0</ele><time>2026-04-26T12:42:28.943Z</time></trkpt><trkpt lat="41.7265516" lon="13.784473"><ele>1145.0</ele><time>2026-04-26T12:42:29.95Z</time></trkpt><trkpt lat="41.7264885" lon="13.7842532"><ele>1145.0</ele><time>2026-04-26T12:42:30.95Z</time></trkpt><trkpt lat="41.7264119" lon="13.7840429"><ele>1147.6666666666667</ele><time>2026-04-26T12:42:31.95Z</time></trkpt><trkpt lat="41.7263286" lon="13.7838375"><ele>1150.3333333333333</ele><time>2026-04-26T12:42:32.951Z</time></trkpt><trkpt lat="41.7262499" lon="13.7836393"><ele>1153.0</ele><time>2026-04-26T12:42:33.955Z</time></trkpt><trkpt lat="41.7261871" lon="13.7834458"><ele>1154.75</ele><time>2026-04-26T12:42:34.943Z</time></trkpt><trkpt lat="41.7261546" lon="13.7832736"><ele>1156.5</ele><time>2026-04-26T12:42:35.947Z</time></trkpt><trkpt lat="41.7261591" lon="13.7831049"><ele>1158.25</ele><time>2026-04-26T12:42:36.953Z</time></trkpt><trkpt lat="41.7262139" lon="13.7829564"><ele>1160.0</ele><time>2026-04-26T12:42:37.948Z</time></trkpt><trkpt lat="41.726287" lon="13.7827932"><ele>1156.6666666666667</ele><time>2026-04-26T12:42:38.943Z</time></trkpt><trkpt lat="41.7263561" lon="13.7826035"><ele>1153.3333333333333</ele><time>2026-04-26T12:42:39.96Z</time></trkpt><trkpt lat="41.7264106" lon="13.782395"><ele>1150.0</ele><time>2026-04-26T12:42:40.956Z</time></trkpt><trkpt lat="41.7264344" lon="13.7821696"><ele>1150.0</ele><time>2026-04-26T12:42:41.948Z</time></trkpt><trkpt lat="41.7264253" lon="13.7819295"><ele>1150.0</ele><time>2026-04-26T12:42:42.959Z</time></trkpt><trkpt lat="41.726388" lon="13.7816784"><ele>1150.0</ele><time>2026-04-26T12:42:43.962Z</time></trkpt><trkpt lat="41.7263423" lon="13.7814216"><ele>1150.0</ele><time>2026-04-26T12:42:44.95Z</time></trkpt><trkpt lat="41.7262657" lon="13.7811727"><ele>1150.0</ele><time>2026-04-26T12:42:45.957Z</time></trkpt><trkpt lat="41.7261749" lon="13.7809429"><ele>1150.0</ele><time>2026-04-26T12:42:46.948Z</time></trkpt><trkpt lat="41.7260821" lon="13.78075"><ele>1138.75</ele><time>2026-04-26T12:42:47.944Z</time></trkpt><trkpt lat="41.7259889" lon="13.7805764"><ele>1127.5</ele><time>2026-04-26T12:42:48.949Z</time></trkpt><trkpt lat="41.7259175" lon="13.7804166"><ele>1116.25</ele><time>2026-04-26T12:42:49.958Z</time></trkpt><trkpt lat="41.7258907" lon="13.7802747"><ele>1105.0</ele><time>2026-04-26T12:42:50.947Z</time></trkpt><trkpt lat="41.7258813" lon="13.7801705"><ele>1102.2</ele><time>2026-04-26T12:42:51.945Z</time></trkpt><trkpt lat="41.7259346" lon="13.7800935"><ele>1099.4</ele><time>2026-04-26T12:42:52.948Z</time></trkpt><trkpt lat="41.7260251" lon="13.7800257"><ele>1096.6</ele><time>2026-04-26T12:42:53.958Z</time></trkpt><trkpt lat="41.7261231" lon="13.7799692"><ele>1093.8</ele><time>2026-04-26T12:42:54.944Z</time></trkpt><trkpt lat="41.7262409" lon="13.7799494"><ele>1091.0</ele><time>2026-04-26T12:42:55.957Z</time></trkpt><trkpt lat="41.7263819" lon="13.7799412"><ele>1099.75</ele><time>2026-04-26T12:42:56.949Z</time></trkpt><trkpt lat="41.7265252" lon="13.779926"><ele>1108.5</ele><time>2026-04-26T12:42:57.952Z</time></trkpt><trkpt lat="41.7266705" lon="13.7799101"><ele>1117.25</ele><time>2026-04-26T12:42:58.947Z</time></trkpt><trkpt lat="41.7268048" lon="13.7798992"><ele>1126.0</ele><time>2026-04-26T12:42:59.948Z</time></trkpt><trkpt lat="41.7269218" lon="13.7798604"><ele>1129.0</ele><time>2026-04-26T12:43:00.947Z</time></trkpt><trkpt lat="41.7270152" lon="13.7797779"><ele>1132.0</ele><time>2026-04-26T12:43:01.952Z</time></trkpt><trkpt lat="41.7270819" lon="13.7796654"><ele>1135.0</ele><time>2026-04-26T12:43:02.948Z</time></trkpt><trkpt lat="41.7271432" lon="13.7795505"><ele>1138.0</ele><time>2026-04-26T12:43:03.946Z</time></trkpt><trkpt lat="41.7272208" lon="13.7794603"><ele>1141.0</ele><time>2026-04-26T12:43:04.949Z</time></trkpt><trkpt lat="41.7273194" lon="13.7794164"><ele>1141.0</ele><time>2026-04-26T12:43:05.95Z</time></trkpt><trkpt lat="41.7274266" lon="13.7793998"><ele>1141.0</ele><time>2026-04-26T12:43:06.96Z</time></trkpt><trkpt lat="41.7275567" lon="13.7794282"><ele>1141.0</ele><time>2026-04-26T12:43:07.959Z</time></trkpt><trkpt lat="41.7277" lon="13.7794402"><ele>1141.0</ele><time>2026-04-26T12:43:08.951Z</time></trkpt><trkpt lat="41.7278525" lon="13.7794409"><ele>1143.6666666666665</ele><time>2026-04-26T12:43:09.947Z</time></trkpt><trkpt lat="41.7280149" lon="13.7794175"><ele>1146.3333333333333</ele><time>2026-04-26T12:43:10.952Z</time></trkpt><trkpt lat="41.7281867" lon="13.7793871"><ele>1149.0</ele><time>2026-04-26T12:43:11.956Z</time></trkpt><trkpt lat="41.7283675" lon="13.7793438"><ele>1136.6666666666667</ele><time>2026-04-26T12:43:12.958Z</time></trkpt><trkpt lat="41.7285522" lon="13.7792872"><ele>1124.3333333333335</ele><time>2026-04-26T12:43:13.945Z</time></trkpt><trkpt lat="41.7287411" lon="13.779222"><ele>1112.0</ele><time>2026-04-26T12:43:14.964Z</time></trkpt><trkpt lat="41.7289282" lon="13.7791573"><ele>1112.0</ele><time>2026-04-26T12:43:15.956Z</time></trkpt><trkpt lat="41.7291094" lon="13.7790952"><ele>1112.0</ele><time>2026-04-26T12:43:16.957Z</time></trkpt><trkpt lat="41.7292838" lon="13.7790325"><ele>1112.0</ele><time>2026-04-26T12:43:17.958Z</time></trkpt><trkpt lat="41.7294501" lon="13.7789671"><ele>1116.6666666666667</ele><time>2026-04-26T12:43:18.949Z</time></trkpt><trkpt lat="41.7296089" lon="13.778892"><ele>1121.3333333333333</ele><time>2026-04-26T12:43:19.945Z</time></trkpt><trkpt lat="41.729761" lon="13.7788016"><ele>1126.0</ele><time>2026-04-26T12:43:20.944Z</time></trkpt><trkpt lat="41.7299095" lon="13.778696"><ele>1126.0</ele><time>2026-04-26T12:43:21.959Z</time></trkpt><trkpt lat="41.7300568" lon="13.7785831"><ele>1126.0</ele><time>2026-04-26T12:43:22.951Z</time></trkpt><trkpt lat="41.7301877" lon="13.7784535"><ele>1126.0</ele><time>2026-04-26T12:43:23.946Z</time></trkpt><trkpt lat="41.7303149" lon="13.7783397"><ele>1124.0</ele><time>2026-04-26T12:43:24.946Z</time></trkpt><trkpt lat="41.7304322" lon="13.7782227"><ele>1122.0</ele><time>2026-04-26T12:43:25.946Z</time></trkpt><trkpt lat="41.7305269" lon="13.7780913"><ele>1120.0</ele><time>2026-04-26T12:43:26.951Z</time></trkpt><trkpt lat="41.7305803" lon="13.7779105"><ele>1118.0</ele><time>2026-04-26T12:43:27.946Z</time></trkpt><trkpt lat="41.7306161" lon="13.777726"><ele>1112.0</ele><time>2026-04-26T12:43:28.949Z</time></trkpt><trkpt lat="41.7306424" lon="13.7775275"><ele>1106.0</ele><time>2026-04-26T12:43:29.955Z</time></trkpt><trkpt lat="41.7306759" lon="13.7773241"><ele>1100.0</ele><time>2026-04-26T12:43:30.958Z</time></trkpt><trkpt lat="41.7307016" lon="13.7771151"><ele>1100.0</ele><time>2026-04-26T12:43:31.95Z</time></trkpt><trkpt lat="41.7307191" lon="13.7769255"><ele>1100.0</ele><time>2026-04-26T12:43:32.95Z</time></trkpt><trkpt lat="41.7306873" lon="13.7767511"><ele>1100.0</ele><time>2026-04-26T12:43:33.954Z</time></trkpt><trkpt lat="41.7306174" lon="13.7765754"><ele>1100.0</ele><time>2026-04-26T12:43:34.949Z</time></trkpt><trkpt lat="41.7305376" lon="13.776395"><ele>1102.0</ele><time>2026-04-26T12:43:35.962Z</time></trkpt><trkpt lat="41.7304166" lon="13.7762285"><ele>1104.0</ele><time>2026-04-26T12:43:36.95Z</time></trkpt><trkpt lat="41.7302763" lon="13.7760771"><ele>1106.0</ele><time>2026-04-26T12:43:37.957Z</time></trkpt><trkpt lat="41.7301414" lon="13.7759214"><ele>1100.3333333333335</ele><time>2026-04-26T12:43:38.963Z</time></trkpt><trkpt lat="41.7300294" lon="13.7757694"><ele>1094.6666666666667</ele><time>2026-04-26T12:43:39.955Z</time></trkpt><trkpt lat="41.7299416" lon="13.7756086"><ele>1089.0</ele><time>2026-04-26T12:43:40.95Z</time></trkpt><trkpt lat="41.7298804" lon="13.7754254"><ele>1089.0</ele><time>2026-04-26T12:43:41.979Z</time></trkpt><trkpt lat="41.7298172" lon="13.7752404"><ele>1089.0</ele><time>2026-04-26T12:43:42.956Z</time></trkpt><trkpt lat="41.7297494" lon="13.7750472"><ele>1089.0</ele><time>2026-04-26T12:43:43.954Z</time></trkpt><trkpt lat="41.7296705" lon="13.7748645"><ele>1097.6666666666667</ele><time>2026-04-26T12:43:44.953Z</time></trkpt><trkpt lat="41.7295905" lon="13.7746926"><ele>1106.3333333333335</ele><time>2026-04-26T12:43:45.968Z</time></trkpt><trkpt lat="41.7294908" lon="13.7745458"><ele>1115.0</ele><time>2026-04-26T12:43:46.945Z</time></trkpt><trkpt lat="41.7293682" lon="13.7744197"><ele>1107.6666666666667</ele><time>2026-04-26T12:43:47.947Z</time></trkpt><trkpt lat="41.7292289" lon="13.7742968"><ele>1100.3333333333333</ele><time>2026-04-26T12:43:48.95Z</time></trkpt><trkpt lat="41.7290773" lon="13.7741793"><ele>1093.0</ele><time>2026-04-26T12:43:49.951Z</time></trkpt><trkpt lat="41.7289228" lon="13.7740584"><ele>1093.0</ele><time>2026-04-26T12:43:50.953Z</time></trkpt><trkpt lat="41.7287543" lon="13.773925"><ele>1093.0</ele><time>2026-04-26T12:43:51.951Z</time></trkpt><trkpt lat="41.7285774" lon="13.773788"><ele>1093.0</ele><time>2026-04-26T12:43:52.954Z</time></trkpt><trkpt lat="41.7283977" lon="13.7736419"><ele>1092.6666666666665</ele><time>2026-04-26T12:43:53.962Z</time></trkpt><trkpt lat="41.7282275" lon="13.7735056"><ele>1092.3333333333333</ele><time>2026-04-26T12:43:54.952Z</time></trkpt><trkpt lat="41.7280638" lon="13.7733712"><ele>1092.0</ele><time>2026-04-26T12:43:55.97Z</time></trkpt><trkpt lat="41.7279067" lon="13.7732429"><ele>1092.0</ele><time>2026-04-26T12:43:56.958Z</time></trkpt><trkpt lat="41.7277649" lon="13.7731144"><ele>1092.0</ele><time>2026-04-26T12:43:57.964Z</time></trkpt><trkpt lat="41.727645" lon="13.7729783"><ele>1092.0</ele><time>2026-04-26T12:43:58.95Z</time></trkpt><trkpt lat="41.727556" lon="13.7728267"><ele>1086.6</ele><time>2026-04-26T12:43:59.955Z</time></trkpt><trkpt lat="41.7275046" lon="13.7726599"><ele>1081.2</ele><time>2026-04-26T12:44:00.952Z</time></trkpt><trkpt lat="41.7274928" lon="13.772509"><ele>1075.8</ele><time>2026-04-26T12:44:01.96Z</time></trkpt><trkpt lat="41.7275244" lon="13.7723884"><ele>1070.4</ele><time>2026-04-26T12:44:02.952Z</time></trkpt><trkpt lat="41.7275757" lon="13.7722921"><ele>1065.0</ele><time>2026-04-26T12:44:03.951Z</time></trkpt><trkpt lat="41.7276293" lon="13.7721904"><ele>1065.0</ele><time>2026-04-26T12:44:04.952Z</time></trkpt><trkpt lat="41.7276888" lon="13.7720788"><ele>1065.0</ele><time>2026-04-26T12:44:05.956Z</time></trkpt><trkpt lat="41.7277587" lon="13.7719653"><ele>1065.0</ele><time>2026-04-26T12:44:06.944Z</time></trkpt><trkpt lat="41.7278414" lon="13.7718494"><ele>1065.0</ele><time>2026-04-26T12:44:07.965Z</time></trkpt><trkpt lat="41.7279359" lon="13.7717333"><ele>1068.3333333333333</ele><time>2026-04-26T12:44:08.949Z</time></trkpt><trkpt lat="41.7280473" lon="13.7716186"><ele>1071.6666666666665</ele><time>2026-04-26T12:44:09.964Z</time></trkpt><trkpt lat="41.7281751" lon="13.7715069"><ele>1075.0</ele><time>2026-04-26T12:44:10.949Z</time></trkpt><trkpt lat="41.7283152" lon="13.7713932"><ele>1075.0</ele><time>2026-04-26T12:44:11.945Z</time></trkpt><trkpt lat="41.7284607" lon="13.7712793"><ele>1075.0</ele><time>2026-04-26T12:44:12.948Z</time></trkpt><trkpt lat="41.7286071" lon="13.7711603"><ele>1075.0</ele><time>2026-04-26T12:44:13.961Z</time></trkpt><trkpt lat="41.7287491" lon="13.7710438"><ele>1074.6666666666665</ele><time>2026-04-26T12:44:14.955Z</time></trkpt><trkpt lat="41.7288767" lon="13.7709222"><ele>1074.3333333333333</ele><time>2026-04-26T12:44:15.955Z</time></trkpt><trkpt lat="41.7289819" lon="13.7707794"><ele>1074.0</ele><time>2026-04-26T12:44:16.963Z</time></trkpt><trkpt lat="41.7290644" lon="13.7705994"><ele>1074.0</ele><time>2026-04-26T12:44:17.947Z</time></trkpt><trkpt lat="41.7291265" lon="13.7703934"><ele>1074.0</ele><time>2026-04-26T12:44:18.951Z</time></trkpt><trkpt lat="41.7291685" lon="13.7701652"><ele>1074.0</ele><time>2026-04-26T12:44:19.954Z</time></trkpt><trkpt lat="41.7291916" lon="13.7699225"><ele>1068.0</ele><time>2026-04-26T12:44:20.943Z</time></trkpt><trkpt lat="41.7292035" lon="13.7696729"><ele>1062.0</ele><time>2026-04-26T12:44:21.945Z</time></trkpt><trkpt lat="41.7292109" lon="13.7694271"><ele>1056.0</ele><time>2026-04-26T12:44:22.947Z</time></trkpt><trkpt lat="41.7292373" lon="13.7691921"><ele>1053.3333333333333</ele><time>2026-04-26T12:44:23.953Z</time></trkpt><trkpt lat="41.7292885" lon="13.7689731"><ele>1050.6666666666665</ele><time>2026-04-26T12:44:24.947Z</time></trkpt><trkpt lat="41.7293612" lon="13.7687695"><ele>1048.0</ele><time>2026-04-26T12:44:25.962Z</time></trkpt><trkpt lat="41.7294453" lon="13.7685883"><ele>1054.75</ele><time>2026-04-26T12:44:26.944Z</time></trkpt><trkpt lat="41.7295302" lon="13.7684151"><ele>1061.5</ele><time>2026-04-26T12:44:27.96Z</time></trkpt><trkpt lat="41.729611" lon="13.7682532"><ele>1068.25</ele><time>2026-04-26T12:44:28.944Z</time></trkpt><trkpt lat="41.7296285" lon="13.7680943"><ele>1075.0</ele><time>2026-04-26T12:44:29.954Z</time></trkpt><trkpt lat="41.7296359" lon="13.767946"><ele>1075.0</ele><time>2026-04-26T12:44:30.944Z</time></trkpt><trkpt lat="41.7295722" lon="13.767823"><ele>1075.0</ele><time>2026-04-26T12:44:31.956Z</time></trkpt><trkpt lat="41.7295138" lon="13.7676649"><ele>1075.0</ele><time>2026-04-26T12:44:32.951Z</time></trkpt><trkpt lat="41.7294775" lon="13.7675034"><ele>1075.0</ele><time>2026-04-26T12:44:33.946Z</time></trkpt><trkpt lat="41.7294581" lon="13.7673405"><ele>1076.5</ele><time>2026-04-26T12:44:34.95Z</time></trkpt><trkpt lat="41.7294401" lon="13.7671812"><ele>1078.0</ele><time>2026-04-26T12:44:35.952Z</time></trkpt><trkpt lat="41.7294046" lon="13.7670222"><ele>1079.5</ele><time>2026-04-26T12:44:36.949Z</time></trkpt><trkpt lat="41.7293615" lon="13.7668793"><ele>1081.0</ele><time>2026-04-26T12:44:37.958Z</time></trkpt><trkpt lat="41.7292901" lon="13.7667686"><ele>1073.5</ele><time>2026-04-26T12:44:38.955Z</time></trkpt><trkpt lat="41.7292084" lon="13.7666665"><ele>1066.0</ele><time>2026-04-26T12:44:39.955Z</time></trkpt><trkpt lat="41.7291234" lon="13.766568"><ele>1058.5</ele><time>2026-04-26T12:44:40.956Z</time></trkpt><trkpt lat="41.7290289" lon="13.7664617"><ele>1051.0</ele><time>2026-04-26T12:44:41.958Z</time></trkpt><trkpt lat="41.7289236" lon="13.7663445"><ele>1051.0</ele><time>2026-04-26T12:44:42.947Z</time></trkpt><trkpt lat="41.7288062" lon="13.7662005"><ele>1051.0</ele><time>2026-04-26T12:44:43.948Z</time></trkpt><trkpt lat="41.7286604" lon="13.7659971"><ele>1051.0</ele><time>2026-04-26T12:44:44.95Z</time></trkpt><trkpt lat="41.7284942" lon="13.7657651"><ele>1043.0</ele><time>2026-04-26T12:44:45.953Z</time></trkpt><trkpt lat="41.7283173" lon="13.7655267"><ele>1035.0</ele><time>2026-04-26T12:44:46.944Z</time></trkpt><trkpt lat="41.7281524" lon="13.7652997"><ele>1041.3333333333333</ele><time>2026-04-26T12:44:47.953Z</time></trkpt><trkpt lat="41.7280294" lon="13.7651079"><ele>1047.6666666666665</ele><time>2026-04-26T12:44:48.957Z</time></trkpt><trkpt lat="41.7279293" lon="13.7649181"><ele>1054.0</ele><time>2026-04-26T12:44:49.947Z</time></trkpt><trkpt lat="41.7278766" lon="13.7647073"><ele>1054.0</ele><time>2026-04-26T12:44:50.961Z</time></trkpt><trkpt lat="41.7278252" lon="13.7644919"><ele>1054.0</ele><time>2026-04-26T12:44:51.954Z</time></trkpt><trkpt lat="41.7278017" lon="13.7642629"><ele>1054.0</ele><time>2026-04-26T12:44:52.953Z</time></trkpt><trkpt lat="41.7277917" lon="13.7640146"><ele>1057.0</ele><time>2026-04-26T12:44:53.948Z</time></trkpt><trkpt lat="41.7277731" lon="13.7637533"><ele>1060.0</ele><time>2026-04-26T12:44:54.955Z</time></trkpt><trkpt lat="41.7277613" lon="13.763483"><ele>1063.0</ele><time>2026-04-26T12:44:55.957Z</time></trkpt><trkpt lat="41.727752" lon="13.7632022"><ele>1063.6666666666665</ele><time>2026-04-26T12:44:56.954Z</time></trkpt><trkpt lat="41.7277389" lon="13.7629234"><ele>1064.3333333333333</ele><time>2026-04-26T12:44:57.96Z</time></trkpt><trkpt lat="41.7277251" lon="13.7626399"><ele>1065.0</ele><time>2026-04-26T12:44:58.953Z</time></trkpt><trkpt lat="41.7277118" lon="13.7623603"><ele>1046.3333333333333</ele><time>2026-04-26T12:44:59.961Z</time></trkpt><trkpt lat="41.7277017" lon="13.762085"><ele>1027.6666666666665</ele><time>2026-04-26T12:45:00.951Z</time></trkpt><trkpt lat="41.7276947" lon="13.7618172"><ele>1009.0</ele><time>2026-04-26T12:45:01.953Z</time></trkpt><trkpt lat="41.7276895" lon="13.7615652"><ele>1009.0</ele><time>2026-04-26T12:45:02.947Z</time></trkpt><trkpt lat="41.7276905" lon="13.7613232"><ele>1009.0</ele><time>2026-04-26T12:45:03.958Z</time></trkpt><trkpt lat="41.7277065" lon="13.7610907"><ele>1009.0</ele><time>2026-04-26T12:45:04.952Z</time></trkpt><trkpt lat="41.7277381" lon="13.7608598"><ele>1022.0</ele><time>2026-04-26T12:45:05.956Z</time></trkpt><trkpt lat="41.7277816" lon="13.7606429"><ele>1035.0</ele><time>2026-04-26T12:45:06.952Z</time></trkpt><trkpt lat="41.727843" lon="13.7604442"><ele>1048.0</ele><time>2026-04-26T12:45:07.959Z</time></trkpt><trkpt lat="41.7279232" lon="13.7602649"><ele>1039.3333333333333</ele><time>2026-04-26T12:45:08.956Z</time></trkpt><trkpt lat="41.7280201" lon="13.7600968"><ele>1030.6666666666667</ele><time>2026-04-26T12:45:09.951Z</time></trkpt><trkpt lat="41.7281264" lon="13.7599327"><ele>1022.0</ele><time>2026-04-26T12:45:10.955Z</time></trkpt><trkpt lat="41.7282456" lon="13.7597727"><ele>1022.0</ele><time>2026-04-26T12:45:11.959Z</time></trkpt><trkpt lat="41.7283793" lon="13.7596236"><ele>1022.0</ele><time>2026-04-26T12:45:12.952Z</time></trkpt><trkpt lat="41.7285244" lon="13.7594816"><ele>1022.0</ele><time>2026-04-26T12:45:13.95Z</time></trkpt><trkpt lat="41.7286713" lon="13.7593438"><ele>1022.0</ele><time>2026-04-26T12:45:14.951Z</time></trkpt><trkpt lat="41.7288074" lon="13.759173"><ele>1022.0</ele><time>2026-04-26T12:45:15.943Z</time></trkpt><trkpt lat="41.7289398" lon="13.7589893"><ele>1022.0</ele><time>2026-04-26T12:45:16.951Z</time></trkpt><trkpt lat="41.729074" lon="13.7588093"><ele>1022.0</ele><time>2026-04-26T12:45:17.947Z</time></trkpt><trkpt lat="41.7292029" lon="13.7586324"><ele>1022.0</ele><time>2026-04-26T12:45:18.959Z</time></trkpt><trkpt lat="41.7293302" lon="13.7584625"><ele>1022.0</ele><time>2026-04-26T12:45:19.957Z</time></trkpt><trkpt lat="41.7294639" lon="13.7582969"><ele>1020.0</ele><time>2026-04-26T12:45:20.95Z</time></trkpt><trkpt lat="41.7295996" lon="13.7581414"><ele>1018.0</ele><time>2026-04-26T12:45:21.953Z</time></trkpt><trkpt lat="41.7297413" lon="13.7580012"><ele>1016.0</ele><time>2026-04-26T12:45:22.948Z</time></trkpt><trkpt lat="41.7298911" lon="13.7578679"><ele>1016.0</ele><time>2026-04-26T12:45:23.952Z</time></trkpt><trkpt lat="41.7300387" lon="13.7577314"><ele>1016.0</ele><time>2026-04-26T12:45:24.953Z</time></trkpt><trkpt lat="41.7301758" lon="13.7575847"><ele>1016.0</ele><time>2026-04-26T12:45:25.947Z</time></trkpt><trkpt lat="41.7302998" lon="13.7574141"><ele>1017.0</ele><time>2026-04-26T12:45:26.948Z</time></trkpt><trkpt lat="41.7303961" lon="13.7572221"><ele>1018.0</ele><time>2026-04-26T12:45:27.947Z</time></trkpt><trkpt lat="41.7304653" lon="13.7570137"><ele>1019.0</ele><time>2026-04-26T12:45:28.952Z</time></trkpt><trkpt lat="41.730503" lon="13.7568031"><ele>1014.0</ele><time>2026-04-26T12:45:29.953Z</time></trkpt><trkpt lat="41.7305166" lon="13.7565969"><ele>1009.0</ele><time>2026-04-26T12:45:30.959Z</time></trkpt><trkpt lat="41.7305074" lon="13.7563936"><ele>1004.0</ele><time>2026-04-26T12:45:31.951Z</time></trkpt><trkpt lat="41.7304788" lon="13.7561911"><ele>1006.0</ele><time>2026-04-26T12:45:32.956Z</time></trkpt><trkpt lat="41.7304271" lon="13.7559887"><ele>1008.0</ele><time>2026-04-26T12:45:33.954Z</time></trkpt><trkpt lat="41.7303531" lon="13.7557917"><ele>1010.0</ele><time>2026-04-26T12:45:34.958Z</time></trkpt><trkpt lat="41.7302579" lon="13.7556088"><ele>1011.6666666666667</ele><time>2026-04-26T12:45:35.95Z</time></trkpt><trkpt lat="41.7301387" lon="13.755445"><ele>1013.3333333333333</ele><time>2026-04-26T12:45:36.954Z</time></trkpt><trkpt lat="41.7299986" lon="13.7553011"><ele>1015.0</ele><time>2026-04-26T12:45:37.959Z</time></trkpt><trkpt lat="41.7298429" lon="13.7551727"><ele>1015.0</ele><time>2026-04-26T12:45:38.956Z</time></trkpt><trkpt lat="41.7296793" lon="13.7550497"><ele>1015.0</ele><time>2026-04-26T12:45:39.953Z</time></trkpt><trkpt lat="41.7295188" lon="13.7549244"><ele>1015.0</ele><time>2026-04-26T12:45:40.958Z</time></trkpt><trkpt lat="41.7293665" lon="13.754785"><ele>1014.3333333333333</ele><time>2026-04-26T12:45:41.949Z</time></trkpt><trkpt lat="41.7292245" lon="13.754628"><ele>1013.6666666666667</ele><time>2026-04-26T12:45:42.956Z</time></trkpt><trkpt lat="41.7290932" lon="13.7544615"><ele>1013.0</ele><time>2026-04-26T12:45:43.952Z</time></trkpt><trkpt lat="41.7289719" lon="13.754262"><ele>1013.0</ele><time>2026-04-26T12:45:44.944Z</time></trkpt><trkpt lat="41.7288647" lon="13.7540452"><ele>1013.0</ele><time>2026-04-26T12:45:45.947Z</time></trkpt><trkpt lat="41.7287719" lon="13.7537988"><ele>1013.0</ele><time>2026-04-26T12:45:46.949Z</time></trkpt><trkpt lat="41.7286999" lon="13.7535279"><ele>1019.3333333333334</ele><time>2026-04-26T12:45:47.956Z</time></trkpt><trkpt lat="41.7286471" lon="13.7532362"><ele>1025.6666666666667</ele><time>2026-04-26T12:45:48.956Z</time></trkpt><trkpt lat="41.7285921" lon="13.7529552"><ele>1032.0</ele><time>2026-04-26T12:45:49.948Z</time></trkpt><trkpt lat="41.7285559" lon="13.752656"><ele>1010.5</ele><time>2026-04-26T12:45:50.949Z</time></trkpt><trkpt lat="41.7285225" lon="13.7523258"><ele>989.0</ele><time>2026-04-26T12:45:51.955Z</time></trkpt><trkpt lat="41.7284862" lon="13.751994"><ele>992.5</ele><time>2026-04-26T12:45:52.956Z</time></trkpt><trkpt lat="41.7284475" lon="13.7516643"><ele>996.0</ele><time>2026-04-26T12:45:53.951Z</time></trkpt><trkpt lat="41.7284106" lon="13.7513475"><ele>1001.0</ele><time>2026-04-26T12:45:54.952Z</time></trkpt><trkpt lat="41.728377" lon="13.7510393"><ele>1006.0</ele><time>2026-04-26T12:45:55.952Z</time></trkpt><trkpt lat="41.7283424" lon="13.7507452"><ele>1006.0</ele><time>2026-04-26T12:45:56.952Z</time></trkpt><trkpt lat="41.7283174" lon="13.7504717"><ele>1006.0</ele><time>2026-04-26T12:45:57.956Z</time></trkpt><trkpt lat="41.7283036" lon="13.7502126"><ele>1006.0</ele><time>2026-04-26T12:45:58.953Z</time></trkpt><trkpt lat="41.7283168" lon="13.7499565"><ele>1004.6666666666666</ele><time>2026-04-26T12:45:59.948Z</time></trkpt><trkpt lat="41.7283591" lon="13.7497089"><ele>1003.3333333333333</ele><time>2026-04-26T12:46:00.95Z</time></trkpt><trkpt lat="41.7284311" lon="13.7494664"><ele>1002.0</ele><time>2026-04-26T12:46:01.957Z</time></trkpt><trkpt lat="41.7285262" lon="13.7492259"><ele>1008.0</ele><time>2026-04-26T12:46:02.947Z</time></trkpt><trkpt lat="41.7286318" lon="13.7489847"><ele>1014.0</ele><time>2026-04-26T12:46:03.947Z</time></trkpt><trkpt lat="41.7287441" lon="13.7487416"><ele>1020.0</ele><time>2026-04-26T12:46:04.951Z</time></trkpt><trkpt lat="41.7288694" lon="13.748504"><ele>1020.0</ele><time>2026-04-26T12:46:05.96Z</time></trkpt><trkpt lat="41.7290163" lon="13.7482878"><ele>1020.0</ele><time>2026-04-26T12:46:06.955Z</time></trkpt><trkpt lat="41.7291875" lon="13.7480963"><ele>1020.0</ele><time>2026-04-26T12:46:07.947Z</time></trkpt><trkpt lat="41.7293854" lon="13.7479255"><ele>1020.5</ele><time>2026-04-26T12:46:08.955Z</time></trkpt><trkpt lat="41.7296092" lon="13.747768"><ele>1021.0</ele><time>2026-04-26T12:46:09.944Z</time></trkpt><trkpt lat="41.7298544" lon="13.7476372"><ele>1021.0</ele><time>2026-04-26T12:46:10.959Z</time></trkpt><trkpt lat="41.7301252" lon="13.7475412"><ele>1021.0</ele><time>2026-04-26T12:46:11.957Z</time></trkpt><trkpt lat="41.730404" lon="13.7474766"><ele>1025.0</ele><time>2026-04-26T12:46:12.948Z</time></trkpt><trkpt lat="41.7306771" lon="13.747422"><ele>1029.0</ele><time>2026-04-26T12:46:13.955Z</time></trkpt><trkpt lat="41.7309452" lon="13.747361"><ele>1038.0</ele><time>2026-04-26T12:46:14.953Z</time></trkpt><trkpt lat="41.7311936" lon="13.7472853"><ele>1047.0</ele><time>2026-04-26T12:46:15.954Z</time></trkpt><trkpt lat="41.7314305" lon="13.7471702"><ele>1047.0</ele><time>2026-04-26T12:46:16.955Z</time></trkpt><trkpt lat="41.7316572" lon="13.747021"><ele>1047.0</ele><time>2026-04-26T12:46:17.959Z</time></trkpt><trkpt lat="41.7318864" lon="13.7468579"><ele>1040.5</ele><time>2026-04-26T12:46:18.949Z</time></trkpt><trkpt lat="41.7321129" lon="13.7466857"><ele>1034.0</ele><time>2026-04-26T12:46:19.95Z</time></trkpt><trkpt lat="41.7323395" lon="13.7465197"><ele>1034.0</ele><time>2026-04-26T12:46:20.955Z</time></trkpt><trkpt lat="41.7325642" lon="13.7463624"><ele>1034.0</ele><time>2026-04-26T12:46:21.962Z</time></trkpt><trkpt lat="41.7327984" lon="13.7462322"><ele>1044.5</ele><time>2026-04-26T12:46:22.951Z</time></trkpt><trkpt lat="41.7330428" lon="13.7461409"><ele>1055.0</ele><time>2026-04-26T12:46:23.954Z</time></trkpt><trkpt lat="41.7332953" lon="13.7460842"><ele>1057.0</ele><time>2026-04-26T12:46:24.96Z</time></trkpt><trkpt lat="41.7335589" lon="13.7460619"><ele>1059.0</ele><time>2026-04-26T12:46:25.951Z</time></trkpt><trkpt lat="41.733837" lon="13.7460696"><ele>1059.0</ele><time>2026-04-26T12:46:26.948Z</time></trkpt><trkpt lat="41.734129" lon="13.7460924"><ele>1059.0</ele><time>2026-04-26T12:46:27.954Z</time></trkpt><trkpt lat="41.7344154" lon="13.7461181"><ele>1058.0</ele><time>2026-04-26T12:46:28.943Z</time></trkpt><trkpt lat="41.7346861" lon="13.7461461"><ele>1057.0</ele><time>2026-04-26T12:46:29.952Z</time></trkpt><trkpt lat="41.7349328" lon="13.7461712"><ele>1057.0</ele><time>2026-04-26T12:46:30.947Z</time></trkpt><trkpt lat="41.7351633" lon="13.7461895"><ele>1057.0</ele><time>2026-04-26T12:46:31.947Z</time></trkpt><trkpt lat="41.7353768" lon="13.7461967"><ele>1057.0</ele><time>2026-04-26T12:46:32.947Z</time></trkpt><trkpt lat="41.735579" lon="13.7461866"><ele>1056.6666666666665</ele><time>2026-04-26T12:46:33.959Z</time></trkpt><trkpt lat="41.7357632" lon="13.7461493"><ele>1056.3333333333333</ele><time>2026-04-26T12:46:34.948Z</time></trkpt><trkpt lat="41.7359305" lon="13.7460733"><ele>1056.0</ele><time>2026-04-26T12:46:35.962Z</time></trkpt><trkpt lat="41.7360756" lon="13.7459619"><ele>1049.0</ele><time>2026-04-26T12:46:36.95Z</time></trkpt><trkpt lat="41.736198" lon="13.7458164"><ele>1042.0</ele><time>2026-04-26T12:46:37.949Z</time></trkpt><trkpt lat="41.736297" lon="13.7456459"><ele>1035.0</ele><time>2026-04-26T12:46:38.953Z</time></trkpt><trkpt lat="41.7363908" lon="13.7454664"><ele>1035.0</ele><time>2026-04-26T12:46:39.949Z</time></trkpt><trkpt lat="41.7364444" lon="13.7452668"><ele>1035.0</ele><time>2026-04-26T12:46:40.949Z</time></trkpt><trkpt lat="41.7364863" lon="13.7450604"><ele>1035.0</ele><time>2026-04-26T12:46:41.949Z</time></trkpt><trkpt lat="41.7365154" lon="13.7448482"><ele>1034.6666666666667</ele><time>2026-04-26T12:46:42.959Z</time></trkpt><trkpt lat="41.7365392" lon="13.7446318"><ele>1034.3333333333335</ele><time>2026-04-26T12:46:43.941Z</time></trkpt><trkpt lat="41.7365683" lon="13.744402"><ele>1034.0</ele><time>2026-04-26T12:46:44.952Z</time></trkpt><trkpt lat="41.7366007" lon="13.7441699"><ele>1033.6666666666667</ele><time>2026-04-26T12:46:45.954Z</time></trkpt><trkpt lat="41.7366365" lon="13.7439504"><ele>1033.3333333333333</ele><time>2026-04-26T12:46:46.947Z</time></trkpt><trkpt lat="41.7367002" lon="13.7437178"><ele>1033.0</ele><time>2026-04-26T12:46:47.946Z</time></trkpt><trkpt lat="41.7367673" lon="13.743471"><ele>1033.0</ele><time>2026-04-26T12:46:48.952Z</time></trkpt><trkpt lat="41.7368569" lon="13.7432378"><ele>1033.0</ele><time>2026-04-26T12:46:49.951Z</time></trkpt><trkpt lat="41.7369522" lon="13.7430193"><ele>1033.0</ele><time>2026-04-26T12:46:50.947Z</time></trkpt><trkpt lat="41.7370581" lon="13.7428152"><ele>1038.0</ele><time>2026-04-26T12:46:51.944Z</time></trkpt><trkpt lat="41.7371694" lon="13.7426246"><ele>1043.0</ele><time>2026-04-26T12:46:52.948Z</time></trkpt><trkpt lat="41.7372868" lon="13.7424446"><ele>1048.0</ele><time>2026-04-26T12:46:53.946Z</time></trkpt><trkpt lat="41.7374076" lon="13.7422698"><ele>1048.0</ele><time>2026-04-26T12:46:54.941Z</time></trkpt><trkpt lat="41.7375368" lon="13.7421163"><ele>1048.0</ele><time>2026-04-26T12:46:55.947Z</time></trkpt><trkpt lat="41.7376775" lon="13.7419742"><ele>1048.0</ele><time>2026-04-26T12:46:56.951Z</time></trkpt><trkpt lat="41.7378307" lon="13.7418273"><ele>1048.0</ele><time>2026-04-26T12:46:57.944Z</time></trkpt><trkpt lat="41.7379887" lon="13.7416946"><ele>1048.0</ele><time>2026-04-26T12:46:58.947Z</time></trkpt><trkpt lat="41.7381468" lon="13.7415721"><ele>1048.0</ele><time>2026-04-26T12:46:59.955Z</time></trkpt><trkpt lat="41.7383163" lon="13.741471"><ele>1048.0</ele><time>2026-04-26T12:47:00.943Z</time></trkpt><trkpt lat="41.7384804" lon="13.7413721"><ele>1048.0</ele><time>2026-04-26T12:47:01.942Z</time></trkpt><trkpt lat="41.738633" lon="13.7412772"><ele>1048.0</ele><time>2026-04-26T12:47:02.954Z</time></trkpt><trkpt lat="41.7387759" lon="13.7411861"><ele>1047.5</ele><time>2026-04-26T12:47:03.959Z</time></trkpt><trkpt lat="41.7389065" lon="13.741094"><ele>1047.0</ele><time>2026-04-26T12:47:04.947Z</time></trkpt><trkpt lat="41.7390294" lon="13.7410033"><ele>1046.5</ele><time>2026-04-26T12:47:05.946Z</time></trkpt><trkpt lat="41.7391554" lon="13.7409045"><ele>1046.0</ele><time>2026-04-26T12:47:06.942Z</time></trkpt><trkpt lat="41.7392949" lon="13.7407929"><ele>1045.6666666666667</ele><time>2026-04-26T12:47:07.948Z</time></trkpt><trkpt lat="41.739455" lon="13.7406362"><ele>1045.3333333333333</ele><time>2026-04-26T12:47:08.952Z</time></trkpt><trkpt lat="41.7396193" lon="13.7404291"><ele>1045.0</ele><time>2026-04-26T12:47:09.951Z</time></trkpt><trkpt lat="41.7397681" lon="13.7401373"><ele>1045.0</ele><time>2026-04-26T12:47:10.958Z</time></trkpt><trkpt lat="41.7399212" lon="13.7398318"><ele>1045.0</ele><time>2026-04-26T12:47:11.953Z</time></trkpt><trkpt lat="41.7400659" lon="13.739487"><ele>1038.5</ele><time>2026-04-26T12:47:12.943Z</time></trkpt><trkpt lat="41.7401967" lon="13.7391424"><ele>1032.0</ele><time>2026-04-26T12:47:13.957Z</time></trkpt><trkpt lat="41.7403289" lon="13.738817"><ele>1041.0</ele><time>2026-04-26T12:47:14.951Z</time></trkpt><trkpt lat="41.7404501" lon="13.7385061"><ele>1050.0</ele><time>2026-04-26T12:47:15.944Z</time></trkpt><trkpt lat="41.7405579" lon="13.738209"><ele>1050.0</ele><time>2026-04-26T12:47:16.959Z</time></trkpt><trkpt lat="41.7406421" lon="13.7379159"><ele>1050.0</ele><time>2026-04-26T12:47:17.953Z</time></trkpt><trkpt lat="41.7407009" lon="13.7376204"><ele>1043.6666666666667</ele><time>2026-04-26T12:47:18.96Z</time></trkpt><trkpt lat="41.7407375" lon="13.7373299"><ele>1037.3333333333335</ele><time>2026-04-26T12:47:19.949Z</time></trkpt><trkpt lat="41.7407682" lon="13.7370531"><ele>1031.0</ele><time>2026-04-26T12:47:20.953Z</time></trkpt><trkpt lat="41.7408204" lon="13.7367961"><ele>1033.0</ele><time>2026-04-26T12:47:21.947Z</time></trkpt><trkpt lat="41.7408991" lon="13.7365614"><ele>1035.0</ele><time>2026-04-26T12:47:22.947Z</time></trkpt><trkpt lat="41.7410086" lon="13.7363592"><ele>1037.0</ele><time>2026-04-26T12:47:23.942Z</time></trkpt><trkpt lat="41.7411452" lon="13.7361932"><ele>1037.0</ele><time>2026-04-26T12:47:24.946Z</time></trkpt><trkpt lat="41.741304" lon="13.7360689"><ele>1037.0</ele><time>2026-04-26T12:47:25.946Z</time></trkpt><trkpt lat="41.7414781" lon="13.7359897"><ele>1037.0</ele><time>2026-04-26T12:47:26.946Z</time></trkpt><trkpt lat="41.7416671" lon="13.7359463"><ele>1029.6666666666667</ele><time>2026-04-26T12:47:27.949Z</time></trkpt><trkpt lat="41.7418651" lon="13.7359157"><ele>1022.3333333333333</ele><time>2026-04-26T12:47:28.946Z</time></trkpt><trkpt lat="41.7420695" lon="13.7358769"><ele>1015.0</ele><time>2026-04-26T12:47:29.95Z</time></trkpt><trkpt lat="41.7422716" lon="13.7358338"><ele>1015.0</ele><time>2026-04-26T12:47:30.944Z</time></trkpt><trkpt lat="41.7424747" lon="13.7357599"><ele>1015.0</ele><time>2026-04-26T12:47:31.954Z</time></trkpt><trkpt lat="41.7426776" lon="13.7356572"><ele>1015.0</ele><time>2026-04-26T12:47:32.942Z</time></trkpt><trkpt lat="41.742872" lon="13.735536"><ele>1020.6666666666666</ele><time>2026-04-26T12:47:33.941Z</time></trkpt><trkpt lat="41.7430627" lon="13.7353837"><ele>1026.3333333333333</ele><time>2026-04-26T12:47:34.948Z</time></trkpt><trkpt lat="41.7432368" lon="13.7352058"><ele>1032.0</ele><time>2026-04-26T12:47:35.945Z</time></trkpt><trkpt lat="41.7433895" lon="13.7350067"><ele>1028.0</ele><time>2026-04-26T12:47:36.948Z</time></trkpt><trkpt lat="41.7435225" lon="13.7347955"><ele>1024.0</ele><time>2026-04-26T12:47:37.952Z</time></trkpt><trkpt lat="41.7436459" lon="13.7345834"><ele>1020.0</ele><time>2026-04-26T12:47:38.94Z</time></trkpt><trkpt lat="41.7437768" lon="13.7343862"><ele>1010.3333333333333</ele><time>2026-04-26T12:47:39.948Z</time></trkpt><trkpt lat="41.7439253" lon="13.7342167"><ele>1000.6666666666666</ele><time>2026-04-26T12:47:40.944Z</time></trkpt><trkpt lat="41.7440908" lon="13.7340824"><ele>991.0</ele><time>2026-04-26T12:47:41.938Z</time></trkpt><trkpt lat="41.7442677" lon="13.7339795"><ele>993.0</ele><time>2026-04-26T12:47:42.943Z</time></trkpt><trkpt lat="41.7444554" lon="13.7339077"><ele>995.0</ele><time>2026-04-26T12:47:43.939Z</time></trkpt><trkpt lat="41.7446529" lon="13.7338666"><ele>997.0</ele><time>2026-04-26T12:47:44.949Z</time></trkpt><trkpt lat="41.7448512" lon="13.7338375"><ele>997.0</ele><time>2026-04-26T12:47:45.946Z</time></trkpt><trkpt lat="41.7450616" lon="13.7338261"><ele>997.0</ele><time>2026-04-26T12:47:46.941Z</time></trkpt><trkpt lat="41.7452708" lon="13.7337932"><ele>997.0</ele><time>2026-04-26T12:47:47.939Z</time></trkpt><trkpt lat="41.7454821" lon="13.7337328"><ele>998.0</ele><time>2026-04-26T12:47:48.943Z</time></trkpt><trkpt lat="41.7456962" lon="13.7336519"><ele>999.0</ele><time>2026-04-26T12:47:49.948Z</time></trkpt><trkpt lat="41.7459084" lon="13.7335591"><ele>1000.0</ele><time>2026-04-26T12:47:50.939Z</time></trkpt><trkpt lat="41.7461248" lon="13.7334488"><ele>989.5</ele><time>2026-04-26T12:47:51.944Z</time></trkpt><trkpt lat="41.746341" lon="13.7333297"><ele>979.0</ele><time>2026-04-26T12:47:52.948Z</time></trkpt><trkpt lat="41.746563" lon="13.7332123"><ele>979.0</ele><time>2026-04-26T12:47:53.951Z</time></trkpt><trkpt lat="41.7467848" lon="13.7330905"><ele>979.0</ele><time>2026-04-26T12:47:54.941Z</time></trkpt><trkpt lat="41.747006" lon="13.7329767"><ele>984.5</ele><time>2026-04-26T12:47:55.944Z</time></trkpt><trkpt lat="41.7472203" lon="13.7328731"><ele>990.0</ele><time>2026-04-26T12:47:56.943Z</time></trkpt><trkpt lat="41.7474324" lon="13.7327457"><ele>984.0</ele><time>2026-04-26T12:47:57.947Z</time></trkpt><trkpt lat="41.7476338" lon="13.7326093"><ele>978.0</ele><time>2026-04-26T12:47:58.948Z</time></trkpt><trkpt lat="41.7478264" lon="13.7324596"><ele>972.0</ele><time>2026-04-26T12:47:59.948Z</time></trkpt><trkpt lat="41.74802" lon="13.7322974"><ele>972.0</ele><time>2026-04-26T12:48:00.946Z</time></trkpt><trkpt lat="41.7482138" lon="13.7321282"><ele>972.0</ele><time>2026-04-26T12:48:01.95Z</time></trkpt><trkpt lat="41.7483955" lon="13.7319485"><ele>970.3333333333333</ele><time>2026-04-26T12:48:02.944Z</time></trkpt><trkpt lat="41.7485673" lon="13.7317772"><ele>968.6666666666666</ele><time>2026-04-26T12:48:03.963Z</time></trkpt><trkpt lat="41.7487248" lon="13.7316143"><ele>967.0</ele><time>2026-04-26T12:48:04.947Z</time></trkpt><trkpt lat="41.7488826" lon="13.7314513"><ele>967.0</ele><time>2026-04-26T12:48:05.937Z</time></trkpt><trkpt lat="41.7490463" lon="13.7312959"><ele>967.0</ele><time>2026-04-26T12:48:06.954Z</time></trkpt><trkpt lat="41.749223" lon="13.7311456"><ele>967.0</ele><time>2026-04-26T12:48:07.949Z</time></trkpt><trkpt lat="41.7494181" lon="13.7310011"><ele>958.5</ele><time>2026-04-26T12:48:08.944Z</time></trkpt><trkpt lat="41.7496256" lon="13.7308522"><ele>950.0</ele><time>2026-04-26T12:48:09.945Z</time></trkpt><trkpt lat="41.7498455" lon="13.7306961"><ele>950.0</ele><time>2026-04-26T12:48:10.95Z</time></trkpt><trkpt lat="41.7500695" lon="13.7305368"><ele>950.0</ele><time>2026-04-26T12:48:11.951Z</time></trkpt><trkpt lat="41.7502948" lon="13.7303778"><ele>941.0</ele><time>2026-04-26T12:48:12.941Z</time></trkpt><trkpt lat="41.7505203" lon="13.7302201"><ele>932.0</ele><time>2026-04-26T12:48:13.951Z</time></trkpt><trkpt lat="41.7507433" lon="13.7300613"><ele>932.0</ele><time>2026-04-26T12:48:14.952Z</time></trkpt><trkpt lat="41.7509612" lon="13.7299026"><ele>932.0</ele><time>2026-04-26T12:48:15.943Z</time></trkpt><trkpt lat="41.7511734" lon="13.7297486"><ele>943.5</ele><time>2026-04-26T12:48:16.947Z</time></trkpt><trkpt lat="41.7513779" lon="13.7295965"><ele>955.0</ele><time>2026-04-26T12:48:17.955Z</time></trkpt><trkpt lat="41.751575" lon="13.7294466"><ele>948.0</ele><time>2026-04-26T12:48:18.937Z</time></trkpt><trkpt lat="41.7517669" lon="13.7293015"><ele>941.0</ele><time>2026-04-26T12:48:19.956Z</time></trkpt><trkpt lat="41.7519518" lon="13.7291589"><ele>934.0</ele><time>2026-04-26T12:48:20.956Z</time></trkpt><trkpt lat="41.7521342" lon="13.7290284"><ele>934.0</ele><time>2026-04-26T12:48:21.946Z</time></trkpt><trkpt lat="41.7522899" lon="13.7288542"><ele>934.0</ele><time>2026-04-26T12:48:22.95Z</time></trkpt><trkpt lat="41.7524234" lon="13.7286463"><ele>934.0</ele><time>2026-04-26T12:48:23.945Z</time></trkpt><trkpt lat="41.7525408" lon="13.7284197"><ele>929.3333333333333</ele><time>2026-04-26T12:48:24.951Z</time></trkpt><trkpt lat="41.7526299" lon="13.7281717"><ele>924.6666666666667</ele><time>2026-04-26T12:48:25.951Z</time></trkpt><trkpt lat="41.7526958" lon="13.7279133"><ele>920.0</ele><time>2026-04-26T12:48:26.95Z</time></trkpt><trkpt lat="41.7527375" lon="13.7276482"><ele>917.6666666666667</ele><time>2026-04-26T12:48:27.944Z</time></trkpt><trkpt lat="41.7527602" lon="13.7273792"><ele>915.3333333333333</ele><time>2026-04-26T12:48:28.952Z</time></trkpt><trkpt lat="41.752756" lon="13.7271092"><ele>913.0</ele><time>2026-04-26T12:48:29.95Z</time></trkpt><trkpt lat="41.7527291" lon="13.7268462"><ele>909.3333333333333</ele><time>2026-04-26T12:48:30.952Z</time></trkpt><trkpt lat="41.7526808" lon="13.72659"><ele>905.6666666666667</ele><time>2026-04-26T12:48:31.946Z</time></trkpt><trkpt lat="41.7526088" lon="13.7263407"><ele>902.0</ele><time>2026-04-26T12:48:32.946Z</time></trkpt><trkpt lat="41.7525119" lon="13.7261044"><ele>903.0</ele><time>2026-04-26T12:48:33.941Z</time></trkpt><trkpt lat="41.7523915" lon="13.7258808"><ele>904.0</ele><time>2026-04-26T12:48:34.946Z</time></trkpt><trkpt lat="41.7522484" lon="13.7256773"><ele>905.0</ele><time>2026-04-26T12:48:35.946Z</time></trkpt><trkpt lat="41.7520852" lon="13.7254984"><ele>905.0</ele><time>2026-04-26T12:48:36.944Z</time></trkpt><trkpt lat="41.7519077" lon="13.7253377"><ele>905.0</ele><time>2026-04-26T12:48:37.99Z</time></trkpt><trkpt lat="41.7517245" lon="13.7251828"><ele>905.0</ele><time>2026-04-26T12:48:38.946Z</time></trkpt><trkpt lat="41.7515384" lon="13.7250289"><ele>905.0</ele><time>2026-04-26T12:48:39.945Z</time></trkpt><trkpt lat="41.7513555" lon="13.7248752"><ele>905.0</ele><time>2026-04-26T12:48:40.942Z</time></trkpt><trkpt lat="41.7511783" lon="13.7247214"><ele>905.0</ele><time>2026-04-26T12:48:41.95Z</time></trkpt><trkpt lat="41.7510256" lon="13.7245404"><ele>902.6666666666667</ele><time>2026-04-26T12:48:42.951Z</time></trkpt><trkpt lat="41.7508859" lon="13.7243376"><ele>900.3333333333333</ele><time>2026-04-26T12:48:43.958Z</time></trkpt><trkpt lat="41.7507556" lon="13.7241134"><ele>898.0</ele><time>2026-04-26T12:48:44.95Z</time></trkpt><trkpt lat="41.7506356" lon="13.7238635"><ele>898.0</ele><time>2026-04-26T12:48:45.956Z</time></trkpt><trkpt lat="41.7505176" lon="13.7235928"><ele>898.0</ele><time>2026-04-26T12:48:46.951Z</time></trkpt><trkpt lat="41.75039" lon="13.7233175"><ele>903.0</ele><time>2026-04-26T12:48:47.956Z</time></trkpt><trkpt lat="41.7502496" lon="13.7230392"><ele>908.0</ele><time>2026-04-26T12:48:48.948Z</time></trkpt><trkpt lat="41.7500951" lon="13.7227607"><ele>897.5</ele><time>2026-04-26T12:48:49.952Z</time></trkpt><trkpt lat="41.749926" lon="13.7224846"><ele>887.0</ele><time>2026-04-26T12:48:50.946Z</time></trkpt><trkpt lat="41.749751" lon="13.7222097"><ele>887.0</ele><time>2026-04-26T12:48:51.949Z</time></trkpt><trkpt lat="41.7495743" lon="13.7219387"><ele>887.0</ele><time>2026-04-26T12:48:52.948Z</time></trkpt><trkpt lat="41.7493943" lon="13.7216703"><ele>883.5</ele><time>2026-04-26T12:48:53.948Z</time></trkpt><trkpt lat="41.7492144" lon="13.7214038"><ele>880.0</ele><time>2026-04-26T12:48:54.949Z</time></trkpt><trkpt lat="41.7490379" lon="13.7211386"><ele>886.0</ele><time>2026-04-26T12:48:55.961Z</time></trkpt><trkpt lat="41.7488647" lon="13.7208742"><ele>892.0</ele><time>2026-04-26T12:48:56.948Z</time></trkpt><trkpt lat="41.7486967" lon="13.7206131"><ele>887.0</ele><time>2026-04-26T12:48:57.951Z</time></trkpt><trkpt lat="41.7485308" lon="13.7203577"><ele>882.0</ele><time>2026-04-26T12:48:58.947Z</time></trkpt><trkpt lat="41.7483565" lon="13.720115"><ele>882.0</ele><time>2026-04-26T12:48:59.963Z</time></trkpt><trkpt lat="41.7481691" lon="13.7198931"><ele>882.0</ele><time>2026-04-26T12:49:00.948Z</time></trkpt><trkpt lat="41.7479669" lon="13.7196943"><ele>882.0</ele><time>2026-04-26T12:49:01.944Z</time></trkpt><trkpt lat="41.7477468" lon="13.7195203"><ele>882.0</ele><time>2026-04-26T12:49:02.954Z</time></trkpt><trkpt lat="41.7475093" lon="13.7193729"><ele>878.0</ele><time>2026-04-26T12:49:03.956Z</time></trkpt><trkpt lat="41.7472584" lon="13.7192548"><ele>874.0</ele><time>2026-04-26T12:49:04.947Z</time></trkpt><trkpt lat="41.7469969" lon="13.7191593"><ele>875.5</ele><time>2026-04-26T12:49:05.947Z</time></trkpt><trkpt lat="41.7467299" lon="13.7190765"><ele>877.0</ele><time>2026-04-26T12:49:06.956Z</time></trkpt><trkpt lat="41.7464657" lon="13.7189954"><ele>877.0</ele><time>2026-04-26T12:49:07.944Z</time></trkpt><trkpt lat="41.7462092" lon="13.7189128"><ele>877.0</ele><time>2026-04-26T12:49:08.958Z</time></trkpt><trkpt lat="41.7459631" lon="13.7188181"><ele>877.0</ele><time>2026-04-26T12:49:09.951Z</time></trkpt><trkpt lat="41.7457272" lon="13.7186988"><ele>877.0</ele><time>2026-04-26T12:49:10.951Z</time></trkpt><trkpt lat="41.7455031" lon="13.7185518"><ele>878.5</ele><time>2026-04-26T12:49:11.96Z</time></trkpt><trkpt lat="41.7452875" lon="13.718371"><ele>880.0</ele><time>2026-04-26T12:49:12.947Z</time></trkpt><trkpt lat="41.7450837" lon="13.7181577"><ele>880.0</ele><time>2026-04-26T12:49:13.949Z</time></trkpt><trkpt lat="41.7448971" lon="13.7179358"><ele>880.0</ele><time>2026-04-26T12:49:14.951Z</time></trkpt><trkpt lat="41.7447136" lon="13.7177365"><ele>879.3333333333333</ele><time>2026-04-26T12:49:15.95Z</time></trkpt><trkpt lat="41.7445241" lon="13.7175782"><ele>878.6666666666667</ele><time>2026-04-26T12:49:16.956Z</time></trkpt><trkpt lat="41.7443316" lon="13.7174663"><ele>878.0</ele><time>2026-04-26T12:49:17.955Z</time></trkpt><trkpt lat="41.7441422" lon="13.7174086"><ele>876.6666666666667</ele><time>2026-04-26T12:49:18.943Z</time></trkpt><trkpt lat="41.743959" lon="13.7174076"><ele>875.3333333333333</ele><time>2026-04-26T12:49:19.954Z</time></trkpt><trkpt lat="41.7437742" lon="13.7174552"><ele>874.0</ele><time>2026-04-26T12:49:20.945Z</time></trkpt><trkpt lat="41.7435837" lon="13.7175296"><ele>872.0</ele><time>2026-04-26T12:49:21.946Z</time></trkpt><trkpt lat="41.7433925" lon="13.7176179"><ele>870.0</ele><time>2026-04-26T12:49:22.943Z</time></trkpt><trkpt lat="41.7432016" lon="13.7177083"><ele>868.0</ele><time>2026-04-26T12:49:23.959Z</time></trkpt><trkpt lat="41.7430118" lon="13.7177863"><ele>870.3333333333333</ele><time>2026-04-26T12:49:24.947Z</time></trkpt><trkpt lat="41.7428222" lon="13.7178383"><ele>872.6666666666667</ele><time>2026-04-26T12:49:25.948Z</time></trkpt><trkpt lat="41.7426348" lon="13.7178554"><ele>875.0</ele><time>2026-04-26T12:49:26.946Z</time></trkpt><trkpt lat="41.7424486" lon="13.7178347"><ele>875.0</ele><time>2026-04-26T12:49:27.949Z</time></trkpt><trkpt lat="41.7422668" lon="13.7177751"><ele>875.0</ele><time>2026-04-26T12:49:28.945Z</time></trkpt><trkpt lat="41.7420965" lon="13.7176724"><ele>875.0</ele><time>2026-04-26T12:49:29.947Z</time></trkpt><trkpt lat="41.7419442" lon="13.71753"><ele>873.0</ele><time>2026-04-26T12:49:30.949Z</time></trkpt><trkpt lat="41.7418131" lon="13.7173519"><ele>871.0</ele><time>2026-04-26T12:49:31.948Z</time></trkpt><trkpt lat="41.7417058" lon="13.7171438"><ele>869.0</ele><time>2026-04-26T12:49:32.948Z</time></trkpt><trkpt lat="41.7416234" lon="13.7169133"><ele>864.0</ele><time>2026-04-26T12:49:33.951Z</time></trkpt><trkpt lat="41.741565" lon="13.7166685"><ele>859.0</ele><time>2026-04-26T12:49:34.944Z</time></trkpt><trkpt lat="41.7415316" lon="13.7164145"><ele>854.0</ele><time>2026-04-26T12:49:35.955Z</time></trkpt><trkpt lat="41.7415249" lon="13.7161554"><ele>851.6666666666667</ele><time>2026-04-26T12:49:36.945Z</time></trkpt><trkpt lat="41.7415413" lon="13.7158956"><ele>849.3333333333333</ele><time>2026-04-26T12:49:37.951Z</time></trkpt><trkpt lat="41.741573" lon="13.7156341"><ele>847.0</ele><time>2026-04-26T12:49:38.949Z</time></trkpt><trkpt lat="41.74161" lon="13.715369"><ele>846.6666666666666</ele><time>2026-04-26T12:49:39.953Z</time></trkpt><trkpt lat="41.7416473" lon="13.715099"><ele>846.3333333333333</ele><time>2026-04-26T12:49:40.952Z</time></trkpt><trkpt lat="41.7416835" lon="13.7148242"><ele>846.0</ele><time>2026-04-26T12:49:41.952Z</time></trkpt><trkpt lat="41.7417201" lon="13.7145543"><ele>845.6666666666667</ele><time>2026-04-26T12:49:42.939Z</time></trkpt><trkpt lat="41.7417562" lon="13.7142935"><ele>845.3333333333334</ele><time>2026-04-26T12:49:43.963Z</time></trkpt><trkpt lat="41.7417808" lon="13.7140421"><ele>845.0</ele><time>2026-04-26T12:49:44.954Z</time></trkpt><trkpt lat="41.7417819" lon="13.7137934"><ele>841.3333333333334</ele><time>2026-04-26T12:49:45.952Z</time></trkpt><trkpt lat="41.7417567" lon="13.7135456"><ele>837.6666666666667</ele><time>2026-04-26T12:49:46.95Z</time></trkpt><trkpt lat="41.7417051" lon="13.7133033"><ele>834.0</ele><time>2026-04-26T12:49:47.945Z</time></trkpt><trkpt lat="41.7416246" lon="13.7130732"><ele>834.0</ele><time>2026-04-26T12:49:48.951Z</time></trkpt><trkpt lat="41.7415163" lon="13.7128615"><ele>834.0</ele><time>2026-04-26T12:49:49.944Z</time></trkpt><trkpt lat="41.7413982" lon="13.7126659"><ele>834.0</ele><time>2026-04-26T12:49:50.951Z</time></trkpt><trkpt lat="41.7412478" lon="13.7125237"><ele>830.3333333333333</ele><time>2026-04-26T12:49:51.954Z</time></trkpt><trkpt lat="41.7410977" lon="13.7123964"><ele>826.6666666666666</ele><time>2026-04-26T12:49:52.952Z</time></trkpt><trkpt lat="41.7409671" lon="13.7122496"><ele>823.0</ele><time>2026-04-26T12:49:53.958Z</time></trkpt><trkpt lat="41.7408684" lon="13.7120726"><ele>821.6666666666666</ele><time>2026-04-26T12:49:54.946Z</time></trkpt><trkpt lat="41.7407979" lon="13.7118737"><ele>820.3333333333333</ele><time>2026-04-26T12:49:55.946Z</time></trkpt><trkpt lat="41.7407491" lon="13.7116575"><ele>819.0</ele><time>2026-04-26T12:49:56.948Z</time></trkpt><trkpt lat="41.7407255" lon="13.7114277"><ele>819.0</ele><time>2026-04-26T12:49:57.954Z</time></trkpt><trkpt lat="41.7407294" lon="13.7111831"><ele>819.0</ele><time>2026-04-26T12:49:58.946Z</time></trkpt><trkpt lat="41.7407561" lon="13.7109271"><ele>819.0</ele><time>2026-04-26T12:49:59.947Z</time></trkpt><trkpt lat="41.7408145" lon="13.7106507"><ele>820.5</ele><time>2026-04-26T12:50:00.936Z</time></trkpt><trkpt lat="41.7408932" lon="13.710371"><ele>822.0</ele><time>2026-04-26T12:50:01.966Z</time></trkpt><trkpt lat="41.7409881" lon="13.7100934"><ele>798.0</ele><time>2026-04-26T12:50:02.949Z</time></trkpt><trkpt lat="41.7410975" lon="13.709816"><ele>774.0</ele><time>2026-04-26T12:50:03.947Z</time></trkpt><trkpt lat="41.7412255" lon="13.7095449"><ele>782.0</ele><time>2026-04-26T12:50:04.952Z</time></trkpt><trkpt lat="41.7413687" lon="13.7092798"><ele>790.0</ele><time>2026-04-26T12:50:05.952Z</time></trkpt><trkpt lat="41.7415153" lon="13.7090248"><ele>790.0</ele><time>2026-04-26T12:50:06.951Z</time></trkpt><trkpt lat="41.7416576" lon="13.7087751"><ele>790.0</ele><time>2026-04-26T12:50:07.952Z</time></trkpt><trkpt lat="41.7417863" lon="13.7085157"><ele>776.5</ele><time>2026-04-26T12:50:08.955Z</time></trkpt><trkpt lat="41.7418981" lon="13.7082432"><ele>763.0</ele><time>2026-04-26T12:50:09.952Z</time></trkpt><trkpt lat="41.7419962" lon="13.7079594"><ele>768.5</ele><time>2026-04-26T12:50:10.951Z</time></trkpt><trkpt lat="41.742082" lon="13.7076657"><ele>774.0</ele><time>2026-04-26T12:50:11.952Z</time></trkpt><trkpt lat="41.7421675" lon="13.7073796"><ele>774.0</ele><time>2026-04-26T12:50:12.949Z</time></trkpt><trkpt lat="41.7422473" lon="13.7070771"><ele>774.0</ele><time>2026-04-26T12:50:13.949Z</time></trkpt><trkpt lat="41.7423252" lon="13.7067764"><ele>778.5</ele><time>2026-04-26T12:50:14.954Z</time></trkpt><trkpt lat="41.7424038" lon="13.706483"><ele>783.0</ele><time>2026-04-26T12:50:15.953Z</time></trkpt><trkpt lat="41.7424805" lon="13.7061925"><ele>789.0</ele><time>2026-04-26T12:50:16.945Z</time></trkpt><trkpt lat="41.7425609" lon="13.7059099"><ele>795.0</ele><time>2026-04-26T12:50:17.952Z</time></trkpt><trkpt lat="41.7426552" lon="13.7056414"><ele>801.0</ele><time>2026-04-26T12:50:18.954Z</time></trkpt><trkpt lat="41.7427678" lon="13.70539"><ele>790.3333333333333</ele><time>2026-04-26T12:50:19.941Z</time></trkpt><trkpt lat="41.7428969" lon="13.705157"><ele>779.6666666666666</ele><time>2026-04-26T12:50:20.952Z</time></trkpt><trkpt lat="41.7430433" lon="13.704947"><ele>769.0</ele><time>2026-04-26T12:50:21.952Z</time></trkpt><trkpt lat="41.7432107" lon="13.7047615"><ele>769.0</ele><time>2026-04-26T12:50:22.946Z</time></trkpt><trkpt lat="41.7433929" lon="13.7045974"><ele>769.0</ele><time>2026-04-26T12:50:23.951Z</time></trkpt><trkpt lat="41.7435829" lon="13.7044459"><ele>769.0</ele><time>2026-04-26T12:50:24.951Z</time></trkpt><trkpt lat="41.7437727" lon="13.7042923"><ele>765.0</ele><time>2026-04-26T12:50:25.948Z</time></trkpt><trkpt lat="41.7439593" lon="13.7041245"><ele>761.0</ele><time>2026-04-26T12:50:26.945Z</time></trkpt><trkpt lat="41.7441341" lon="13.7039347"><ele>761.0</ele><time>2026-04-26T12:50:27.957Z</time></trkpt><trkpt lat="41.7442944" lon="13.70372"><ele>761.0</ele><time>2026-04-26T12:50:28.947Z</time></trkpt><trkpt lat="41.7444417" lon="13.7034826"><ele>750.0</ele><time>2026-04-26T12:50:29.967Z</time></trkpt><trkpt lat="41.7445776" lon="13.7032285"><ele>739.0</ele><time>2026-04-26T12:50:30.96Z</time></trkpt><trkpt lat="41.7447039" lon="13.7029635"><ele>748.0</ele><time>2026-04-26T12:50:31.985Z</time></trkpt><trkpt lat="41.7448272" lon="13.7026933"><ele>757.0</ele><time>2026-04-26T12:50:32.952Z</time></trkpt><trkpt lat="41.7449493" lon="13.7024213"><ele>757.0</ele><time>2026-04-26T12:50:33.965Z</time></trkpt><trkpt lat="41.7450728" lon="13.702151"><ele>757.0</ele><time>2026-04-26T12:50:34.962Z</time></trkpt><trkpt lat="41.7451948" lon="13.7018841"><ele>739.5</ele><time>2026-04-26T12:50:35.963Z</time></trkpt><trkpt lat="41.7453106" lon="13.7016176"><ele>722.0</ele><time>2026-04-26T12:50:36.962Z</time></trkpt><trkpt lat="41.7454162" lon="13.70135"><ele>725.3333333333333</ele><time>2026-04-26T12:50:37.966Z</time></trkpt><trkpt lat="41.7455067" lon="13.70108"><ele>728.6666666666666</ele><time>2026-04-26T12:50:38.947Z</time></trkpt><trkpt lat="41.7455754" lon="13.7008065"><ele>732.0</ele><time>2026-04-26T12:50:39.972Z</time></trkpt><trkpt lat="41.7456142" lon="13.7005331"><ele>732.0</ele><time>2026-04-26T12:50:40.952Z</time></trkpt><trkpt lat="41.7456238" lon="13.7002643"><ele>732.0</ele><time>2026-04-26T12:50:41.957Z</time></trkpt><trkpt lat="41.7456081" lon="13.7000044"><ele>732.0</ele><time>2026-04-26T12:50:42.953Z</time></trkpt><trkpt lat="41.7455678" lon="13.6997598"><ele>731.0</ele><time>2026-04-26T12:50:43.954Z</time></trkpt><trkpt lat="41.74551" lon="13.6995389"><ele>730.0</ele><time>2026-04-26T12:50:44.952Z</time></trkpt><trkpt lat="41.7454429" lon="13.6993468"><ele>729.0</ele><time>2026-04-26T12:50:45.959Z</time></trkpt><trkpt lat="41.7453678" lon="13.6991775"><ele>725.5</ele><time>2026-04-26T12:50:46.959Z</time></trkpt><trkpt lat="41.7452834" lon="13.6990258"><ele>722.0</ele><time>2026-04-26T12:50:47.952Z</time></trkpt><trkpt lat="41.7451894" lon="13.6988863"><ele>718.5</ele><time>2026-04-26T12:50:48.951Z</time></trkpt><trkpt lat="41.7450859" lon="13.698759"><ele>715.0</ele><time>2026-04-26T12:50:49.952Z</time></trkpt><trkpt lat="41.7449734" lon="13.6986363"><ele>715.6666666666667</ele><time>2026-04-26T12:50:50.954Z</time></trkpt><trkpt lat="41.7448204" lon="13.6985193"><ele>716.3333333333334</ele><time>2026-04-26T12:50:51.955Z</time></trkpt><trkpt lat="41.744648" lon="13.6983809"><ele>717.0</ele><time>2026-04-26T12:50:52.95Z</time></trkpt><trkpt lat="41.7444576" lon="13.6982374"><ele>729.0</ele><time>2026-04-26T12:50:53.965Z</time></trkpt><trkpt lat="41.7442539" lon="13.6980711"><ele>741.0</ele><time>2026-04-26T12:50:54.948Z</time></trkpt><trkpt lat="41.7440402" lon="13.6978917"><ele>726.5</ele><time>2026-04-26T12:50:55.961Z</time></trkpt><trkpt lat="41.7438206" lon="13.6977132"><ele>712.0</ele><time>2026-04-26T12:50:56.944Z</time></trkpt><trkpt lat="41.743592" lon="13.6975507"><ele>717.5</ele><time>2026-04-26T12:50:57.953Z</time></trkpt><trkpt lat="41.7433574" lon="13.6974098"><ele>723.0</ele><time>2026-04-26T12:50:58.957Z</time></trkpt><trkpt lat="41.7431254" lon="13.6972972"><ele>723.0</ele><time>2026-04-26T12:50:59.975Z</time></trkpt><trkpt lat="41.7428984" lon="13.6972072"><ele>723.0</ele><time>2026-04-26T12:51:00.957Z</time></trkpt><trkpt lat="41.7426825" lon="13.6971327"><ele>720.0</ele><time>2026-04-26T12:51:01.951Z</time></trkpt><trkpt lat="41.7424778" lon="13.6970594"><ele>717.0</ele><time>2026-04-26T12:51:02.944Z</time></trkpt><trkpt lat="41.742287" lon="13.6969937"><ele>714.0</ele><time>2026-04-26T12:51:03.953Z</time></trkpt><trkpt lat="41.7421144" lon="13.6969329"><ele>711.0</ele><time>2026-04-26T12:51:04.95Z</time></trkpt><trkpt lat="41.7419619" lon="13.6968754"><ele>708.0</ele><time>2026-04-26T12:51:05.951Z</time></trkpt><trkpt lat="41.7418305" lon="13.696819"><ele>705.0</ele><time>2026-04-26T12:51:06.953Z</time></trkpt><trkpt lat="41.7417212" lon="13.6967626"><ele>702.0</ele><time>2026-04-26T12:51:07.945Z</time></trkpt><trkpt lat="41.7416356" lon="13.6967034"><ele>702.0</ele><time>2026-04-26T12:51:08.948Z</time></trkpt><trkpt lat="41.7415699" lon="13.6966418"><ele>702.0</ele><time>2026-04-26T12:51:09.959Z</time></trkpt><trkpt lat="41.7415148" lon="13.6965927"><ele>702.0</ele><time>2026-04-26T12:51:10.941Z</time></trkpt><trkpt lat="41.7414371" lon="13.6965231"><ele>702.0</ele><time>2026-04-26T12:51:12.954Z</time></trkpt><trkpt lat="41.7413767" lon="13.6964761"><ele>702.0</ele><time>2026-04-26T12:51:14.951Z</time></trkpt><trkpt lat="41.7413145" lon="13.6964387"><ele>702.0</ele><time>2026-04-26T12:51:16.957Z</time></trkpt><trkpt lat="41.7412188" lon="13.696414"><ele>702.0</ele><time>2026-04-26T12:52:23.948Z</time></trkpt><trkpt lat="41.7411741" lon="13.6964984"><ele>702.0</ele><time>2026-04-26T12:52:25.948Z</time></trkpt><trkpt lat="41.741119" lon="13.6965667"><ele>702.0</ele><time>2026-04-26T12:52:27.943Z</time></trkpt><trkpt lat="41.7409856" lon="13.6965291"><ele>702.0</ele><time>2026-04-26T12:52:29.945Z</time></trkpt><trkpt lat="41.7408899" lon="13.6964957"><ele>702.0</ele><time>2026-04-26T12:52:30.949Z</time></trkpt><trkpt lat="41.7407867" lon="13.6964554"><ele>702.25</ele><time>2026-04-26T12:52:31.943Z</time></trkpt><trkpt lat="41.7406752" lon="13.6964174"><ele>702.5</ele><time>2026-04-26T12:52:32.943Z</time></trkpt><trkpt lat="41.7405535" lon="13.6963601"><ele>702.75</ele><time>2026-04-26T12:52:33.952Z</time></trkpt><trkpt lat="41.7404273" lon="13.6962869"><ele>703.0</ele><time>2026-04-26T12:52:34.945Z</time></trkpt><trkpt lat="41.7402975" lon="13.6961935"><ele>699.3333333333334</ele><time>2026-04-26T12:52:35.947Z</time></trkpt><trkpt lat="41.7401682" lon="13.6960787"><ele>695.6666666666666</ele><time>2026-04-26T12:52:36.944Z</time></trkpt><trkpt lat="41.7400345" lon="13.6959427"><ele>692.0</ele><time>2026-04-26T12:52:37.953Z</time></trkpt><trkpt lat="41.7399025" lon="13.6957899"><ele>692.0</ele><time>2026-04-26T12:52:38.946Z</time></trkpt><trkpt lat="41.7397721" lon="13.6956216"><ele>692.0</ele><time>2026-04-26T12:52:39.947Z</time></trkpt><trkpt lat="41.7396422" lon="13.6954484"><ele>692.0</ele><time>2026-04-26T12:52:40.943Z</time></trkpt><trkpt lat="41.7395085" lon="13.6952701"><ele>689.6666666666666</ele><time>2026-04-26T12:52:41.948Z</time></trkpt><trkpt lat="41.7393687" lon="13.6950954"><ele>687.3333333333334</ele><time>2026-04-26T12:52:42.947Z</time></trkpt><trkpt lat="41.7392197" lon="13.694934"><ele>685.0</ele><time>2026-04-26T12:52:43.949Z</time></trkpt><trkpt lat="41.7390576" lon="13.6947957"><ele>685.0</ele><time>2026-04-26T12:52:44.946Z</time></trkpt><trkpt lat="41.7388855" lon="13.6946777"><ele>685.0</ele><time>2026-04-26T12:52:45.943Z</time></trkpt><trkpt lat="41.738705" lon="13.6945775"><ele>685.0</ele><time>2026-04-26T12:52:46.942Z</time></trkpt><trkpt lat="41.738518" lon="13.6944954"><ele>686.6666666666667</ele><time>2026-04-26T12:52:47.937Z</time></trkpt><trkpt lat="41.7383255" lon="13.6944306"><ele>688.3333333333334</ele><time>2026-04-26T12:52:48.948Z</time></trkpt><trkpt lat="41.7381284" lon="13.6943811"><ele>690.0</ele><time>2026-04-26T12:52:49.946Z</time></trkpt><trkpt lat="41.7379272" lon="13.6943459"><ele>681.6666666666666</ele><time>2026-04-26T12:52:50.957Z</time></trkpt><trkpt lat="41.7377218" lon="13.6943317"><ele>673.3333333333333</ele><time>2026-04-26T12:52:51.947Z</time></trkpt><trkpt lat="41.7375124" lon="13.694343"><ele>665.0</ele><time>2026-04-26T12:52:52.949Z</time></trkpt><trkpt lat="41.7373021" lon="13.6943746"><ele>664.3333333333333</ele><time>2026-04-26T12:52:53.948Z</time></trkpt><trkpt lat="41.7370902" lon="13.6944189"><ele>663.6666666666666</ele><time>2026-04-26T12:52:54.952Z</time></trkpt><trkpt lat="41.7368839" lon="13.6944607"><ele>663.0</ele><time>2026-04-26T12:52:55.951Z</time></trkpt><trkpt lat="41.7366763" lon="13.6944765"><ele>661.0</ele><time>2026-04-26T12:52:56.954Z</time></trkpt><trkpt lat="41.7364794" lon="13.6944707"><ele>659.0</ele><time>2026-04-26T12:52:57.949Z</time></trkpt><trkpt lat="41.7362809" lon="13.6944387"><ele>657.0</ele><time>2026-04-26T12:52:58.944Z</time></trkpt><trkpt lat="41.7360849" lon="13.6943795"><ele>658.0</ele><time>2026-04-26T12:52:59.947Z</time></trkpt><trkpt lat="41.7358959" lon="13.6942993"><ele>659.0</ele><time>2026-04-26T12:53:00.946Z</time></trkpt><trkpt lat="41.7357096" lon="13.6942057"><ele>660.0</ele><time>2026-04-26T12:53:01.941Z</time></trkpt><trkpt lat="41.735521" lon="13.6941187"><ele>660.0</ele><time>2026-04-26T12:53:02.941Z</time></trkpt><trkpt lat="41.7353278" lon="13.6940543"><ele>660.0</ele><time>2026-04-26T12:53:03.953Z</time></trkpt><trkpt lat="41.7351283" lon="13.6940117"><ele>660.0</ele><time>2026-04-26T12:53:04.943Z</time></trkpt><trkpt lat="41.7349284" lon="13.6939927"><ele>660.0</ele><time>2026-04-26T12:53:05.951Z</time></trkpt><trkpt lat="41.7347271" lon="13.6939996"><ele>660.0</ele><time>2026-04-26T12:53:06.943Z</time></trkpt><trkpt lat="41.7345255" lon="13.6940308"><ele>660.0</ele><time>2026-04-26T12:53:07.944Z</time></trkpt><trkpt lat="41.7343218" lon="13.6940769"><ele>657.0</ele><time>2026-04-26T12:53:08.947Z</time></trkpt><trkpt lat="41.7341243" lon="13.6941594"><ele>654.0</ele><time>2026-04-26T12:53:09.947Z</time></trkpt><trkpt lat="41.7339319" lon="13.6942607"><ele>651.0</ele><time>2026-04-26T12:53:10.943Z</time></trkpt><trkpt lat="41.7337469" lon="13.6943848"><ele>650.0</ele><time>2026-04-26T12:53:11.945Z</time></trkpt><trkpt lat="41.7335694" lon="13.6945344"><ele>649.0</ele><time>2026-04-26T12:53:12.947Z</time></trkpt><trkpt lat="41.7333999" lon="13.6947013"><ele>648.0</ele><time>2026-04-26T12:53:13.946Z</time></trkpt><trkpt lat="41.7332401" lon="13.694884"><ele>648.0</ele><time>2026-04-26T12:53:14.943Z</time></trkpt><trkpt lat="41.7330836" lon="13.6950773"><ele>648.0</ele><time>2026-04-26T12:53:15.948Z</time></trkpt><trkpt lat="41.7329315" lon="13.6952765"><ele>648.0</ele><time>2026-04-26T12:53:16.944Z</time></trkpt><trkpt lat="41.7327774" lon="13.6954745"><ele>644.6666666666666</ele><time>2026-04-26T12:53:17.945Z</time></trkpt><trkpt lat="41.7326249" lon="13.6956739"><ele>641.3333333333333</ele><time>2026-04-26T12:53:18.947Z</time></trkpt><trkpt lat="41.7324693" lon="13.6958748"><ele>638.0</ele><time>2026-04-26T12:53:19.941Z</time></trkpt><trkpt lat="41.7323149" lon="13.6960752"><ele>636.6666666666666</ele><time>2026-04-26T12:53:20.953Z</time></trkpt><trkpt lat="41.732165" lon="13.6962699"><ele>635.3333333333334</ele><time>2026-04-26T12:53:21.945Z</time></trkpt><trkpt lat="41.7320171" lon="13.6964516"><ele>634.0</ele><time>2026-04-26T12:53:22.946Z</time></trkpt><trkpt lat="41.7318613" lon="13.6966088"><ele>634.0</ele><time>2026-04-26T12:53:23.944Z</time></trkpt><trkpt lat="41.7316897" lon="13.696738"><ele>634.0</ele><time>2026-04-26T12:53:24.946Z</time></trkpt><trkpt lat="41.7315041" lon="13.696835"><ele>634.0</ele><time>2026-04-26T12:53:25.948Z</time></trkpt><trkpt lat="41.7313155" lon="13.6968928"><ele>634.0</ele><time>2026-04-26T12:53:26.949Z</time></trkpt><trkpt lat="41.7311296" lon="13.6969075"><ele>634.0</ele><time>2026-04-26T12:53:27.948Z</time></trkpt><trkpt lat="41.7309502" lon="13.6968759"><ele>634.0</ele><time>2026-04-26T12:53:28.944Z</time></trkpt><trkpt lat="41.7307709" lon="13.6968233"><ele>631.6666666666667</ele><time>2026-04-26T12:53:29.953Z</time></trkpt><trkpt lat="41.7306076" lon="13.6966996"><ele>629.3333333333334</ele><time>2026-04-26T12:53:30.946Z</time></trkpt><trkpt lat="41.7304604" lon="13.6965614"><ele>627.0</ele><time>2026-04-26T12:53:31.948Z</time></trkpt><trkpt lat="41.7303323" lon="13.6964017"><ele>627.0</ele><time>2026-04-26T12:53:32.945Z</time></trkpt><trkpt lat="41.7302292" lon="13.6962372"><ele>627.0</ele><time>2026-04-26T12:53:33.942Z</time></trkpt><trkpt lat="41.7301452" lon="13.6960738"><ele>627.0</ele><time>2026-04-26T12:53:34.938Z</time></trkpt><trkpt lat="41.7300831" lon="13.6959023"><ele>624.25</ele><time>2026-04-26T12:53:35.947Z</time></trkpt><trkpt lat="41.7300394" lon="13.6957217"><ele>621.5</ele><time>2026-04-26T12:53:36.952Z</time></trkpt><trkpt lat="41.7300155" lon="13.6955302"><ele>618.75</ele><time>2026-04-26T12:53:37.943Z</time></trkpt><trkpt lat="41.7300096" lon="13.6953366"><ele>616.0</ele><time>2026-04-26T12:53:38.969Z</time></trkpt><trkpt lat="41.7300253" lon="13.6951441"><ele>613.0</ele><time>2026-04-26T12:53:39.943Z</time></trkpt><trkpt lat="41.7300633" lon="13.6949514"><ele>610.0</ele><time>2026-04-26T12:53:40.95Z</time></trkpt><trkpt lat="41.7301187" lon="13.6947599"><ele>607.0</ele><time>2026-04-26T12:53:41.943Z</time></trkpt><trkpt lat="41.7301903" lon="13.6945668"><ele>604.3333333333334</ele><time>2026-04-26T12:53:42.948Z</time></trkpt><trkpt lat="41.7302765" lon="13.6943788"><ele>601.6666666666666</ele><time>2026-04-26T12:53:43.943Z</time></trkpt><trkpt lat="41.7303708" lon="13.6941867"><ele>599.0</ele><time>2026-04-26T12:53:44.946Z</time></trkpt><trkpt lat="41.730481" lon="13.6939731"><ele>599.0</ele><time>2026-04-26T12:53:45.954Z</time></trkpt><trkpt lat="41.7306114" lon="13.6937547"><ele>599.0</ele><time>2026-04-26T12:53:46.944Z</time></trkpt><trkpt lat="41.7307423" lon="13.6935396"><ele>599.0</ele><time>2026-04-26T12:53:47.947Z</time></trkpt><trkpt lat="41.730861" lon="13.6933222"><ele>598.3333333333333</ele><time>2026-04-26T12:53:48.948Z</time></trkpt><trkpt lat="41.7309603" lon="13.6930996"><ele>597.6666666666666</ele><time>2026-04-26T12:53:49.944Z</time></trkpt><trkpt lat="41.7310393" lon="13.6928845"><ele>597.0</ele><time>2026-04-26T12:53:50.951Z</time></trkpt><trkpt lat="41.7311038" lon="13.6926848"><ele>599.0</ele><time>2026-04-26T12:53:51.942Z</time></trkpt><trkpt lat="41.7311599" lon="13.6924965"><ele>601.0</ele><time>2026-04-26T12:53:52.953Z</time></trkpt><trkpt lat="41.7311987" lon="13.6923111"><ele>603.0</ele><time>2026-04-26T12:53:53.95Z</time></trkpt><trkpt lat="41.731234" lon="13.6921125"><ele>605.0</ele><time>2026-04-26T12:53:54.947Z</time></trkpt><trkpt lat="41.7312791" lon="13.6918965"><ele>605.0</ele><time>2026-04-26T12:53:55.942Z</time></trkpt><trkpt lat="41.7313364" lon="13.6916627"><ele>605.0</ele><time>2026-04-26T12:53:56.949Z</time></trkpt><trkpt lat="41.7313964" lon="13.6914215"><ele>605.0</ele><time>2026-04-26T12:53:57.942Z</time></trkpt><trkpt lat="41.7314596" lon="13.6911712"><ele>603.0</ele><time>2026-04-26T12:53:58.945Z</time></trkpt><trkpt lat="41.7315258" lon="13.6909122"><ele>601.0</ele><time>2026-04-26T12:53:59.942Z</time></trkpt><trkpt lat="41.7316094" lon="13.6906568"><ele>599.0</ele><time>2026-04-26T12:54:00.942Z</time></trkpt><trkpt lat="41.7317093" lon="13.6904046"><ele>599.3333333333333</ele><time>2026-04-26T12:54:01.941Z</time></trkpt><trkpt lat="41.7318217" lon="13.6901607"><ele>599.6666666666666</ele><time>2026-04-26T12:54:02.948Z</time></trkpt><trkpt lat="41.731936" lon="13.6899274"><ele>600.0</ele><time>2026-04-26T12:54:03.942Z</time></trkpt><trkpt lat="41.7320418" lon="13.6897007"><ele>600.0</ele><time>2026-04-26T12:54:04.941Z</time></trkpt><trkpt lat="41.7321399" lon="13.6894719"><ele>600.0</ele><time>2026-04-26T12:54:05.942Z</time></trkpt><trkpt lat="41.7322205" lon="13.6892293"><ele>600.0</ele><time>2026-04-26T12:54:06.943Z</time></trkpt><trkpt lat="41.7322753" lon="13.688972"><ele>594.6666666666666</ele><time>2026-04-26T12:54:07.945Z</time></trkpt><trkpt lat="41.7323248" lon="13.6887152"><ele>589.3333333333333</ele><time>2026-04-26T12:54:08.942Z</time></trkpt><trkpt lat="41.7323223" lon="13.6884442"><ele>584.0</ele><time>2026-04-26T12:54:09.946Z</time></trkpt><trkpt lat="41.7322897" lon="13.6881809"><ele>582.3333333333333</ele><time>2026-04-26T12:54:10.944Z</time></trkpt><trkpt lat="41.7322292" lon="13.6879246"><ele>580.6666666666666</ele><time>2026-04-26T12:54:11.949Z</time></trkpt><trkpt lat="41.7321324" lon="13.6876845"><ele>579.0</ele><time>2026-04-26T12:54:12.943Z</time></trkpt><trkpt lat="41.732009" lon="13.687468"><ele>576.3333333333334</ele><time>2026-04-26T12:54:13.943Z</time></trkpt><trkpt lat="41.7318547" lon="13.6872846"><ele>573.6666666666667</ele><time>2026-04-26T12:54:14.946Z</time></trkpt><trkpt lat="41.7316791" lon="13.6871255"><ele>571.0</ele><time>2026-04-26T12:54:15.947Z</time></trkpt><trkpt lat="41.7314884" lon="13.6869804"><ele>574.5</ele><time>2026-04-26T12:54:16.941Z</time></trkpt><trkpt lat="41.7312902" lon="13.6868409"><ele>578.0</ele><time>2026-04-26T12:54:17.947Z</time></trkpt><trkpt lat="41.7310849" lon="13.6867087"><ele>575.0</ele><time>2026-04-26T12:54:18.947Z</time></trkpt><trkpt lat="41.7308727" lon="13.6865908"><ele>572.0</ele><time>2026-04-26T12:54:19.943Z</time></trkpt><trkpt lat="41.7306563" lon="13.6864936"><ele>572.0</ele><time>2026-04-26T12:54:20.942Z</time></trkpt><trkpt lat="41.7304336" lon="13.686417"><ele>572.0</ele><time>2026-04-26T12:54:21.944Z</time></trkpt><trkpt lat="41.7302059" lon="13.6863665"><ele>570.0</ele><time>2026-04-26T12:54:22.941Z</time></trkpt><trkpt lat="41.7299755" lon="13.6863437"><ele>568.0</ele><time>2026-04-26T12:54:23.941Z</time></trkpt><trkpt lat="41.7297462" lon="13.6863466"><ele>568.0</ele><time>2026-04-26T12:54:24.952Z</time></trkpt><trkpt lat="41.7295152" lon="13.686368"><ele>568.0</ele><time>2026-04-26T12:54:25.948Z</time></trkpt><trkpt lat="41.7292818" lon="13.6864076"><ele>566.5</ele><time>2026-04-26T12:54:26.95Z</time></trkpt><trkpt lat="41.7290444" lon="13.6864646"><ele>565.0</ele><time>2026-04-26T12:54:27.943Z</time></trkpt><trkpt lat="41.7288054" lon="13.686529"><ele>565.0</ele><time>2026-04-26T12:54:28.96Z</time></trkpt><trkpt lat="41.7285627" lon="13.6865938"><ele>565.0</ele><time>2026-04-26T12:54:29.945Z</time></trkpt><trkpt lat="41.7283173" lon="13.6866564"><ele>566.0</ele><time>2026-04-26T12:54:30.942Z</time></trkpt><trkpt lat="41.7280749" lon="13.6867173"><ele>567.0</ele><time>2026-04-26T12:54:31.938Z</time></trkpt><trkpt lat="41.7278384" lon="13.6867791"><ele>568.0</ele><time>2026-04-26T12:54:32.947Z</time></trkpt><trkpt lat="41.7276095" lon="13.686842"><ele>569.0</ele><time>2026-04-26T12:54:33.948Z</time></trkpt><trkpt lat="41.7273865" lon="13.6869021"><ele>564.6666666666666</ele><time>2026-04-26T12:54:34.939Z</time></trkpt><trkpt lat="41.7271654" lon="13.6869521"><ele>560.3333333333334</ele><time>2026-04-26T12:54:35.94Z</time></trkpt><trkpt lat="41.7269477" lon="13.6869757"><ele>556.0</ele><time>2026-04-26T12:54:36.945Z</time></trkpt><trkpt lat="41.7267367" lon="13.686958"><ele>559.6666666666667</ele><time>2026-04-26T12:54:37.941Z</time></trkpt><trkpt lat="41.7265319" lon="13.6869016"><ele>563.3333333333334</ele><time>2026-04-26T12:54:38.946Z</time></trkpt><trkpt lat="41.7263346" lon="13.6868166"><ele>567.0</ele><time>2026-04-26T12:54:39.939Z</time></trkpt><trkpt lat="41.7261436" lon="13.6867097"><ele>564.6666666666666</ele><time>2026-04-26T12:54:40.938Z</time></trkpt><trkpt lat="41.7259601" lon="13.6865795"><ele>562.3333333333333</ele><time>2026-04-26T12:54:41.947Z</time></trkpt><trkpt lat="41.7257857" lon="13.6864265"><ele>560.0</ele><time>2026-04-26T12:54:42.954Z</time></trkpt><trkpt lat="41.7256208" lon="13.6862546"><ele>559.0</ele><time>2026-04-26T12:54:43.944Z</time></trkpt><trkpt lat="41.7254626" lon="13.68607"><ele>558.0</ele><time>2026-04-26T12:54:44.955Z</time></trkpt><trkpt lat="41.7253077" lon="13.6858772"><ele>557.0</ele><time>2026-04-26T12:54:45.945Z</time></trkpt><trkpt lat="41.7251533" lon="13.6856844"><ele>557.0</ele><time>2026-04-26T12:54:46.942Z</time></trkpt><trkpt lat="41.724997" lon="13.6854951"><ele>557.0</ele><time>2026-04-26T12:54:47.945Z</time></trkpt><trkpt lat="41.7248384" lon="13.6853134"><ele>557.0</ele><time>2026-04-26T12:54:48.945Z</time></trkpt><trkpt lat="41.7246721" lon="13.6851466"><ele>554.6666666666666</ele><time>2026-04-26T12:54:49.939Z</time></trkpt><trkpt lat="41.7244943" lon="13.6850025"><ele>552.3333333333334</ele><time>2026-04-26T12:54:50.947Z</time></trkpt><trkpt lat="41.7243078" lon="13.6848793"><ele>550.0</ele><time>2026-04-26T12:54:51.942Z</time></trkpt><trkpt lat="41.7241168" lon="13.6847746"><ele>550.0</ele><time>2026-04-26T12:54:52.946Z</time></trkpt><trkpt lat="41.7239289" lon="13.6846805"><ele>550.0</ele><time>2026-04-26T12:54:53.942Z</time></trkpt><trkpt lat="41.7237534" lon="13.6845908"><ele>550.0</ele><time>2026-04-26T12:54:54.95Z</time></trkpt><trkpt lat="41.7235892" lon="13.6845044"><ele>553.6666666666667</ele><time>2026-04-26T12:54:55.939Z</time></trkpt><trkpt lat="41.7234571" lon="13.6843752"><ele>557.3333333333334</ele><time>2026-04-26T12:54:56.94Z</time></trkpt><trkpt lat="41.7233526" lon="13.6842247"><ele>561.0</ele><time>2026-04-26T12:54:57.943Z</time></trkpt><trkpt lat="41.7232766" lon="13.6840362"><ele>561.0</ele><time>2026-04-26T12:54:58.938Z</time></trkpt><trkpt lat="41.72322" lon="13.6838295"><ele>561.0</ele><time>2026-04-26T12:54:59.943Z</time></trkpt><trkpt lat="41.7232172" lon="13.683613"><ele>561.0</ele><time>2026-04-26T12:55:00.946Z</time></trkpt><trkpt lat="41.7232358" lon="13.6834213"><ele>557.3333333333334</ele><time>2026-04-26T12:55:01.942Z</time></trkpt><trkpt lat="41.7232938" lon="13.6832386"><ele>553.6666666666667</ele><time>2026-04-26T12:55:02.947Z</time></trkpt><trkpt lat="41.7233954" lon="13.6830578"><ele>550.0</ele><time>2026-04-26T12:55:03.948Z</time></trkpt><trkpt lat="41.7235099" lon="13.682898"><ele>551.3333333333334</ele><time>2026-04-26T12:55:04.945Z</time></trkpt><trkpt lat="41.723646" lon="13.6827423"><ele>552.6666666666666</ele><time>2026-04-26T12:55:05.947Z</time></trkpt><trkpt lat="41.7237946" lon="13.6825893"><ele>554.0</ele><time>2026-04-26T12:55:06.945Z</time></trkpt><trkpt lat="41.7239594" lon="13.6824432"><ele>554.0</ele><time>2026-04-26T12:55:07.946Z</time></trkpt><trkpt lat="41.7241349" lon="13.6823011"><ele>554.0</ele><time>2026-04-26T12:55:08.947Z</time></trkpt><trkpt lat="41.7243082" lon="13.6821558"><ele>554.0</ele><time>2026-04-26T12:55:09.942Z</time></trkpt><trkpt lat="41.7244698" lon="13.6819946"><ele>556.3333333333333</ele><time>2026-04-26T12:55:10.942Z</time></trkpt><trkpt lat="41.7246182" lon="13.6818087"><ele>558.6666666666666</ele><time>2026-04-26T12:55:11.947Z</time></trkpt><trkpt lat="41.724743" lon="13.6815967"><ele>561.0</ele><time>2026-04-26T12:55:12.944Z</time></trkpt><trkpt lat="41.7248467" lon="13.6813634"><ele>561.0</ele><time>2026-04-26T12:55:13.939Z</time></trkpt><trkpt lat="41.7249324" lon="13.6811137"><ele>561.0</ele><time>2026-04-26T12:55:14.943Z</time></trkpt><trkpt lat="41.7249988" lon="13.6808512"><ele>561.0</ele><time>2026-04-26T12:55:15.937Z</time></trkpt><trkpt lat="41.7250423" lon="13.6805783"><ele>555.3333333333334</ele><time>2026-04-26T12:55:16.939Z</time></trkpt><trkpt lat="41.7250573" lon="13.6802992"><ele>549.6666666666667</ele><time>2026-04-26T12:55:17.939Z</time></trkpt><trkpt lat="41.7250449" lon="13.6800198"><ele>544.0</ele><time>2026-04-26T12:55:18.935Z</time></trkpt><trkpt lat="41.7250057" lon="13.679744"><ele>541.0</ele><time>2026-04-26T12:55:19.944Z</time></trkpt><trkpt lat="41.7249376" lon="13.6794765"><ele>538.0</ele><time>2026-04-26T12:55:20.939Z</time></trkpt><trkpt lat="41.7248443" lon="13.6792226"><ele>535.0</ele><time>2026-04-26T12:55:21.938Z</time></trkpt><trkpt lat="41.724725" lon="13.6789848"><ele>535.0</ele><time>2026-04-26T12:55:22.939Z</time></trkpt><trkpt lat="41.7245886" lon="13.6787618"><ele>535.0</ele><time>2026-04-26T12:55:23.942Z</time></trkpt><trkpt lat="41.7244475" lon="13.6785415"><ele>535.0</ele><time>2026-04-26T12:55:24.944Z</time></trkpt><trkpt lat="41.7243073" lon="13.6783187"><ele>533.3333333333334</ele><time>2026-04-26T12:55:25.941Z</time></trkpt><trkpt lat="41.7241665" lon="13.6780935"><ele>531.6666666666666</ele><time>2026-04-26T12:55:26.94Z</time></trkpt><trkpt lat="41.7240228" lon="13.6778651"><ele>530.0</ele><time>2026-04-26T12:55:27.939Z</time></trkpt><trkpt lat="41.7238755" lon="13.6776347"><ele>530.0</ele><time>2026-04-26T12:55:28.941Z</time></trkpt><trkpt lat="41.7237256" lon="13.6774017"><ele>530.0</ele><time>2026-04-26T12:55:29.938Z</time></trkpt><trkpt lat="41.7235762" lon="13.6771688"><ele>522.5</ele><time>2026-04-26T12:55:30.945Z</time></trkpt><trkpt lat="41.7234268" lon="13.6769348"><ele>515.0</ele><time>2026-04-26T12:55:31.943Z</time></trkpt><trkpt lat="41.7232816" lon="13.6767001"><ele>515.0</ele><time>2026-04-26T12:55:32.946Z</time></trkpt><trkpt lat="41.7231405" lon="13.6764745"><ele>515.0</ele><time>2026-04-26T12:55:33.941Z</time></trkpt><trkpt lat="41.7230376" lon="13.6762375"><ele>515.0</ele><time>2026-04-26T12:55:34.947Z</time></trkpt><trkpt lat="41.7229703" lon="13.6759819"><ele>518.3333333333333</ele><time>2026-04-26T12:55:35.941Z</time></trkpt><trkpt lat="41.7229398" lon="13.6757232"><ele>521.6666666666666</ele><time>2026-04-26T12:55:36.941Z</time></trkpt><trkpt lat="41.7229198" lon="13.6754675"><ele>525.0</ele><time>2026-04-26T12:55:37.951Z</time></trkpt><trkpt lat="41.7229608" lon="13.6752083"><ele>525.0</ele><time>2026-04-26T12:55:38.939Z</time></trkpt><trkpt lat="41.7230073" lon="13.6749439"><ele>525.0</ele><time>2026-04-26T12:55:39.948Z</time></trkpt><trkpt lat="41.7230505" lon="13.6746712"><ele>525.0</ele><time>2026-04-26T12:55:40.945Z</time></trkpt><trkpt lat="41.7231001" lon="13.674392"><ele>521.3333333333334</ele><time>2026-04-26T12:55:41.948Z</time></trkpt><trkpt lat="41.7231523" lon="13.6741113"><ele>517.6666666666667</ele><time>2026-04-26T12:55:42.945Z</time></trkpt><trkpt lat="41.7232075" lon="13.6738346"><ele>514.0</ele><time>2026-04-26T12:55:43.948Z</time></trkpt><trkpt lat="41.7232607" lon="13.6735558"><ele>510.0</ele><time>2026-04-26T12:55:44.942Z</time></trkpt><trkpt lat="41.7233174" lon="13.6732953"><ele>506.0</ele><time>2026-04-26T12:55:45.944Z</time></trkpt><trkpt lat="41.7233887" lon="13.6730531"><ele>502.0</ele><time>2026-04-26T12:55:46.956Z</time></trkpt><trkpt lat="41.7234841" lon="13.6728329"><ele>505.33333333333337</ele><time>2026-04-26T12:55:47.978Z</time></trkpt><trkpt lat="41.7236148" lon="13.6726535"><ele>508.66666666666663</ele><time>2026-04-26T12:55:48.961Z</time></trkpt><trkpt lat="41.7237615" lon="13.6724857"><ele>512.0</ele><time>2026-04-26T12:55:49.98Z</time></trkpt><trkpt lat="41.7239158" lon="13.6723099"><ele>512.0</ele><time>2026-04-26T12:55:50.947Z</time></trkpt><trkpt lat="41.7240687" lon="13.672125"><ele>512.0</ele><time>2026-04-26T12:55:51.951Z</time></trkpt><trkpt lat="41.724215" lon="13.6719262"><ele>512.0</ele><time>2026-04-26T12:55:52.94Z</time></trkpt><trkpt lat="41.7243542" lon="13.6717168"><ele>513.0</ele><time>2026-04-26T12:55:53.946Z</time></trkpt><trkpt lat="41.724472" lon="13.6714976"><ele>514.0</ele><time>2026-04-26T12:55:54.939Z</time></trkpt><trkpt lat="41.7245556" lon="13.6712662"><ele>515.0</ele><time>2026-04-26T12:55:55.941Z</time></trkpt><trkpt lat="41.7246323" lon="13.6710379"><ele>509.66666666666663</ele><time>2026-04-26T12:55:56.945Z</time></trkpt><trkpt lat="41.7246213" lon="13.670804"><ele>504.33333333333337</ele><time>2026-04-26T12:55:57.944Z</time></trkpt><trkpt lat="41.7246307" lon="13.6705761"><ele>499.0</ele><time>2026-04-26T12:55:58.943Z</time></trkpt><trkpt lat="41.7246389" lon="13.6703523"><ele>495.0</ele><time>2026-04-26T12:55:59.944Z</time></trkpt><trkpt lat="41.7247202" lon="13.6701557"><ele>491.0</ele><time>2026-04-26T12:56:00.942Z</time></trkpt><trkpt lat="41.7248289" lon="13.6699834"><ele>487.0</ele><time>2026-04-26T12:56:01.938Z</time></trkpt><trkpt lat="41.7249607" lon="13.6698438"><ele>487.0</ele><time>2026-04-26T12:56:02.946Z</time></trkpt><trkpt lat="41.725117" lon="13.6697174"><ele>487.0</ele><time>2026-04-26T12:56:03.948Z</time></trkpt><trkpt lat="41.7252816" lon="13.6695962"><ele>487.0</ele><time>2026-04-26T12:56:04.942Z</time></trkpt><trkpt lat="41.7254519" lon="13.6694704"><ele>485.33333333333337</ele><time>2026-04-26T12:56:05.947Z</time></trkpt><trkpt lat="41.7256187" lon="13.6693255"><ele>483.66666666666663</ele><time>2026-04-26T12:56:06.947Z</time></trkpt><trkpt lat="41.7257778" lon="13.6691444"><ele>482.0</ele><time>2026-04-26T12:56:07.947Z</time></trkpt><trkpt lat="41.7259053" lon="13.6689376"><ele>482.0</ele><time>2026-04-26T12:56:08.955Z</time></trkpt><trkpt lat="41.7260077" lon="13.6687037"><ele>482.0</ele><time>2026-04-26T12:56:09.953Z</time></trkpt><trkpt lat="41.7260771" lon="13.6684519"><ele>482.0</ele><time>2026-04-26T12:56:10.948Z</time></trkpt><trkpt lat="41.7261046" lon="13.668197"><ele>483.0</ele><time>2026-04-26T12:56:11.945Z</time></trkpt><trkpt lat="41.7260928" lon="13.6679453"><ele>484.0</ele><time>2026-04-26T12:56:12.943Z</time></trkpt><trkpt lat="41.7260574" lon="13.6676984"><ele>485.0</ele><time>2026-04-26T12:56:13.946Z</time></trkpt><trkpt lat="41.7260073" lon="13.6674598"><ele>479.3333333333333</ele><time>2026-04-26T12:56:14.945Z</time></trkpt><trkpt lat="41.7259468" lon="13.6672329"><ele>473.66666666666663</ele><time>2026-04-26T12:56:15.95Z</time></trkpt><trkpt lat="41.7258869" lon="13.6670168"><ele>468.0</ele><time>2026-04-26T12:56:16.947Z</time></trkpt><trkpt lat="41.7258404" lon="13.6668007"><ele>467.0</ele><time>2026-04-26T12:56:17.946Z</time></trkpt><trkpt lat="41.7258164" lon="13.6665854"><ele>466.0</ele><time>2026-04-26T12:56:18.95Z</time></trkpt><trkpt lat="41.7258235" lon="13.6663705"><ele>465.0</ele><time>2026-04-26T12:56:19.947Z</time></trkpt><trkpt lat="41.7258595" lon="13.6661587"><ele>462.66666666666663</ele><time>2026-04-26T12:56:20.949Z</time></trkpt><trkpt lat="41.7259182" lon="13.6659505"><ele>460.3333333333333</ele><time>2026-04-26T12:56:21.946Z</time></trkpt><trkpt lat="41.7259878" lon="13.6657413"><ele>458.0</ele><time>2026-04-26T12:56:22.945Z</time></trkpt><trkpt lat="41.72606" lon="13.6655323"><ele>456.3333333333333</ele><time>2026-04-26T12:56:23.95Z</time></trkpt><trkpt lat="41.7261307" lon="13.6653267"><ele>454.66666666666663</ele><time>2026-04-26T12:56:24.947Z</time></trkpt><trkpt lat="41.7261984" lon="13.665129"><ele>453.0</ele><time>2026-04-26T12:56:25.946Z</time></trkpt><trkpt lat="41.7262626" lon="13.6649376"><ele>452.75</ele><time>2026-04-26T12:56:26.948Z</time></trkpt><trkpt lat="41.726325" lon="13.6647502"><ele>452.5</ele><time>2026-04-26T12:56:27.947Z</time></trkpt><trkpt lat="41.7263852" lon="13.6645688"><ele>452.25</ele><time>2026-04-26T12:56:28.97Z</time></trkpt><trkpt lat="41.7264396" lon="13.6643954"><ele>452.0</ele><time>2026-04-26T12:56:29.95Z</time></trkpt><trkpt lat="41.7264798" lon="13.6642285"><ele>452.0</ele><time>2026-04-26T12:56:30.951Z</time></trkpt><trkpt lat="41.726505" lon="13.6640566"><ele>452.0</ele><time>2026-04-26T12:56:31.946Z</time></trkpt><trkpt lat="41.7265211" lon="13.6638807"><ele>452.0</ele><time>2026-04-26T12:56:32.947Z</time></trkpt><trkpt lat="41.7265322" lon="13.6637048"><ele>452.0</ele><time>2026-04-26T12:56:33.949Z</time></trkpt><trkpt lat="41.7265433" lon="13.6635294"><ele>453.5</ele><time>2026-04-26T12:56:34.948Z</time></trkpt><trkpt lat="41.7265514" lon="13.6633544"><ele>455.0</ele><time>2026-04-26T12:56:35.944Z</time></trkpt><trkpt lat="41.7265588" lon="13.6631806"><ele>456.5</ele><time>2026-04-26T12:56:36.949Z</time></trkpt><trkpt lat="41.7265691" lon="13.6630087"><ele>458.0</ele><time>2026-04-26T12:56:37.953Z</time></trkpt><trkpt lat="41.7265863" lon="13.6628381"><ele>458.75</ele><time>2026-04-26T12:56:38.943Z</time></trkpt><trkpt lat="41.7266102" lon="13.6626674"><ele>459.5</ele><time>2026-04-26T12:56:39.943Z</time></trkpt><trkpt lat="41.7266413" lon="13.6624964"><ele>460.25</ele><time>2026-04-26T12:56:40.945Z</time></trkpt><trkpt lat="41.7266827" lon="13.6623274"><ele>461.0</ele><time>2026-04-26T12:56:41.947Z</time></trkpt><trkpt lat="41.7267345" lon="13.6621609"><ele>461.0</ele><time>2026-04-26T12:56:42.945Z</time></trkpt><trkpt lat="41.7267989" lon="13.662003"><ele>461.0</ele><time>2026-04-26T12:56:43.944Z</time></trkpt><trkpt lat="41.7268741" lon="13.6618587"><ele>461.0</ele><time>2026-04-26T12:56:44.944Z</time></trkpt><trkpt lat="41.7269546" lon="13.6617185"><ele>461.0</ele><time>2026-04-26T12:56:45.939Z</time></trkpt><trkpt lat="41.7270388" lon="13.6615813"><ele>460.0</ele><time>2026-04-26T12:56:46.937Z</time></trkpt><trkpt lat="41.7271292" lon="13.6614468"><ele>459.0</ele><time>2026-04-26T12:56:47.944Z</time></trkpt><trkpt lat="41.7272207" lon="13.6613085"><ele>458.0</ele><time>2026-04-26T12:56:48.939Z</time></trkpt><trkpt lat="41.7273072" lon="13.66116"><ele>457.0</ele><time>2026-04-26T12:56:49.942Z</time></trkpt><trkpt lat="41.7273825" lon="13.6609949"><ele>457.0</ele><time>2026-04-26T12:56:50.95Z</time></trkpt><trkpt lat="41.7274428" lon="13.6607846"><ele>457.0</ele><time>2026-04-26T12:56:51.942Z</time></trkpt><trkpt lat="41.7275148" lon="13.6605593"><ele>457.0</ele><time>2026-04-26T12:56:52.943Z</time></trkpt><trkpt lat="41.7275873" lon="13.6602716"><ele>460.0</ele><time>2026-04-26T12:56:53.938Z</time></trkpt><trkpt lat="41.7276692" lon="13.6599612"><ele>463.0</ele><time>2026-04-26T12:56:54.945Z</time></trkpt><trkpt lat="41.7277574" lon="13.6596553"><ele>452.5</ele><time>2026-04-26T12:56:55.944Z</time></trkpt><trkpt lat="41.7278402" lon="13.6593513"><ele>442.0</ele><time>2026-04-26T12:56:56.947Z</time></trkpt><trkpt lat="41.7279056" lon="13.6590541"><ele>442.0</ele><time>2026-04-26T12:56:57.954Z</time></trkpt><trkpt lat="41.7279526" lon="13.6587641"><ele>442.0</ele><time>2026-04-26T12:56:58.944Z</time></trkpt><trkpt lat="41.7279865" lon="13.6584814"><ele>442.0</ele><time>2026-04-26T12:56:59.95Z</time></trkpt><trkpt lat="41.7280112" lon="13.6582071"><ele>441.0</ele><time>2026-04-26T12:57:00.955Z</time></trkpt><trkpt lat="41.7280316" lon="13.6579361"><ele>440.0</ele><time>2026-04-26T12:57:01.947Z</time></trkpt><trkpt lat="41.7280571" lon="13.6576748"><ele>439.0</ele><time>2026-04-26T12:57:02.944Z</time></trkpt><trkpt lat="41.7280889" lon="13.6574128"><ele>439.0</ele><time>2026-04-26T12:57:03.947Z</time></trkpt><trkpt lat="41.7281315" lon="13.6571492"><ele>439.0</ele><time>2026-04-26T12:57:04.95Z</time></trkpt><trkpt lat="41.7281766" lon="13.6568844"><ele>439.0</ele><time>2026-04-26T12:57:05.943Z</time></trkpt><trkpt lat="41.7282253" lon="13.6566207"><ele>439.33333333333337</ele><time>2026-04-26T12:57:06.948Z</time></trkpt><trkpt lat="41.7282771" lon="13.6563535"><ele>439.66666666666663</ele><time>2026-04-26T12:57:07.937Z</time></trkpt><trkpt lat="41.7283295" lon="13.6560855"><ele>440.0</ele><time>2026-04-26T12:57:08.94Z</time></trkpt><trkpt lat="41.7283812" lon="13.6558146"><ele>440.3333333333333</ele><time>2026-04-26T12:57:09.942Z</time></trkpt><trkpt lat="41.7284337" lon="13.6555438"><ele>440.66666666666663</ele><time>2026-04-26T12:57:10.944Z</time></trkpt><trkpt lat="41.7284845" lon="13.6552731"><ele>441.0</ele><time>2026-04-26T12:57:11.942Z</time></trkpt><trkpt lat="41.7285356" lon="13.6550026"><ele>441.0</ele><time>2026-04-26T12:57:12.94Z</time></trkpt><trkpt lat="41.7285867" lon="13.6547299"><ele>441.0</ele><time>2026-04-26T12:57:13.944Z</time></trkpt><trkpt lat="41.7286418" lon="13.6544566"><ele>441.0</ele><time>2026-04-26T12:57:14.938Z</time></trkpt><trkpt lat="41.728707" lon="13.6541859"><ele>441.66666666666663</ele><time>2026-04-26T12:57:15.945Z</time></trkpt><trkpt lat="41.7287846" lon="13.6539204"><ele>442.3333333333333</ele><time>2026-04-26T12:57:16.938Z</time></trkpt><trkpt lat="41.7288718" lon="13.6536573"><ele>443.0</ele><time>2026-04-26T12:57:17.941Z</time></trkpt><trkpt lat="41.7289617" lon="13.6533936"><ele>439.3333333333333</ele><time>2026-04-26T12:57:18.949Z</time></trkpt><trkpt lat="41.7290485" lon="13.6531301"><ele>435.66666666666663</ele><time>2026-04-26T12:57:19.946Z</time></trkpt><trkpt lat="41.7291337" lon="13.652872"><ele>432.0</ele><time>2026-04-26T12:57:20.944Z</time></trkpt><trkpt lat="41.729216" lon="13.6526152"><ele>432.0</ele><time>2026-04-26T12:57:21.946Z</time></trkpt><trkpt lat="41.729293" lon="13.6523541"><ele>432.0</ele><time>2026-04-26T12:57:22.946Z</time></trkpt><trkpt lat="41.7293592" lon="13.6520856"><ele>432.0</ele><time>2026-04-26T12:57:23.943Z</time></trkpt><trkpt lat="41.7294099" lon="13.6518089"><ele>432.0</ele><time>2026-04-26T12:57:24.941Z</time></trkpt><trkpt lat="41.7294475" lon="13.6515272"><ele>432.0</ele><time>2026-04-26T12:57:25.942Z</time></trkpt><trkpt lat="41.7294824" lon="13.6512435"><ele>432.0</ele><time>2026-04-26T12:57:26.945Z</time></trkpt><trkpt lat="41.7295176" lon="13.6509592"><ele>431.0</ele><time>2026-04-26T12:57:27.945Z</time></trkpt><trkpt lat="41.7295526" lon="13.6506768"><ele>430.0</ele><time>2026-04-26T12:57:28.941Z</time></trkpt><trkpt lat="41.7295865" lon="13.6503992"><ele>429.0</ele><time>2026-04-26T12:57:29.943Z</time></trkpt><trkpt lat="41.7296196" lon="13.6501313"><ele>427.33333333333337</ele><time>2026-04-26T12:57:30.943Z</time></trkpt><trkpt lat="41.7296495" lon="13.649869"><ele>425.6666666666667</ele><time>2026-04-26T12:57:31.949Z</time></trkpt><trkpt lat="41.7296578" lon="13.6496066"><ele>424.0</ele><time>2026-04-26T12:57:32.946Z</time></trkpt><trkpt lat="41.7296352" lon="13.6493389"><ele>422.0</ele><time>2026-04-26T12:57:33.942Z</time></trkpt><trkpt lat="41.7295941" lon="13.6490646"><ele>420.0</ele><time>2026-04-26T12:57:34.949Z</time></trkpt><trkpt lat="41.7295486" lon="13.6487841"><ele>418.0</ele><time>2026-04-26T12:57:35.956Z</time></trkpt><trkpt lat="41.7295063" lon="13.6484985"><ele>416.6666666666667</ele><time>2026-04-26T12:57:36.942Z</time></trkpt><trkpt lat="41.7294709" lon="13.6482094"><ele>415.33333333333337</ele><time>2026-04-26T12:57:37.943Z</time></trkpt><trkpt lat="41.7294465" lon="13.6479166"><ele>414.0</ele><time>2026-04-26T12:57:38.942Z</time></trkpt><trkpt lat="41.7294203" lon="13.6476291"><ele>412.66666666666663</ele><time>2026-04-26T12:57:39.943Z</time></trkpt><trkpt lat="41.7294229" lon="13.6473312"><ele>411.3333333333333</ele><time>2026-04-26T12:57:40.947Z</time></trkpt><trkpt lat="41.7294323" lon="13.6470305"><ele>410.0</ele><time>2026-04-26T12:57:41.944Z</time></trkpt><trkpt lat="41.72944" lon="13.6467239"><ele>406.5</ele><time>2026-04-26T12:57:42.938Z</time></trkpt><trkpt lat="41.7294497" lon="13.6464106"><ele>403.0</ele><time>2026-04-26T12:57:43.945Z</time></trkpt><trkpt lat="41.7294601" lon="13.646095"><ele>400.0</ele><time>2026-04-26T12:57:44.942Z</time></trkpt><trkpt lat="41.7294702" lon="13.6457744"><ele>397.0</ele><time>2026-04-26T12:57:45.943Z</time></trkpt><trkpt lat="41.7294817" lon="13.6454494"><ele>396.0</ele><time>2026-04-26T12:57:46.947Z</time></trkpt><trkpt lat="41.7294954" lon="13.6451217"><ele>395.0</ele><time>2026-04-26T12:57:47.945Z</time></trkpt><trkpt lat="41.7295086" lon="13.6447919"><ele>394.0</ele><time>2026-04-26T12:57:48.947Z</time></trkpt><trkpt lat="41.7295164" lon="13.6444573"><ele>393.0</ele><time>2026-04-26T12:57:49.947Z</time></trkpt><trkpt lat="41.7295142" lon="13.6441233"><ele>393.0</ele><time>2026-04-26T12:57:50.943Z</time></trkpt><trkpt lat="41.7294964" lon="13.6437921"><ele>393.0</ele><time>2026-04-26T12:57:51.964Z</time></trkpt><trkpt lat="41.7294619" lon="13.6434645"><ele>393.0</ele><time>2026-04-26T12:57:52.943Z</time></trkpt><trkpt lat="41.7294107" lon="13.6431427"><ele>393.0</ele><time>2026-04-26T12:57:53.945Z</time></trkpt><trkpt lat="41.7293421" lon="13.6428267"><ele>383.0</ele><time>2026-04-26T12:57:54.936Z</time></trkpt><trkpt lat="41.7292587" lon="13.6425178"><ele>373.0</ele><time>2026-04-26T12:57:55.943Z</time></trkpt><trkpt lat="41.7291583" lon="13.6422191"><ele>375.5</ele><time>2026-04-26T12:57:56.942Z</time></trkpt><trkpt lat="41.7290418" lon="13.6419337"><ele>378.0</ele><time>2026-04-26T12:57:57.938Z</time></trkpt><trkpt lat="41.728921" lon="13.6416561"><ele>378.0</ele><time>2026-04-26T12:57:58.944Z</time></trkpt><trkpt lat="41.7288052" lon="13.6413817"><ele>378.0</ele><time>2026-04-26T12:57:59.948Z</time></trkpt><trkpt lat="41.7286967" lon="13.6411121"><ele>379.0</ele><time>2026-04-26T12:58:00.938Z</time></trkpt><trkpt lat="41.7286036" lon="13.6408436"><ele>380.0</ele><time>2026-04-26T12:58:01.942Z</time></trkpt><trkpt lat="41.7285294" lon="13.6405711"><ele>381.0</ele><time>2026-04-26T12:58:02.938Z</time></trkpt><trkpt lat="41.7284778" lon="13.6402912"><ele>372.6666666666667</ele><time>2026-04-26T12:58:03.952Z</time></trkpt><trkpt lat="41.7284539" lon="13.6400011"><ele>364.33333333333337</ele><time>2026-04-26T12:58:04.943Z</time></trkpt><trkpt lat="41.7284493" lon="13.6397072"><ele>356.0</ele><time>2026-04-26T12:58:05.942Z</time></trkpt><trkpt lat="41.7284511" lon="13.6394111"><ele>355.33333333333337</ele><time>2026-04-26T12:58:06.942Z</time></trkpt><trkpt lat="41.7284477" lon="13.6391153"><ele>354.6666666666667</ele><time>2026-04-26T12:58:07.942Z</time></trkpt><trkpt lat="41.7284287" lon="13.638821"><ele>354.0</ele><time>2026-04-26T12:58:08.944Z</time></trkpt><trkpt lat="41.7283933" lon="13.6385314"><ele>354.0</ele><time>2026-04-26T12:58:09.945Z</time></trkpt><trkpt lat="41.7283426" lon="13.6382499"><ele>354.0</ele><time>2026-04-26T12:58:10.943Z</time></trkpt><trkpt lat="41.7282747" lon="13.6379812"><ele>354.0</ele><time>2026-04-26T12:58:11.943Z</time></trkpt><trkpt lat="41.728189" lon="13.6377221"><ele>355.0</ele><time>2026-04-26T12:58:12.944Z</time></trkpt><trkpt lat="41.7280902" lon="13.637473"><ele>356.0</ele><time>2026-04-26T12:58:13.94Z</time></trkpt><trkpt lat="41.7279868" lon="13.6372383"><ele>357.0</ele><time>2026-04-26T12:58:14.96Z</time></trkpt><trkpt lat="41.7278745" lon="13.6369902"><ele>358.0</ele><time>2026-04-26T12:58:15.943Z</time></trkpt><trkpt lat="41.7277681" lon="13.636739"><ele>359.0</ele><time>2026-04-26T12:58:16.945Z</time></trkpt><trkpt lat="41.7276783" lon="13.6364813"><ele>360.0</ele><time>2026-04-26T12:58:17.948Z</time></trkpt><trkpt lat="41.7275888" lon="13.636228"><ele>351.6666666666667</ele><time>2026-04-26T12:58:18.946Z</time></trkpt><trkpt lat="41.7275303" lon="13.6359545"><ele>343.33333333333337</ele><time>2026-04-26T12:58:19.942Z</time></trkpt><trkpt lat="41.7274892" lon="13.6356725"><ele>335.0</ele><time>2026-04-26T12:58:20.947Z</time></trkpt><trkpt lat="41.7274599" lon="13.6353877"><ele>334.33333333333337</ele><time>2026-04-26T12:58:21.946Z</time></trkpt><trkpt lat="41.7274433" lon="13.6351024"><ele>333.6666666666667</ele><time>2026-04-26T12:58:22.947Z</time></trkpt><trkpt lat="41.7274322" lon="13.6348269"><ele>333.0</ele><time>2026-04-26T12:58:23.948Z</time></trkpt><trkpt lat="41.7274181" lon="13.6345562"><ele>332.3333333333333</ele><time>2026-04-26T12:58:24.946Z</time></trkpt><trkpt lat="41.7274079" lon="13.6342803"><ele>331.66666666666663</ele><time>2026-04-26T12:58:25.942Z</time></trkpt><trkpt lat="41.7273965" lon="13.6340043"><ele>331.0</ele><time>2026-04-26T12:58:26.943Z</time></trkpt><trkpt lat="41.7273836" lon="13.6337268"><ele>328.66666666666663</ele><time>2026-04-26T12:58:27.948Z</time></trkpt><trkpt lat="41.7273708" lon="13.6334469"><ele>326.3333333333333</ele><time>2026-04-26T12:58:28.967Z</time></trkpt><trkpt lat="41.7273548" lon="13.6331677"><ele>324.0</ele><time>2026-04-26T12:58:29.952Z</time></trkpt><trkpt lat="41.7273375" lon="13.6328878"><ele>324.0</ele><time>2026-04-26T12:58:30.953Z</time></trkpt><trkpt lat="41.7273202" lon="13.6326075"><ele>324.0</ele><time>2026-04-26T12:58:31.952Z</time></trkpt><trkpt lat="41.7273027" lon="13.632329"><ele>324.0</ele><time>2026-04-26T12:58:32.941Z</time></trkpt><trkpt lat="41.7272882" lon="13.632053"><ele>323.6666666666667</ele><time>2026-04-26T12:58:33.946Z</time></trkpt><trkpt lat="41.727276" lon="13.6317776"><ele>323.33333333333337</ele><time>2026-04-26T12:58:34.95Z</time></trkpt><trkpt lat="41.7272701" lon="13.6315041"><ele>323.0</ele><time>2026-04-26T12:58:35.949Z</time></trkpt><trkpt lat="41.7272659" lon="13.6312317"><ele>322.33333333333337</ele><time>2026-04-26T12:58:36.944Z</time></trkpt><trkpt lat="41.7272575" lon="13.6309659"><ele>321.6666666666667</ele><time>2026-04-26T12:58:37.944Z</time></trkpt><trkpt lat="41.7272455" lon="13.6306994"><ele>321.0</ele><time>2026-04-26T12:58:38.944Z</time></trkpt><trkpt lat="41.7272393" lon="13.6304373"><ele>319.6666666666667</ele><time>2026-04-26T12:58:39.946Z</time></trkpt><trkpt lat="41.727238" lon="13.6301796"><ele>318.33333333333337</ele><time>2026-04-26T12:58:40.94Z</time></trkpt><trkpt lat="41.7272092" lon="13.6299332"><ele>317.0</ele><time>2026-04-26T12:58:41.94Z</time></trkpt><trkpt lat="41.7271563" lon="13.6296942"><ele>317.33333333333337</ele><time>2026-04-26T12:58:42.94Z</time></trkpt><trkpt lat="41.7270884" lon="13.6294539"><ele>317.6666666666667</ele><time>2026-04-26T12:58:43.948Z</time></trkpt><trkpt lat="41.7270219" lon="13.6292129"><ele>318.0</ele><time>2026-04-26T12:58:44.937Z</time></trkpt><trkpt lat="41.7269537" lon="13.6289737"><ele>313.3333333333333</ele><time>2026-04-26T12:58:45.944Z</time></trkpt><trkpt lat="41.7268861" lon="13.6287315"><ele>308.66666666666663</ele><time>2026-04-26T12:58:46.946Z</time></trkpt><trkpt lat="41.7268212" lon="13.6284858"><ele>304.0</ele><time>2026-04-26T12:58:47.944Z</time></trkpt><trkpt lat="41.7267651" lon="13.6282354"><ele>304.0</ele><time>2026-04-26T12:58:48.942Z</time></trkpt><trkpt lat="41.7267166" lon="13.6279801"><ele>304.0</ele><time>2026-04-26T12:58:49.948Z</time></trkpt><trkpt lat="41.726677" lon="13.6277214"><ele>304.0</ele><time>2026-04-26T12:58:50.959Z</time></trkpt><trkpt lat="41.7266471" lon="13.6274594"><ele>304.0</ele><time>2026-04-26T12:58:51.941Z</time></trkpt><trkpt lat="41.7266275" lon="13.6271942"><ele>304.0</ele><time>2026-04-26T12:58:52.943Z</time></trkpt><trkpt lat="41.7266182" lon="13.626927"><ele>304.0</ele><time>2026-04-26T12:58:53.935Z</time></trkpt><trkpt lat="41.726614" lon="13.6266619"><ele>300.3333333333333</ele><time>2026-04-26T12:58:54.939Z</time></trkpt><trkpt lat="41.7266108" lon="13.6263983"><ele>296.6666666666667</ele><time>2026-04-26T12:58:55.943Z</time></trkpt><trkpt lat="41.7266043" lon="13.6261361"><ele>293.0</ele><time>2026-04-26T12:58:56.948Z</time></trkpt><trkpt lat="41.7265994" lon="13.6258763"><ele>291.33333333333337</ele><time>2026-04-26T12:58:57.945Z</time></trkpt><trkpt lat="41.7265955" lon="13.6256187"><ele>289.6666666666667</ele><time>2026-04-26T12:58:58.944Z</time></trkpt><trkpt lat="41.7265904" lon="13.6253639"><ele>288.0</ele><time>2026-04-26T12:58:59.944Z</time></trkpt><trkpt lat="41.7265859" lon="13.6251133"><ele>288.0</ele><time>2026-04-26T12:59:00.95Z</time></trkpt><trkpt lat="41.7265837" lon="13.6248692"><ele>288.0</ele><time>2026-04-26T12:59:01.942Z</time></trkpt><trkpt lat="41.7265803" lon="13.624633"><ele>288.0</ele><time>2026-04-26T12:59:02.945Z</time></trkpt><trkpt lat="41.7265812" lon="13.6244159"><ele>288.0</ele><time>2026-04-26T12:59:03.948Z</time></trkpt><trkpt lat="41.7265871" lon="13.6242263"><ele>288.0</ele><time>2026-04-26T12:59:04.948Z</time></trkpt><trkpt lat="41.7265972" lon="13.6240685"><ele>288.0</ele><time>2026-04-26T12:59:05.941Z</time></trkpt><trkpt lat="41.7266046" lon="13.6239459"><ele>288.0</ele><time>2026-04-26T12:59:06.95Z</time></trkpt><trkpt lat="41.7266053" lon="13.6238559"><ele>288.0</ele><time>2026-04-26T12:59:07.956Z</time></trkpt><trkpt lat="41.7265838" lon="13.623751"><ele>288.0</ele><time>2026-04-26T12:59:09.95Z</time></trkpt><trkpt lat="41.7265426" lon="13.6236848"><ele>288.0</ele><time>2026-04-26T12:59:10.947Z</time></trkpt><trkpt lat="41.7264649" lon="13.623624"><ele>288.0</ele><time>2026-04-26T12:59:11.954Z</time></trkpt><trkpt lat="41.7263723" lon="13.6235549"><ele>288.0</ele><time>2026-04-26T12:59:12.947Z</time></trkpt><trkpt lat="41.7262458" lon="13.6235049"><ele>288.0</ele><time>2026-04-26T12:59:13.949Z</time></trkpt><trkpt lat="41.7261095" lon="13.6234527"><ele>288.0</ele><time>2026-04-26T12:59:14.966Z</time></trkpt><trkpt lat="41.7259754" lon="13.6234016"><ele>288.0</ele><time>2026-04-26T12:59:15.95Z</time></trkpt><trkpt lat="41.7258398" lon="13.6233458"><ele>288.0</ele><time>2026-04-26T12:59:16.943Z</time></trkpt><trkpt lat="41.7257127" lon="13.623293"><ele>288.0</ele><time>2026-04-26T12:59:17.948Z</time></trkpt><trkpt lat="41.725592" lon="13.6232415"><ele>288.0</ele><time>2026-04-26T12:59:18.947Z</time></trkpt><trkpt lat="41.7254687" lon="13.6231788"><ele>288.0</ele><time>2026-04-26T12:59:19.947Z</time></trkpt><trkpt lat="41.7253498" lon="13.6231213"><ele>288.0</ele><time>2026-04-26T12:59:20.947Z</time></trkpt><trkpt lat="41.7252358" lon="13.6230656"><ele>288.0</ele><time>2026-04-26T12:59:21.945Z</time></trkpt><trkpt lat="41.7251226" lon="13.623014"><ele>288.0</ele><time>2026-04-26T12:59:22.951Z</time></trkpt><trkpt lat="41.7250066" lon="13.6229599"><ele>288.0</ele><time>2026-04-26T12:59:23.946Z</time></trkpt><trkpt lat="41.7248949" lon="13.6229088"><ele>288.0</ele><time>2026-04-26T12:59:24.949Z</time></trkpt><trkpt lat="41.7247892" lon="13.6228563"><ele>288.0</ele><time>2026-04-26T12:59:25.946Z</time></trkpt><trkpt lat="41.7246878" lon="13.6228072"><ele>288.0</ele><time>2026-04-26T12:59:26.943Z</time></trkpt><trkpt lat="41.7245878" lon="13.6227589"><ele>288.0</ele><time>2026-04-26T12:59:27.946Z</time></trkpt><trkpt lat="41.7244854" lon="13.6227131"><ele>288.0</ele><time>2026-04-26T12:59:28.942Z</time></trkpt><trkpt lat="41.7243839" lon="13.6226694"><ele>288.0</ele><time>2026-04-26T12:59:29.943Z</time></trkpt><trkpt lat="41.7242821" lon="13.6226218"><ele>288.0</ele><time>2026-04-26T12:59:30.945Z</time></trkpt><trkpt lat="41.7241791" lon="13.6225734"><ele>288.0</ele><time>2026-04-26T12:59:31.947Z</time></trkpt><trkpt lat="41.7240748" lon="13.6225221"><ele>288.0</ele><time>2026-04-26T12:59:32.945Z</time></trkpt><trkpt lat="41.7239695" lon="13.6224705"><ele>288.0</ele><time>2026-04-26T12:59:33.945Z</time></trkpt><trkpt lat="41.7238639" lon="13.6224174"><ele>288.0</ele><time>2026-04-26T12:59:34.944Z</time></trkpt><trkpt lat="41.7237566" lon="13.622365"><ele>288.0</ele><time>2026-04-26T12:59:35.946Z</time></trkpt><trkpt lat="41.7236485" lon="13.6223121"><ele>288.0</ele><time>2026-04-26T12:59:36.949Z</time></trkpt><trkpt lat="41.7235396" lon="13.6222557"><ele>288.0</ele><time>2026-04-26T12:59:37.944Z</time></trkpt><trkpt lat="41.7234303" lon="13.6222004"><ele>288.0</ele><time>2026-04-26T12:59:38.942Z</time></trkpt><trkpt lat="41.7233197" lon="13.6221425"><ele>287.75</ele><time>2026-04-26T12:59:39.948Z</time></trkpt><trkpt lat="41.723209" lon="13.6220836"><ele>287.5</ele><time>2026-04-26T12:59:40.946Z</time></trkpt><trkpt lat="41.7230954" lon="13.6220247"><ele>287.25</ele><time>2026-04-26T12:59:41.952Z</time></trkpt><trkpt lat="41.7229778" lon="13.621973"><ele>287.0</ele><time>2026-04-26T12:59:42.941Z</time></trkpt><trkpt lat="41.7228615" lon="13.6219201"><ele>286.75</ele><time>2026-04-26T12:59:43.944Z</time></trkpt><trkpt lat="41.7227413" lon="13.6218554"><ele>286.5</ele><time>2026-04-26T12:59:44.944Z</time></trkpt><trkpt lat="41.7226248" lon="13.6217952"><ele>286.25</ele><time>2026-04-26T12:59:45.948Z</time></trkpt><trkpt lat="41.7225063" lon="13.6217356"><ele>286.0</ele><time>2026-04-26T12:59:46.941Z</time></trkpt><trkpt lat="41.7223894" lon="13.6216708"><ele>286.0</ele><time>2026-04-26T12:59:47.943Z</time></trkpt><trkpt lat="41.7222719" lon="13.6216088"><ele>286.0</ele><time>2026-04-26T12:59:48.943Z</time></trkpt><trkpt lat="41.7221552" lon="13.6215439"><ele>286.0</ele><time>2026-04-26T12:59:49.942Z</time></trkpt><trkpt lat="41.7220379" lon="13.6214816"><ele>286.0</ele><time>2026-04-26T12:59:50.941Z</time></trkpt><trkpt lat="41.7219201" lon="13.6214151"><ele>286.0</ele><time>2026-04-26T12:59:51.951Z</time></trkpt><trkpt lat="41.7218017" lon="13.6213419"><ele>286.0</ele><time>2026-04-26T12:59:52.941Z</time></trkpt><trkpt lat="41.7216845" lon="13.6212658"><ele>286.0</ele><time>2026-04-26T12:59:53.95Z</time></trkpt><trkpt lat="41.7215683" lon="13.6211863"><ele>286.0</ele><time>2026-04-26T12:59:54.942Z</time></trkpt><trkpt lat="41.7214526" lon="13.6211042"><ele>286.0</ele><time>2026-04-26T12:59:55.948Z</time></trkpt><trkpt lat="41.7213388" lon="13.6210212"><ele>286.0</ele><time>2026-04-26T12:59:56.945Z</time></trkpt><trkpt lat="41.7212256" lon="13.6209378"><ele>286.0</ele><time>2026-04-26T12:59:57.945Z</time></trkpt><trkpt lat="41.7211135" lon="13.6208535"><ele>286.0</ele><time>2026-04-26T12:59:58.945Z</time></trkpt><trkpt lat="41.7210049" lon="13.6207663"><ele>286.0</ele><time>2026-04-26T12:59:59.948Z</time></trkpt><trkpt lat="41.7208993" lon="13.6206776"><ele>286.0</ele><time>2026-04-26T13:00:00.953Z</time></trkpt><trkpt lat="41.7207974" lon="13.6205862"><ele>286.0</ele><time>2026-04-26T13:00:01.942Z</time></trkpt><trkpt lat="41.7206961" lon="13.6204873"><ele>286.0</ele><time>2026-04-26T13:00:02.942Z</time></trkpt><trkpt lat="41.7205973" lon="13.6203834"><ele>286.25</ele><time>2026-04-26T13:00:03.949Z</time></trkpt><trkpt lat="41.7205021" lon="13.6202771"><ele>286.5</ele><time>2026-04-26T13:00:04.947Z</time></trkpt><trkpt lat="41.7204106" lon="13.6201677"><ele>286.75</ele><time>2026-04-26T13:00:05.944Z</time></trkpt><trkpt lat="41.7203258" lon="13.6200549"><ele>287.0</ele><time>2026-04-26T13:00:06.951Z</time></trkpt><trkpt lat="41.7202452" lon="13.6199379"><ele>287.0</ele><time>2026-04-26T13:00:07.946Z</time></trkpt><trkpt lat="41.7201681" lon="13.6198187"><ele>287.0</ele><time>2026-04-26T13:00:08.946Z</time></trkpt><trkpt lat="41.7200984" lon="13.6196945"><ele>287.0</ele><time>2026-04-26T13:00:09.952Z</time></trkpt><trkpt lat="41.7200337" lon="13.6195663"><ele>287.0</ele><time>2026-04-26T13:00:10.949Z</time></trkpt><trkpt lat="41.7199742" lon="13.619436"><ele>287.2</ele><time>2026-04-26T13:00:11.949Z</time></trkpt><trkpt lat="41.7199179" lon="13.6193086"><ele>287.4</ele><time>2026-04-26T13:00:12.945Z</time></trkpt><trkpt lat="41.7198694" lon="13.619185"><ele>287.6</ele><time>2026-04-26T13:00:13.946Z</time></trkpt><trkpt lat="41.7198303" lon="13.6190642"><ele>287.8</ele><time>2026-04-26T13:00:14.949Z</time></trkpt><trkpt lat="41.7197907" lon="13.6189652"><ele>288.0</ele><time>2026-04-26T13:00:15.945Z</time></trkpt><trkpt lat="41.7197675" lon="13.6188473"><ele>288.00000000000006</ele><time>2026-04-26T13:00:16.948Z</time></trkpt><trkpt lat="41.719766" lon="13.6187325"><ele>288.0</ele><time>2026-04-26T13:00:17.938Z</time></trkpt><trkpt lat="41.7197627" lon="13.6186231"><ele>288.0</ele><time>2026-04-26T13:00:18.938Z</time></trkpt><trkpt lat="41.7197809" lon="13.6185199"><ele>288.0</ele><time>2026-04-26T13:00:19.941Z</time></trkpt><trkpt lat="41.7197957" lon="13.6184275"><ele>288.0</ele><time>2026-04-26T13:00:20.947Z</time></trkpt><trkpt lat="41.7198221" lon="13.618346"><ele>288.00000000000006</ele><time>2026-04-26T13:00:21.941Z</time></trkpt><trkpt lat="41.7198471" lon="13.6182646"><ele>288.0</ele><time>2026-04-26T13:00:22.941Z</time></trkpt><trkpt lat="41.7198751" lon="13.6181846"><ele>287.8333333333333</ele><time>2026-04-26T13:00:23.942Z</time></trkpt><trkpt lat="41.7199391" lon="13.6180461"><ele>287.6666666666667</ele><time>2026-04-26T13:00:25.946Z</time></trkpt><trkpt lat="41.7199779" lon="13.6179771"><ele>287.5</ele><time>2026-04-26T13:00:26.943Z</time></trkpt><trkpt lat="41.7200223" lon="13.6179033"><ele>287.33333333333337</ele><time>2026-04-26T13:00:27.939Z</time></trkpt><trkpt lat="41.7200673" lon="13.6178201"><ele>287.1666666666667</ele><time>2026-04-26T13:00:28.946Z</time></trkpt><trkpt lat="41.7201192" lon="13.6177317"><ele>287.0</ele><time>2026-04-26T13:00:29.945Z</time></trkpt><trkpt lat="41.7201785" lon="13.6176386"><ele>287.0</ele><time>2026-04-26T13:00:30.945Z</time></trkpt><trkpt lat="41.7202466" lon="13.6175513"><ele>287.0</ele><time>2026-04-26T13:00:31.946Z</time></trkpt><trkpt lat="41.7203206" lon="13.6174745"><ele>287.0</ele><time>2026-04-26T13:00:32.951Z</time></trkpt><trkpt lat="41.7203952" lon="13.617404"><ele>287.0</ele><time>2026-04-26T13:00:33.945Z</time></trkpt><trkpt lat="41.7204666" lon="13.6173363"><ele>287.0</ele><time>2026-04-26T13:00:34.942Z</time></trkpt><trkpt lat="41.7205332" lon="13.617267"><ele>287.0</ele><time>2026-04-26T13:00:35.943Z</time></trkpt><trkpt lat="41.7205927" lon="13.6172028"><ele>287.0</ele><time>2026-04-26T13:00:36.942Z</time></trkpt><trkpt lat="41.7206429" lon="13.6171473"><ele>287.0</ele><time>2026-04-26T13:00:37.955Z</time></trkpt><trkpt lat="41.7207116" lon="13.6170244"><ele>287.0</ele><time>2026-04-26T13:00:39.948Z</time></trkpt><trkpt lat="41.7207019" lon="13.6168706"><ele>287.0</ele><time>2026-04-26T13:00:41.948Z</time></trkpt><trkpt lat="41.7206586" lon="13.6167945"><ele>287.0</ele><time>2026-04-26T13:00:42.946Z</time></trkpt><trkpt lat="41.7206124" lon="13.6167255"><ele>287.0</ele><time>2026-04-26T13:00:43.946Z</time></trkpt><trkpt lat="41.720562" lon="13.6166587"><ele>287.0</ele><time>2026-04-26T13:00:44.947Z</time></trkpt><trkpt lat="41.720513" lon="13.6165884"><ele>287.0</ele><time>2026-04-26T13:00:45.947Z</time></trkpt><trkpt lat="41.7204658" lon="13.616518"><ele>287.0</ele><time>2026-04-26T13:00:46.951Z</time></trkpt><trkpt lat="41.7204201" lon="13.6164487"><ele>287.0</ele><time>2026-04-26T13:00:47.96Z</time></trkpt><trkpt lat="41.7203735" lon="13.6163808"><ele>287.0</ele><time>2026-04-26T13:00:48.942Z</time></trkpt><trkpt lat="41.7203293" lon="13.6163169"><ele>287.0</ele><time>2026-04-26T13:00:49.956Z</time></trkpt><trkpt lat="41.7202424" lon="13.6162756"><ele>287.0</ele><time>2026-04-26T13:00:51.95Z</time></trkpt><trkpt lat="41.7201937" lon="13.6163555"><ele>287.0</ele><time>2026-04-26T13:00:53.959Z</time></trkpt><trkpt lat="41.7201875" lon="13.6164556"><ele>287.0</ele><time>2026-04-26T13:00:55.951Z</time></trkpt><trkpt lat="41.7201929" lon="13.6165708"><ele>287.0</ele><time>2026-04-26T13:00:58.962Z</time></trkpt><trkpt lat="41.7201996" lon="13.6167142"><ele>287.0</ele><time>2026-04-26T13:04:25.956Z</time></trkpt><trkpt lat="41.7202763" lon="13.6166859"><ele>287.0</ele><time>2026-04-26T13:04:28.963Z</time></trkpt><trkpt lat="41.7203412" lon="13.6166727"><ele>287.0</ele><time>2026-04-26T13:04:29.951Z</time></trkpt><trkpt lat="41.7204064" lon="13.6166384"><ele>287.0</ele><time>2026-04-26T13:04:31.949Z</time></trkpt><trkpt lat="41.7204427" lon="13.6165692"><ele>287.0</ele><time>2026-04-26T13:04:33.958Z</time></trkpt><trkpt lat="41.7203888" lon="13.6164233"><ele>287.0</ele><time>2026-04-26T13:04:35.955Z</time></trkpt><trkpt lat="41.7203204" lon="13.6163202"><ele>287.0</ele><time>2026-04-26T13:04:36.953Z</time></trkpt><trkpt lat="41.7202428" lon="13.6162042"><ele>286.75</ele><time>2026-04-26T13:04:37.961Z</time></trkpt><trkpt lat="41.7201502" lon="13.6160822"><ele>286.5</ele><time>2026-04-26T13:04:38.959Z</time></trkpt><trkpt lat="41.720055" lon="13.6159587"><ele>286.25</ele><time>2026-04-26T13:04:39.945Z</time></trkpt><trkpt lat="41.7199555" lon="13.6158319"><ele>286.0</ele><time>2026-04-26T13:04:40.951Z</time></trkpt><trkpt lat="41.7198563" lon="13.6157091"><ele>286.0</ele><time>2026-04-26T13:04:41.955Z</time></trkpt><trkpt lat="41.7197598" lon="13.6155928"><ele>286.0</ele><time>2026-04-26T13:04:42.949Z</time></trkpt><trkpt lat="41.719666" lon="13.6154769"><ele>286.0</ele><time>2026-04-26T13:04:43.953Z</time></trkpt><trkpt lat="41.7195722" lon="13.615362"><ele>286.0</ele><time>2026-04-26T13:04:44.951Z</time></trkpt><trkpt lat="41.719479" lon="13.615249"><ele>285.5</ele><time>2026-04-26T13:04:45.956Z</time></trkpt><trkpt lat="41.7193856" lon="13.6151368"><ele>285.0</ele><time>2026-04-26T13:04:46.954Z</time></trkpt><trkpt lat="41.7192948" lon="13.6150253"><ele>284.5</ele><time>2026-04-26T13:04:47.947Z</time></trkpt><trkpt lat="41.7192109" lon="13.6149213"><ele>284.0</ele><time>2026-04-26T13:04:48.956Z</time></trkpt><trkpt lat="41.7191411" lon="13.6148386"><ele>284.0</ele><time>2026-04-26T13:04:49.95Z</time></trkpt><trkpt lat="41.7190892" lon="13.6147771"><ele>284.0</ele><time>2026-04-26T13:04:50.949Z</time></trkpt><trkpt lat="41.7190237" lon="13.6146967"><ele>284.0</ele><time>2026-04-26T13:04:52.951Z</time></trkpt><trkpt lat="41.7189767" lon="13.6146377"><ele>284.0</ele><time>2026-04-26T13:04:55.963Z</time></trkpt><trkpt lat="41.718897" lon="13.6145536"><ele>284.0</ele><time>2026-04-26T13:04:59.955Z</time></trkpt><trkpt lat="41.7188504" lon="13.6144855"><ele>284.0</ele><time>2026-04-26T13:05:00.955Z</time></trkpt><trkpt lat="41.7187881" lon="13.6144085"><ele>283.8</ele><time>2026-04-26T13:05:01.966Z</time></trkpt><trkpt lat="41.7187147" lon="13.6143248"><ele>283.59999999999997</ele><time>2026-04-26T13:05:02.951Z</time></trkpt><trkpt lat="41.7186374" lon="13.6142256"><ele>283.4</ele><time>2026-04-26T13:05:03.957Z</time></trkpt><trkpt lat="41.718559" lon="13.6141063"><ele>283.2</ele><time>2026-04-26T13:05:04.958Z</time></trkpt><trkpt lat="41.7184813" lon="13.6139785"><ele>283.0</ele><time>2026-04-26T13:05:05.962Z</time></trkpt><trkpt lat="41.7184069" lon="13.6138429"><ele>283.0</ele><time>2026-04-26T13:05:06.967Z</time></trkpt><trkpt lat="41.718344" lon="13.6136977"><ele>283.0</ele><time>2026-04-26T13:05:07.968Z</time></trkpt><trkpt lat="41.7183022" lon="13.613556"><ele>283.0</ele><time>2026-04-26T13:05:08.967Z</time></trkpt><trkpt lat="41.7182791" lon="13.6134136"><ele>283.0</ele><time>2026-04-26T13:05:09.953Z</time></trkpt><trkpt lat="41.7182771" lon="13.6132696"><ele>283.0</ele><time>2026-04-26T13:05:10.95Z</time></trkpt><trkpt lat="41.7182887" lon="13.6131313"><ele>283.0</ele><time>2026-04-26T13:05:11.959Z</time></trkpt><trkpt lat="41.7183054" lon="13.6130038"><ele>283.0</ele><time>2026-04-26T13:05:12.951Z</time></trkpt><trkpt lat="41.7183227" lon="13.6128966"><ele>283.0</ele><time>2026-04-26T13:05:13.96Z</time></trkpt><trkpt lat="41.7183381" lon="13.6128109"><ele>283.0</ele><time>2026-04-26T13:05:14.959Z</time></trkpt><trkpt lat="41.7183355" lon="13.612657"><ele>282.8</ele><time>2026-04-26T13:05:16.949Z</time></trkpt><trkpt lat="41.7182855" lon="13.6124966"><ele>282.6</ele><time>2026-04-26T13:05:18.954Z</time></trkpt><trkpt lat="41.7182422" lon="13.6124075"><ele>282.4</ele><time>2026-04-26T13:05:19.96Z</time></trkpt><trkpt lat="41.7181865" lon="13.612313"><ele>282.2</ele><time>2026-04-26T13:05:20.957Z</time></trkpt><trkpt lat="41.7181198" lon="13.6122158"><ele>282.0</ele><time>2026-04-26T13:05:21.95Z</time></trkpt><trkpt lat="41.718044" lon="13.6121132"><ele>282.0</ele><time>2026-04-26T13:05:22.962Z</time></trkpt><trkpt lat="41.7179644" lon="13.6119989"><ele>282.0</ele><time>2026-04-26T13:05:23.962Z</time></trkpt><trkpt lat="41.7178842" lon="13.611871"><ele>282.0</ele><time>2026-04-26T13:05:24.954Z</time></trkpt><trkpt lat="41.7178022" lon="13.611736"><ele>282.0</ele><time>2026-04-26T13:05:25.957Z</time></trkpt><trkpt lat="41.7177165" lon="13.611597"><ele>282.25</ele><time>2026-04-26T13:05:26.959Z</time></trkpt><trkpt lat="41.7176249" lon="13.6114529"><ele>282.5</ele><time>2026-04-26T13:05:27.956Z</time></trkpt><trkpt lat="41.717529" lon="13.611306"><ele>282.75</ele><time>2026-04-26T13:05:28.956Z</time></trkpt><trkpt lat="41.7174312" lon="13.6111576"><ele>283.0</ele><time>2026-04-26T13:05:29.954Z</time></trkpt><trkpt lat="41.7173331" lon="13.6110069"><ele>283.3333333333333</ele><time>2026-04-26T13:05:30.955Z</time></trkpt><trkpt lat="41.7172338" lon="13.6108542"><ele>283.6666666666667</ele><time>2026-04-26T13:05:31.954Z</time></trkpt><trkpt lat="41.717135" lon="13.6106996"><ele>284.0</ele><time>2026-04-26T13:05:32.961Z</time></trkpt><trkpt lat="41.7170373" lon="13.6105437"><ele>284.0</ele><time>2026-04-26T13:05:33.965Z</time></trkpt><trkpt lat="41.7169409" lon="13.6103892"><ele>284.0</ele><time>2026-04-26T13:05:34.95Z</time></trkpt><trkpt lat="41.7168452" lon="13.6102377"><ele>284.0</ele><time>2026-04-26T13:05:35.956Z</time></trkpt><trkpt lat="41.7167494" lon="13.6100951"><ele>284.0</ele><time>2026-04-26T13:05:36.951Z</time></trkpt><trkpt lat="41.7166553" lon="13.6099474"><ele>284.0</ele><time>2026-04-26T13:05:37.96Z</time></trkpt><trkpt lat="41.7165602" lon="13.6098108"><ele>284.0</ele><time>2026-04-26T13:05:38.957Z</time></trkpt><trkpt lat="41.7164705" lon="13.6096721"><ele>284.0</ele><time>2026-04-26T13:05:39.949Z</time></trkpt><trkpt lat="41.7163839" lon="13.6095342"><ele>284.0</ele><time>2026-04-26T13:05:40.962Z</time></trkpt><trkpt lat="41.7163051" lon="13.6094051"><ele>284.0</ele><time>2026-04-26T13:05:41.954Z</time></trkpt><trkpt lat="41.7162259" lon="13.6092863"><ele>284.0</ele><time>2026-04-26T13:05:42.947Z</time></trkpt><trkpt lat="41.7161473" lon="13.6091698"><ele>284.0</ele><time>2026-04-26T13:05:43.962Z</time></trkpt><trkpt lat="41.7160724" lon="13.6090484"><ele>284.0</ele><time>2026-04-26T13:05:44.945Z</time></trkpt><trkpt lat="41.7159964" lon="13.608932"><ele>283.8</ele><time>2026-04-26T13:05:45.949Z</time></trkpt><trkpt lat="41.7159285" lon="13.6088125"><ele>283.59999999999997</ele><time>2026-04-26T13:05:46.951Z</time></trkpt><trkpt lat="41.7158629" lon="13.608695"><ele>283.4</ele><time>2026-04-26T13:05:47.954Z</time></trkpt><trkpt lat="41.7157977" lon="13.6085756"><ele>283.2</ele><time>2026-04-26T13:05:48.947Z</time></trkpt><trkpt lat="41.7157283" lon="13.6084518"><ele>283.0</ele><time>2026-04-26T13:05:49.961Z</time></trkpt><trkpt lat="41.7156566" lon="13.6083338"><ele>283.0</ele><time>2026-04-26T13:05:50.955Z</time></trkpt><trkpt lat="41.7155836" lon="13.6082199"><ele>283.0</ele><time>2026-04-26T13:05:51.962Z</time></trkpt><trkpt lat="41.7155065" lon="13.6081065"><ele>283.0</ele><time>2026-04-26T13:05:52.947Z</time></trkpt><trkpt lat="41.7154204" lon="13.6079938"><ele>283.0</ele><time>2026-04-26T13:05:53.955Z</time></trkpt><trkpt lat="41.7153318" lon="13.6078711"><ele>283.0</ele><time>2026-04-26T13:05:54.954Z</time></trkpt><trkpt lat="41.7152455" lon="13.6077337"><ele>283.0</ele><time>2026-04-26T13:05:55.957Z</time></trkpt><trkpt lat="41.7151584" lon="13.6075859"><ele>283.0</ele><time>2026-04-26T13:05:56.957Z</time></trkpt><trkpt lat="41.7150655" lon="13.6074367"><ele>283.0</ele><time>2026-04-26T13:05:57.948Z</time></trkpt><trkpt lat="41.7149698" lon="13.6072882"><ele>283.0</ele><time>2026-04-26T13:05:58.95Z</time></trkpt><trkpt lat="41.7148714" lon="13.6071398"><ele>283.0</ele><time>2026-04-26T13:05:59.957Z</time></trkpt><trkpt lat="41.7147732" lon="13.6069886"><ele>283.0</ele><time>2026-04-26T13:06:00.954Z</time></trkpt><trkpt lat="41.7146755" lon="13.6068341"><ele>283.0</ele><time>2026-04-26T13:06:01.958Z</time></trkpt><trkpt lat="41.7145786" lon="13.6066822"><ele>283.0</ele><time>2026-04-26T13:06:02.955Z</time></trkpt><trkpt lat="41.7144805" lon="13.6065276"><ele>283.0</ele><time>2026-04-26T13:06:03.957Z</time></trkpt><trkpt lat="41.7143807" lon="13.6063722"><ele>283.0</ele><time>2026-04-26T13:06:04.953Z</time></trkpt><trkpt lat="41.7142795" lon="13.6062193"><ele>283.66666666666663</ele><time>2026-04-26T13:06:05.955Z</time></trkpt><trkpt lat="41.7141764" lon="13.6060665"><ele>284.3333333333333</ele><time>2026-04-26T13:06:06.949Z</time></trkpt><trkpt lat="41.7140736" lon="13.6059116"><ele>285.0</ele><time>2026-04-26T13:06:07.949Z</time></trkpt><trkpt lat="41.7139669" lon="13.605761"><ele>285.0</ele><time>2026-04-26T13:06:08.948Z</time></trkpt><trkpt lat="41.7138645" lon="13.6055905"><ele>285.0</ele><time>2026-04-26T13:06:09.958Z</time></trkpt><trkpt lat="41.7137626" lon="13.6054236"><ele>285.0</ele><time>2026-04-26T13:06:10.965Z</time></trkpt><trkpt lat="41.7136556" lon="13.6052612"><ele>284.0</ele><time>2026-04-26T13:06:11.952Z</time></trkpt><trkpt lat="41.7135533" lon="13.6050973"><ele>283.0</ele><time>2026-04-26T13:06:12.955Z</time></trkpt><trkpt lat="41.7134453" lon="13.6049393"><ele>282.0</ele><time>2026-04-26T13:06:13.955Z</time></trkpt><trkpt lat="41.7133403" lon="13.604786"><ele>282.0</ele><time>2026-04-26T13:06:14.95Z</time></trkpt><trkpt lat="41.7132398" lon="13.6046357"><ele>282.0</ele><time>2026-04-26T13:06:15.953Z</time></trkpt><trkpt lat="41.7131412" lon="13.6044827"><ele>282.0</ele><time>2026-04-26T13:06:16.955Z</time></trkpt><trkpt lat="41.7130465" lon="13.6043263"><ele>281.75</ele><time>2026-04-26T13:06:17.958Z</time></trkpt><trkpt lat="41.7129508" lon="13.6041672"><ele>281.5</ele><time>2026-04-26T13:06:18.955Z</time></trkpt><trkpt lat="41.7128599" lon="13.6040063"><ele>281.25</ele><time>2026-04-26T13:06:19.957Z</time></trkpt><trkpt lat="41.7127632" lon="13.6038665"><ele>281.0</ele><time>2026-04-26T13:06:20.957Z</time></trkpt><trkpt lat="41.7126679" lon="13.6037046"><ele>280.75</ele><time>2026-04-26T13:06:21.956Z</time></trkpt><trkpt lat="41.7125762" lon="13.6035503"><ele>280.5</ele><time>2026-04-26T13:06:22.954Z</time></trkpt><trkpt lat="41.7124755" lon="13.603408"><ele>280.25</ele><time>2026-04-26T13:06:23.955Z</time></trkpt><trkpt lat="41.7123773" lon="13.6032483"><ele>280.0</ele><time>2026-04-26T13:06:24.946Z</time></trkpt><trkpt lat="41.7122746" lon="13.6030957"><ele>280.0</ele><time>2026-04-26T13:06:25.95Z</time></trkpt><trkpt lat="41.712169" lon="13.602942"><ele>280.0</ele><time>2026-04-26T13:06:26.949Z</time></trkpt><trkpt lat="41.7120643" lon="13.6027861"><ele>280.0</ele><time>2026-04-26T13:06:27.95Z</time></trkpt><trkpt lat="41.7119615" lon="13.6026313"><ele>280.0</ele><time>2026-04-26T13:06:28.955Z</time></trkpt><trkpt lat="41.7118611" lon="13.602474"><ele>280.0</ele><time>2026-04-26T13:06:29.948Z</time></trkpt><trkpt lat="41.7117633" lon="13.6023163"><ele>280.0</ele><time>2026-04-26T13:06:30.959Z</time></trkpt><trkpt lat="41.7116665" lon="13.6021559"><ele>279.66666666666663</ele><time>2026-04-26T13:06:31.952Z</time></trkpt><trkpt lat="41.7115684" lon="13.6019979"><ele>279.3333333333333</ele><time>2026-04-26T13:06:32.948Z</time></trkpt><trkpt lat="41.71147" lon="13.6018449"><ele>279.0</ele><time>2026-04-26T13:06:33.952Z</time></trkpt><trkpt lat="41.7113742" lon="13.6016954"><ele>279.0</ele><time>2026-04-26T13:06:34.952Z</time></trkpt><trkpt lat="41.7112802" lon="13.60155"><ele>279.0</ele><time>2026-04-26T13:06:35.961Z</time></trkpt><trkpt lat="41.7111883" lon="13.6014061"><ele>279.0</ele><time>2026-04-26T13:06:36.953Z</time></trkpt><trkpt lat="41.7111" lon="13.601263"><ele>279.0</ele><time>2026-04-26T13:06:37.959Z</time></trkpt><trkpt lat="41.7110115" lon="13.601124"><ele>279.0</ele><time>2026-04-26T13:06:38.955Z</time></trkpt><trkpt lat="41.7109229" lon="13.6009882"><ele>279.0</ele><time>2026-04-26T13:06:39.962Z</time></trkpt><trkpt lat="41.7108356" lon="13.6008551"><ele>279.0</ele><time>2026-04-26T13:06:40.95Z</time></trkpt><trkpt lat="41.7107468" lon="13.6007224"><ele>279.0</ele><time>2026-04-26T13:06:41.969Z</time></trkpt><trkpt lat="41.7106583" lon="13.6005904"><ele>279.0</ele><time>2026-04-26T13:06:42.951Z</time></trkpt><trkpt lat="41.7105712" lon="13.6004565"><ele>279.0</ele><time>2026-04-26T13:06:43.959Z</time></trkpt><trkpt lat="41.7104859" lon="13.6003302"><ele>279.0</ele><time>2026-04-26T13:06:44.95Z</time></trkpt><trkpt lat="41.7104086" lon="13.6001924"><ele>279.0</ele><time>2026-04-26T13:06:45.962Z</time></trkpt><trkpt lat="41.7103371" lon="13.6000638"><ele>278.75</ele><time>2026-04-26T13:06:46.949Z</time></trkpt><trkpt lat="41.7102597" lon="13.5999547"><ele>278.5</ele><time>2026-04-26T13:06:47.949Z</time></trkpt><trkpt lat="41.7101822" lon="13.5998471"><ele>278.25</ele><time>2026-04-26T13:06:48.951Z</time></trkpt><trkpt lat="41.7101053" lon="13.5997364"><ele>278.0</ele><time>2026-04-26T13:06:49.951Z</time></trkpt><trkpt lat="41.7100258" lon="13.5996166"><ele>277.75</ele><time>2026-04-26T13:06:50.951Z</time></trkpt><trkpt lat="41.7099504" lon="13.5994919"><ele>277.5</ele><time>2026-04-26T13:06:51.95Z</time></trkpt><trkpt lat="41.7098708" lon="13.5993752"><ele>277.25</ele><time>2026-04-26T13:06:52.954Z</time></trkpt><trkpt lat="41.7097915" lon="13.5992483"><ele>277.0</ele><time>2026-04-26T13:06:53.95Z</time></trkpt><trkpt lat="41.7097131" lon="13.5991215"><ele>277.0</ele><time>2026-04-26T13:06:54.947Z</time></trkpt><trkpt lat="41.7096324" lon="13.5989944"><ele>277.0</ele><time>2026-04-26T13:06:55.951Z</time></trkpt><trkpt lat="41.7095517" lon="13.5988699"><ele>277.0</ele><time>2026-04-26T13:06:56.945Z</time></trkpt><trkpt lat="41.7094747" lon="13.5987449"><ele>277.0</ele><time>2026-04-26T13:06:57.956Z</time></trkpt><trkpt lat="41.7093932" lon="13.5986209"><ele>276.75</ele><time>2026-04-26T13:06:58.964Z</time></trkpt><trkpt lat="41.7093075" lon="13.5984932"><ele>276.5</ele><time>2026-04-26T13:06:59.953Z</time></trkpt><trkpt lat="41.7092143" lon="13.5983581"><ele>276.25</ele><time>2026-04-26T13:07:00.95Z</time></trkpt><trkpt lat="41.7091146" lon="13.5982131"><ele>276.0</ele><time>2026-04-26T13:07:01.946Z</time></trkpt><trkpt lat="41.7090123" lon="13.5980556"><ele>276.0</ele><time>2026-04-26T13:07:02.955Z</time></trkpt><trkpt lat="41.7089078" lon="13.5978861"><ele>276.0</ele><time>2026-04-26T13:07:03.962Z</time></trkpt><trkpt lat="41.7088035" lon="13.5977113"><ele>276.0</ele><time>2026-04-26T13:07:04.95Z</time></trkpt><trkpt lat="41.7086971" lon="13.5975395"><ele>276.0</ele><time>2026-04-26T13:07:05.957Z</time></trkpt><trkpt lat="41.708589" lon="13.5973669"><ele>276.0</ele><time>2026-04-26T13:07:06.96Z</time></trkpt><trkpt lat="41.7084786" lon="13.5971956"><ele>276.0</ele><time>2026-04-26T13:07:07.949Z</time></trkpt><trkpt lat="41.7083698" lon="13.5970225"><ele>276.0</ele><time>2026-04-26T13:07:08.946Z</time></trkpt><trkpt lat="41.7082583" lon="13.5968494"><ele>276.0</ele><time>2026-04-26T13:07:09.962Z</time></trkpt><trkpt lat="41.7081473" lon="13.5966769"><ele>276.0</ele><time>2026-04-26T13:07:10.947Z</time></trkpt><trkpt lat="41.7080342" lon="13.5965045"><ele>276.0</ele><time>2026-04-26T13:07:11.948Z</time></trkpt><trkpt lat="41.7079207" lon="13.5963305"><ele>276.0</ele><time>2026-04-26T13:07:12.956Z</time></trkpt><trkpt lat="41.7078056" lon="13.5961553"><ele>276.0</ele><time>2026-04-26T13:07:13.959Z</time></trkpt><trkpt lat="41.7076907" lon="13.5959788"><ele>276.0</ele><time>2026-04-26T13:07:14.951Z</time></trkpt><trkpt lat="41.7075763" lon="13.5957982"><ele>276.0</ele><time>2026-04-26T13:07:15.952Z</time></trkpt><trkpt lat="41.7074614" lon="13.5956147"><ele>276.0</ele><time>2026-04-26T13:07:16.953Z</time></trkpt><trkpt lat="41.7073454" lon="13.5954293"><ele>276.0</ele><time>2026-04-26T13:07:17.951Z</time></trkpt><trkpt lat="41.707229" lon="13.5952436"><ele>276.0</ele><time>2026-04-26T13:07:18.945Z</time></trkpt><trkpt lat="41.707112" lon="13.5950583"><ele>276.0</ele><time>2026-04-26T13:07:19.952Z</time></trkpt><trkpt lat="41.706994" lon="13.5948761"><ele>275.6666666666667</ele><time>2026-04-26T13:07:20.951Z</time></trkpt><trkpt lat="41.7068787" lon="13.5946985"><ele>275.33333333333337</ele><time>2026-04-26T13:07:21.957Z</time></trkpt><trkpt lat="41.7067662" lon="13.5945243"><ele>275.0</ele><time>2026-04-26T13:07:22.947Z</time></trkpt><trkpt lat="41.7066551" lon="13.5943525"><ele>275.0</ele><time>2026-04-26T13:07:23.95Z</time></trkpt><trkpt lat="41.7065442" lon="13.5941818"><ele>275.0</ele><time>2026-04-26T13:07:24.95Z</time></trkpt><trkpt lat="41.706433" lon="13.5940131"><ele>275.0</ele><time>2026-04-26T13:07:25.95Z</time></trkpt><trkpt lat="41.7063233" lon="13.5938437"><ele>275.0</ele><time>2026-04-26T13:07:26.948Z</time></trkpt><trkpt lat="41.7062137" lon="13.5936753"><ele>275.0</ele><time>2026-04-26T13:07:27.948Z</time></trkpt><trkpt lat="41.7061047" lon="13.5935071"><ele>275.0</ele><time>2026-04-26T13:07:28.954Z</time></trkpt><trkpt lat="41.7059963" lon="13.5933422"><ele>275.0</ele><time>2026-04-26T13:07:29.962Z</time></trkpt><trkpt lat="41.7058897" lon="13.593181"><ele>275.0</ele><time>2026-04-26T13:07:30.951Z</time></trkpt><trkpt lat="41.7057853" lon="13.5930228"><ele>275.0</ele><time>2026-04-26T13:07:31.948Z</time></trkpt><trkpt lat="41.7056793" lon="13.5928586"><ele>274.6666666666667</ele><time>2026-04-26T13:07:32.953Z</time></trkpt><trkpt lat="41.7055702" lon="13.5926875"><ele>274.3333333333333</ele><time>2026-04-26T13:07:33.96Z</time></trkpt><trkpt lat="41.7054577" lon="13.5925097"><ele>274.0</ele><time>2026-04-26T13:07:34.948Z</time></trkpt><trkpt lat="41.7053429" lon="13.592328"><ele>274.3333333333333</ele><time>2026-04-26T13:07:35.951Z</time></trkpt><trkpt lat="41.7052258" lon="13.5921434"><ele>274.6666666666667</ele><time>2026-04-26T13:07:36.957Z</time></trkpt><trkpt lat="41.7051071" lon="13.5919578"><ele>275.0</ele><time>2026-04-26T13:07:37.959Z</time></trkpt><trkpt lat="41.7049868" lon="13.5917727"><ele>274.33333333333337</ele><time>2026-04-26T13:07:38.946Z</time></trkpt><trkpt lat="41.7048657" lon="13.591588"><ele>273.6666666666667</ele><time>2026-04-26T13:07:39.954Z</time></trkpt><trkpt lat="41.7047452" lon="13.591404"><ele>273.0</ele><time>2026-04-26T13:07:40.952Z</time></trkpt><trkpt lat="41.7046264" lon="13.5912189"><ele>273.0</ele><time>2026-04-26T13:07:41.964Z</time></trkpt><trkpt lat="41.704508" lon="13.591033"><ele>273.0</ele><time>2026-04-26T13:07:43.038Z</time></trkpt><trkpt lat="41.7043871" lon="13.5908488"><ele>273.0</ele><time>2026-04-26T13:07:43.958Z</time></trkpt><trkpt lat="41.7042671" lon="13.5906647"><ele>272.6666666666667</ele><time>2026-04-26T13:07:44.951Z</time></trkpt><trkpt lat="41.7041518" lon="13.5904824"><ele>272.33333333333337</ele><time>2026-04-26T13:07:45.959Z</time></trkpt><trkpt lat="41.7040452" lon="13.5903083"><ele>272.0</ele><time>2026-04-26T13:07:46.955Z</time></trkpt><trkpt lat="41.7039512" lon="13.5901469"><ele>272.0</ele><time>2026-04-26T13:07:47.955Z</time></trkpt><trkpt lat="41.7038723" lon="13.5900003"><ele>272.0</ele><time>2026-04-26T13:07:48.948Z</time></trkpt><trkpt lat="41.7038084" lon="13.5898665"><ele>272.0</ele><time>2026-04-26T13:07:49.954Z</time></trkpt><trkpt lat="41.7037568" lon="13.5897404"><ele>272.0</ele><time>2026-04-26T13:07:50.96Z</time></trkpt><trkpt lat="41.7037081" lon="13.5896197"><ele>272.0</ele><time>2026-04-26T13:07:51.961Z</time></trkpt><trkpt lat="41.7036465" lon="13.5895099"><ele>272.0</ele><time>2026-04-26T13:07:52.955Z</time></trkpt><trkpt lat="41.7035669" lon="13.5894122"><ele>272.0</ele><time>2026-04-26T13:07:53.963Z</time></trkpt><trkpt lat="41.7034772" lon="13.5893212"><ele>272.0</ele><time>2026-04-26T13:07:54.962Z</time></trkpt><trkpt lat="41.7033865" lon="13.5892216"><ele>272.0</ele><time>2026-04-26T13:07:55.951Z</time></trkpt><trkpt lat="41.7032965" lon="13.589108"><ele>272.0</ele><time>2026-04-26T13:07:56.952Z</time></trkpt><trkpt lat="41.703205" lon="13.5889838"><ele>272.0</ele><time>2026-04-26T13:07:57.958Z</time></trkpt><trkpt lat="41.7031109" lon="13.5888511"><ele>272.0</ele><time>2026-04-26T13:07:58.955Z</time></trkpt><trkpt lat="41.7030164" lon="13.5887089"><ele>272.0</ele><time>2026-04-26T13:07:59.963Z</time></trkpt><trkpt lat="41.7029206" lon="13.58856"><ele>272.0</ele><time>2026-04-26T13:08:00.948Z</time></trkpt><trkpt lat="41.7028212" lon="13.5884066"><ele>272.0</ele><time>2026-04-26T13:08:01.952Z</time></trkpt><trkpt lat="41.702715" lon="13.5882416"><ele>272.0</ele><time>2026-04-26T13:08:02.947Z</time></trkpt><trkpt lat="41.7025998" lon="13.5880618"><ele>272.33333333333337</ele><time>2026-04-26T13:08:03.952Z</time></trkpt><trkpt lat="41.7024763" lon="13.5878679"><ele>272.6666666666667</ele><time>2026-04-26T13:08:04.954Z</time></trkpt><trkpt lat="41.7023446" lon="13.5876605"><ele>273.0</ele><time>2026-04-26T13:08:05.952Z</time></trkpt><trkpt lat="41.7022098" lon="13.5874474"><ele>273.0</ele><time>2026-04-26T13:08:06.953Z</time></trkpt><trkpt lat="41.7020732" lon="13.5872336"><ele>273.0</ele><time>2026-04-26T13:08:07.962Z</time></trkpt><trkpt lat="41.7019338" lon="13.5870195"><ele>273.0</ele><time>2026-04-26T13:08:08.943Z</time></trkpt><trkpt lat="41.7017949" lon="13.5868054"><ele>273.0</ele><time>2026-04-26T13:08:09.948Z</time></trkpt><trkpt lat="41.7016571" lon="13.5865909"><ele>273.0</ele><time>2026-04-26T13:08:10.948Z</time></trkpt><trkpt lat="41.7015211" lon="13.586376"><ele>273.0</ele><time>2026-04-26T13:08:11.951Z</time></trkpt><trkpt lat="41.7013846" lon="13.5861602"><ele>273.0</ele><time>2026-04-26T13:08:12.947Z</time></trkpt><trkpt lat="41.7012466" lon="13.585944"><ele>273.0</ele><time>2026-04-26T13:08:13.959Z</time></trkpt><trkpt lat="41.7011072" lon="13.5857271"><ele>273.0</ele><time>2026-04-26T13:08:14.945Z</time></trkpt><trkpt lat="41.7009661" lon="13.5855075"><ele>272.3333333333333</ele><time>2026-04-26T13:08:15.963Z</time></trkpt><trkpt lat="41.7008235" lon="13.5852847"><ele>271.66666666666663</ele><time>2026-04-26T13:08:16.949Z</time></trkpt><trkpt lat="41.7006792" lon="13.5850596"><ele>271.0</ele><time>2026-04-26T13:08:17.963Z</time></trkpt><trkpt lat="41.700534" lon="13.5848341"><ele>271.0</ele><time>2026-04-26T13:08:18.944Z</time></trkpt><trkpt lat="41.7003898" lon="13.5846092"><ele>271.0</ele><time>2026-04-26T13:08:19.948Z</time></trkpt><trkpt lat="41.7002461" lon="13.5843843"><ele>271.0</ele><time>2026-04-26T13:08:20.952Z</time></trkpt><trkpt lat="41.700102" lon="13.5841598"><ele>270.66666666666663</ele><time>2026-04-26T13:08:21.948Z</time></trkpt><trkpt lat="41.6999581" lon="13.5839357"><ele>270.3333333333333</ele><time>2026-04-26T13:08:22.955Z</time></trkpt><trkpt lat="41.6998151" lon="13.5837109"><ele>270.0</ele><time>2026-04-26T13:08:23.948Z</time></trkpt><trkpt lat="41.6996719" lon="13.583487"><ele>270.0</ele><time>2026-04-26T13:08:24.952Z</time></trkpt><trkpt lat="41.6995283" lon="13.5832628"><ele>270.0</ele><time>2026-04-26T13:08:25.952Z</time></trkpt><trkpt lat="41.6993821" lon="13.5830369"><ele>270.0</ele><time>2026-04-26T13:08:26.947Z</time></trkpt><trkpt lat="41.6992335" lon="13.5828099"><ele>270.0</ele><time>2026-04-26T13:08:27.953Z</time></trkpt><trkpt lat="41.6990848" lon="13.5825819"><ele>270.0</ele><time>2026-04-26T13:08:28.953Z</time></trkpt><trkpt lat="41.6989373" lon="13.5823536"><ele>270.0</ele><time>2026-04-26T13:08:29.955Z</time></trkpt><trkpt lat="41.6987906" lon="13.5821251"><ele>270.0</ele><time>2026-04-26T13:08:30.944Z</time></trkpt><trkpt lat="41.6986458" lon="13.5818998"><ele>270.0</ele><time>2026-04-26T13:08:31.954Z</time></trkpt><trkpt lat="41.6985027" lon="13.5816775"><ele>270.0</ele><time>2026-04-26T13:08:32.955Z</time></trkpt><trkpt lat="41.6983608" lon="13.5814589"><ele>270.0</ele><time>2026-04-26T13:08:33.961Z</time></trkpt><trkpt lat="41.698222" lon="13.5812452"><ele>270.0</ele><time>2026-04-26T13:08:34.953Z</time></trkpt><trkpt lat="41.6980881" lon="13.5810404"><ele>270.0</ele><time>2026-04-26T13:08:35.966Z</time></trkpt><trkpt lat="41.6979602" lon="13.5808427"><ele>270.0</ele><time>2026-04-26T13:08:36.958Z</time></trkpt><trkpt lat="41.6978418" lon="13.5806532"><ele>270.0</ele><time>2026-04-26T13:08:37.96Z</time></trkpt><trkpt lat="41.6977308" lon="13.5804749"><ele>270.25</ele><time>2026-04-26T13:08:38.967Z</time></trkpt><trkpt lat="41.6976246" lon="13.5803089"><ele>270.5</ele><time>2026-04-26T13:08:39.962Z</time></trkpt><trkpt lat="41.697527" lon="13.580159"><ele>270.75</ele><time>2026-04-26T13:08:40.967Z</time></trkpt><trkpt lat="41.6974398" lon="13.5800256"><ele>271.0</ele><time>2026-04-26T13:08:41.979Z</time></trkpt><trkpt lat="41.697361" lon="13.5799085"><ele>271.0</ele><time>2026-04-26T13:08:42.949Z</time></trkpt><trkpt lat="41.6972891" lon="13.579803"><ele>271.0</ele><time>2026-04-26T13:08:43.952Z</time></trkpt><trkpt lat="41.6972281" lon="13.5797055"><ele>271.0</ele><time>2026-04-26T13:08:44.954Z</time></trkpt><trkpt lat="41.6971784" lon="13.5796104"><ele>271.0</ele><time>2026-04-26T13:08:45.953Z</time></trkpt><trkpt lat="41.6971377" lon="13.5795164"><ele>271.0</ele><time>2026-04-26T13:08:46.951Z</time></trkpt><trkpt lat="41.697103" lon="13.5794208"><ele>271.0</ele><time>2026-04-26T13:08:47.945Z</time></trkpt><trkpt lat="41.6970678" lon="13.5793293"><ele>271.16666666666663</ele><time>2026-04-26T13:08:48.95Z</time></trkpt><trkpt lat="41.6970227" lon="13.5792556"><ele>271.3333333333333</ele><time>2026-04-26T13:08:49.948Z</time></trkpt><trkpt lat="41.6969085" lon="13.5792341"><ele>271.5</ele><time>2026-04-26T13:08:51.957Z</time></trkpt><trkpt lat="41.6968355" lon="13.5792709"><ele>271.6666666666667</ele><time>2026-04-26T13:08:52.959Z</time></trkpt><trkpt lat="41.6967638" lon="13.5792983"><ele>271.83333333333337</ele><time>2026-04-26T13:08:53.947Z</time></trkpt><trkpt lat="41.6966849" lon="13.5793193"><ele>272.0</ele><time>2026-04-26T13:08:54.955Z</time></trkpt><trkpt lat="41.6965882" lon="13.5793339"><ele>272.0</ele><time>2026-04-26T13:08:55.946Z</time></trkpt><trkpt lat="41.6964767" lon="13.5793388"><ele>272.0</ele><time>2026-04-26T13:08:56.958Z</time></trkpt><trkpt lat="41.6963402" lon="13.5793454"><ele>272.0</ele><time>2026-04-26T13:08:57.968Z</time></trkpt><trkpt lat="41.6961812" lon="13.5793495"><ele>272.0</ele><time>2026-04-26T13:08:58.953Z</time></trkpt><trkpt lat="41.6960092" lon="13.5793461"><ele>271.6666666666667</ele><time>2026-04-26T13:08:59.955Z</time></trkpt><trkpt lat="41.6958256" lon="13.5793471"><ele>271.3333333333333</ele><time>2026-04-26T13:09:00.951Z</time></trkpt><trkpt lat="41.6956351" lon="13.5793564"><ele>271.0</ele><time>2026-04-26T13:09:01.951Z</time></trkpt><trkpt lat="41.6954447" lon="13.5793695"><ele>271.0</ele><time>2026-04-26T13:09:02.951Z</time></trkpt><trkpt lat="41.6952545" lon="13.5793822"><ele>271.0</ele><time>2026-04-26T13:09:03.959Z</time></trkpt><trkpt lat="41.6950667" lon="13.5793958"><ele>271.0</ele><time>2026-04-26T13:09:04.956Z</time></trkpt><trkpt lat="41.69488" lon="13.579409"><ele>270.66666666666663</ele><time>2026-04-26T13:09:05.958Z</time></trkpt><trkpt lat="41.6946959" lon="13.5794233"><ele>270.3333333333333</ele><time>2026-04-26T13:09:06.947Z</time></trkpt><trkpt lat="41.6945159" lon="13.5794388"><ele>270.0</ele><time>2026-04-26T13:09:07.95Z</time></trkpt><trkpt lat="41.6943377" lon="13.579452"><ele>269.6666666666667</ele><time>2026-04-26T13:09:08.946Z</time></trkpt><trkpt lat="41.6941601" lon="13.579464"><ele>269.33333333333337</ele><time>2026-04-26T13:09:09.955Z</time></trkpt><trkpt lat="41.6939837" lon="13.5794771"><ele>269.0</ele><time>2026-04-26T13:09:10.947Z</time></trkpt><trkpt lat="41.6938077" lon="13.5794905"><ele>269.0</ele><time>2026-04-26T13:09:11.959Z</time></trkpt><trkpt lat="41.6936334" lon="13.5795051"><ele>269.0</ele><time>2026-04-26T13:09:12.957Z</time></trkpt><trkpt lat="41.6934603" lon="13.5795206"><ele>269.0</ele><time>2026-04-26T13:09:13.952Z</time></trkpt><trkpt lat="41.6932885" lon="13.579538"><ele>269.0</ele><time>2026-04-26T13:09:14.979Z</time></trkpt><trkpt lat="41.6931151" lon="13.5795506"><ele>269.0</ele><time>2026-04-26T13:09:15.954Z</time></trkpt><trkpt lat="41.6929403" lon="13.5795613"><ele>269.0</ele><time>2026-04-26T13:09:16.947Z</time></trkpt><trkpt lat="41.6927662" lon="13.5795728"><ele>269.33333333333337</ele><time>2026-04-26T13:09:17.951Z</time></trkpt><trkpt lat="41.6925939" lon="13.5795839"><ele>269.6666666666667</ele><time>2026-04-26T13:09:18.946Z</time></trkpt><trkpt lat="41.6924198" lon="13.5795956"><ele>270.0</ele><time>2026-04-26T13:09:19.972Z</time></trkpt><trkpt lat="41.6922534" lon="13.5796069"><ele>270.0</ele><time>2026-04-26T13:09:20.954Z</time></trkpt><trkpt lat="41.6920853" lon="13.5796201"><ele>270.0</ele><time>2026-04-26T13:09:21.961Z</time></trkpt><trkpt lat="41.6919189" lon="13.5796339"><ele>270.0</ele><time>2026-04-26T13:09:22.951Z</time></trkpt><trkpt lat="41.6917512" lon="13.5796444"><ele>270.0</ele><time>2026-04-26T13:09:23.951Z</time></trkpt><trkpt lat="41.6915836" lon="13.5796558"><ele>270.0</ele><time>2026-04-26T13:09:24.957Z</time></trkpt><trkpt lat="41.6914176" lon="13.5796687"><ele>270.0</ele><time>2026-04-26T13:09:25.958Z</time></trkpt><trkpt lat="41.6912498" lon="13.5796829"><ele>270.0</ele><time>2026-04-26T13:09:26.965Z</time></trkpt><trkpt lat="41.6910817" lon="13.5796971"><ele>270.0</ele><time>2026-04-26T13:09:27.951Z</time></trkpt><trkpt lat="41.690917" lon="13.5797143"><ele>270.0</ele><time>2026-04-26T13:09:28.948Z</time></trkpt><trkpt lat="41.6907536" lon="13.5797301"><ele>270.0</ele><time>2026-04-26T13:09:29.951Z</time></trkpt><trkpt lat="41.6905944" lon="13.5797449"><ele>270.0</ele><time>2026-04-26T13:09:30.943Z</time></trkpt><trkpt lat="41.6904401" lon="13.5797572"><ele>270.0</ele><time>2026-04-26T13:09:31.943Z</time></trkpt><trkpt lat="41.6902823" lon="13.5797656"><ele>270.0</ele><time>2026-04-26T13:09:32.953Z</time></trkpt><trkpt lat="41.690117" lon="13.5797755"><ele>270.0</ele><time>2026-04-26T13:09:33.948Z</time></trkpt><trkpt lat="41.6899639" lon="13.5797876"><ele>270.0</ele><time>2026-04-26T13:09:34.957Z</time></trkpt><trkpt lat="41.6898207" lon="13.5798007"><ele>270.0</ele><time>2026-04-26T13:09:35.955Z</time></trkpt><trkpt lat="41.6896867" lon="13.5798151"><ele>270.0</ele><time>2026-04-26T13:09:36.954Z</time></trkpt><trkpt lat="41.6895611" lon="13.5798233"><ele>270.0</ele><time>2026-04-26T13:09:37.966Z</time></trkpt><trkpt lat="41.6894452" lon="13.579831"><ele>270.0</ele><time>2026-04-26T13:09:38.952Z</time></trkpt><trkpt lat="41.6893377" lon="13.5798398"><ele>270.0</ele><time>2026-04-26T13:09:39.95Z</time></trkpt><trkpt lat="41.6892429" lon="13.5798472"><ele>270.0</ele><time>2026-04-26T13:09:40.95Z</time></trkpt><trkpt lat="41.6891567" lon="13.5798523"><ele>270.0</ele><time>2026-04-26T13:09:41.954Z</time></trkpt><trkpt lat="41.6890822" lon="13.5798611"><ele>270.0</ele><time>2026-04-26T13:09:42.96Z</time></trkpt><trkpt lat="41.6890099" lon="13.5798683"><ele>270.0</ele><time>2026-04-26T13:09:43.96Z</time></trkpt><trkpt lat="41.6889353" lon="13.5798743"><ele>270.0</ele><time>2026-04-26T13:09:44.946Z</time></trkpt><trkpt lat="41.6888561" lon="13.5798808"><ele>270.0</ele><time>2026-04-26T13:09:45.96Z</time></trkpt><trkpt lat="41.6887717" lon="13.5798878"><ele>270.0</ele><time>2026-04-26T13:09:46.942Z</time></trkpt><trkpt lat="41.6886838" lon="13.579894"><ele>270.0</ele><time>2026-04-26T13:09:47.957Z</time></trkpt><trkpt lat="41.6885925" lon="13.5799063"><ele>270.0</ele><time>2026-04-26T13:09:48.946Z</time></trkpt><trkpt lat="41.6884863" lon="13.579924"><ele>270.0</ele><time>2026-04-26T13:09:49.956Z</time></trkpt><trkpt lat="41.6883628" lon="13.5799382"><ele>269.5</ele><time>2026-04-26T13:09:50.962Z</time></trkpt><trkpt lat="41.6882316" lon="13.5799445"><ele>269.0</ele><time>2026-04-26T13:09:51.948Z</time></trkpt><trkpt lat="41.6881" lon="13.5799461"><ele>268.5</ele><time>2026-04-26T13:09:52.946Z</time></trkpt><trkpt lat="41.6879707" lon="13.5799499"><ele>268.0</ele><time>2026-04-26T13:09:53.968Z</time></trkpt><trkpt lat="41.6878504" lon="13.5799579"><ele>268.0</ele><time>2026-04-26T13:09:54.958Z</time></trkpt><trkpt lat="41.68774" lon="13.5799655"><ele>268.0</ele><time>2026-04-26T13:09:55.947Z</time></trkpt><trkpt lat="41.6876416" lon="13.5799717"><ele>268.0</ele><time>2026-04-26T13:09:56.951Z</time></trkpt><trkpt lat="41.6875536" lon="13.5799772"><ele>268.0</ele><time>2026-04-26T13:09:57.956Z</time></trkpt><trkpt lat="41.68747" lon="13.5799839"><ele>268.0</ele><time>2026-04-26T13:09:58.952Z</time></trkpt><trkpt lat="41.6873894" lon="13.5799917"><ele>268.0</ele><time>2026-04-26T13:09:59.95Z</time></trkpt><trkpt lat="41.6873106" lon="13.579999"><ele>268.0</ele><time>2026-04-26T13:10:00.945Z</time></trkpt><trkpt lat="41.687235" lon="13.5800052"><ele>268.0</ele><time>2026-04-26T13:10:01.964Z</time></trkpt><trkpt lat="41.6871604" lon="13.5800103"><ele>268.0</ele><time>2026-04-26T13:10:02.954Z</time></trkpt><trkpt lat="41.6870851" lon="13.5800141"><ele>268.0</ele><time>2026-04-26T13:10:03.959Z</time></trkpt><trkpt lat="41.6870077" lon="13.5800164"><ele>268.0</ele><time>2026-04-26T13:10:04.951Z</time></trkpt><trkpt lat="41.686927" lon="13.5800219"><ele>268.16666666666663</ele><time>2026-04-26T13:10:05.946Z</time></trkpt><trkpt lat="41.6868434" lon="13.5800299"><ele>268.3333333333333</ele><time>2026-04-26T13:10:06.952Z</time></trkpt><trkpt lat="41.6867579" lon="13.5800378"><ele>268.5</ele><time>2026-04-26T13:10:07.954Z</time></trkpt><trkpt lat="41.6866716" lon="13.5800471"><ele>268.6666666666667</ele><time>2026-04-26T13:10:08.944Z</time></trkpt><trkpt lat="41.6865849" lon="13.5800518"><ele>268.83333333333337</ele><time>2026-04-26T13:10:09.959Z</time></trkpt><trkpt lat="41.686501" lon="13.5800527"><ele>269.0</ele><time>2026-04-26T13:10:10.956Z</time></trkpt><trkpt lat="41.6864167" lon="13.5800563"><ele>269.0</ele><time>2026-04-26T13:10:11.947Z</time></trkpt><trkpt lat="41.6863357" lon="13.5800609"><ele>269.0</ele><time>2026-04-26T13:10:12.95Z</time></trkpt><trkpt lat="41.6862666" lon="13.5800662"><ele>269.0</ele><time>2026-04-26T13:10:13.947Z</time></trkpt><trkpt lat="41.6861615" lon="13.5800705"><ele>269.0</ele><time>2026-04-26T13:10:15.942Z</time></trkpt><trkpt lat="41.6860645" lon="13.5800755"><ele>269.0</ele><time>2026-04-26T13:10:17.941Z</time></trkpt><trkpt lat="41.6859465" lon="13.5800865"><ele>269.4</ele><time>2026-04-26T13:10:19.952Z</time></trkpt><trkpt lat="41.685883" lon="13.5800887"><ele>269.79999999999995</ele><time>2026-04-26T13:10:20.945Z</time></trkpt><trkpt lat="41.6857683" lon="13.580092"><ele>270.20000000000005</ele><time>2026-04-26T13:10:22.947Z</time></trkpt><trkpt lat="41.685684" lon="13.5800998"><ele>270.6</ele><time>2026-04-26T13:10:24.959Z</time></trkpt><trkpt lat="41.6856125" lon="13.5800991"><ele>271.0</ele><time>2026-04-26T13:10:26.955Z</time></trkpt><trkpt lat="41.685481" lon="13.5801102"><ele>271.0</ele><time>2026-04-26T13:10:28.943Z</time></trkpt><trkpt lat="41.6854005" lon="13.5801201"><ele>271.0</ele><time>2026-04-26T13:10:29.945Z</time></trkpt><trkpt lat="41.6853184" lon="13.5801261"><ele>271.0</ele><time>2026-04-26T13:10:30.951Z</time></trkpt><trkpt lat="41.6852236" lon="13.5801416"><ele>271.0</ele><time>2026-04-26T13:10:31.958Z</time></trkpt><trkpt lat="41.6851265" lon="13.5801512"><ele>271.0</ele><time>2026-04-26T13:10:32.946Z</time></trkpt><trkpt lat="41.6850203" lon="13.5801624"><ele>270.75</ele><time>2026-04-26T13:10:33.943Z</time></trkpt><trkpt lat="41.6849107" lon="13.5801674"><ele>270.5</ele><time>2026-04-26T13:10:34.95Z</time></trkpt><trkpt lat="41.6847934" lon="13.580172"><ele>270.25</ele><time>2026-04-26T13:10:35.962Z</time></trkpt><trkpt lat="41.6846734" lon="13.580183"><ele>270.0</ele><time>2026-04-26T13:10:36.953Z</time></trkpt><trkpt lat="41.6845595" lon="13.580196"><ele>270.0</ele><time>2026-04-26T13:10:37.944Z</time></trkpt><trkpt lat="41.6844564" lon="13.5801962"><ele>270.0</ele><time>2026-04-26T13:10:38.95Z</time></trkpt><trkpt lat="41.684364" lon="13.5801712"><ele>270.0</ele><time>2026-04-26T13:10:39.954Z</time></trkpt><trkpt lat="41.6842801" lon="13.5801057"><ele>270.0</ele><time>2026-04-26T13:10:40.94Z</time></trkpt><trkpt lat="41.6841992" lon="13.5799992"><ele>270.0</ele><time>2026-04-26T13:10:41.955Z</time></trkpt><trkpt lat="41.6841163" lon="13.579867"><ele>269.5</ele><time>2026-04-26T13:10:42.942Z</time></trkpt><trkpt lat="41.6840297" lon="13.5797217"><ele>269.0</ele><time>2026-04-26T13:10:43.941Z</time></trkpt><trkpt lat="41.683938" lon="13.5795715"><ele>268.5</ele><time>2026-04-26T13:10:44.949Z</time></trkpt><trkpt lat="41.6838476" lon="13.5794129"><ele>268.0</ele><time>2026-04-26T13:10:45.951Z</time></trkpt><trkpt lat="41.6837579" lon="13.5792571"><ele>267.5</ele><time>2026-04-26T13:10:46.953Z</time></trkpt><trkpt lat="41.6836741" lon="13.5791041"><ele>267.0</ele><time>2026-04-26T13:10:47.95Z</time></trkpt><trkpt lat="41.6835958" lon="13.578959"><ele>266.5</ele><time>2026-04-26T13:10:48.953Z</time></trkpt><trkpt lat="41.6835252" lon="13.5788288"><ele>266.0</ele><time>2026-04-26T13:10:49.959Z</time></trkpt><trkpt lat="41.6834683" lon="13.5787203"><ele>265.0</ele><time>2026-04-26T13:10:50.953Z</time></trkpt><trkpt lat="41.6834302" lon="13.5786239"><ele>264.0</ele><time>2026-04-26T13:10:51.954Z</time></trkpt><trkpt lat="41.6833839" lon="13.5785346"><ele>263.0</ele><time>2026-04-26T13:10:52.961Z</time></trkpt><trkpt lat="41.6833231" lon="13.5784461"><ele>262.0</ele><time>2026-04-26T13:10:53.954Z</time></trkpt><trkpt lat="41.6832516" lon="13.5783382"><ele>261.0</ele><time>2026-04-26T13:10:54.95Z</time></trkpt><trkpt lat="41.6831729" lon="13.5782088"><ele>261.0</ele><time>2026-04-26T13:10:55.954Z</time></trkpt><trkpt lat="41.6830913" lon="13.5780699"><ele>261.0</ele><time>2026-04-26T13:10:56.946Z</time></trkpt><trkpt lat="41.6830079" lon="13.5779219"><ele>261.0</ele><time>2026-04-26T13:10:57.943Z</time></trkpt><trkpt lat="41.6829274" lon="13.5777708"><ele>261.0</ele><time>2026-04-26T13:10:58.953Z</time></trkpt><trkpt lat="41.6828485" lon="13.5776206"><ele>260.75</ele><time>2026-04-26T13:10:59.952Z</time></trkpt><trkpt lat="41.682769" lon="13.5774681"><ele>260.5</ele><time>2026-04-26T13:11:00.959Z</time></trkpt><trkpt lat="41.6826751" lon="13.5773319"><ele>260.25</ele><time>2026-04-26T13:11:01.954Z</time></trkpt><trkpt lat="41.6825743" lon="13.5772145"><ele>260.0</ele><time>2026-04-26T13:11:02.949Z</time></trkpt><trkpt lat="41.6824708" lon="13.5770958"><ele>258.25</ele><time>2026-04-26T13:11:03.986Z</time></trkpt><trkpt lat="41.6823635" lon="13.57699"><ele>256.5</ele><time>2026-04-26T13:11:04.953Z</time></trkpt><trkpt lat="41.6822549" lon="13.5768902"><ele>254.75</ele><time>2026-04-26T13:11:05.953Z</time></trkpt><trkpt lat="41.6821398" lon="13.5767913"><ele>253.0</ele><time>2026-04-26T13:11:06.954Z</time></trkpt><trkpt lat="41.6820192" lon="13.576693"><ele>254.0</ele><time>2026-04-26T13:11:07.949Z</time></trkpt><trkpt lat="41.6818912" lon="13.576613"><ele>255.0</ele><time>2026-04-26T13:11:08.956Z</time></trkpt><trkpt lat="41.681758" lon="13.5765388"><ele>256.0</ele><time>2026-04-26T13:11:09.96Z</time></trkpt><trkpt lat="41.6816152" lon="13.5764781"><ele>257.0</ele><time>2026-04-26T13:11:10.943Z</time></trkpt><trkpt lat="41.6814776" lon="13.5764203"><ele>257.0</ele><time>2026-04-26T13:11:11.948Z</time></trkpt><trkpt lat="41.681334" lon="13.576378"><ele>257.0</ele><time>2026-04-26T13:11:12.951Z</time></trkpt><trkpt lat="41.6811837" lon="13.5763534"><ele>257.0</ele><time>2026-04-26T13:11:13.962Z</time></trkpt><trkpt lat="41.681029" lon="13.5763418"><ele>258.6666666666667</ele><time>2026-04-26T13:11:14.952Z</time></trkpt><trkpt lat="41.6808711" lon="13.576351"><ele>260.3333333333333</ele><time>2026-04-26T13:11:15.956Z</time></trkpt><trkpt lat="41.6807109" lon="13.576371"><ele>262.0</ele><time>2026-04-26T13:11:16.949Z</time></trkpt><trkpt lat="41.680549" lon="13.5763938"><ele>262.0</ele><time>2026-04-26T13:11:17.947Z</time></trkpt><trkpt lat="41.6803933" lon="13.5764123"><ele>262.0</ele><time>2026-04-26T13:11:18.948Z</time></trkpt><trkpt lat="41.6802404" lon="13.5764141"><ele>262.0</ele><time>2026-04-26T13:11:19.948Z</time></trkpt><trkpt lat="41.6800933" lon="13.5763821"><ele>261.3333333333333</ele><time>2026-04-26T13:11:20.95Z</time></trkpt><trkpt lat="41.6799513" lon="13.5763168"><ele>260.6666666666667</ele><time>2026-04-26T13:11:21.956Z</time></trkpt><trkpt lat="41.6798107" lon="13.5762312"><ele>260.0</ele><time>2026-04-26T13:11:22.949Z</time></trkpt><trkpt lat="41.6796603" lon="13.5761362"><ele>256.33333333333337</ele><time>2026-04-26T13:11:23.948Z</time></trkpt><trkpt lat="41.679499" lon="13.5760244"><ele>252.66666666666669</ele><time>2026-04-26T13:11:24.951Z</time></trkpt><trkpt lat="41.6793359" lon="13.575908"><ele>249.0</ele><time>2026-04-26T13:11:25.956Z</time></trkpt><trkpt lat="41.6791884" lon="13.5758038"><ele>249.0</ele><time>2026-04-26T13:11:26.95Z</time></trkpt><trkpt lat="41.6790415" lon="13.5757268"><ele>249.0</ele><time>2026-04-26T13:11:27.946Z</time></trkpt><trkpt lat="41.6788877" lon="13.5756985"><ele>249.0</ele><time>2026-04-26T13:11:28.951Z</time></trkpt><trkpt lat="41.6787274" lon="13.5757102"><ele>247.33333333333331</ele><time>2026-04-26T13:11:29.946Z</time></trkpt><trkpt lat="41.6785534" lon="13.5757341"><ele>245.66666666666666</ele><time>2026-04-26T13:11:30.956Z</time></trkpt><trkpt lat="41.6783683" lon="13.575763"><ele>244.0</ele><time>2026-04-26T13:11:31.952Z</time></trkpt><trkpt lat="41.6781743" lon="13.5757909"><ele>244.0</ele><time>2026-04-26T13:11:32.946Z</time></trkpt><trkpt lat="41.6779748" lon="13.5758186"><ele>244.0</ele><time>2026-04-26T13:11:33.954Z</time></trkpt><trkpt lat="41.6777731" lon="13.5758476"><ele>244.0</ele><time>2026-04-26T13:11:34.956Z</time></trkpt><trkpt lat="41.677575" lon="13.5758744"><ele>242.0</ele><time>2026-04-26T13:11:35.951Z</time></trkpt><trkpt lat="41.6773844" lon="13.5759001"><ele>240.0</ele><time>2026-04-26T13:11:36.95Z</time></trkpt><trkpt lat="41.6772047" lon="13.5759309"><ele>238.0</ele><time>2026-04-26T13:11:37.943Z</time></trkpt><trkpt lat="41.6770369" lon="13.5759848"><ele>239.0</ele><time>2026-04-26T13:11:38.95Z</time></trkpt><trkpt lat="41.6768832" lon="13.5760655"><ele>240.0</ele><time>2026-04-26T13:11:39.95Z</time></trkpt><trkpt lat="41.676747" lon="13.5761631"><ele>241.0</ele><time>2026-04-26T13:11:40.949Z</time></trkpt><trkpt lat="41.6766293" lon="13.5762549"><ele>240.99999999999997</ele><time>2026-04-26T13:11:41.943Z</time></trkpt><trkpt lat="41.6765315" lon="13.5763292"><ele>241.0</ele><time>2026-04-26T13:11:42.947Z</time></trkpt><trkpt lat="41.6764477" lon="13.5763812"><ele>241.0</ele><time>2026-04-26T13:11:43.952Z</time></trkpt><trkpt lat="41.6763722" lon="13.5764124"><ele>241.0</ele><time>2026-04-26T13:11:44.946Z</time></trkpt><trkpt lat="41.6762939" lon="13.5764308"><ele>240.99999999999997</ele><time>2026-04-26T13:11:45.955Z</time></trkpt><trkpt lat="41.676215" lon="13.5764283"><ele>241.0</ele><time>2026-04-26T13:11:46.959Z</time></trkpt><trkpt lat="41.6761412" lon="13.5764108"><ele>239.66666666666666</ele><time>2026-04-26T13:11:47.964Z</time></trkpt><trkpt lat="41.6760931" lon="13.5763388"><ele>238.33333333333331</ele><time>2026-04-26T13:11:48.946Z</time></trkpt><trkpt lat="41.6760705" lon="13.5762525"><ele>237.0</ele><time>2026-04-26T13:11:49.962Z</time></trkpt><trkpt lat="41.6760723" lon="13.5761552"><ele>235.66666666666669</ele><time>2026-04-26T13:11:50.951Z</time></trkpt><trkpt lat="41.6761116" lon="13.576049"><ele>234.33333333333334</ele><time>2026-04-26T13:11:51.952Z</time></trkpt><trkpt lat="41.6761734" lon="13.5759518"><ele>233.0</ele><time>2026-04-26T13:11:52.945Z</time></trkpt><trkpt lat="41.6762443" lon="13.5758647"><ele>233.00000000000003</ele><time>2026-04-26T13:11:53.953Z</time></trkpt><trkpt lat="41.6763161" lon="13.575781"><ele>233.0</ele><time>2026-04-26T13:11:54.956Z</time></trkpt><trkpt lat="41.6763909" lon="13.5756956"><ele>233.0</ele><time>2026-04-26T13:11:55.954Z</time></trkpt><trkpt lat="41.6764648" lon="13.5756168"><ele>233.0</ele><time>2026-04-26T13:11:56.952Z</time></trkpt><trkpt lat="41.6765316" lon="13.575548"><ele>233.00000000000003</ele><time>2026-04-26T13:11:57.956Z</time></trkpt><trkpt lat="41.6765902" lon="13.5754894"><ele>233.0</ele><time>2026-04-26T13:11:58.956Z</time></trkpt><trkpt lat="41.6766453" lon="13.5754339"><ele>233.00000000000003</ele><time>2026-04-26T13:11:59.949Z</time></trkpt><trkpt lat="41.6766995" lon="13.5753792"><ele>233.0</ele><time>2026-04-26T13:12:00.95Z</time></trkpt><trkpt lat="41.6767509" lon="13.5753228"><ele>233.0</ele><time>2026-04-26T13:12:01.949Z</time></trkpt><trkpt lat="41.6768021" lon="13.5752677"><ele>233.0</ele><time>2026-04-26T13:12:02.95Z</time></trkpt><trkpt lat="41.6769025" lon="13.5751742"><ele>233.00000000000003</ele><time>2026-04-26T13:12:04.954Z</time></trkpt><trkpt lat="41.6770006" lon="13.5750802"><ele>233.0</ele><time>2026-04-26T13:12:06.946Z</time></trkpt><trkpt lat="41.6770933" lon="13.5749716"><ele>231.8</ele><time>2026-04-26T13:12:08.955Z</time></trkpt><trkpt lat="41.6771618" lon="13.5748585"><ele>230.60000000000002</ele><time>2026-04-26T13:12:10.946Z</time></trkpt><trkpt lat="41.677188" lon="13.5747396"><ele>229.39999999999998</ele><time>2026-04-26T13:12:12.957Z</time></trkpt><trkpt lat="41.6771906" lon="13.5746271"><ele>228.2</ele><time>2026-04-26T13:12:14.954Z</time></trkpt><trkpt lat="41.6771761" lon="13.5745112"><ele>227.0</ele><time>2026-04-26T13:12:16.956Z</time></trkpt><trkpt lat="41.6771578" lon="13.5743707"><ele>226.2</ele><time>2026-04-26T13:12:18.952Z</time></trkpt><trkpt lat="41.6771386" lon="13.5742001"><ele>225.39999999999998</ele><time>2026-04-26T13:12:20.952Z</time></trkpt><trkpt lat="41.677123" lon="13.574103"><ele>224.60000000000002</ele><time>2026-04-26T13:12:21.954Z</time></trkpt><trkpt lat="41.6771083" lon="13.5740169"><ele>223.8</ele><time>2026-04-26T13:12:22.95Z</time></trkpt><trkpt lat="41.677088" lon="13.5738695"><ele>223.0</ele><time>2026-04-26T13:12:24.941Z</time></trkpt><trkpt lat="41.6770654" lon="13.573737"><ele>222.49999999999997</ele><time>2026-04-26T13:12:26.954Z</time></trkpt><trkpt lat="41.6770415" lon="13.5735815"><ele>222.0</ele><time>2026-04-26T13:12:28.95Z</time></trkpt><trkpt lat="41.6770297" lon="13.5734905"><ele>221.5</ele><time>2026-04-26T13:12:29.956Z</time></trkpt><trkpt lat="41.6770176" lon="13.5733942"><ele>221.0</ele><time>2026-04-26T13:12:30.947Z</time></trkpt><trkpt lat="41.6770053" lon="13.5732927"><ele>220.49999999999997</ele><time>2026-04-26T13:12:31.958Z</time></trkpt><trkpt lat="41.6769907" lon="13.5731875"><ele>220.0</ele><time>2026-04-26T13:12:32.955Z</time></trkpt><trkpt lat="41.6769755" lon="13.5730774"><ele>219.99999999999997</ele><time>2026-04-26T13:12:33.962Z</time></trkpt><trkpt lat="41.676958" lon="13.5729646"><ele>220.0</ele><time>2026-04-26T13:12:34.945Z</time></trkpt><trkpt lat="41.6769407" lon="13.5728532"><ele>220.0</ele><time>2026-04-26T13:12:35.952Z</time></trkpt><trkpt lat="41.6769247" lon="13.5727459"><ele>220.0</ele><time>2026-04-26T13:12:36.946Z</time></trkpt><trkpt lat="41.6769026" lon="13.5726233"><ele>219.99999999999997</ele><time>2026-04-26T13:12:37.963Z</time></trkpt><trkpt lat="41.6768887" lon="13.5724939"><ele>220.0</ele><time>2026-04-26T13:12:38.948Z</time></trkpt><trkpt lat="41.6768714" lon="13.5723648"><ele>220.33333333333331</ele><time>2026-04-26T13:12:39.96Z</time></trkpt><trkpt lat="41.6768551" lon="13.5722394"><ele>220.66666666666666</ele><time>2026-04-26T13:12:40.957Z</time></trkpt><trkpt lat="41.6768344" lon="13.5721231"><ele>221.0</ele><time>2026-04-26T13:12:41.95Z</time></trkpt><trkpt lat="41.6768176" lon="13.5720155"><ele>221.33333333333331</ele><time>2026-04-26T13:12:42.952Z</time></trkpt><trkpt lat="41.6768014" lon="13.571917"><ele>221.66666666666666</ele><time>2026-04-26T13:12:43.951Z</time></trkpt><trkpt lat="41.6767836" lon="13.5718164"><ele>222.0</ele><time>2026-04-26T13:12:44.958Z</time></trkpt><trkpt lat="41.6767755" lon="13.5717105"><ele>222.0</ele><time>2026-04-26T13:12:45.956Z</time></trkpt><trkpt lat="41.6767649" lon="13.5716112"><ele>222.0</ele><time>2026-04-26T13:12:46.95Z</time></trkpt><trkpt lat="41.6767535" lon="13.5715095"><ele>222.0</ele><time>2026-04-26T13:12:47.955Z</time></trkpt><trkpt lat="41.6767387" lon="13.5714098"><ele>222.0</ele><time>2026-04-26T13:12:48.951Z</time></trkpt><trkpt lat="41.6767174" lon="13.5713083"><ele>222.0</ele><time>2026-04-26T13:12:49.953Z</time></trkpt><trkpt lat="41.6767019" lon="13.5712064"><ele>222.0</ele><time>2026-04-26T13:12:50.945Z</time></trkpt><trkpt lat="41.6766852" lon="13.5711049"><ele>222.33333333333334</ele><time>2026-04-26T13:12:51.959Z</time></trkpt><trkpt lat="41.6766708" lon="13.5710038"><ele>222.66666666666669</ele><time>2026-04-26T13:12:52.963Z</time></trkpt><trkpt lat="41.6766597" lon="13.5709138"><ele>223.0</ele><time>2026-04-26T13:12:53.952Z</time></trkpt><trkpt lat="41.6766519" lon="13.5708299"><ele>223.33333333333334</ele><time>2026-04-26T13:12:54.949Z</time></trkpt><trkpt lat="41.6766537" lon="13.5706736"><ele>223.66666666666669</ele><time>2026-04-26T13:12:56.944Z</time></trkpt><trkpt lat="41.6766547" lon="13.5705892"><ele>224.0</ele><time>2026-04-26T13:12:57.992Z</time></trkpt><trkpt lat="41.6766423" lon="13.5704939"><ele>224.0</ele><time>2026-04-26T13:12:58.95Z</time></trkpt><trkpt lat="41.6766169" lon="13.5703979"><ele>223.99999999999997</ele><time>2026-04-26T13:12:59.948Z</time></trkpt><trkpt lat="41.6765818" lon="13.5702491"><ele>223.99999999999997</ele><time>2026-04-26T13:13:00.949Z</time></trkpt><trkpt lat="41.6765606" lon="13.5701117"><ele>224.0</ele><time>2026-04-26T13:13:01.972Z</time></trkpt><trkpt lat="41.6765406" lon="13.5699686"><ele>224.0</ele><time>2026-04-26T13:13:02.944Z</time></trkpt><trkpt lat="41.6765174" lon="13.5698324"><ele>224.0</ele><time>2026-04-26T13:13:03.953Z</time></trkpt><trkpt lat="41.6764965" lon="13.5696921"><ele>223.99999999999997</ele><time>2026-04-26T13:13:04.943Z</time></trkpt><trkpt lat="41.6764746" lon="13.5695457"><ele>223.99999999999997</ele><time>2026-04-26T13:13:05.953Z</time></trkpt><trkpt lat="41.676453" lon="13.5694017"><ele>224.0</ele><time>2026-04-26T13:13:06.951Z</time></trkpt><trkpt lat="41.676431" lon="13.569255"><ele>224.0</ele><time>2026-04-26T13:13:07.95Z</time></trkpt><trkpt lat="41.6764097" lon="13.5691135"><ele>223.2</ele><time>2026-04-26T13:13:08.947Z</time></trkpt><trkpt lat="41.6763888" lon="13.5689711"><ele>222.39999999999998</ele><time>2026-04-26T13:13:09.957Z</time></trkpt><trkpt lat="41.6763676" lon="13.5688325"><ele>221.6</ele><time>2026-04-26T13:13:10.956Z</time></trkpt><trkpt lat="41.6763476" lon="13.5686961"><ele>220.8</ele><time>2026-04-26T13:13:11.953Z</time></trkpt><trkpt lat="41.6763297" lon="13.5685632"><ele>220.0</ele><time>2026-04-26T13:13:12.951Z</time></trkpt><trkpt lat="41.6763143" lon="13.5684272"><ele>220.0</ele><time>2026-04-26T13:13:13.958Z</time></trkpt><trkpt lat="41.6762957" lon="13.5682826"><ele>220.0</ele><time>2026-04-26T13:13:14.955Z</time></trkpt><trkpt lat="41.6762771" lon="13.5681363"><ele>220.0</ele><time>2026-04-26T13:13:15.965Z</time></trkpt><trkpt lat="41.6762587" lon="13.567995"><ele>220.0</ele><time>2026-04-26T13:13:16.953Z</time></trkpt><trkpt lat="41.6762415" lon="13.5678613"><ele>220.0</ele><time>2026-04-26T13:13:17.949Z</time></trkpt><trkpt lat="41.6762217" lon="13.5677292"><ele>220.0</ele><time>2026-04-26T13:13:18.962Z</time></trkpt><trkpt lat="41.6761992" lon="13.5675987"><ele>220.0</ele><time>2026-04-26T13:13:19.965Z</time></trkpt><trkpt lat="41.6761779" lon="13.5674677"><ele>220.0</ele><time>2026-04-26T13:13:20.959Z</time></trkpt><trkpt lat="41.6761549" lon="13.5673294"><ele>220.0</ele><time>2026-04-26T13:13:21.958Z</time></trkpt><trkpt lat="41.6761302" lon="13.5671858"><ele>220.0</ele><time>2026-04-26T13:13:22.952Z</time></trkpt><trkpt lat="41.6761062" lon="13.5670413"><ele>222.5</ele><time>2026-04-26T13:13:23.95Z</time></trkpt><trkpt lat="41.6760828" lon="13.5668918"><ele>225.0</ele><time>2026-04-26T13:13:24.948Z</time></trkpt><trkpt lat="41.676064" lon="13.5667394"><ele>227.5</ele><time>2026-04-26T13:13:25.96Z</time></trkpt><trkpt lat="41.6760502" lon="13.5665891"><ele>230.0</ele><time>2026-04-26T13:13:26.953Z</time></trkpt><trkpt lat="41.6760371" lon="13.5664431"><ele>230.0</ele><time>2026-04-26T13:13:27.946Z</time></trkpt><trkpt lat="41.6760238" lon="13.5663031"><ele>230.0</ele><time>2026-04-26T13:13:28.95Z</time></trkpt><trkpt lat="41.6760149" lon="13.5661716"><ele>230.0</ele><time>2026-04-26T13:13:29.956Z</time></trkpt><trkpt lat="41.6760073" lon="13.5660474"><ele>230.0</ele><time>2026-04-26T13:13:30.95Z</time></trkpt><trkpt lat="41.6760012" lon="13.5659316"><ele>230.0</ele><time>2026-04-26T13:13:31.957Z</time></trkpt><trkpt lat="41.6759923" lon="13.5658213"><ele>228.4</ele><time>2026-04-26T13:13:32.954Z</time></trkpt><trkpt lat="41.6759826" lon="13.5657148"><ele>226.8</ele><time>2026-04-26T13:13:33.954Z</time></trkpt><trkpt lat="41.6759734" lon="13.5656116"><ele>225.2</ele><time>2026-04-26T13:13:34.959Z</time></trkpt><trkpt lat="41.6759671" lon="13.5655147"><ele>223.6</ele><time>2026-04-26T13:13:35.963Z</time></trkpt><trkpt lat="41.6759584" lon="13.5653564"><ele>222.0</ele><time>2026-04-26T13:13:37.949Z</time></trkpt><trkpt lat="41.6759615" lon="13.5652135"><ele>221.6</ele><time>2026-04-26T13:13:39.957Z</time></trkpt><trkpt lat="41.6760277" lon="13.5651105"><ele>221.2</ele><time>2026-04-26T13:13:41.953Z</time></trkpt><trkpt lat="41.6760948" lon="13.5650726"><ele>220.8</ele><time>2026-04-26T13:13:42.947Z</time></trkpt><trkpt lat="41.6761803" lon="13.5650388"><ele>220.4</ele><time>2026-04-26T13:13:43.954Z</time></trkpt><trkpt lat="41.6762807" lon="13.5649834"><ele>220.0</ele><time>2026-04-26T13:13:44.953Z</time></trkpt><trkpt lat="41.6764049" lon="13.5649139"><ele>218.33333333333331</ele><time>2026-04-26T13:13:45.961Z</time></trkpt><trkpt lat="41.6765474" lon="13.5648329"><ele>216.66666666666669</ele><time>2026-04-26T13:13:46.952Z</time></trkpt><trkpt lat="41.6767019" lon="13.564746"><ele>215.0</ele><time>2026-04-26T13:13:47.951Z</time></trkpt><trkpt lat="41.6768632" lon="13.5646511"><ele>214.66666666666669</ele><time>2026-04-26T13:13:48.945Z</time></trkpt><trkpt lat="41.6770294" lon="13.5645514"><ele>214.33333333333331</ele><time>2026-04-26T13:13:49.957Z</time></trkpt><trkpt lat="41.6771992" lon="13.5644495"><ele>214.0</ele><time>2026-04-26T13:13:50.946Z</time></trkpt><trkpt lat="41.6773668" lon="13.5643515"><ele>214.0</ele><time>2026-04-26T13:13:51.957Z</time></trkpt><trkpt lat="41.6775334" lon="13.564251"><ele>214.0</ele><time>2026-04-26T13:13:52.952Z</time></trkpt><trkpt lat="41.6777" lon="13.5641529"><ele>214.0</ele><time>2026-04-26T13:13:53.957Z</time></trkpt><trkpt lat="41.6778645" lon="13.5640562"><ele>215.0</ele><time>2026-04-26T13:13:54.949Z</time></trkpt><trkpt lat="41.6780222" lon="13.5639611"><ele>216.0</ele><time>2026-04-26T13:13:55.955Z</time></trkpt><trkpt lat="41.6781717" lon="13.5638744"><ele>217.0</ele><time>2026-04-26T13:13:56.95Z</time></trkpt><trkpt lat="41.6783049" lon="13.5637981"><ele>217.0</ele><time>2026-04-26T13:13:57.952Z</time></trkpt><trkpt lat="41.6784192" lon="13.5637331"><ele>217.0</ele><time>2026-04-26T13:13:58.954Z</time></trkpt><trkpt lat="41.6785184" lon="13.5636775"><ele>217.0</ele><time>2026-04-26T13:13:59.957Z</time></trkpt><trkpt lat="41.6786086" lon="13.5636261"><ele>217.0</ele><time>2026-04-26T13:14:00.951Z</time></trkpt><trkpt lat="41.6787004" lon="13.5635709"><ele>217.0</ele><time>2026-04-26T13:14:01.953Z</time></trkpt><trkpt lat="41.6787989" lon="13.5635106"><ele>217.5</ele><time>2026-04-26T13:14:02.991Z</time></trkpt><trkpt lat="41.6789049" lon="13.5634465"><ele>218.0</ele><time>2026-04-26T13:14:03.951Z</time></trkpt><trkpt lat="41.6790151" lon="13.5633815"><ele>218.5</ele><time>2026-04-26T13:14:04.954Z</time></trkpt><trkpt lat="41.6791262" lon="13.5633135"><ele>219.0</ele><time>2026-04-26T13:14:05.958Z</time></trkpt><trkpt lat="41.6792386" lon="13.5632435"><ele>219.0</ele><time>2026-04-26T13:14:06.957Z</time></trkpt><trkpt lat="41.6793508" lon="13.5631744"><ele>219.0</ele><time>2026-04-26T13:14:07.954Z</time></trkpt><trkpt lat="41.6794655" lon="13.5631062"><ele>219.0</ele><time>2026-04-26T13:14:08.953Z</time></trkpt><trkpt lat="41.6795762" lon="13.5630437"><ele>219.0</ele><time>2026-04-26T13:14:09.959Z</time></trkpt><trkpt lat="41.6796787" lon="13.5629921"><ele>219.0</ele><time>2026-04-26T13:14:10.963Z</time></trkpt><trkpt lat="41.6797663" lon="13.562955"><ele>218.99999999999997</ele><time>2026-04-26T13:14:11.954Z</time></trkpt><trkpt lat="41.6798806" lon="13.5629365"><ele>218.99999999999997</ele><time>2026-04-26T13:14:13.952Z</time></trkpt><trkpt lat="41.6799709" lon="13.5628908"><ele>219.0</ele><time>2026-04-26T13:14:15.955Z</time></trkpt><trkpt lat="41.6800043" lon="13.5627765"><ele>219.0</ele><time>2026-04-26T13:14:17.95Z</time></trkpt><trkpt lat="41.6799795" lon="13.5626784"><ele>219.0</ele><time>2026-04-26T13:14:18.953Z</time></trkpt><trkpt lat="41.6799346" lon="13.56256"><ele>219.0</ele><time>2026-04-26T13:14:19.954Z</time></trkpt><trkpt lat="41.6798897" lon="13.5624265"><ele>219.0</ele><time>2026-04-26T13:14:20.952Z</time></trkpt><trkpt lat="41.6798504" lon="13.5622636"><ele>219.0</ele><time>2026-04-26T13:14:21.948Z</time></trkpt><trkpt lat="41.6798112" lon="13.5620848"><ele>218.66666666666669</ele><time>2026-04-26T13:14:22.965Z</time></trkpt><trkpt lat="41.6797704" lon="13.5618968"><ele>218.33333333333334</ele><time>2026-04-26T13:14:23.957Z</time></trkpt><trkpt lat="41.6797272" lon="13.5616967"><ele>218.0</ele><time>2026-04-26T13:14:24.947Z</time></trkpt><trkpt lat="41.6796846" lon="13.5614738"><ele>218.0</ele><time>2026-04-26T13:14:25.952Z</time></trkpt><trkpt lat="41.6796404" lon="13.5612414"><ele>218.0</ele><time>2026-04-26T13:14:26.952Z</time></trkpt><trkpt lat="41.6795965" lon="13.5610048"><ele>218.0</ele><time>2026-04-26T13:14:27.948Z</time></trkpt><trkpt lat="41.6795527" lon="13.5607622"><ele>217.66666666666669</ele><time>2026-04-26T13:14:28.956Z</time></trkpt><trkpt lat="41.679507" lon="13.560508"><ele>217.33333333333331</ele><time>2026-04-26T13:14:29.962Z</time></trkpt><trkpt lat="41.6794591" lon="13.5602403"><ele>217.0</ele><time>2026-04-26T13:14:30.957Z</time></trkpt><trkpt lat="41.679413" lon="13.5599677"><ele>217.0</ele><time>2026-04-26T13:14:31.953Z</time></trkpt><trkpt lat="41.6793684" lon="13.5597014"><ele>217.0</ele><time>2026-04-26T13:14:32.95Z</time></trkpt><trkpt lat="41.6793254" lon="13.5594477"><ele>217.0</ele><time>2026-04-26T13:14:33.952Z</time></trkpt><trkpt lat="41.6792843" lon="13.5592073"><ele>217.0</ele><time>2026-04-26T13:14:34.955Z</time></trkpt><trkpt lat="41.6792445" lon="13.5589804"><ele>217.0</ele><time>2026-04-26T13:14:35.944Z</time></trkpt><trkpt lat="41.6792063" lon="13.5587655"><ele>217.0</ele><time>2026-04-26T13:14:36.958Z</time></trkpt><trkpt lat="41.6791709" lon="13.5585655"><ele>216.75</ele><time>2026-04-26T13:14:37.949Z</time></trkpt><trkpt lat="41.6791403" lon="13.5583888"><ele>216.5</ele><time>2026-04-26T13:14:38.946Z</time></trkpt><trkpt lat="41.6791149" lon="13.5582364"><ele>216.25</ele><time>2026-04-26T13:14:39.958Z</time></trkpt><trkpt lat="41.6790937" lon="13.5581041"><ele>216.0</ele><time>2026-04-26T13:14:40.953Z</time></trkpt><trkpt lat="41.6790705" lon="13.5579758"><ele>215.75</ele><time>2026-04-26T13:14:41.944Z</time></trkpt><trkpt lat="41.6790422" lon="13.5578357"><ele>215.5</ele><time>2026-04-26T13:14:42.953Z</time></trkpt><trkpt lat="41.6790111" lon="13.5576795"><ele>215.25</ele><time>2026-04-26T13:14:43.954Z</time></trkpt><trkpt lat="41.6789776" lon="13.5575084"><ele>215.0</ele><time>2026-04-26T13:14:44.952Z</time></trkpt><trkpt lat="41.6789408" lon="13.5573171"><ele>215.0</ele><time>2026-04-26T13:14:45.951Z</time></trkpt><trkpt lat="41.6789001" lon="13.5570994"><ele>215.0</ele><time>2026-04-26T13:14:46.951Z</time></trkpt><trkpt lat="41.6788608" lon="13.5568593"><ele>215.0</ele><time>2026-04-26T13:14:47.957Z</time></trkpt><trkpt lat="41.6788258" lon="13.5566092"><ele>215.0</ele><time>2026-04-26T13:14:48.958Z</time></trkpt><trkpt lat="41.678791" lon="13.5563557"><ele>215.0</ele><time>2026-04-26T13:14:49.946Z</time></trkpt><trkpt lat="41.6787502" lon="13.5561036"><ele>215.0</ele><time>2026-04-26T13:14:50.956Z</time></trkpt><trkpt lat="41.6787014" lon="13.5558579"><ele>215.66666666666669</ele><time>2026-04-26T13:14:51.953Z</time></trkpt><trkpt lat="41.6786367" lon="13.5556276"><ele>216.33333333333331</ele><time>2026-04-26T13:14:52.951Z</time></trkpt><trkpt lat="41.6785495" lon="13.5554187"><ele>217.0</ele><time>2026-04-26T13:14:53.961Z</time></trkpt><trkpt lat="41.6784469" lon="13.5552325"><ele>220.0</ele><time>2026-04-26T13:14:54.945Z</time></trkpt><trkpt lat="41.6783381" lon="13.5550584"><ele>223.0</ele><time>2026-04-26T13:14:55.953Z</time></trkpt><trkpt lat="41.6782289" lon="13.5548901"><ele>226.0</ele><time>2026-04-26T13:14:56.947Z</time></trkpt><trkpt lat="41.6781231" lon="13.5547247"><ele>226.0</ele><time>2026-04-26T13:14:57.952Z</time></trkpt><trkpt lat="41.6780258" lon="13.5545603"><ele>226.0</ele><time>2026-04-26T13:14:58.954Z</time></trkpt><trkpt lat="41.6779405" lon="13.5543922"><ele>226.0</ele><time>2026-04-26T13:14:59.946Z</time></trkpt><trkpt lat="41.6778583" lon="13.5542263"><ele>225.75</ele><time>2026-04-26T13:15:00.953Z</time></trkpt><trkpt lat="41.6778048" lon="13.5540464"><ele>225.5</ele><time>2026-04-26T13:15:01.947Z</time></trkpt><trkpt lat="41.677745" lon="13.5538725"><ele>225.25</ele><time>2026-04-26T13:15:02.953Z</time></trkpt><trkpt lat="41.6776977" lon="13.5536977"><ele>225.0</ele><time>2026-04-26T13:15:03.955Z</time></trkpt><trkpt lat="41.6776458" lon="13.5535255"><ele>227.0</ele><time>2026-04-26T13:15:04.96Z</time></trkpt><trkpt lat="41.677596" lon="13.5533509"><ele>229.0</ele><time>2026-04-26T13:15:05.947Z</time></trkpt><trkpt lat="41.6775453" lon="13.5531723"><ele>231.0</ele><time>2026-04-26T13:15:06.956Z</time></trkpt><trkpt lat="41.6774983" lon="13.5529879"><ele>233.0</ele><time>2026-04-26T13:15:07.952Z</time></trkpt><trkpt lat="41.6774565" lon="13.5528009"><ele>235.5</ele><time>2026-04-26T13:15:08.95Z</time></trkpt><trkpt lat="41.6774165" lon="13.5526135"><ele>238.0</ele><time>2026-04-26T13:15:09.955Z</time></trkpt><trkpt lat="41.6773786" lon="13.5524206"><ele>240.5</ele><time>2026-04-26T13:15:10.95Z</time></trkpt><trkpt lat="41.6773396" lon="13.5522241"><ele>243.0</ele><time>2026-04-26T13:15:11.962Z</time></trkpt><trkpt lat="41.677296" lon="13.5520282"><ele>244.75</ele><time>2026-04-26T13:15:12.947Z</time></trkpt><trkpt lat="41.6772532" lon="13.5518341"><ele>246.5</ele><time>2026-04-26T13:15:13.954Z</time></trkpt><trkpt lat="41.6772047" lon="13.5516458"><ele>248.25</ele><time>2026-04-26T13:15:14.955Z</time></trkpt><trkpt lat="41.6771572" lon="13.5514653"><ele>250.0</ele><time>2026-04-26T13:15:15.952Z</time></trkpt><trkpt lat="41.6771029" lon="13.5512992"><ele>250.6</ele><time>2026-04-26T13:15:16.95Z</time></trkpt><trkpt lat="41.6770574" lon="13.5511478"><ele>251.2</ele><time>2026-04-26T13:15:17.954Z</time></trkpt><trkpt lat="41.6770305" lon="13.5509987"><ele>251.8</ele><time>2026-04-26T13:15:18.955Z</time></trkpt><trkpt lat="41.677003" lon="13.5508706"><ele>252.4</ele><time>2026-04-26T13:15:19.959Z</time></trkpt><trkpt lat="41.6769841" lon="13.5507492"><ele>253.0</ele><time>2026-04-26T13:15:20.956Z</time></trkpt><trkpt lat="41.6769745" lon="13.550661"><ele>253.0</ele><time>2026-04-26T13:15:21.957Z</time></trkpt><trkpt lat="41.6769793" lon="13.5505466"><ele>253.0</ele><time>2026-04-26T13:15:23.959Z</time></trkpt><trkpt lat="41.6770034" lon="13.5503992"><ele>253.0</ele><time>2026-04-26T13:15:25.979Z</time></trkpt><trkpt lat="41.6770229" lon="13.5502928"><ele>253.0</ele><time>2026-04-26T13:15:26.967Z</time></trkpt><trkpt lat="41.6770505" lon="13.5501683"><ele>253.0</ele><time>2026-04-26T13:15:27.959Z</time></trkpt><trkpt lat="41.6770846" lon="13.5500249"><ele>253.0</ele><time>2026-04-26T13:15:28.956Z</time></trkpt><trkpt lat="41.6771228" lon="13.5498524"><ele>253.0</ele><time>2026-04-26T13:15:29.952Z</time></trkpt><trkpt lat="41.6771584" lon="13.5496578"><ele>253.0</ele><time>2026-04-26T13:15:30.944Z</time></trkpt><trkpt lat="41.677198" lon="13.5494618"><ele>253.0</ele><time>2026-04-26T13:15:31.958Z</time></trkpt><trkpt lat="41.6772339" lon="13.5492544"><ele>252.33333333333331</ele><time>2026-04-26T13:15:32.957Z</time></trkpt><trkpt lat="41.6772481" lon="13.5490489"><ele>251.66666666666669</ele><time>2026-04-26T13:15:33.957Z</time></trkpt><trkpt lat="41.6772754" lon="13.548852"><ele>251.0</ele><time>2026-04-26T13:15:34.95Z</time></trkpt><trkpt lat="41.6773098" lon="13.5486516"><ele>249.0</ele><time>2026-04-26T13:15:35.954Z</time></trkpt><trkpt lat="41.6773591" lon="13.5484589"><ele>247.0</ele><time>2026-04-26T13:15:36.944Z</time></trkpt><trkpt lat="41.6774351" lon="13.5482892"><ele>245.0</ele><time>2026-04-26T13:15:37.957Z</time></trkpt><trkpt lat="41.677536" lon="13.5481313"><ele>245.0</ele><time>2026-04-26T13:15:38.951Z</time></trkpt><trkpt lat="41.6776597" lon="13.5480051"><ele>245.0</ele><time>2026-04-26T13:15:39.955Z</time></trkpt><trkpt lat="41.6778088" lon="13.5479053"><ele>245.0</ele><time>2026-04-26T13:15:40.952Z</time></trkpt><trkpt lat="41.6779714" lon="13.5478275"><ele>242.33333333333334</ele><time>2026-04-26T13:15:41.959Z</time></trkpt><trkpt lat="41.6781354" lon="13.5477649"><ele>239.66666666666669</ele><time>2026-04-26T13:15:42.951Z</time></trkpt><trkpt lat="41.6783004" lon="13.5477128"><ele>237.0</ele><time>2026-04-26T13:15:43.961Z</time></trkpt><trkpt lat="41.678464" lon="13.5476617"><ele>239.33333333333331</ele><time>2026-04-26T13:15:44.959Z</time></trkpt><trkpt lat="41.6786207" lon="13.5476124"><ele>241.66666666666666</ele><time>2026-04-26T13:15:45.947Z</time></trkpt><trkpt lat="41.6787713" lon="13.5475561"><ele>244.0</ele><time>2026-04-26T13:15:46.952Z</time></trkpt><trkpt lat="41.6789084" lon="13.5474819"><ele>244.0</ele><time>2026-04-26T13:15:47.957Z</time></trkpt><trkpt lat="41.6790433" lon="13.5473829"><ele>244.0</ele><time>2026-04-26T13:15:48.95Z</time></trkpt><trkpt lat="41.6791736" lon="13.547262"><ele>244.0</ele><time>2026-04-26T13:15:49.956Z</time></trkpt><trkpt lat="41.6792957" lon="13.5471155"><ele>243.66666666666666</ele><time>2026-04-26T13:15:50.949Z</time></trkpt><trkpt lat="41.6794174" lon="13.5469481"><ele>243.33333333333331</ele><time>2026-04-26T13:15:51.945Z</time></trkpt><trkpt lat="41.6795414" lon="13.5467683"><ele>243.0</ele><time>2026-04-26T13:15:52.956Z</time></trkpt><trkpt lat="41.6796714" lon="13.5465906"><ele>243.0</ele><time>2026-04-26T13:15:53.959Z</time></trkpt><trkpt lat="41.6798057" lon="13.5464144"><ele>243.0</ele><time>2026-04-26T13:15:54.948Z</time></trkpt><trkpt lat="41.679936" lon="13.5462362"><ele>243.0</ele><time>2026-04-26T13:15:55.952Z</time></trkpt><trkpt lat="41.6800604" lon="13.5460546"><ele>244.66666666666669</ele><time>2026-04-26T13:15:56.95Z</time></trkpt><trkpt lat="41.680176" lon="13.54587"><ele>246.33333333333334</ele><time>2026-04-26T13:15:57.96Z</time></trkpt><trkpt lat="41.6802674" lon="13.5456678"><ele>248.0</ele><time>2026-04-26T13:15:58.954Z</time></trkpt><trkpt lat="41.6803288" lon="13.5454539"><ele>249.0</ele><time>2026-04-26T13:15:59.949Z</time></trkpt><trkpt lat="41.6803511" lon="13.5452305"><ele>250.0</ele><time>2026-04-26T13:16:00.943Z</time></trkpt><trkpt lat="41.6803402" lon="13.5449944"><ele>251.0</ele><time>2026-04-26T13:16:01.947Z</time></trkpt><trkpt lat="41.6803018" lon="13.5447456"><ele>245.33333333333334</ele><time>2026-04-26T13:16:02.954Z</time></trkpt><trkpt lat="41.6802499" lon="13.5444868"><ele>239.66666666666669</ele><time>2026-04-26T13:16:03.965Z</time></trkpt><trkpt lat="41.6801947" lon="13.5442258"><ele>234.0</ele><time>2026-04-26T13:16:04.95Z</time></trkpt><trkpt lat="41.6801367" lon="13.5439627"><ele>234.66666666666669</ele><time>2026-04-26T13:16:05.953Z</time></trkpt><trkpt lat="41.6800761" lon="13.543693"><ele>235.33333333333334</ele><time>2026-04-26T13:16:06.946Z</time></trkpt><trkpt lat="41.6800132" lon="13.5434174"><ele>236.0</ele><time>2026-04-26T13:16:07.948Z</time></trkpt><trkpt lat="41.6799459" lon="13.5431354"><ele>237.0</ele><time>2026-04-26T13:16:08.955Z</time></trkpt><trkpt lat="41.6798716" lon="13.5428492"><ele>238.0</ele><time>2026-04-26T13:16:09.952Z</time></trkpt><trkpt lat="41.6797903" lon="13.5425659"><ele>238.0</ele><time>2026-04-26T13:16:10.953Z</time></trkpt><trkpt lat="41.6796977" lon="13.5422905"><ele>238.0</ele><time>2026-04-26T13:16:11.956Z</time></trkpt><trkpt lat="41.6795981" lon="13.5420293"><ele>238.0</ele><time>2026-04-26T13:16:12.946Z</time></trkpt><trkpt lat="41.6794856" lon="13.5417765"><ele>236.66666666666666</ele><time>2026-04-26T13:16:13.95Z</time></trkpt><trkpt lat="41.6793648" lon="13.541534"><ele>235.33333333333331</ele><time>2026-04-26T13:16:14.955Z</time></trkpt><trkpt lat="41.6792447" lon="13.541298"><ele>234.0</ele><time>2026-04-26T13:16:15.95Z</time></trkpt><trkpt lat="41.6791284" lon="13.5410668"><ele>234.0</ele><time>2026-04-26T13:16:16.949Z</time></trkpt><trkpt lat="41.6790281" lon="13.5408261"><ele>234.0</ele><time>2026-04-26T13:16:17.952Z</time></trkpt><trkpt lat="41.6789457" lon="13.5405711"><ele>234.0</ele><time>2026-04-26T13:16:18.953Z</time></trkpt><trkpt lat="41.6788819" lon="13.5403012"><ele>234.66666666666669</ele><time>2026-04-26T13:16:19.954Z</time></trkpt><trkpt lat="41.6788319" lon="13.5400162"><ele>235.33333333333334</ele><time>2026-04-26T13:16:20.944Z</time></trkpt><trkpt lat="41.6787873" lon="13.5397223"><ele>236.0</ele><time>2026-04-26T13:16:21.95Z</time></trkpt><trkpt lat="41.678745" lon="13.5394326"><ele>236.66666666666669</ele><time>2026-04-26T13:16:22.951Z</time></trkpt><trkpt lat="41.6787075" lon="13.5391474"><ele>237.33333333333331</ele><time>2026-04-26T13:16:23.949Z</time></trkpt><trkpt lat="41.6786838" lon="13.5388622"><ele>238.0</ele><time>2026-04-26T13:16:24.947Z</time></trkpt><trkpt lat="41.6786776" lon="13.538577"><ele>238.0</ele><time>2026-04-26T13:16:25.951Z</time></trkpt><trkpt lat="41.6786892" lon="13.538283"><ele>238.0</ele><time>2026-04-26T13:16:26.95Z</time></trkpt><trkpt lat="41.6787125" lon="13.5379713"><ele>236.5</ele><time>2026-04-26T13:16:27.954Z</time></trkpt><trkpt lat="41.6787442" lon="13.5376601"><ele>235.0</ele><time>2026-04-26T13:16:28.951Z</time></trkpt><trkpt lat="41.6787786" lon="13.5373534"><ele>234.5</ele><time>2026-04-26T13:16:29.95Z</time></trkpt><trkpt lat="41.6788131" lon="13.5370519"><ele>234.0</ele><time>2026-04-26T13:16:30.949Z</time></trkpt><trkpt lat="41.6788459" lon="13.5367546"><ele>234.0</ele><time>2026-04-26T13:16:31.951Z</time></trkpt><trkpt lat="41.6788809" lon="13.5364617"><ele>234.0</ele><time>2026-04-26T13:16:32.951Z</time></trkpt><trkpt lat="41.6789187" lon="13.536174"><ele>234.0</ele><time>2026-04-26T13:16:33.953Z</time></trkpt><trkpt lat="41.678965" lon="13.5358976"><ele>233.33333333333331</ele><time>2026-04-26T13:16:34.95Z</time></trkpt><trkpt lat="41.6790277" lon="13.5356326"><ele>232.66666666666666</ele><time>2026-04-26T13:16:35.958Z</time></trkpt><trkpt lat="41.6791111" lon="13.5353873"><ele>232.0</ele><time>2026-04-26T13:16:36.959Z</time></trkpt><trkpt lat="41.6792183" lon="13.5351705"><ele>230.66666666666666</ele><time>2026-04-26T13:16:37.948Z</time></trkpt><trkpt lat="41.6793507" lon="13.5349833"><ele>229.33333333333331</ele><time>2026-04-26T13:16:38.955Z</time></trkpt><trkpt lat="41.6795056" lon="13.5348202"><ele>228.0</ele><time>2026-04-26T13:16:39.948Z</time></trkpt><trkpt lat="41.6796785" lon="13.5346756"><ele>227.66666666666669</ele><time>2026-04-26T13:16:40.951Z</time></trkpt><trkpt lat="41.6798663" lon="13.5345454"><ele>227.33333333333334</ele><time>2026-04-26T13:16:41.956Z</time></trkpt><trkpt lat="41.6800557" lon="13.5344198"><ele>227.0</ele><time>2026-04-26T13:16:42.952Z</time></trkpt><trkpt lat="41.6802424" lon="13.5342995"><ele>226.66666666666669</ele><time>2026-04-26T13:16:43.947Z</time></trkpt><trkpt lat="41.6804245" lon="13.5341706"><ele>226.33333333333331</ele><time>2026-04-26T13:16:44.954Z</time></trkpt><trkpt lat="41.6806008" lon="13.5340383"><ele>226.0</ele><time>2026-04-26T13:16:45.954Z</time></trkpt><trkpt lat="41.6807599" lon="13.5339196"><ele>226.0</ele><time>2026-04-26T13:16:46.954Z</time></trkpt><trkpt lat="41.6809168" lon="13.5338174"><ele>226.0</ele><time>2026-04-26T13:16:47.949Z</time></trkpt><trkpt lat="41.6810461" lon="13.5337183"><ele>226.0</ele><time>2026-04-26T13:16:48.949Z</time></trkpt><trkpt lat="41.681148" lon="13.533621"><ele>226.0</ele><time>2026-04-26T13:16:49.957Z</time></trkpt><trkpt lat="41.6812338" lon="13.5335246"><ele>226.0</ele><time>2026-04-26T13:16:50.956Z</time></trkpt><trkpt lat="41.6813008" lon="13.5334088"><ele>226.0</ele><time>2026-04-26T13:16:51.959Z</time></trkpt><trkpt lat="41.6813449" lon="13.5332701"><ele>226.0</ele><time>2026-04-26T13:16:52.957Z</time></trkpt><trkpt lat="41.6813584" lon="13.5331169"><ele>226.0</ele><time>2026-04-26T13:16:53.953Z</time></trkpt><trkpt lat="41.6813472" lon="13.5329596"><ele>226.0</ele><time>2026-04-26T13:16:54.948Z</time></trkpt><trkpt lat="41.6813198" lon="13.5327999"><ele>226.0</ele><time>2026-04-26T13:16:55.951Z</time></trkpt><trkpt lat="41.681286" lon="13.532634"><ele>226.0</ele><time>2026-04-26T13:16:56.946Z</time></trkpt><trkpt lat="41.6812492" lon="13.5324556"><ele>226.0</ele><time>2026-04-26T13:16:57.955Z</time></trkpt><trkpt lat="41.6812022" lon="13.5322541"><ele>225.66666666666666</ele><time>2026-04-26T13:16:58.956Z</time></trkpt><trkpt lat="41.6811495" lon="13.5320199"><ele>225.33333333333331</ele><time>2026-04-26T13:16:59.954Z</time></trkpt><trkpt lat="41.6811038" lon="13.5317762"><ele>225.0</ele><time>2026-04-26T13:17:00.943Z</time></trkpt><trkpt lat="41.6810601" lon="13.5315309"><ele>225.0</ele><time>2026-04-26T13:17:01.946Z</time></trkpt><trkpt lat="41.6810151" lon="13.5312902"><ele>225.0</ele><time>2026-04-26T13:17:02.952Z</time></trkpt><trkpt lat="41.6809688" lon="13.5310524"><ele>225.0</ele><time>2026-04-26T13:17:03.945Z</time></trkpt><trkpt lat="41.6809257" lon="13.530825"><ele>225.25</ele><time>2026-04-26T13:17:04.953Z</time></trkpt><trkpt lat="41.6808861" lon="13.530623"><ele>225.5</ele><time>2026-04-26T13:17:05.962Z</time></trkpt><trkpt lat="41.6808531" lon="13.5304461"><ele>225.75</ele><time>2026-04-26T13:17:06.946Z</time></trkpt><trkpt lat="41.6808217" lon="13.5302754"><ele>226.0</ele><time>2026-04-26T13:17:07.954Z</time></trkpt><trkpt lat="41.6807892" lon="13.5301023"><ele>226.25</ele><time>2026-04-26T13:17:08.949Z</time></trkpt><trkpt lat="41.6807547" lon="13.5299265"><ele>226.5</ele><time>2026-04-26T13:17:09.948Z</time></trkpt><trkpt lat="41.6807206" lon="13.5297483"><ele>226.75</ele><time>2026-04-26T13:17:10.948Z</time></trkpt><trkpt lat="41.6806842" lon="13.5295672"><ele>227.0</ele><time>2026-04-26T13:17:11.952Z</time></trkpt><trkpt lat="41.6806494" lon="13.5293827"><ele>227.0</ele><time>2026-04-26T13:17:12.946Z</time></trkpt><trkpt lat="41.6806158" lon="13.5291934"><ele>227.0</ele><time>2026-04-26T13:17:13.944Z</time></trkpt><trkpt lat="41.6805788" lon="13.5289986"><ele>227.0</ele><time>2026-04-26T13:17:14.946Z</time></trkpt><trkpt lat="41.6805341" lon="13.5288011"><ele>227.33333333333334</ele><time>2026-04-26T13:17:15.962Z</time></trkpt><trkpt lat="41.6804735" lon="13.5286096"><ele>227.66666666666669</ele><time>2026-04-26T13:17:16.946Z</time></trkpt><trkpt lat="41.68039" lon="13.5284212"><ele>228.0</ele><time>2026-04-26T13:17:17.957Z</time></trkpt><trkpt lat="41.6802933" lon="13.5282208"><ele>228.33333333333331</ele><time>2026-04-26T13:17:18.955Z</time></trkpt><trkpt lat="41.6801912" lon="13.5280008"><ele>228.66666666666666</ele><time>2026-04-26T13:17:19.954Z</time></trkpt><trkpt lat="41.6800746" lon="13.5277503"><ele>229.0</ele><time>2026-04-26T13:17:20.947Z</time></trkpt><trkpt lat="41.6799479" lon="13.527483"><ele>229.0</ele><time>2026-04-26T13:17:21.951Z</time></trkpt><trkpt lat="41.6798172" lon="13.5272109"><ele>229.0</ele><time>2026-04-26T13:17:22.948Z</time></trkpt><trkpt lat="41.679686" lon="13.526939"><ele>229.0</ele><time>2026-04-26T13:17:23.943Z</time></trkpt><trkpt lat="41.6795568" lon="13.526672"><ele>229.0</ele><time>2026-04-26T13:17:24.948Z</time></trkpt><trkpt lat="41.6794288" lon="13.5264108"><ele>229.0</ele><time>2026-04-26T13:17:25.952Z</time></trkpt><trkpt lat="41.6793021" lon="13.5261535"><ele>229.0</ele><time>2026-04-26T13:17:26.947Z</time></trkpt><trkpt lat="41.6791719" lon="13.5258916"><ele>229.0</ele><time>2026-04-26T13:17:27.953Z</time></trkpt><trkpt lat="41.6790419" lon="13.5256281"><ele>229.0</ele><time>2026-04-26T13:17:28.946Z</time></trkpt><trkpt lat="41.6789135" lon="13.5253664"><ele>231.0</ele><time>2026-04-26T13:17:29.943Z</time></trkpt><trkpt lat="41.6787867" lon="13.5251054"><ele>233.0</ele><time>2026-04-26T13:17:30.946Z</time></trkpt><trkpt lat="41.6786629" lon="13.5248459"><ele>232.5</ele><time>2026-04-26T13:17:31.947Z</time></trkpt><trkpt lat="41.6785399" lon="13.5245886"><ele>232.0</ele><time>2026-04-26T13:17:32.956Z</time></trkpt><trkpt lat="41.6784177" lon="13.524337"><ele>232.66666666666666</ele><time>2026-04-26T13:17:33.951Z</time></trkpt><trkpt lat="41.6782974" lon="13.5240903"><ele>233.33333333333331</ele><time>2026-04-26T13:17:34.948Z</time></trkpt><trkpt lat="41.6781793" lon="13.5238476"><ele>234.0</ele><time>2026-04-26T13:17:35.945Z</time></trkpt><trkpt lat="41.6780622" lon="13.5236091"><ele>234.0</ele><time>2026-04-26T13:17:36.943Z</time></trkpt><trkpt lat="41.6779463" lon="13.5233763"><ele>234.0</ele><time>2026-04-26T13:17:37.945Z</time></trkpt><trkpt lat="41.677831" lon="13.5231494"><ele>234.0</ele><time>2026-04-26T13:17:38.945Z</time></trkpt><trkpt lat="41.6777166" lon="13.5229326"><ele>234.66666666666669</ele><time>2026-04-26T13:17:39.959Z</time></trkpt><trkpt lat="41.6776029" lon="13.5227244"><ele>235.33333333333334</ele><time>2026-04-26T13:17:40.953Z</time></trkpt><trkpt lat="41.6774984" lon="13.5225153"><ele>236.0</ele><time>2026-04-26T13:17:41.948Z</time></trkpt><trkpt lat="41.6774112" lon="13.5222975"><ele>236.0</ele><time>2026-04-26T13:17:42.951Z</time></trkpt><trkpt lat="41.6773282" lon="13.5220816"><ele>236.0</ele><time>2026-04-26T13:17:43.944Z</time></trkpt><trkpt lat="41.6772797" lon="13.5218479"><ele>236.0</ele><time>2026-04-26T13:17:44.944Z</time></trkpt><trkpt lat="41.6772525" lon="13.5216167"><ele>237.66666666666669</ele><time>2026-04-26T13:17:45.948Z</time></trkpt><trkpt lat="41.6772462" lon="13.5213674"><ele>239.33333333333331</ele><time>2026-04-26T13:17:46.941Z</time></trkpt><trkpt lat="41.6772477" lon="13.521115"><ele>241.0</ele><time>2026-04-26T13:17:47.951Z</time></trkpt><trkpt lat="41.6772499" lon="13.5208675"><ele>241.0</ele><time>2026-04-26T13:17:48.944Z</time></trkpt><trkpt lat="41.6772501" lon="13.520607"><ele>241.0</ele><time>2026-04-26T13:17:49.948Z</time></trkpt><trkpt lat="41.677246" lon="13.5203512"><ele>241.0</ele><time>2026-04-26T13:17:50.948Z</time></trkpt><trkpt lat="41.6772383" lon="13.5201061"><ele>241.66666666666666</ele><time>2026-04-26T13:17:51.954Z</time></trkpt><trkpt lat="41.6772107" lon="13.5198516"><ele>242.33333333333331</ele><time>2026-04-26T13:17:52.947Z</time></trkpt><trkpt lat="41.6771632" lon="13.5196085"><ele>243.0</ele><time>2026-04-26T13:17:53.948Z</time></trkpt><trkpt lat="41.6770952" lon="13.5193706"><ele>242.66666666666669</ele><time>2026-04-26T13:17:54.944Z</time></trkpt><trkpt lat="41.6770009" lon="13.5191543"><ele>242.33333333333334</ele><time>2026-04-26T13:17:55.948Z</time></trkpt><trkpt lat="41.6768877" lon="13.5189573"><ele>242.0</ele><time>2026-04-26T13:17:56.953Z</time></trkpt><trkpt lat="41.6767671" lon="13.5187687"><ele>243.0</ele><time>2026-04-26T13:17:57.964Z</time></trkpt><trkpt lat="41.676647" lon="13.5185857"><ele>244.0</ele><time>2026-04-26T13:17:58.959Z</time></trkpt><trkpt lat="41.6765239" lon="13.5184009"><ele>245.0</ele><time>2026-04-26T13:17:59.948Z</time></trkpt><trkpt lat="41.676399" lon="13.5182142"><ele>245.0</ele><time>2026-04-26T13:18:00.947Z</time></trkpt><trkpt lat="41.6762773" lon="13.5180185"><ele>245.0</ele><time>2026-04-26T13:18:01.952Z</time></trkpt><trkpt lat="41.6761536" lon="13.517828"><ele>245.0</ele><time>2026-04-26T13:18:02.957Z</time></trkpt><trkpt lat="41.6760256" lon="13.517629"><ele>245.0</ele><time>2026-04-26T13:18:03.962Z</time></trkpt><trkpt lat="41.6758957" lon="13.5174328"><ele>245.0</ele><time>2026-04-26T13:18:04.963Z</time></trkpt><trkpt lat="41.6757591" lon="13.51724"><ele>245.0</ele><time>2026-04-26T13:18:05.955Z</time></trkpt><trkpt lat="41.6756239" lon="13.5170442"><ele>245.0</ele><time>2026-04-26T13:18:06.948Z</time></trkpt><trkpt lat="41.6754804" lon="13.5168532"><ele>245.0</ele><time>2026-04-26T13:18:07.948Z</time></trkpt><trkpt lat="41.6753199" lon="13.5166748"><ele>245.0</ele><time>2026-04-26T13:18:08.953Z</time></trkpt><trkpt lat="41.6751498" lon="13.5165076"><ele>245.0</ele><time>2026-04-26T13:18:09.956Z</time></trkpt><trkpt lat="41.6749785" lon="13.516353"><ele>245.0</ele><time>2026-04-26T13:18:10.946Z</time></trkpt><trkpt lat="41.674808" lon="13.5162045"><ele>245.0</ele><time>2026-04-26T13:18:11.952Z</time></trkpt><trkpt lat="41.6746413" lon="13.5160574"><ele>248.0</ele><time>2026-04-26T13:18:12.957Z</time></trkpt><trkpt lat="41.6744798" lon="13.5159118"><ele>251.0</ele><time>2026-04-26T13:18:13.958Z</time></trkpt><trkpt lat="41.6743198" lon="13.5157682"><ele>254.0</ele><time>2026-04-26T13:18:14.949Z</time></trkpt><trkpt lat="41.6741597" lon="13.5156256"><ele>254.0</ele><time>2026-04-26T13:18:15.96Z</time></trkpt><trkpt lat="41.6740026" lon="13.5154886"><ele>254.0</ele><time>2026-04-26T13:18:16.948Z</time></trkpt><trkpt lat="41.6738644" lon="13.5153732"><ele>254.0</ele><time>2026-04-26T13:18:17.948Z</time></trkpt><trkpt lat="41.6737451" lon="13.5152759"><ele>255.25</ele><time>2026-04-26T13:18:18.95Z</time></trkpt><trkpt lat="41.6736352" lon="13.5151838"><ele>256.5</ele><time>2026-04-26T13:18:19.951Z</time></trkpt><trkpt lat="41.673527" lon="13.5150832"><ele>257.75</ele><time>2026-04-26T13:18:20.955Z</time></trkpt><trkpt lat="41.6734153" lon="13.5149572"><ele>259.0</ele><time>2026-04-26T13:18:21.954Z</time></trkpt><trkpt lat="41.6732959" lon="13.5147997"><ele>259.0</ele><time>2026-04-26T13:18:22.951Z</time></trkpt><trkpt lat="41.6731698" lon="13.5146261"><ele>259.0</ele><time>2026-04-26T13:18:23.946Z</time></trkpt><trkpt lat="41.6730404" lon="13.5144451"><ele>259.0</ele><time>2026-04-26T13:18:24.941Z</time></trkpt><trkpt lat="41.6729088" lon="13.5142628"><ele>260.3333333333333</ele><time>2026-04-26T13:18:25.945Z</time></trkpt><trkpt lat="41.6727741" lon="13.5140814"><ele>261.6666666666667</ele><time>2026-04-26T13:18:26.958Z</time></trkpt><trkpt lat="41.6726382" lon="13.5138961"><ele>263.0</ele><time>2026-04-26T13:18:27.962Z</time></trkpt><trkpt lat="41.6724996" lon="13.5137084"><ele>265.33333333333337</ele><time>2026-04-26T13:18:28.957Z</time></trkpt><trkpt lat="41.672361" lon="13.5135208"><ele>267.6666666666667</ele><time>2026-04-26T13:18:29.953Z</time></trkpt><trkpt lat="41.672224" lon="13.5133382"><ele>270.0</ele><time>2026-04-26T13:18:30.95Z</time></trkpt><trkpt lat="41.6720926" lon="13.5131615"><ele>270.0</ele><time>2026-04-26T13:18:31.953Z</time></trkpt><trkpt lat="41.6719678" lon="13.5129936"><ele>270.0</ele><time>2026-04-26T13:18:32.944Z</time></trkpt><trkpt lat="41.6718533" lon="13.5128302"><ele>270.0</ele><time>2026-04-26T13:18:33.953Z</time></trkpt><trkpt lat="41.6717566" lon="13.5126596"><ele>270.6666666666667</ele><time>2026-04-26T13:18:34.947Z</time></trkpt><trkpt lat="41.6716933" lon="13.5124751"><ele>271.33333333333337</ele><time>2026-04-26T13:18:35.949Z</time></trkpt><trkpt lat="41.6716652" lon="13.5122786"><ele>272.0</ele><time>2026-04-26T13:18:36.952Z</time></trkpt><trkpt lat="41.6716442" lon="13.5120807"><ele>272.5</ele><time>2026-04-26T13:18:37.956Z</time></trkpt><trkpt lat="41.6716638" lon="13.51189"><ele>273.0</ele><time>2026-04-26T13:18:38.951Z</time></trkpt><trkpt lat="41.6716816" lon="13.511721"><ele>273.5</ele><time>2026-04-26T13:18:39.955Z</time></trkpt><trkpt lat="41.6716921" lon="13.5115654"><ele>274.0</ele><time>2026-04-26T13:18:40.954Z</time></trkpt><trkpt lat="41.6716872" lon="13.5114161"><ele>274.0</ele><time>2026-04-26T13:18:41.964Z</time></trkpt><trkpt lat="41.6716645" lon="13.5112662"><ele>274.0</ele><time>2026-04-26T13:18:42.972Z</time></trkpt><trkpt lat="41.6716344" lon="13.5111169"><ele>274.0</ele><time>2026-04-26T13:18:43.963Z</time></trkpt><trkpt lat="41.6715799" lon="13.5109619"><ele>274.0</ele><time>2026-04-26T13:18:44.955Z</time></trkpt><trkpt lat="41.6715294" lon="13.5108135"><ele>275.25</ele><time>2026-04-26T13:18:45.946Z</time></trkpt><trkpt lat="41.6714742" lon="13.5106638"><ele>276.5</ele><time>2026-04-26T13:18:46.95Z</time></trkpt><trkpt lat="41.6714103" lon="13.5105127"><ele>277.75</ele><time>2026-04-26T13:18:47.968Z</time></trkpt><trkpt lat="41.6713496" lon="13.5103526"><ele>279.0</ele><time>2026-04-26T13:18:48.954Z</time></trkpt><trkpt lat="41.6712944" lon="13.5102042"><ele>280.0</ele><time>2026-04-26T13:18:49.965Z</time></trkpt><trkpt lat="41.6712447" lon="13.5100614"><ele>281.0</ele><time>2026-04-26T13:18:50.961Z</time></trkpt><trkpt lat="41.6712079" lon="13.5099187"><ele>282.0</ele><time>2026-04-26T13:18:51.95Z</time></trkpt><trkpt lat="41.6711837" lon="13.509774"><ele>283.0</ele><time>2026-04-26T13:18:52.946Z</time></trkpt><trkpt lat="41.6711673" lon="13.5096042"><ele>282.0</ele><time>2026-04-26T13:18:53.962Z</time></trkpt><trkpt lat="41.6711513" lon="13.509407"><ele>281.0</ele><time>2026-04-26T13:18:54.954Z</time></trkpt><trkpt lat="41.671139" lon="13.5091912"><ele>280.0</ele><time>2026-04-26T13:18:55.955Z</time></trkpt><trkpt lat="41.6711177" lon="13.5089699"><ele>278.0</ele><time>2026-04-26T13:18:56.948Z</time></trkpt><trkpt lat="41.6710897" lon="13.5087423"><ele>276.0</ele><time>2026-04-26T13:18:57.954Z</time></trkpt><trkpt lat="41.6710591" lon="13.5084923"><ele>274.0</ele><time>2026-04-26T13:18:58.954Z</time></trkpt><trkpt lat="41.6710314" lon="13.5082114"><ele>274.0</ele><time>2026-04-26T13:18:59.951Z</time></trkpt><trkpt lat="41.6710112" lon="13.507908"><ele>274.0</ele><time>2026-04-26T13:19:00.952Z</time></trkpt><trkpt lat="41.6709934" lon="13.5075838"><ele>274.0</ele><time>2026-04-26T13:19:01.952Z</time></trkpt><trkpt lat="41.6709771" lon="13.5072365"><ele>274.0</ele><time>2026-04-26T13:19:02.962Z</time></trkpt><trkpt lat="41.6709508" lon="13.506875"><ele>275.5</ele><time>2026-04-26T13:19:03.955Z</time></trkpt><trkpt lat="41.6709182" lon="13.5065128"><ele>277.0</ele><time>2026-04-26T13:19:04.949Z</time></trkpt><trkpt lat="41.670889" lon="13.5061501"><ele>278.0</ele><time>2026-04-26T13:19:05.953Z</time></trkpt><trkpt lat="41.6708616" lon="13.5057911"><ele>279.0</ele><time>2026-04-26T13:19:06.959Z</time></trkpt><trkpt lat="41.6708307" lon="13.5054302"><ele>281.0</ele><time>2026-04-26T13:19:07.956Z</time></trkpt><trkpt lat="41.6707989" lon="13.5050722"><ele>283.0</ele><time>2026-04-26T13:19:08.955Z</time></trkpt><trkpt lat="41.6707679" lon="13.5047163"><ele>286.0</ele><time>2026-04-26T13:19:09.953Z</time></trkpt><trkpt lat="41.6707402" lon="13.5043626"><ele>289.0</ele><time>2026-04-26T13:19:10.948Z</time></trkpt><trkpt lat="41.6707098" lon="13.5040136"><ele>292.5</ele><time>2026-04-26T13:19:11.951Z</time></trkpt><trkpt lat="41.6706795" lon="13.5036664"><ele>296.0</ele><time>2026-04-26T13:19:12.95Z</time></trkpt><trkpt lat="41.6706509" lon="13.5033238"><ele>296.0</ele><time>2026-04-26T13:19:13.948Z</time></trkpt><trkpt lat="41.6706231" lon="13.5029842"><ele>296.0</ele><time>2026-04-26T13:19:14.951Z</time></trkpt><trkpt lat="41.6705956" lon="13.5026469"><ele>297.0</ele><time>2026-04-26T13:19:15.95Z</time></trkpt><trkpt lat="41.6705679" lon="13.5023099"><ele>298.0</ele><time>2026-04-26T13:19:16.951Z</time></trkpt><trkpt lat="41.6705397" lon="13.5019717"><ele>300.5</ele><time>2026-04-26T13:19:17.953Z</time></trkpt><trkpt lat="41.6705112" lon="13.5016298"><ele>303.0</ele><time>2026-04-26T13:19:18.948Z</time></trkpt><trkpt lat="41.6704841" lon="13.501288"><ele>305.5</ele><time>2026-04-26T13:19:19.956Z</time></trkpt><trkpt lat="41.6704588" lon="13.5009546"><ele>308.0</ele><time>2026-04-26T13:19:20.946Z</time></trkpt><trkpt lat="41.6704344" lon="13.5006454"><ele>309.33333333333337</ele><time>2026-04-26T13:19:21.946Z</time></trkpt><trkpt lat="41.6704124" lon="13.5003674"><ele>310.6666666666667</ele><time>2026-04-26T13:19:22.947Z</time></trkpt><trkpt lat="41.6703932" lon="13.5001202"><ele>312.0</ele><time>2026-04-26T13:19:23.953Z</time></trkpt><trkpt lat="41.6703758" lon="13.4998967"><ele>312.0</ele><time>2026-04-26T13:19:24.947Z</time></trkpt><trkpt lat="41.6703589" lon="13.4996928"><ele>312.0</ele><time>2026-04-26T13:19:25.979Z</time></trkpt><trkpt lat="41.6703417" lon="13.4995006"><ele>312.0</ele><time>2026-04-26T13:19:26.94Z</time></trkpt><trkpt lat="41.6703263" lon="13.4993147"><ele>312.0</ele><time>2026-04-26T13:19:27.952Z</time></trkpt><trkpt lat="41.6703109" lon="13.4991349"><ele>312.0</ele><time>2026-04-26T13:19:28.954Z</time></trkpt><trkpt lat="41.6702917" lon="13.4989551"><ele>312.0</ele><time>2026-04-26T13:19:29.955Z</time></trkpt><trkpt lat="41.6702692" lon="13.4987675"><ele>312.0</ele><time>2026-04-26T13:19:30.95Z</time></trkpt><trkpt lat="41.670245" lon="13.498561"><ele>312.0</ele><time>2026-04-26T13:19:31.952Z</time></trkpt><trkpt lat="41.6702266" lon="13.4983288"><ele>311.6666666666667</ele><time>2026-04-26T13:19:32.95Z</time></trkpt><trkpt lat="41.6702122" lon="13.498075"><ele>311.33333333333337</ele><time>2026-04-26T13:19:33.953Z</time></trkpt><trkpt lat="41.6701956" lon="13.4978072"><ele>311.0</ele><time>2026-04-26T13:19:34.952Z</time></trkpt><trkpt lat="41.6701734" lon="13.4975402"><ele>308.6666666666667</ele><time>2026-04-26T13:19:35.948Z</time></trkpt><trkpt lat="41.6701476" lon="13.4972784"><ele>306.3333333333333</ele><time>2026-04-26T13:19:36.952Z</time></trkpt><trkpt lat="41.6701203" lon="13.4970177"><ele>304.0</ele><time>2026-04-26T13:19:37.954Z</time></trkpt><trkpt lat="41.6700932" lon="13.4967568"><ele>303.3333333333333</ele><time>2026-04-26T13:19:38.946Z</time></trkpt><trkpt lat="41.6700687" lon="13.4964936"><ele>302.6666666666667</ele><time>2026-04-26T13:19:39.947Z</time></trkpt><trkpt lat="41.6700481" lon="13.4962269"><ele>302.0</ele><time>2026-04-26T13:19:40.95Z</time></trkpt><trkpt lat="41.6700362" lon="13.4959566"><ele>301.33333333333337</ele><time>2026-04-26T13:19:41.954Z</time></trkpt><trkpt lat="41.6700335" lon="13.4956829"><ele>300.6666666666667</ele><time>2026-04-26T13:19:42.951Z</time></trkpt><trkpt lat="41.6700379" lon="13.4954065"><ele>300.0</ele><time>2026-04-26T13:19:43.951Z</time></trkpt><trkpt lat="41.670045" lon="13.4951278"><ele>298.6666666666667</ele><time>2026-04-26T13:19:44.955Z</time></trkpt><trkpt lat="41.6700496" lon="13.4948455"><ele>297.33333333333337</ele><time>2026-04-26T13:19:45.953Z</time></trkpt><trkpt lat="41.6700536" lon="13.4945594"><ele>296.0</ele><time>2026-04-26T13:19:46.948Z</time></trkpt><trkpt lat="41.6700575" lon="13.4942707"><ele>294.6666666666667</ele><time>2026-04-26T13:19:47.947Z</time></trkpt><trkpt lat="41.67006" lon="13.4939896"><ele>293.3333333333333</ele><time>2026-04-26T13:19:48.955Z</time></trkpt><trkpt lat="41.6700629" lon="13.4937274"><ele>292.0</ele><time>2026-04-26T13:19:49.948Z</time></trkpt><trkpt lat="41.6700676" lon="13.4934898"><ele>290.8</ele><time>2026-04-26T13:19:50.955Z</time></trkpt><trkpt lat="41.6700718" lon="13.4932788"><ele>289.6</ele><time>2026-04-26T13:19:51.955Z</time></trkpt><trkpt lat="41.6700736" lon="13.4931089"><ele>288.40000000000003</ele><time>2026-04-26T13:19:52.949Z</time></trkpt><trkpt lat="41.6700741" lon="13.4929883"><ele>287.2</ele><time>2026-04-26T13:19:53.95Z</time></trkpt><trkpt lat="41.6700738" lon="13.492903"><ele>286.0</ele><time>2026-04-26T13:19:54.955Z</time></trkpt><trkpt lat="41.6700792" lon="13.4927426"><ele>285.40000000000003</ele><time>2026-04-26T13:19:56.948Z</time></trkpt><trkpt lat="41.6700775" lon="13.4925771"><ele>284.8</ele><time>2026-04-26T13:19:58.959Z</time></trkpt><trkpt lat="41.670072" lon="13.4924123"><ele>284.20000000000005</ele><time>2026-04-26T13:20:00.956Z</time></trkpt><trkpt lat="41.6700539" lon="13.4922431"><ele>283.6</ele><time>2026-04-26T13:20:02.947Z</time></trkpt><trkpt lat="41.6700398" lon="13.4921539"><ele>283.0</ele><time>2026-04-26T13:20:03.964Z</time></trkpt><trkpt lat="41.6700233" lon="13.4920723"><ele>282.8</ele><time>2026-04-26T13:20:04.947Z</time></trkpt><trkpt lat="41.6699835" lon="13.49191"><ele>282.6</ele><time>2026-04-26T13:20:06.948Z</time></trkpt><trkpt lat="41.669958" lon="13.4918309"><ele>282.4</ele><time>2026-04-26T13:20:07.96Z</time></trkpt><trkpt lat="41.6699216" lon="13.4917459"><ele>282.2</ele><time>2026-04-26T13:20:08.953Z</time></trkpt><trkpt lat="41.6698717" lon="13.4916303"><ele>282.0</ele><time>2026-04-26T13:20:09.954Z</time></trkpt><trkpt lat="41.6698137" lon="13.4914709"><ele>282.0</ele><time>2026-04-26T13:20:10.946Z</time></trkpt><trkpt lat="41.6697507" lon="13.4912756"><ele>282.0</ele><time>2026-04-26T13:20:11.955Z</time></trkpt><trkpt lat="41.669674" lon="13.4910601"><ele>282.0</ele><time>2026-04-26T13:20:12.954Z</time></trkpt><trkpt lat="41.6695846" lon="13.4908422"><ele>281.0</ele><time>2026-04-26T13:20:13.947Z</time></trkpt><trkpt lat="41.6694898" lon="13.4906239"><ele>280.0</ele><time>2026-04-26T13:20:14.952Z</time></trkpt><trkpt lat="41.6693976" lon="13.4904086"><ele>279.0</ele><time>2026-04-26T13:20:15.953Z</time></trkpt><trkpt lat="41.6693171" lon="13.4901976"><ele>276.6666666666667</ele><time>2026-04-26T13:20:16.949Z</time></trkpt><trkpt lat="41.6692564" lon="13.4899899"><ele>274.33333333333337</ele><time>2026-04-26T13:20:17.942Z</time></trkpt><trkpt lat="41.6692247" lon="13.4897803"><ele>272.0</ele><time>2026-04-26T13:20:18.947Z</time></trkpt><trkpt lat="41.6692278" lon="13.4895576"><ele>271.33333333333337</ele><time>2026-04-26T13:20:19.958Z</time></trkpt><trkpt lat="41.669262" lon="13.4893338"><ele>270.6666666666667</ele><time>2026-04-26T13:20:20.956Z</time></trkpt><trkpt lat="41.6693311" lon="13.489116"><ele>270.0</ele><time>2026-04-26T13:20:21.954Z</time></trkpt><trkpt lat="41.6694404" lon="13.4889069"><ele>271.6666666666667</ele><time>2026-04-26T13:20:22.953Z</time></trkpt><trkpt lat="41.66958" lon="13.4887078"><ele>273.33333333333337</ele><time>2026-04-26T13:20:23.961Z</time></trkpt><trkpt lat="41.6697208" lon="13.4885264"><ele>275.0</ele><time>2026-04-26T13:20:24.953Z</time></trkpt><trkpt lat="41.6698559" lon="13.4883281"><ele>275.0</ele><time>2026-04-26T13:20:25.944Z</time></trkpt><trkpt lat="41.6699739" lon="13.4881172"><ele>275.0</ele><time>2026-04-26T13:20:26.949Z</time></trkpt><trkpt lat="41.6700784" lon="13.48789"><ele>275.0</ele><time>2026-04-26T13:20:27.96Z</time></trkpt><trkpt lat="41.6701695" lon="13.4876586"><ele>276.33333333333337</ele><time>2026-04-26T13:20:28.958Z</time></trkpt><trkpt lat="41.6702591" lon="13.4874198"><ele>277.6666666666667</ele><time>2026-04-26T13:20:29.951Z</time></trkpt><trkpt lat="41.6703476" lon="13.4871829"><ele>279.0</ele><time>2026-04-26T13:20:30.947Z</time></trkpt><trkpt lat="41.6704378" lon="13.4869535"><ele>281.6666666666667</ele><time>2026-04-26T13:20:31.957Z</time></trkpt><trkpt lat="41.6705293" lon="13.486746"><ele>284.33333333333337</ele><time>2026-04-26T13:20:32.954Z</time></trkpt><trkpt lat="41.670641" lon="13.4865798"><ele>287.0</ele><time>2026-04-26T13:20:33.951Z</time></trkpt><trkpt lat="41.6707665" lon="13.4864453"><ele>287.0</ele><time>2026-04-26T13:20:34.946Z</time></trkpt><trkpt lat="41.6708991" lon="13.4863365"><ele>287.0</ele><time>2026-04-26T13:20:35.953Z</time></trkpt><trkpt lat="41.6710388" lon="13.4862565"><ele>287.0</ele><time>2026-04-26T13:20:36.942Z</time></trkpt><trkpt lat="41.6711827" lon="13.4862036"><ele>286.5</ele><time>2026-04-26T13:20:37.953Z</time></trkpt><trkpt lat="41.6713278" lon="13.4861597"><ele>286.0</ele><time>2026-04-26T13:20:38.948Z</time></trkpt><trkpt lat="41.6714727" lon="13.486113"><ele>285.5</ele><time>2026-04-26T13:20:39.957Z</time></trkpt><trkpt lat="41.6716137" lon="13.4860449"><ele>285.0</ele><time>2026-04-26T13:20:40.951Z</time></trkpt><trkpt lat="41.6717465" lon="13.4859509"><ele>285.0</ele><time>2026-04-26T13:20:41.953Z</time></trkpt><trkpt lat="41.6718731" lon="13.4858351"><ele>285.0</ele><time>2026-04-26T13:20:42.959Z</time></trkpt><trkpt lat="41.6719931" lon="13.4857115"><ele>285.0</ele><time>2026-04-26T13:20:43.956Z</time></trkpt><trkpt lat="41.672096" lon="13.485575"><ele>284.75</ele><time>2026-04-26T13:20:44.958Z</time></trkpt><trkpt lat="41.6721768" lon="13.4854202"><ele>284.5</ele><time>2026-04-26T13:20:45.948Z</time></trkpt><trkpt lat="41.6722512" lon="13.4852581"><ele>284.25</ele><time>2026-04-26T13:20:46.953Z</time></trkpt><trkpt lat="41.672287" lon="13.4850684"><ele>284.0</ele><time>2026-04-26T13:20:47.952Z</time></trkpt><trkpt lat="41.6723193" lon="13.4848739"><ele>284.0</ele><time>2026-04-26T13:20:48.944Z</time></trkpt><trkpt lat="41.6723604" lon="13.4846709"><ele>284.0</ele><time>2026-04-26T13:20:49.948Z</time></trkpt><trkpt lat="41.6723971" lon="13.4844634"><ele>284.0</ele><time>2026-04-26T13:20:50.953Z</time></trkpt><trkpt lat="41.6724444" lon="13.484246"><ele>283.6666666666667</ele><time>2026-04-26T13:20:51.954Z</time></trkpt><trkpt lat="41.6724972" lon="13.4840245"><ele>283.3333333333333</ele><time>2026-04-26T13:20:52.954Z</time></trkpt><trkpt lat="41.6725488" lon="13.4838085"><ele>283.0</ele><time>2026-04-26T13:20:53.947Z</time></trkpt><trkpt lat="41.6726012" lon="13.4835924"><ele>284.66666666666663</ele><time>2026-04-26T13:20:54.95Z</time></trkpt><trkpt lat="41.6726512" lon="13.4833718"><ele>286.3333333333333</ele><time>2026-04-26T13:20:55.957Z</time></trkpt><trkpt lat="41.6727002" lon="13.4831461"><ele>288.0</ele><time>2026-04-26T13:20:56.952Z</time></trkpt><trkpt lat="41.6727482" lon="13.4829158"><ele>288.0</ele><time>2026-04-26T13:20:57.948Z</time></trkpt><trkpt lat="41.6727996" lon="13.482688"><ele>288.0</ele><time>2026-04-26T13:20:58.947Z</time></trkpt><trkpt lat="41.6728498" lon="13.4824621"><ele>288.0</ele><time>2026-04-26T13:20:59.964Z</time></trkpt><trkpt lat="41.6729032" lon="13.4822368"><ele>290.6666666666667</ele><time>2026-04-26T13:21:00.948Z</time></trkpt><trkpt lat="41.6729597" lon="13.482008"><ele>293.33333333333337</ele><time>2026-04-26T13:21:01.974Z</time></trkpt><trkpt lat="41.6730199" lon="13.481776"><ele>296.0</ele><time>2026-04-26T13:21:02.968Z</time></trkpt><trkpt lat="41.6730958" lon="13.481545"><ele>296.0</ele><time>2026-04-26T13:21:03.957Z</time></trkpt><trkpt lat="41.6732037" lon="13.4813075"><ele>296.0</ele><time>2026-04-26T13:21:04.951Z</time></trkpt><trkpt lat="41.6733477" lon="13.4810845"><ele>296.0</ele><time>2026-04-26T13:21:05.95Z</time></trkpt><trkpt lat="41.6735078" lon="13.4808835"><ele>296.0</ele><time>2026-04-26T13:21:06.953Z</time></trkpt><trkpt lat="41.6736601" lon="13.4806861"><ele>296.0</ele><time>2026-04-26T13:21:07.947Z</time></trkpt><trkpt lat="41.6737911" lon="13.4804775"><ele>296.0</ele><time>2026-04-26T13:21:08.947Z</time></trkpt><trkpt lat="41.6738981" lon="13.480255"><ele>297.33333333333337</ele><time>2026-04-26T13:21:09.951Z</time></trkpt><trkpt lat="41.6739851" lon="13.4800126"><ele>298.6666666666667</ele><time>2026-04-26T13:21:10.952Z</time></trkpt><trkpt lat="41.6740536" lon="13.4797377"><ele>300.0</ele><time>2026-04-26T13:21:11.955Z</time></trkpt><trkpt lat="41.674111" lon="13.4794383"><ele>302.5</ele><time>2026-04-26T13:21:12.951Z</time></trkpt><trkpt lat="41.6741727" lon="13.4791305"><ele>305.0</ele><time>2026-04-26T13:21:13.964Z</time></trkpt><trkpt lat="41.6742451" lon="13.4788236"><ele>307.0</ele><time>2026-04-26T13:21:14.951Z</time></trkpt><trkpt lat="41.6743215" lon="13.4785227"><ele>309.0</ele><time>2026-04-26T13:21:15.956Z</time></trkpt><trkpt lat="41.674398" lon="13.4782246"><ele>311.5</ele><time>2026-04-26T13:21:16.951Z</time></trkpt><trkpt lat="41.6744753" lon="13.4779259"><ele>314.0</ele><time>2026-04-26T13:21:17.953Z</time></trkpt><trkpt lat="41.6745536" lon="13.4776279"><ele>314.0</ele><time>2026-04-26T13:21:18.955Z</time></trkpt><trkpt lat="41.6746345" lon="13.4773301"><ele>314.0</ele><time>2026-04-26T13:21:19.947Z</time></trkpt><trkpt lat="41.6747173" lon="13.4770309"><ele>314.0</ele><time>2026-04-26T13:21:20.951Z</time></trkpt><trkpt lat="41.6748017" lon="13.4767301"><ele>314.0</ele><time>2026-04-26T13:21:21.956Z</time></trkpt><trkpt lat="41.6748883" lon="13.4764344"><ele>316.0</ele><time>2026-04-26T13:21:22.956Z</time></trkpt><trkpt lat="41.6749668" lon="13.4761331"><ele>318.0</ele><time>2026-04-26T13:21:23.96Z</time></trkpt><trkpt lat="41.6750512" lon="13.4758354"><ele>318.0</ele><time>2026-04-26T13:21:24.965Z</time></trkpt><trkpt lat="41.6751309" lon="13.4755412"><ele>318.0</ele><time>2026-04-26T13:21:25.958Z</time></trkpt><trkpt lat="41.6752061" lon="13.475257"><ele>319.0</ele><time>2026-04-26T13:21:26.956Z</time></trkpt><trkpt lat="41.6752773" lon="13.4749873"><ele>320.0</ele><time>2026-04-26T13:21:27.955Z</time></trkpt><trkpt lat="41.6753363" lon="13.4747288"><ele>321.0</ele><time>2026-04-26T13:21:28.959Z</time></trkpt><trkpt lat="41.6753764" lon="13.4744816"><ele>321.0</ele><time>2026-04-26T13:21:29.947Z</time></trkpt><trkpt lat="41.6753924" lon="13.4742404"><ele>321.0</ele><time>2026-04-26T13:21:30.953Z</time></trkpt><trkpt lat="41.6753898" lon="13.4740029"><ele>321.0</ele><time>2026-04-26T13:21:31.955Z</time></trkpt><trkpt lat="41.6753636" lon="13.4737674"><ele>321.6666666666667</ele><time>2026-04-26T13:21:32.964Z</time></trkpt><trkpt lat="41.675327" lon="13.4735323"><ele>322.33333333333337</ele><time>2026-04-26T13:21:33.945Z</time></trkpt><trkpt lat="41.6752892" lon="13.4732944"><ele>323.0</ele><time>2026-04-26T13:21:34.951Z</time></trkpt><trkpt lat="41.6752511" lon="13.4730538"><ele>324.33333333333337</ele><time>2026-04-26T13:21:35.953Z</time></trkpt><trkpt lat="41.6752119" lon="13.4728132"><ele>325.6666666666667</ele><time>2026-04-26T13:21:36.954Z</time></trkpt><trkpt lat="41.6751716" lon="13.4725741"><ele>327.0</ele><time>2026-04-26T13:21:37.96Z</time></trkpt><trkpt lat="41.6751286" lon="13.4723363"><ele>327.6666666666667</ele><time>2026-04-26T13:21:38.946Z</time></trkpt><trkpt lat="41.6750864" lon="13.4720994"><ele>328.33333333333337</ele><time>2026-04-26T13:21:39.954Z</time></trkpt><trkpt lat="41.6750461" lon="13.4718636"><ele>329.0</ele><time>2026-04-26T13:21:40.951Z</time></trkpt><trkpt lat="41.6750046" lon="13.4716294"><ele>329.0</ele><time>2026-04-26T13:21:41.952Z</time></trkpt><trkpt lat="41.6749631" lon="13.4713963"><ele>329.0</ele><time>2026-04-26T13:21:42.983Z</time></trkpt><trkpt lat="41.6749229" lon="13.471164"><ele>329.0</ele><time>2026-04-26T13:21:43.962Z</time></trkpt><trkpt lat="41.6748828" lon="13.4709321"><ele>329.33333333333337</ele><time>2026-04-26T13:21:44.969Z</time></trkpt><trkpt lat="41.6748418" lon="13.4707015"><ele>329.6666666666667</ele><time>2026-04-26T13:21:45.958Z</time></trkpt><trkpt lat="41.6748015" lon="13.4704682"><ele>330.0</ele><time>2026-04-26T13:21:46.948Z</time></trkpt><trkpt lat="41.6747629" lon="13.4702334"><ele>331.0</ele><time>2026-04-26T13:21:47.956Z</time></trkpt><trkpt lat="41.6747242" lon="13.4699961"><ele>332.0</ele><time>2026-04-26T13:21:48.948Z</time></trkpt><trkpt lat="41.6746839" lon="13.4697604"><ele>333.0</ele><time>2026-04-26T13:21:49.952Z</time></trkpt><trkpt lat="41.6746409" lon="13.469526"><ele>333.3333333333333</ele><time>2026-04-26T13:21:50.956Z</time></trkpt><trkpt lat="41.6745978" lon="13.4692932"><ele>333.66666666666663</ele><time>2026-04-26T13:21:51.96Z</time></trkpt><trkpt lat="41.674556" lon="13.4690601"><ele>334.0</ele><time>2026-04-26T13:21:52.95Z</time></trkpt><trkpt lat="41.6745122" lon="13.4688372"><ele>335.3333333333333</ele><time>2026-04-26T13:21:53.946Z</time></trkpt><trkpt lat="41.674478" lon="13.4686061"><ele>336.6666666666667</ele><time>2026-04-26T13:21:54.964Z</time></trkpt><trkpt lat="41.6744361" lon="13.4683909"><ele>338.0</ele><time>2026-04-26T13:21:55.961Z</time></trkpt><trkpt lat="41.6743933" lon="13.4681678"><ele>338.33333333333337</ele><time>2026-04-26T13:21:56.953Z</time></trkpt><trkpt lat="41.6743457" lon="13.4679419"><ele>338.6666666666667</ele><time>2026-04-26T13:21:57.957Z</time></trkpt><trkpt lat="41.6743043" lon="13.4677132"><ele>339.0</ele><time>2026-04-26T13:21:58.952Z</time></trkpt><trkpt lat="41.674267" lon="13.4674948"><ele>339.0</ele><time>2026-04-26T13:21:59.958Z</time></trkpt><trkpt lat="41.6742311" lon="13.4672698"><ele>339.0</ele><time>2026-04-26T13:22:00.963Z</time></trkpt><trkpt lat="41.6742028" lon="13.4670422"><ele>339.0</ele><time>2026-04-26T13:22:01.963Z</time></trkpt><trkpt lat="41.6741891" lon="13.4668442"><ele>339.25</ele><time>2026-04-26T13:22:02.946Z</time></trkpt><trkpt lat="41.6741953" lon="13.4666719"><ele>339.5</ele><time>2026-04-26T13:22:03.957Z</time></trkpt><trkpt lat="41.6742192" lon="13.4665172"><ele>339.75</ele><time>2026-04-26T13:22:04.954Z</time></trkpt><trkpt lat="41.674252" lon="13.4663778"><ele>340.0</ele><time>2026-04-26T13:22:05.945Z</time></trkpt><trkpt lat="41.6742976" lon="13.4662491"><ele>340.0</ele><time>2026-04-26T13:22:06.956Z</time></trkpt><trkpt lat="41.6743583" lon="13.4661183"><ele>340.0</ele><time>2026-04-26T13:22:07.956Z</time></trkpt><trkpt lat="41.674445" lon="13.4659754"><ele>340.0</ele><time>2026-04-26T13:22:08.959Z</time></trkpt><trkpt lat="41.6745547" lon="13.4658129"><ele>340.0</ele><time>2026-04-26T13:22:09.957Z</time></trkpt><trkpt lat="41.6746828" lon="13.4656373"><ele>340.3333333333333</ele><time>2026-04-26T13:22:10.951Z</time></trkpt><trkpt lat="41.6748139" lon="13.4654542"><ele>340.6666666666667</ele><time>2026-04-26T13:22:11.952Z</time></trkpt><trkpt lat="41.6749498" lon="13.4652648"><ele>341.0</ele><time>2026-04-26T13:22:12.949Z</time></trkpt><trkpt lat="41.6750878" lon="13.4650708"><ele>341.0</ele><time>2026-04-26T13:22:13.946Z</time></trkpt><trkpt lat="41.6752299" lon="13.4648757"><ele>341.0</ele><time>2026-04-26T13:22:14.949Z</time></trkpt><trkpt lat="41.6753694" lon="13.4646833"><ele>341.0</ele><time>2026-04-26T13:22:15.955Z</time></trkpt><trkpt lat="41.675508" lon="13.4644979"><ele>341.6666666666667</ele><time>2026-04-26T13:22:16.953Z</time></trkpt><trkpt lat="41.6756406" lon="13.4643194"><ele>342.3333333333333</ele><time>2026-04-26T13:22:17.947Z</time></trkpt><trkpt lat="41.675761" lon="13.4641399"><ele>343.0</ele><time>2026-04-26T13:22:18.956Z</time></trkpt><trkpt lat="41.6758622" lon="13.4639445"><ele>344.0</ele><time>2026-04-26T13:22:19.952Z</time></trkpt><trkpt lat="41.6759449" lon="13.4637292"><ele>345.0</ele><time>2026-04-26T13:22:20.951Z</time></trkpt><trkpt lat="41.6760184" lon="13.4634937"><ele>346.0</ele><time>2026-04-26T13:22:21.963Z</time></trkpt><trkpt lat="41.6760925" lon="13.4632448"><ele>346.0</ele><time>2026-04-26T13:22:22.954Z</time></trkpt><trkpt lat="41.6761677" lon="13.4629915"><ele>346.0</ele><time>2026-04-26T13:22:23.955Z</time></trkpt><trkpt lat="41.676245" lon="13.4627367"><ele>346.0</ele><time>2026-04-26T13:22:24.956Z</time></trkpt><trkpt lat="41.6763235" lon="13.4624791"><ele>346.0</ele><time>2026-04-26T13:22:25.952Z</time></trkpt><trkpt lat="41.6764052" lon="13.4622106"><ele>346.0</ele><time>2026-04-26T13:22:26.95Z</time></trkpt><trkpt lat="41.6764927" lon="13.4619319"><ele>346.0</ele><time>2026-04-26T13:22:27.95Z</time></trkpt><trkpt lat="41.6765887" lon="13.4616334"><ele>347.0</ele><time>2026-04-26T13:22:28.951Z</time></trkpt><trkpt lat="41.6766884" lon="13.4613181"><ele>348.0</ele><time>2026-04-26T13:22:29.956Z</time></trkpt><trkpt lat="41.6767878" lon="13.4609994"><ele>348.0</ele><time>2026-04-26T13:22:30.955Z</time></trkpt><trkpt lat="41.6768849" lon="13.4606823"><ele>348.0</ele><time>2026-04-26T13:22:31.956Z</time></trkpt><trkpt lat="41.6769805" lon="13.4603719"><ele>348.0</ele><time>2026-04-26T13:22:32.949Z</time></trkpt><trkpt lat="41.6770736" lon="13.4600695"><ele>348.0</ele><time>2026-04-26T13:22:33.954Z</time></trkpt><trkpt lat="41.6771636" lon="13.4597769"><ele>349.0</ele><time>2026-04-26T13:22:34.94Z</time></trkpt><trkpt lat="41.6772518" lon="13.4594923"><ele>350.0</ele><time>2026-04-26T13:22:35.96Z</time></trkpt><trkpt lat="41.6773382" lon="13.4592154"><ele>350.0</ele><time>2026-04-26T13:22:36.959Z</time></trkpt><trkpt lat="41.6774229" lon="13.4589448"><ele>350.0</ele><time>2026-04-26T13:22:37.958Z</time></trkpt><trkpt lat="41.6775067" lon="13.4586793"><ele>350.0</ele><time>2026-04-26T13:22:38.973Z</time></trkpt><trkpt lat="41.6775895" lon="13.4584199"><ele>349.6666666666667</ele><time>2026-04-26T13:22:39.966Z</time></trkpt><trkpt lat="41.6776698" lon="13.4581643"><ele>349.3333333333333</ele><time>2026-04-26T13:22:40.963Z</time></trkpt><trkpt lat="41.677745" lon="13.4579097"><ele>349.0</ele><time>2026-04-26T13:22:41.953Z</time></trkpt><trkpt lat="41.6778114" lon="13.4576505"><ele>349.0</ele><time>2026-04-26T13:22:42.966Z</time></trkpt><trkpt lat="41.6778666" lon="13.4573782"><ele>349.0</ele><time>2026-04-26T13:22:43.961Z</time></trkpt><trkpt lat="41.6779079" lon="13.4570884"><ele>349.0</ele><time>2026-04-26T13:22:44.954Z</time></trkpt><trkpt lat="41.67794" lon="13.4567831"><ele>350.0</ele><time>2026-04-26T13:22:45.961Z</time></trkpt><trkpt lat="41.677968" lon="13.4564657"><ele>351.0</ele><time>2026-04-26T13:22:46.95Z</time></trkpt><trkpt lat="41.6779973" lon="13.4561417"><ele>351.5</ele><time>2026-04-26T13:22:47.951Z</time></trkpt><trkpt lat="41.6780245" lon="13.4558291"><ele>352.0</ele><time>2026-04-26T13:22:48.988Z</time></trkpt><trkpt lat="41.6780528" lon="13.4555109"><ele>354.5</ele><time>2026-04-26T13:22:49.993Z</time></trkpt><trkpt lat="41.6780776" lon="13.4551932"><ele>357.0</ele><time>2026-04-26T13:22:50.957Z</time></trkpt><trkpt lat="41.6781065" lon="13.4548784"><ele>359.0</ele><time>2026-04-26T13:22:51.952Z</time></trkpt><trkpt lat="41.678134" lon="13.4545654"><ele>361.0</ele><time>2026-04-26T13:22:52.951Z</time></trkpt><trkpt lat="41.678163" lon="13.4542567"><ele>361.0</ele><time>2026-04-26T13:22:53.962Z</time></trkpt><trkpt lat="41.6781901" lon="13.453949"><ele>361.0</ele><time>2026-04-26T13:22:54.956Z</time></trkpt><trkpt lat="41.6782169" lon="13.4536455"><ele>362.66666666666663</ele><time>2026-04-26T13:22:55.943Z</time></trkpt><trkpt lat="41.6782411" lon="13.4533464"><ele>364.3333333333333</ele><time>2026-04-26T13:22:56.96Z</time></trkpt><trkpt lat="41.6782656" lon="13.4530502"><ele>366.0</ele><time>2026-04-26T13:22:57.949Z</time></trkpt><trkpt lat="41.6782894" lon="13.452759"><ele>369.6666666666667</ele><time>2026-04-26T13:22:58.939Z</time></trkpt><trkpt lat="41.6783112" lon="13.4524733"><ele>373.33333333333337</ele><time>2026-04-26T13:22:59.943Z</time></trkpt><trkpt lat="41.6783307" lon="13.4521942"><ele>377.0</ele><time>2026-04-26T13:23:00.951Z</time></trkpt><trkpt lat="41.6783472" lon="13.4519203"><ele>379.6666666666667</ele><time>2026-04-26T13:23:01.947Z</time></trkpt><trkpt lat="41.6783633" lon="13.4516562"><ele>382.33333333333337</ele><time>2026-04-26T13:23:02.947Z</time></trkpt><trkpt lat="41.6783761" lon="13.4514045"><ele>385.0</ele><time>2026-04-26T13:23:03.964Z</time></trkpt><trkpt lat="41.6783865" lon="13.451168"><ele>387.6666666666667</ele><time>2026-04-26T13:23:04.949Z</time></trkpt><trkpt lat="41.6784048" lon="13.4509551"><ele>390.33333333333337</ele><time>2026-04-26T13:23:05.96Z</time></trkpt><trkpt lat="41.6784415" lon="13.4507621"><ele>393.0</ele><time>2026-04-26T13:23:06.953Z</time></trkpt><trkpt lat="41.6785081" lon="13.4505895"><ele>393.66666666666663</ele><time>2026-04-26T13:23:07.95Z</time></trkpt><trkpt lat="41.6786035" lon="13.4504338"><ele>394.3333333333333</ele><time>2026-04-26T13:23:08.944Z</time></trkpt><trkpt lat="41.6787264" lon="13.4502843"><ele>395.0</ele><time>2026-04-26T13:23:09.952Z</time></trkpt><trkpt lat="41.6788697" lon="13.450123"><ele>395.0</ele><time>2026-04-26T13:23:10.952Z</time></trkpt><trkpt lat="41.6790218" lon="13.4499509"><ele>395.0</ele><time>2026-04-26T13:23:11.957Z</time></trkpt><trkpt lat="41.6791779" lon="13.4497779"><ele>395.0</ele><time>2026-04-26T13:23:12.946Z</time></trkpt><trkpt lat="41.679338" lon="13.4496092"><ele>397.3333333333333</ele><time>2026-04-26T13:23:13.95Z</time></trkpt><trkpt lat="41.679499" lon="13.4494522"><ele>399.66666666666663</ele><time>2026-04-26T13:23:14.949Z</time></trkpt><trkpt lat="41.6796675" lon="13.4493093"><ele>402.0</ele><time>2026-04-26T13:23:15.956Z</time></trkpt><trkpt lat="41.6798398" lon="13.4491917"><ele>402.0</ele><time>2026-04-26T13:23:16.947Z</time></trkpt><trkpt lat="41.6800086" lon="13.4490966"><ele>402.0</ele><time>2026-04-26T13:23:17.96Z</time></trkpt><trkpt lat="41.6801684" lon="13.44901"><ele>402.0</ele><time>2026-04-26T13:23:18.948Z</time></trkpt><trkpt lat="41.6803177" lon="13.4489247"><ele>401.25</ele><time>2026-04-26T13:23:19.947Z</time></trkpt><trkpt lat="41.6804522" lon="13.4488392"><ele>400.5</ele><time>2026-04-26T13:23:20.947Z</time></trkpt><trkpt lat="41.6805785" lon="13.4487586"><ele>399.75</ele><time>2026-04-26T13:23:21.953Z</time></trkpt><trkpt lat="41.6806928" lon="13.4486631"><ele>399.0</ele><time>2026-04-26T13:23:22.947Z</time></trkpt><trkpt lat="41.6808182" lon="13.4485681"><ele>405.66666666666663</ele><time>2026-04-26T13:23:23.961Z</time></trkpt><trkpt lat="41.6809563" lon="13.4484851"><ele>412.3333333333333</ele><time>2026-04-26T13:23:24.948Z</time></trkpt><trkpt lat="41.6811039" lon="13.4483984"><ele>419.0</ele><time>2026-04-26T13:23:25.955Z</time></trkpt><trkpt lat="41.6812767" lon="13.4483522"><ele>419.0</ele><time>2026-04-26T13:23:26.942Z</time></trkpt><trkpt lat="41.681468" lon="13.448308"><ele>419.0</ele><time>2026-04-26T13:23:27.954Z</time></trkpt><trkpt lat="41.6816677" lon="13.4482653"><ele>419.0</ele><time>2026-04-26T13:23:28.95Z</time></trkpt><trkpt lat="41.6818772" lon="13.4482216"><ele>417.5</ele><time>2026-04-26T13:23:29.968Z</time></trkpt><trkpt lat="41.6820976" lon="13.4481595"><ele>416.0</ele><time>2026-04-26T13:23:30.948Z</time></trkpt><trkpt lat="41.6823224" lon="13.448082"><ele>416.0</ele><time>2026-04-26T13:23:31.954Z</time></trkpt><trkpt lat="41.68255" lon="13.4479965"><ele>416.0</ele><time>2026-04-26T13:23:32.949Z</time></trkpt><trkpt lat="41.6827774" lon="13.4479112"><ele>428.5</ele><time>2026-04-26T13:23:33.95Z</time></trkpt><trkpt lat="41.6830039" lon="13.4478191"><ele>441.0</ele><time>2026-04-26T13:23:34.945Z</time></trkpt><trkpt lat="41.6832236" lon="13.4477252"><ele>441.0</ele><time>2026-04-26T13:23:35.95Z</time></trkpt><trkpt lat="41.6834259" lon="13.4476428"><ele>441.0</ele><time>2026-04-26T13:23:36.942Z</time></trkpt><trkpt lat="41.683618" lon="13.4475636"><ele>441.0</ele><time>2026-04-26T13:23:37.95Z</time></trkpt><trkpt lat="41.6838034" lon="13.4474987"><ele>440.0</ele><time>2026-04-26T13:23:38.949Z</time></trkpt><trkpt lat="41.6839747" lon="13.4474297"><ele>439.0</ele><time>2026-04-26T13:23:39.942Z</time></trkpt><trkpt lat="41.6841273" lon="13.4473478"><ele>438.0</ele><time>2026-04-26T13:23:40.943Z</time></trkpt><trkpt lat="41.6842582" lon="13.4472455"><ele>438.0</ele><time>2026-04-26T13:23:41.962Z</time></trkpt><trkpt lat="41.6843719" lon="13.447136"><ele>438.0</ele><time>2026-04-26T13:23:42.955Z</time></trkpt><trkpt lat="41.6844297" lon="13.4469953"><ele>438.0</ele><time>2026-04-26T13:23:43.951Z</time></trkpt><trkpt lat="41.6844417" lon="13.4468461"><ele>438.0</ele><time>2026-04-26T13:23:44.95Z</time></trkpt><trkpt lat="41.6844227" lon="13.4466717"><ele>441.75</ele><time>2026-04-26T13:23:45.963Z</time></trkpt><trkpt lat="41.6843991" lon="13.4464862"><ele>445.5</ele><time>2026-04-26T13:23:46.952Z</time></trkpt><trkpt lat="41.6843792" lon="13.4463052"><ele>449.25</ele><time>2026-04-26T13:23:47.95Z</time></trkpt><trkpt lat="41.6844069" lon="13.4461309"><ele>453.0</ele><time>2026-04-26T13:23:48.945Z</time></trkpt><trkpt lat="41.6844933" lon="13.4459977"><ele>453.33333333333337</ele><time>2026-04-26T13:23:49.966Z</time></trkpt><trkpt lat="41.6845894" lon="13.4458683"><ele>453.6666666666667</ele><time>2026-04-26T13:23:50.948Z</time></trkpt><trkpt lat="41.6847124" lon="13.4457519"><ele>454.0</ele><time>2026-04-26T13:23:51.953Z</time></trkpt><trkpt lat="41.6848418" lon="13.4456175"><ele>457.0</ele><time>2026-04-26T13:23:52.954Z</time></trkpt><trkpt lat="41.6849592" lon="13.4454188"><ele>460.0</ele><time>2026-04-26T13:23:53.953Z</time></trkpt><trkpt lat="41.6850792" lon="13.445202"><ele>463.0</ele><time>2026-04-26T13:23:54.953Z</time></trkpt><trkpt lat="41.6852019" lon="13.4449187"><ele>461.5</ele><time>2026-04-26T13:23:55.958Z</time></trkpt><trkpt lat="41.6853346" lon="13.4446368"><ele>460.0</ele><time>2026-04-26T13:23:56.956Z</time></trkpt><trkpt lat="41.6854716" lon="13.4443553"><ele>463.5</ele><time>2026-04-26T13:23:57.955Z</time></trkpt><trkpt lat="41.6856048" lon="13.4440858"><ele>467.0</ele><time>2026-04-26T13:23:58.951Z</time></trkpt><trkpt lat="41.6857326" lon="13.4438365"><ele>469.66666666666663</ele><time>2026-04-26T13:23:59.962Z</time></trkpt><trkpt lat="41.685853" lon="13.4436058"><ele>472.33333333333337</ele><time>2026-04-26T13:24:00.957Z</time></trkpt><trkpt lat="41.6859629" lon="13.4434031"><ele>475.0</ele><time>2026-04-26T13:24:01.946Z</time></trkpt><trkpt lat="41.6860632" lon="13.4432424"><ele>474.5</ele><time>2026-04-26T13:24:02.951Z</time></trkpt><trkpt lat="41.6861668" lon="13.4431326"><ele>474.0</ele><time>2026-04-26T13:24:03.944Z</time></trkpt><trkpt lat="41.6862826" lon="13.443072"><ele>473.5</ele><time>2026-04-26T13:24:04.951Z</time></trkpt><trkpt lat="41.6864126" lon="13.443051"><ele>473.0</ele><time>2026-04-26T13:24:05.956Z</time></trkpt><trkpt lat="41.6865478" lon="13.4430662"><ele>473.0</ele><time>2026-04-26T13:24:06.951Z</time></trkpt><trkpt lat="41.6866917" lon="13.4431081"><ele>473.0</ele><time>2026-04-26T13:24:07.963Z</time></trkpt><trkpt lat="41.6868416" lon="13.4431598"><ele>473.0</ele><time>2026-04-26T13:24:08.953Z</time></trkpt><trkpt lat="41.6869997" lon="13.4432095"><ele>474.3333333333333</ele><time>2026-04-26T13:24:09.949Z</time></trkpt><trkpt lat="41.6871615" lon="13.4432489"><ele>475.66666666666663</ele><time>2026-04-26T13:24:10.956Z</time></trkpt><trkpt lat="41.6873318" lon="13.4432635"><ele>477.0</ele><time>2026-04-26T13:24:11.955Z</time></trkpt><trkpt lat="41.687503" lon="13.4432393"><ele>477.0</ele><time>2026-04-26T13:24:12.95Z</time></trkpt><trkpt lat="41.6876773" lon="13.4431934"><ele>477.0</ele><time>2026-04-26T13:24:13.96Z</time></trkpt><trkpt lat="41.6878595" lon="13.4431397"><ele>477.0</ele><time>2026-04-26T13:24:14.95Z</time></trkpt><trkpt lat="41.6880442" lon="13.4430985"><ele>478.33333333333337</ele><time>2026-04-26T13:24:15.964Z</time></trkpt><trkpt lat="41.6882309" lon="13.4430504"><ele>479.6666666666667</ele><time>2026-04-26T13:24:16.947Z</time></trkpt><trkpt lat="41.6884142" lon="13.4430036"><ele>481.0</ele><time>2026-04-26T13:24:17.949Z</time></trkpt><trkpt lat="41.6885978" lon="13.4429582"><ele>482.6666666666667</ele><time>2026-04-26T13:24:18.952Z</time></trkpt><trkpt lat="41.6887776" lon="13.4429077"><ele>484.33333333333337</ele><time>2026-04-26T13:24:19.948Z</time></trkpt><trkpt lat="41.6889533" lon="13.4428485"><ele>486.0</ele><time>2026-04-26T13:24:20.95Z</time></trkpt><trkpt lat="41.6891288" lon="13.4427801"><ele>486.0</ele><time>2026-04-26T13:24:21.947Z</time></trkpt><trkpt lat="41.6892996" lon="13.4426984"><ele>486.0</ele><time>2026-04-26T13:24:22.957Z</time></trkpt><trkpt lat="41.6894632" lon="13.4425897"><ele>486.0</ele><time>2026-04-26T13:24:23.952Z</time></trkpt><trkpt lat="41.6896176" lon="13.442458"><ele>486.33333333333337</ele><time>2026-04-26T13:24:24.946Z</time></trkpt><trkpt lat="41.6897683" lon="13.4423154"><ele>486.6666666666667</ele><time>2026-04-26T13:24:25.949Z</time></trkpt><trkpt lat="41.6899218" lon="13.4421708"><ele>487.0</ele><time>2026-04-26T13:24:26.949Z</time></trkpt><trkpt lat="41.690077" lon="13.4420266"><ele>487.6666666666667</ele><time>2026-04-26T13:24:27.947Z</time></trkpt><trkpt lat="41.690234" lon="13.4418814"><ele>488.33333333333337</ele><time>2026-04-26T13:24:28.955Z</time></trkpt><trkpt lat="41.6903908" lon="13.4417326"><ele>489.0</ele><time>2026-04-26T13:24:29.956Z</time></trkpt><trkpt lat="41.6905446" lon="13.4415841"><ele>489.0</ele><time>2026-04-26T13:24:30.95Z</time></trkpt><trkpt lat="41.6906981" lon="13.4414396"><ele>489.0</ele><time>2026-04-26T13:24:31.944Z</time></trkpt><trkpt lat="41.6908476" lon="13.4413035"><ele>489.0</ele><time>2026-04-26T13:24:32.947Z</time></trkpt><trkpt lat="41.6909894" lon="13.441182"><ele>490.33333333333337</ele><time>2026-04-26T13:24:33.951Z</time></trkpt><trkpt lat="41.6911337" lon="13.4410831"><ele>491.6666666666667</ele><time>2026-04-26T13:24:34.954Z</time></trkpt><trkpt lat="41.6912887" lon="13.4410166"><ele>493.0</ele><time>2026-04-26T13:24:35.943Z</time></trkpt><trkpt lat="41.6914464" lon="13.4409927"><ele>493.0</ele><time>2026-04-26T13:24:36.953Z</time></trkpt><trkpt lat="41.6916009" lon="13.4409831"><ele>493.0</ele><time>2026-04-26T13:24:37.958Z</time></trkpt><trkpt lat="41.6917507" lon="13.4409459"><ele>493.0</ele><time>2026-04-26T13:24:38.946Z</time></trkpt><trkpt lat="41.6918927" lon="13.4408742"><ele>493.0</ele><time>2026-04-26T13:24:39.95Z</time></trkpt><trkpt lat="41.6920269" lon="13.4407764"><ele>493.0</ele><time>2026-04-26T13:24:40.951Z</time></trkpt><trkpt lat="41.6921504" lon="13.4406707"><ele>493.0</ele><time>2026-04-26T13:24:41.955Z</time></trkpt><trkpt lat="41.6922676" lon="13.4405655"><ele>493.0</ele><time>2026-04-26T13:24:42.949Z</time></trkpt><trkpt lat="41.6923817" lon="13.4404608"><ele>493.0</ele><time>2026-04-26T13:24:43.952Z</time></trkpt><trkpt lat="41.6924909" lon="13.4403461"><ele>493.0</ele><time>2026-04-26T13:24:44.961Z</time></trkpt><trkpt lat="41.6925915" lon="13.440214"><ele>493.0</ele><time>2026-04-26T13:24:45.947Z</time></trkpt><trkpt lat="41.6926865" lon="13.440058"><ele>493.0</ele><time>2026-04-26T13:24:46.946Z</time></trkpt><trkpt lat="41.6927795" lon="13.4398749"><ele>491.0</ele><time>2026-04-26T13:24:47.947Z</time></trkpt><trkpt lat="41.6928738" lon="13.43967"><ele>489.0</ele><time>2026-04-26T13:24:48.948Z</time></trkpt><trkpt lat="41.6929717" lon="13.4394485"><ele>487.0</ele><time>2026-04-26T13:24:49.955Z</time></trkpt><trkpt lat="41.6930698" lon="13.4392186"><ele>485.6666666666667</ele><time>2026-04-26T13:24:50.952Z</time></trkpt><trkpt lat="41.6931679" lon="13.4389864"><ele>484.33333333333337</ele><time>2026-04-26T13:24:51.949Z</time></trkpt><trkpt lat="41.6932658" lon="13.4387526"><ele>483.0</ele><time>2026-04-26T13:24:52.945Z</time></trkpt><trkpt lat="41.6933599" lon="13.4385192"><ele>483.0</ele><time>2026-04-26T13:24:53.948Z</time></trkpt><trkpt lat="41.693445" lon="13.4382951"><ele>483.0</ele><time>2026-04-26T13:24:54.955Z</time></trkpt><trkpt lat="41.6935246" lon="13.4380831"><ele>483.0</ele><time>2026-04-26T13:24:55.952Z</time></trkpt><trkpt lat="41.693588" lon="13.4378859"><ele>484.25</ele><time>2026-04-26T13:24:56.945Z</time></trkpt><trkpt lat="41.6936583" lon="13.43772"><ele>485.5</ele><time>2026-04-26T13:24:57.949Z</time></trkpt><trkpt lat="41.6937419" lon="13.4375662"><ele>486.75</ele><time>2026-04-26T13:24:58.945Z</time></trkpt><trkpt lat="41.6938471" lon="13.4374371"><ele>488.0</ele><time>2026-04-26T13:24:59.952Z</time></trkpt><trkpt lat="41.6939635" lon="13.4373393"><ele>488.0</ele><time>2026-04-26T13:25:00.955Z</time></trkpt><trkpt lat="41.6940987" lon="13.4372826"><ele>488.0</ele><time>2026-04-26T13:25:01.951Z</time></trkpt><trkpt lat="41.6942542" lon="13.43725"><ele>488.0</ele><time>2026-04-26T13:25:02.941Z</time></trkpt><trkpt lat="41.694427" lon="13.4372233"><ele>487.66666666666663</ele><time>2026-04-26T13:25:03.956Z</time></trkpt><trkpt lat="41.6946069" lon="13.4371954"><ele>487.33333333333337</ele><time>2026-04-26T13:25:04.951Z</time></trkpt><trkpt lat="41.6947881" lon="13.4371558"><ele>487.0</ele><time>2026-04-26T13:25:05.946Z</time></trkpt><trkpt lat="41.6949735" lon="13.4371072"><ele>485.33333333333337</ele><time>2026-04-26T13:25:06.945Z</time></trkpt><trkpt lat="41.6951628" lon="13.4370215"><ele>483.66666666666663</ele><time>2026-04-26T13:25:07.95Z</time></trkpt><trkpt lat="41.6953432" lon="13.436925"><ele>482.0</ele><time>2026-04-26T13:25:08.952Z</time></trkpt><trkpt lat="41.6955258" lon="13.4368234"><ele>482.0</ele><time>2026-04-26T13:25:09.952Z</time></trkpt><trkpt lat="41.6957058" lon="13.436723"><ele>482.0</ele><time>2026-04-26T13:25:10.948Z</time></trkpt><trkpt lat="41.6958839" lon="13.4366241"><ele>482.0</ele><time>2026-04-26T13:25:11.973Z</time></trkpt><trkpt lat="41.6960623" lon="13.4365245"><ele>482.0</ele><time>2026-04-26T13:25:12.949Z</time></trkpt><trkpt lat="41.6962405" lon="13.4364248"><ele>482.0</ele><time>2026-04-26T13:25:13.96Z</time></trkpt><trkpt lat="41.6964187" lon="13.4363219"><ele>482.0</ele><time>2026-04-26T13:25:14.946Z</time></trkpt><trkpt lat="41.6965971" lon="13.4362183"><ele>481.3333333333333</ele><time>2026-04-26T13:25:15.959Z</time></trkpt><trkpt lat="41.6967782" lon="13.436117"><ele>480.66666666666663</ele><time>2026-04-26T13:25:16.953Z</time></trkpt><trkpt lat="41.6969602" lon="13.4360169"><ele>480.0</ele><time>2026-04-26T13:25:17.953Z</time></trkpt><trkpt lat="41.6971432" lon="13.4359184"><ele>479.33333333333337</ele><time>2026-04-26T13:25:18.951Z</time></trkpt><trkpt lat="41.6973294" lon="13.435819"><ele>478.6666666666667</ele><time>2026-04-26T13:25:19.947Z</time></trkpt><trkpt lat="41.697515" lon="13.4357159"><ele>478.0</ele><time>2026-04-26T13:25:20.975Z</time></trkpt><trkpt lat="41.6977008" lon="13.435611"><ele>478.0</ele><time>2026-04-26T13:25:21.942Z</time></trkpt><trkpt lat="41.6978861" lon="13.4355063"><ele>478.0</ele><time>2026-04-26T13:25:22.946Z</time></trkpt><trkpt lat="41.6980707" lon="13.4354041"><ele>478.0</ele><time>2026-04-26T13:25:23.956Z</time></trkpt><trkpt lat="41.6982536" lon="13.435307"><ele>478.0</ele><time>2026-04-26T13:25:24.962Z</time></trkpt><trkpt lat="41.69843" lon="13.4352144"><ele>478.0</ele><time>2026-04-26T13:25:25.952Z</time></trkpt><trkpt lat="41.6985979" lon="13.435125"><ele>478.0</ele><time>2026-04-26T13:25:26.948Z</time></trkpt><trkpt lat="41.6987567" lon="13.4350323"><ele>477.33333333333337</ele><time>2026-04-26T13:25:27.947Z</time></trkpt><trkpt lat="41.6989056" lon="13.4349248"><ele>476.66666666666663</ele><time>2026-04-26T13:25:28.952Z</time></trkpt><trkpt lat="41.6990457" lon="13.4347988"><ele>476.0</ele><time>2026-04-26T13:25:29.952Z</time></trkpt><trkpt lat="41.6991815" lon="13.4346607"><ele>475.3333333333333</ele><time>2026-04-26T13:25:30.953Z</time></trkpt><trkpt lat="41.6993142" lon="13.4345213"><ele>474.66666666666663</ele><time>2026-04-26T13:25:31.953Z</time></trkpt><trkpt lat="41.6994452" lon="13.4343815"><ele>474.0</ele><time>2026-04-26T13:25:32.944Z</time></trkpt><trkpt lat="41.6995772" lon="13.4342447"><ele>473.0</ele><time>2026-04-26T13:25:33.951Z</time></trkpt><trkpt lat="41.6997083" lon="13.4341141"><ele>472.0</ele><time>2026-04-26T13:25:34.944Z</time></trkpt><trkpt lat="41.6998418" lon="13.4339791"><ele>471.0</ele><time>2026-04-26T13:25:35.95Z</time></trkpt><trkpt lat="41.699979" lon="13.4338431"><ele>471.33333333333337</ele><time>2026-04-26T13:25:36.949Z</time></trkpt><trkpt lat="41.7001176" lon="13.4337026"><ele>471.6666666666667</ele><time>2026-04-26T13:25:37.948Z</time></trkpt><trkpt lat="41.700251" lon="13.4335635"><ele>472.0</ele><time>2026-04-26T13:25:38.95Z</time></trkpt><trkpt lat="41.7003839" lon="13.4334292"><ele>472.0</ele><time>2026-04-26T13:25:39.948Z</time></trkpt><trkpt lat="41.70051" lon="13.4332992"><ele>472.0</ele><time>2026-04-26T13:25:40.945Z</time></trkpt><trkpt lat="41.700632" lon="13.4331687"><ele>472.0</ele><time>2026-04-26T13:25:41.947Z</time></trkpt><trkpt lat="41.7007416" lon="13.4330348"><ele>471.0</ele><time>2026-04-26T13:25:42.948Z</time></trkpt><trkpt lat="41.7008287" lon="13.4328866"><ele>470.0</ele><time>2026-04-26T13:25:43.95Z</time></trkpt><trkpt lat="41.7008814" lon="13.4327259"><ele>469.0</ele><time>2026-04-26T13:25:44.951Z</time></trkpt><trkpt lat="41.7008964" lon="13.4325664"><ele>468.0</ele><time>2026-04-26T13:25:45.957Z</time></trkpt><trkpt lat="41.7008723" lon="13.43241"><ele>468.0</ele><time>2026-04-26T13:25:46.958Z</time></trkpt><trkpt lat="41.7008142" lon="13.4322546"><ele>468.0</ele><time>2026-04-26T13:25:47.95Z</time></trkpt><trkpt lat="41.7007323" lon="13.4320929"><ele>468.0</ele><time>2026-04-26T13:25:48.962Z</time></trkpt><trkpt lat="41.7006154" lon="13.4319311"><ele>468.0</ele><time>2026-04-26T13:25:49.96Z</time></trkpt><trkpt lat="41.7004847" lon="13.4318086"><ele>469.0</ele><time>2026-04-26T13:25:50.953Z</time></trkpt><trkpt lat="41.7003734" lon="13.4316521"><ele>470.0</ele><time>2026-04-26T13:25:51.958Z</time></trkpt><trkpt lat="41.7002753" lon="13.43148"><ele>471.0</ele><time>2026-04-26T13:25:52.952Z</time></trkpt><trkpt lat="41.7001882" lon="13.4312938"><ele>472.66666666666663</ele><time>2026-04-26T13:25:53.939Z</time></trkpt><trkpt lat="41.7001265" lon="13.4310897"><ele>474.3333333333333</ele><time>2026-04-26T13:25:54.944Z</time></trkpt><trkpt lat="41.7000854" lon="13.4308724"><ele>476.0</ele><time>2026-04-26T13:25:55.955Z</time></trkpt><trkpt lat="41.7000673" lon="13.430639"><ele>475.66666666666663</ele><time>2026-04-26T13:25:56.948Z</time></trkpt><trkpt lat="41.7000668" lon="13.4304081"><ele>475.33333333333337</ele><time>2026-04-26T13:25:57.947Z</time></trkpt><trkpt lat="41.7000771" lon="13.4301899"><ele>475.0</ele><time>2026-04-26T13:25:58.944Z</time></trkpt><trkpt lat="41.7000866" lon="13.4300149"><ele>475.0</ele><time>2026-04-26T13:25:59.947Z</time></trkpt><trkpt lat="41.7001249" lon="13.429868"><ele>475.0</ele><time>2026-04-26T13:26:00.95Z</time></trkpt><trkpt lat="41.7001934" lon="13.4297443"><ele>475.0</ele><time>2026-04-26T13:26:01.972Z</time></trkpt><trkpt lat="41.7002842" lon="13.4296436"><ele>475.0</ele><time>2026-04-26T13:26:02.944Z</time></trkpt><trkpt lat="41.7003884" lon="13.42956"><ele>476.0</ele><time>2026-04-26T13:26:03.957Z</time></trkpt><trkpt lat="41.7005094" lon="13.4294839"><ele>477.0</ele><time>2026-04-26T13:26:04.943Z</time></trkpt><trkpt lat="41.7006444" lon="13.4294073"><ele>478.0</ele><time>2026-04-26T13:26:05.947Z</time></trkpt><trkpt lat="41.700798" lon="13.429328"><ele>479.0</ele><time>2026-04-26T13:26:06.95Z</time></trkpt><trkpt lat="41.7009656" lon="13.4292421"><ele>481.0</ele><time>2026-04-26T13:26:07.95Z</time></trkpt><trkpt lat="41.701133" lon="13.4291591"><ele>483.0</ele><time>2026-04-26T13:26:08.972Z</time></trkpt><trkpt lat="41.7012987" lon="13.4290778"><ele>485.0</ele><time>2026-04-26T13:26:09.965Z</time></trkpt><trkpt lat="41.7014599" lon="13.4289896"><ele>485.0</ele><time>2026-04-26T13:26:10.948Z</time></trkpt><trkpt lat="41.7016121" lon="13.4288782"><ele>485.0</ele><time>2026-04-26T13:26:11.952Z</time></trkpt><trkpt lat="41.7017542" lon="13.4287449"><ele>485.0</ele><time>2026-04-26T13:26:12.957Z</time></trkpt><trkpt lat="41.7018882" lon="13.4285941"><ele>486.3333333333333</ele><time>2026-04-26T13:26:13.968Z</time></trkpt><trkpt lat="41.7020189" lon="13.4284365"><ele>487.66666666666663</ele><time>2026-04-26T13:26:14.954Z</time></trkpt><trkpt lat="41.7021517" lon="13.4282825"><ele>489.0</ele><time>2026-04-26T13:26:15.947Z</time></trkpt><trkpt lat="41.7022909" lon="13.4281394"><ele>489.0</ele><time>2026-04-26T13:26:16.944Z</time></trkpt><trkpt lat="41.7024348" lon="13.428002"><ele>489.0</ele><time>2026-04-26T13:26:17.953Z</time></trkpt><trkpt lat="41.7025788" lon="13.4278674"><ele>489.0</ele><time>2026-04-26T13:26:18.951Z</time></trkpt><trkpt lat="41.7027211" lon="13.427735"><ele>488.0</ele><time>2026-04-26T13:26:19.956Z</time></trkpt><trkpt lat="41.7028634" lon="13.427608"><ele>487.0</ele><time>2026-04-26T13:26:20.95Z</time></trkpt><trkpt lat="41.7030123" lon="13.4274798"><ele>486.0</ele><time>2026-04-26T13:26:21.95Z</time></trkpt><trkpt lat="41.7031582" lon="13.4273489"><ele>486.0</ele><time>2026-04-26T13:26:22.945Z</time></trkpt><trkpt lat="41.7032961" lon="13.4272055"><ele>486.0</ele><time>2026-04-26T13:26:23.942Z</time></trkpt><trkpt lat="41.7034191" lon="13.4270317"><ele>486.0</ele><time>2026-04-26T13:26:24.943Z</time></trkpt><trkpt lat="41.7035234" lon="13.4268432"><ele>487.0</ele><time>2026-04-26T13:26:25.951Z</time></trkpt><trkpt lat="41.703614" lon="13.4266446"><ele>488.0</ele><time>2026-04-26T13:26:26.953Z</time></trkpt><trkpt lat="41.7037026" lon="13.4264486"><ele>489.0</ele><time>2026-04-26T13:26:27.956Z</time></trkpt><trkpt lat="41.7037868" lon="13.4262552"><ele>489.0</ele><time>2026-04-26T13:26:28.957Z</time></trkpt><trkpt lat="41.7038724" lon="13.4260667"><ele>489.0</ele><time>2026-04-26T13:26:29.953Z</time></trkpt><trkpt lat="41.7039638" lon="13.4258802"><ele>489.0</ele><time>2026-04-26T13:26:30.947Z</time></trkpt><trkpt lat="41.7040593" lon="13.4256976"><ele>489.0</ele><time>2026-04-26T13:26:31.954Z</time></trkpt><trkpt lat="41.7041602" lon="13.4255196"><ele>489.0</ele><time>2026-04-26T13:26:32.947Z</time></trkpt><trkpt lat="41.7042737" lon="13.4253443"><ele>489.0</ele><time>2026-04-26T13:26:33.946Z</time></trkpt><trkpt lat="41.7043861" lon="13.4251814"><ele>489.0</ele><time>2026-04-26T13:26:34.944Z</time></trkpt><trkpt lat="41.7044936" lon="13.4250279"><ele>489.0</ele><time>2026-04-26T13:26:35.945Z</time></trkpt><trkpt lat="41.7045877" lon="13.4248937"><ele>489.0</ele><time>2026-04-26T13:26:36.944Z</time></trkpt><trkpt lat="41.7045962" lon="13.4247252"><ele>489.0</ele><time>2026-04-26T13:26:37.95Z</time></trkpt><trkpt lat="41.7045789" lon="13.4245802"><ele>489.0</ele><time>2026-04-26T13:26:38.948Z</time></trkpt><trkpt lat="41.7045213" lon="13.4244376"><ele>489.0</ele><time>2026-04-26T13:26:39.951Z</time></trkpt><trkpt lat="41.7044381" lon="13.4243008"><ele>489.0</ele><time>2026-04-26T13:26:40.946Z</time></trkpt><trkpt lat="41.7043386" lon="13.4241624"><ele>489.0</ele><time>2026-04-26T13:26:41.945Z</time></trkpt><trkpt lat="41.7042375" lon="13.4240306"><ele>488.25</ele><time>2026-04-26T13:26:42.944Z</time></trkpt><trkpt lat="41.7041348" lon="13.4239063"><ele>487.5</ele><time>2026-04-26T13:26:43.95Z</time></trkpt><trkpt lat="41.7040395" lon="13.4237827"><ele>486.75</ele><time>2026-04-26T13:26:44.953Z</time></trkpt><trkpt lat="41.7039384" lon="13.4236828"><ele>486.0</ele><time>2026-04-26T13:26:45.953Z</time></trkpt><trkpt lat="41.7038295" lon="13.4236251"><ele>487.5</ele><time>2026-04-26T13:26:46.947Z</time></trkpt><trkpt lat="41.7037155" lon="13.4236203"><ele>489.0</ele><time>2026-04-26T13:26:47.969Z</time></trkpt><trkpt lat="41.703607" lon="13.4236679"><ele>490.5</ele><time>2026-04-26T13:26:48.96Z</time></trkpt><trkpt lat="41.703505" lon="13.4237464"><ele>492.0</ele><time>2026-04-26T13:26:49.956Z</time></trkpt><trkpt lat="41.7033946" lon="13.4238327"><ele>492.0</ele><time>2026-04-26T13:26:50.953Z</time></trkpt><trkpt lat="41.7032734" lon="13.423905"><ele>492.0</ele><time>2026-04-26T13:26:51.957Z</time></trkpt><trkpt lat="41.703145" lon="13.4239682"><ele>492.0</ele><time>2026-04-26T13:26:52.957Z</time></trkpt><trkpt lat="41.7030098" lon="13.4240286"><ele>492.0</ele><time>2026-04-26T13:26:53.954Z</time></trkpt><trkpt lat="41.7028705" lon="13.4240779"><ele>493.5</ele><time>2026-04-26T13:26:54.943Z</time></trkpt><trkpt lat="41.7027313" lon="13.4241099"><ele>495.0</ele><time>2026-04-26T13:26:55.95Z</time></trkpt><trkpt lat="41.7025853" lon="13.4241256"><ele>496.5</ele><time>2026-04-26T13:26:56.952Z</time></trkpt><trkpt lat="41.7024454" lon="13.4241213"><ele>498.0</ele><time>2026-04-26T13:26:57.955Z</time></trkpt><trkpt lat="41.7023089" lon="13.424092"><ele>498.0</ele><time>2026-04-26T13:26:58.947Z</time></trkpt><trkpt lat="41.7021737" lon="13.4240461"><ele>498.0</ele><time>2026-04-26T13:26:59.952Z</time></trkpt><trkpt lat="41.7020434" lon="13.4239709"><ele>498.0</ele><time>2026-04-26T13:27:00.95Z</time></trkpt><trkpt lat="41.7019164" lon="13.4238756"><ele>498.0</ele><time>2026-04-26T13:27:01.959Z</time></trkpt><trkpt lat="41.7018095" lon="13.4237556"><ele>500.75</ele><time>2026-04-26T13:27:02.945Z</time></trkpt><trkpt lat="41.7017286" lon="13.4236091"><ele>503.5</ele><time>2026-04-26T13:27:03.946Z</time></trkpt><trkpt lat="41.701665" lon="13.4234442"><ele>506.25</ele><time>2026-04-26T13:27:04.946Z</time></trkpt><trkpt lat="41.7016095" lon="13.4232755"><ele>509.0</ele><time>2026-04-26T13:27:05.949Z</time></trkpt><trkpt lat="41.701551" lon="13.42308"><ele>511.66666666666663</ele><time>2026-04-26T13:27:06.943Z</time></trkpt><trkpt lat="41.7014864" lon="13.4228669"><ele>514.3333333333334</ele><time>2026-04-26T13:27:07.944Z</time></trkpt><trkpt lat="41.7014189" lon="13.4226611"><ele>517.0</ele><time>2026-04-26T13:27:08.96Z</time></trkpt><trkpt lat="41.701358" lon="13.4224648"><ele>517.0</ele><time>2026-04-26T13:27:09.95Z</time></trkpt><trkpt lat="41.7013063" lon="13.4222704"><ele>517.0</ele><time>2026-04-26T13:27:10.95Z</time></trkpt><trkpt lat="41.701258" lon="13.4220953"><ele>517.0</ele><time>2026-04-26T13:27:11.956Z</time></trkpt><trkpt lat="41.7012075" lon="13.4219489"><ele>517.0</ele><time>2026-04-26T13:27:12.948Z</time></trkpt><trkpt lat="41.7011677" lon="13.4218389"><ele>516.3333333333334</ele><time>2026-04-26T13:27:13.943Z</time></trkpt><trkpt lat="41.7011341" lon="13.4217393"><ele>515.6666666666667</ele><time>2026-04-26T13:27:14.945Z</time></trkpt><trkpt lat="41.7011044" lon="13.4216482"><ele>515.0</ele><time>2026-04-26T13:27:15.947Z</time></trkpt><trkpt lat="41.7010472" lon="13.4215475"><ele>514.3333333333334</ele><time>2026-04-26T13:27:17.961Z</time></trkpt><trkpt lat="41.7009858" lon="13.4214003"><ele>513.6666666666666</ele><time>2026-04-26T13:27:19.949Z</time></trkpt><trkpt lat="41.7009366" lon="13.4213325"><ele>513.0</ele><time>2026-04-26T13:27:20.948Z</time></trkpt><trkpt lat="41.7008608" lon="13.4212371"><ele>513.0</ele><time>2026-04-26T13:27:21.944Z</time></trkpt><trkpt lat="41.7007398" lon="13.4212181"><ele>513.0</ele><time>2026-04-26T13:27:22.943Z</time></trkpt><trkpt lat="41.7006217" lon="13.4212149"><ele>513.0</ele><time>2026-04-26T13:27:23.942Z</time></trkpt><trkpt lat="41.7005296" lon="13.4212884"><ele>513.0</ele><time>2026-04-26T13:27:24.952Z</time></trkpt><trkpt lat="41.700434" lon="13.4213996"><ele>513.0</ele><time>2026-04-26T13:27:25.954Z</time></trkpt><trkpt lat="41.7003467" lon="13.4215467"><ele>513.0</ele><time>2026-04-26T13:27:26.945Z</time></trkpt><trkpt lat="41.700255" lon="13.4216936"><ele>513.0</ele><time>2026-04-26T13:27:27.945Z</time></trkpt><trkpt lat="41.7001591" lon="13.4218451"><ele>513.0</ele><time>2026-04-26T13:27:28.947Z</time></trkpt><trkpt lat="41.700065" lon="13.4219932"><ele>513.0</ele><time>2026-04-26T13:27:29.951Z</time></trkpt><trkpt lat="41.6999732" lon="13.4221356"><ele>513.0</ele><time>2026-04-26T13:27:30.94Z</time></trkpt><trkpt lat="41.6998661" lon="13.4222435"><ele>513.0</ele><time>2026-04-26T13:27:31.959Z</time></trkpt><trkpt lat="41.6997582" lon="13.4223319"><ele>513.0</ele><time>2026-04-26T13:27:32.95Z</time></trkpt><trkpt lat="41.6996405" lon="13.4223741"><ele>513.0</ele><time>2026-04-26T13:27:33.972Z</time></trkpt><trkpt lat="41.6995164" lon="13.4223833"><ele>513.0</ele><time>2026-04-26T13:27:34.949Z</time></trkpt><trkpt lat="41.6993848" lon="13.4223694"><ele>513.0</ele><time>2026-04-26T13:27:35.959Z</time></trkpt><trkpt lat="41.6992529" lon="13.4223435"><ele>513.0</ele><time>2026-04-26T13:27:36.958Z</time></trkpt><trkpt lat="41.6991097" lon="13.4223186"><ele>517.3333333333334</ele><time>2026-04-26T13:27:37.961Z</time></trkpt><trkpt lat="41.6989635" lon="13.4222786"><ele>521.6666666666667</ele><time>2026-04-26T13:27:38.948Z</time></trkpt><trkpt lat="41.69882" lon="13.4222427"><ele>526.0</ele><time>2026-04-26T13:27:39.948Z</time></trkpt><trkpt lat="41.698668" lon="13.4221832"><ele>531.0</ele><time>2026-04-26T13:27:40.961Z</time></trkpt><trkpt lat="41.6985158" lon="13.4221106"><ele>536.0</ele><time>2026-04-26T13:27:41.95Z</time></trkpt><trkpt lat="41.6983618" lon="13.4220367"><ele>541.0</ele><time>2026-04-26T13:27:42.951Z</time></trkpt><trkpt lat="41.6982091" lon="13.4219724"><ele>541.0</ele><time>2026-04-26T13:27:43.954Z</time></trkpt><trkpt lat="41.6980439" lon="13.4219188"><ele>541.0</ele><time>2026-04-26T13:27:44.957Z</time></trkpt><trkpt lat="41.6978859" lon="13.4219044"><ele>541.0</ele><time>2026-04-26T13:27:45.954Z</time></trkpt><trkpt lat="41.6977384" lon="13.4219211"><ele>541.0</ele><time>2026-04-26T13:27:46.964Z</time></trkpt><trkpt lat="41.6975961" lon="13.4219672"><ele>541.0</ele><time>2026-04-26T13:27:47.951Z</time></trkpt><trkpt lat="41.6974579" lon="13.4220415"><ele>541.0</ele><time>2026-04-26T13:27:48.958Z</time></trkpt><trkpt lat="41.6973115" lon="13.4221204"><ele>538.0</ele><time>2026-04-26T13:27:49.952Z</time></trkpt><trkpt lat="41.6971605" lon="13.4221958"><ele>535.0</ele><time>2026-04-26T13:27:50.948Z</time></trkpt><trkpt lat="41.6969988" lon="13.4222417"><ele>532.0</ele><time>2026-04-26T13:27:51.957Z</time></trkpt><trkpt lat="41.6968361" lon="13.4222711"><ele>532.0</ele><time>2026-04-26T13:27:52.948Z</time></trkpt><trkpt lat="41.6966765" lon="13.4223013"><ele>532.0</ele><time>2026-04-26T13:27:53.953Z</time></trkpt><trkpt lat="41.6965215" lon="13.4223326"><ele>532.0</ele><time>2026-04-26T13:27:54.956Z</time></trkpt><trkpt lat="41.696369" lon="13.4223624"><ele>532.0</ele><time>2026-04-26T13:27:55.952Z</time></trkpt><trkpt lat="41.6962175" lon="13.4223794"><ele>532.0</ele><time>2026-04-26T13:27:56.95Z</time></trkpt><trkpt lat="41.6960629" lon="13.4223729"><ele>532.0</ele><time>2026-04-26T13:27:57.962Z</time></trkpt><trkpt lat="41.6959091" lon="13.4223585"><ele>533.6666666666667</ele><time>2026-04-26T13:27:58.952Z</time></trkpt><trkpt lat="41.6957368" lon="13.4223432"><ele>535.3333333333334</ele><time>2026-04-26T13:27:59.956Z</time></trkpt><trkpt lat="41.6955548" lon="13.4223257"><ele>537.0</ele><time>2026-04-26T13:28:00.956Z</time></trkpt><trkpt lat="41.6953784" lon="13.422308"><ele>538.6666666666666</ele><time>2026-04-26T13:28:01.954Z</time></trkpt><trkpt lat="41.6952035" lon="13.4222858"><ele>540.3333333333333</ele><time>2026-04-26T13:28:02.944Z</time></trkpt><trkpt lat="41.6950345" lon="13.422256"><ele>542.0</ele><time>2026-04-26T13:28:03.961Z</time></trkpt><trkpt lat="41.6948646" lon="13.4222149"><ele>542.0</ele><time>2026-04-26T13:28:04.958Z</time></trkpt><trkpt lat="41.6947011" lon="13.4221696"><ele>542.0</ele><time>2026-04-26T13:28:05.951Z</time></trkpt><trkpt lat="41.6945422" lon="13.4221251"><ele>542.0</ele><time>2026-04-26T13:28:06.953Z</time></trkpt><trkpt lat="41.694386" lon="13.4220837"><ele>548.0</ele><time>2026-04-26T13:28:07.956Z</time></trkpt><trkpt lat="41.6942297" lon="13.4220523"><ele>554.0</ele><time>2026-04-26T13:28:08.956Z</time></trkpt><trkpt lat="41.6940742" lon="13.422008"><ele>560.0</ele><time>2026-04-26T13:28:09.951Z</time></trkpt><trkpt lat="41.6939139" lon="13.4219875"><ele>560.0</ele><time>2026-04-26T13:28:10.957Z</time></trkpt><trkpt lat="41.6937646" lon="13.4219737"><ele>560.0</ele><time>2026-04-26T13:28:11.955Z</time></trkpt><trkpt lat="41.6936237" lon="13.4219424"><ele>560.0</ele><time>2026-04-26T13:28:12.957Z</time></trkpt><trkpt lat="41.6934889" lon="13.4218903"><ele>560.0</ele><time>2026-04-26T13:28:13.948Z</time></trkpt><trkpt lat="41.6933617" lon="13.4218186"><ele>560.0</ele><time>2026-04-26T13:28:14.959Z</time></trkpt><trkpt lat="41.6932466" lon="13.4217446"><ele>560.0</ele><time>2026-04-26T13:28:15.959Z</time></trkpt><trkpt lat="41.6931508" lon="13.4216696"><ele>560.0</ele><time>2026-04-26T13:28:16.949Z</time></trkpt><trkpt lat="41.693095" lon="13.4216018"><ele>560.0</ele><time>2026-04-26T13:28:17.949Z</time></trkpt><trkpt lat="41.6930817" lon="13.421511"><ele>560.0</ele><time>2026-04-26T13:28:19.948Z</time></trkpt><trkpt lat="41.693178" lon="13.4215022"><ele>560.0</ele><time>2026-04-26T13:28:22.944Z</time></trkpt><trkpt lat="41.6932393" lon="13.421536"><ele>560.0</ele><time>2026-04-26T13:28:23.955Z</time></trkpt><trkpt lat="41.6933207" lon="13.4215642"><ele>560.0</ele><time>2026-04-26T13:28:24.947Z</time></trkpt><trkpt lat="41.6934129" lon="13.4215865"><ele>560.0</ele><time>2026-04-26T13:28:25.947Z</time></trkpt><trkpt lat="41.6935234" lon="13.4216063"><ele>560.0</ele><time>2026-04-26T13:28:26.95Z</time></trkpt><trkpt lat="41.6936496" lon="13.4216137"><ele>560.0</ele><time>2026-04-26T13:28:27.955Z</time></trkpt><trkpt lat="41.6937804" lon="13.4216102"><ele>560.0</ele><time>2026-04-26T13:28:28.95Z</time></trkpt><trkpt lat="41.6939143" lon="13.4216013"><ele>560.0</ele><time>2026-04-26T13:28:29.956Z</time></trkpt><trkpt lat="41.6940473" lon="13.4215923"><ele>560.0</ele><time>2026-04-26T13:28:30.958Z</time></trkpt><trkpt lat="41.6941782" lon="13.4215816"><ele>560.0</ele><time>2026-04-26T13:28:31.954Z</time></trkpt><trkpt lat="41.6943013" lon="13.421571"><ele>560.0</ele><time>2026-04-26T13:28:32.958Z</time></trkpt><trkpt lat="41.6944078" lon="13.4215533"><ele>560.0</ele><time>2026-04-26T13:28:33.953Z</time></trkpt><trkpt lat="41.6944927" lon="13.4215202"><ele>560.0</ele><time>2026-04-26T13:28:34.943Z</time></trkpt><trkpt lat="41.6945524" lon="13.4214699"><ele>560.0</ele><time>2026-04-26T13:28:35.943Z</time></trkpt><trkpt lat="41.6945707" lon="13.4213242"><ele>565.2</ele><time>2026-04-26T13:28:37.949Z</time></trkpt><trkpt lat="41.6944884" lon="13.4212262"><ele>570.4</ele><time>2026-04-26T13:28:39.956Z</time></trkpt><trkpt lat="41.6943993" lon="13.4212163"><ele>575.6</ele><time>2026-04-26T13:28:40.948Z</time></trkpt><trkpt lat="41.6942952" lon="13.4212315"><ele>580.8</ele><time>2026-04-26T13:28:41.958Z</time></trkpt><trkpt lat="41.6941855" lon="13.4212443"><ele>586.0</ele><time>2026-04-26T13:28:42.952Z</time></trkpt><trkpt lat="41.694063" lon="13.4212379"><ele>586.0</ele><time>2026-04-26T13:28:43.947Z</time></trkpt><trkpt lat="41.6939415" lon="13.4212126"><ele>586.0</ele><time>2026-04-26T13:28:44.952Z</time></trkpt><trkpt lat="41.6938257" lon="13.4211878"><ele>586.0</ele><time>2026-04-26T13:28:45.951Z</time></trkpt><trkpt lat="41.693704" lon="13.4211242"><ele>586.0</ele><time>2026-04-26T13:28:46.947Z</time></trkpt><trkpt lat="41.6935903" lon="13.4210512"><ele>583.5</ele><time>2026-04-26T13:28:47.944Z</time></trkpt><trkpt lat="41.6934847" lon="13.4209878"><ele>581.0</ele><time>2026-04-26T13:28:48.95Z</time></trkpt><trkpt lat="41.6933986" lon="13.4208888"><ele>578.5</ele><time>2026-04-26T13:28:49.955Z</time></trkpt><trkpt lat="41.6933178" lon="13.4207889"><ele>576.0</ele><time>2026-04-26T13:28:50.957Z</time></trkpt><trkpt lat="41.6932431" lon="13.4206658"><ele>576.0</ele><time>2026-04-26T13:28:51.955Z</time></trkpt><trkpt lat="41.6931737" lon="13.4205537"><ele>576.0</ele><time>2026-04-26T13:28:52.957Z</time></trkpt><trkpt lat="41.6931326" lon="13.4204532"><ele>576.0</ele><time>2026-04-26T13:28:53.949Z</time></trkpt><trkpt lat="41.6931046" lon="13.420361"><ele>576.0</ele><time>2026-04-26T13:28:54.947Z</time></trkpt><trkpt lat="41.6930732" lon="13.4202266"><ele>576.0</ele><time>2026-04-26T13:28:56.963Z</time></trkpt><trkpt lat="41.6930237" lon="13.4201695"><ele>576.0</ele><time>2026-04-26T13:28:57.947Z</time></trkpt><trkpt lat="41.692973" lon="13.4201033"><ele>574.0</ele><time>2026-04-26T13:28:58.953Z</time></trkpt><trkpt lat="41.692926" lon="13.4200323"><ele>572.0</ele><time>2026-04-26T13:28:59.961Z</time></trkpt><trkpt lat="41.6928746" lon="13.4199584"><ele>570.0</ele><time>2026-04-26T13:29:00.95Z</time></trkpt><trkpt lat="41.6928203" lon="13.4198774"><ele>568.0</ele><time>2026-04-26T13:29:01.961Z</time></trkpt><trkpt lat="41.6927646" lon="13.4198035"><ele>566.0</ele><time>2026-04-26T13:29:02.957Z</time></trkpt><trkpt lat="41.6927142" lon="13.4197302"><ele>564.0</ele><time>2026-04-26T13:29:03.961Z</time></trkpt><trkpt lat="41.6926671" lon="13.419656"><ele>567.1666666666666</ele><time>2026-04-26T13:29:04.952Z</time></trkpt><trkpt lat="41.6926189" lon="13.4195867"><ele>570.3333333333334</ele><time>2026-04-26T13:29:05.956Z</time></trkpt><trkpt lat="41.6925719" lon="13.4195225"><ele>573.5</ele><time>2026-04-26T13:29:06.962Z</time></trkpt><trkpt lat="41.6925134" lon="13.4194292"><ele>576.6666666666667</ele><time>2026-04-26T13:29:08.946Z</time></trkpt><trkpt lat="41.6924493" lon="13.4193936"><ele>579.8333333333334</ele><time>2026-04-26T13:30:53.958Z</time></trkpt><trkpt lat="41.6923695" lon="13.4192643"><ele>583.0</ele><time>2026-04-26T13:30:55.949Z</time></trkpt><trkpt lat="41.692327" lon="13.4191856"><ele>583.0</ele><time>2026-04-26T13:30:56.943Z</time></trkpt><trkpt lat="41.6922996" lon="13.4190753"><ele>583.0</ele><time>2026-04-26T13:30:57.952Z</time></trkpt><trkpt lat="41.6922734" lon="13.4189655"><ele>583.0</ele><time>2026-04-26T13:30:58.949Z</time></trkpt><trkpt lat="41.6922433" lon="13.4188553"><ele>583.0</ele><time>2026-04-26T13:30:59.947Z</time></trkpt><trkpt lat="41.6922183" lon="13.4187522"><ele>583.0</ele><time>2026-04-26T13:31:00.947Z</time></trkpt><trkpt lat="41.6921917" lon="13.4186589"><ele>583.0</ele><time>2026-04-26T13:31:01.947Z</time></trkpt><trkpt lat="41.6921686" lon="13.4185625"><ele>584.8333333333334</ele><time>2026-04-26T13:31:02.953Z</time></trkpt><trkpt lat="41.6921516" lon="13.4184676"><ele>586.6666666666667</ele><time>2026-04-26T13:31:03.96Z</time></trkpt><trkpt lat="41.6921455" lon="13.4183736"><ele>588.5</ele><time>2026-04-26T13:31:04.948Z</time></trkpt><trkpt lat="41.6921428" lon="13.4182842"><ele>590.3333333333334</ele><time>2026-04-26T13:31:05.943Z</time></trkpt><trkpt lat="41.6921735" lon="13.4181468"><ele>592.1666666666666</ele><time>2026-04-26T13:31:07.943Z</time></trkpt><trkpt lat="41.6922089" lon="13.4180713"><ele>594.0</ele><time>2026-04-26T13:31:09.96Z</time></trkpt><trkpt lat="41.6922464" lon="13.4179853"><ele>592.8333333333334</ele><time>2026-04-26T13:31:12.953Z</time></trkpt><trkpt lat="41.6923054" lon="13.4179179"><ele>591.6666666666666</ele><time>2026-04-26T13:31:14.94Z</time></trkpt><trkpt lat="41.6923963" lon="13.4177944"><ele>590.5</ele><time>2026-04-26T13:31:16.945Z</time></trkpt><trkpt lat="41.6924538" lon="13.4177446"><ele>589.3333333333333</ele><time>2026-04-26T13:31:17.949Z</time></trkpt><trkpt lat="41.69251" lon="13.4177001"><ele>588.1666666666666</ele><time>2026-04-26T13:31:18.953Z</time></trkpt><trkpt lat="41.6925941" lon="13.417636"><ele>587.0</ele><time>2026-04-26T13:31:20.956Z</time></trkpt><trkpt lat="41.6926838" lon="13.4176448"><ele>587.0</ele><time>2026-04-26T13:31:22.95Z</time></trkpt><trkpt lat="41.6927468" lon="13.4176638"><ele>587.0</ele><time>2026-04-26T13:31:23.957Z</time></trkpt><trkpt lat="41.6928142" lon="13.4176837"><ele>587.0</ele><time>2026-04-26T13:31:24.95Z</time></trkpt><trkpt lat="41.6928906" lon="13.4177005"><ele>587.0</ele><time>2026-04-26T13:31:25.957Z</time></trkpt><trkpt lat="41.6929761" lon="13.4177163"><ele>587.0</ele><time>2026-04-26T13:31:26.949Z</time></trkpt><trkpt lat="41.693066" lon="13.4177347"><ele>587.0</ele><time>2026-04-26T13:31:27.952Z</time></trkpt><trkpt lat="41.6931588" lon="13.4177555"><ele>583.6</ele><time>2026-04-26T13:31:28.959Z</time></trkpt><trkpt lat="41.693253" lon="13.4177756"><ele>580.2</ele><time>2026-04-26T13:31:29.957Z</time></trkpt><trkpt lat="41.6933582" lon="13.4177936"><ele>576.8</ele><time>2026-04-26T13:31:30.943Z</time></trkpt><trkpt lat="41.6934612" lon="13.4178038"><ele>573.4</ele><time>2026-04-26T13:31:31.948Z</time></trkpt><trkpt lat="41.693564" lon="13.4178032"><ele>570.0</ele><time>2026-04-26T13:31:32.942Z</time></trkpt><trkpt lat="41.6936644" lon="13.4177936"><ele>570.0</ele><time>2026-04-26T13:31:33.941Z</time></trkpt><trkpt lat="41.6937631" lon="13.4177747"><ele>570.0</ele><time>2026-04-26T13:31:34.948Z</time></trkpt><trkpt lat="41.6938609" lon="13.4177402"><ele>570.0</ele><time>2026-04-26T13:31:35.948Z</time></trkpt><trkpt lat="41.6939518" lon="13.4176829"><ele>570.0</ele><time>2026-04-26T13:31:36.94Z</time></trkpt><trkpt lat="41.6940343" lon="13.4176101"><ele>570.0</ele><time>2026-04-26T13:31:37.952Z</time></trkpt><trkpt lat="41.6941112" lon="13.4175219"><ele>570.0</ele><time>2026-04-26T13:31:38.955Z</time></trkpt><trkpt lat="41.6941825" lon="13.4174181"><ele>570.0</ele><time>2026-04-26T13:31:39.942Z</time></trkpt><trkpt lat="41.6942522" lon="13.4173148"><ele>570.0</ele><time>2026-04-26T13:31:40.948Z</time></trkpt><trkpt lat="41.6943153" lon="13.4171993"><ele>570.0</ele><time>2026-04-26T13:31:41.952Z</time></trkpt><trkpt lat="41.6943804" lon="13.4170868"><ele>570.0</ele><time>2026-04-26T13:31:42.945Z</time></trkpt><trkpt lat="41.6944473" lon="13.4169761"><ele>569.8</ele><time>2026-04-26T13:31:43.958Z</time></trkpt><trkpt lat="41.6945129" lon="13.4168638"><ele>569.6</ele><time>2026-04-26T13:31:44.951Z</time></trkpt><trkpt lat="41.6945729" lon="13.4167555"><ele>569.4</ele><time>2026-04-26T13:31:45.955Z</time></trkpt><trkpt lat="41.6946279" lon="13.4166454"><ele>569.2</ele><time>2026-04-26T13:31:46.958Z</time></trkpt><trkpt lat="41.6946802" lon="13.4165304"><ele>569.0</ele><time>2026-04-26T13:31:47.943Z</time></trkpt><trkpt lat="41.694734" lon="13.4164092"><ele>566.25</ele><time>2026-04-26T13:31:48.947Z</time></trkpt><trkpt lat="41.6947924" lon="13.4162802"><ele>563.5</ele><time>2026-04-26T13:31:49.955Z</time></trkpt><trkpt lat="41.6948569" lon="13.4161457"><ele>560.75</ele><time>2026-04-26T13:31:50.95Z</time></trkpt><trkpt lat="41.6949226" lon="13.4160057"><ele>558.0</ele><time>2026-04-26T13:31:51.947Z</time></trkpt><trkpt lat="41.6949866" lon="13.4158613"><ele>558.0</ele><time>2026-04-26T13:31:52.95Z</time></trkpt><trkpt lat="41.6950457" lon="13.4157141"><ele>558.0</ele><time>2026-04-26T13:31:53.947Z</time></trkpt><trkpt lat="41.6950957" lon="13.4155637"><ele>558.0</ele><time>2026-04-26T13:31:54.943Z</time></trkpt><trkpt lat="41.6951335" lon="13.4154051"><ele>558.0</ele><time>2026-04-26T13:31:55.953Z</time></trkpt><trkpt lat="41.6951627" lon="13.415239"><ele>558.5</ele><time>2026-04-26T13:31:56.943Z</time></trkpt><trkpt lat="41.6951912" lon="13.4150705"><ele>559.0</ele><time>2026-04-26T13:31:57.944Z</time></trkpt><trkpt lat="41.6952193" lon="13.4149008"><ele>559.5</ele><time>2026-04-26T13:31:58.948Z</time></trkpt><trkpt lat="41.6952521" lon="13.4147322"><ele>560.0</ele><time>2026-04-26T13:31:59.945Z</time></trkpt><trkpt lat="41.695285" lon="13.4145716"><ele>560.0</ele><time>2026-04-26T13:32:00.943Z</time></trkpt><trkpt lat="41.6953219" lon="13.4144167"><ele>560.0</ele><time>2026-04-26T13:32:01.94Z</time></trkpt><trkpt lat="41.6953583" lon="13.4142618"><ele>560.0</ele><time>2026-04-26T13:32:02.957Z</time></trkpt><trkpt lat="41.6953947" lon="13.4141216"><ele>560.0</ele><time>2026-04-26T13:32:03.954Z</time></trkpt><trkpt lat="41.6954268" lon="13.4139711"><ele>559.25</ele><time>2026-04-26T13:32:04.948Z</time></trkpt><trkpt lat="41.6954641" lon="13.4138081"><ele>558.5</ele><time>2026-04-26T13:32:05.957Z</time></trkpt><trkpt lat="41.6955085" lon="13.4136415"><ele>557.75</ele><time>2026-04-26T13:32:06.95Z</time></trkpt><trkpt lat="41.6955625" lon="13.413474"><ele>557.0</ele><time>2026-04-26T13:32:07.951Z</time></trkpt><trkpt lat="41.6956216" lon="13.4133137"><ele>557.0</ele><time>2026-04-26T13:32:08.948Z</time></trkpt><trkpt lat="41.6956863" lon="13.4131576"><ele>557.0</ele><time>2026-04-26T13:32:09.947Z</time></trkpt><trkpt lat="41.6957576" lon="13.4130061"><ele>557.0</ele><time>2026-04-26T13:32:10.942Z</time></trkpt><trkpt lat="41.6958387" lon="13.4128673"><ele>557.0</ele><time>2026-04-26T13:32:11.957Z</time></trkpt><trkpt lat="41.6959333" lon="13.4127479"><ele>556.75</ele><time>2026-04-26T13:32:12.954Z</time></trkpt><trkpt lat="41.6960393" lon="13.4126477"><ele>556.5</ele><time>2026-04-26T13:32:13.944Z</time></trkpt><trkpt lat="41.6961499" lon="13.4125606"><ele>556.25</ele><time>2026-04-26T13:32:14.945Z</time></trkpt><trkpt lat="41.6962643" lon="13.4124799"><ele>556.0</ele><time>2026-04-26T13:32:15.955Z</time></trkpt><trkpt lat="41.6963786" lon="13.4123996"><ele>556.0</ele><time>2026-04-26T13:32:16.943Z</time></trkpt><trkpt lat="41.6964932" lon="13.4123177"><ele>556.0</ele><time>2026-04-26T13:32:17.963Z</time></trkpt><trkpt lat="41.6966125" lon="13.4122324"><ele>556.0</ele><time>2026-04-26T13:32:18.95Z</time></trkpt><trkpt lat="41.6967347" lon="13.4121485"><ele>556.0</ele><time>2026-04-26T13:32:19.949Z</time></trkpt><trkpt lat="41.6968599" lon="13.4120666"><ele>554.75</ele><time>2026-04-26T13:32:20.951Z</time></trkpt><trkpt lat="41.6969867" lon="13.4119837"><ele>553.5</ele><time>2026-04-26T13:32:21.956Z</time></trkpt><trkpt lat="41.6971149" lon="13.4119028"><ele>552.25</ele><time>2026-04-26T13:32:22.953Z</time></trkpt><trkpt lat="41.6972425" lon="13.4118229"><ele>551.0</ele><time>2026-04-26T13:32:23.959Z</time></trkpt><trkpt lat="41.6973694" lon="13.4117356"><ele>551.0</ele><time>2026-04-26T13:32:24.958Z</time></trkpt><trkpt lat="41.6974927" lon="13.4116346"><ele>551.0</ele><time>2026-04-26T13:32:25.945Z</time></trkpt><trkpt lat="41.6976087" lon="13.4115154"><ele>551.0</ele><time>2026-04-26T13:32:26.948Z</time></trkpt><trkpt lat="41.6977237" lon="13.4113918"><ele>551.0</ele><time>2026-04-26T13:32:27.945Z</time></trkpt><trkpt lat="41.6978284" lon="13.4112397"><ele>551.0</ele><time>2026-04-26T13:32:28.944Z</time></trkpt><trkpt lat="41.6979367" lon="13.4110945"><ele>551.0</ele><time>2026-04-26T13:32:29.95Z</time></trkpt><trkpt lat="41.6980548" lon="13.4109641"><ele>551.0</ele><time>2026-04-26T13:32:30.951Z</time></trkpt><trkpt lat="41.6981857" lon="13.4108515"><ele>551.0</ele><time>2026-04-26T13:32:31.946Z</time></trkpt><trkpt lat="41.6983302" lon="13.4107596"><ele>551.0</ele><time>2026-04-26T13:32:32.948Z</time></trkpt><trkpt lat="41.6984944" lon="13.410677"><ele>551.0</ele><time>2026-04-26T13:32:33.943Z</time></trkpt><trkpt lat="41.6986731" lon="13.4105973"><ele>549.6666666666666</ele><time>2026-04-26T13:32:34.948Z</time></trkpt><trkpt lat="41.6988488" lon="13.410522"><ele>548.3333333333334</ele><time>2026-04-26T13:32:35.964Z</time></trkpt><trkpt lat="41.6990159" lon="13.4104519"><ele>547.0</ele><time>2026-04-26T13:32:36.947Z</time></trkpt><trkpt lat="41.6991784" lon="13.4103908"><ele>547.0</ele><time>2026-04-26T13:32:37.951Z</time></trkpt><trkpt lat="41.69934" lon="13.410344"><ele>547.0</ele><time>2026-04-26T13:32:38.951Z</time></trkpt><trkpt lat="41.6994969" lon="13.4103092"><ele>547.0</ele><time>2026-04-26T13:32:39.948Z</time></trkpt><trkpt lat="41.6996475" lon="13.4102793"><ele>550.0</ele><time>2026-04-26T13:32:40.943Z</time></trkpt><trkpt lat="41.6997959" lon="13.4102646"><ele>553.0</ele><time>2026-04-26T13:32:41.954Z</time></trkpt><trkpt lat="41.6999357" lon="13.4102595"><ele>556.0</ele><time>2026-04-26T13:32:42.941Z</time></trkpt><trkpt lat="41.7000717" lon="13.4102478"><ele>559.0</ele><time>2026-04-26T13:32:43.951Z</time></trkpt><trkpt lat="41.7001841" lon="13.4102319"><ele>558.4</ele><time>2026-04-26T13:32:44.949Z</time></trkpt><trkpt lat="41.7002988" lon="13.4102231"><ele>557.8</ele><time>2026-04-26T13:32:45.948Z</time></trkpt><trkpt lat="41.7004104" lon="13.4102061"><ele>557.2</ele><time>2026-04-26T13:32:46.951Z</time></trkpt><trkpt lat="41.700519" lon="13.4101798"><ele>556.6</ele><time>2026-04-26T13:32:47.951Z</time></trkpt><trkpt lat="41.7006252" lon="13.4101438"><ele>556.0</ele><time>2026-04-26T13:32:48.955Z</time></trkpt><trkpt lat="41.700736" lon="13.4101007"><ele>556.0</ele><time>2026-04-26T13:32:49.956Z</time></trkpt><trkpt lat="41.7008481" lon="13.4100424"><ele>556.0</ele><time>2026-04-26T13:32:50.949Z</time></trkpt><trkpt lat="41.7009587" lon="13.409957"><ele>556.0</ele><time>2026-04-26T13:32:51.944Z</time></trkpt><trkpt lat="41.7010617" lon="13.4098402"><ele>556.0</ele><time>2026-04-26T13:32:52.946Z</time></trkpt><trkpt lat="41.7011509" lon="13.4096963"><ele>557.6666666666667</ele><time>2026-04-26T13:32:53.943Z</time></trkpt><trkpt lat="41.701213" lon="13.4095224"><ele>559.3333333333334</ele><time>2026-04-26T13:32:54.95Z</time></trkpt><trkpt lat="41.7012453" lon="13.4093251"><ele>561.0</ele><time>2026-04-26T13:32:55.956Z</time></trkpt><trkpt lat="41.7012543" lon="13.4091067"><ele>561.0</ele><time>2026-04-26T13:32:56.947Z</time></trkpt><trkpt lat="41.7012638" lon="13.408874"><ele>561.0</ele><time>2026-04-26T13:32:57.947Z</time></trkpt><trkpt lat="41.7012444" lon="13.4086164"><ele>561.0</ele><time>2026-04-26T13:32:58.961Z</time></trkpt><trkpt lat="41.7012212" lon="13.4083492"><ele>559.3333333333334</ele><time>2026-04-26T13:32:59.952Z</time></trkpt><trkpt lat="41.7012039" lon="13.4080816"><ele>557.6666666666667</ele><time>2026-04-26T13:33:00.95Z</time></trkpt><trkpt lat="41.7011894" lon="13.4078129"><ele>556.0</ele><time>2026-04-26T13:33:01.945Z</time></trkpt><trkpt lat="41.701174" lon="13.4075643"><ele>555.6666666666667</ele><time>2026-04-26T13:33:02.945Z</time></trkpt><trkpt lat="41.7011568" lon="13.4073372"><ele>555.3333333333334</ele><time>2026-04-26T13:33:03.951Z</time></trkpt><trkpt lat="41.7011381" lon="13.4071299"><ele>555.0</ele><time>2026-04-26T13:33:04.949Z</time></trkpt><trkpt lat="41.7011232" lon="13.4069373"><ele>554.75</ele><time>2026-04-26T13:33:05.946Z</time></trkpt><trkpt lat="41.7011138" lon="13.4067577"><ele>554.5</ele><time>2026-04-26T13:33:06.952Z</time></trkpt><trkpt lat="41.7011034" lon="13.406589"><ele>554.25</ele><time>2026-04-26T13:33:07.947Z</time></trkpt><trkpt lat="41.7010929" lon="13.4064395"><ele>554.0</ele><time>2026-04-26T13:33:08.948Z</time></trkpt><trkpt lat="41.7010849" lon="13.4063187"><ele>553.5</ele><time>2026-04-26T13:33:09.944Z</time></trkpt><trkpt lat="41.7010809" lon="13.4062221"><ele>553.0</ele><time>2026-04-26T13:33:10.955Z</time></trkpt><trkpt lat="41.7010855" lon="13.4061145"><ele>552.5</ele><time>2026-04-26T13:33:12.946Z</time></trkpt><trkpt lat="41.7010399" lon="13.4062126"><ele>552.0</ele><time>2026-04-26T13:33:23.956Z</time></trkpt><trkpt lat="41.7010455" lon="13.4062993"><ele>551.5</ele><time>2026-04-26T13:33:24.949Z</time></trkpt><trkpt lat="41.7010511" lon="13.4064205"><ele>551.0</ele><time>2026-04-26T13:33:25.956Z</time></trkpt><trkpt lat="41.7010626" lon="13.406555"><ele>551.75</ele><time>2026-04-26T13:33:26.949Z</time></trkpt><trkpt lat="41.7010727" lon="13.4067039"><ele>552.5</ele><time>2026-04-26T13:33:27.945Z</time></trkpt><trkpt lat="41.7010846" lon="13.4068694"><ele>553.25</ele><time>2026-04-26T13:33:28.944Z</time></trkpt><trkpt lat="41.7010937" lon="13.407049"><ele>554.0</ele><time>2026-04-26T13:33:29.952Z</time></trkpt><trkpt lat="41.7011039" lon="13.4072431"><ele>554.3333333333333</ele><time>2026-04-26T13:33:30.954Z</time></trkpt><trkpt lat="41.7011177" lon="13.4074473"><ele>554.6666666666666</ele><time>2026-04-26T13:33:31.953Z</time></trkpt><trkpt lat="41.7011314" lon="13.4076595"><ele>555.0</ele><time>2026-04-26T13:33:32.967Z</time></trkpt><trkpt lat="41.7011466" lon="13.4078797"><ele>555.3333333333334</ele><time>2026-04-26T13:33:33.948Z</time></trkpt><trkpt lat="41.701163" lon="13.4081055"><ele>555.6666666666667</ele><time>2026-04-26T13:33:34.965Z</time></trkpt><trkpt lat="41.7011775" lon="13.4083293"><ele>556.0</ele><time>2026-04-26T13:33:36.003Z</time></trkpt><trkpt lat="41.7011912" lon="13.4085495"><ele>556.0</ele><time>2026-04-26T13:33:36.947Z</time></trkpt><trkpt lat="41.7012057" lon="13.408766"><ele>556.0</ele><time>2026-04-26T13:33:37.953Z</time></trkpt><trkpt lat="41.7012168" lon="13.4089777"><ele>556.0</ele><time>2026-04-26T13:33:38.954Z</time></trkpt><trkpt lat="41.7012186" lon="13.4091795"><ele>556.0</ele><time>2026-04-26T13:33:39.945Z</time></trkpt><trkpt lat="41.7012029" lon="13.4093648"><ele>556.0</ele><time>2026-04-26T13:33:40.949Z</time></trkpt><trkpt lat="41.7011682" lon="13.4095298"><ele>556.0</ele><time>2026-04-26T13:33:41.957Z</time></trkpt><trkpt lat="41.7011155" lon="13.4096761"><ele>556.0</ele><time>2026-04-26T13:33:42.952Z</time></trkpt><trkpt lat="41.7010442" lon="13.4098049"><ele>556.0</ele><time>2026-04-26T13:33:43.947Z</time></trkpt><trkpt lat="41.70095" lon="13.4099114"><ele>556.0</ele><time>2026-04-26T13:33:44.948Z</time></trkpt><trkpt lat="41.7008409" lon="13.4099865"><ele>556.0</ele><time>2026-04-26T13:33:45.951Z</time></trkpt><trkpt lat="41.7007278" lon="13.4100274"><ele>556.0</ele><time>2026-04-26T13:33:46.947Z</time></trkpt><trkpt lat="41.7006178" lon="13.4100371"><ele>556.0</ele><time>2026-04-26T13:33:47.953Z</time></trkpt><trkpt lat="41.700519" lon="13.4100135"><ele>556.0</ele><time>2026-04-26T13:33:48.95Z</time></trkpt><trkpt lat="41.7004379" lon="13.409974"><ele>556.0</ele><time>2026-04-26T13:33:49.95Z</time></trkpt><trkpt lat="41.7003742" lon="13.4099526"><ele>556.0</ele><time>2026-04-26T13:33:50.956Z</time></trkpt><trkpt lat="41.7002938" lon="13.4099896"><ele>556.0</ele><time>2026-04-26T13:33:52.953Z</time></trkpt><trkpt lat="41.7002671" lon="13.4100721"><ele>556.0</ele><time>2026-04-26T13:33:55.013Z</time></trkpt><trkpt lat="41.7002832" lon="13.4101623"><ele>556.0</ele><time>2026-04-26T13:33:56.95Z</time></trkpt><trkpt lat="41.7003299" lon="13.4102284"><ele>556.0</ele><time>2026-04-26T13:33:58.992Z</time></trkpt><trkpt lat="41.7004521" lon="13.4102618"><ele>556.0</ele><time>2026-04-26T13:34:35.97Z</time></trkpt><trkpt lat="41.7005147" lon="13.4102716"><ele>556.0</ele><time>2026-04-26T13:34:36.953Z</time></trkpt><trkpt lat="41.7006005" lon="13.4102894"><ele>556.0</ele><time>2026-04-26T13:34:37.952Z</time></trkpt><trkpt lat="41.7006972" lon="13.4103139"><ele>556.0</ele><time>2026-04-26T13:34:38.943Z</time></trkpt><trkpt lat="41.7008189" lon="13.410341"><ele>556.0</ele><time>2026-04-26T13:34:39.943Z</time></trkpt><trkpt lat="41.7009536" lon="13.410368"><ele>556.0</ele><time>2026-04-26T13:34:40.944Z</time></trkpt><trkpt lat="41.701094" lon="13.410393"><ele>556.0</ele><time>2026-04-26T13:34:41.944Z</time></trkpt><trkpt lat="41.7012351" lon="13.4104111"><ele>556.0</ele><time>2026-04-26T13:34:42.947Z</time></trkpt><trkpt lat="41.7013704" lon="13.4104101"><ele>557.0</ele><time>2026-04-26T13:34:43.944Z</time></trkpt><trkpt lat="41.7014969" lon="13.4103799"><ele>558.0</ele><time>2026-04-26T13:34:44.947Z</time></trkpt><trkpt lat="41.7016133" lon="13.4103222"><ele>559.0</ele><time>2026-04-26T13:34:45.953Z</time></trkpt><trkpt lat="41.7017265" lon="13.4102388"><ele>560.0</ele><time>2026-04-26T13:34:46.943Z</time></trkpt><trkpt lat="41.7018397" lon="13.4101307"><ele>565.6666666666666</ele><time>2026-04-26T13:34:47.951Z</time></trkpt><trkpt lat="41.7019563" lon="13.4100058"><ele>571.3333333333334</ele><time>2026-04-26T13:34:48.943Z</time></trkpt><trkpt lat="41.7020791" lon="13.4098709"><ele>577.0</ele><time>2026-04-26T13:34:49.945Z</time></trkpt><trkpt lat="41.702204" lon="13.4097358"><ele>575.6666666666667</ele><time>2026-04-26T13:34:50.957Z</time></trkpt><trkpt lat="41.7023232" lon="13.4095967"><ele>574.3333333333334</ele><time>2026-04-26T13:34:51.956Z</time></trkpt><trkpt lat="41.7024287" lon="13.4094496"><ele>573.0</ele><time>2026-04-26T13:34:52.951Z</time></trkpt><trkpt lat="41.702522" lon="13.4093032"><ele>573.0</ele><time>2026-04-26T13:34:53.956Z</time></trkpt><trkpt lat="41.7025719" lon="13.4091357"><ele>573.0</ele><time>2026-04-26T13:34:54.958Z</time></trkpt><trkpt lat="41.7025971" lon="13.4089679"><ele>573.0</ele><time>2026-04-26T13:34:55.953Z</time></trkpt><trkpt lat="41.7026144" lon="13.4088177"><ele>573.0</ele><time>2026-04-26T13:34:56.942Z</time></trkpt><trkpt lat="41.7026437" lon="13.4087056"><ele>572.8333333333334</ele><time>2026-04-26T13:34:57.948Z</time></trkpt><trkpt lat="41.7026981" lon="13.4086331"><ele>572.6666666666666</ele><time>2026-04-26T13:34:58.954Z</time></trkpt><trkpt lat="41.7027641" lon="13.4086167"><ele>572.5</ele><time>2026-04-26T13:34:59.953Z</time></trkpt><trkpt lat="41.7028376" lon="13.4086321"><ele>572.3333333333333</ele><time>2026-04-26T13:35:00.96Z</time></trkpt><trkpt lat="41.702923" lon="13.408654"><ele>572.1666666666666</ele><time>2026-04-26T13:35:01.965Z</time></trkpt><trkpt lat="41.703031" lon="13.4086824"><ele>572.0</ele><time>2026-04-26T13:35:02.945Z</time></trkpt><trkpt lat="41.7031525" lon="13.4087026"><ele>575.5</ele><time>2026-04-26T13:35:03.957Z</time></trkpt><trkpt lat="41.7032901" lon="13.4087161"><ele>579.0</ele><time>2026-04-26T13:35:04.958Z</time></trkpt><trkpt lat="41.7034241" lon="13.4087252"><ele>582.5</ele><time>2026-04-26T13:35:05.944Z</time></trkpt><trkpt lat="41.7035487" lon="13.4087313"><ele>586.0</ele><time>2026-04-26T13:35:06.947Z</time></trkpt><trkpt lat="41.7036527" lon="13.4087315"><ele>589.4</ele><time>2026-04-26T13:35:07.95Z</time></trkpt><trkpt lat="41.703737" lon="13.4087103"><ele>592.8</ele><time>2026-04-26T13:35:08.949Z</time></trkpt><trkpt lat="41.7038144" lon="13.4086552"><ele>596.1999999999999</ele><time>2026-04-26T13:35:09.952Z</time></trkpt><trkpt lat="41.7038955" lon="13.4085858"><ele>599.6</ele><time>2026-04-26T13:35:10.943Z</time></trkpt><trkpt lat="41.703976" lon="13.4084474"><ele>603.0</ele><time>2026-04-26T13:35:11.942Z</time></trkpt><trkpt lat="41.7040696" lon="13.4082912"><ele>603.0</ele><time>2026-04-26T13:35:12.952Z</time></trkpt><trkpt lat="41.7041736" lon="13.4081352"><ele>603.0</ele><time>2026-04-26T13:35:13.953Z</time></trkpt><trkpt lat="41.7042706" lon="13.4079727"><ele>603.0</ele><time>2026-04-26T13:35:14.951Z</time></trkpt><trkpt lat="41.7043641" lon="13.407803"><ele>607.25</ele><time>2026-04-26T13:35:15.953Z</time></trkpt><trkpt lat="41.7044505" lon="13.4076367"><ele>611.5</ele><time>2026-04-26T13:35:16.95Z</time></trkpt><trkpt lat="41.7045431" lon="13.4074799"><ele>615.75</ele><time>2026-04-26T13:35:17.952Z</time></trkpt><trkpt lat="41.7046377" lon="13.4073413"><ele>620.0</ele><time>2026-04-26T13:35:18.945Z</time></trkpt><trkpt lat="41.7047332" lon="13.4072054"><ele>619.5</ele><time>2026-04-26T13:35:19.948Z</time></trkpt><trkpt lat="41.7048272" lon="13.407063"><ele>619.0</ele><time>2026-04-26T13:35:20.953Z</time></trkpt><trkpt lat="41.7049099" lon="13.4069023"><ele>618.5</ele><time>2026-04-26T13:35:21.958Z</time></trkpt><trkpt lat="41.704986" lon="13.4067339"><ele>618.0</ele><time>2026-04-26T13:35:22.945Z</time></trkpt><trkpt lat="41.7050535" lon="13.4065586"><ele>618.0</ele><time>2026-04-26T13:35:23.945Z</time></trkpt><trkpt lat="41.7051186" lon="13.406386"><ele>618.0</ele><time>2026-04-26T13:35:24.965Z</time></trkpt><trkpt lat="41.7051974" lon="13.4062219"><ele>618.0</ele><time>2026-04-26T13:35:25.986Z</time></trkpt><trkpt lat="41.7052951" lon="13.4060535"><ele>618.0</ele><time>2026-04-26T13:35:26.944Z</time></trkpt><trkpt lat="41.7053908" lon="13.4058926"><ele>622.0</ele><time>2026-04-26T13:35:27.959Z</time></trkpt><trkpt lat="41.7054758" lon="13.4057343"><ele>626.0</ele><time>2026-04-26T13:35:28.948Z</time></trkpt><trkpt lat="41.705564" lon="13.4055782"><ele>630.0</ele><time>2026-04-26T13:35:29.941Z</time></trkpt><trkpt lat="41.7056701" lon="13.4054333"><ele>634.0</ele><time>2026-04-26T13:35:30.94Z</time></trkpt><trkpt lat="41.7057879" lon="13.4052984"><ele>634.0</ele><time>2026-04-26T13:35:31.947Z</time></trkpt><trkpt lat="41.7059097" lon="13.4051592"><ele>634.0</ele><time>2026-04-26T13:35:32.951Z</time></trkpt><trkpt lat="41.7060261" lon="13.405001"><ele>634.0</ele><time>2026-04-26T13:35:33.948Z</time></trkpt><trkpt lat="41.7061406" lon="13.4048278"><ele>640.6666666666667</ele><time>2026-04-26T13:35:34.947Z</time></trkpt><trkpt lat="41.7062613" lon="13.4046516"><ele>647.3333333333334</ele><time>2026-04-26T13:35:35.948Z</time></trkpt><trkpt lat="41.7063885" lon="13.4044824"><ele>654.0</ele><time>2026-04-26T13:35:36.949Z</time></trkpt><trkpt lat="41.7065129" lon="13.404323"><ele>654.0</ele><time>2026-04-26T13:35:37.956Z</time></trkpt><trkpt lat="41.7066245" lon="13.404166"><ele>654.0</ele><time>2026-04-26T13:35:38.951Z</time></trkpt><trkpt lat="41.7067127" lon="13.404008"><ele>654.0</ele><time>2026-04-26T13:35:39.955Z</time></trkpt><trkpt lat="41.7067746" lon="13.4038521"><ele>654.0</ele><time>2026-04-26T13:35:40.951Z</time></trkpt><trkpt lat="41.7068148" lon="13.4037002"><ele>653.8000000000001</ele><time>2026-04-26T13:35:41.957Z</time></trkpt><trkpt lat="41.706843" lon="13.4035539"><ele>653.6</ele><time>2026-04-26T13:35:42.961Z</time></trkpt><trkpt lat="41.7068626" lon="13.4034079"><ele>653.4</ele><time>2026-04-26T13:35:43.957Z</time></trkpt><trkpt lat="41.7068848" lon="13.4032645"><ele>653.2</ele><time>2026-04-26T13:35:44.961Z</time></trkpt><trkpt lat="41.7069139" lon="13.4031204"><ele>653.0</ele><time>2026-04-26T13:35:45.958Z</time></trkpt><trkpt lat="41.7069514" lon="13.402977"><ele>657.0</ele><time>2026-04-26T13:35:46.952Z</time></trkpt><trkpt lat="41.7069988" lon="13.4028375"><ele>661.0</ele><time>2026-04-26T13:35:47.954Z</time></trkpt><trkpt lat="41.7070498" lon="13.4026987"><ele>665.0</ele><time>2026-04-26T13:35:48.951Z</time></trkpt><trkpt lat="41.7070972" lon="13.402555"><ele>669.0</ele><time>2026-04-26T13:35:49.952Z</time></trkpt><trkpt lat="41.7071391" lon="13.4024056"><ele>669.0</ele><time>2026-04-26T13:35:50.961Z</time></trkpt><trkpt lat="41.7071818" lon="13.4022552"><ele>669.0</ele><time>2026-04-26T13:35:51.947Z</time></trkpt><trkpt lat="41.7072297" lon="13.4021043"><ele>669.0</ele><time>2026-04-26T13:35:52.953Z</time></trkpt><trkpt lat="41.7072822" lon="13.4019548"><ele>669.0</ele><time>2026-04-26T13:35:53.958Z</time></trkpt><trkpt lat="41.7073391" lon="13.4018094"><ele>668.5</ele><time>2026-04-26T13:35:54.945Z</time></trkpt><trkpt lat="41.707399" lon="13.4016722"><ele>668.0</ele><time>2026-04-26T13:35:55.997Z</time></trkpt><trkpt lat="41.7074636" lon="13.4015409"><ele>667.5</ele><time>2026-04-26T13:35:56.964Z</time></trkpt><trkpt lat="41.7075346" lon="13.4014124"><ele>667.0</ele><time>2026-04-26T13:35:57.952Z</time></trkpt><trkpt lat="41.7076131" lon="13.4012827"><ele>665.75</ele><time>2026-04-26T13:35:58.95Z</time></trkpt><trkpt lat="41.7076988" lon="13.4011465"><ele>664.5</ele><time>2026-04-26T13:35:59.961Z</time></trkpt><trkpt lat="41.7077922" lon="13.4010055"><ele>663.25</ele><time>2026-04-26T13:36:00.951Z</time></trkpt><trkpt lat="41.7078891" lon="13.4008625"><ele>662.0</ele><time>2026-04-26T13:36:01.946Z</time></trkpt><trkpt lat="41.7079839" lon="13.4007161"><ele>665.0</ele><time>2026-04-26T13:36:02.95Z</time></trkpt><trkpt lat="41.7080778" lon="13.4005677"><ele>668.0</ele><time>2026-04-26T13:36:03.953Z</time></trkpt><trkpt lat="41.7081685" lon="13.4004195"><ele>671.0</ele><time>2026-04-26T13:36:04.96Z</time></trkpt><trkpt lat="41.7082573" lon="13.4002743"><ele>674.0</ele><time>2026-04-26T13:36:05.944Z</time></trkpt><trkpt lat="41.708349" lon="13.4001338"><ele>674.0</ele><time>2026-04-26T13:36:06.952Z</time></trkpt><trkpt lat="41.7084478" lon="13.3999959"><ele>674.0</ele><time>2026-04-26T13:36:07.958Z</time></trkpt><trkpt lat="41.7085522" lon="13.3998594"><ele>674.0</ele><time>2026-04-26T13:36:08.949Z</time></trkpt><trkpt lat="41.7086576" lon="13.3997214"><ele>674.0</ele><time>2026-04-26T13:36:09.959Z</time></trkpt><trkpt lat="41.7087632" lon="13.3995812"><ele>677.5</ele><time>2026-04-26T13:36:10.948Z</time></trkpt><trkpt lat="41.708868" lon="13.3994419"><ele>681.0</ele><time>2026-04-26T13:36:11.949Z</time></trkpt><trkpt lat="41.7089712" lon="13.3993072"><ele>684.5</ele><time>2026-04-26T13:36:12.948Z</time></trkpt><trkpt lat="41.7090742" lon="13.3991835"><ele>688.0</ele><time>2026-04-26T13:36:13.955Z</time></trkpt><trkpt lat="41.709179" lon="13.3990748"><ele>688.0</ele><time>2026-04-26T13:36:14.949Z</time></trkpt><trkpt lat="41.7092828" lon="13.3989778"><ele>688.0</ele><time>2026-04-26T13:36:15.957Z</time></trkpt><trkpt lat="41.7093758" lon="13.3988833"><ele>688.0</ele><time>2026-04-26T13:36:16.945Z</time></trkpt><trkpt lat="41.7094562" lon="13.3987857"><ele>688.0</ele><time>2026-04-26T13:36:17.954Z</time></trkpt><trkpt lat="41.7095317" lon="13.3986786"><ele>688.0</ele><time>2026-04-26T13:36:18.946Z</time></trkpt><trkpt lat="41.7096059" lon="13.3985658"><ele>688.0</ele><time>2026-04-26T13:36:19.966Z</time></trkpt><trkpt lat="41.7096819" lon="13.3984615"><ele>688.0</ele><time>2026-04-26T13:36:20.961Z</time></trkpt><trkpt lat="41.7097509" lon="13.398374"><ele>688.0</ele><time>2026-04-26T13:36:21.961Z</time></trkpt><trkpt lat="41.7098447" lon="13.3983112"><ele>688.0</ele><time>2026-04-26T13:36:22.962Z</time></trkpt><trkpt lat="41.7099351" lon="13.3982503"><ele>688.0</ele><time>2026-04-26T13:36:23.957Z</time></trkpt><trkpt lat="41.7100047" lon="13.3981607"><ele>688.0</ele><time>2026-04-26T13:36:24.958Z</time></trkpt><trkpt lat="41.7100553" lon="13.3980439"><ele>688.0</ele><time>2026-04-26T13:36:25.95Z</time></trkpt><trkpt lat="41.7100911" lon="13.3979113"><ele>688.0</ele><time>2026-04-26T13:36:26.953Z</time></trkpt><trkpt lat="41.7101351" lon="13.397779"><ele>688.0</ele><time>2026-04-26T13:36:27.957Z</time></trkpt><trkpt lat="41.7101801" lon="13.3976505"><ele>684.4</ele><time>2026-04-26T13:36:28.957Z</time></trkpt><trkpt lat="41.7102463" lon="13.3975374"><ele>680.8</ele><time>2026-04-26T13:36:29.952Z</time></trkpt><trkpt lat="41.7103166" lon="13.3974319"><ele>677.2</ele><time>2026-04-26T13:36:30.957Z</time></trkpt><trkpt lat="41.7103925" lon="13.3973391"><ele>673.6</ele><time>2026-04-26T13:36:31.954Z</time></trkpt><trkpt lat="41.7104694" lon="13.3972535"><ele>670.0</ele><time>2026-04-26T13:36:32.947Z</time></trkpt><trkpt lat="41.7105558" lon="13.3971696"><ele>670.0</ele><time>2026-04-26T13:36:33.952Z</time></trkpt><trkpt lat="41.7106559" lon="13.3970948"><ele>670.0</ele><time>2026-04-26T13:36:34.956Z</time></trkpt><trkpt lat="41.7107658" lon="13.3970274"><ele>670.0</ele><time>2026-04-26T13:36:35.953Z</time></trkpt><trkpt lat="41.7108825" lon="13.3969622"><ele>670.0</ele><time>2026-04-26T13:36:36.951Z</time></trkpt><trkpt lat="41.7110032" lon="13.3968955"><ele>668.25</ele><time>2026-04-26T13:36:37.954Z</time></trkpt><trkpt lat="41.7111256" lon="13.3968265"><ele>666.5</ele><time>2026-04-26T13:36:38.951Z</time></trkpt><trkpt lat="41.7112457" lon="13.3967553"><ele>664.75</ele><time>2026-04-26T13:36:39.967Z</time></trkpt><trkpt lat="41.7113586" lon="13.3966749"><ele>663.0</ele><time>2026-04-26T13:36:40.951Z</time></trkpt><trkpt lat="41.7114621" lon="13.3965715"><ele>663.0</ele><time>2026-04-26T13:36:41.954Z</time></trkpt><trkpt lat="41.711557" lon="13.3964533"><ele>663.0</ele><time>2026-04-26T13:36:42.948Z</time></trkpt><trkpt lat="41.711644" lon="13.3963224"><ele>663.0</ele><time>2026-04-26T13:36:43.952Z</time></trkpt><trkpt lat="41.7117289" lon="13.3961859"><ele>663.0</ele><time>2026-04-26T13:36:44.943Z</time></trkpt><trkpt lat="41.7118184" lon="13.3960528"><ele>661.5</ele><time>2026-04-26T13:36:45.957Z</time></trkpt><trkpt lat="41.7119121" lon="13.3959222"><ele>660.0</ele><time>2026-04-26T13:36:46.945Z</time></trkpt><trkpt lat="41.7120051" lon="13.3957882"><ele>658.5</ele><time>2026-04-26T13:36:47.944Z</time></trkpt><trkpt lat="41.7120965" lon="13.3956497"><ele>657.0</ele><time>2026-04-26T13:36:48.956Z</time></trkpt><trkpt lat="41.7121919" lon="13.3955136"><ele>657.25</ele><time>2026-04-26T13:36:49.954Z</time></trkpt><trkpt lat="41.7122951" lon="13.3953849"><ele>657.5</ele><time>2026-04-26T13:36:50.944Z</time></trkpt><trkpt lat="41.7124047" lon="13.3952678"><ele>657.75</ele><time>2026-04-26T13:36:51.947Z</time></trkpt><trkpt lat="41.7125177" lon="13.3951585"><ele>658.0</ele><time>2026-04-26T13:36:52.952Z</time></trkpt><trkpt lat="41.7126427" lon="13.3950587"><ele>655.6666666666667</ele><time>2026-04-26T13:36:53.943Z</time></trkpt><trkpt lat="41.7127818" lon="13.3949704"><ele>653.3333333333334</ele><time>2026-04-26T13:36:54.951Z</time></trkpt><trkpt lat="41.7129299" lon="13.3948867"><ele>651.0</ele><time>2026-04-26T13:36:55.95Z</time></trkpt><trkpt lat="41.7130827" lon="13.3947997"><ele>651.0</ele><time>2026-04-26T13:36:56.957Z</time></trkpt><trkpt lat="41.7132395" lon="13.3947105"><ele>651.0</ele><time>2026-04-26T13:36:57.947Z</time></trkpt><trkpt lat="41.7133999" lon="13.39462"><ele>651.0</ele><time>2026-04-26T13:36:58.946Z</time></trkpt><trkpt lat="41.7135624" lon="13.3945275"><ele>647.6666666666666</ele><time>2026-04-26T13:36:59.95Z</time></trkpt><trkpt lat="41.7137249" lon="13.3944317"><ele>644.3333333333333</ele><time>2026-04-26T13:37:00.939Z</time></trkpt><trkpt lat="41.7138825" lon="13.3943344"><ele>641.0</ele><time>2026-04-26T13:37:01.955Z</time></trkpt><trkpt lat="41.7140295" lon="13.3942392"><ele>641.0</ele><time>2026-04-26T13:37:02.951Z</time></trkpt><trkpt lat="41.714164" lon="13.3941406"><ele>641.0</ele><time>2026-04-26T13:37:03.946Z</time></trkpt><trkpt lat="41.7142828" lon="13.39403"><ele>641.0</ele><time>2026-04-26T13:37:04.943Z</time></trkpt><trkpt lat="41.7143827" lon="13.3939011"><ele>641.0</ele><time>2026-04-26T13:37:05.954Z</time></trkpt><trkpt lat="41.7144803" lon="13.3937704"><ele>635.6666666666666</ele><time>2026-04-26T13:37:06.946Z</time></trkpt><trkpt lat="41.7145444" lon="13.3935912"><ele>630.3333333333334</ele><time>2026-04-26T13:37:07.94Z</time></trkpt><trkpt lat="41.7146097" lon="13.3934007"><ele>625.0</ele><time>2026-04-26T13:37:08.948Z</time></trkpt><trkpt lat="41.7146847" lon="13.3932087"><ele>625.0</ele><time>2026-04-26T13:37:09.943Z</time></trkpt><trkpt lat="41.7147736" lon="13.3930094"><ele>625.0</ele><time>2026-04-26T13:37:10.945Z</time></trkpt><trkpt lat="41.7148706" lon="13.3928117"><ele>625.0</ele><time>2026-04-26T13:37:11.943Z</time></trkpt><trkpt lat="41.7149744" lon="13.3926082"><ele>621.6666666666667</ele><time>2026-04-26T13:37:12.943Z</time></trkpt><trkpt lat="41.7150896" lon="13.3924016"><ele>618.3333333333334</ele><time>2026-04-26T13:37:13.95Z</time></trkpt><trkpt lat="41.7152088" lon="13.3921972"><ele>615.0</ele><time>2026-04-26T13:37:14.949Z</time></trkpt><trkpt lat="41.7153286" lon="13.3920073"><ele>615.0</ele><time>2026-04-26T13:37:15.942Z</time></trkpt><trkpt lat="41.7154418" lon="13.3918445"><ele>615.0</ele><time>2026-04-26T13:37:16.95Z</time></trkpt><trkpt lat="41.7155446" lon="13.3917169"><ele>615.0</ele><time>2026-04-26T13:37:17.949Z</time></trkpt><trkpt lat="41.7156476" lon="13.3916172"><ele>615.0</ele><time>2026-04-26T13:37:18.942Z</time></trkpt><trkpt lat="41.7157561" lon="13.3915407"><ele>615.0</ele><time>2026-04-26T13:37:19.947Z</time></trkpt><trkpt lat="41.7158753" lon="13.3914847"><ele>615.0</ele><time>2026-04-26T13:37:20.947Z</time></trkpt><trkpt lat="41.716004" lon="13.3914429"><ele>615.0</ele><time>2026-04-26T13:37:21.955Z</time></trkpt><trkpt lat="41.7161389" lon="13.3914106"><ele>615.0</ele><time>2026-04-26T13:37:22.948Z</time></trkpt><trkpt lat="41.7162747" lon="13.3913903"><ele>614.25</ele><time>2026-04-26T13:37:23.947Z</time></trkpt><trkpt lat="41.7164048" lon="13.3913821"><ele>613.5</ele><time>2026-04-26T13:37:24.948Z</time></trkpt><trkpt lat="41.7165247" lon="13.3913793"><ele>612.75</ele><time>2026-04-26T13:37:25.952Z</time></trkpt><trkpt lat="41.716632" lon="13.3913642"><ele>612.0</ele><time>2026-04-26T13:37:26.956Z</time></trkpt><trkpt lat="41.7167244" lon="13.391333"><ele>612.0</ele><time>2026-04-26T13:37:27.947Z</time></trkpt><trkpt lat="41.716807" lon="13.3912793"><ele>612.0</ele><time>2026-04-26T13:37:28.96Z</time></trkpt><trkpt lat="41.7168808" lon="13.3912033"><ele>612.0</ele><time>2026-04-26T13:37:29.951Z</time></trkpt><trkpt lat="41.7169549" lon="13.3911197"><ele>612.0</ele><time>2026-04-26T13:37:30.947Z</time></trkpt><trkpt lat="41.7170335" lon="13.3910143"><ele>612.0</ele><time>2026-04-26T13:37:31.956Z</time></trkpt><trkpt lat="41.7170945" lon="13.3908816"><ele>607.75</ele><time>2026-04-26T13:37:32.953Z</time></trkpt><trkpt lat="41.7171459" lon="13.3907376"><ele>603.5</ele><time>2026-04-26T13:37:33.957Z</time></trkpt><trkpt lat="41.7171879" lon="13.39058"><ele>599.25</ele><time>2026-04-26T13:37:34.958Z</time></trkpt><trkpt lat="41.7172282" lon="13.3904068"><ele>595.0</ele><time>2026-04-26T13:37:35.945Z</time></trkpt><trkpt lat="41.7172672" lon="13.3902238"><ele>595.0</ele><time>2026-04-26T13:37:36.955Z</time></trkpt><trkpt lat="41.7173072" lon="13.3900366"><ele>595.0</ele><time>2026-04-26T13:37:37.952Z</time></trkpt><trkpt lat="41.7173474" lon="13.3898531"><ele>595.0</ele><time>2026-04-26T13:37:38.943Z</time></trkpt><trkpt lat="41.7173895" lon="13.3896723"><ele>595.0</ele><time>2026-04-26T13:37:39.949Z</time></trkpt><trkpt lat="41.7174289" lon="13.3894949"><ele>594.75</ele><time>2026-04-26T13:37:40.958Z</time></trkpt><trkpt lat="41.7174679" lon="13.3893279"><ele>594.5</ele><time>2026-04-26T13:37:41.946Z</time></trkpt><trkpt lat="41.7175063" lon="13.3891712"><ele>594.25</ele><time>2026-04-26T13:37:42.943Z</time></trkpt><trkpt lat="41.7175391" lon="13.3890279"><ele>594.0</ele><time>2026-04-26T13:37:43.965Z</time></trkpt><trkpt lat="41.7175593" lon="13.3888995"><ele>592.8</ele><time>2026-04-26T13:37:44.958Z</time></trkpt><trkpt lat="41.7175561" lon="13.3887798"><ele>591.5999999999999</ele><time>2026-04-26T13:37:45.944Z</time></trkpt><trkpt lat="41.7175417" lon="13.3886676"><ele>590.4</ele><time>2026-04-26T13:37:46.958Z</time></trkpt><trkpt lat="41.7174763" lon="13.3885617"><ele>589.1999999999999</ele><time>2026-04-26T13:37:47.946Z</time></trkpt><trkpt lat="41.7174119" lon="13.3884446"><ele>588.0</ele><time>2026-04-26T13:37:48.945Z</time></trkpt><trkpt lat="41.7173472" lon="13.3883173"><ele>588.0</ele><time>2026-04-26T13:37:49.958Z</time></trkpt><trkpt lat="41.7172997" lon="13.388176"><ele>588.0</ele><time>2026-04-26T13:37:50.945Z</time></trkpt><trkpt lat="41.7172792" lon="13.3880274"><ele>588.0</ele><time>2026-04-26T13:37:51.946Z</time></trkpt><trkpt lat="41.7172775" lon="13.3878647"><ele>588.0</ele><time>2026-04-26T13:37:52.946Z</time></trkpt><trkpt lat="41.7172889" lon="13.3876835"><ele>586.3333333333334</ele><time>2026-04-26T13:37:53.947Z</time></trkpt><trkpt lat="41.7173105" lon="13.3874849"><ele>584.6666666666667</ele><time>2026-04-26T13:37:54.939Z</time></trkpt><trkpt lat="41.717339" lon="13.3872784"><ele>583.0</ele><time>2026-04-26T13:37:55.946Z</time></trkpt><trkpt lat="41.7173711" lon="13.3870695"><ele>583.0</ele><time>2026-04-26T13:37:56.942Z</time></trkpt><trkpt lat="41.7174046" lon="13.3868583"><ele>583.0</ele><time>2026-04-26T13:37:57.94Z</time></trkpt><trkpt lat="41.7174405" lon="13.3866481"><ele>583.0</ele><time>2026-04-26T13:37:58.947Z</time></trkpt><trkpt lat="41.7174758" lon="13.3864373"><ele>583.3333333333334</ele><time>2026-04-26T13:37:59.953Z</time></trkpt><trkpt lat="41.7175096" lon="13.3862239"><ele>583.6666666666666</ele><time>2026-04-26T13:38:00.947Z</time></trkpt><trkpt lat="41.7175413" lon="13.3860135"><ele>584.0</ele><time>2026-04-26T13:38:01.946Z</time></trkpt><trkpt lat="41.7175691" lon="13.3858127"><ele>584.0</ele><time>2026-04-26T13:38:02.948Z</time></trkpt><trkpt lat="41.7175917" lon="13.3856284"><ele>584.0</ele><time>2026-04-26T13:38:03.964Z</time></trkpt><trkpt lat="41.7176042" lon="13.3854556"><ele>584.0</ele><time>2026-04-26T13:38:04.956Z</time></trkpt><trkpt lat="41.7176126" lon="13.3852841"><ele>584.0</ele><time>2026-04-26T13:38:05.948Z</time></trkpt><trkpt lat="41.7175782" lon="13.3851159"><ele>582.25</ele><time>2026-04-26T13:38:06.949Z</time></trkpt><trkpt lat="41.7175472" lon="13.3849512"><ele>580.5</ele><time>2026-04-26T13:38:07.948Z</time></trkpt><trkpt lat="41.7174982" lon="13.3847685"><ele>578.75</ele><time>2026-04-26T13:38:08.949Z</time></trkpt><trkpt lat="41.7174534" lon="13.3845676"><ele>577.0</ele><time>2026-04-26T13:38:09.964Z</time></trkpt><trkpt lat="41.7174207" lon="13.3843883"><ele>573.5</ele><time>2026-04-26T13:38:10.953Z</time></trkpt><trkpt lat="41.7173809" lon="13.3842227"><ele>570.0</ele><time>2026-04-26T13:38:11.952Z</time></trkpt><trkpt lat="41.7173219" lon="13.3840793"><ele>566.5</ele><time>2026-04-26T13:38:12.951Z</time></trkpt><trkpt lat="41.71727" lon="13.3839366"><ele>563.0</ele><time>2026-04-26T13:38:13.961Z</time></trkpt><trkpt lat="41.717234" lon="13.3837991"><ele>562.1999999999999</ele><time>2026-04-26T13:38:14.951Z</time></trkpt><trkpt lat="41.7172289" lon="13.3836612"><ele>561.4</ele><time>2026-04-26T13:38:15.951Z</time></trkpt><trkpt lat="41.7172371" lon="13.3835151"><ele>560.5999999999999</ele><time>2026-04-26T13:38:16.952Z</time></trkpt><trkpt lat="41.7172553" lon="13.3833714"><ele>559.8</ele><time>2026-04-26T13:38:17.951Z</time></trkpt><trkpt lat="41.7172765" lon="13.383243"><ele>559.0</ele><time>2026-04-26T13:38:18.953Z</time></trkpt><trkpt lat="41.7173065" lon="13.3831412"><ele>559.0</ele><time>2026-04-26T13:38:19.952Z</time></trkpt><trkpt lat="41.7173916" lon="13.3830758"><ele>559.0</ele><time>2026-04-26T13:38:21.949Z</time></trkpt><trkpt lat="41.7174344" lon="13.3831787"><ele>559.0</ele><time>2026-04-26T13:38:23.951Z</time></trkpt><trkpt lat="41.7174375" lon="13.3832789"><ele>559.0</ele><time>2026-04-26T13:38:24.949Z</time></trkpt><trkpt lat="41.7174484" lon="13.3834043"><ele>559.0</ele><time>2026-04-26T13:38:25.944Z</time></trkpt><trkpt lat="41.7174837" lon="13.3835399"><ele>559.0</ele><time>2026-04-26T13:38:26.947Z</time></trkpt><trkpt lat="41.7175372" lon="13.3836837"><ele>559.0</ele><time>2026-04-26T13:38:27.947Z</time></trkpt><trkpt lat="41.7175949" lon="13.3838338"><ele>559.0</ele><time>2026-04-26T13:38:28.959Z</time></trkpt><trkpt lat="41.7176474" lon="13.3839987"><ele>559.0</ele><time>2026-04-26T13:38:29.989Z</time></trkpt><trkpt lat="41.7176861" lon="13.3841768"><ele>560.0</ele><time>2026-04-26T13:38:30.947Z</time></trkpt><trkpt lat="41.7177228" lon="13.3843525"><ele>561.0</ele><time>2026-04-26T13:38:31.946Z</time></trkpt><trkpt lat="41.7177687" lon="13.3845175"><ele>562.0</ele><time>2026-04-26T13:38:32.955Z</time></trkpt><trkpt lat="41.7178287" lon="13.3846734"><ele>563.0</ele><time>2026-04-26T13:38:33.953Z</time></trkpt><trkpt lat="41.7179014" lon="13.3848217"><ele>555.75</ele><time>2026-04-26T13:38:34.967Z</time></trkpt><trkpt lat="41.7179796" lon="13.3849698"><ele>548.5</ele><time>2026-04-26T13:38:35.945Z</time></trkpt><trkpt lat="41.7180594" lon="13.385122"><ele>541.25</ele><time>2026-04-26T13:38:36.955Z</time></trkpt><trkpt lat="41.7181415" lon="13.385277"><ele>534.0</ele><time>2026-04-26T13:38:37.961Z</time></trkpt><trkpt lat="41.7182234" lon="13.3854292"><ele>535.75</ele><time>2026-04-26T13:38:38.955Z</time></trkpt><trkpt lat="41.7183157" lon="13.3855828"><ele>537.5</ele><time>2026-04-26T13:38:39.954Z</time></trkpt><trkpt lat="41.7183996" lon="13.3857293"><ele>539.25</ele><time>2026-04-26T13:38:40.949Z</time></trkpt><trkpt lat="41.7184787" lon="13.3858778"><ele>541.0</ele><time>2026-04-26T13:38:41.961Z</time></trkpt><trkpt lat="41.7185472" lon="13.3860282"><ele>538.6666666666667</ele><time>2026-04-26T13:38:42.951Z</time></trkpt><trkpt lat="41.718604" lon="13.3861644"><ele>536.3333333333334</ele><time>2026-04-26T13:38:43.945Z</time></trkpt><trkpt lat="41.7186466" lon="13.3862861"><ele>534.0</ele><time>2026-04-26T13:38:44.953Z</time></trkpt><trkpt lat="41.7186814" lon="13.3863902"><ele>531.6666666666666</ele><time>2026-04-26T13:38:45.954Z</time></trkpt><trkpt lat="41.7187153" lon="13.3864657"><ele>529.3333333333333</ele><time>2026-04-26T13:38:46.949Z</time></trkpt><trkpt lat="41.7187895" lon="13.3864911"><ele>527.0</ele><time>2026-04-26T13:38:48.966Z</time></trkpt><trkpt lat="41.7187988" lon="13.3863786"><ele>525.2</ele><time>2026-04-26T13:38:50.968Z</time></trkpt><trkpt lat="41.7187782" lon="13.3862812"><ele>523.4000000000001</ele><time>2026-04-26T13:38:51.96Z</time></trkpt><trkpt lat="41.7187461" lon="13.3861585"><ele>521.5999999999999</ele><time>2026-04-26T13:38:52.957Z</time></trkpt><trkpt lat="41.7187148" lon="13.3860156"><ele>519.8</ele><time>2026-04-26T13:38:53.95Z</time></trkpt><trkpt lat="41.718687" lon="13.3858637"><ele>518.0</ele><time>2026-04-26T13:38:54.952Z</time></trkpt><trkpt lat="41.7186496" lon="13.3857041"><ele>518.0</ele><time>2026-04-26T13:38:55.964Z</time></trkpt><trkpt lat="41.718595" lon="13.3855486"><ele>518.0</ele><time>2026-04-26T13:38:56.95Z</time></trkpt><trkpt lat="41.7185396" lon="13.3853858"><ele>518.0</ele><time>2026-04-26T13:38:57.953Z</time></trkpt><trkpt lat="41.7184978" lon="13.3852224"><ele>518.0</ele><time>2026-04-26T13:38:58.949Z</time></trkpt><trkpt lat="41.7184811" lon="13.3850616"><ele>519.6</ele><time>2026-04-26T13:38:59.946Z</time></trkpt><trkpt lat="41.7184773" lon="13.3849178"><ele>521.1999999999999</ele><time>2026-04-26T13:39:00.946Z</time></trkpt><trkpt lat="41.7184673" lon="13.3847777"><ele>522.8</ele><time>2026-04-26T13:39:01.944Z</time></trkpt><trkpt lat="41.7184443" lon="13.3846359"><ele>524.4</ele><time>2026-04-26T13:39:02.948Z</time></trkpt><trkpt lat="41.7184143" lon="13.3844963"><ele>526.0</ele><time>2026-04-26T13:39:03.954Z</time></trkpt><trkpt lat="41.7183816" lon="13.3843683"><ele>526.0</ele><time>2026-04-26T13:39:04.953Z</time></trkpt><trkpt lat="41.7183522" lon="13.384241"><ele>526.0</ele><time>2026-04-26T13:39:05.953Z</time></trkpt><trkpt lat="41.7183478" lon="13.3841121"><ele>526.0</ele><time>2026-04-26T13:39:06.946Z</time></trkpt><trkpt lat="41.7183561" lon="13.3839795"><ele>526.0</ele><time>2026-04-26T13:39:07.941Z</time></trkpt><trkpt lat="41.7183692" lon="13.3838366"><ele>526.0</ele><time>2026-04-26T13:39:08.96Z</time></trkpt><trkpt lat="41.7183883" lon="13.3836898"><ele>525.8</ele><time>2026-04-26T13:39:09.953Z</time></trkpt><trkpt lat="41.7184147" lon="13.3835489"><ele>525.6</ele><time>2026-04-26T13:39:10.942Z</time></trkpt><trkpt lat="41.7184534" lon="13.3834157"><ele>525.4</ele><time>2026-04-26T13:39:11.962Z</time></trkpt><trkpt lat="41.7185075" lon="13.3832976"><ele>525.2</ele><time>2026-04-26T13:39:12.946Z</time></trkpt><trkpt lat="41.7185687" lon="13.3831779"><ele>525.0</ele><time>2026-04-26T13:39:13.942Z</time></trkpt><trkpt lat="41.7186553" lon="13.3830884"><ele>522.0</ele><time>2026-04-26T13:39:14.949Z</time></trkpt><trkpt lat="41.7187315" lon="13.3830109"><ele>519.0</ele><time>2026-04-26T13:39:15.953Z</time></trkpt><trkpt lat="41.7187854" lon="13.3829172"><ele>516.0</ele><time>2026-04-26T13:39:16.94Z</time></trkpt><trkpt lat="41.7188174" lon="13.3828099"><ele>513.0</ele><time>2026-04-26T13:39:17.956Z</time></trkpt><trkpt lat="41.7188429" lon="13.3826996"><ele>510.0</ele><time>2026-04-26T13:39:18.947Z</time></trkpt><trkpt lat="41.7188685" lon="13.3825849"><ele>507.0</ele><time>2026-04-26T13:39:19.945Z</time></trkpt><trkpt lat="41.7188938" lon="13.3824851"><ele>507.0</ele><time>2026-04-26T13:39:20.949Z</time></trkpt><trkpt lat="41.7188955" lon="13.3823813"><ele>507.0</ele><time>2026-04-26T13:39:21.948Z</time></trkpt><trkpt lat="41.7188878" lon="13.3822783"><ele>507.0</ele><time>2026-04-26T13:39:22.944Z</time></trkpt><trkpt lat="41.7188673" lon="13.3821675"><ele>507.0</ele><time>2026-04-26T13:39:23.954Z</time></trkpt><trkpt lat="41.7188256" lon="13.3820525"><ele>507.0</ele><time>2026-04-26T13:39:24.945Z</time></trkpt><trkpt lat="41.7187812" lon="13.3819407"><ele>507.0</ele><time>2026-04-26T13:39:25.945Z</time></trkpt><trkpt lat="41.718734" lon="13.3818197"><ele>506.6</ele><time>2026-04-26T13:39:26.945Z</time></trkpt><trkpt lat="41.71871" lon="13.3816893"><ele>506.20000000000005</ele><time>2026-04-26T13:39:27.954Z</time></trkpt><trkpt lat="41.7187055" lon="13.3815612"><ele>505.8</ele><time>2026-04-26T13:39:28.948Z</time></trkpt><trkpt lat="41.7187319" lon="13.3814358"><ele>505.4</ele><time>2026-04-26T13:39:29.943Z</time></trkpt><trkpt lat="41.7187761" lon="13.381314"><ele>505.0</ele><time>2026-04-26T13:39:30.958Z</time></trkpt><trkpt lat="41.7188323" lon="13.3811912"><ele>505.0</ele><time>2026-04-26T13:39:31.952Z</time></trkpt><trkpt lat="41.7189" lon="13.3810779"><ele>505.0</ele><time>2026-04-26T13:39:32.944Z</time></trkpt><trkpt lat="41.7189724" lon="13.3809699"><ele>505.0</ele><time>2026-04-26T13:39:33.952Z</time></trkpt><trkpt lat="41.7190423" lon="13.3808733"><ele>505.0</ele><time>2026-04-26T13:39:34.944Z</time></trkpt><trkpt lat="41.7190984" lon="13.3807729"><ele>505.0</ele><time>2026-04-26T13:39:35.941Z</time></trkpt><trkpt lat="41.7191468" lon="13.3806672"><ele>505.0</ele><time>2026-04-26T13:39:36.947Z</time></trkpt><trkpt lat="41.719193" lon="13.3805538"><ele>505.0</ele><time>2026-04-26T13:39:37.951Z</time></trkpt><trkpt lat="41.7192387" lon="13.3804266"><ele>505.0</ele><time>2026-04-26T13:39:38.946Z</time></trkpt><trkpt lat="41.7192953" lon="13.3802898"><ele>505.0</ele><time>2026-04-26T13:39:39.944Z</time></trkpt><trkpt lat="41.7193633" lon="13.3801439"><ele>505.0</ele><time>2026-04-26T13:39:40.953Z</time></trkpt><trkpt lat="41.7194415" lon="13.3799972"><ele>502.0</ele><time>2026-04-26T13:39:41.951Z</time></trkpt><trkpt lat="41.7195278" lon="13.3798578"><ele>499.0</ele><time>2026-04-26T13:39:42.943Z</time></trkpt><trkpt lat="41.7196156" lon="13.379727"><ele>496.0</ele><time>2026-04-26T13:39:43.954Z</time></trkpt><trkpt lat="41.7197002" lon="13.3796057"><ele>493.0</ele><time>2026-04-26T13:39:44.952Z</time></trkpt><trkpt lat="41.7197766" lon="13.3794944"><ele>493.0</ele><time>2026-04-26T13:39:45.943Z</time></trkpt><trkpt lat="41.7198482" lon="13.3793992"><ele>492.99999999999994</ele><time>2026-04-26T13:39:46.944Z</time></trkpt><trkpt lat="41.7199182" lon="13.379323"><ele>492.99999999999994</ele><time>2026-04-26T13:39:47.954Z</time></trkpt><trkpt lat="41.7199946" lon="13.3792643"><ele>493.0</ele><time>2026-04-26T13:39:48.948Z</time></trkpt><trkpt lat="41.720075" lon="13.3792166"><ele>493.0</ele><time>2026-04-26T13:39:49.962Z</time></trkpt><trkpt lat="41.7201566" lon="13.3791702"><ele>490.59999999999997</ele><time>2026-04-26T13:39:50.949Z</time></trkpt><trkpt lat="41.7202389" lon="13.3791177"><ele>488.19999999999993</ele><time>2026-04-26T13:39:51.949Z</time></trkpt><trkpt lat="41.7203178" lon="13.3790542"><ele>485.8</ele><time>2026-04-26T13:39:52.951Z</time></trkpt><trkpt lat="41.7203908" lon="13.378969"><ele>483.4</ele><time>2026-04-26T13:39:53.949Z</time></trkpt><trkpt lat="41.7204527" lon="13.3788616"><ele>481.0</ele><time>2026-04-26T13:39:54.947Z</time></trkpt><trkpt lat="41.7204963" lon="13.3787346"><ele>480.8</ele><time>2026-04-26T13:39:55.945Z</time></trkpt><trkpt lat="41.7205185" lon="13.3785958"><ele>480.6</ele><time>2026-04-26T13:39:56.956Z</time></trkpt><trkpt lat="41.7205271" lon="13.3784525"><ele>480.4</ele><time>2026-04-26T13:39:57.954Z</time></trkpt><trkpt lat="41.7205268" lon="13.3783027"><ele>480.2</ele><time>2026-04-26T13:39:58.957Z</time></trkpt><trkpt lat="41.7205251" lon="13.3781521"><ele>480.0</ele><time>2026-04-26T13:39:59.952Z</time></trkpt><trkpt lat="41.7205319" lon="13.3780115"><ele>480.8</ele><time>2026-04-26T13:40:00.957Z</time></trkpt><trkpt lat="41.7205577" lon="13.3778851"><ele>481.6</ele><time>2026-04-26T13:40:01.964Z</time></trkpt><trkpt lat="41.7206073" lon="13.3777715"><ele>482.4</ele><time>2026-04-26T13:40:02.952Z</time></trkpt><trkpt lat="41.7206679" lon="13.3776579"><ele>483.2</ele><time>2026-04-26T13:40:03.95Z</time></trkpt><trkpt lat="41.7207297" lon="13.3775321"><ele>484.0</ele><time>2026-04-26T13:40:04.951Z</time></trkpt><trkpt lat="41.7207954" lon="13.3773996"><ele>484.0</ele><time>2026-04-26T13:40:05.95Z</time></trkpt><trkpt lat="41.7208685" lon="13.3772688"><ele>484.0</ele><time>2026-04-26T13:40:06.952Z</time></trkpt><trkpt lat="41.7209444" lon="13.3771454"><ele>484.0</ele><time>2026-04-26T13:40:07.956Z</time></trkpt><trkpt lat="41.7210129" lon="13.3770335"><ele>484.0</ele><time>2026-04-26T13:40:08.952Z</time></trkpt><trkpt lat="41.7210699" lon="13.3769234"><ele>484.0</ele><time>2026-04-26T13:40:09.951Z</time></trkpt><trkpt lat="41.7211119" lon="13.3768109"><ele>482.2</ele><time>2026-04-26T13:40:10.948Z</time></trkpt><trkpt lat="41.7211357" lon="13.3766926"><ele>480.4</ele><time>2026-04-26T13:40:11.961Z</time></trkpt><trkpt lat="41.7211311" lon="13.3765603"><ele>478.6</ele><time>2026-04-26T13:40:12.952Z</time></trkpt><trkpt lat="41.7211016" lon="13.3764185"><ele>476.8</ele><time>2026-04-26T13:40:13.956Z</time></trkpt><trkpt lat="41.7210637" lon="13.3762671"><ele>475.0</ele><time>2026-04-26T13:40:14.953Z</time></trkpt><trkpt lat="41.7210358" lon="13.3761102"><ele>475.0</ele><time>2026-04-26T13:40:15.951Z</time></trkpt><trkpt lat="41.7210342" lon="13.3759567"><ele>475.0</ele><time>2026-04-26T13:40:16.948Z</time></trkpt><trkpt lat="41.7210598" lon="13.3758194"><ele>475.0</ele><time>2026-04-26T13:40:17.958Z</time></trkpt><trkpt lat="41.7210829" lon="13.3757008"><ele>475.0</ele><time>2026-04-26T13:40:18.95Z</time></trkpt><trkpt lat="41.7211053" lon="13.3755976"><ele>475.0</ele><time>2026-04-26T13:40:19.959Z</time></trkpt><trkpt lat="41.7211004" lon="13.3754816"><ele>470.4</ele><time>2026-04-26T13:40:20.947Z</time></trkpt><trkpt lat="41.7210687" lon="13.3753621"><ele>465.8</ele><time>2026-04-26T13:40:21.95Z</time></trkpt><trkpt lat="41.7210142" lon="13.3752434"><ele>461.20000000000005</ele><time>2026-04-26T13:40:22.947Z</time></trkpt><trkpt lat="41.7209442" lon="13.3751334"><ele>456.6</ele><time>2026-04-26T13:40:23.943Z</time></trkpt><trkpt lat="41.7208633" lon="13.37503"><ele>452.0</ele><time>2026-04-26T13:40:24.944Z</time></trkpt><trkpt lat="41.72078" lon="13.374931"><ele>452.0</ele><time>2026-04-26T13:40:25.954Z</time></trkpt><trkpt lat="41.7207022" lon="13.3748373"><ele>452.00000000000006</ele><time>2026-04-26T13:40:26.949Z</time></trkpt><trkpt lat="41.7206369" lon="13.3747425"><ele>452.00000000000006</ele><time>2026-04-26T13:40:27.959Z</time></trkpt><trkpt lat="41.7205855" lon="13.3746419"><ele>452.0</ele><time>2026-04-26T13:40:28.956Z</time></trkpt><trkpt lat="41.7205572" lon="13.3745302"><ele>452.0</ele><time>2026-04-26T13:40:29.957Z</time></trkpt><trkpt lat="41.7205574" lon="13.3743992"><ele>448.5</ele><time>2026-04-26T13:40:30.945Z</time></trkpt><trkpt lat="41.7205784" lon="13.3742485"><ele>445.0</ele><time>2026-04-26T13:40:31.953Z</time></trkpt><trkpt lat="41.7206136" lon="13.374086"><ele>441.5</ele><time>2026-04-26T13:40:32.95Z</time></trkpt><trkpt lat="41.7206541" lon="13.3739176"><ele>438.0</ele><time>2026-04-26T13:40:33.95Z</time></trkpt><trkpt lat="41.7206983" lon="13.373746"><ele>438.0</ele><time>2026-04-26T13:40:34.943Z</time></trkpt><trkpt lat="41.7207442" lon="13.3735725"><ele>438.0</ele><time>2026-04-26T13:40:35.955Z</time></trkpt><trkpt lat="41.720786" lon="13.3734047"><ele>438.0</ele><time>2026-04-26T13:40:36.951Z</time></trkpt><trkpt lat="41.7208221" lon="13.3732525"><ele>438.0</ele><time>2026-04-26T13:40:37.962Z</time></trkpt><trkpt lat="41.7208546" lon="13.3731257"><ele>438.0</ele><time>2026-04-26T13:40:38.968Z</time></trkpt><trkpt lat="41.7208908" lon="13.3730302"><ele>437.99999999999994</ele><time>2026-04-26T13:40:39.951Z</time></trkpt><trkpt lat="41.7209449" lon="13.3729499"><ele>437.99999999999994</ele><time>2026-04-26T13:40:40.947Z</time></trkpt><trkpt lat="41.7210195" lon="13.3728776"><ele>438.0</ele><time>2026-04-26T13:40:41.957Z</time></trkpt><trkpt lat="41.721107" lon="13.3728082"><ele>438.0</ele><time>2026-04-26T13:40:42.945Z</time></trkpt><trkpt lat="41.7211973" lon="13.3727267"><ele>438.25</ele><time>2026-04-26T13:40:43.944Z</time></trkpt><trkpt lat="41.7212842" lon="13.3726263"><ele>438.5</ele><time>2026-04-26T13:40:44.949Z</time></trkpt><trkpt lat="41.7213629" lon="13.372512"><ele>438.75</ele><time>2026-04-26T13:40:45.952Z</time></trkpt><trkpt lat="41.7214364" lon="13.3723902"><ele>439.0</ele><time>2026-04-26T13:40:46.948Z</time></trkpt><trkpt lat="41.7215096" lon="13.3722679"><ele>436.75</ele><time>2026-04-26T13:40:47.945Z</time></trkpt><trkpt lat="41.7215849" lon="13.372151"><ele>434.5</ele><time>2026-04-26T13:40:48.947Z</time></trkpt><trkpt lat="41.7216608" lon="13.3720337"><ele>432.25</ele><time>2026-04-26T13:40:49.952Z</time></trkpt><trkpt lat="41.7217414" lon="13.3719201"><ele>430.0</ele><time>2026-04-26T13:40:50.943Z</time></trkpt><trkpt lat="41.7218264" lon="13.3717993"><ele>431.75</ele><time>2026-04-26T13:40:51.948Z</time></trkpt><trkpt lat="41.7219169" lon="13.3716713"><ele>433.5</ele><time>2026-04-26T13:40:52.962Z</time></trkpt><trkpt lat="41.7220137" lon="13.3715437"><ele>435.25</ele><time>2026-04-26T13:40:53.948Z</time></trkpt><trkpt lat="41.7221197" lon="13.3714204"><ele>437.0</ele><time>2026-04-26T13:40:54.951Z</time></trkpt><trkpt lat="41.7222327" lon="13.3712998"><ele>432.5</ele><time>2026-04-26T13:40:55.961Z</time></trkpt><trkpt lat="41.7223449" lon="13.371185"><ele>428.0</ele><time>2026-04-26T13:40:56.953Z</time></trkpt><trkpt lat="41.7224549" lon="13.3710725"><ele>423.5</ele><time>2026-04-26T13:40:57.946Z</time></trkpt><trkpt lat="41.7225652" lon="13.3709648"><ele>419.0</ele><time>2026-04-26T13:40:58.96Z</time></trkpt><trkpt lat="41.7226743" lon="13.370861"><ele>421.0</ele><time>2026-04-26T13:40:59.956Z</time></trkpt><trkpt lat="41.7227777" lon="13.3707529"><ele>423.0</ele><time>2026-04-26T13:41:00.948Z</time></trkpt><trkpt lat="41.7228724" lon="13.3706347"><ele>425.0</ele><time>2026-04-26T13:41:01.947Z</time></trkpt><trkpt lat="41.7229642" lon="13.3705086"><ele>427.0</ele><time>2026-04-26T13:41:02.957Z</time></trkpt><trkpt lat="41.723057" lon="13.3703794"><ele>423.0</ele><time>2026-04-26T13:41:03.949Z</time></trkpt><trkpt lat="41.7231503" lon="13.3702491"><ele>419.0</ele><time>2026-04-26T13:41:04.956Z</time></trkpt><trkpt lat="41.7232459" lon="13.3701174"><ele>415.0</ele><time>2026-04-26T13:41:05.965Z</time></trkpt><trkpt lat="41.7233431" lon="13.3699869"><ele>411.0</ele><time>2026-04-26T13:41:06.958Z</time></trkpt><trkpt lat="41.7234419" lon="13.3698545"><ele>411.0</ele><time>2026-04-26T13:41:07.944Z</time></trkpt><trkpt lat="41.7235406" lon="13.3697242"><ele>411.0</ele><time>2026-04-26T13:41:08.95Z</time></trkpt><trkpt lat="41.7236379" lon="13.3695942"><ele>411.0</ele><time>2026-04-26T13:41:09.956Z</time></trkpt><trkpt lat="41.7237347" lon="13.3694648"><ele>411.0</ele><time>2026-04-26T13:41:10.951Z</time></trkpt><trkpt lat="41.723832" lon="13.3693357"><ele>409.25</ele><time>2026-04-26T13:41:11.962Z</time></trkpt><trkpt lat="41.7239274" lon="13.3692086"><ele>407.5</ele><time>2026-04-26T13:41:12.95Z</time></trkpt><trkpt lat="41.7240209" lon="13.3690816"><ele>405.75</ele><time>2026-04-26T13:41:13.951Z</time></trkpt><trkpt lat="41.7241111" lon="13.3689538"><ele>404.0</ele><time>2026-04-26T13:41:14.952Z</time></trkpt><trkpt lat="41.7241969" lon="13.3688297"><ele>401.0</ele><time>2026-04-26T13:41:15.947Z</time></trkpt><trkpt lat="41.7242789" lon="13.3687124"><ele>398.0</ele><time>2026-04-26T13:41:16.95Z</time></trkpt><trkpt lat="41.7243621" lon="13.3686062"><ele>395.0</ele><time>2026-04-26T13:41:17.954Z</time></trkpt><trkpt lat="41.7244501" lon="13.3685167"><ele>392.0</ele><time>2026-04-26T13:41:18.944Z</time></trkpt><trkpt lat="41.724545" lon="13.3684539"><ele>392.0</ele><time>2026-04-26T13:41:19.957Z</time></trkpt><trkpt lat="41.7246516" lon="13.3684141"><ele>392.0</ele><time>2026-04-26T13:41:20.949Z</time></trkpt><trkpt lat="41.7247701" lon="13.3683946"><ele>392.0</ele><time>2026-04-26T13:41:21.943Z</time></trkpt><trkpt lat="41.7249007" lon="13.3683803"><ele>392.0</ele><time>2026-04-26T13:41:22.946Z</time></trkpt><trkpt lat="41.7250421" lon="13.3683586"><ele>392.0</ele><time>2026-04-26T13:41:23.958Z</time></trkpt><trkpt lat="41.7251911" lon="13.3683328"><ele>392.0</ele><time>2026-04-26T13:41:24.954Z</time></trkpt><trkpt lat="41.7253459" lon="13.3683102"><ele>392.0</ele><time>2026-04-26T13:41:25.954Z</time></trkpt><trkpt lat="41.7255004" lon="13.3682904"><ele>391.0</ele><time>2026-04-26T13:41:26.944Z</time></trkpt><trkpt lat="41.7256503" lon="13.3682699"><ele>390.0</ele><time>2026-04-26T13:41:27.955Z</time></trkpt><trkpt lat="41.7257954" lon="13.3682454"><ele>389.0</ele><time>2026-04-26T13:41:28.96Z</time></trkpt><trkpt lat="41.7259376" lon="13.3682224"><ele>388.0</ele><time>2026-04-26T13:41:29.962Z</time></trkpt><trkpt lat="41.7260756" lon="13.3682019"><ele>385.2</ele><time>2026-04-26T13:41:30.947Z</time></trkpt><trkpt lat="41.7262041" lon="13.3681852"><ele>382.4</ele><time>2026-04-26T13:41:31.947Z</time></trkpt><trkpt lat="41.7263193" lon="13.3681695"><ele>379.59999999999997</ele><time>2026-04-26T13:41:32.951Z</time></trkpt><trkpt lat="41.7264211" lon="13.3681532"><ele>376.79999999999995</ele><time>2026-04-26T13:41:33.961Z</time></trkpt><trkpt lat="41.7265124" lon="13.3681198"><ele>374.0</ele><time>2026-04-26T13:41:34.942Z</time></trkpt><trkpt lat="41.7265954" lon="13.3680496"><ele>372.75</ele><time>2026-04-26T13:41:35.948Z</time></trkpt><trkpt lat="41.7266711" lon="13.3679385"><ele>371.5</ele><time>2026-04-26T13:41:36.949Z</time></trkpt><trkpt lat="41.7267442" lon="13.3678009"><ele>370.25</ele><time>2026-04-26T13:41:37.952Z</time></trkpt><trkpt lat="41.7268165" lon="13.3676649"><ele>369.0</ele><time>2026-04-26T13:41:38.946Z</time></trkpt><trkpt lat="41.7268893" lon="13.3675276"><ele>368.2</ele><time>2026-04-26T13:41:39.952Z</time></trkpt><trkpt lat="41.7269445" lon="13.3673968"><ele>367.4</ele><time>2026-04-26T13:41:40.944Z</time></trkpt><trkpt lat="41.7270014" lon="13.3672825"><ele>366.6</ele><time>2026-04-26T13:41:41.962Z</time></trkpt><trkpt lat="41.7270527" lon="13.3671581"><ele>365.8</ele><time>2026-04-26T13:41:42.951Z</time></trkpt><trkpt lat="41.7271009" lon="13.367017"><ele>365.0</ele><time>2026-04-26T13:41:43.955Z</time></trkpt><trkpt lat="41.7271485" lon="13.3668588"><ele>365.0</ele><time>2026-04-26T13:41:44.943Z</time></trkpt><trkpt lat="41.7271993" lon="13.3666936"><ele>365.0</ele><time>2026-04-26T13:41:45.955Z</time></trkpt><trkpt lat="41.7272539" lon="13.3665098"><ele>365.0</ele><time>2026-04-26T13:41:46.946Z</time></trkpt><trkpt lat="41.7273065" lon="13.3663349"><ele>365.0</ele><time>2026-04-26T13:41:47.958Z</time></trkpt><trkpt lat="41.7273561" lon="13.3661632"><ele>365.5</ele><time>2026-04-26T13:41:48.946Z</time></trkpt><trkpt lat="41.7273988" lon="13.3659952"><ele>366.0</ele><time>2026-04-26T13:41:49.967Z</time></trkpt><trkpt lat="41.7274294" lon="13.3658279"><ele>366.5</ele><time>2026-04-26T13:41:50.944Z</time></trkpt><trkpt lat="41.7274555" lon="13.3656567"><ele>367.0</ele><time>2026-04-26T13:41:51.957Z</time></trkpt><trkpt lat="41.7274778" lon="13.3654711"><ele>366.0</ele><time>2026-04-26T13:41:52.951Z</time></trkpt><trkpt lat="41.7274941" lon="13.365279"><ele>365.0</ele><time>2026-04-26T13:41:53.961Z</time></trkpt><trkpt lat="41.7275135" lon="13.3650809"><ele>364.0</ele><time>2026-04-26T13:41:54.952Z</time></trkpt><trkpt lat="41.7275364" lon="13.3648801"><ele>363.0</ele><time>2026-04-26T13:41:55.954Z</time></trkpt><trkpt lat="41.72756" lon="13.3646882"><ele>361.0</ele><time>2026-04-26T13:41:56.951Z</time></trkpt><trkpt lat="41.7275813" lon="13.3645059"><ele>359.0</ele><time>2026-04-26T13:41:57.952Z</time></trkpt><trkpt lat="41.7276028" lon="13.3643366"><ele>357.0</ele><time>2026-04-26T13:41:58.956Z</time></trkpt><trkpt lat="41.7276205" lon="13.3641908"><ele>355.0</ele><time>2026-04-26T13:41:59.968Z</time></trkpt><trkpt lat="41.7276286" lon="13.3640599"><ele>355.0</ele><time>2026-04-26T13:42:00.954Z</time></trkpt><trkpt lat="41.7276289" lon="13.3639343"><ele>355.0</ele><time>2026-04-26T13:42:01.954Z</time></trkpt><trkpt lat="41.7276368" lon="13.3638075"><ele>355.0</ele><time>2026-04-26T13:42:02.95Z</time></trkpt><trkpt lat="41.7276462" lon="13.3636687"><ele>355.0</ele><time>2026-04-26T13:42:03.951Z</time></trkpt><trkpt lat="41.7276497" lon="13.3635198"><ele>355.0</ele><time>2026-04-26T13:42:04.955Z</time></trkpt><trkpt lat="41.7276414" lon="13.3633701"><ele>353.5</ele><time>2026-04-26T13:42:05.969Z</time></trkpt><trkpt lat="41.727613" lon="13.3632207"><ele>352.0</ele><time>2026-04-26T13:42:06.953Z</time></trkpt><trkpt lat="41.7275755" lon="13.3630725"><ele>350.5</ele><time>2026-04-26T13:42:07.952Z</time></trkpt><trkpt lat="41.7275357" lon="13.3629247"><ele>349.0</ele><time>2026-04-26T13:42:08.954Z</time></trkpt><trkpt lat="41.7274965" lon="13.3627859"><ele>348.8333333333333</ele><time>2026-04-26T13:42:09.951Z</time></trkpt><trkpt lat="41.7274654" lon="13.3626651"><ele>348.66666666666663</ele><time>2026-04-26T13:42:10.957Z</time></trkpt><trkpt lat="41.7274524" lon="13.362563"><ele>348.5</ele><time>2026-04-26T13:42:11.953Z</time></trkpt><trkpt lat="41.7274852" lon="13.3624384"><ele>348.3333333333333</ele><time>2026-04-26T13:42:13.947Z</time></trkpt><trkpt lat="41.7275691" lon="13.3624039"><ele>348.1666666666667</ele><time>2026-04-26T13:42:14.941Z</time></trkpt><trkpt lat="41.7276568" lon="13.3623744"><ele>348.0</ele><time>2026-04-26T13:42:15.947Z</time></trkpt><trkpt lat="41.7277504" lon="13.3623536"><ele>348.0</ele><time>2026-04-26T13:42:16.952Z</time></trkpt><trkpt lat="41.7278439" lon="13.3623202"><ele>348.0</ele><time>2026-04-26T13:42:17.95Z</time></trkpt><trkpt lat="41.7279248" lon="13.3622597"><ele>348.0</ele><time>2026-04-26T13:42:18.964Z</time></trkpt><trkpt lat="41.7279965" lon="13.3621705"><ele>348.0</ele><time>2026-04-26T13:42:19.966Z</time></trkpt><trkpt lat="41.7280564" lon="13.3620597"><ele>348.0</ele><time>2026-04-26T13:42:20.949Z</time></trkpt><trkpt lat="41.7281111" lon="13.361934"><ele>343.5</ele><time>2026-04-26T13:42:21.964Z</time></trkpt><trkpt lat="41.7281629" lon="13.3617987"><ele>339.0</ele><time>2026-04-26T13:42:22.955Z</time></trkpt><trkpt lat="41.7282135" lon="13.3616591"><ele>334.5</ele><time>2026-04-26T13:42:23.959Z</time></trkpt><trkpt lat="41.728269" lon="13.3615214"><ele>330.0</ele><time>2026-04-26T13:42:24.947Z</time></trkpt><trkpt lat="41.7283323" lon="13.3613939"><ele>328.4</ele><time>2026-04-26T13:42:25.956Z</time></trkpt><trkpt lat="41.7283927" lon="13.361264"><ele>326.8</ele><time>2026-04-26T13:42:26.944Z</time></trkpt><trkpt lat="41.7284597" lon="13.3611557"><ele>325.20000000000005</ele><time>2026-04-26T13:42:27.959Z</time></trkpt><trkpt lat="41.7285253" lon="13.3610603"><ele>323.6</ele><time>2026-04-26T13:42:28.951Z</time></trkpt><trkpt lat="41.7285975" lon="13.3609814"><ele>322.0</ele><time>2026-04-26T13:42:29.957Z</time></trkpt><trkpt lat="41.7286772" lon="13.3609261"><ele>322.0</ele><time>2026-04-26T13:42:30.951Z</time></trkpt><trkpt lat="41.7287647" lon="13.3608816"><ele>322.0</ele><time>2026-04-26T13:42:31.954Z</time></trkpt><trkpt lat="41.7288375" lon="13.3608333"><ele>322.0</ele><time>2026-04-26T13:42:32.956Z</time></trkpt><trkpt lat="41.7288775" lon="13.3607483"><ele>322.0</ele><time>2026-04-26T13:42:33.953Z</time></trkpt><trkpt lat="41.7289233" lon="13.360671"><ele>322.0</ele><time>2026-04-26T13:42:34.96Z</time></trkpt><trkpt lat="41.7289257" lon="13.3605831"><ele>322.0</ele><time>2026-04-26T13:42:35.957Z</time></trkpt><trkpt lat="41.7289" lon="13.360417"><ele>321.66666666666663</ele><time>2026-04-26T13:42:37.963Z</time></trkpt><trkpt lat="41.7288816" lon="13.3603292"><ele>321.3333333333333</ele><time>2026-04-26T13:42:38.955Z</time></trkpt><trkpt lat="41.7288663" lon="13.3602288"><ele>321.0</ele><time>2026-04-26T13:42:39.953Z</time></trkpt><trkpt lat="41.7288634" lon="13.3601169"><ele>320.6666666666667</ele><time>2026-04-26T13:42:40.945Z</time></trkpt><trkpt lat="41.728874" lon="13.3600016"><ele>320.33333333333337</ele><time>2026-04-26T13:42:41.957Z</time></trkpt><trkpt lat="41.7288832" lon="13.3598794"><ele>320.0</ele><time>2026-04-26T13:42:42.961Z</time></trkpt><trkpt lat="41.7289304" lon="13.3597631"><ele>321.0</ele><time>2026-04-26T13:42:43.955Z</time></trkpt><trkpt lat="41.728998" lon="13.3596712"><ele>322.0</ele><time>2026-04-26T13:42:44.947Z</time></trkpt><trkpt lat="41.7290871" lon="13.3596033"><ele>323.0</ele><time>2026-04-26T13:42:45.962Z</time></trkpt><trkpt lat="41.7291833" lon="13.3595333"><ele>324.0</ele><time>2026-04-26T13:42:46.954Z</time></trkpt><trkpt lat="41.7292877" lon="13.3594492"><ele>325.0</ele><time>2026-04-26T13:42:47.954Z</time></trkpt><trkpt lat="41.7293965" lon="13.3593514"><ele>325.0</ele><time>2026-04-26T13:42:48.951Z</time></trkpt><trkpt lat="41.7295108" lon="13.3592194"><ele>325.0</ele><time>2026-04-26T13:42:49.954Z</time></trkpt><trkpt lat="41.7296153" lon="13.3590923"><ele>325.0</ele><time>2026-04-26T13:42:50.949Z</time></trkpt><trkpt lat="41.7297162" lon="13.3589744"><ele>325.0</ele><time>2026-04-26T13:42:51.956Z</time></trkpt><trkpt lat="41.7298194" lon="13.3588652"><ele>327.5</ele><time>2026-04-26T13:42:52.959Z</time></trkpt><trkpt lat="41.7299196" lon="13.3587704"><ele>330.0</ele><time>2026-04-26T13:42:53.963Z</time></trkpt><trkpt lat="41.7300069" lon="13.358668"><ele>332.5</ele><time>2026-04-26T13:42:54.966Z</time></trkpt><trkpt lat="41.7300765" lon="13.3585497"><ele>335.0</ele><time>2026-04-26T13:42:55.951Z</time></trkpt><trkpt lat="41.7301192" lon="13.3584181"><ele>335.0</ele><time>2026-04-26T13:42:56.951Z</time></trkpt><trkpt lat="41.7301368" lon="13.3582772"><ele>335.0</ele><time>2026-04-26T13:42:57.955Z</time></trkpt><trkpt lat="41.730135" lon="13.3581225"><ele>335.0</ele><time>2026-04-26T13:42:58.955Z</time></trkpt><trkpt lat="41.7301331" lon="13.3579658"><ele>335.0</ele><time>2026-04-26T13:42:59.952Z</time></trkpt><trkpt lat="41.7301397" lon="13.3578177"><ele>335.6</ele><time>2026-04-26T13:43:00.954Z</time></trkpt><trkpt lat="41.7301514" lon="13.3576816"><ele>336.2</ele><time>2026-04-26T13:43:01.952Z</time></trkpt><trkpt lat="41.7301626" lon="13.3575561"><ele>336.79999999999995</ele><time>2026-04-26T13:43:02.946Z</time></trkpt><trkpt lat="41.730179" lon="13.3574386"><ele>337.4</ele><time>2026-04-26T13:43:03.951Z</time></trkpt><trkpt lat="41.7301872" lon="13.3573212"><ele>338.0</ele><time>2026-04-26T13:43:04.957Z</time></trkpt><trkpt lat="41.7302117" lon="13.3572136"><ele>338.0</ele><time>2026-04-26T13:43:05.947Z</time></trkpt><trkpt lat="41.7302597" lon="13.3571368"><ele>338.0</ele><time>2026-04-26T13:43:06.953Z</time></trkpt><trkpt lat="41.7302749" lon="13.3570358"><ele>338.0</ele><time>2026-04-26T13:43:07.955Z</time></trkpt><trkpt lat="41.7302093" lon="13.3569155"><ele>338.0</ele><time>2026-04-26T13:43:09.956Z</time></trkpt><trkpt lat="41.7301475" lon="13.3568934"><ele>338.0</ele><time>2026-04-26T13:43:10.955Z</time></trkpt><trkpt lat="41.7300782" lon="13.3568658"><ele>338.0</ele><time>2026-04-26T13:43:11.959Z</time></trkpt><trkpt lat="41.7300144" lon="13.3568155"><ele>338.0</ele><time>2026-04-26T13:43:12.952Z</time></trkpt><trkpt lat="41.7299638" lon="13.3567375"><ele>338.0</ele><time>2026-04-26T13:43:13.953Z</time></trkpt><trkpt lat="41.7299331" lon="13.3566251"><ele>338.0</ele><time>2026-04-26T13:43:14.962Z</time></trkpt><trkpt lat="41.7299199" lon="13.3564847"><ele>338.0</ele><time>2026-04-26T13:43:15.956Z</time></trkpt><trkpt lat="41.729919" lon="13.3563287"><ele>338.0</ele><time>2026-04-26T13:43:16.951Z</time></trkpt><trkpt lat="41.7299294" lon="13.3561668"><ele>338.25</ele><time>2026-04-26T13:43:17.958Z</time></trkpt><trkpt lat="41.7299495" lon="13.3560081"><ele>338.5</ele><time>2026-04-26T13:43:18.95Z</time></trkpt><trkpt lat="41.7299834" lon="13.3558617"><ele>338.75</ele><time>2026-04-26T13:43:19.943Z</time></trkpt><trkpt lat="41.7300416" lon="13.3557315"><ele>339.0</ele><time>2026-04-26T13:43:20.956Z</time></trkpt><trkpt lat="41.7301154" lon="13.3555949"><ele>339.5</ele><time>2026-04-26T13:43:21.955Z</time></trkpt><trkpt lat="41.7301955" lon="13.3554396"><ele>340.0</ele><time>2026-04-26T13:43:22.945Z</time></trkpt><trkpt lat="41.7302796" lon="13.3552729"><ele>340.5</ele><time>2026-04-26T13:43:23.96Z</time></trkpt><trkpt lat="41.7303645" lon="13.3551048"><ele>341.0</ele><time>2026-04-26T13:43:24.967Z</time></trkpt><trkpt lat="41.7304526" lon="13.3549181"><ele>341.33333333333337</ele><time>2026-04-26T13:43:25.947Z</time></trkpt><trkpt lat="41.730542" lon="13.3547406"><ele>341.6666666666667</ele><time>2026-04-26T13:43:26.951Z</time></trkpt><trkpt lat="41.7306354" lon="13.3545652"><ele>342.0</ele><time>2026-04-26T13:43:27.952Z</time></trkpt><trkpt lat="41.730718" lon="13.3543886"><ele>343.5</ele><time>2026-04-26T13:43:28.944Z</time></trkpt><trkpt lat="41.7307764" lon="13.3542024"><ele>345.0</ele><time>2026-04-26T13:43:29.953Z</time></trkpt><trkpt lat="41.7308006" lon="13.3540064"><ele>346.5</ele><time>2026-04-26T13:43:30.945Z</time></trkpt><trkpt lat="41.7307953" lon="13.3538057"><ele>348.0</ele><time>2026-04-26T13:43:31.951Z</time></trkpt><trkpt lat="41.7307681" lon="13.3536067"><ele>351.3333333333333</ele><time>2026-04-26T13:43:32.95Z</time></trkpt><trkpt lat="41.7307328" lon="13.3534069"><ele>354.66666666666663</ele><time>2026-04-26T13:43:33.959Z</time></trkpt><trkpt lat="41.7307056" lon="13.3532045"><ele>358.0</ele><time>2026-04-26T13:43:34.943Z</time></trkpt><trkpt lat="41.73069" lon="13.3530039"><ele>360.0</ele><time>2026-04-26T13:43:35.949Z</time></trkpt><trkpt lat="41.7306768" lon="13.3528049"><ele>362.0</ele><time>2026-04-26T13:43:36.951Z</time></trkpt><trkpt lat="41.7306519" lon="13.3526121"><ele>364.0</ele><time>2026-04-26T13:43:37.955Z</time></trkpt><trkpt lat="41.730611" lon="13.3524232"><ele>366.0</ele><time>2026-04-26T13:43:38.953Z</time></trkpt><trkpt lat="41.7305588" lon="13.3522314"><ele>367.0</ele><time>2026-04-26T13:43:39.957Z</time></trkpt><trkpt lat="41.7304992" lon="13.352042"><ele>368.0</ele><time>2026-04-26T13:43:40.94Z</time></trkpt><trkpt lat="41.7304279" lon="13.3518695"><ele>369.0</ele><time>2026-04-26T13:43:41.959Z</time></trkpt><trkpt lat="41.7303468" lon="13.3517207"><ele>370.0</ele><time>2026-04-26T13:43:42.948Z</time></trkpt><trkpt lat="41.7302674" lon="13.3515873"><ele>369.75</ele><time>2026-04-26T13:43:43.959Z</time></trkpt><trkpt lat="41.7301933" lon="13.3514559"><ele>369.5</ele><time>2026-04-26T13:43:44.951Z</time></trkpt><trkpt lat="41.7301221" lon="13.351318"><ele>369.25</ele><time>2026-04-26T13:43:45.961Z</time></trkpt><trkpt lat="41.7300538" lon="13.3511709"><ele>369.0</ele><time>2026-04-26T13:43:46.95Z</time></trkpt><trkpt lat="41.7299889" lon="13.3510131"><ele>369.0</ele><time>2026-04-26T13:43:47.954Z</time></trkpt><trkpt lat="41.7299236" lon="13.350857"><ele>369.0</ele><time>2026-04-26T13:43:48.951Z</time></trkpt><trkpt lat="41.7298834" lon="13.3506766"><ele>369.0</ele><time>2026-04-26T13:43:49.947Z</time></trkpt><trkpt lat="41.7298286" lon="13.3505153"><ele>369.0</ele><time>2026-04-26T13:43:50.952Z</time></trkpt><trkpt lat="41.7297637" lon="13.3503699"><ele>368.75</ele><time>2026-04-26T13:43:51.954Z</time></trkpt><trkpt lat="41.7296759" lon="13.3502681"><ele>368.5</ele><time>2026-04-26T13:43:52.95Z</time></trkpt><trkpt lat="41.7295654" lon="13.3501974"><ele>368.25</ele><time>2026-04-26T13:43:53.955Z</time></trkpt><trkpt lat="41.7294518" lon="13.3501397"><ele>368.0</ele><time>2026-04-26T13:43:54.94Z</time></trkpt><trkpt lat="41.7293286" lon="13.350095"><ele>368.0</ele><time>2026-04-26T13:43:55.953Z</time></trkpt><trkpt lat="41.7292107" lon="13.3500339"><ele>368.0</ele><time>2026-04-26T13:43:56.954Z</time></trkpt><trkpt lat="41.7291057" lon="13.3499324"><ele>368.0</ele><time>2026-04-26T13:43:57.95Z</time></trkpt><trkpt lat="41.7290077" lon="13.3498065"><ele>368.0</ele><time>2026-04-26T13:43:58.943Z</time></trkpt><trkpt lat="41.7289185" lon="13.3496578"><ele>369.75</ele><time>2026-04-26T13:43:59.956Z</time></trkpt><trkpt lat="41.7288372" lon="13.3494932"><ele>371.5</ele><time>2026-04-26T13:44:00.952Z</time></trkpt><trkpt lat="41.728759" lon="13.3493271"><ele>373.25</ele><time>2026-04-26T13:44:01.945Z</time></trkpt><trkpt lat="41.7286721" lon="13.349162"><ele>375.0</ele><time>2026-04-26T13:44:02.949Z</time></trkpt><trkpt lat="41.7285695" lon="13.3490165"><ele>376.3333333333333</ele><time>2026-04-26T13:44:03.956Z</time></trkpt><trkpt lat="41.7284492" lon="13.3488994"><ele>377.66666666666663</ele><time>2026-04-26T13:44:04.956Z</time></trkpt><trkpt lat="41.7283127" lon="13.3488045"><ele>379.0</ele><time>2026-04-26T13:44:05.948Z</time></trkpt><trkpt lat="41.7281642" lon="13.3487251"><ele>379.0</ele><time>2026-04-26T13:44:06.953Z</time></trkpt><trkpt lat="41.7280107" lon="13.348649"><ele>379.0</ele><time>2026-04-26T13:44:07.961Z</time></trkpt><trkpt lat="41.7278569" lon="13.3485681"><ele>379.0</ele><time>2026-04-26T13:44:08.953Z</time></trkpt><trkpt lat="41.7277001" lon="13.3484907"><ele>379.0</ele><time>2026-04-26T13:44:09.948Z</time></trkpt><trkpt lat="41.7275396" lon="13.3484285"><ele>379.0</ele><time>2026-04-26T13:44:10.947Z</time></trkpt><trkpt lat="41.7273828" lon="13.3483854"><ele>379.0</ele><time>2026-04-26T13:44:11.948Z</time></trkpt><trkpt lat="41.7272388" lon="13.3483616"><ele>379.0</ele><time>2026-04-26T13:44:12.954Z</time></trkpt><trkpt lat="41.727113" lon="13.3483773"><ele>379.0</ele><time>2026-04-26T13:44:13.944Z</time></trkpt><trkpt lat="41.7270138" lon="13.3484377"><ele>379.0</ele><time>2026-04-26T13:44:14.951Z</time></trkpt><trkpt lat="41.7269412" lon="13.3485352"><ele>379.0</ele><time>2026-04-26T13:44:15.946Z</time></trkpt><trkpt lat="41.7268799" lon="13.3486514"><ele>379.0</ele><time>2026-04-26T13:44:16.949Z</time></trkpt><trkpt lat="41.7268127" lon="13.348767"><ele>378.79999999999995</ele><time>2026-04-26T13:44:17.95Z</time></trkpt><trkpt lat="41.7267273" lon="13.3488619"><ele>378.59999999999997</ele><time>2026-04-26T13:44:18.95Z</time></trkpt><trkpt lat="41.7266263" lon="13.3489333"><ele>378.4</ele><time>2026-04-26T13:44:19.948Z</time></trkpt><trkpt lat="41.7265181" lon="13.3489745"><ele>378.2</ele><time>2026-04-26T13:44:20.951Z</time></trkpt><trkpt lat="41.7264113" lon="13.3489764"><ele>378.0</ele><time>2026-04-26T13:44:21.947Z</time></trkpt><trkpt lat="41.7263092" lon="13.3489343"><ele>378.0</ele><time>2026-04-26T13:44:22.945Z</time></trkpt><trkpt lat="41.7262064" lon="13.3488811"><ele>378.0</ele><time>2026-04-26T13:44:23.944Z</time></trkpt><trkpt lat="41.726124" lon="13.3487616"><ele>378.0</ele><time>2026-04-26T13:44:24.952Z</time></trkpt><trkpt lat="41.7260619" lon="13.3486324"><ele>378.0</ele><time>2026-04-26T13:44:25.963Z</time></trkpt><trkpt lat="41.7260007" lon="13.3484945"><ele>381.5</ele><time>2026-04-26T13:44:26.961Z</time></trkpt><trkpt lat="41.7259376" lon="13.3483606"><ele>385.0</ele><time>2026-04-26T13:44:27.956Z</time></trkpt><trkpt lat="41.7258696" lon="13.3482374"><ele>388.5</ele><time>2026-04-26T13:44:28.967Z</time></trkpt><trkpt lat="41.7257735" lon="13.3481476"><ele>392.0</ele><time>2026-04-26T13:44:29.962Z</time></trkpt><trkpt lat="41.7256341" lon="13.3481185"><ele>392.0</ele><time>2026-04-26T13:44:30.948Z</time></trkpt><trkpt lat="41.7254995" lon="13.3481338"><ele>392.0</ele><time>2026-04-26T13:44:31.946Z</time></trkpt><trkpt lat="41.7253607" lon="13.3481641"><ele>392.0</ele><time>2026-04-26T13:44:32.956Z</time></trkpt><trkpt lat="41.7252271" lon="13.3481934"><ele>392.0</ele><time>2026-04-26T13:44:33.956Z</time></trkpt><trkpt lat="41.7250924" lon="13.3482093"><ele>392.0</ele><time>2026-04-26T13:44:34.962Z</time></trkpt><trkpt lat="41.7249688" lon="13.3482283"><ele>392.0</ele><time>2026-04-26T13:44:35.958Z</time></trkpt><trkpt lat="41.7248604" lon="13.3482457"><ele>392.0</ele><time>2026-04-26T13:44:36.963Z</time></trkpt><trkpt lat="41.7247645" lon="13.3482506"><ele>392.0</ele><time>2026-04-26T13:44:37.948Z</time></trkpt><trkpt lat="41.7246853" lon="13.3482297"><ele>392.0</ele><time>2026-04-26T13:44:38.968Z</time></trkpt><trkpt lat="41.7246249" lon="13.3481897"><ele>392.0</ele><time>2026-04-26T13:44:39.953Z</time></trkpt><trkpt lat="41.7245618" lon="13.3480657"><ele>392.0</ele><time>2026-04-26T13:44:41.953Z</time></trkpt><trkpt lat="41.7245472" lon="13.347983"><ele>392.0</ele><time>2026-04-26T13:44:42.954Z</time></trkpt><trkpt lat="41.7245308" lon="13.3478178"><ele>392.0</ele><time>2026-04-26T13:44:44.951Z</time></trkpt><trkpt lat="41.7245526" lon="13.3476796"><ele>392.0</ele><time>2026-04-26T13:44:46.95Z</time></trkpt><trkpt lat="41.7246172" lon="13.3476104"><ele>394.6</ele><time>2026-04-26T13:44:48.944Z</time></trkpt><trkpt lat="41.7246788" lon="13.3475925"><ele>397.20000000000005</ele><time>2026-04-26T13:44:49.954Z</time></trkpt><trkpt lat="41.7247612" lon="13.3475766"><ele>399.8</ele><time>2026-04-26T13:44:50.954Z</time></trkpt><trkpt lat="41.7248602" lon="13.3475533"><ele>402.4</ele><time>2026-04-26T13:44:51.951Z</time></trkpt><trkpt lat="41.7249715" lon="13.3475241"><ele>405.0</ele><time>2026-04-26T13:44:52.94Z</time></trkpt><trkpt lat="41.7251059" lon="13.3474865"><ele>405.66666666666663</ele><time>2026-04-26T13:44:53.95Z</time></trkpt><trkpt lat="41.7252553" lon="13.3474436"><ele>406.3333333333333</ele><time>2026-04-26T13:44:54.945Z</time></trkpt><trkpt lat="41.7254205" lon="13.3473966"><ele>407.0</ele><time>2026-04-26T13:44:55.952Z</time></trkpt><trkpt lat="41.7256107" lon="13.3473401"><ele>407.0</ele><time>2026-04-26T13:44:56.947Z</time></trkpt><trkpt lat="41.7258213" lon="13.3472807"><ele>407.0</ele><time>2026-04-26T13:44:57.954Z</time></trkpt><trkpt lat="41.7260444" lon="13.3472176"><ele>407.0</ele><time>2026-04-26T13:44:58.943Z</time></trkpt><trkpt lat="41.7262735" lon="13.3471539"><ele>414.0</ele><time>2026-04-26T13:44:59.956Z</time></trkpt><trkpt lat="41.7264959" lon="13.3470899"><ele>421.0</ele><time>2026-04-26T13:45:00.95Z</time></trkpt><trkpt lat="41.7267074" lon="13.3470315"><ele>428.0</ele><time>2026-04-26T13:45:01.952Z</time></trkpt><trkpt lat="41.7269092" lon="13.3469785"><ele>428.0</ele><time>2026-04-26T13:45:02.945Z</time></trkpt><trkpt lat="41.7271006" lon="13.3469247"><ele>428.0</ele><time>2026-04-26T13:45:03.967Z</time></trkpt><trkpt lat="41.727284" lon="13.346864"><ele>428.0</ele><time>2026-04-26T13:45:04.948Z</time></trkpt><trkpt lat="41.7274612" lon="13.3467937"><ele>428.0</ele><time>2026-04-26T13:45:05.955Z</time></trkpt><trkpt lat="41.727632" lon="13.3467138"><ele>428.0</ele><time>2026-04-26T13:45:06.954Z</time></trkpt><trkpt lat="41.7277972" lon="13.3466275"><ele>428.0</ele><time>2026-04-26T13:45:07.966Z</time></trkpt><trkpt lat="41.727957" lon="13.3465352"><ele>431.66666666666663</ele><time>2026-04-26T13:45:08.947Z</time></trkpt><trkpt lat="41.7281144" lon="13.3464413"><ele>435.33333333333337</ele><time>2026-04-26T13:45:09.953Z</time></trkpt><trkpt lat="41.7282698" lon="13.3463483"><ele>439.0</ele><time>2026-04-26T13:45:10.948Z</time></trkpt><trkpt lat="41.7284219" lon="13.3462582"><ele>435.33333333333337</ele><time>2026-04-26T13:45:11.954Z</time></trkpt><trkpt lat="41.7285675" lon="13.3461697"><ele>431.66666666666663</ele><time>2026-04-26T13:45:12.958Z</time></trkpt><trkpt lat="41.728707" lon="13.3460866"><ele>428.0</ele><time>2026-04-26T13:45:13.954Z</time></trkpt><trkpt lat="41.7288392" lon="13.3460099"><ele>428.0</ele><time>2026-04-26T13:45:14.961Z</time></trkpt><trkpt lat="41.7289685" lon="13.345937"><ele>428.0</ele><time>2026-04-26T13:45:15.966Z</time></trkpt><trkpt lat="41.7290967" lon="13.3458615"><ele>428.0</ele><time>2026-04-26T13:45:16.952Z</time></trkpt><trkpt lat="41.7292256" lon="13.3457848"><ele>428.0</ele><time>2026-04-26T13:45:17.95Z</time></trkpt><trkpt lat="41.7293544" lon="13.3457069"><ele>428.25</ele><time>2026-04-26T13:45:18.953Z</time></trkpt><trkpt lat="41.7294828" lon="13.3456292"><ele>428.5</ele><time>2026-04-26T13:45:19.965Z</time></trkpt><trkpt lat="41.7296113" lon="13.3455526"><ele>428.75</ele><time>2026-04-26T13:45:20.969Z</time></trkpt><trkpt lat="41.7297381" lon="13.3454785"><ele>429.0</ele><time>2026-04-26T13:45:21.966Z</time></trkpt><trkpt lat="41.7298653" lon="13.3454104"><ele>431.25</ele><time>2026-04-26T13:45:22.974Z</time></trkpt><trkpt lat="41.7299916" lon="13.3453505"><ele>433.5</ele><time>2026-04-26T13:45:23.952Z</time></trkpt><trkpt lat="41.730116" lon="13.345301"><ele>435.75</ele><time>2026-04-26T13:45:24.969Z</time></trkpt><trkpt lat="41.7302361" lon="13.3452652"><ele>438.0</ele><time>2026-04-26T13:45:25.959Z</time></trkpt><trkpt lat="41.7303504" lon="13.3452396"><ele>438.0</ele><time>2026-04-26T13:45:26.946Z</time></trkpt><trkpt lat="41.7304596" lon="13.3452122"><ele>437.99999999999994</ele><time>2026-04-26T13:45:27.959Z</time></trkpt><trkpt lat="41.7305633" lon="13.3451743"><ele>437.99999999999994</ele><time>2026-04-26T13:45:28.958Z</time></trkpt><trkpt lat="41.7306556" lon="13.3451248"><ele>438.0</ele><time>2026-04-26T13:45:29.949Z</time></trkpt><trkpt lat="41.7307328" lon="13.3450775"><ele>438.0</ele><time>2026-04-26T13:45:30.946Z</time></trkpt><trkpt lat="41.7308343" lon="13.3450219"><ele>438.0</ele><time>2026-04-26T13:45:32.956Z</time></trkpt><trkpt lat="41.7309278" lon="13.3450023"><ele>438.0</ele><time>2026-04-26T13:45:34.96Z</time></trkpt><trkpt lat="41.7310389" lon="13.3449393"><ele>438.0</ele><time>2026-04-26T13:45:36.952Z</time></trkpt><trkpt lat="41.7310838" lon="13.3448784"><ele>438.0</ele><time>2026-04-26T13:45:37.954Z</time></trkpt><trkpt lat="41.7311188" lon="13.3448081"><ele>438.0</ele><time>2026-04-26T13:45:38.949Z</time></trkpt><trkpt lat="41.7311511" lon="13.3447349"><ele>438.0</ele><time>2026-04-26T13:45:39.946Z</time></trkpt><trkpt lat="41.7311903" lon="13.3446652"><ele>435.59999999999997</ele><time>2026-04-26T13:45:40.96Z</time></trkpt><trkpt lat="41.7312495" lon="13.3446"><ele>433.19999999999993</ele><time>2026-04-26T13:45:41.957Z</time></trkpt><trkpt lat="41.7313359" lon="13.3445445"><ele>430.8</ele><time>2026-04-26T13:45:42.948Z</time></trkpt><trkpt lat="41.7314449" lon="13.3444911"><ele>428.4</ele><time>2026-04-26T13:45:43.959Z</time></trkpt><trkpt lat="41.7315762" lon="13.3444267"><ele>426.0</ele><time>2026-04-26T13:45:44.945Z</time></trkpt><trkpt lat="41.7317292" lon="13.3443517"><ele>429.33333333333337</ele><time>2026-04-26T13:45:45.943Z</time></trkpt><trkpt lat="41.7318953" lon="13.3442844"><ele>432.6666666666667</ele><time>2026-04-26T13:45:46.944Z</time></trkpt><trkpt lat="41.7320694" lon="13.3442234"><ele>436.0</ele><time>2026-04-26T13:45:47.953Z</time></trkpt><trkpt lat="41.7322473" lon="13.3441565"><ele>436.0</ele><time>2026-04-26T13:45:48.943Z</time></trkpt><trkpt lat="41.7324265" lon="13.3440841"><ele>436.0</ele><time>2026-04-26T13:45:49.948Z</time></trkpt><trkpt lat="41.7326079" lon="13.344007"><ele>436.0</ele><time>2026-04-26T13:45:50.946Z</time></trkpt><trkpt lat="41.732793" lon="13.3439308"><ele>429.33333333333337</ele><time>2026-04-26T13:45:51.96Z</time></trkpt><trkpt lat="41.7329812" lon="13.3438582"><ele>422.66666666666663</ele><time>2026-04-26T13:45:52.959Z</time></trkpt><trkpt lat="41.7331734" lon="13.3437966"><ele>416.0</ele><time>2026-04-26T13:45:53.953Z</time></trkpt><trkpt lat="41.7333662" lon="13.3437262"><ele>415.3333333333333</ele><time>2026-04-26T13:45:54.98Z</time></trkpt><trkpt lat="41.7335604" lon="13.3436932"><ele>414.66666666666663</ele><time>2026-04-26T13:45:55.957Z</time></trkpt><trkpt lat="41.7337604" lon="13.3436633"><ele>414.0</ele><time>2026-04-26T13:45:56.948Z</time></trkpt><trkpt lat="41.7339574" lon="13.343634"><ele>414.0</ele><time>2026-04-26T13:45:57.955Z</time></trkpt><trkpt lat="41.7341543" lon="13.3436134"><ele>414.0</ele><time>2026-04-26T13:45:58.947Z</time></trkpt><trkpt lat="41.7343474" lon="13.343607"><ele>414.0</ele><time>2026-04-26T13:45:59.957Z</time></trkpt><trkpt lat="41.7345419" lon="13.3436162"><ele>413.33333333333337</ele><time>2026-04-26T13:46:00.951Z</time></trkpt><trkpt lat="41.7347339" lon="13.3436421"><ele>412.6666666666667</ele><time>2026-04-26T13:46:01.957Z</time></trkpt><trkpt lat="41.7349236" lon="13.3436861"><ele>412.0</ele><time>2026-04-26T13:46:02.95Z</time></trkpt><trkpt lat="41.735114" lon="13.3437482"><ele>410.33333333333337</ele><time>2026-04-26T13:46:03.951Z</time></trkpt><trkpt lat="41.7352968" lon="13.3438313"><ele>408.66666666666663</ele><time>2026-04-26T13:46:04.955Z</time></trkpt><trkpt lat="41.735474" lon="13.3439301"><ele>407.0</ele><time>2026-04-26T13:46:05.951Z</time></trkpt><trkpt lat="41.735649" lon="13.3440294"><ele>409.66666666666663</ele><time>2026-04-26T13:46:06.95Z</time></trkpt><trkpt lat="41.7358196" lon="13.3441319"><ele>412.33333333333337</ele><time>2026-04-26T13:46:07.958Z</time></trkpt><trkpt lat="41.7359965" lon="13.344241"><ele>415.0</ele><time>2026-04-26T13:46:08.947Z</time></trkpt><trkpt lat="41.7361786" lon="13.3443404"><ele>415.0</ele><time>2026-04-26T13:46:09.952Z</time></trkpt><trkpt lat="41.7363665" lon="13.34442"><ele>415.0</ele><time>2026-04-26T13:46:10.951Z</time></trkpt><trkpt lat="41.7365599" lon="13.3444814"><ele>415.0</ele><time>2026-04-26T13:46:11.959Z</time></trkpt><trkpt lat="41.7367593" lon="13.3445257"><ele>413.6666666666667</ele><time>2026-04-26T13:46:12.947Z</time></trkpt><trkpt lat="41.7369639" lon="13.3445496"><ele>412.33333333333337</ele><time>2026-04-26T13:46:13.948Z</time></trkpt><trkpt lat="41.737172" lon="13.3445486"><ele>411.0</ele><time>2026-04-26T13:46:14.949Z</time></trkpt><trkpt lat="41.7373811" lon="13.3445262"><ele>411.0</ele><time>2026-04-26T13:46:15.956Z</time></trkpt><trkpt lat="41.7375886" lon="13.3444933"><ele>411.0</ele><time>2026-04-26T13:46:16.947Z</time></trkpt><trkpt lat="41.7377943" lon="13.3444468"><ele>411.0</ele><time>2026-04-26T13:46:17.952Z</time></trkpt><trkpt lat="41.7379953" lon="13.3443861"><ele>410.0</ele><time>2026-04-26T13:46:18.946Z</time></trkpt><trkpt lat="41.738194" lon="13.3443178"><ele>409.0</ele><time>2026-04-26T13:46:19.955Z</time></trkpt><trkpt lat="41.7383906" lon="13.3442476"><ele>408.0</ele><time>2026-04-26T13:46:20.944Z</time></trkpt><trkpt lat="41.7385868" lon="13.344176"><ele>407.0</ele><time>2026-04-26T13:46:21.951Z</time></trkpt><trkpt lat="41.7387813" lon="13.3441054"><ele>406.0</ele><time>2026-04-26T13:46:22.952Z</time></trkpt><trkpt lat="41.7389788" lon="13.3440361"><ele>405.0</ele><time>2026-04-26T13:46:24.005Z</time></trkpt><trkpt lat="41.7391776" lon="13.3439647"><ele>405.0</ele><time>2026-04-26T13:46:24.946Z</time></trkpt><trkpt lat="41.7393791" lon="13.3438915"><ele>405.0</ele><time>2026-04-26T13:46:25.957Z</time></trkpt><trkpt lat="41.7395816" lon="13.3438183"><ele>405.0</ele><time>2026-04-26T13:46:26.954Z</time></trkpt><trkpt lat="41.7397863" lon="13.3437461"><ele>402.33333333333337</ele><time>2026-04-26T13:46:27.955Z</time></trkpt><trkpt lat="41.739991" lon="13.3436755"><ele>399.6666666666667</ele><time>2026-04-26T13:46:28.951Z</time></trkpt><trkpt lat="41.7401954" lon="13.3436029"><ele>397.0</ele><time>2026-04-26T13:46:29.961Z</time></trkpt><trkpt lat="41.7403983" lon="13.343529"><ele>397.0</ele><time>2026-04-26T13:46:30.948Z</time></trkpt><trkpt lat="41.7405992" lon="13.3434551"><ele>397.0</ele><time>2026-04-26T13:46:31.952Z</time></trkpt><trkpt lat="41.7407961" lon="13.3433816"><ele>397.0</ele><time>2026-04-26T13:46:32.946Z</time></trkpt><trkpt lat="41.7409838" lon="13.3433061"><ele>396.0</ele><time>2026-04-26T13:46:33.958Z</time></trkpt><trkpt lat="41.7411591" lon="13.3432234"><ele>395.0</ele><time>2026-04-26T13:46:34.946Z</time></trkpt><trkpt lat="41.7413183" lon="13.343121"><ele>394.0</ele><time>2026-04-26T13:46:35.958Z</time></trkpt><trkpt lat="41.7414557" lon="13.3429911"><ele>394.0</ele><time>2026-04-26T13:46:36.945Z</time></trkpt><trkpt lat="41.7415701" lon="13.3428304"><ele>394.0</ele><time>2026-04-26T13:46:37.954Z</time></trkpt><trkpt lat="41.7416592" lon="13.342645"><ele>394.0</ele><time>2026-04-26T13:46:38.947Z</time></trkpt><trkpt lat="41.741717" lon="13.3424389"><ele>394.0</ele><time>2026-04-26T13:46:39.961Z</time></trkpt><trkpt lat="41.7417414" lon="13.3422184"><ele>394.0</ele><time>2026-04-26T13:46:40.944Z</time></trkpt><trkpt lat="41.7417384" lon="13.3419894"><ele>394.0</ele><time>2026-04-26T13:46:41.954Z</time></trkpt><trkpt lat="41.7417248" lon="13.3417544"><ele>393.0</ele><time>2026-04-26T13:46:42.953Z</time></trkpt><trkpt lat="41.7417122" lon="13.3415159"><ele>392.0</ele><time>2026-04-26T13:46:43.953Z</time></trkpt><trkpt lat="41.7417021" lon="13.3412783"><ele>391.0</ele><time>2026-04-26T13:46:44.941Z</time></trkpt><trkpt lat="41.7416983" lon="13.341043"><ele>391.0</ele><time>2026-04-26T13:46:45.958Z</time></trkpt><trkpt lat="41.7417049" lon="13.340808"><ele>391.0</ele><time>2026-04-26T13:46:46.946Z</time></trkpt><trkpt lat="41.7417214" lon="13.3405728"><ele>391.0</ele><time>2026-04-26T13:46:47.952Z</time></trkpt><trkpt lat="41.7417542" lon="13.3403408"><ele>391.0</ele><time>2026-04-26T13:46:48.952Z</time></trkpt><trkpt lat="41.7418091" lon="13.3401134"><ele>391.0</ele><time>2026-04-26T13:46:49.957Z</time></trkpt><trkpt lat="41.7418807" lon="13.3398841"><ele>391.0</ele><time>2026-04-26T13:46:50.951Z</time></trkpt><trkpt lat="41.7419671" lon="13.339654"><ele>391.0</ele><time>2026-04-26T13:46:51.957Z</time></trkpt><trkpt lat="41.7420561" lon="13.3394272"><ele>391.0</ele><time>2026-04-26T13:46:52.953Z</time></trkpt><trkpt lat="41.7421454" lon="13.3392012"><ele>391.0</ele><time>2026-04-26T13:46:53.965Z</time></trkpt><trkpt lat="41.7422349" lon="13.3389778"><ele>389.6666666666667</ele><time>2026-04-26T13:46:54.951Z</time></trkpt><trkpt lat="41.7423254" lon="13.338763"><ele>388.33333333333337</ele><time>2026-04-26T13:46:55.961Z</time></trkpt><trkpt lat="41.7424205" lon="13.3385685"><ele>387.0</ele><time>2026-04-26T13:46:56.955Z</time></trkpt><trkpt lat="41.7425261" lon="13.338403"><ele>387.0</ele><time>2026-04-26T13:46:57.952Z</time></trkpt><trkpt lat="41.7426456" lon="13.3382694"><ele>387.0</ele><time>2026-04-26T13:46:58.957Z</time></trkpt><trkpt lat="41.7427811" lon="13.338169"><ele>387.0</ele><time>2026-04-26T13:46:59.96Z</time></trkpt><trkpt lat="41.74293" lon="13.3381074"><ele>387.0</ele><time>2026-04-26T13:47:00.96Z</time></trkpt><trkpt lat="41.743077" lon="13.3380553"><ele>387.0</ele><time>2026-04-26T13:47:01.946Z</time></trkpt><trkpt lat="41.7432562" lon="13.3380736"><ele>387.0</ele><time>2026-04-26T13:47:02.956Z</time></trkpt><trkpt lat="41.7434565" lon="13.3381221"><ele>385.6666666666667</ele><time>2026-04-26T13:47:03.949Z</time></trkpt><trkpt lat="41.7436636" lon="13.3381816"><ele>384.33333333333337</ele><time>2026-04-26T13:47:04.943Z</time></trkpt><trkpt lat="41.7438667" lon="13.3382348"><ele>383.0</ele><time>2026-04-26T13:47:05.941Z</time></trkpt><trkpt lat="41.7440682" lon="13.3382907"><ele>383.0</ele><time>2026-04-26T13:47:06.951Z</time></trkpt><trkpt lat="41.7442708" lon="13.3383449"><ele>383.0</ele><time>2026-04-26T13:47:07.948Z</time></trkpt><trkpt lat="41.7444739" lon="13.3384006"><ele>383.0</ele><time>2026-04-26T13:47:08.952Z</time></trkpt><trkpt lat="41.7446719" lon="13.3384525"><ele>381.6666666666667</ele><time>2026-04-26T13:47:09.95Z</time></trkpt><trkpt lat="41.7448642" lon="13.3385043"><ele>380.3333333333333</ele><time>2026-04-26T13:47:10.946Z</time></trkpt><trkpt lat="41.7450479" lon="13.3385507"><ele>379.0</ele><time>2026-04-26T13:47:11.943Z</time></trkpt><trkpt lat="41.7452259" lon="13.33858"><ele>377.0</ele><time>2026-04-26T13:47:12.951Z</time></trkpt><trkpt lat="41.7453984" lon="13.3385881"><ele>375.0</ele><time>2026-04-26T13:47:13.947Z</time></trkpt><trkpt lat="41.7455664" lon="13.338558"><ele>373.0</ele><time>2026-04-26T13:47:14.943Z</time></trkpt><trkpt lat="41.7457292" lon="13.338503"><ele>373.0</ele><time>2026-04-26T13:47:15.949Z</time></trkpt><trkpt lat="41.7458881" lon="13.338429"><ele>373.0</ele><time>2026-04-26T13:47:16.95Z</time></trkpt><trkpt lat="41.7460429" lon="13.3383418"><ele>373.0</ele><time>2026-04-26T13:47:17.951Z</time></trkpt><trkpt lat="41.7461925" lon="13.3382424"><ele>373.66666666666663</ele><time>2026-04-26T13:47:18.945Z</time></trkpt><trkpt lat="41.7463368" lon="13.3381267"><ele>374.3333333333333</ele><time>2026-04-26T13:47:19.947Z</time></trkpt><trkpt lat="41.7464766" lon="13.337986"><ele>375.0</ele><time>2026-04-26T13:47:20.947Z</time></trkpt><trkpt lat="41.7466113" lon="13.3378159"><ele>375.0</ele><time>2026-04-26T13:47:21.949Z</time></trkpt><trkpt lat="41.7467451" lon="13.3376261"><ele>375.0</ele><time>2026-04-26T13:47:22.948Z</time></trkpt><trkpt lat="41.7468861" lon="13.3374213"><ele>375.0</ele><time>2026-04-26T13:47:23.961Z</time></trkpt><trkpt lat="41.7470359" lon="13.3372064"><ele>378.0</ele><time>2026-04-26T13:47:24.947Z</time></trkpt><trkpt lat="41.7471878" lon="13.3369865"><ele>381.0</ele><time>2026-04-26T13:47:25.953Z</time></trkpt><trkpt lat="41.747341" lon="13.3367639"><ele>381.0</ele><time>2026-04-26T13:47:26.947Z</time></trkpt><trkpt lat="41.7474941" lon="13.3365413"><ele>381.0</ele><time>2026-04-26T13:47:27.955Z</time></trkpt><trkpt lat="41.747646" lon="13.3363199"><ele>382.5</ele><time>2026-04-26T13:47:28.951Z</time></trkpt><trkpt lat="41.7477994" lon="13.3360988"><ele>384.0</ele><time>2026-04-26T13:47:29.955Z</time></trkpt><trkpt lat="41.7479531" lon="13.335876"><ele>384.0</ele><time>2026-04-26T13:47:30.95Z</time></trkpt><trkpt lat="41.7481058" lon="13.3356513"><ele>384.0</ele><time>2026-04-26T13:47:31.953Z</time></trkpt><trkpt lat="41.7482565" lon="13.3354208"><ele>384.5</ele><time>2026-04-26T13:47:32.946Z</time></trkpt><trkpt lat="41.7484056" lon="13.3351856"><ele>385.0</ele><time>2026-04-26T13:47:33.942Z</time></trkpt><trkpt lat="41.7485497" lon="13.3349434"><ele>388.0</ele><time>2026-04-26T13:47:34.952Z</time></trkpt><trkpt lat="41.7486829" lon="13.3346925"><ele>391.0</ele><time>2026-04-26T13:47:35.949Z</time></trkpt><trkpt lat="41.7488024" lon="13.3344331"><ele>391.0</ele><time>2026-04-26T13:47:36.943Z</time></trkpt><trkpt lat="41.7489119" lon="13.3341671"><ele>391.0</ele><time>2026-04-26T13:47:37.946Z</time></trkpt><trkpt lat="41.7490122" lon="13.3338998"><ele>391.33333333333337</ele><time>2026-04-26T13:47:38.956Z</time></trkpt><trkpt lat="41.7491011" lon="13.3336304"><ele>391.66666666666663</ele><time>2026-04-26T13:47:39.953Z</time></trkpt><trkpt lat="41.7491783" lon="13.3333595"><ele>392.0</ele><time>2026-04-26T13:47:40.945Z</time></trkpt><trkpt lat="41.7492482" lon="13.3330892"><ele>391.66666666666663</ele><time>2026-04-26T13:47:41.953Z</time></trkpt><trkpt lat="41.7493145" lon="13.3328205"><ele>391.33333333333337</ele><time>2026-04-26T13:47:42.952Z</time></trkpt><trkpt lat="41.74938" lon="13.332555"><ele>391.0</ele><time>2026-04-26T13:47:43.943Z</time></trkpt><trkpt lat="41.7494437" lon="13.3322976"><ele>394.33333333333337</ele><time>2026-04-26T13:47:44.954Z</time></trkpt><trkpt lat="41.7495062" lon="13.3320569"><ele>397.66666666666663</ele><time>2026-04-26T13:47:45.952Z</time></trkpt><trkpt lat="41.7495729" lon="13.3318384"><ele>401.0</ele><time>2026-04-26T13:47:46.959Z</time></trkpt><trkpt lat="41.749641" lon="13.3316491"><ele>401.0</ele><time>2026-04-26T13:47:47.952Z</time></trkpt><trkpt lat="41.7497376" lon="13.3315037"><ele>401.0</ele><time>2026-04-26T13:47:48.954Z</time></trkpt><trkpt lat="41.7498585" lon="13.3313856"><ele>401.0</ele><time>2026-04-26T13:47:49.953Z</time></trkpt><trkpt lat="41.7500042" lon="13.3313086"><ele>406.66666666666663</ele><time>2026-04-26T13:47:50.94Z</time></trkpt><trkpt lat="41.7501637" lon="13.3312648"><ele>412.33333333333337</ele><time>2026-04-26T13:47:51.945Z</time></trkpt><trkpt lat="41.7503341" lon="13.3312334"><ele>418.0</ele><time>2026-04-26T13:47:52.941Z</time></trkpt><trkpt lat="41.7505171" lon="13.3312033"><ele>418.0</ele><time>2026-04-26T13:47:53.947Z</time></trkpt><trkpt lat="41.7507056" lon="13.3311235"><ele>418.0</ele><time>2026-04-26T13:47:54.948Z</time></trkpt><trkpt lat="41.7508944" lon="13.3310168"><ele>418.0</ele><time>2026-04-26T13:47:55.956Z</time></trkpt><trkpt lat="41.7510758" lon="13.3308861"><ele>418.33333333333337</ele><time>2026-04-26T13:47:56.945Z</time></trkpt><trkpt lat="41.7512536" lon="13.3307632"><ele>418.66666666666663</ele><time>2026-04-26T13:47:57.954Z</time></trkpt><trkpt lat="41.7514311" lon="13.3306379"><ele>419.0</ele><time>2026-04-26T13:47:58.938Z</time></trkpt><trkpt lat="41.7516069" lon="13.3305131"><ele>419.0</ele><time>2026-04-26T13:47:59.954Z</time></trkpt><trkpt lat="41.7517813" lon="13.3303931"><ele>419.0</ele><time>2026-04-26T13:48:00.951Z</time></trkpt><trkpt lat="41.7519629" lon="13.3302858"><ele>419.0</ele><time>2026-04-26T13:48:01.95Z</time></trkpt><trkpt lat="41.7521526" lon="13.3302026"><ele>419.66666666666663</ele><time>2026-04-26T13:48:02.951Z</time></trkpt><trkpt lat="41.7523444" lon="13.3301434"><ele>420.33333333333337</ele><time>2026-04-26T13:48:03.941Z</time></trkpt><trkpt lat="41.7525399" lon="13.3301143"><ele>421.0</ele><time>2026-04-26T13:48:04.943Z</time></trkpt><trkpt lat="41.7527352" lon="13.3301239"><ele>421.0</ele><time>2026-04-26T13:48:05.949Z</time></trkpt><trkpt lat="41.7529291" lon="13.3301392"><ele>421.0</ele><time>2026-04-26T13:48:06.95Z</time></trkpt><trkpt lat="41.7531018" lon="13.33017"><ele>421.0</ele><time>2026-04-26T13:48:07.947Z</time></trkpt><trkpt lat="41.7532782" lon="13.3301922"><ele>421.0</ele><time>2026-04-26T13:48:08.947Z</time></trkpt><trkpt lat="41.7534386" lon="13.3301639"><ele>421.0</ele><time>2026-04-26T13:48:09.946Z</time></trkpt><trkpt lat="41.7535781" lon="13.3300804"><ele>421.0</ele><time>2026-04-26T13:48:10.95Z</time></trkpt><trkpt lat="41.7536992" lon="13.3299597"><ele>422.33333333333337</ele><time>2026-04-26T13:48:11.947Z</time></trkpt><trkpt lat="41.7538216" lon="13.3298165"><ele>423.66666666666663</ele><time>2026-04-26T13:48:12.942Z</time></trkpt><trkpt lat="41.7539406" lon="13.3296284"><ele>425.0</ele><time>2026-04-26T13:48:13.947Z</time></trkpt><trkpt lat="41.7540702" lon="13.3294173"><ele>425.0</ele><time>2026-04-26T13:48:14.942Z</time></trkpt><trkpt lat="41.7542174" lon="13.3291656"><ele>425.0</ele><time>2026-04-26T13:48:15.943Z</time></trkpt><trkpt lat="41.7543635" lon="13.3288944"><ele>421.0</ele><time>2026-04-26T13:48:16.946Z</time></trkpt><trkpt lat="41.7545075" lon="13.3286267"><ele>417.0</ele><time>2026-04-26T13:48:17.941Z</time></trkpt><trkpt lat="41.7546502" lon="13.328363"><ele>417.0</ele><time>2026-04-26T13:48:18.948Z</time></trkpt><trkpt lat="41.7547915" lon="13.328105"><ele>417.0</ele><time>2026-04-26T13:48:19.956Z</time></trkpt><trkpt lat="41.7549322" lon="13.3278483"><ele>416.5</ele><time>2026-04-26T13:48:20.954Z</time></trkpt><trkpt lat="41.7550713" lon="13.3275964"><ele>416.0</ele><time>2026-04-26T13:48:21.956Z</time></trkpt><trkpt lat="41.7552081" lon="13.3273446"><ele>417.5</ele><time>2026-04-26T13:48:22.941Z</time></trkpt><trkpt lat="41.7553423" lon="13.3270938"><ele>419.0</ele><time>2026-04-26T13:48:23.953Z</time></trkpt><trkpt lat="41.7554754" lon="13.3268433"><ele>419.0</ele><time>2026-04-26T13:48:24.946Z</time></trkpt><trkpt lat="41.7556062" lon="13.3265957"><ele>419.0</ele><time>2026-04-26T13:48:25.953Z</time></trkpt><trkpt lat="41.7557409" lon="13.3263525"><ele>419.0</ele><time>2026-04-26T13:48:26.947Z</time></trkpt><trkpt lat="41.7558726" lon="13.3261154"><ele>419.0</ele><time>2026-04-26T13:48:27.948Z</time></trkpt><trkpt lat="41.7560009" lon="13.3258819"><ele>419.0</ele><time>2026-04-26T13:48:28.956Z</time></trkpt><trkpt lat="41.7561232" lon="13.3256577"><ele>420.3333333333333</ele><time>2026-04-26T13:48:29.947Z</time></trkpt><trkpt lat="41.7562404" lon="13.3254427"><ele>421.66666666666663</ele><time>2026-04-26T13:48:30.946Z</time></trkpt><trkpt lat="41.7563536" lon="13.3252384"><ele>423.0</ele><time>2026-04-26T13:48:31.952Z</time></trkpt><trkpt lat="41.7564603" lon="13.3250441"><ele>423.0</ele><time>2026-04-26T13:48:32.948Z</time></trkpt><trkpt lat="41.7565598" lon="13.324859"><ele>423.0</ele><time>2026-04-26T13:48:33.945Z</time></trkpt><trkpt lat="41.7566541" lon="13.324683"><ele>423.0</ele><time>2026-04-26T13:48:34.948Z</time></trkpt><trkpt lat="41.7567418" lon="13.3245185"><ele>423.79999999999995</ele><time>2026-04-26T13:48:35.948Z</time></trkpt><trkpt lat="41.7568195" lon="13.3243699"><ele>424.6</ele><time>2026-04-26T13:48:36.941Z</time></trkpt><trkpt lat="41.7568868" lon="13.3242436"><ele>425.40000000000003</ele><time>2026-04-26T13:48:37.944Z</time></trkpt><trkpt lat="41.756941" lon="13.3241419"><ele>426.20000000000005</ele><time>2026-04-26T13:48:38.947Z</time></trkpt><trkpt lat="41.7569794" lon="13.3240701"><ele>427.0</ele><time>2026-04-26T13:48:39.946Z</time></trkpt><trkpt lat="41.757045" lon="13.3239403"><ele>426.40000000000003</ele><time>2026-04-26T13:48:44.944Z</time></trkpt><trkpt lat="41.7571082" lon="13.3238141"><ele>425.80000000000007</ele><time>2026-04-26T13:48:46.948Z</time></trkpt><trkpt lat="41.7571607" lon="13.3237146"><ele>425.2</ele><time>2026-04-26T13:48:47.951Z</time></trkpt><trkpt lat="41.7572223" lon="13.3236035"><ele>424.6</ele><time>2026-04-26T13:48:48.951Z</time></trkpt><trkpt lat="41.7572964" lon="13.3234692"><ele>424.0</ele><time>2026-04-26T13:48:49.955Z</time></trkpt><trkpt lat="41.7573794" lon="13.3233233"><ele>424.0</ele><time>2026-04-26T13:48:50.944Z</time></trkpt><trkpt lat="41.7574731" lon="13.3231769"><ele>424.0</ele><time>2026-04-26T13:48:51.962Z</time></trkpt><trkpt lat="41.7575887" lon="13.3230289"><ele>424.0</ele><time>2026-04-26T13:48:52.945Z</time></trkpt><trkpt lat="41.7577272" lon="13.3228924"><ele>424.6666666666667</ele><time>2026-04-26T13:48:53.948Z</time></trkpt><trkpt lat="41.7578776" lon="13.3227772"><ele>425.33333333333337</ele><time>2026-04-26T13:48:54.946Z</time></trkpt><trkpt lat="41.7580401" lon="13.3226755"><ele>426.0</ele><time>2026-04-26T13:48:55.955Z</time></trkpt><trkpt lat="41.7582192" lon="13.3225778"><ele>426.0</ele><time>2026-04-26T13:48:56.946Z</time></trkpt><trkpt lat="41.7584187" lon="13.3224817"><ele>426.0</ele><time>2026-04-26T13:48:57.954Z</time></trkpt><trkpt lat="41.7586293" lon="13.3223873"><ele>426.0</ele><time>2026-04-26T13:48:58.952Z</time></trkpt><trkpt lat="41.7588396" lon="13.3222989"><ele>428.33333333333337</ele><time>2026-04-26T13:48:59.949Z</time></trkpt><trkpt lat="41.7590489" lon="13.3222131"><ele>430.6666666666667</ele><time>2026-04-26T13:49:00.948Z</time></trkpt><trkpt lat="41.7592577" lon="13.3221313"><ele>433.0</ele><time>2026-04-26T13:49:01.955Z</time></trkpt><trkpt lat="41.7594654" lon="13.3220597"><ele>433.0</ele><time>2026-04-26T13:49:02.943Z</time></trkpt><trkpt lat="41.7596669" lon="13.3219881"><ele>433.0</ele><time>2026-04-26T13:49:03.952Z</time></trkpt><trkpt lat="41.7598693" lon="13.3219144"><ele>433.0</ele><time>2026-04-26T13:49:04.951Z</time></trkpt><trkpt lat="41.7600676" lon="13.3218415"><ele>431.6666666666667</ele><time>2026-04-26T13:49:05.954Z</time></trkpt><trkpt lat="41.7602683" lon="13.3217739"><ele>430.33333333333337</ele><time>2026-04-26T13:49:06.955Z</time></trkpt><trkpt lat="41.7604796" lon="13.3217051"><ele>429.0</ele><time>2026-04-26T13:49:07.956Z</time></trkpt><trkpt lat="41.7606906" lon="13.3216333"><ele>429.0</ele><time>2026-04-26T13:49:08.954Z</time></trkpt><trkpt lat="41.7609037" lon="13.3215633"><ele>429.0</ele><time>2026-04-26T13:49:09.947Z</time></trkpt><trkpt lat="41.7611193" lon="13.3214933"><ele>429.0</ele><time>2026-04-26T13:49:10.955Z</time></trkpt><trkpt lat="41.761334" lon="13.3214236"><ele>430.0</ele><time>2026-04-26T13:49:11.953Z</time></trkpt><trkpt lat="41.7615491" lon="13.3213516"><ele>431.0</ele><time>2026-04-26T13:49:12.949Z</time></trkpt><trkpt lat="41.7617635" lon="13.3212786"><ele>432.0</ele><time>2026-04-26T13:49:13.946Z</time></trkpt><trkpt lat="41.7619767" lon="13.3212059"><ele>433.0</ele><time>2026-04-26T13:49:14.955Z</time></trkpt><trkpt lat="41.7621881" lon="13.3211267"><ele>434.0</ele><time>2026-04-26T13:49:15.948Z</time></trkpt><trkpt lat="41.7623987" lon="13.3210367"><ele>435.0</ele><time>2026-04-26T13:49:16.951Z</time></trkpt><trkpt lat="41.7626066" lon="13.3209305"><ele>435.5</ele><time>2026-04-26T13:49:17.945Z</time></trkpt><trkpt lat="41.7628131" lon="13.3208126"><ele>436.0</ele><time>2026-04-26T13:49:18.954Z</time></trkpt><trkpt lat="41.7630195" lon="13.3206874"><ele>439.0</ele><time>2026-04-26T13:49:19.95Z</time></trkpt><trkpt lat="41.7632253" lon="13.3205626"><ele>442.0</ele><time>2026-04-26T13:49:20.951Z</time></trkpt><trkpt lat="41.7634335" lon="13.3204405"><ele>441.0</ele><time>2026-04-26T13:49:21.951Z</time></trkpt><trkpt lat="41.7636431" lon="13.3203213"><ele>440.0</ele><time>2026-04-26T13:49:22.949Z</time></trkpt><trkpt lat="41.7638548" lon="13.3202052"><ele>440.0</ele><time>2026-04-26T13:49:23.95Z</time></trkpt><trkpt lat="41.7640693" lon="13.3200909"><ele>440.0</ele><time>2026-04-26T13:49:24.953Z</time></trkpt><trkpt lat="41.7642968" lon="13.3199937"><ele>442.0</ele><time>2026-04-26T13:49:25.944Z</time></trkpt><trkpt lat="41.7645174" lon="13.31991"><ele>444.0</ele><time>2026-04-26T13:49:26.944Z</time></trkpt><trkpt lat="41.7647453" lon="13.3198398"><ele>444.0</ele><time>2026-04-26T13:49:27.948Z</time></trkpt><trkpt lat="41.7649723" lon="13.319789"><ele>444.0</ele><time>2026-04-26T13:49:28.952Z</time></trkpt><trkpt lat="41.7652017" lon="13.3197626"><ele>446.5</ele><time>2026-04-26T13:49:29.963Z</time></trkpt><trkpt lat="41.7654325" lon="13.3197581"><ele>449.0</ele><time>2026-04-26T13:49:30.944Z</time></trkpt><trkpt lat="41.7656627" lon="13.3197717"><ele>449.0</ele><time>2026-04-26T13:49:31.945Z</time></trkpt><trkpt lat="41.7658907" lon="13.3197983"><ele>449.0</ele><time>2026-04-26T13:49:32.951Z</time></trkpt><trkpt lat="41.7661146" lon="13.3198442"><ele>450.0</ele><time>2026-04-26T13:49:33.954Z</time></trkpt><trkpt lat="41.7663259" lon="13.3199079"><ele>451.0</ele><time>2026-04-26T13:49:34.96Z</time></trkpt><trkpt lat="41.7665245" lon="13.3199835"><ele>452.0</ele><time>2026-04-26T13:49:35.955Z</time></trkpt><trkpt lat="41.7667035" lon="13.3200585"><ele>453.66666666666663</ele><time>2026-04-26T13:49:36.951Z</time></trkpt><trkpt lat="41.766863" lon="13.3201255"><ele>455.33333333333337</ele><time>2026-04-26T13:49:37.949Z</time></trkpt><trkpt lat="41.7670086" lon="13.3201811"><ele>457.0</ele><time>2026-04-26T13:49:38.944Z</time></trkpt><trkpt lat="41.767147" lon="13.3202165"><ele>457.0</ele><time>2026-04-26T13:49:39.954Z</time></trkpt><trkpt lat="41.7672907" lon="13.3202345"><ele>457.0</ele><time>2026-04-26T13:49:40.949Z</time></trkpt><trkpt lat="41.7674301" lon="13.3202378"><ele>457.0</ele><time>2026-04-26T13:49:41.944Z</time></trkpt><trkpt lat="41.7675682" lon="13.3202208"><ele>457.0</ele><time>2026-04-26T13:49:42.947Z</time></trkpt><trkpt lat="41.7677032" lon="13.3201863"><ele>457.25</ele><time>2026-04-26T13:49:43.947Z</time></trkpt><trkpt lat="41.7678336" lon="13.3201384"><ele>457.5</ele><time>2026-04-26T13:49:44.955Z</time></trkpt><trkpt lat="41.7679581" lon="13.3200769"><ele>457.75</ele><time>2026-04-26T13:49:45.955Z</time></trkpt><trkpt lat="41.7680859" lon="13.320008"><ele>458.0</ele><time>2026-04-26T13:49:46.951Z</time></trkpt><trkpt lat="41.7682155" lon="13.3199338"><ele>458.0</ele><time>2026-04-26T13:49:47.951Z</time></trkpt><trkpt lat="41.7683533" lon="13.3198459"><ele>458.0</ele><time>2026-04-26T13:49:48.967Z</time></trkpt><trkpt lat="41.7685006" lon="13.3197509"><ele>458.0</ele><time>2026-04-26T13:49:49.954Z</time></trkpt><trkpt lat="41.7686625" lon="13.3196429"><ele>460.0</ele><time>2026-04-26T13:49:50.957Z</time></trkpt><trkpt lat="41.7688463" lon="13.319526"><ele>462.0</ele><time>2026-04-26T13:49:51.956Z</time></trkpt><trkpt lat="41.7690581" lon="13.3194129"><ele>464.0</ele><time>2026-04-26T13:49:52.952Z</time></trkpt><trkpt lat="41.76928" lon="13.3192942"><ele>464.0</ele><time>2026-04-26T13:49:53.944Z</time></trkpt><trkpt lat="41.769502" lon="13.3191685"><ele>464.0</ele><time>2026-04-26T13:49:54.952Z</time></trkpt><trkpt lat="41.7697196" lon="13.3190404"><ele>464.0</ele><time>2026-04-26T13:49:55.961Z</time></trkpt><trkpt lat="41.7699341" lon="13.3189127"><ele>464.0</ele><time>2026-04-26T13:49:56.943Z</time></trkpt><trkpt lat="41.7701437" lon="13.3187847"><ele>467.0</ele><time>2026-04-26T13:49:57.949Z</time></trkpt><trkpt lat="41.7703491" lon="13.3186569"><ele>470.0</ele><time>2026-04-26T13:49:58.951Z</time></trkpt><trkpt lat="41.7705536" lon="13.3185314"><ele>470.0</ele><time>2026-04-26T13:49:59.959Z</time></trkpt><trkpt lat="41.7707537" lon="13.3184088"><ele>470.0</ele><time>2026-04-26T13:50:00.955Z</time></trkpt><trkpt lat="41.7709563" lon="13.3183058"><ele>470.0</ele><time>2026-04-26T13:50:01.946Z</time></trkpt><trkpt lat="41.7711662" lon="13.3182498"><ele>471.3333333333333</ele><time>2026-04-26T13:50:02.947Z</time></trkpt><trkpt lat="41.7713743" lon="13.318233"><ele>472.66666666666663</ele><time>2026-04-26T13:50:03.953Z</time></trkpt><trkpt lat="41.7715731" lon="13.3182525"><ele>474.0</ele><time>2026-04-26T13:50:04.948Z</time></trkpt><trkpt lat="41.7717643" lon="13.3182995"><ele>475.33333333333337</ele><time>2026-04-26T13:50:05.945Z</time></trkpt><trkpt lat="41.7719479" lon="13.3183798"><ele>476.6666666666667</ele><time>2026-04-26T13:50:06.963Z</time></trkpt><trkpt lat="41.7721211" lon="13.3185009"><ele>478.0</ele><time>2026-04-26T13:50:07.949Z</time></trkpt><trkpt lat="41.7722804" lon="13.3186593"><ele>478.0</ele><time>2026-04-26T13:50:08.953Z</time></trkpt><trkpt lat="41.772435" lon="13.3188427"><ele>478.0</ele><time>2026-04-26T13:50:09.956Z</time></trkpt><trkpt lat="41.7725875" lon="13.3190414"><ele>478.0</ele><time>2026-04-26T13:50:10.951Z</time></trkpt><trkpt lat="41.7727472" lon="13.3192475"><ele>479.5</ele><time>2026-04-26T13:50:11.946Z</time></trkpt><trkpt lat="41.7729152" lon="13.3194497"><ele>481.0</ele><time>2026-04-26T13:50:12.954Z</time></trkpt><trkpt lat="41.7730833" lon="13.3196568"><ele>480.33333333333337</ele><time>2026-04-26T13:50:13.944Z</time></trkpt><trkpt lat="41.7732466" lon="13.3198643"><ele>479.66666666666663</ele><time>2026-04-26T13:50:14.953Z</time></trkpt><trkpt lat="41.7734085" lon="13.3200683"><ele>479.0</ele><time>2026-04-26T13:50:15.948Z</time></trkpt><trkpt lat="41.7735701" lon="13.3202573"><ele>478.66666666666663</ele><time>2026-04-26T13:50:16.964Z</time></trkpt><trkpt lat="41.7737293" lon="13.3204111"><ele>478.33333333333337</ele><time>2026-04-26T13:50:17.946Z</time></trkpt><trkpt lat="41.7738902" lon="13.3205212"><ele>478.0</ele><time>2026-04-26T13:50:18.95Z</time></trkpt><trkpt lat="41.7740553" lon="13.3205785"><ele>478.0</ele><time>2026-04-26T13:50:19.94Z</time></trkpt><trkpt lat="41.7742189" lon="13.3205891"><ele>478.0</ele><time>2026-04-26T13:50:20.947Z</time></trkpt><trkpt lat="41.7743766" lon="13.3205573"><ele>478.0</ele><time>2026-04-26T13:50:21.949Z</time></trkpt><trkpt lat="41.7745154" lon="13.3204997"><ele>479.25</ele><time>2026-04-26T13:50:22.946Z</time></trkpt><trkpt lat="41.7746356" lon="13.3204236"><ele>480.5</ele><time>2026-04-26T13:50:23.959Z</time></trkpt><trkpt lat="41.7747486" lon="13.3203258"><ele>481.75</ele><time>2026-04-26T13:50:24.954Z</time></trkpt><trkpt lat="41.7748552" lon="13.3202111"><ele>483.0</ele><time>2026-04-26T13:50:25.95Z</time></trkpt><trkpt lat="41.774957" lon="13.3200822"><ele>483.0</ele><time>2026-04-26T13:50:26.959Z</time></trkpt><trkpt lat="41.7750564" lon="13.3199435"><ele>483.0</ele><time>2026-04-26T13:50:27.957Z</time></trkpt><trkpt lat="41.7751515" lon="13.3197946"><ele>483.0</ele><time>2026-04-26T13:50:28.958Z</time></trkpt><trkpt lat="41.7752374" lon="13.319641"><ele>483.0</ele><time>2026-04-26T13:50:29.947Z</time></trkpt><trkpt lat="41.775304" lon="13.3194915"><ele>484.2</ele><time>2026-04-26T13:50:30.956Z</time></trkpt><trkpt lat="41.7753495" lon="13.3193511"><ele>485.4</ele><time>2026-04-26T13:50:31.947Z</time></trkpt><trkpt lat="41.7753849" lon="13.3192242"><ele>486.59999999999997</ele><time>2026-04-26T13:50:32.965Z</time></trkpt><trkpt lat="41.7754106" lon="13.3191247"><ele>487.79999999999995</ele><time>2026-04-26T13:50:33.96Z</time></trkpt><trkpt lat="41.7754478" lon="13.3190018"><ele>489.0</ele><time>2026-04-26T13:50:35.957Z</time></trkpt><trkpt lat="41.7754783" lon="13.3188909"><ele>489.0</ele><time>2026-04-26T13:50:39.955Z</time></trkpt><trkpt lat="41.7754404" lon="13.3188136"><ele>489.0</ele><time>2026-04-26T13:50:42.956Z</time></trkpt><trkpt lat="41.7753928" lon="13.3189541"><ele>489.0</ele><time>2026-04-26T13:50:45.943Z</time></trkpt><trkpt lat="41.7753825" lon="13.3190827"><ele>489.0</ele><time>2026-04-26T13:50:46.948Z</time></trkpt><trkpt lat="41.7753532" lon="13.3192375"><ele>489.0</ele><time>2026-04-26T13:50:47.951Z</time></trkpt><trkpt lat="41.775302" lon="13.3194064"><ele>489.0</ele><time>2026-04-26T13:50:48.951Z</time></trkpt><trkpt lat="41.7752329" lon="13.3195796"><ele>489.0</ele><time>2026-04-26T13:50:49.953Z</time></trkpt><trkpt lat="41.7751523" lon="13.3197381"><ele>489.0</ele><time>2026-04-26T13:50:50.943Z</time></trkpt><trkpt lat="41.7750674" lon="13.319875"><ele>489.0</ele><time>2026-04-26T13:50:51.962Z</time></trkpt><trkpt lat="41.7749867" lon="13.3199897"><ele>487.79999999999995</ele><time>2026-04-26T13:50:52.947Z</time></trkpt><trkpt lat="41.7749173" lon="13.3200842"><ele>486.59999999999997</ele><time>2026-04-26T13:50:53.952Z</time></trkpt><trkpt lat="41.774861" lon="13.3201622"><ele>485.4</ele><time>2026-04-26T13:50:54.944Z</time></trkpt><trkpt lat="41.7748203" lon="13.3202858"><ele>484.2</ele><time>2026-04-26T13:50:56.95Z</time></trkpt><trkpt lat="41.774922" lon="13.3203551"><ele>483.0</ele><time>2026-04-26T13:50:59.962Z</time></trkpt><trkpt lat="41.7749919" lon="13.320316"><ele>483.0</ele><time>2026-04-26T13:51:00.948Z</time></trkpt><trkpt lat="41.7750841" lon="13.320264"><ele>483.0</ele><time>2026-04-26T13:51:01.966Z</time></trkpt><trkpt lat="41.7751922" lon="13.3202057"><ele>483.0</ele><time>2026-04-26T13:51:02.95Z</time></trkpt><trkpt lat="41.7753245" lon="13.3201392"><ele>483.0</ele><time>2026-04-26T13:51:03.953Z</time></trkpt><trkpt lat="41.7754714" lon="13.3200668"><ele>483.33333333333337</ele><time>2026-04-26T13:51:04.954Z</time></trkpt><trkpt lat="41.7756339" lon="13.3199867"><ele>483.6666666666667</ele><time>2026-04-26T13:51:05.964Z</time></trkpt><trkpt lat="41.775804" lon="13.3199039"><ele>484.0</ele><time>2026-04-26T13:51:06.952Z</time></trkpt><trkpt lat="41.7759782" lon="13.3198227"><ele>484.0</ele><time>2026-04-26T13:51:07.955Z</time></trkpt><trkpt lat="41.7761522" lon="13.3197444"><ele>484.0</ele><time>2026-04-26T13:51:08.954Z</time></trkpt><trkpt lat="41.7763304" lon="13.3196651"><ele>484.0</ele><time>2026-04-26T13:51:09.963Z</time></trkpt><trkpt lat="41.7765106" lon="13.3195835"><ele>486.0</ele><time>2026-04-26T13:51:10.947Z</time></trkpt><trkpt lat="41.7766982" lon="13.319497"><ele>488.0</ele><time>2026-04-26T13:51:11.958Z</time></trkpt><trkpt lat="41.7768898" lon="13.3194094"><ele>490.0</ele><time>2026-04-26T13:51:12.948Z</time></trkpt><trkpt lat="41.7770806" lon="13.3193188"><ele>490.0</ele><time>2026-04-26T13:51:13.951Z</time></trkpt><trkpt lat="41.777271" lon="13.3192295"><ele>490.0</ele><time>2026-04-26T13:51:14.947Z</time></trkpt><trkpt lat="41.7774619" lon="13.3191419"><ele>490.0</ele><time>2026-04-26T13:51:15.951Z</time></trkpt><trkpt lat="41.7776519" lon="13.319056"><ele>489.0</ele><time>2026-04-26T13:51:16.948Z</time></trkpt><trkpt lat="41.7778404" lon="13.3189675"><ele>488.0</ele><time>2026-04-26T13:51:17.955Z</time></trkpt><trkpt lat="41.7780268" lon="13.318879"><ele>487.0</ele><time>2026-04-26T13:51:18.952Z</time></trkpt><trkpt lat="41.7782121" lon="13.318794"><ele>489.33333333333337</ele><time>2026-04-26T13:51:19.952Z</time></trkpt><trkpt lat="41.7783947" lon="13.3187109"><ele>491.66666666666663</ele><time>2026-04-26T13:51:20.945Z</time></trkpt><trkpt lat="41.7785683" lon="13.3186228"><ele>494.0</ele><time>2026-04-26T13:51:21.956Z</time></trkpt><trkpt lat="41.7787326" lon="13.3185187"><ele>494.0</ele><time>2026-04-26T13:51:22.949Z</time></trkpt><trkpt lat="41.7788878" lon="13.3183919"><ele>494.0</ele><time>2026-04-26T13:51:23.944Z</time></trkpt><trkpt lat="41.7790334" lon="13.3182417"><ele>494.0</ele><time>2026-04-26T13:51:24.949Z</time></trkpt><trkpt lat="41.7791706" lon="13.3180715"><ele>493.66666666666663</ele><time>2026-04-26T13:51:25.951Z</time></trkpt><trkpt lat="41.7793007" lon="13.3178838"><ele>493.33333333333337</ele><time>2026-04-26T13:51:26.948Z</time></trkpt><trkpt lat="41.7794277" lon="13.3176872"><ele>493.0</ele><time>2026-04-26T13:51:27.959Z</time></trkpt><trkpt lat="41.7795549" lon="13.3174844"><ele>493.0</ele><time>2026-04-26T13:51:28.947Z</time></trkpt><trkpt lat="41.7796833" lon="13.3172768"><ele>493.0</ele><time>2026-04-26T13:51:29.956Z</time></trkpt><trkpt lat="41.7798134" lon="13.3170658"><ele>493.0</ele><time>2026-04-26T13:51:30.945Z</time></trkpt><trkpt lat="41.7799452" lon="13.3168543"><ele>493.0</ele><time>2026-04-26T13:51:31.959Z</time></trkpt><trkpt lat="41.7800779" lon="13.3166439"><ele>493.0</ele><time>2026-04-26T13:51:32.957Z</time></trkpt><trkpt lat="41.7802101" lon="13.3164351"><ele>493.0</ele><time>2026-04-26T13:51:33.944Z</time></trkpt><trkpt lat="41.7803416" lon="13.3162256"><ele>493.0</ele><time>2026-04-26T13:51:34.961Z</time></trkpt><trkpt lat="41.7804728" lon="13.3160144"><ele>493.0</ele><time>2026-04-26T13:51:35.954Z</time></trkpt><trkpt lat="41.7806057" lon="13.315805"><ele>493.0</ele><time>2026-04-26T13:51:36.944Z</time></trkpt><trkpt lat="41.7807427" lon="13.3156005"><ele>495.0</ele><time>2026-04-26T13:51:37.954Z</time></trkpt><trkpt lat="41.7808905" lon="13.3154106"><ele>497.0</ele><time>2026-04-26T13:51:38.947Z</time></trkpt><trkpt lat="41.7810549" lon="13.315251"><ele>499.0</ele><time>2026-04-26T13:51:39.943Z</time></trkpt><trkpt lat="41.7812359" lon="13.3151281"><ele>499.0</ele><time>2026-04-26T13:51:40.948Z</time></trkpt><trkpt lat="41.7814307" lon="13.3150444"><ele>499.0</ele><time>2026-04-26T13:51:41.946Z</time></trkpt><trkpt lat="41.7816381" lon="13.3149952"><ele>499.0</ele><time>2026-04-26T13:51:42.946Z</time></trkpt><trkpt lat="41.7818638" lon="13.3149756"><ele>498.5</ele><time>2026-04-26T13:51:43.947Z</time></trkpt><trkpt lat="41.7821037" lon="13.3149713"><ele>498.0</ele><time>2026-04-26T13:51:44.946Z</time></trkpt><trkpt lat="41.7823486" lon="13.314972"><ele>498.0</ele><time>2026-04-26T13:51:45.957Z</time></trkpt><trkpt lat="41.7825923" lon="13.3149686"><ele>498.0</ele><time>2026-04-26T13:51:46.947Z</time></trkpt><trkpt lat="41.7828317" lon="13.3149642"><ele>499.5</ele><time>2026-04-26T13:51:47.951Z</time></trkpt><trkpt lat="41.7830678" lon="13.3149636"><ele>501.0</ele><time>2026-04-26T13:51:48.943Z</time></trkpt><trkpt lat="41.7833015" lon="13.3149647"><ele>502.0</ele><time>2026-04-26T13:51:49.951Z</time></trkpt><trkpt lat="41.7835342" lon="13.3149635"><ele>503.0</ele><time>2026-04-26T13:51:50.953Z</time></trkpt><trkpt lat="41.7837658" lon="13.3149611"><ele>503.0</ele><time>2026-04-26T13:51:51.953Z</time></trkpt><trkpt lat="41.7839991" lon="13.3149611"><ele>503.0</ele><time>2026-04-26T13:51:52.95Z</time></trkpt><trkpt lat="41.7842308" lon="13.3149665"><ele>504.66666666666663</ele><time>2026-04-26T13:51:53.958Z</time></trkpt><trkpt lat="41.7844511" lon="13.3149747"><ele>506.33333333333337</ele><time>2026-04-26T13:51:54.953Z</time></trkpt><trkpt lat="41.7846649" lon="13.314975"><ele>508.0</ele><time>2026-04-26T13:51:55.944Z</time></trkpt><trkpt lat="41.7848623" lon="13.3149701"><ele>508.0</ele><time>2026-04-26T13:51:56.94Z</time></trkpt><trkpt lat="41.7850478" lon="13.3149584"><ele>508.0</ele><time>2026-04-26T13:51:57.947Z</time></trkpt><trkpt lat="41.7852279" lon="13.3149218"><ele>508.0</ele><time>2026-04-26T13:51:58.947Z</time></trkpt><trkpt lat="41.7854043" lon="13.3148621"><ele>509.33333333333337</ele><time>2026-04-26T13:51:59.959Z</time></trkpt><trkpt lat="41.7855722" lon="13.3147766"><ele>510.66666666666663</ele><time>2026-04-26T13:52:00.946Z</time></trkpt><trkpt lat="41.785737" lon="13.3146615"><ele>512.0</ele><time>2026-04-26T13:52:01.963Z</time></trkpt><trkpt lat="41.7859041" lon="13.3145151"><ele>512.6666666666666</ele><time>2026-04-26T13:52:02.951Z</time></trkpt><trkpt lat="41.7860747" lon="13.3143532"><ele>513.3333333333334</ele><time>2026-04-26T13:52:03.954Z</time></trkpt><trkpt lat="41.7862501" lon="13.3141839"><ele>514.0</ele><time>2026-04-26T13:52:04.953Z</time></trkpt><trkpt lat="41.7864272" lon="13.3140065"><ele>516.0</ele><time>2026-04-26T13:52:05.95Z</time></trkpt><trkpt lat="41.7866075" lon="13.3138237"><ele>518.0</ele><time>2026-04-26T13:52:06.944Z</time></trkpt><trkpt lat="41.7867905" lon="13.3136388"><ele>519.5</ele><time>2026-04-26T13:52:07.953Z</time></trkpt><trkpt lat="41.7869724" lon="13.3134554"><ele>521.0</ele><time>2026-04-26T13:52:08.948Z</time></trkpt><trkpt lat="41.7871507" lon="13.3132758"><ele>521.0</ele><time>2026-04-26T13:52:09.947Z</time></trkpt><trkpt lat="41.787326" lon="13.3131015"><ele>521.0</ele><time>2026-04-26T13:52:10.951Z</time></trkpt><trkpt lat="41.787499" lon="13.3129315"><ele>521.0</ele><time>2026-04-26T13:52:11.957Z</time></trkpt><trkpt lat="41.7876688" lon="13.3127647"><ele>522.3333333333333</ele><time>2026-04-26T13:52:12.978Z</time></trkpt><trkpt lat="41.7878347" lon="13.3125992"><ele>523.6666666666666</ele><time>2026-04-26T13:52:13.958Z</time></trkpt><trkpt lat="41.7879943" lon="13.3124396"><ele>525.0</ele><time>2026-04-26T13:52:14.953Z</time></trkpt><trkpt lat="41.7881471" lon="13.3122953"><ele>525.6666666666666</ele><time>2026-04-26T13:52:15.951Z</time></trkpt><trkpt lat="41.7882913" lon="13.3121681"><ele>526.3333333333333</ele><time>2026-04-26T13:52:16.953Z</time></trkpt><trkpt lat="41.7884323" lon="13.312064"><ele>527.0</ele><time>2026-04-26T13:52:17.944Z</time></trkpt><trkpt lat="41.7885752" lon="13.3119872"><ele>528.25</ele><time>2026-04-26T13:52:18.949Z</time></trkpt><trkpt lat="41.7887214" lon="13.3119401"><ele>529.5</ele><time>2026-04-26T13:52:19.963Z</time></trkpt><trkpt lat="41.7888672" lon="13.3119233"><ele>530.75</ele><time>2026-04-26T13:52:20.946Z</time></trkpt><trkpt lat="41.7890105" lon="13.3119388"><ele>532.0</ele><time>2026-04-26T13:52:21.952Z</time></trkpt><trkpt lat="41.7891484" lon="13.3119839"><ele>532.0</ele><time>2026-04-26T13:52:22.945Z</time></trkpt><trkpt lat="41.7892774" lon="13.3120575"><ele>532.0</ele><time>2026-04-26T13:52:23.946Z</time></trkpt><trkpt lat="41.7893962" lon="13.3121572"><ele>532.0</ele><time>2026-04-26T13:52:24.949Z</time></trkpt><trkpt lat="41.7895041" lon="13.3122785"><ele>532.0</ele><time>2026-04-26T13:52:25.952Z</time></trkpt><trkpt lat="41.7895981" lon="13.3124179"><ele>534.25</ele><time>2026-04-26T13:52:26.954Z</time></trkpt><trkpt lat="41.7896728" lon="13.3125758"><ele>536.5</ele><time>2026-04-26T13:52:27.943Z</time></trkpt><trkpt lat="41.7897292" lon="13.3127523"><ele>538.75</ele><time>2026-04-26T13:52:28.956Z</time></trkpt><trkpt lat="41.7897723" lon="13.3129479"><ele>541.0</ele><time>2026-04-26T13:52:29.952Z</time></trkpt><trkpt lat="41.7898048" lon="13.313157"><ele>541.0</ele><time>2026-04-26T13:52:30.948Z</time></trkpt><trkpt lat="41.7898322" lon="13.3133763"><ele>541.0</ele><time>2026-04-26T13:52:31.953Z</time></trkpt><trkpt lat="41.7898573" lon="13.3136019"><ele>541.0</ele><time>2026-04-26T13:52:32.96Z</time></trkpt><trkpt lat="41.7898833" lon="13.3138306"><ele>540.6666666666667</ele><time>2026-04-26T13:52:33.943Z</time></trkpt><trkpt lat="41.7899148" lon="13.3140596"><ele>540.3333333333334</ele><time>2026-04-26T13:52:34.956Z</time></trkpt><trkpt lat="41.7899604" lon="13.3142887"><ele>540.0</ele><time>2026-04-26T13:52:35.95Z</time></trkpt><trkpt lat="41.7900239" lon="13.31452"><ele>539.0</ele><time>2026-04-26T13:52:36.951Z</time></trkpt><trkpt lat="41.7901019" lon="13.3147546"><ele>538.0</ele><time>2026-04-26T13:52:37.961Z</time></trkpt><trkpt lat="41.790186" lon="13.3149899"><ele>537.0</ele><time>2026-04-26T13:52:38.94Z</time></trkpt><trkpt lat="41.7902706" lon="13.3152259"><ele>542.0</ele><time>2026-04-26T13:52:39.943Z</time></trkpt><trkpt lat="41.7903541" lon="13.3154556"><ele>547.0</ele><time>2026-04-26T13:52:40.948Z</time></trkpt><trkpt lat="41.7904411" lon="13.3156788"><ele>552.0</ele><time>2026-04-26T13:52:41.952Z</time></trkpt><trkpt lat="41.7905421" lon="13.3158879"><ele>552.0</ele><time>2026-04-26T13:52:42.951Z</time></trkpt><trkpt lat="41.7906671" lon="13.3160729"><ele>552.0</ele><time>2026-04-26T13:52:43.949Z</time></trkpt><trkpt lat="41.7908177" lon="13.3162298"><ele>552.0</ele><time>2026-04-26T13:52:44.954Z</time></trkpt><trkpt lat="41.7909919" lon="13.3163627"><ele>551.3333333333334</ele><time>2026-04-26T13:52:45.948Z</time></trkpt><trkpt lat="41.7911762" lon="13.3164771"><ele>550.6666666666667</ele><time>2026-04-26T13:52:46.953Z</time></trkpt><trkpt lat="41.7913669" lon="13.3165676"><ele>550.0</ele><time>2026-04-26T13:52:47.961Z</time></trkpt><trkpt lat="41.7915627" lon="13.316625"><ele>550.0</ele><time>2026-04-26T13:52:48.943Z</time></trkpt><trkpt lat="41.7917627" lon="13.3166418"><ele>550.0</ele><time>2026-04-26T13:52:49.945Z</time></trkpt><trkpt lat="41.7919617" lon="13.316621"><ele>550.0</ele><time>2026-04-26T13:52:50.947Z</time></trkpt><trkpt lat="41.792158" lon="13.3165654"><ele>551.3333333333334</ele><time>2026-04-26T13:52:51.948Z</time></trkpt><trkpt lat="41.7923508" lon="13.3164823"><ele>552.6666666666666</ele><time>2026-04-26T13:52:52.942Z</time></trkpt><trkpt lat="41.7925429" lon="13.316386"><ele>554.0</ele><time>2026-04-26T13:52:53.946Z</time></trkpt><trkpt lat="41.792739" lon="13.3162827"><ele>560.0</ele><time>2026-04-26T13:52:54.954Z</time></trkpt><trkpt lat="41.792934" lon="13.3161745"><ele>566.0</ele><time>2026-04-26T13:52:55.947Z</time></trkpt><trkpt lat="41.7931307" lon="13.316064"><ele>572.0</ele><time>2026-04-26T13:52:56.953Z</time></trkpt><trkpt lat="41.7933272" lon="13.3159527"><ele>568.3333333333333</ele><time>2026-04-26T13:52:57.943Z</time></trkpt><trkpt lat="41.7935194" lon="13.3158317"><ele>564.6666666666666</ele><time>2026-04-26T13:52:58.945Z</time></trkpt><trkpt lat="41.7937127" lon="13.3157049"><ele>561.0</ele><time>2026-04-26T13:52:59.947Z</time></trkpt><trkpt lat="41.7939021" lon="13.3155728"><ele>565.3333333333334</ele><time>2026-04-26T13:53:00.943Z</time></trkpt><trkpt lat="41.7940856" lon="13.3154401"><ele>569.6666666666667</ele><time>2026-04-26T13:53:01.942Z</time></trkpt><trkpt lat="41.794263" lon="13.3153009"><ele>574.0</ele><time>2026-04-26T13:53:02.946Z</time></trkpt><trkpt lat="41.7944348" lon="13.3151601"><ele>574.0</ele><time>2026-04-26T13:53:03.949Z</time></trkpt><trkpt lat="41.7946026" lon="13.3150176"><ele>574.0</ele><time>2026-04-26T13:53:04.951Z</time></trkpt><trkpt lat="41.7947639" lon="13.3148799"><ele>574.0</ele><time>2026-04-26T13:53:05.944Z</time></trkpt><trkpt lat="41.7949042" lon="13.3147552"><ele>575.3333333333334</ele><time>2026-04-26T13:53:06.942Z</time></trkpt><trkpt lat="41.7950367" lon="13.3146415"><ele>576.6666666666666</ele><time>2026-04-26T13:53:07.953Z</time></trkpt><trkpt lat="41.7951719" lon="13.3145311"><ele>578.0</ele><time>2026-04-26T13:53:08.951Z</time></trkpt><trkpt lat="41.7953059" lon="13.3144154"><ele>578.0</ele><time>2026-04-26T13:53:09.944Z</time></trkpt><trkpt lat="41.7954383" lon="13.3143006"><ele>578.0</ele><time>2026-04-26T13:53:10.943Z</time></trkpt><trkpt lat="41.7955635" lon="13.3141959"><ele>578.0</ele><time>2026-04-26T13:53:11.951Z</time></trkpt><trkpt lat="41.7956839" lon="13.3141273"><ele>578.0</ele><time>2026-04-26T13:53:12.941Z</time></trkpt><trkpt lat="41.7957976" lon="13.3141124"><ele>578.0</ele><time>2026-04-26T13:53:13.944Z</time></trkpt><trkpt lat="41.7958969" lon="13.3141508"><ele>578.0</ele><time>2026-04-26T13:53:14.948Z</time></trkpt><trkpt lat="41.7959738" lon="13.31424"><ele>578.0</ele><time>2026-04-26T13:53:15.957Z</time></trkpt><trkpt lat="41.7960362" lon="13.3143628"><ele>578.0</ele><time>2026-04-26T13:53:16.947Z</time></trkpt><trkpt lat="41.7960944" lon="13.3144994"><ele>578.0</ele><time>2026-04-26T13:53:17.949Z</time></trkpt><trkpt lat="41.7961382" lon="13.3146726"><ele>578.5</ele><time>2026-04-26T13:53:18.955Z</time></trkpt><trkpt lat="41.796206" lon="13.3148437"><ele>579.0</ele><time>2026-04-26T13:53:19.945Z</time></trkpt><trkpt lat="41.7962736" lon="13.3150175"><ele>579.5</ele><time>2026-04-26T13:53:20.947Z</time></trkpt><trkpt lat="41.79634" lon="13.3151905"><ele>580.0</ele><time>2026-04-26T13:53:21.943Z</time></trkpt><trkpt lat="41.7963992" lon="13.3153538"><ele>580.0</ele><time>2026-04-26T13:53:22.959Z</time></trkpt><trkpt lat="41.7964526" lon="13.3154989"><ele>580.0</ele><time>2026-04-26T13:53:23.959Z</time></trkpt><trkpt lat="41.7965147" lon="13.3156098"><ele>580.0</ele><time>2026-04-26T13:53:24.95Z</time></trkpt><trkpt lat="41.7965902" lon="13.3156861"><ele>580.0</ele><time>2026-04-26T13:53:25.963Z</time></trkpt><trkpt lat="41.7966767" lon="13.3157295"><ele>580.0</ele><time>2026-04-26T13:53:26.95Z</time></trkpt><trkpt lat="41.796773" lon="13.3157388"><ele>580.4</ele><time>2026-04-26T13:53:27.94Z</time></trkpt><trkpt lat="41.79687" lon="13.3157358"><ele>580.8</ele><time>2026-04-26T13:53:28.967Z</time></trkpt><trkpt lat="41.7969782" lon="13.3157035"><ele>581.2</ele><time>2026-04-26T13:53:29.949Z</time></trkpt><trkpt lat="41.7970792" lon="13.3156565"><ele>581.6</ele><time>2026-04-26T13:53:30.947Z</time></trkpt><trkpt lat="41.7971788" lon="13.3155997"><ele>582.0</ele><time>2026-04-26T13:53:31.955Z</time></trkpt><trkpt lat="41.7972769" lon="13.3155327"><ele>583.6</ele><time>2026-04-26T13:53:32.959Z</time></trkpt><trkpt lat="41.7973763" lon="13.3154592"><ele>585.2</ele><time>2026-04-26T13:53:33.945Z</time></trkpt><trkpt lat="41.7974731" lon="13.3153833"><ele>586.8</ele><time>2026-04-26T13:53:34.948Z</time></trkpt><trkpt lat="41.7975726" lon="13.315306"><ele>588.4</ele><time>2026-04-26T13:53:35.955Z</time></trkpt><trkpt lat="41.7976709" lon="13.315259"><ele>590.0</ele><time>2026-04-26T13:53:36.962Z</time></trkpt><trkpt lat="41.7977652" lon="13.3152524"><ele>590.4</ele><time>2026-04-26T13:53:37.95Z</time></trkpt><trkpt lat="41.7978426" lon="13.3152902"><ele>590.8</ele><time>2026-04-26T13:53:38.957Z</time></trkpt><trkpt lat="41.797931" lon="13.3153317"><ele>591.2</ele><time>2026-04-26T13:53:39.951Z</time></trkpt><trkpt lat="41.7979937" lon="13.3154292"><ele>591.6</ele><time>2026-04-26T13:53:40.958Z</time></trkpt><trkpt lat="41.7980526" lon="13.3155367"><ele>592.0</ele><time>2026-04-26T13:53:41.953Z</time></trkpt><trkpt lat="41.7981147" lon="13.3156543"><ele>592.0</ele><time>2026-04-26T13:53:42.947Z</time></trkpt><trkpt lat="41.7981835" lon="13.3157824"><ele>592.0</ele><time>2026-04-26T13:53:43.954Z</time></trkpt><trkpt lat="41.7982554" lon="13.3159147"><ele>592.0</ele><time>2026-04-26T13:53:44.944Z</time></trkpt><trkpt lat="41.7983289" lon="13.3160539"><ele>592.0</ele><time>2026-04-26T13:53:45.947Z</time></trkpt><trkpt lat="41.7984034" lon="13.3161834"><ele>592.0</ele><time>2026-04-26T13:53:46.953Z</time></trkpt><trkpt lat="41.7984824" lon="13.3163023"><ele>592.0</ele><time>2026-04-26T13:53:47.949Z</time></trkpt><trkpt lat="41.7985651" lon="13.3163777"><ele>592.0</ele><time>2026-04-26T13:53:48.957Z</time></trkpt><trkpt lat="41.7986438" lon="13.3164404"><ele>592.0</ele><time>2026-04-26T13:53:49.957Z</time></trkpt><trkpt lat="41.7987255" lon="13.3164166"><ele>592.0</ele><time>2026-04-26T13:53:50.955Z</time></trkpt><trkpt lat="41.7987935" lon="13.3163553"><ele>594.6</ele><time>2026-04-26T13:53:51.95Z</time></trkpt><trkpt lat="41.798843" lon="13.3162727"><ele>597.2</ele><time>2026-04-26T13:53:52.955Z</time></trkpt><trkpt lat="41.7988603" lon="13.3161652"><ele>599.8</ele><time>2026-04-26T13:53:53.955Z</time></trkpt><trkpt lat="41.7988583" lon="13.3160519"><ele>602.4</ele><time>2026-04-26T13:53:54.949Z</time></trkpt><trkpt lat="41.7988185" lon="13.3159234"><ele>605.0</ele><time>2026-04-26T13:53:55.945Z</time></trkpt><trkpt lat="41.7987694" lon="13.3157883"><ele>605.0</ele><time>2026-04-26T13:53:56.947Z</time></trkpt><trkpt lat="41.798712" lon="13.3156356"><ele>605.0</ele><time>2026-04-26T13:53:57.958Z</time></trkpt><trkpt lat="41.7986664" lon="13.3154867"><ele>605.0</ele><time>2026-04-26T13:53:58.952Z</time></trkpt><trkpt lat="41.7986086" lon="13.3153294"><ele>605.0</ele><time>2026-04-26T13:53:59.962Z</time></trkpt><trkpt lat="41.7985518" lon="13.3151802"><ele>604.4</ele><time>2026-04-26T13:54:00.955Z</time></trkpt><trkpt lat="41.7984964" lon="13.3150285"><ele>603.8</ele><time>2026-04-26T13:54:01.957Z</time></trkpt><trkpt lat="41.7984483" lon="13.3148923"><ele>603.2</ele><time>2026-04-26T13:54:02.955Z</time></trkpt><trkpt lat="41.7984213" lon="13.3147834"><ele>602.6</ele><time>2026-04-26T13:54:03.957Z</time></trkpt><trkpt lat="41.7984252" lon="13.3146962"><ele>602.0</ele><time>2026-04-26T13:54:04.957Z</time></trkpt><trkpt lat="41.798504" lon="13.3146354"><ele>605.4</ele><time>2026-04-26T13:54:06.958Z</time></trkpt><trkpt lat="41.7986021" lon="13.3147128"><ele>608.8000000000001</ele><time>2026-04-26T13:54:08.955Z</time></trkpt><trkpt lat="41.798649" lon="13.3147895"><ele>612.2</ele><time>2026-04-26T13:54:09.96Z</time></trkpt><trkpt lat="41.7986954" lon="13.3148779"><ele>615.6</ele><time>2026-04-26T13:54:10.955Z</time></trkpt><trkpt lat="41.7987442" lon="13.3149854"><ele>619.0</ele><time>2026-04-26T13:54:11.966Z</time></trkpt><trkpt lat="41.7988027" lon="13.3150861"><ele>619.0</ele><time>2026-04-26T13:54:12.943Z</time></trkpt><trkpt lat="41.7988669" lon="13.3151833"><ele>619.0</ele><time>2026-04-26T13:54:13.951Z</time></trkpt><trkpt lat="41.7989323" lon="13.315293"><ele>619.0</ele><time>2026-04-26T13:54:14.965Z</time></trkpt><trkpt lat="41.799016" lon="13.3154041"><ele>619.0</ele><time>2026-04-26T13:54:15.948Z</time></trkpt><trkpt lat="41.7991131" lon="13.315503"><ele>619.0</ele><time>2026-04-26T13:54:16.952Z</time></trkpt><trkpt lat="41.7992202" lon="13.3155839"><ele>621.75</ele><time>2026-04-26T13:54:17.948Z</time></trkpt><trkpt lat="41.7993381" lon="13.3156584"><ele>624.5</ele><time>2026-04-26T13:54:18.948Z</time></trkpt><trkpt lat="41.7994603" lon="13.3157323"><ele>627.25</ele><time>2026-04-26T13:54:19.957Z</time></trkpt><trkpt lat="41.7995809" lon="13.315805"><ele>630.0</ele><time>2026-04-26T13:54:20.951Z</time></trkpt><trkpt lat="41.7996951" lon="13.3158843"><ele>630.0</ele><time>2026-04-26T13:54:21.947Z</time></trkpt><trkpt lat="41.7998072" lon="13.3159669"><ele>630.0</ele><time>2026-04-26T13:54:22.943Z</time></trkpt><trkpt lat="41.7998945" lon="13.3161005"><ele>630.0</ele><time>2026-04-26T13:54:23.953Z</time></trkpt><trkpt lat="41.7999747" lon="13.3162393"><ele>630.0</ele><time>2026-04-26T13:54:24.963Z</time></trkpt><trkpt lat="41.8000519" lon="13.3163867"><ele>633.25</ele><time>2026-04-26T13:54:25.96Z</time></trkpt><trkpt lat="41.8001289" lon="13.3165275"><ele>636.5</ele><time>2026-04-26T13:54:26.95Z</time></trkpt><trkpt lat="41.8002043" lon="13.3166717"><ele>639.75</ele><time>2026-04-26T13:54:27.95Z</time></trkpt><trkpt lat="41.8002712" lon="13.316812"><ele>643.0</ele><time>2026-04-26T13:54:28.957Z</time></trkpt><trkpt lat="41.8003332" lon="13.3169326"><ele>643.0</ele><time>2026-04-26T13:54:29.95Z</time></trkpt><trkpt lat="41.8003974" lon="13.3170173"><ele>643.0</ele><time>2026-04-26T13:54:30.96Z</time></trkpt><trkpt lat="41.8004677" lon="13.3170508"><ele>643.0</ele><time>2026-04-26T13:54:31.96Z</time></trkpt><trkpt lat="41.8005709" lon="13.3170015"><ele>643.0</ele><time>2026-04-26T13:54:33.944Z</time></trkpt><trkpt lat="41.8005684" lon="13.3169152"><ele>643.0</ele><time>2026-04-26T13:54:34.947Z</time></trkpt><trkpt lat="41.8005359" lon="13.3168195"><ele>643.0</ele><time>2026-04-26T13:54:35.946Z</time></trkpt><trkpt lat="41.8004918" lon="13.3167084"><ele>643.0</ele><time>2026-04-26T13:54:36.96Z</time></trkpt><trkpt lat="41.8004398" lon="13.3165847"><ele>643.0</ele><time>2026-04-26T13:54:37.947Z</time></trkpt><trkpt lat="41.8003747" lon="13.3164562"><ele>643.0</ele><time>2026-04-26T13:54:38.958Z</time></trkpt><trkpt lat="41.8003026" lon="13.3163252"><ele>643.0</ele><time>2026-04-26T13:54:39.945Z</time></trkpt><trkpt lat="41.8002346" lon="13.3161771"><ele>639.75</ele><time>2026-04-26T13:54:40.949Z</time></trkpt><trkpt lat="41.8001668" lon="13.3160354"><ele>636.5</ele><time>2026-04-26T13:54:41.957Z</time></trkpt><trkpt lat="41.800097" lon="13.3158973"><ele>633.25</ele><time>2026-04-26T13:54:42.945Z</time></trkpt><trkpt lat="41.8000243" lon="13.315767"><ele>630.0</ele><time>2026-04-26T13:54:43.953Z</time></trkpt><trkpt lat="41.7999508" lon="13.3156405"><ele>633.5</ele><time>2026-04-26T13:54:44.949Z</time></trkpt><trkpt lat="41.7998814" lon="13.315509"><ele>637.0</ele><time>2026-04-26T13:54:45.946Z</time></trkpt><trkpt lat="41.7998192" lon="13.3153703"><ele>640.5</ele><time>2026-04-26T13:54:46.945Z</time></trkpt><trkpt lat="41.7997596" lon="13.315235"><ele>644.0</ele><time>2026-04-26T13:54:47.953Z</time></trkpt><trkpt lat="41.7997025" lon="13.3151015"><ele>644.0</ele><time>2026-04-26T13:54:48.947Z</time></trkpt><trkpt lat="41.7996573" lon="13.3149693"><ele>644.0</ele><time>2026-04-26T13:54:49.959Z</time></trkpt><trkpt lat="41.7996256" lon="13.3148293"><ele>644.0</ele><time>2026-04-26T13:54:50.964Z</time></trkpt><trkpt lat="41.7996032" lon="13.3146775"><ele>644.0</ele><time>2026-04-26T13:54:51.946Z</time></trkpt><trkpt lat="41.7995885" lon="13.3145187"><ele>645.0</ele><time>2026-04-26T13:54:52.961Z</time></trkpt><trkpt lat="41.799575" lon="13.3143563"><ele>646.0</ele><time>2026-04-26T13:54:53.954Z</time></trkpt><trkpt lat="41.7995621" lon="13.3141986"><ele>647.0</ele><time>2026-04-26T13:54:54.951Z</time></trkpt><trkpt lat="41.7995494" lon="13.314058"><ele>648.0</ele><time>2026-04-26T13:54:55.965Z</time></trkpt><trkpt lat="41.7995383" lon="13.3139359"><ele>649.0</ele><time>2026-04-26T13:54:56.965Z</time></trkpt><trkpt lat="41.7995268" lon="13.3138163"><ele>649.1666666666667</ele><time>2026-04-26T13:54:57.943Z</time></trkpt><trkpt lat="41.799514" lon="13.3136963"><ele>649.3333333333334</ele><time>2026-04-26T13:54:58.966Z</time></trkpt><trkpt lat="41.7995147" lon="13.3135796"><ele>649.5</ele><time>2026-04-26T13:54:59.954Z</time></trkpt><trkpt lat="41.7995086" lon="13.3134689"><ele>649.6666666666666</ele><time>2026-04-26T13:55:00.944Z</time></trkpt><trkpt lat="41.7995524" lon="13.3133919"><ele>649.8333333333333</ele><time>2026-04-26T13:55:01.955Z</time></trkpt><trkpt lat="41.7996506" lon="13.3133982"><ele>650.0</ele><time>2026-04-26T13:55:03.942Z</time></trkpt><trkpt lat="41.7997092" lon="13.3135403"><ele>650.0</ele><time>2026-04-26T13:55:05.956Z</time></trkpt><trkpt lat="41.79973" lon="13.3136401"><ele>650.0</ele><time>2026-04-26T13:55:06.949Z</time></trkpt><trkpt lat="41.7997498" lon="13.3137542"><ele>650.0</ele><time>2026-04-26T13:55:07.952Z</time></trkpt><trkpt lat="41.7997725" lon="13.3138682"><ele>650.0</ele><time>2026-04-26T13:55:08.954Z</time></trkpt><trkpt lat="41.7997902" lon="13.313977"><ele>650.0</ele><time>2026-04-26T13:55:09.943Z</time></trkpt><trkpt lat="41.799815" lon="13.3140689"><ele>650.0</ele><time>2026-04-26T13:55:10.94Z</time></trkpt><trkpt lat="41.799908" lon="13.3141755"><ele>650.0</ele><time>2026-04-26T13:55:12.944Z</time></trkpt><trkpt lat="41.799974" lon="13.3140675"><ele>650.0</ele><time>2026-04-26T13:55:14.949Z</time></trkpt><trkpt lat="41.7999486" lon="13.3138988"><ele>650.0</ele><time>2026-04-26T13:55:16.952Z</time></trkpt><trkpt lat="41.7999172" lon="13.3137949"><ele>650.0</ele><time>2026-04-26T13:55:17.948Z</time></trkpt><trkpt lat="41.7998876" lon="13.3136826"><ele>650.0</ele><time>2026-04-26T13:55:18.946Z</time></trkpt><trkpt lat="41.7998583" lon="13.3135586"><ele>650.0</ele><time>2026-04-26T13:55:19.946Z</time></trkpt><trkpt lat="41.7998234" lon="13.3134368"><ele>650.0</ele><time>2026-04-26T13:55:20.949Z</time></trkpt><trkpt lat="41.7997789" lon="13.3133254"><ele>650.0</ele><time>2026-04-26T13:55:21.961Z</time></trkpt><trkpt lat="41.7997244" lon="13.3132248"><ele>650.0</ele><time>2026-04-26T13:55:22.95Z</time></trkpt><trkpt lat="41.7996602" lon="13.3131395"><ele>650.0</ele><time>2026-04-26T13:55:23.951Z</time></trkpt><trkpt lat="41.7995881" lon="13.3130622"><ele>651.5</ele><time>2026-04-26T13:55:24.948Z</time></trkpt><trkpt lat="41.7995154" lon="13.3129921"><ele>653.0</ele><time>2026-04-26T13:55:25.943Z</time></trkpt><trkpt lat="41.7994498" lon="13.312925"><ele>654.5</ele><time>2026-04-26T13:55:26.952Z</time></trkpt><trkpt lat="41.7993966" lon="13.3128528"><ele>656.0</ele><time>2026-04-26T13:55:27.952Z</time></trkpt><trkpt lat="41.7993658" lon="13.3127722"><ele>657.5</ele><time>2026-04-26T13:55:28.944Z</time></trkpt><trkpt lat="41.7993399" lon="13.3126309"><ele>659.0</ele><time>2026-04-26T13:55:30.95Z</time></trkpt><trkpt lat="41.7994022" lon="13.3124921"><ele>659.0</ele><time>2026-04-26T13:55:32.948Z</time></trkpt><trkpt lat="41.799436" lon="13.3124115"><ele>659.0</ele><time>2026-04-26T13:55:33.961Z</time></trkpt><trkpt lat="41.7994667" lon="13.3123294"><ele>659.0</ele><time>2026-04-26T13:55:34.942Z</time></trkpt><trkpt lat="41.7994975" lon="13.3122427"><ele>659.0</ele><time>2026-04-26T13:55:35.956Z</time></trkpt><trkpt lat="41.7995288" lon="13.312151"><ele>659.0</ele><time>2026-04-26T13:55:36.95Z</time></trkpt><trkpt lat="41.7995751" lon="13.312057"><ele>659.0</ele><time>2026-04-26T13:55:37.954Z</time></trkpt><trkpt lat="41.7996327" lon="13.3119756"><ele>658.0</ele><time>2026-04-26T13:55:38.943Z</time></trkpt><trkpt lat="41.7996975" lon="13.3119102"><ele>657.0</ele><time>2026-04-26T13:55:39.952Z</time></trkpt><trkpt lat="41.7997638" lon="13.3118435"><ele>656.0</ele><time>2026-04-26T13:55:40.95Z</time></trkpt><trkpt lat="41.7998274" lon="13.3117782"><ele>655.0</ele><time>2026-04-26T13:55:41.947Z</time></trkpt><trkpt lat="41.7998947" lon="13.3117143"><ele>654.0</ele><time>2026-04-26T13:55:42.949Z</time></trkpt><trkpt lat="41.7999792" lon="13.3116476"><ele>653.0</ele><time>2026-04-26T13:55:43.954Z</time></trkpt><trkpt lat="41.8000749" lon="13.3115702"><ele>656.25</ele><time>2026-04-26T13:55:44.952Z</time></trkpt><trkpt lat="41.8001754" lon="13.3114933"><ele>659.5</ele><time>2026-04-26T13:55:45.944Z</time></trkpt><trkpt lat="41.8002776" lon="13.3114141"><ele>662.75</ele><time>2026-04-26T13:55:46.947Z</time></trkpt><trkpt lat="41.8003753" lon="13.3113363"><ele>666.0</ele><time>2026-04-26T13:55:47.953Z</time></trkpt><trkpt lat="41.8004735" lon="13.3112462"><ele>666.0</ele><time>2026-04-26T13:55:48.941Z</time></trkpt><trkpt lat="41.800563" lon="13.3111411"><ele>666.0</ele><time>2026-04-26T13:55:49.955Z</time></trkpt><trkpt lat="41.8006457" lon="13.3110195"><ele>666.0</ele><time>2026-04-26T13:55:50.947Z</time></trkpt><trkpt lat="41.8007315" lon="13.3108942"><ele>666.0</ele><time>2026-04-26T13:55:51.943Z</time></trkpt><trkpt lat="41.8008153" lon="13.310755"><ele>666.0</ele><time>2026-04-26T13:55:52.95Z</time></trkpt><trkpt lat="41.800901" lon="13.3106111"><ele>666.0</ele><time>2026-04-26T13:55:53.963Z</time></trkpt><trkpt lat="41.8009865" lon="13.3104656"><ele>666.0</ele><time>2026-04-26T13:55:54.951Z</time></trkpt><trkpt lat="41.8010749" lon="13.3103219"><ele>666.0</ele><time>2026-04-26T13:55:55.952Z</time></trkpt><trkpt lat="41.8011668" lon="13.3101834"><ele>665.25</ele><time>2026-04-26T13:55:56.945Z</time></trkpt><trkpt lat="41.8012597" lon="13.3100554"><ele>664.5</ele><time>2026-04-26T13:55:57.963Z</time></trkpt><trkpt lat="41.8013549" lon="13.3099338"><ele>663.75</ele><time>2026-04-26T13:55:58.949Z</time></trkpt><trkpt lat="41.8014448" lon="13.3098096"><ele>663.0</ele><time>2026-04-26T13:55:59.953Z</time></trkpt><trkpt lat="41.8015257" lon="13.309679"><ele>663.0</ele><time>2026-04-26T13:56:00.949Z</time></trkpt><trkpt lat="41.8016006" lon="13.3095471"><ele>663.0</ele><time>2026-04-26T13:56:01.954Z</time></trkpt><trkpt lat="41.8016697" lon="13.3094143"><ele>663.0</ele><time>2026-04-26T13:56:02.947Z</time></trkpt><trkpt lat="41.8017213" lon="13.3092784"><ele>663.0</ele><time>2026-04-26T13:56:03.954Z</time></trkpt><trkpt lat="41.8017556" lon="13.3091437"><ele>663.0</ele><time>2026-04-26T13:56:04.946Z</time></trkpt><trkpt lat="41.8017704" lon="13.309005"><ele>663.0</ele><time>2026-04-26T13:56:05.954Z</time></trkpt><trkpt lat="41.801785" lon="13.3088754"><ele>663.0</ele><time>2026-04-26T13:56:06.956Z</time></trkpt><trkpt lat="41.8018216" lon="13.3087642"><ele>663.0</ele><time>2026-04-26T13:56:07.96Z</time></trkpt><trkpt lat="41.8018798" lon="13.308661"><ele>663.0</ele><time>2026-04-26T13:56:08.948Z</time></trkpt><trkpt lat="41.8019576" lon="13.3085406"><ele>669.0</ele><time>2026-04-26T13:56:09.957Z</time></trkpt><trkpt lat="41.8020439" lon="13.3084174"><ele>675.0</ele><time>2026-04-26T13:56:10.952Z</time></trkpt><trkpt lat="41.8021256" lon="13.3082959"><ele>681.0</ele><time>2026-04-26T13:56:11.94Z</time></trkpt><trkpt lat="41.8021965" lon="13.3081701"><ele>687.0</ele><time>2026-04-26T13:56:12.954Z</time></trkpt><trkpt lat="41.8022352" lon="13.3080339"><ele>687.0</ele><time>2026-04-26T13:56:13.949Z</time></trkpt><trkpt lat="41.8022366" lon="13.3078923"><ele>687.0</ele><time>2026-04-26T13:56:14.947Z</time></trkpt><trkpt lat="41.8022289" lon="13.3077519"><ele>687.0</ele><time>2026-04-26T13:56:15.954Z</time></trkpt><trkpt lat="41.802238" lon="13.3076014"><ele>687.0</ele><time>2026-04-26T13:56:16.946Z</time></trkpt><trkpt lat="41.8022673" lon="13.3074459"><ele>687.0</ele><time>2026-04-26T13:56:17.958Z</time></trkpt><trkpt lat="41.8023159" lon="13.3072929"><ele>683.0</ele><time>2026-04-26T13:56:18.948Z</time></trkpt><trkpt lat="41.8023856" lon="13.3071458"><ele>679.0</ele><time>2026-04-26T13:56:19.942Z</time></trkpt><trkpt lat="41.8024761" lon="13.3070047"><ele>675.0</ele><time>2026-04-26T13:56:20.945Z</time></trkpt><trkpt lat="41.8025801" lon="13.3068624"><ele>671.0</ele><time>2026-04-26T13:56:21.947Z</time></trkpt><trkpt lat="41.8026839" lon="13.3067176"><ele>678.5</ele><time>2026-04-26T13:56:22.944Z</time></trkpt><trkpt lat="41.8027835" lon="13.306571"><ele>686.0</ele><time>2026-04-26T13:56:23.951Z</time></trkpt><trkpt lat="41.8028786" lon="13.3064311"><ele>693.5</ele><time>2026-04-26T13:56:24.945Z</time></trkpt><trkpt lat="41.8029401" lon="13.3062574"><ele>701.0</ele><time>2026-04-26T13:56:25.945Z</time></trkpt><trkpt lat="41.8029768" lon="13.306063"><ele>701.0</ele><time>2026-04-26T13:56:26.948Z</time></trkpt><trkpt lat="41.8030119" lon="13.3058737"><ele>701.0</ele><time>2026-04-26T13:56:27.947Z</time></trkpt><trkpt lat="41.8030313" lon="13.3056902"><ele>701.0</ele><time>2026-04-26T13:56:28.956Z</time></trkpt><trkpt lat="41.8030792" lon="13.3055259"><ele>701.0</ele><time>2026-04-26T13:56:29.936Z</time></trkpt><trkpt lat="41.8031578" lon="13.3053908"><ele>697.75</ele><time>2026-04-26T13:56:30.961Z</time></trkpt><trkpt lat="41.8032564" lon="13.3052856"><ele>694.5</ele><time>2026-04-26T13:56:31.952Z</time></trkpt><trkpt lat="41.8033515" lon="13.3051804"><ele>691.25</ele><time>2026-04-26T13:56:32.954Z</time></trkpt><trkpt lat="41.8034176" lon="13.305047"><ele>688.0</ele><time>2026-04-26T13:56:33.944Z</time></trkpt><trkpt lat="41.8034585" lon="13.3048931"><ele>693.5</ele><time>2026-04-26T13:56:34.94Z</time></trkpt><trkpt lat="41.8035078" lon="13.3047376"><ele>699.0</ele><time>2026-04-26T13:56:35.947Z</time></trkpt><trkpt lat="41.8035742" lon="13.3045859"><ele>704.5</ele><time>2026-04-26T13:56:36.94Z</time></trkpt><trkpt lat="41.8036553" lon="13.3044363"><ele>710.0</ele><time>2026-04-26T13:56:37.944Z</time></trkpt><trkpt lat="41.8037522" lon="13.3042769"><ele>710.0</ele><time>2026-04-26T13:56:38.958Z</time></trkpt><trkpt lat="41.8038679" lon="13.3041171"><ele>710.0</ele><time>2026-04-26T13:56:39.956Z</time></trkpt><trkpt lat="41.8039978" lon="13.3039596"><ele>710.0</ele><time>2026-04-26T13:56:40.952Z</time></trkpt><trkpt lat="41.8041317" lon="13.3038071"><ele>716.3333333333333</ele><time>2026-04-26T13:56:41.951Z</time></trkpt><trkpt lat="41.8042615" lon="13.3036663"><ele>722.6666666666666</ele><time>2026-04-26T13:56:42.955Z</time></trkpt><trkpt lat="41.8043855" lon="13.303541"><ele>729.0</ele><time>2026-04-26T13:56:43.952Z</time></trkpt><trkpt lat="41.8044929" lon="13.3034321"><ele>729.0</ele><time>2026-04-26T13:56:44.948Z</time></trkpt><trkpt lat="41.8045746" lon="13.3033278"><ele>729.0</ele><time>2026-04-26T13:56:45.941Z</time></trkpt><trkpt lat="41.8046135" lon="13.3032061"><ele>729.0</ele><time>2026-04-26T13:56:46.942Z</time></trkpt><trkpt lat="41.8046417" lon="13.3030767"><ele>729.0</ele><time>2026-04-26T13:56:47.947Z</time></trkpt><trkpt lat="41.8046403" lon="13.3029208"><ele>729.0</ele><time>2026-04-26T13:56:48.952Z</time></trkpt><trkpt lat="41.8046439" lon="13.3027288"><ele>728.0</ele><time>2026-04-26T13:56:49.942Z</time></trkpt><trkpt lat="41.8046747" lon="13.3024978"><ele>727.0</ele><time>2026-04-26T13:56:50.955Z</time></trkpt><trkpt lat="41.8047025" lon="13.302245"><ele>726.0</ele><time>2026-04-26T13:56:51.939Z</time></trkpt><trkpt lat="41.8047291" lon="13.3019958"><ele>725.0</ele><time>2026-04-26T13:56:52.939Z</time></trkpt><trkpt lat="41.8047552" lon="13.301749"><ele>724.0</ele><time>2026-04-26T13:56:53.958Z</time></trkpt><trkpt lat="41.80479" lon="13.3014994"><ele>723.0</ele><time>2026-04-26T13:56:54.959Z</time></trkpt><trkpt lat="41.8048327" lon="13.3012561"><ele>720.3333333333334</ele><time>2026-04-26T13:56:55.945Z</time></trkpt><trkpt lat="41.80488" lon="13.3010218"><ele>717.6666666666667</ele><time>2026-04-26T13:56:56.951Z</time></trkpt><trkpt lat="41.8049405" lon="13.3007807"><ele>715.0</ele><time>2026-04-26T13:56:57.947Z</time></trkpt><trkpt lat="41.8050075" lon="13.3005345"><ele>712.3333333333334</ele><time>2026-04-26T13:56:58.942Z</time></trkpt><trkpt lat="41.8050821" lon="13.3002841"><ele>709.6666666666666</ele><time>2026-04-26T13:56:59.947Z</time></trkpt><trkpt lat="41.8051623" lon="13.3000394"><ele>707.0</ele><time>2026-04-26T13:57:00.942Z</time></trkpt><trkpt lat="41.8052437" lon="13.2997983"><ele>720.3333333333333</ele><time>2026-04-26T13:57:01.947Z</time></trkpt><trkpt lat="41.8053269" lon="13.2995636"><ele>733.6666666666666</ele><time>2026-04-26T13:57:02.945Z</time></trkpt><trkpt lat="41.8054228" lon="13.2993348"><ele>747.0</ele><time>2026-04-26T13:57:03.943Z</time></trkpt><trkpt lat="41.8055262" lon="13.2991107"><ele>741.3333333333334</ele><time>2026-04-26T13:57:04.95Z</time></trkpt><trkpt lat="41.8056193" lon="13.2988747"><ele>735.6666666666667</ele><time>2026-04-26T13:57:05.943Z</time></trkpt><trkpt lat="41.8057104" lon="13.2986422"><ele>730.0</ele><time>2026-04-26T13:57:06.95Z</time></trkpt><trkpt lat="41.8057887" lon="13.2983962"><ele>730.0</ele><time>2026-04-26T13:57:07.942Z</time></trkpt><trkpt lat="41.8058712" lon="13.2981475"><ele>730.0</ele><time>2026-04-26T13:57:08.982Z</time></trkpt><trkpt lat="41.8059569" lon="13.2979059"><ele>730.0</ele><time>2026-04-26T13:57:09.94Z</time></trkpt><trkpt lat="41.8060336" lon="13.2976634"><ele>738.3333333333334</ele><time>2026-04-26T13:57:10.946Z</time></trkpt><trkpt lat="41.8060963" lon="13.2974178"><ele>746.6666666666666</ele><time>2026-04-26T13:57:11.951Z</time></trkpt><trkpt lat="41.8061455" lon="13.2971717"><ele>755.0</ele><time>2026-04-26T13:57:12.948Z</time></trkpt><trkpt lat="41.8061988" lon="13.2969359"><ele>755.0</ele><time>2026-04-26T13:57:13.942Z</time></trkpt><trkpt lat="41.8062615" lon="13.2967123"><ele>755.0</ele><time>2026-04-26T13:57:14.951Z</time></trkpt><trkpt lat="41.8063129" lon="13.2964968"><ele>755.0</ele><time>2026-04-26T13:57:15.946Z</time></trkpt><trkpt lat="41.8063367" lon="13.2962803"><ele>751.0</ele><time>2026-04-26T13:57:16.95Z</time></trkpt><trkpt lat="41.8063413" lon="13.296069"><ele>747.0</ele><time>2026-04-26T13:57:17.95Z</time></trkpt><trkpt lat="41.8063499" lon="13.2958646"><ele>743.0</ele><time>2026-04-26T13:57:18.944Z</time></trkpt><trkpt lat="41.8063761" lon="13.2956719"><ele>743.0</ele><time>2026-04-26T13:57:19.947Z</time></trkpt><trkpt lat="41.8064152" lon="13.2955026"><ele>743.0</ele><time>2026-04-26T13:57:20.963Z</time></trkpt><trkpt lat="41.8064751" lon="13.2953567"><ele>743.0</ele><time>2026-04-26T13:57:21.947Z</time></trkpt><trkpt lat="41.8065512" lon="13.2952321"><ele>743.0</ele><time>2026-04-26T13:57:22.944Z</time></trkpt><trkpt lat="41.8066133" lon="13.2951053"><ele>743.0</ele><time>2026-04-26T13:57:23.949Z</time></trkpt><trkpt lat="41.8066636" lon="13.294985"><ele>743.0</ele><time>2026-04-26T13:57:24.958Z</time></trkpt><trkpt lat="41.8066345" lon="13.2948398"><ele>743.0</ele><time>2026-04-26T13:57:25.94Z</time></trkpt><trkpt lat="41.8066169" lon="13.294687"><ele>743.0</ele><time>2026-04-26T13:57:26.95Z</time></trkpt><trkpt lat="41.8065964" lon="13.2945252"><ele>742.25</ele><time>2026-04-26T13:57:27.956Z</time></trkpt><trkpt lat="41.8066" lon="13.2943226"><ele>741.5</ele><time>2026-04-26T13:57:28.947Z</time></trkpt><trkpt lat="41.8066275" lon="13.2941392"><ele>740.75</ele><time>2026-04-26T13:57:29.947Z</time></trkpt><trkpt lat="41.8066821" lon="13.2939583"><ele>740.0</ele><time>2026-04-26T13:57:30.946Z</time></trkpt><trkpt lat="41.8067453" lon="13.2937828"><ele>738.5</ele><time>2026-04-26T13:57:31.955Z</time></trkpt><trkpt lat="41.8068201" lon="13.2936283"><ele>737.0</ele><time>2026-04-26T13:57:32.956Z</time></trkpt><trkpt lat="41.8069142" lon="13.2934911"><ele>735.5</ele><time>2026-04-26T13:57:33.958Z</time></trkpt><trkpt lat="41.8070157" lon="13.2933564"><ele>734.0</ele><time>2026-04-26T13:57:34.953Z</time></trkpt><trkpt lat="41.8071587" lon="13.2932562"><ele>736.0</ele><time>2026-04-26T13:57:35.952Z</time></trkpt><trkpt lat="41.8073088" lon="13.2931602"><ele>738.0</ele><time>2026-04-26T13:57:36.955Z</time></trkpt><trkpt lat="41.8074641" lon="13.293053"><ele>740.0</ele><time>2026-04-26T13:57:37.956Z</time></trkpt><trkpt lat="41.8076367" lon="13.2929424"><ele>745.3333333333333</ele><time>2026-04-26T13:57:38.954Z</time></trkpt><trkpt lat="41.8078069" lon="13.2928417"><ele>750.6666666666666</ele><time>2026-04-26T13:57:39.948Z</time></trkpt><trkpt lat="41.8079671" lon="13.2927413"><ele>756.0</ele><time>2026-04-26T13:57:40.952Z</time></trkpt><trkpt lat="41.8081225" lon="13.2926399"><ele>756.0</ele><time>2026-04-26T13:57:41.947Z</time></trkpt><trkpt lat="41.8082631" lon="13.2925362"><ele>756.0</ele><time>2026-04-26T13:57:42.958Z</time></trkpt><trkpt lat="41.8083834" lon="13.2924314"><ele>756.0</ele><time>2026-04-26T13:57:43.94Z</time></trkpt><trkpt lat="41.8084671" lon="13.2923038"><ele>756.0</ele><time>2026-04-26T13:57:44.958Z</time></trkpt><trkpt lat="41.8085095" lon="13.2921682"><ele>756.3333333333334</ele><time>2026-04-26T13:57:45.97Z</time></trkpt><trkpt lat="41.8085027" lon="13.2920381"><ele>756.6666666666666</ele><time>2026-04-26T13:57:46.958Z</time></trkpt><trkpt lat="41.8084633" lon="13.2919452"><ele>757.0</ele><time>2026-04-26T13:57:47.94Z</time></trkpt><trkpt lat="41.8084062" lon="13.2918849"><ele>757.3333333333333</ele><time>2026-04-26T13:57:48.959Z</time></trkpt><trkpt lat="41.8083459" lon="13.2918253"><ele>757.6666666666666</ele><time>2026-04-26T13:57:49.955Z</time></trkpt><trkpt lat="41.808285" lon="13.2917561"><ele>758.0</ele><time>2026-04-26T13:57:50.962Z</time></trkpt><trkpt lat="41.8082297" lon="13.2916746"><ele>758.0</ele><time>2026-04-26T13:57:51.954Z</time></trkpt><trkpt lat="41.8081826" lon="13.2915783"><ele>758.0</ele><time>2026-04-26T13:57:52.959Z</time></trkpt><trkpt lat="41.8081497" lon="13.291465"><ele>758.0</ele><time>2026-04-26T13:57:53.941Z</time></trkpt><trkpt lat="41.8081346" lon="13.2913426"><ele>758.0</ele><time>2026-04-26T13:57:54.951Z</time></trkpt><trkpt lat="41.8081397" lon="13.2912138"><ele>758.0</ele><time>2026-04-26T13:57:55.966Z</time></trkpt><trkpt lat="41.8081617" lon="13.2910826"><ele>758.4</ele><time>2026-04-26T13:57:56.941Z</time></trkpt><trkpt lat="41.8081994" lon="13.2909539"><ele>758.8</ele><time>2026-04-26T13:57:57.968Z</time></trkpt><trkpt lat="41.8082504" lon="13.2908317"><ele>759.2</ele><time>2026-04-26T13:57:58.958Z</time></trkpt><trkpt lat="41.8083178" lon="13.2907212"><ele>759.6</ele><time>2026-04-26T13:57:59.952Z</time></trkpt><trkpt lat="41.8084088" lon="13.2906252"><ele>760.0</ele><time>2026-04-26T13:58:00.948Z</time></trkpt><trkpt lat="41.8085249" lon="13.2905422"><ele>761.0</ele><time>2026-04-26T13:58:01.951Z</time></trkpt><trkpt lat="41.8086588" lon="13.290472"><ele>762.0</ele><time>2026-04-26T13:58:02.942Z</time></trkpt><trkpt lat="41.8087976" lon="13.2904145"><ele>763.0</ele><time>2026-04-26T13:58:03.957Z</time></trkpt><trkpt lat="41.8089358" lon="13.2903683"><ele>764.0</ele><time>2026-04-26T13:58:04.95Z</time></trkpt><trkpt lat="41.8090729" lon="13.290347"><ele>764.0</ele><time>2026-04-26T13:58:05.952Z</time></trkpt><trkpt lat="41.8092067" lon="13.2903651"><ele>764.0</ele><time>2026-04-26T13:58:06.943Z</time></trkpt><trkpt lat="41.8093374" lon="13.2903871"><ele>764.0</ele><time>2026-04-26T13:58:07.96Z</time></trkpt><trkpt lat="41.8094678" lon="13.2904419"><ele>764.0</ele><time>2026-04-26T13:58:08.954Z</time></trkpt><trkpt lat="41.8096054" lon="13.2904705"><ele>767.5</ele><time>2026-04-26T13:58:09.959Z</time></trkpt><trkpt lat="41.8097387" lon="13.2904683"><ele>771.0</ele><time>2026-04-26T13:58:10.94Z</time></trkpt><trkpt lat="41.8098687" lon="13.290463"><ele>774.5</ele><time>2026-04-26T13:58:11.948Z</time></trkpt><trkpt lat="41.8099888" lon="13.2904841"><ele>778.0</ele><time>2026-04-26T13:58:12.947Z</time></trkpt><trkpt lat="41.8100987" lon="13.2905384"><ele>781.0</ele><time>2026-04-26T13:58:13.953Z</time></trkpt><trkpt lat="41.8102052" lon="13.2906149"><ele>784.0</ele><time>2026-04-26T13:58:14.937Z</time></trkpt><trkpt lat="41.8103103" lon="13.2906948"><ele>787.0</ele><time>2026-04-26T13:58:15.944Z</time></trkpt><trkpt lat="41.8104272" lon="13.2907685"><ele>790.0</ele><time>2026-04-26T13:58:16.943Z</time></trkpt><trkpt lat="41.8105684" lon="13.2908237"><ele>790.0</ele><time>2026-04-26T13:58:17.952Z</time></trkpt><trkpt lat="41.8107065" lon="13.2908393"><ele>790.0</ele><time>2026-04-26T13:58:18.949Z</time></trkpt><trkpt lat="41.8108482" lon="13.2908779"><ele>790.0</ele><time>2026-04-26T13:58:19.941Z</time></trkpt><trkpt lat="41.8109861" lon="13.2909292"><ele>790.0</ele><time>2026-04-26T13:58:20.941Z</time></trkpt><trkpt lat="41.8111067" lon="13.2909952"><ele>791.4</ele><time>2026-04-26T13:58:21.949Z</time></trkpt><trkpt lat="41.8112174" lon="13.29107"><ele>792.8</ele><time>2026-04-26T13:58:22.952Z</time></trkpt><trkpt lat="41.8113095" lon="13.29108"><ele>794.2</ele><time>2026-04-26T13:58:23.948Z</time></trkpt><trkpt lat="41.8113707" lon="13.291025"><ele>795.6</ele><time>2026-04-26T13:58:24.954Z</time></trkpt><trkpt lat="41.8114031" lon="13.2908731"><ele>797.0</ele><time>2026-04-26T13:58:26.946Z</time></trkpt><trkpt lat="41.8113723" lon="13.2907658"><ele>797.0</ele><time>2026-04-26T13:58:27.948Z</time></trkpt><trkpt lat="41.8113086" lon="13.2906649"><ele>797.0</ele><time>2026-04-26T13:58:28.944Z</time></trkpt><trkpt lat="41.8112146" lon="13.2905749"><ele>797.0</ele><time>2026-04-26T13:58:29.955Z</time></trkpt><trkpt lat="41.811097" lon="13.2904864"><ele>797.0</ele><time>2026-04-26T13:58:30.951Z</time></trkpt><trkpt lat="41.810972" lon="13.2904206"><ele>798.75</ele><time>2026-04-26T13:58:31.944Z</time></trkpt><trkpt lat="41.8108432" lon="13.2903605"><ele>800.5</ele><time>2026-04-26T13:58:32.95Z</time></trkpt><trkpt lat="41.8107261" lon="13.2902858"><ele>802.25</ele><time>2026-04-26T13:58:33.945Z</time></trkpt><trkpt lat="41.810623" lon="13.2901854"><ele>804.0</ele><time>2026-04-26T13:58:34.952Z</time></trkpt><trkpt lat="41.8105262" lon="13.2900568"><ele>804.0</ele><time>2026-04-26T13:58:35.947Z</time></trkpt><trkpt lat="41.8104424" lon="13.2899106"><ele>804.0</ele><time>2026-04-26T13:58:36.952Z</time></trkpt><trkpt lat="41.8103673" lon="13.2897586"><ele>804.0</ele><time>2026-04-26T13:58:37.952Z</time></trkpt><trkpt lat="41.8102863" lon="13.2896158"><ele>804.0</ele><time>2026-04-26T13:58:38.94Z</time></trkpt><trkpt lat="41.8101883" lon="13.2895019"><ele>803.5</ele><time>2026-04-26T13:58:39.96Z</time></trkpt><trkpt lat="41.8100755" lon="13.2894298"><ele>803.0</ele><time>2026-04-26T13:58:40.953Z</time></trkpt><trkpt lat="41.8099534" lon="13.2893832"><ele>802.5</ele><time>2026-04-26T13:58:41.942Z</time></trkpt><trkpt lat="41.8098358" lon="13.2893358"><ele>802.0</ele><time>2026-04-26T13:58:42.951Z</time></trkpt><trkpt lat="41.8097241" lon="13.2892667"><ele>802.0</ele><time>2026-04-26T13:58:43.95Z</time></trkpt><trkpt lat="41.8096189" lon="13.2891715"><ele>802.0</ele><time>2026-04-26T13:58:44.945Z</time></trkpt><trkpt lat="41.8095303" lon="13.2890577"><ele>802.0</ele><time>2026-04-26T13:58:45.953Z</time></trkpt><trkpt lat="41.8094639" lon="13.2889346"><ele>802.0</ele><time>2026-04-26T13:58:46.953Z</time></trkpt><trkpt lat="41.8094289" lon="13.2888021"><ele>805.75</ele><time>2026-04-26T13:58:47.938Z</time></trkpt><trkpt lat="41.809413" lon="13.288672"><ele>809.5</ele><time>2026-04-26T13:58:48.953Z</time></trkpt><trkpt lat="41.8094423" lon="13.2885201"><ele>813.25</ele><time>2026-04-26T13:58:49.953Z</time></trkpt><trkpt lat="41.8094856" lon="13.2883513"><ele>817.0</ele><time>2026-04-26T13:58:50.939Z</time></trkpt><trkpt lat="41.8095556" lon="13.2881554"><ele>814.3333333333333</ele><time>2026-04-26T13:58:51.944Z</time></trkpt><trkpt lat="41.8096395" lon="13.2879393"><ele>811.6666666666667</ele><time>2026-04-26T13:58:52.951Z</time></trkpt><trkpt lat="41.8097393" lon="13.2877272"><ele>809.0</ele><time>2026-04-26T13:58:53.951Z</time></trkpt><trkpt lat="41.8098475" lon="13.2875132"><ele>809.0</ele><time>2026-04-26T13:58:54.947Z</time></trkpt><trkpt lat="41.8099578" lon="13.2873139"><ele>809.0</ele><time>2026-04-26T13:58:55.953Z</time></trkpt><trkpt lat="41.8100627" lon="13.2871187"><ele>809.0</ele><time>2026-04-26T13:58:56.952Z</time></trkpt><trkpt lat="41.8101468" lon="13.2869111"><ele>816.3333333333334</ele><time>2026-04-26T13:58:57.967Z</time></trkpt><trkpt lat="41.8102103" lon="13.2866947"><ele>823.6666666666667</ele><time>2026-04-26T13:58:58.948Z</time></trkpt><trkpt lat="41.8102647" lon="13.286483"><ele>831.0</ele><time>2026-04-26T13:58:59.939Z</time></trkpt><trkpt lat="41.8103243" lon="13.2862817"><ele>831.0</ele><time>2026-04-26T13:59:00.96Z</time></trkpt><trkpt lat="41.8103958" lon="13.2861008"><ele>831.0</ele><time>2026-04-26T13:59:01.952Z</time></trkpt><trkpt lat="41.8104673" lon="13.2859289"><ele>831.0</ele><time>2026-04-26T13:59:02.946Z</time></trkpt><trkpt lat="41.810532" lon="13.2857634"><ele>831.0</ele><time>2026-04-26T13:59:03.943Z</time></trkpt><trkpt lat="41.8105787" lon="13.2855946"><ele>827.75</ele><time>2026-04-26T13:59:04.943Z</time></trkpt><trkpt lat="41.8106144" lon="13.2854235"><ele>824.5</ele><time>2026-04-26T13:59:05.943Z</time></trkpt><trkpt lat="41.8106476" lon="13.2852472"><ele>821.25</ele><time>2026-04-26T13:59:06.944Z</time></trkpt><trkpt lat="41.8107017" lon="13.2850775"><ele>818.0</ele><time>2026-04-26T13:59:07.953Z</time></trkpt><trkpt lat="41.810775" lon="13.2849339"><ele>818.0</ele><time>2026-04-26T13:59:08.951Z</time></trkpt><trkpt lat="41.8108605" lon="13.2848037"><ele>818.0</ele><time>2026-04-26T13:59:09.95Z</time></trkpt><trkpt lat="41.810951" lon="13.2846875"><ele>818.0</ele><time>2026-04-26T13:59:10.943Z</time></trkpt><trkpt lat="41.81104" lon="13.2845787"><ele>818.0</ele><time>2026-04-26T13:59:11.965Z</time></trkpt><trkpt lat="41.8111294" lon="13.2844893"><ele>822.25</ele><time>2026-04-26T13:59:12.959Z</time></trkpt><trkpt lat="41.8112363" lon="13.2844159"><ele>826.5</ele><time>2026-04-26T13:59:13.955Z</time></trkpt><trkpt lat="41.8113493" lon="13.2843523"><ele>830.75</ele><time>2026-04-26T13:59:14.945Z</time></trkpt><trkpt lat="41.8114591" lon="13.284285"><ele>835.0</ele><time>2026-04-26T13:59:15.95Z</time></trkpt><trkpt lat="41.811554" lon="13.2841977"><ele>835.0</ele><time>2026-04-26T13:59:16.949Z</time></trkpt><trkpt lat="41.8116387" lon="13.2841095"><ele>835.0</ele><time>2026-04-26T13:59:17.953Z</time></trkpt><trkpt lat="41.8116786" lon="13.2839805"><ele>835.0</ele><time>2026-04-26T13:59:18.947Z</time></trkpt><trkpt lat="41.8117033" lon="13.2838415"><ele>835.0</ele><time>2026-04-26T13:59:19.955Z</time></trkpt><trkpt lat="41.8117304" lon="13.2837005"><ele>835.0</ele><time>2026-04-26T13:59:20.957Z</time></trkpt><trkpt lat="41.8117797" lon="13.283572"><ele>839.0</ele><time>2026-04-26T13:59:21.954Z</time></trkpt><trkpt lat="41.8118452" lon="13.283453"><ele>843.0</ele><time>2026-04-26T13:59:22.949Z</time></trkpt><trkpt lat="41.811922" lon="13.2833391"><ele>847.0</ele><time>2026-04-26T13:59:23.953Z</time></trkpt><trkpt lat="41.8120165" lon="13.2832406"><ele>851.0</ele><time>2026-04-26T13:59:24.948Z</time></trkpt><trkpt lat="41.8121189" lon="13.2831542"><ele>846.75</ele><time>2026-04-26T13:59:25.954Z</time></trkpt><trkpt lat="41.8122254" lon="13.2830578"><ele>842.5</ele><time>2026-04-26T13:59:26.953Z</time></trkpt><trkpt lat="41.8123247" lon="13.2829463"><ele>838.25</ele><time>2026-04-26T13:59:27.95Z</time></trkpt><trkpt lat="41.8124087" lon="13.2828271"><ele>834.0</ele><time>2026-04-26T13:59:28.954Z</time></trkpt><trkpt lat="41.8124834" lon="13.2827164"><ele>834.0</ele><time>2026-04-26T13:59:29.97Z</time></trkpt><trkpt lat="41.8125614" lon="13.2826327"><ele>834.0</ele><time>2026-04-26T13:59:30.949Z</time></trkpt><trkpt lat="41.8126413" lon="13.2825843"><ele>834.0</ele><time>2026-04-26T13:59:31.97Z</time></trkpt><trkpt lat="41.8127304" lon="13.2825701"><ele>834.0</ele><time>2026-04-26T13:59:32.963Z</time></trkpt><trkpt lat="41.8128268" lon="13.2825753"><ele>834.0</ele><time>2026-04-26T13:59:33.968Z</time></trkpt><trkpt lat="41.8129165" lon="13.282571"><ele>837.1666666666666</ele><time>2026-04-26T13:59:34.952Z</time></trkpt><trkpt lat="41.8129852" lon="13.2825273"><ele>840.3333333333333</ele><time>2026-04-26T13:59:35.97Z</time></trkpt><trkpt lat="41.8130247" lon="13.282458"><ele>843.5</ele><time>2026-04-26T13:59:36.943Z</time></trkpt><trkpt lat="41.8130156" lon="13.2823605"><ele>846.6666666666666</ele><time>2026-04-26T13:59:38.949Z</time></trkpt><trkpt lat="41.8129298" lon="13.2822736"><ele>849.8333333333333</ele><time>2026-04-26T13:59:40.962Z</time></trkpt><trkpt lat="41.8128413" lon="13.2821538"><ele>853.0</ele><time>2026-04-26T13:59:42.945Z</time></trkpt><trkpt lat="41.8128332" lon="13.2820453"><ele>854.0</ele><time>2026-04-26T13:59:43.958Z</time></trkpt><trkpt lat="41.8128522" lon="13.2819172"><ele>855.0</ele><time>2026-04-26T13:59:44.963Z</time></trkpt><trkpt lat="41.81288" lon="13.2817699"><ele>856.0</ele><time>2026-04-26T13:59:45.942Z</time></trkpt><trkpt lat="41.8129111" lon="13.2816057"><ele>857.0</ele><time>2026-04-26T13:59:46.963Z</time></trkpt><trkpt lat="41.8129498" lon="13.2814387"><ele>856.0</ele><time>2026-04-26T13:59:47.96Z</time></trkpt><trkpt lat="41.8130043" lon="13.2812668"><ele>855.0</ele><time>2026-04-26T13:59:48.95Z</time></trkpt><trkpt lat="41.8130676" lon="13.2810888"><ele>854.0</ele><time>2026-04-26T13:59:49.967Z</time></trkpt><trkpt lat="41.81313" lon="13.2809085"><ele>853.0</ele><time>2026-04-26T13:59:50.967Z</time></trkpt><trkpt lat="41.8131879" lon="13.2807271"><ele>852.0</ele><time>2026-04-26T13:59:51.946Z</time></trkpt><trkpt lat="41.813251" lon="13.2805515"><ele>851.0</ele><time>2026-04-26T13:59:52.954Z</time></trkpt><trkpt lat="41.8133152" lon="13.2803911"><ele>850.0</ele><time>2026-04-26T13:59:53.96Z</time></trkpt><trkpt lat="41.8133749" lon="13.2802512"><ele>849.0</ele><time>2026-04-26T13:59:54.951Z</time></trkpt><trkpt lat="41.813436" lon="13.2801385"><ele>851.0</ele><time>2026-04-26T13:59:55.943Z</time></trkpt><trkpt lat="41.8135116" lon="13.280073"><ele>853.0</ele><time>2026-04-26T13:59:56.945Z</time></trkpt><trkpt lat="41.8136043" lon="13.2800548"><ele>855.0000000000001</ele><time>2026-04-26T13:59:57.956Z</time></trkpt><trkpt lat="41.8137047" lon="13.2800633"><ele>857.0</ele><time>2026-04-26T13:59:58.944Z</time></trkpt><trkpt lat="41.8138191" lon="13.2800806"><ele>859.0</ele><time>2026-04-26T13:59:59.95Z</time></trkpt><trkpt lat="41.8139387" lon="13.2800911"><ele>859.0</ele><time>2026-04-26T14:00:00.952Z</time></trkpt><trkpt lat="41.8140585" lon="13.2800781"><ele>859.0</ele><time>2026-04-26T14:00:01.946Z</time></trkpt><trkpt lat="41.8141705" lon="13.2800288"><ele>859.0</ele><time>2026-04-26T14:00:02.962Z</time></trkpt><trkpt lat="41.8142757" lon="13.2799647"><ele>859.0</ele><time>2026-04-26T14:00:03.961Z</time></trkpt><trkpt lat="41.8143821" lon="13.2799115"><ele>860.0</ele><time>2026-04-26T14:00:04.943Z</time></trkpt><trkpt lat="41.8144978" lon="13.2798807"><ele>861.0</ele><time>2026-04-26T14:00:05.953Z</time></trkpt><trkpt lat="41.8146167" lon="13.2798721"><ele>862.0</ele><time>2026-04-26T14:00:06.949Z</time></trkpt><trkpt lat="41.8147319" lon="13.2798867"><ele>863.0</ele><time>2026-04-26T14:00:07.942Z</time></trkpt><trkpt lat="41.8148384" lon="13.279923"><ele>863.0</ele><time>2026-04-26T14:00:08.951Z</time></trkpt><trkpt lat="41.8149357" lon="13.279978"><ele>863.0</ele><time>2026-04-26T14:00:09.958Z</time></trkpt><trkpt lat="41.8150456" lon="13.280047"><ele>863.0</ele><time>2026-04-26T14:00:10.948Z</time></trkpt><trkpt lat="41.8151725" lon="13.2801085"><ele>863.0</ele><time>2026-04-26T14:00:11.95Z</time></trkpt><trkpt lat="41.8153113" lon="13.2801526"><ele>865.3333333333334</ele><time>2026-04-26T14:00:12.944Z</time></trkpt><trkpt lat="41.8154698" lon="13.2801857"><ele>867.6666666666667</ele><time>2026-04-26T14:00:13.952Z</time></trkpt><trkpt lat="41.8156413" lon="13.2802099"><ele>870.0</ele><time>2026-04-26T14:00:14.948Z</time></trkpt><trkpt lat="41.8158232" lon="13.2802224"><ele>872.0</ele><time>2026-04-26T14:00:15.942Z</time></trkpt><trkpt lat="41.8160111" lon="13.2802157"><ele>874.0</ele><time>2026-04-26T14:00:16.945Z</time></trkpt><trkpt lat="41.8162058" lon="13.2801872"><ele>876.0</ele><time>2026-04-26T14:00:17.957Z</time></trkpt><trkpt lat="41.8164073" lon="13.2801424"><ele>876.0</ele><time>2026-04-26T14:00:18.95Z</time></trkpt><trkpt lat="41.8166167" lon="13.2800909"><ele>876.0</ele><time>2026-04-26T14:00:19.952Z</time></trkpt><trkpt lat="41.8168338" lon="13.2800422"><ele>876.0</ele><time>2026-04-26T14:00:20.95Z</time></trkpt><trkpt lat="41.8170562" lon="13.2799987"><ele>878.5</ele><time>2026-04-26T14:00:21.958Z</time></trkpt><trkpt lat="41.8172798" lon="13.2799475"><ele>881.0</ele><time>2026-04-26T14:00:22.95Z</time></trkpt><trkpt lat="41.8175039" lon="13.279883"><ele>884.5</ele><time>2026-04-26T14:00:23.948Z</time></trkpt><trkpt lat="41.8177296" lon="13.2798153"><ele>888.0</ele><time>2026-04-26T14:00:24.955Z</time></trkpt><trkpt lat="41.8179552" lon="13.2797548"><ele>889.0</ele><time>2026-04-26T14:00:25.943Z</time></trkpt><trkpt lat="41.8181802" lon="13.2797041"><ele>890.0</ele><time>2026-04-26T14:00:26.942Z</time></trkpt><trkpt lat="41.8184043" lon="13.2796566"><ele>892.6666666666667</ele><time>2026-04-26T14:00:27.961Z</time></trkpt><trkpt lat="41.8186214" lon="13.2796058"><ele>895.3333333333333</ele><time>2026-04-26T14:00:28.954Z</time></trkpt><trkpt lat="41.8188325" lon="13.2795647"><ele>898.0</ele><time>2026-04-26T14:00:29.964Z</time></trkpt><trkpt lat="41.8190365" lon="13.2795391"><ele>898.0</ele><time>2026-04-26T14:00:30.956Z</time></trkpt><trkpt lat="41.819236" lon="13.2795255"><ele>898.0</ele><time>2026-04-26T14:00:31.942Z</time></trkpt><trkpt lat="41.8194286" lon="13.279502"><ele>898.0</ele><time>2026-04-26T14:00:32.949Z</time></trkpt><trkpt lat="41.8196076" lon="13.2794705"><ele>898.6666666666666</ele><time>2026-04-26T14:00:33.952Z</time></trkpt><trkpt lat="41.819772" lon="13.2794468"><ele>899.3333333333333</ele><time>2026-04-26T14:00:34.962Z</time></trkpt><trkpt lat="41.8199216" lon="13.2794457"><ele>900.0</ele><time>2026-04-26T14:00:35.951Z</time></trkpt><trkpt lat="41.8200635" lon="13.2794771"><ele>901.0</ele><time>2026-04-26T14:00:36.951Z</time></trkpt><trkpt lat="41.8202016" lon="13.279534"><ele>902.0</ele><time>2026-04-26T14:00:37.95Z</time></trkpt><trkpt lat="41.8203342" lon="13.2796096"><ele>903.0</ele><time>2026-04-26T14:00:38.953Z</time></trkpt><trkpt lat="41.8204555" lon="13.2796959"><ele>904.0</ele><time>2026-04-26T14:00:39.97Z</time></trkpt><trkpt lat="41.8205642" lon="13.2797771"><ele>903.9999999999999</ele><time>2026-04-26T14:00:40.954Z</time></trkpt><trkpt lat="41.8206582" lon="13.2798243"><ele>904.0</ele><time>2026-04-26T14:00:41.96Z</time></trkpt><trkpt lat="41.820729" lon="13.2798165"><ele>904.0</ele><time>2026-04-26T14:00:42.945Z</time></trkpt><trkpt lat="41.8207951" lon="13.2798089"><ele>904.0</ele><time>2026-04-26T14:00:43.956Z</time></trkpt><trkpt lat="41.820815" lon="13.2797015"><ele>903.9999999999999</ele><time>2026-04-26T14:00:44.951Z</time></trkpt><trkpt lat="41.820831" lon="13.2795762"><ele>904.0</ele><time>2026-04-26T14:00:45.948Z</time></trkpt><trkpt lat="41.8208593" lon="13.2794421"><ele>904.0</ele><time>2026-04-26T14:00:46.956Z</time></trkpt><trkpt lat="41.8209198" lon="13.279297"><ele>904.0</ele><time>2026-04-26T14:00:47.955Z</time></trkpt><trkpt lat="41.8210066" lon="13.2791471"><ele>904.0</ele><time>2026-04-26T14:00:48.95Z</time></trkpt><trkpt lat="41.8211107" lon="13.2789913"><ele>904.0</ele><time>2026-04-26T14:00:49.95Z</time></trkpt><trkpt lat="41.8212335" lon="13.2788368"><ele>906.3333333333333</ele><time>2026-04-26T14:00:50.954Z</time></trkpt><trkpt lat="41.8213696" lon="13.2786859"><ele>908.6666666666667</ele><time>2026-04-26T14:00:51.954Z</time></trkpt><trkpt lat="41.821511" lon="13.2785377"><ele>911.0</ele><time>2026-04-26T14:00:52.956Z</time></trkpt><trkpt lat="41.8216499" lon="13.2783927"><ele>911.0</ele><time>2026-04-26T14:00:53.943Z</time></trkpt><trkpt lat="41.8217854" lon="13.2782517"><ele>911.0</ele><time>2026-04-26T14:00:54.955Z</time></trkpt><trkpt lat="41.821903" lon="13.2781167"><ele>911.0</ele><time>2026-04-26T14:00:55.952Z</time></trkpt><trkpt lat="41.8220227" lon="13.2780168"><ele>912.75</ele><time>2026-04-26T14:00:56.939Z</time></trkpt><trkpt lat="41.8221366" lon="13.277926"><ele>914.5</ele><time>2026-04-26T14:00:57.954Z</time></trkpt><trkpt lat="41.8222377" lon="13.2778192"><ele>916.25</ele><time>2026-04-26T14:00:58.951Z</time></trkpt><trkpt lat="41.8223188" lon="13.2776842"><ele>918.0</ele><time>2026-04-26T14:00:59.984Z</time></trkpt><trkpt lat="41.8223847" lon="13.2775099"><ele>918.0</ele><time>2026-04-26T14:01:00.954Z</time></trkpt><trkpt lat="41.8224607" lon="13.2773191"><ele>918.0</ele><time>2026-04-26T14:01:01.951Z</time></trkpt><trkpt lat="41.8225547" lon="13.2771345"><ele>918.0</ele><time>2026-04-26T14:01:02.952Z</time></trkpt><trkpt lat="41.8226474" lon="13.2769422"><ele>922.3333333333333</ele><time>2026-04-26T14:01:03.955Z</time></trkpt><trkpt lat="41.8227196" lon="13.2767215"><ele>926.6666666666666</ele><time>2026-04-26T14:01:04.949Z</time></trkpt><trkpt lat="41.8227745" lon="13.2764693"><ele>931.0</ele><time>2026-04-26T14:01:05.958Z</time></trkpt><trkpt lat="41.8228261" lon="13.2761996"><ele>932.6666666666666</ele><time>2026-04-26T14:01:06.948Z</time></trkpt><trkpt lat="41.8228765" lon="13.2759332"><ele>934.3333333333333</ele><time>2026-04-26T14:01:07.95Z</time></trkpt><trkpt lat="41.822924" lon="13.275672"><ele>936.0</ele><time>2026-04-26T14:01:08.948Z</time></trkpt><trkpt lat="41.8229721" lon="13.2754229"><ele>936.0</ele><time>2026-04-26T14:01:09.943Z</time></trkpt><trkpt lat="41.8230213" lon="13.2751842"><ele>936.0</ele><time>2026-04-26T14:01:10.958Z</time></trkpt><trkpt lat="41.8230691" lon="13.274955"><ele>936.0</ele><time>2026-04-26T14:01:11.95Z</time></trkpt><trkpt lat="41.8231108" lon="13.2747252"><ele>936.6666666666667</ele><time>2026-04-26T14:01:12.945Z</time></trkpt><trkpt lat="41.8231362" lon="13.2744892"><ele>937.3333333333334</ele><time>2026-04-26T14:01:13.95Z</time></trkpt><trkpt lat="41.8231499" lon="13.2742504"><ele>938.0</ele><time>2026-04-26T14:01:14.946Z</time></trkpt><trkpt lat="41.8231575" lon="13.2740141"><ele>937.6666666666667</ele><time>2026-04-26T14:01:15.951Z</time></trkpt><trkpt lat="41.823169" lon="13.2737813"><ele>937.3333333333333</ele><time>2026-04-26T14:01:16.943Z</time></trkpt><trkpt lat="41.8231985" lon="13.2735567"><ele>937.0</ele><time>2026-04-26T14:01:17.945Z</time></trkpt><trkpt lat="41.8232446" lon="13.2733402"><ele>937.0</ele><time>2026-04-26T14:01:18.952Z</time></trkpt><trkpt lat="41.8233054" lon="13.2731284"><ele>937.0</ele><time>2026-04-26T14:01:19.964Z</time></trkpt><trkpt lat="41.8233794" lon="13.2729172"><ele>937.0</ele><time>2026-04-26T14:01:20.951Z</time></trkpt><trkpt lat="41.8234629" lon="13.2727066"><ele>938.3333333333333</ele><time>2026-04-26T14:01:21.945Z</time></trkpt><trkpt lat="41.8235557" lon="13.2724931"><ele>939.6666666666667</ele><time>2026-04-26T14:01:22.951Z</time></trkpt><trkpt lat="41.8236546" lon="13.2722852"><ele>941.0</ele><time>2026-04-26T14:01:23.945Z</time></trkpt><trkpt lat="41.8237536" lon="13.2720798"><ele>941.0</ele><time>2026-04-26T14:01:24.953Z</time></trkpt><trkpt lat="41.8238413" lon="13.2718698"><ele>941.0</ele><time>2026-04-26T14:01:25.951Z</time></trkpt><trkpt lat="41.8239162" lon="13.2716538"><ele>941.0</ele><time>2026-04-26T14:01:26.948Z</time></trkpt><trkpt lat="41.8239855" lon="13.2714367"><ele>943.0</ele><time>2026-04-26T14:01:27.96Z</time></trkpt><trkpt lat="41.8240504" lon="13.2712092"><ele>945.0</ele><time>2026-04-26T14:01:28.951Z</time></trkpt><trkpt lat="41.8241182" lon="13.2709599"><ele>947.0</ele><time>2026-04-26T14:01:29.942Z</time></trkpt><trkpt lat="41.824195" lon="13.2706982"><ele>948.3333333333334</ele><time>2026-04-26T14:01:30.947Z</time></trkpt><trkpt lat="41.8242772" lon="13.2704378"><ele>949.6666666666667</ele><time>2026-04-26T14:01:31.953Z</time></trkpt><trkpt lat="41.8243578" lon="13.2701784"><ele>951.0</ele><time>2026-04-26T14:01:32.954Z</time></trkpt><trkpt lat="41.824434" lon="13.2699196"><ele>953.6666666666667</ele><time>2026-04-26T14:01:33.955Z</time></trkpt><trkpt lat="41.8245028" lon="13.2696573"><ele>956.3333333333334</ele><time>2026-04-26T14:01:34.95Z</time></trkpt><trkpt lat="41.8245651" lon="13.2693921"><ele>959.0</ele><time>2026-04-26T14:01:35.952Z</time></trkpt><trkpt lat="41.8246224" lon="13.269125"><ele>957.6666666666667</ele><time>2026-04-26T14:01:36.95Z</time></trkpt><trkpt lat="41.8246723" lon="13.2688564"><ele>956.3333333333333</ele><time>2026-04-26T14:01:37.954Z</time></trkpt><trkpt lat="41.8247206" lon="13.2685935"><ele>955.0</ele><time>2026-04-26T14:01:38.944Z</time></trkpt><trkpt lat="41.8247675" lon="13.2683355"><ele>955.0</ele><time>2026-04-26T14:01:39.946Z</time></trkpt><trkpt lat="41.824824" lon="13.2680778"><ele>955.0</ele><time>2026-04-26T14:01:40.954Z</time></trkpt><trkpt lat="41.8248964" lon="13.267828"><ele>955.0</ele><time>2026-04-26T14:01:41.945Z</time></trkpt><trkpt lat="41.8249873" lon="13.2675895"><ele>955.0</ele><time>2026-04-26T14:01:42.955Z</time></trkpt><trkpt lat="41.8250897" lon="13.2673688"><ele>955.0</ele><time>2026-04-26T14:01:43.952Z</time></trkpt><trkpt lat="41.8251828" lon="13.267154"><ele>955.0</ele><time>2026-04-26T14:01:44.944Z</time></trkpt><trkpt lat="41.8252779" lon="13.2669797"><ele>954.6666666666666</ele><time>2026-04-26T14:01:45.952Z</time></trkpt><trkpt lat="41.8253459" lon="13.2667844"><ele>954.3333333333333</ele><time>2026-04-26T14:01:46.947Z</time></trkpt><trkpt lat="41.8253951" lon="13.2665767"><ele>954.0</ele><time>2026-04-26T14:01:47.944Z</time></trkpt><trkpt lat="41.8254449" lon="13.266362"><ele>954.0</ele><time>2026-04-26T14:01:48.949Z</time></trkpt><trkpt lat="41.8254937" lon="13.2661346"><ele>954.0</ele><time>2026-04-26T14:01:49.954Z</time></trkpt><trkpt lat="41.8255489" lon="13.265903"><ele>954.0</ele><time>2026-04-26T14:01:50.963Z</time></trkpt><trkpt lat="41.8256162" lon="13.2656631"><ele>952.6666666666667</ele><time>2026-04-26T14:01:51.952Z</time></trkpt><trkpt lat="41.8256825" lon="13.2654167"><ele>951.3333333333334</ele><time>2026-04-26T14:01:52.951Z</time></trkpt><trkpt lat="41.8257451" lon="13.2651779"><ele>950.0</ele><time>2026-04-26T14:01:53.97Z</time></trkpt><trkpt lat="41.8258046" lon="13.2649396"><ele>949.3333333333334</ele><time>2026-04-26T14:01:54.946Z</time></trkpt><trkpt lat="41.8258671" lon="13.2647112"><ele>948.6666666666667</ele><time>2026-04-26T14:01:55.949Z</time></trkpt><trkpt lat="41.8259344" lon="13.264493"><ele>948.0</ele><time>2026-04-26T14:01:56.947Z</time></trkpt><trkpt lat="41.8260174" lon="13.264291"><ele>948.3333333333333</ele><time>2026-04-26T14:01:57.966Z</time></trkpt><trkpt lat="41.8260956" lon="13.2640833"><ele>948.6666666666666</ele><time>2026-04-26T14:01:58.941Z</time></trkpt><trkpt lat="41.8261738" lon="13.2638798"><ele>949.0</ele><time>2026-04-26T14:01:59.944Z</time></trkpt><trkpt lat="41.8262477" lon="13.2636765"><ele>949.0</ele><time>2026-04-26T14:02:00.96Z</time></trkpt><trkpt lat="41.8263154" lon="13.2634718"><ele>949.0</ele><time>2026-04-26T14:02:01.956Z</time></trkpt><trkpt lat="41.8263774" lon="13.2632625"><ele>949.0</ele><time>2026-04-26T14:02:02.954Z</time></trkpt><trkpt lat="41.8264349" lon="13.2630519"><ele>947.0</ele><time>2026-04-26T14:02:03.966Z</time></trkpt><trkpt lat="41.8264928" lon="13.2628449"><ele>945.0</ele><time>2026-04-26T14:02:04.958Z</time></trkpt><trkpt lat="41.8265477" lon="13.2626357"><ele>943.0</ele><time>2026-04-26T14:02:05.948Z</time></trkpt><trkpt lat="41.8265952" lon="13.2624275"><ele>942.0</ele><time>2026-04-26T14:02:06.954Z</time></trkpt><trkpt lat="41.8266335" lon="13.2622143"><ele>941.0</ele><time>2026-04-26T14:02:07.948Z</time></trkpt><trkpt lat="41.8266675" lon="13.2620019"><ele>940.0</ele><time>2026-04-26T14:02:08.943Z</time></trkpt><trkpt lat="41.8266971" lon="13.2617928"><ele>940.0</ele><time>2026-04-26T14:02:09.947Z</time></trkpt><trkpt lat="41.826727" lon="13.2615845"><ele>940.0</ele><time>2026-04-26T14:02:10.946Z</time></trkpt><trkpt lat="41.8267597" lon="13.2613799"><ele>940.0</ele><time>2026-04-26T14:02:11.956Z</time></trkpt><trkpt lat="41.8267911" lon="13.2611806"><ele>939.75</ele><time>2026-04-26T14:02:12.95Z</time></trkpt><trkpt lat="41.8268196" lon="13.260987"><ele>939.5</ele><time>2026-04-26T14:02:13.95Z</time></trkpt><trkpt lat="41.8268491" lon="13.2608014"><ele>939.25</ele><time>2026-04-26T14:02:14.955Z</time></trkpt><trkpt lat="41.8268781" lon="13.2606211"><ele>939.0</ele><time>2026-04-26T14:02:15.953Z</time></trkpt><trkpt lat="41.8269113" lon="13.260449"><ele>939.0</ele><time>2026-04-26T14:02:16.945Z</time></trkpt><trkpt lat="41.826962" lon="13.2602899"><ele>939.0</ele><time>2026-04-26T14:02:17.96Z</time></trkpt><trkpt lat="41.8270382" lon="13.260153"><ele>939.0</ele><time>2026-04-26T14:02:18.955Z</time></trkpt><trkpt lat="41.8271304" lon="13.2600356"><ele>939.0</ele><time>2026-04-26T14:02:19.949Z</time></trkpt><trkpt lat="41.827226" lon="13.2599195"><ele>939.0</ele><time>2026-04-26T14:02:20.963Z</time></trkpt><trkpt lat="41.827322" lon="13.2598054"><ele>939.0</ele><time>2026-04-26T14:02:21.958Z</time></trkpt><trkpt lat="41.8274099" lon="13.2596851"><ele>939.0</ele><time>2026-04-26T14:02:22.949Z</time></trkpt><trkpt lat="41.8274884" lon="13.2595503"><ele>939.0</ele><time>2026-04-26T14:02:23.95Z</time></trkpt><trkpt lat="41.8275485" lon="13.2593899"><ele>941.3333333333333</ele><time>2026-04-26T14:02:24.951Z</time></trkpt><trkpt lat="41.8275922" lon="13.2592065"><ele>943.6666666666666</ele><time>2026-04-26T14:02:25.943Z</time></trkpt><trkpt lat="41.8276285" lon="13.2589966"><ele>946.0</ele><time>2026-04-26T14:02:26.962Z</time></trkpt><trkpt lat="41.8276605" lon="13.2587693"><ele>948.0</ele><time>2026-04-26T14:02:27.957Z</time></trkpt><trkpt lat="41.8276968" lon="13.258503"><ele>950.0</ele><time>2026-04-26T14:02:28.945Z</time></trkpt><trkpt lat="41.8277325" lon="13.258214"><ele>952.0</ele><time>2026-04-26T14:02:29.946Z</time></trkpt><trkpt lat="41.8277678" lon="13.25791"><ele>954.0</ele><time>2026-04-26T14:02:30.948Z</time></trkpt><trkpt lat="41.8278066" lon="13.2576141"><ele>956.0</ele><time>2026-04-26T14:02:31.949Z</time></trkpt><trkpt lat="41.8278462" lon="13.2573191"><ele>958.0</ele><time>2026-04-26T14:02:32.95Z</time></trkpt><trkpt lat="41.8278844" lon="13.2570319"><ele>958.0</ele><time>2026-04-26T14:02:33.957Z</time></trkpt><trkpt lat="41.8279188" lon="13.256746"><ele>958.0</ele><time>2026-04-26T14:02:34.949Z</time></trkpt><trkpt lat="41.8279594" lon="13.2564779"><ele>958.0</ele><time>2026-04-26T14:02:35.962Z</time></trkpt><trkpt lat="41.8279985" lon="13.2562196"><ele>955.6666666666666</ele><time>2026-04-26T14:02:36.952Z</time></trkpt><trkpt lat="41.8280313" lon="13.2559688"><ele>953.3333333333333</ele><time>2026-04-26T14:02:37.947Z</time></trkpt><trkpt lat="41.8280685" lon="13.2557338"><ele>951.0</ele><time>2026-04-26T14:02:38.945Z</time></trkpt><trkpt lat="41.8281138" lon="13.2555178"><ele>949.3333333333333</ele><time>2026-04-26T14:02:39.949Z</time></trkpt><trkpt lat="41.8281659" lon="13.255296"><ele>947.6666666666666</ele><time>2026-04-26T14:02:40.95Z</time></trkpt><trkpt lat="41.8282192" lon="13.2550653"><ele>946.0</ele><time>2026-04-26T14:02:41.959Z</time></trkpt><trkpt lat="41.8282783" lon="13.25483"><ele>945.3333333333333</ele><time>2026-04-26T14:02:42.953Z</time></trkpt><trkpt lat="41.8283398" lon="13.2545891"><ele>944.6666666666667</ele><time>2026-04-26T14:02:43.948Z</time></trkpt><trkpt lat="41.8284018" lon="13.2543526"><ele>944.0</ele><time>2026-04-26T14:02:44.951Z</time></trkpt><trkpt lat="41.8284617" lon="13.2541238"><ele>943.6666666666667</ele><time>2026-04-26T14:02:45.945Z</time></trkpt><trkpt lat="41.8285161" lon="13.2539125"><ele>943.3333333333333</ele><time>2026-04-26T14:02:46.946Z</time></trkpt><trkpt lat="41.8285725" lon="13.2537111"><ele>943.0</ele><time>2026-04-26T14:02:47.952Z</time></trkpt><trkpt lat="41.828648" lon="13.2535179"><ele>943.0</ele><time>2026-04-26T14:02:48.954Z</time></trkpt><trkpt lat="41.82875" lon="13.2533268"><ele>943.0</ele><time>2026-04-26T14:02:49.947Z</time></trkpt><trkpt lat="41.8288672" lon="13.2531269"><ele>943.0</ele><time>2026-04-26T14:02:50.944Z</time></trkpt><trkpt lat="41.8289931" lon="13.2529131"><ele>942.3333333333333</ele><time>2026-04-26T14:02:51.948Z</time></trkpt><trkpt lat="41.8291197" lon="13.2526976"><ele>941.6666666666667</ele><time>2026-04-26T14:02:52.96Z</time></trkpt><trkpt lat="41.8292448" lon="13.2524778"><ele>941.0</ele><time>2026-04-26T14:02:53.949Z</time></trkpt><trkpt lat="41.8293663" lon="13.2522617"><ele>941.0</ele><time>2026-04-26T14:02:54.952Z</time></trkpt><trkpt lat="41.8294878" lon="13.2520556"><ele>941.0</ele><time>2026-04-26T14:02:55.951Z</time></trkpt><trkpt lat="41.8296146" lon="13.2518682"><ele>941.0</ele><time>2026-04-26T14:02:56.959Z</time></trkpt><trkpt lat="41.8297473" lon="13.2517014"><ele>941.0</ele><time>2026-04-26T14:02:57.943Z</time></trkpt><trkpt lat="41.8298638" lon="13.2515466"><ele>941.0</ele><time>2026-04-26T14:02:58.96Z</time></trkpt><trkpt lat="41.8299582" lon="13.2513987"><ele>941.0</ele><time>2026-04-26T14:02:59.947Z</time></trkpt><trkpt lat="41.8300489" lon="13.2512701"><ele>941.0</ele><time>2026-04-26T14:03:00.947Z</time></trkpt><trkpt lat="41.8301543" lon="13.2511752"><ele>942.75</ele><time>2026-04-26T14:03:01.941Z</time></trkpt><trkpt lat="41.8302636" lon="13.251105"><ele>944.5</ele><time>2026-04-26T14:03:02.946Z</time></trkpt><trkpt lat="41.8303676" lon="13.2510242"><ele>946.25</ele><time>2026-04-26T14:03:03.948Z</time></trkpt><trkpt lat="41.8304256" lon="13.2508993"><ele>948.0</ele><time>2026-04-26T14:03:04.953Z</time></trkpt><trkpt lat="41.8304696" lon="13.2507621"><ele>948.0</ele><time>2026-04-26T14:03:05.961Z</time></trkpt><trkpt lat="41.8305259" lon="13.2506332"><ele>948.0</ele><time>2026-04-26T14:03:06.951Z</time></trkpt><trkpt lat="41.8306042" lon="13.2505289"><ele>948.0</ele><time>2026-04-26T14:03:07.949Z</time></trkpt><trkpt lat="41.8307045" lon="13.2504475"><ele>948.0</ele><time>2026-04-26T14:03:08.96Z</time></trkpt><trkpt lat="41.830823" lon="13.2503778"><ele>947.25</ele><time>2026-04-26T14:03:09.95Z</time></trkpt><trkpt lat="41.8309491" lon="13.2503184"><ele>946.5</ele><time>2026-04-26T14:03:10.949Z</time></trkpt><trkpt lat="41.8310787" lon="13.2502782"><ele>945.75</ele><time>2026-04-26T14:03:11.953Z</time></trkpt><trkpt lat="41.8312044" lon="13.2502581"><ele>945.0</ele><time>2026-04-26T14:03:12.947Z</time></trkpt><trkpt lat="41.8313221" lon="13.2502334"><ele>946.75</ele><time>2026-04-26T14:03:13.954Z</time></trkpt><trkpt lat="41.8314161" lon="13.2501618"><ele>948.5</ele><time>2026-04-26T14:03:14.945Z</time></trkpt><trkpt lat="41.8314725" lon="13.2500486"><ele>950.25</ele><time>2026-04-26T14:03:15.96Z</time></trkpt><trkpt lat="41.8314932" lon="13.2499053"><ele>952.0</ele><time>2026-04-26T14:03:16.952Z</time></trkpt><trkpt lat="41.8314757" lon="13.2497253"><ele>952.0</ele><time>2026-04-26T14:03:17.947Z</time></trkpt><trkpt lat="41.8314285" lon="13.2495345"><ele>952.0</ele><time>2026-04-26T14:03:18.96Z</time></trkpt><trkpt lat="41.8313764" lon="13.2493479"><ele>952.0</ele><time>2026-04-26T14:03:19.955Z</time></trkpt><trkpt lat="41.8313425" lon="13.2491627"><ele>952.0</ele><time>2026-04-26T14:03:20.941Z</time></trkpt><trkpt lat="41.8313442" lon="13.2489847"><ele>952.75</ele><time>2026-04-26T14:03:21.95Z</time></trkpt><trkpt lat="41.8313812" lon="13.2488233"><ele>953.5</ele><time>2026-04-26T14:03:22.958Z</time></trkpt><trkpt lat="41.8314526" lon="13.2486867"><ele>954.25</ele><time>2026-04-26T14:03:23.947Z</time></trkpt><trkpt lat="41.8315497" lon="13.2485766"><ele>955.0</ele><time>2026-04-26T14:03:24.957Z</time></trkpt><trkpt lat="41.8316631" lon="13.2484884"><ele>955.0</ele><time>2026-04-26T14:03:25.965Z</time></trkpt><trkpt lat="41.83178" lon="13.2484017"><ele>955.0</ele><time>2026-04-26T14:03:26.945Z</time></trkpt><trkpt lat="41.8318618" lon="13.2482854"><ele>955.0</ele><time>2026-04-26T14:03:27.968Z</time></trkpt><trkpt lat="41.8318919" lon="13.2481293"><ele>955.0</ele><time>2026-04-26T14:03:28.949Z</time></trkpt><trkpt lat="41.8319098" lon="13.2479561"><ele>957.0</ele><time>2026-04-26T14:03:29.955Z</time></trkpt><trkpt lat="41.831902" lon="13.2477906"><ele>959.0</ele><time>2026-04-26T14:03:30.946Z</time></trkpt><trkpt lat="41.8318991" lon="13.2476248"><ele>961.0</ele><time>2026-04-26T14:03:31.95Z</time></trkpt><trkpt lat="41.8319234" lon="13.247461"><ele>963.0</ele><time>2026-04-26T14:03:32.97Z</time></trkpt><trkpt lat="41.8319804" lon="13.247321"><ele>963.75</ele><time>2026-04-26T14:03:33.958Z</time></trkpt><trkpt lat="41.8320405" lon="13.2471843"><ele>964.5</ele><time>2026-04-26T14:03:34.946Z</time></trkpt><trkpt lat="41.8320796" lon="13.2470331"><ele>965.25</ele><time>2026-04-26T14:03:35.971Z</time></trkpt><trkpt lat="41.8320303" lon="13.2468866"><ele>966.0</ele><time>2026-04-26T14:03:36.956Z</time></trkpt><trkpt lat="41.8319858" lon="13.2467464"><ele>966.0</ele><time>2026-04-26T14:03:37.945Z</time></trkpt><trkpt lat="41.8319519" lon="13.2465955"><ele>966.0</ele><time>2026-04-26T14:03:38.953Z</time></trkpt><trkpt lat="41.831948" lon="13.2464324"><ele>966.0</ele><time>2026-04-26T14:03:39.964Z</time></trkpt><trkpt lat="41.8319542" lon="13.2462674"><ele>966.0</ele><time>2026-04-26T14:03:40.958Z</time></trkpt><trkpt lat="41.8319982" lon="13.2461124"><ele>967.0</ele><time>2026-04-26T14:03:41.945Z</time></trkpt><trkpt lat="41.8320132" lon="13.2459427"><ele>968.0</ele><time>2026-04-26T14:03:42.954Z</time></trkpt><trkpt lat="41.8319874" lon="13.245795"><ele>969.0</ele><time>2026-04-26T14:03:43.955Z</time></trkpt><trkpt lat="41.8319383" lon="13.2456586"><ele>970.0</ele><time>2026-04-26T14:03:44.96Z</time></trkpt><trkpt lat="41.8318448" lon="13.2455763"><ele>970.2</ele><time>2026-04-26T14:03:45.951Z</time></trkpt><trkpt lat="41.8317425" lon="13.2454958"><ele>970.4</ele><time>2026-04-26T14:03:46.956Z</time></trkpt><trkpt lat="41.8316698" lon="13.245398"><ele>970.5999999999999</ele><time>2026-04-26T14:03:47.966Z</time></trkpt><trkpt lat="41.8316363" lon="13.2452827"><ele>970.8</ele><time>2026-04-26T14:03:48.949Z</time></trkpt><trkpt lat="41.8316488" lon="13.2451738"><ele>971.0</ele><time>2026-04-26T14:03:49.945Z</time></trkpt><trkpt lat="41.8316994" lon="13.2450809"><ele>971.0</ele><time>2026-04-26T14:03:50.954Z</time></trkpt><trkpt lat="41.8317717" lon="13.2449919"><ele>971.0</ele><time>2026-04-26T14:03:51.958Z</time></trkpt><trkpt lat="41.8318577" lon="13.2448881"><ele>971.0</ele><time>2026-04-26T14:03:52.962Z</time></trkpt><trkpt lat="41.8319433" lon="13.2447581"><ele>971.0</ele><time>2026-04-26T14:03:53.95Z</time></trkpt><trkpt lat="41.8320232" lon="13.2446084"><ele>973.0</ele><time>2026-04-26T14:03:54.952Z</time></trkpt><trkpt lat="41.8321077" lon="13.2444551"><ele>975.0</ele><time>2026-04-26T14:03:55.96Z</time></trkpt><trkpt lat="41.8321936" lon="13.2442929"><ele>977.0</ele><time>2026-04-26T14:03:56.949Z</time></trkpt><trkpt lat="41.8322761" lon="13.2441389"><ele>979.0</ele><time>2026-04-26T14:03:57.955Z</time></trkpt><trkpt lat="41.8323703" lon="13.2440082"><ele>979.8000000000001</ele><time>2026-04-26T14:03:58.951Z</time></trkpt><trkpt lat="41.8324781" lon="13.2439144"><ele>980.6000000000001</ele><time>2026-04-26T14:03:59.95Z</time></trkpt><trkpt lat="41.8325819" lon="13.2438514"><ele>981.4</ele><time>2026-04-26T14:04:00.951Z</time></trkpt><trkpt lat="41.8326554" lon="13.2437807"><ele>982.2</ele><time>2026-04-26T14:04:01.948Z</time></trkpt><trkpt lat="41.8327148" lon="13.2437172"><ele>983.0</ele><time>2026-04-26T14:04:02.958Z</time></trkpt><trkpt lat="41.8326835" lon="13.2436163"><ele>983.0000000000001</ele><time>2026-04-26T14:04:03.957Z</time></trkpt><trkpt lat="41.8326285" lon="13.24353"><ele>983.0</ele><time>2026-04-26T14:04:04.952Z</time></trkpt><trkpt lat="41.8325534" lon="13.243454"><ele>983.0</ele><time>2026-04-26T14:04:05.961Z</time></trkpt><trkpt lat="41.8324727" lon="13.2433798"><ele>983.0</ele><time>2026-04-26T14:04:06.959Z</time></trkpt><trkpt lat="41.8324153" lon="13.2433021"><ele>983.0000000000001</ele><time>2026-04-26T14:04:07.946Z</time></trkpt><trkpt lat="41.8323957" lon="13.2432157"><ele>983.0</ele><time>2026-04-26T14:04:08.952Z</time></trkpt><trkpt lat="41.8324122" lon="13.2431212"><ele>983.5999999999999</ele><time>2026-04-26T14:04:09.946Z</time></trkpt><trkpt lat="41.8324475" lon="13.2430155"><ele>984.1999999999999</ele><time>2026-04-26T14:04:10.95Z</time></trkpt><trkpt lat="41.8324811" lon="13.2428854"><ele>984.8</ele><time>2026-04-26T14:04:11.943Z</time></trkpt><trkpt lat="41.8324986" lon="13.242739"><ele>985.4</ele><time>2026-04-26T14:04:12.948Z</time></trkpt><trkpt lat="41.8325011" lon="13.2425851"><ele>986.0</ele><time>2026-04-26T14:04:13.955Z</time></trkpt><trkpt lat="41.8324978" lon="13.2424385"><ele>986.0</ele><time>2026-04-26T14:04:14.945Z</time></trkpt><trkpt lat="41.8325306" lon="13.2423048"><ele>985.9999999999999</ele><time>2026-04-26T14:04:15.947Z</time></trkpt><trkpt lat="41.83259" lon="13.2421934"><ele>985.9999999999999</ele><time>2026-04-26T14:04:16.949Z</time></trkpt><trkpt lat="41.8326735" lon="13.2421099"><ele>986.0</ele><time>2026-04-26T14:04:17.949Z</time></trkpt><trkpt lat="41.8327621" lon="13.2420524"><ele>986.0</ele><time>2026-04-26T14:04:18.951Z</time></trkpt><trkpt lat="41.8328523" lon="13.242003"><ele>988.0000000000001</ele><time>2026-04-26T14:04:19.943Z</time></trkpt><trkpt lat="41.8329102" lon="13.2419365"><ele>990.0</ele><time>2026-04-26T14:04:20.947Z</time></trkpt><trkpt lat="41.8328988" lon="13.2417668"><ele>992.0</ele><time>2026-04-26T14:04:22.947Z</time></trkpt><trkpt lat="41.8328347" lon="13.2416967"><ele>994.0</ele><time>2026-04-26T14:04:23.956Z</time></trkpt><trkpt lat="41.8327702" lon="13.2416283"><ele>996.0000000000001</ele><time>2026-04-26T14:04:24.952Z</time></trkpt><trkpt lat="41.8327426" lon="13.2415438"><ele>998.0</ele><time>2026-04-26T14:04:25.946Z</time></trkpt><trkpt lat="41.8327295" lon="13.2414562"><ele>998.5</ele><time>2026-04-26T14:04:26.949Z</time></trkpt><trkpt lat="41.8327604" lon="13.241336"><ele>999.0</ele><time>2026-04-26T14:04:27.95Z</time></trkpt><trkpt lat="41.8328422" lon="13.2412217"><ele>999.5</ele><time>2026-04-26T14:04:28.951Z</time></trkpt><trkpt lat="41.8329353" lon="13.241118"><ele>1000.0</ele><time>2026-04-26T14:04:29.953Z</time></trkpt><trkpt lat="41.8330245" lon="13.2409994"><ele>1000.0</ele><time>2026-04-26T14:04:30.949Z</time></trkpt><trkpt lat="41.8331053" lon="13.240884"><ele>1000.0</ele><time>2026-04-26T14:04:31.946Z</time></trkpt><trkpt lat="41.833193" lon="13.2407687"><ele>1000.0</ele><time>2026-04-26T14:04:32.948Z</time></trkpt><trkpt lat="41.8332877" lon="13.2406639"><ele>1000.0</ele><time>2026-04-26T14:04:33.957Z</time></trkpt><trkpt lat="41.8333949" lon="13.2405731"><ele>1000.5</ele><time>2026-04-26T14:04:34.964Z</time></trkpt><trkpt lat="41.8335198" lon="13.2405116"><ele>1001.0</ele><time>2026-04-26T14:04:35.945Z</time></trkpt><trkpt lat="41.8336549" lon="13.2404641"><ele>1001.5</ele><time>2026-04-26T14:04:36.948Z</time></trkpt><trkpt lat="41.8337925" lon="13.2404208"><ele>1002.0</ele><time>2026-04-26T14:04:37.949Z</time></trkpt><trkpt lat="41.8339209" lon="13.2403754"><ele>1002.0</ele><time>2026-04-26T14:04:38.955Z</time></trkpt><trkpt lat="41.8340415" lon="13.2403346"><ele>1002.0</ele><time>2026-04-26T14:04:39.95Z</time></trkpt><trkpt lat="41.834147" lon="13.2403236"><ele>1002.0</ele><time>2026-04-26T14:04:40.947Z</time></trkpt><trkpt lat="41.834245" lon="13.2403538"><ele>1002.0</ele><time>2026-04-26T14:04:41.951Z</time></trkpt><trkpt lat="41.8343306" lon="13.2403083"><ele>1002.0</ele><time>2026-04-26T14:04:42.964Z</time></trkpt><trkpt lat="41.834393" lon="13.240242"><ele>1004.0</ele><time>2026-04-26T14:04:43.943Z</time></trkpt><trkpt lat="41.8344318" lon="13.2401241"><ele>1006.0</ele><time>2026-04-26T14:04:44.953Z</time></trkpt><trkpt lat="41.8344826" lon="13.2399861"><ele>1008.0</ele><time>2026-04-26T14:04:45.951Z</time></trkpt><trkpt lat="41.8345572" lon="13.2398401"><ele>1010.0</ele><time>2026-04-26T14:04:46.945Z</time></trkpt><trkpt lat="41.8346148" lon="13.239673"><ele>1010.0</ele><time>2026-04-26T14:04:47.956Z</time></trkpt><trkpt lat="41.8346722" lon="13.2394895"><ele>1010.0</ele><time>2026-04-26T14:04:48.957Z</time></trkpt><trkpt lat="41.8347304" lon="13.2392975"><ele>1010.0</ele><time>2026-04-26T14:04:49.947Z</time></trkpt><trkpt lat="41.8347882" lon="13.2391008"><ele>1008.6666666666667</ele><time>2026-04-26T14:04:50.954Z</time></trkpt><trkpt lat="41.8348438" lon="13.2389031"><ele>1007.3333333333333</ele><time>2026-04-26T14:04:51.961Z</time></trkpt><trkpt lat="41.8348997" lon="13.2387009"><ele>1006.0</ele><time>2026-04-26T14:04:52.943Z</time></trkpt><trkpt lat="41.8349564" lon="13.2385044"><ele>1006.0</ele><time>2026-04-26T14:04:53.956Z</time></trkpt><trkpt lat="41.8350118" lon="13.2383085"><ele>1006.0</ele><time>2026-04-26T14:04:54.961Z</time></trkpt><trkpt lat="41.8350683" lon="13.2381159"><ele>1006.0</ele><time>2026-04-26T14:04:55.956Z</time></trkpt><trkpt lat="41.8351233" lon="13.2379254"><ele>1008.25</ele><time>2026-04-26T14:04:56.945Z</time></trkpt><trkpt lat="41.8351783" lon="13.2377426"><ele>1010.5</ele><time>2026-04-26T14:04:57.951Z</time></trkpt><trkpt lat="41.8352357" lon="13.2375718"><ele>1012.75</ele><time>2026-04-26T14:04:58.956Z</time></trkpt><trkpt lat="41.8352892" lon="13.2374253"><ele>1015.0</ele><time>2026-04-26T14:04:59.954Z</time></trkpt><trkpt lat="41.8353587" lon="13.2372972"><ele>1015.5</ele><time>2026-04-26T14:05:00.959Z</time></trkpt><trkpt lat="41.8354451" lon="13.2371935"><ele>1016.0</ele><time>2026-04-26T14:05:01.965Z</time></trkpt><trkpt lat="41.8355561" lon="13.2371081"><ele>1016.5</ele><time>2026-04-26T14:05:02.944Z</time></trkpt><trkpt lat="41.8356718" lon="13.2370267"><ele>1017.0</ele><time>2026-04-26T14:05:03.955Z</time></trkpt><trkpt lat="41.8357877" lon="13.2369455"><ele>1017.0</ele><time>2026-04-26T14:05:04.95Z</time></trkpt><trkpt lat="41.8358997" lon="13.2368594"><ele>1017.0</ele><time>2026-04-26T14:05:05.954Z</time></trkpt><trkpt lat="41.8360016" lon="13.2367705"><ele>1017.0</ele><time>2026-04-26T14:05:06.955Z</time></trkpt><trkpt lat="41.836104" lon="13.2367002"><ele>1017.0</ele><time>2026-04-26T14:05:07.954Z</time></trkpt><trkpt lat="41.836216" lon="13.2366713"><ele>1016.25</ele><time>2026-04-26T14:05:08.948Z</time></trkpt><trkpt lat="41.8363313" lon="13.2366649"><ele>1015.5</ele><time>2026-04-26T14:05:09.943Z</time></trkpt><trkpt lat="41.8364529" lon="13.2366552"><ele>1014.75</ele><time>2026-04-26T14:05:10.95Z</time></trkpt><trkpt lat="41.8365829" lon="13.236616"><ele>1014.0</ele><time>2026-04-26T14:05:11.959Z</time></trkpt><trkpt lat="41.836715" lon="13.2365548"><ele>1012.6666666666667</ele><time>2026-04-26T14:05:12.96Z</time></trkpt><trkpt lat="41.8368518" lon="13.2364761"><ele>1011.3333333333334</ele><time>2026-04-26T14:05:13.955Z</time></trkpt><trkpt lat="41.8369902" lon="13.2363953"><ele>1010.0</ele><time>2026-04-26T14:05:14.958Z</time></trkpt><trkpt lat="41.8371275" lon="13.2363086"><ele>1009.3333333333334</ele><time>2026-04-26T14:05:15.957Z</time></trkpt><trkpt lat="41.8372581" lon="13.2362004"><ele>1008.6666666666667</ele><time>2026-04-26T14:05:16.95Z</time></trkpt><trkpt lat="41.8373754" lon="13.23607"><ele>1008.0</ele><time>2026-04-26T14:05:17.96Z</time></trkpt><trkpt lat="41.8374834" lon="13.2359312"><ele>1008.0</ele><time>2026-04-26T14:05:18.959Z</time></trkpt><trkpt lat="41.8375853" lon="13.235798"><ele>1008.0</ele><time>2026-04-26T14:05:19.949Z</time></trkpt><trkpt lat="41.8376818" lon="13.2356699"><ele>1008.0</ele><time>2026-04-26T14:05:20.956Z</time></trkpt><trkpt lat="41.8377621" lon="13.2355334"><ele>1008.0</ele><time>2026-04-26T14:05:21.962Z</time></trkpt><trkpt lat="41.8378132" lon="13.2353716"><ele>1007.25</ele><time>2026-04-26T14:05:22.954Z</time></trkpt><trkpt lat="41.8378388" lon="13.235197"><ele>1006.5</ele><time>2026-04-26T14:05:23.944Z</time></trkpt><trkpt lat="41.8378521" lon="13.2350158"><ele>1005.75</ele><time>2026-04-26T14:05:24.956Z</time></trkpt><trkpt lat="41.8378725" lon="13.2348344"><ele>1005.0</ele><time>2026-04-26T14:05:25.953Z</time></trkpt><trkpt lat="41.8378916" lon="13.234653"><ele>1003.6666666666667</ele><time>2026-04-26T14:05:26.943Z</time></trkpt><trkpt lat="41.8379297" lon="13.2344675"><ele>1002.3333333333334</ele><time>2026-04-26T14:05:27.946Z</time></trkpt><trkpt lat="41.8380054" lon="13.2342781"><ele>1001.0</ele><time>2026-04-26T14:05:28.957Z</time></trkpt><trkpt lat="41.8380768" lon="13.2340997"><ele>999.25</ele><time>2026-04-26T14:05:29.946Z</time></trkpt><trkpt lat="41.8381444" lon="13.2339223"><ele>997.5</ele><time>2026-04-26T14:05:30.951Z</time></trkpt><trkpt lat="41.8382075" lon="13.2337687"><ele>995.75</ele><time>2026-04-26T14:05:31.951Z</time></trkpt><trkpt lat="41.8382665" lon="13.2336723"><ele>994.0</ele><time>2026-04-26T14:05:32.946Z</time></trkpt><trkpt lat="41.8383378" lon="13.2336301"><ele>994.0</ele><time>2026-04-26T14:05:33.95Z</time></trkpt><trkpt lat="41.8384118" lon="13.233606"><ele>994.0000000000001</ele><time>2026-04-26T14:05:34.942Z</time></trkpt><trkpt lat="41.8384951" lon="13.2336397"><ele>994.0000000000001</ele><time>2026-04-26T14:05:35.96Z</time></trkpt><trkpt lat="41.8385796" lon="13.2336359"><ele>994.0</ele><time>2026-04-26T14:05:36.943Z</time></trkpt><trkpt lat="41.8386581" lon="13.2336148"><ele>994.0</ele><time>2026-04-26T14:05:37.956Z</time></trkpt><trkpt lat="41.8387282" lon="13.2334656"><ele>996.75</ele><time>2026-04-26T14:05:39.953Z</time></trkpt><trkpt lat="41.8386752" lon="13.2333149"><ele>999.5</ele><time>2026-04-26T14:05:40.955Z</time></trkpt><trkpt lat="41.8386225" lon="13.2331672"><ele>1002.25</ele><time>2026-04-26T14:05:41.957Z</time></trkpt><trkpt lat="41.8385833" lon="13.2329943"><ele>1005.0</ele><time>2026-04-26T14:05:42.947Z</time></trkpt><trkpt lat="41.8385489" lon="13.2328135"><ele>1005.0</ele><time>2026-04-26T14:05:43.962Z</time></trkpt><trkpt lat="41.8385152" lon="13.2326404"><ele>1005.0</ele><time>2026-04-26T14:05:44.949Z</time></trkpt><trkpt lat="41.8384803" lon="13.2324743"><ele>1005.0</ele><time>2026-04-26T14:05:45.965Z</time></trkpt><trkpt lat="41.8384482" lon="13.2323157"><ele>1005.0</ele><time>2026-04-26T14:05:46.966Z</time></trkpt><trkpt lat="41.8384301" lon="13.2321771"><ele>1004.2</ele><time>2026-04-26T14:05:47.958Z</time></trkpt><trkpt lat="41.8384452" lon="13.2320564"><ele>1003.4</ele><time>2026-04-26T14:05:48.947Z</time></trkpt><trkpt lat="41.83849" lon="13.2319574"><ele>1002.5999999999999</ele><time>2026-04-26T14:05:49.954Z</time></trkpt><trkpt lat="41.8385643" lon="13.231882"><ele>1001.8</ele><time>2026-04-26T14:05:50.951Z</time></trkpt><trkpt lat="41.8386444" lon="13.2318164"><ele>1001.0</ele><time>2026-04-26T14:05:51.957Z</time></trkpt><trkpt lat="41.8387119" lon="13.2317437"><ele>1001.0</ele><time>2026-04-26T14:05:52.949Z</time></trkpt><trkpt lat="41.8387426" lon="13.2316179"><ele>1001.0</ele><time>2026-04-26T14:05:53.958Z</time></trkpt><trkpt lat="41.838732" lon="13.2314741"><ele>1001.0</ele><time>2026-04-26T14:05:54.95Z</time></trkpt><trkpt lat="41.8386998" lon="13.2313212"><ele>1001.0</ele><time>2026-04-26T14:05:55.942Z</time></trkpt><trkpt lat="41.8386533" lon="13.2311617"><ele>999.5</ele><time>2026-04-26T14:05:56.947Z</time></trkpt><trkpt lat="41.838605" lon="13.2309886"><ele>998.0</ele><time>2026-04-26T14:05:57.962Z</time></trkpt><trkpt lat="41.8385666" lon="13.2308115"><ele>996.5</ele><time>2026-04-26T14:05:58.946Z</time></trkpt><trkpt lat="41.8385439" lon="13.2306308"><ele>995.0</ele><time>2026-04-26T14:05:59.943Z</time></trkpt><trkpt lat="41.8385458" lon="13.2304571"><ele>991.75</ele><time>2026-04-26T14:06:00.952Z</time></trkpt><trkpt lat="41.8385808" lon="13.2303044"><ele>988.5</ele><time>2026-04-26T14:06:01.952Z</time></trkpt><trkpt lat="41.8386472" lon="13.2301818"><ele>985.25</ele><time>2026-04-26T14:06:02.955Z</time></trkpt><trkpt lat="41.8387368" lon="13.2300851"><ele>982.0</ele><time>2026-04-26T14:06:03.96Z</time></trkpt><trkpt lat="41.8388338" lon="13.2300207"><ele>982.0</ele><time>2026-04-26T14:06:04.95Z</time></trkpt><trkpt lat="41.8389378" lon="13.2300051"><ele>982.0</ele><time>2026-04-26T14:06:05.956Z</time></trkpt><trkpt lat="41.8390426" lon="13.2300101"><ele>982.0</ele><time>2026-04-26T14:06:06.952Z</time></trkpt><trkpt lat="41.839137" lon="13.2300055"><ele>982.0</ele><time>2026-04-26T14:06:07.949Z</time></trkpt><trkpt lat="41.8392063" lon="13.2299504"><ele>982.0</ele><time>2026-04-26T14:06:08.95Z</time></trkpt><trkpt lat="41.8392562" lon="13.2298843"><ele>980.4000000000001</ele><time>2026-04-26T14:06:09.954Z</time></trkpt><trkpt lat="41.8392437" lon="13.229761"><ele>978.8000000000001</ele><time>2026-04-26T14:06:10.947Z</time></trkpt><trkpt lat="41.8392156" lon="13.2296312"><ele>977.2</ele><time>2026-04-26T14:06:11.945Z</time></trkpt><trkpt lat="41.8391776" lon="13.2295037"><ele>975.6</ele><time>2026-04-26T14:06:12.948Z</time></trkpt><trkpt lat="41.8391444" lon="13.2293518"><ele>974.0</ele><time>2026-04-26T14:06:13.947Z</time></trkpt><trkpt lat="41.8391221" lon="13.2292049"><ele>974.0</ele><time>2026-04-26T14:06:14.962Z</time></trkpt><trkpt lat="41.839128" lon="13.2290553"><ele>974.0000000000001</ele><time>2026-04-26T14:06:15.962Z</time></trkpt><trkpt lat="41.8391652" lon="13.2289109"><ele>974.0000000000001</ele><time>2026-04-26T14:06:16.949Z</time></trkpt><trkpt lat="41.8392244" lon="13.2287965"><ele>974.0</ele><time>2026-04-26T14:06:17.95Z</time></trkpt><trkpt lat="41.8392841" lon="13.228699"><ele>974.0</ele><time>2026-04-26T14:06:18.956Z</time></trkpt><trkpt lat="41.8393841" lon="13.228682"><ele>975.4000000000001</ele><time>2026-04-26T14:06:19.952Z</time></trkpt><trkpt lat="41.8394918" lon="13.2286753"><ele>976.8000000000001</ele><time>2026-04-26T14:06:20.957Z</time></trkpt><trkpt lat="41.8395882" lon="13.2286534"><ele>978.1999999999999</ele><time>2026-04-26T14:06:21.954Z</time></trkpt><trkpt lat="41.8396583" lon="13.2285847"><ele>979.5999999999999</ele><time>2026-04-26T14:06:22.948Z</time></trkpt><trkpt lat="41.8396905" lon="13.2284802"><ele>981.0</ele><time>2026-04-26T14:06:23.954Z</time></trkpt><trkpt lat="41.8396864" lon="13.228364"><ele>981.0</ele><time>2026-04-26T14:06:24.958Z</time></trkpt><trkpt lat="41.8396711" lon="13.2282503"><ele>981.0</ele><time>2026-04-26T14:06:25.956Z</time></trkpt><trkpt lat="41.8396642" lon="13.2281396"><ele>981.0</ele><time>2026-04-26T14:06:26.95Z</time></trkpt><trkpt lat="41.8396916" lon="13.2280404"><ele>981.0</ele><time>2026-04-26T14:06:27.961Z</time></trkpt><trkpt lat="41.8397481" lon="13.2279616"><ele>981.0</ele><time>2026-04-26T14:06:28.96Z</time></trkpt><trkpt lat="41.8398253" lon="13.2278947"><ele>981.0</ele><time>2026-04-26T14:06:29.949Z</time></trkpt><trkpt lat="41.8399107" lon="13.2278342"><ele>980.5999999999999</ele><time>2026-04-26T14:06:30.953Z</time></trkpt><trkpt lat="41.8400024" lon="13.2278037"><ele>980.1999999999999</ele><time>2026-04-26T14:06:31.95Z</time></trkpt><trkpt lat="41.8401027" lon="13.2278127"><ele>979.8000000000001</ele><time>2026-04-26T14:06:32.959Z</time></trkpt><trkpt lat="41.8401985" lon="13.2278439"><ele>979.4000000000001</ele><time>2026-04-26T14:06:33.942Z</time></trkpt><trkpt lat="41.8402957" lon="13.227878"><ele>979.0</ele><time>2026-04-26T14:06:34.952Z</time></trkpt><trkpt lat="41.8403887" lon="13.2279038"><ele>978.9999999999999</ele><time>2026-04-26T14:06:35.95Z</time></trkpt><trkpt lat="41.8404746" lon="13.2278632"><ele>979.0</ele><time>2026-04-26T14:06:36.952Z</time></trkpt><trkpt lat="41.8405345" lon="13.2277976"><ele>979.0</ele><time>2026-04-26T14:06:37.952Z</time></trkpt><trkpt lat="41.8405594" lon="13.2277015"><ele>979.0</ele><time>2026-04-26T14:06:38.948Z</time></trkpt><trkpt lat="41.8405394" lon="13.2275825"><ele>978.9999999999999</ele><time>2026-04-26T14:06:39.948Z</time></trkpt><trkpt lat="41.8404909" lon="13.2274756"><ele>979.0</ele><time>2026-04-26T14:06:40.951Z</time></trkpt><trkpt lat="41.8404336" lon="13.2273732"><ele>979.0</ele><time>2026-04-26T14:06:41.952Z</time></trkpt><trkpt lat="41.8403778" lon="13.2272707"><ele>979.0</ele><time>2026-04-26T14:06:42.953Z</time></trkpt><trkpt lat="41.8403407" lon="13.2271739"><ele>979.0</ele><time>2026-04-26T14:06:43.965Z</time></trkpt><trkpt lat="41.8403358" lon="13.2270781"><ele>979.0</ele><time>2026-04-26T14:06:44.957Z</time></trkpt><trkpt lat="41.8403691" lon="13.2270015"><ele>979.0</ele><time>2026-04-26T14:06:45.949Z</time></trkpt><trkpt lat="41.840419" lon="13.2269458"><ele>979.0</ele><time>2026-04-26T14:06:46.949Z</time></trkpt><trkpt lat="41.8404698" lon="13.226886"><ele>979.0</ele><time>2026-04-26T14:06:47.95Z</time></trkpt><trkpt lat="41.8405172" lon="13.2268131"><ele>979.0</ele><time>2026-04-26T14:06:48.951Z</time></trkpt><trkpt lat="41.8405075" lon="13.2267"><ele>979.0000000000001</ele><time>2026-04-26T14:06:49.95Z</time></trkpt><trkpt lat="41.840493" lon="13.2265786"><ele>979.0000000000001</ele><time>2026-04-26T14:06:50.972Z</time></trkpt><trkpt lat="41.8404548" lon="13.226463"><ele>979.0</ele><time>2026-04-26T14:06:51.954Z</time></trkpt><trkpt lat="41.8404308" lon="13.2263303"><ele>979.0</ele><time>2026-04-26T14:06:52.955Z</time></trkpt><trkpt lat="41.8404235" lon="13.2261805"><ele>978.5</ele><time>2026-04-26T14:06:53.949Z</time></trkpt><trkpt lat="41.8404335" lon="13.226017"><ele>978.0</ele><time>2026-04-26T14:06:54.95Z</time></trkpt><trkpt lat="41.8404591" lon="13.2258402"><ele>977.5</ele><time>2026-04-26T14:06:55.946Z</time></trkpt><trkpt lat="41.8404916" lon="13.22565"><ele>977.0</ele><time>2026-04-26T14:06:56.949Z</time></trkpt><trkpt lat="41.8405219" lon="13.2254425"><ele>975.0</ele><time>2026-04-26T14:06:57.946Z</time></trkpt><trkpt lat="41.8405508" lon="13.2252261"><ele>973.0</ele><time>2026-04-26T14:06:58.948Z</time></trkpt><trkpt lat="41.8405806" lon="13.2249989"><ele>971.0</ele><time>2026-04-26T14:06:59.961Z</time></trkpt><trkpt lat="41.8406125" lon="13.2247587"><ele>969.6666666666667</ele><time>2026-04-26T14:07:00.953Z</time></trkpt><trkpt lat="41.8406476" lon="13.2245066"><ele>968.3333333333333</ele><time>2026-04-26T14:07:01.948Z</time></trkpt><trkpt lat="41.8406844" lon="13.2242491"><ele>967.0</ele><time>2026-04-26T14:07:02.956Z</time></trkpt><trkpt lat="41.8407234" lon="13.2239894"><ele>966.3333333333333</ele><time>2026-04-26T14:07:03.961Z</time></trkpt><trkpt lat="41.8407599" lon="13.2237314"><ele>965.6666666666667</ele><time>2026-04-26T14:07:04.942Z</time></trkpt><trkpt lat="41.8407937" lon="13.2234744"><ele>965.0</ele><time>2026-04-26T14:07:05.961Z</time></trkpt><trkpt lat="41.8408273" lon="13.2232238"><ele>964.6666666666667</ele><time>2026-04-26T14:07:06.957Z</time></trkpt><trkpt lat="41.8408608" lon="13.2229837"><ele>964.3333333333333</ele><time>2026-04-26T14:07:07.949Z</time></trkpt><trkpt lat="41.8408928" lon="13.222755"><ele>964.0</ele><time>2026-04-26T14:07:08.955Z</time></trkpt><trkpt lat="41.840924" lon="13.2225396"><ele>964.0</ele><time>2026-04-26T14:07:09.952Z</time></trkpt><trkpt lat="41.8409517" lon="13.2223395"><ele>964.0</ele><time>2026-04-26T14:07:10.968Z</time></trkpt><trkpt lat="41.8409756" lon="13.2221598"><ele>964.0</ele><time>2026-04-26T14:07:11.963Z</time></trkpt><trkpt lat="41.8410003" lon="13.2220074"><ele>964.0</ele><time>2026-04-26T14:07:12.959Z</time></trkpt><trkpt lat="41.841032" lon="13.2218858"><ele>964.2</ele><time>2026-04-26T14:07:13.95Z</time></trkpt><trkpt lat="41.8410829" lon="13.2217995"><ele>964.4000000000001</ele><time>2026-04-26T14:07:14.957Z</time></trkpt><trkpt lat="41.8411388" lon="13.2217259"><ele>964.6</ele><time>2026-04-26T14:07:15.961Z</time></trkpt><trkpt lat="41.841235" lon="13.2216857"><ele>964.8</ele><time>2026-04-26T14:07:16.946Z</time></trkpt><trkpt lat="41.8413388" lon="13.2216439"><ele>965.0</ele><time>2026-04-26T14:07:17.952Z</time></trkpt><trkpt lat="41.841454" lon="13.2216045"><ele>965.0</ele><time>2026-04-26T14:07:18.952Z</time></trkpt><trkpt lat="41.841578" lon="13.2215546"><ele>965.0</ele><time>2026-04-26T14:07:19.958Z</time></trkpt><trkpt lat="41.8417028" lon="13.2215061"><ele>965.0</ele><time>2026-04-26T14:07:20.951Z</time></trkpt><trkpt lat="41.8418284" lon="13.2214591"><ele>965.0</ele><time>2026-04-26T14:07:21.962Z</time></trkpt><trkpt lat="41.8419521" lon="13.2214489"><ele>965.25</ele><time>2026-04-26T14:07:22.947Z</time></trkpt><trkpt lat="41.8420735" lon="13.2214721"><ele>965.5</ele><time>2026-04-26T14:07:23.975Z</time></trkpt><trkpt lat="41.8421865" lon="13.2215131"><ele>965.75</ele><time>2026-04-26T14:07:24.95Z</time></trkpt><trkpt lat="41.8423004" lon="13.2215339"><ele>966.0</ele><time>2026-04-26T14:07:25.961Z</time></trkpt><trkpt lat="41.8424119" lon="13.2215086"><ele>966.0</ele><time>2026-04-26T14:07:26.956Z</time></trkpt><trkpt lat="41.8425156" lon="13.2214358"><ele>966.0</ele><time>2026-04-26T14:07:27.954Z</time></trkpt><trkpt lat="41.8426137" lon="13.2213271"><ele>966.0</ele><time>2026-04-26T14:07:28.961Z</time></trkpt><trkpt lat="41.8427135" lon="13.2211947"><ele>966.0</ele><time>2026-04-26T14:07:29.966Z</time></trkpt><trkpt lat="41.8428166" lon="13.2210504"><ele>966.0</ele><time>2026-04-26T14:07:30.954Z</time></trkpt><trkpt lat="41.8429175" lon="13.2209061"><ele>966.0</ele><time>2026-04-26T14:07:31.976Z</time></trkpt><trkpt lat="41.843006" lon="13.2207637"><ele>966.0</ele><time>2026-04-26T14:07:32.954Z</time></trkpt><trkpt lat="41.8430722" lon="13.220615"><ele>966.0</ele><time>2026-04-26T14:07:33.959Z</time></trkpt><trkpt lat="41.8431029" lon="13.2204543"><ele>965.0</ele><time>2026-04-26T14:07:34.944Z</time></trkpt><trkpt lat="41.843125" lon="13.2202754"><ele>964.0</ele><time>2026-04-26T14:07:35.956Z</time></trkpt><trkpt lat="41.8430958" lon="13.2200967"><ele>963.0</ele><time>2026-04-26T14:07:36.954Z</time></trkpt><trkpt lat="41.8430767" lon="13.2199105"><ele>962.0</ele><time>2026-04-26T14:07:37.956Z</time></trkpt><trkpt lat="41.8430537" lon="13.2197198"><ele>961.5</ele><time>2026-04-26T14:07:38.965Z</time></trkpt><trkpt lat="41.8430333" lon="13.2195064"><ele>961.0</ele><time>2026-04-26T14:07:39.955Z</time></trkpt><trkpt lat="41.8430191" lon="13.2193114"><ele>960.5</ele><time>2026-04-26T14:07:40.963Z</time></trkpt><trkpt lat="41.8430028" lon="13.2191211"><ele>960.0</ele><time>2026-04-26T14:07:41.958Z</time></trkpt><trkpt lat="41.8429967" lon="13.2189431"><ele>958.75</ele><time>2026-04-26T14:07:42.959Z</time></trkpt><trkpt lat="41.8430233" lon="13.2187881"><ele>957.5</ele><time>2026-04-26T14:07:43.959Z</time></trkpt><trkpt lat="41.843063" lon="13.2186451"><ele>956.25</ele><time>2026-04-26T14:07:44.948Z</time></trkpt><trkpt lat="41.8431265" lon="13.2185195"><ele>955.0</ele><time>2026-04-26T14:07:45.966Z</time></trkpt><trkpt lat="41.8431716" lon="13.2183757"><ele>955.0</ele><time>2026-04-26T14:07:46.952Z</time></trkpt><trkpt lat="41.8431846" lon="13.2182176"><ele>955.0</ele><time>2026-04-26T14:07:47.951Z</time></trkpt><trkpt lat="41.8431853" lon="13.2180446"><ele>955.0</ele><time>2026-04-26T14:07:48.955Z</time></trkpt><trkpt lat="41.8431887" lon="13.2178662"><ele>955.0</ele><time>2026-04-26T14:07:49.956Z</time></trkpt><trkpt lat="41.843196" lon="13.2176876"><ele>953.0</ele><time>2026-04-26T14:07:50.959Z</time></trkpt><trkpt lat="41.8432219" lon="13.2175104"><ele>951.0</ele><time>2026-04-26T14:07:51.963Z</time></trkpt><trkpt lat="41.8432697" lon="13.2173389"><ele>949.0</ele><time>2026-04-26T14:07:52.943Z</time></trkpt><trkpt lat="41.8433394" lon="13.217174"><ele>947.0</ele><time>2026-04-26T14:07:53.955Z</time></trkpt><trkpt lat="41.8434252" lon="13.2170189"><ele>947.0</ele><time>2026-04-26T14:07:54.949Z</time></trkpt><trkpt lat="41.8435171" lon="13.2168655"><ele>947.0</ele><time>2026-04-26T14:07:55.948Z</time></trkpt><trkpt lat="41.8436058" lon="13.2167059"><ele>947.0</ele><time>2026-04-26T14:07:56.952Z</time></trkpt><trkpt lat="41.843688" lon="13.2165483"><ele>947.0</ele><time>2026-04-26T14:07:57.948Z</time></trkpt><trkpt lat="41.8437687" lon="13.2163984"><ele>947.0</ele><time>2026-04-26T14:07:58.948Z</time></trkpt><trkpt lat="41.8438529" lon="13.2162642"><ele>947.0</ele><time>2026-04-26T14:07:59.959Z</time></trkpt><trkpt lat="41.8439239" lon="13.2161474"><ele>947.0</ele><time>2026-04-26T14:08:00.954Z</time></trkpt><trkpt lat="41.8439682" lon="13.2160293"><ele>947.0</ele><time>2026-04-26T14:08:01.955Z</time></trkpt><trkpt lat="41.8439797" lon="13.2159198"><ele>947.0</ele><time>2026-04-26T14:08:02.952Z</time></trkpt><trkpt lat="41.8439434" lon="13.2158052"><ele>947.0</ele><time>2026-04-26T14:08:03.951Z</time></trkpt><trkpt lat="41.8438799" lon="13.2156929"><ele>947.0</ele><time>2026-04-26T14:08:04.957Z</time></trkpt><trkpt lat="41.8438031" lon="13.215575"><ele>947.0</ele><time>2026-04-26T14:08:05.961Z</time></trkpt><trkpt lat="41.8437276" lon="13.2154544"><ele>947.0</ele><time>2026-04-26T14:08:06.959Z</time></trkpt><trkpt lat="41.8436727" lon="13.2153132"><ele>947.25</ele><time>2026-04-26T14:08:07.961Z</time></trkpt><trkpt lat="41.8436473" lon="13.2151608"><ele>947.5</ele><time>2026-04-26T14:08:08.945Z</time></trkpt><trkpt lat="41.8436278" lon="13.2150016"><ele>947.75</ele><time>2026-04-26T14:08:09.963Z</time></trkpt><trkpt lat="41.8436563" lon="13.214817"><ele>948.0</ele><time>2026-04-26T14:08:10.964Z</time></trkpt><trkpt lat="41.8436834" lon="13.2145877"><ele>948.0</ele><time>2026-04-26T14:08:11.948Z</time></trkpt><trkpt lat="41.8437126" lon="13.2143477"><ele>948.0</ele><time>2026-04-26T14:08:12.951Z</time></trkpt><trkpt lat="41.8437258" lon="13.2141042"><ele>948.0</ele><time>2026-04-26T14:08:13.954Z</time></trkpt><trkpt lat="41.8437519" lon="13.213865"><ele>945.6666666666667</ele><time>2026-04-26T14:08:14.954Z</time></trkpt><trkpt lat="41.8437669" lon="13.2136332"><ele>943.3333333333334</ele><time>2026-04-26T14:08:15.954Z</time></trkpt><trkpt lat="41.843795" lon="13.2134086"><ele>941.0</ele><time>2026-04-26T14:08:16.959Z</time></trkpt><trkpt lat="41.8438348" lon="13.2131902"><ele>937.0</ele><time>2026-04-26T14:08:17.952Z</time></trkpt><trkpt lat="41.8438879" lon="13.2129628"><ele>933.0</ele><time>2026-04-26T14:08:18.948Z</time></trkpt><trkpt lat="41.8439462" lon="13.2127268"><ele>929.0</ele><time>2026-04-26T14:08:19.95Z</time></trkpt><trkpt lat="41.8440051" lon="13.2124867"><ele>925.3333333333334</ele><time>2026-04-26T14:08:20.953Z</time></trkpt><trkpt lat="41.8440663" lon="13.2122426"><ele>921.6666666666667</ele><time>2026-04-26T14:08:21.944Z</time></trkpt><trkpt lat="41.8441286" lon="13.2119904"><ele>918.0</ele><time>2026-04-26T14:08:22.951Z</time></trkpt><trkpt lat="41.8441949" lon="13.211733"><ele>913.6666666666667</ele><time>2026-04-26T14:08:23.957Z</time></trkpt><trkpt lat="41.8442629" lon="13.2114764"><ele>909.3333333333334</ele><time>2026-04-26T14:08:24.957Z</time></trkpt><trkpt lat="41.8443256" lon="13.2112082"><ele>905.0</ele><time>2026-04-26T14:08:25.945Z</time></trkpt><trkpt lat="41.8443922" lon="13.2109378"><ele>910.0</ele><time>2026-04-26T14:08:26.953Z</time></trkpt><trkpt lat="41.8444577" lon="13.2106684"><ele>915.0</ele><time>2026-04-26T14:08:27.953Z</time></trkpt><trkpt lat="41.844528" lon="13.2104025"><ele>920.0</ele><time>2026-04-26T14:08:28.974Z</time></trkpt><trkpt lat="41.8445989" lon="13.2101446"><ele>920.0</ele><time>2026-04-26T14:08:29.958Z</time></trkpt><trkpt lat="41.8446683" lon="13.2098938"><ele>920.0</ele><time>2026-04-26T14:08:30.955Z</time></trkpt><trkpt lat="41.8447403" lon="13.2096545"><ele>920.0</ele><time>2026-04-26T14:08:31.954Z</time></trkpt><trkpt lat="41.8448065" lon="13.2094374"><ele>916.25</ele><time>2026-04-26T14:08:32.953Z</time></trkpt><trkpt lat="41.8448652" lon="13.2092511"><ele>912.5</ele><time>2026-04-26T14:08:33.946Z</time></trkpt><trkpt lat="41.844921" lon="13.2090968"><ele>908.75</ele><time>2026-04-26T14:08:34.956Z</time></trkpt><trkpt lat="41.8449736" lon="13.2089714"><ele>905.0</ele><time>2026-04-26T14:08:35.961Z</time></trkpt><trkpt lat="41.8450556" lon="13.2089087"><ele>905.6</ele><time>2026-04-26T14:08:36.965Z</time></trkpt><trkpt lat="41.8451592" lon="13.2088633"><ele>906.2</ele><time>2026-04-26T14:08:37.96Z</time></trkpt><trkpt lat="41.845269" lon="13.208825"><ele>906.8</ele><time>2026-04-26T14:08:38.947Z</time></trkpt><trkpt lat="41.8453792" lon="13.2087915"><ele>907.4</ele><time>2026-04-26T14:08:39.959Z</time></trkpt><trkpt lat="41.8454853" lon="13.2087487"><ele>908.0</ele><time>2026-04-26T14:08:40.962Z</time></trkpt><trkpt lat="41.8455814" lon="13.2086955"><ele>908.0</ele><time>2026-04-26T14:08:41.947Z</time></trkpt><trkpt lat="41.8456466" lon="13.2086161"><ele>908.0</ele><time>2026-04-26T14:08:42.953Z</time></trkpt><trkpt lat="41.8456905" lon="13.2085299"><ele>908.0</ele><time>2026-04-26T14:08:43.954Z</time></trkpt><trkpt lat="41.8456719" lon="13.2084004"><ele>908.0</ele><time>2026-04-26T14:08:44.949Z</time></trkpt><trkpt lat="41.8456381" lon="13.2082675"><ele>908.0</ele><time>2026-04-26T14:08:45.947Z</time></trkpt><trkpt lat="41.8455885" lon="13.2081356"><ele>907.0</ele><time>2026-04-26T14:08:46.949Z</time></trkpt><trkpt lat="41.8455303" lon="13.2079892"><ele>906.0</ele><time>2026-04-26T14:08:47.954Z</time></trkpt><trkpt lat="41.8454653" lon="13.2078355"><ele>905.0</ele><time>2026-04-26T14:08:48.952Z</time></trkpt><trkpt lat="41.845405" lon="13.207674"><ele>904.0</ele><time>2026-04-26T14:08:49.957Z</time></trkpt><trkpt lat="41.8453574" lon="13.2075166"><ele>904.0</ele><time>2026-04-26T14:08:50.953Z</time></trkpt><trkpt lat="41.8453334" lon="13.2073583"><ele>904.0</ele><time>2026-04-26T14:08:51.961Z</time></trkpt><trkpt lat="41.8453452" lon="13.2071939"><ele>904.0</ele><time>2026-04-26T14:08:52.963Z</time></trkpt><trkpt lat="41.8453819" lon="13.2070292"><ele>904.0</ele><time>2026-04-26T14:08:53.943Z</time></trkpt><trkpt lat="41.8454352" lon="13.2068609"><ele>902.25</ele><time>2026-04-26T14:08:54.954Z</time></trkpt><trkpt lat="41.8454924" lon="13.2066849"><ele>900.5</ele><time>2026-04-26T14:08:55.976Z</time></trkpt><trkpt lat="41.8455527" lon="13.2065022"><ele>898.75</ele><time>2026-04-26T14:08:56.959Z</time></trkpt><trkpt lat="41.8456139" lon="13.206314"><ele>897.0</ele><time>2026-04-26T14:08:57.968Z</time></trkpt><trkpt lat="41.8456715" lon="13.2061276"><ele>894.75</ele><time>2026-04-26T14:08:58.954Z</time></trkpt><trkpt lat="41.8457299" lon="13.2059541"><ele>892.5</ele><time>2026-04-26T14:08:59.956Z</time></trkpt><trkpt lat="41.8457884" lon="13.2057926"><ele>890.25</ele><time>2026-04-26T14:09:00.955Z</time></trkpt><trkpt lat="41.8458793" lon="13.2056668"><ele>888.0</ele><time>2026-04-26T14:09:01.956Z</time></trkpt><trkpt lat="41.8459768" lon="13.2055735"><ele>887.5</ele><time>2026-04-26T14:09:02.951Z</time></trkpt><trkpt lat="41.8460876" lon="13.2055369"><ele>887.0</ele><time>2026-04-26T14:09:03.959Z</time></trkpt><trkpt lat="41.8462019" lon="13.2055427"><ele>886.5</ele><time>2026-04-26T14:09:04.95Z</time></trkpt><trkpt lat="41.8463214" lon="13.2055537"><ele>886.0</ele><time>2026-04-26T14:09:05.95Z</time></trkpt><trkpt lat="41.8464373" lon="13.2055644"><ele>886.0</ele><time>2026-04-26T14:09:06.956Z</time></trkpt><trkpt lat="41.8465492" lon="13.2055478"><ele>885.9999999999999</ele><time>2026-04-26T14:09:07.958Z</time></trkpt><trkpt lat="41.8466398" lon="13.2054857"><ele>885.9999999999999</ele><time>2026-04-26T14:09:08.947Z</time></trkpt><trkpt lat="41.8467009" lon="13.2053971"><ele>886.0</ele><time>2026-04-26T14:09:09.955Z</time></trkpt><trkpt lat="41.8467078" lon="13.2052599"><ele>886.0</ele><time>2026-04-26T14:09:10.965Z</time></trkpt><trkpt lat="41.8466859" lon="13.2051157"><ele>886.0</ele><time>2026-04-26T14:09:11.954Z</time></trkpt><trkpt lat="41.8466591" lon="13.2049604"><ele>886.0</ele><time>2026-04-26T14:09:12.957Z</time></trkpt><trkpt lat="41.8466064" lon="13.2047954"><ele>886.0</ele><time>2026-04-26T14:09:13.972Z</time></trkpt><trkpt lat="41.8465478" lon="13.2046139"><ele>886.0</ele><time>2026-04-26T14:09:14.96Z</time></trkpt><trkpt lat="41.8464838" lon="13.2044307"><ele>886.3333333333333</ele><time>2026-04-26T14:09:15.958Z</time></trkpt><trkpt lat="41.8464121" lon="13.2042409"><ele>886.6666666666667</ele><time>2026-04-26T14:09:16.948Z</time></trkpt><trkpt lat="41.8463316" lon="13.2040492"><ele>887.0</ele><time>2026-04-26T14:09:17.949Z</time></trkpt><trkpt lat="41.8462474" lon="13.2038543"><ele>887.3333333333334</ele><time>2026-04-26T14:09:18.945Z</time></trkpt><trkpt lat="41.8461637" lon="13.2036578"><ele>887.6666666666667</ele><time>2026-04-26T14:09:19.96Z</time></trkpt><trkpt lat="41.8460833" lon="13.2034666"><ele>888.0</ele><time>2026-04-26T14:09:20.956Z</time></trkpt><trkpt lat="41.846011" lon="13.2032885"><ele>885.0</ele><time>2026-04-26T14:09:21.956Z</time></trkpt><trkpt lat="41.8459544" lon="13.2031183"><ele>882.0</ele><time>2026-04-26T14:09:22.961Z</time></trkpt><trkpt lat="41.8459279" lon="13.2029479"><ele>879.0</ele><time>2026-04-26T14:09:23.957Z</time></trkpt><trkpt lat="41.845934" lon="13.2027734"><ele>876.0</ele><time>2026-04-26T14:09:24.964Z</time></trkpt><trkpt lat="41.8459597" lon="13.2025953"><ele>875.6666666666667</ele><time>2026-04-26T14:09:25.958Z</time></trkpt><trkpt lat="41.8459958" lon="13.2024087"><ele>875.3333333333334</ele><time>2026-04-26T14:09:26.943Z</time></trkpt><trkpt lat="41.8460359" lon="13.2022122"><ele>875.0</ele><time>2026-04-26T14:09:27.969Z</time></trkpt><trkpt lat="41.846073" lon="13.2020068"><ele>875.0</ele><time>2026-04-26T14:09:28.951Z</time></trkpt><trkpt lat="41.8461081" lon="13.2017954"><ele>875.0</ele><time>2026-04-26T14:09:29.948Z</time></trkpt><trkpt lat="41.8461397" lon="13.2015773"><ele>875.0</ele><time>2026-04-26T14:09:30.962Z</time></trkpt><trkpt lat="41.8461714" lon="13.2013541"><ele>873.3333333333334</ele><time>2026-04-26T14:09:31.96Z</time></trkpt><trkpt lat="41.8462044" lon="13.2011279"><ele>871.6666666666667</ele><time>2026-04-26T14:09:32.948Z</time></trkpt><trkpt lat="41.8462372" lon="13.2008984"><ele>870.0</ele><time>2026-04-26T14:09:33.951Z</time></trkpt><trkpt lat="41.8462709" lon="13.2006739"><ele>869.3333333333333</ele><time>2026-04-26T14:09:34.951Z</time></trkpt><trkpt lat="41.8462998" lon="13.2004445"><ele>868.6666666666666</ele><time>2026-04-26T14:09:35.955Z</time></trkpt><trkpt lat="41.8463263" lon="13.2002195"><ele>868.0</ele><time>2026-04-26T14:09:36.944Z</time></trkpt><trkpt lat="41.8463597" lon="13.199988"><ele>866.0</ele><time>2026-04-26T14:09:37.953Z</time></trkpt><trkpt lat="41.8464024" lon="13.1997544"><ele>864.0</ele><time>2026-04-26T14:09:38.951Z</time></trkpt><trkpt lat="41.8464373" lon="13.1995205"><ele>862.0</ele><time>2026-04-26T14:09:39.95Z</time></trkpt><trkpt lat="41.8464704" lon="13.1992897"><ele>862.0</ele><time>2026-04-26T14:09:40.954Z</time></trkpt><trkpt lat="41.8465024" lon="13.19907"><ele>862.0</ele><time>2026-04-26T14:09:41.952Z</time></trkpt><trkpt lat="41.8465378" lon="13.1988461"><ele>862.0</ele><time>2026-04-26T14:09:42.955Z</time></trkpt><trkpt lat="41.8465706" lon="13.1986241"><ele>862.0</ele><time>2026-04-26T14:09:43.95Z</time></trkpt><trkpt lat="41.8466017" lon="13.1984068"><ele>862.0</ele><time>2026-04-26T14:09:44.956Z</time></trkpt><trkpt lat="41.8466327" lon="13.198191"><ele>862.0</ele><time>2026-04-26T14:09:45.952Z</time></trkpt><trkpt lat="41.846663" lon="13.1979737"><ele>862.0</ele><time>2026-04-26T14:09:46.949Z</time></trkpt><trkpt lat="41.8466927" lon="13.1977602"><ele>862.0</ele><time>2026-04-26T14:09:47.952Z</time></trkpt><trkpt lat="41.8467257" lon="13.1975524"><ele>862.0</ele><time>2026-04-26T14:09:48.954Z</time></trkpt><trkpt lat="41.8467548" lon="13.1973417"><ele>860.6666666666666</ele><time>2026-04-26T14:09:49.953Z</time></trkpt><trkpt lat="41.8467806" lon="13.1971243"><ele>859.3333333333333</ele><time>2026-04-26T14:09:50.948Z</time></trkpt><trkpt lat="41.8468122" lon="13.1969089"><ele>858.0</ele><time>2026-04-26T14:09:51.956Z</time></trkpt><trkpt lat="41.8468388" lon="13.1967009"><ele>856.25</ele><time>2026-04-26T14:09:52.948Z</time></trkpt><trkpt lat="41.8468652" lon="13.196501"><ele>854.5</ele><time>2026-04-26T14:09:53.956Z</time></trkpt><trkpt lat="41.8468947" lon="13.1963089"><ele>852.75</ele><time>2026-04-26T14:09:54.953Z</time></trkpt><trkpt lat="41.8469248" lon="13.1961244"><ele>851.0</ele><time>2026-04-26T14:09:55.955Z</time></trkpt><trkpt lat="41.8469729" lon="13.1959435"><ele>851.0</ele><time>2026-04-26T14:09:56.948Z</time></trkpt><trkpt lat="41.8470404" lon="13.1957689"><ele>851.0</ele><time>2026-04-26T14:09:57.969Z</time></trkpt><trkpt lat="41.8471172" lon="13.1956024"><ele>851.0</ele><time>2026-04-26T14:09:58.954Z</time></trkpt><trkpt lat="41.8471966" lon="13.1954431"><ele>851.0</ele><time>2026-04-26T14:09:59.962Z</time></trkpt><trkpt lat="41.8472752" lon="13.1952907"><ele>851.4</ele><time>2026-04-26T14:10:00.956Z</time></trkpt><trkpt lat="41.8473482" lon="13.1951523"><ele>851.8</ele><time>2026-04-26T14:10:01.962Z</time></trkpt><trkpt lat="41.8474154" lon="13.1950275"><ele>852.1999999999999</ele><time>2026-04-26T14:10:02.953Z</time></trkpt><trkpt lat="41.847473" lon="13.1949197"><ele>852.5999999999999</ele><time>2026-04-26T14:10:03.961Z</time></trkpt><trkpt lat="41.8475206" lon="13.194826"><ele>853.0</ele><time>2026-04-26T14:10:04.955Z</time></trkpt><trkpt lat="41.8475644" lon="13.1947345"><ele>852.9999999999999</ele><time>2026-04-26T14:10:05.96Z</time></trkpt><trkpt lat="41.847611" lon="13.1946454"><ele>853.0</ele><time>2026-04-26T14:10:06.952Z</time></trkpt><trkpt lat="41.8476606" lon="13.1945525"><ele>853.0</ele><time>2026-04-26T14:10:07.976Z</time></trkpt><trkpt lat="41.8477126" lon="13.1944544"><ele>853.0</ele><time>2026-04-26T14:10:08.95Z</time></trkpt><trkpt lat="41.8477631" lon="13.1943516"><ele>852.9999999999999</ele><time>2026-04-26T14:10:09.967Z</time></trkpt><trkpt lat="41.8478264" lon="13.1942474"><ele>853.0</ele><time>2026-04-26T14:10:10.959Z</time></trkpt><trkpt lat="41.8478838" lon="13.1941418"><ele>852.4</ele><time>2026-04-26T14:10:11.966Z</time></trkpt><trkpt lat="41.8479295" lon="13.1940353"><ele>851.8</ele><time>2026-04-26T14:10:12.947Z</time></trkpt><trkpt lat="41.8479725" lon="13.193942"><ele>851.2</ele><time>2026-04-26T14:10:13.956Z</time></trkpt><trkpt lat="41.8480147" lon="13.1938765"><ele>850.6</ele><time>2026-04-26T14:10:14.963Z</time></trkpt><trkpt lat="41.8480691" lon="13.1937799"><ele>850.0</ele><time>2026-04-26T14:10:16.948Z</time></trkpt><trkpt lat="41.8481353" lon="13.1936416"><ele>849.9999999999999</ele><time>2026-04-26T14:10:55.969Z</time></trkpt><trkpt lat="41.8480817" lon="13.193571"><ele>850.0</ele><time>2026-04-26T14:10:58.95Z</time></trkpt><trkpt lat="41.8480437" lon="13.1936972"><ele>850.0</ele><time>2026-04-26T14:11:01.95Z</time></trkpt><trkpt lat="41.8480087" lon="13.1937971"><ele>850.0</ele><time>2026-04-26T14:11:03.963Z</time></trkpt><trkpt lat="41.8479459" lon="13.1937854"><ele>849.9999999999999</ele><time>2026-04-26T14:24:22.926Z</time></trkpt><trkpt lat="41.8479362" lon="13.1938798"><ele>850.0</ele><time>2026-04-26T14:45:12.965Z</time></trkpt><trkpt lat="41.8480203" lon="13.1937933"><ele>849.9999999999999</ele><time>2026-04-26T14:45:15.961Z</time></trkpt><trkpt lat="41.8480622" lon="13.1937211"><ele>850.0</ele><time>2026-04-26T14:45:16.985Z</time></trkpt><trkpt lat="41.8480965" lon="13.1936397"><ele>850.0</ele><time>2026-04-26T14:45:17.973Z</time></trkpt><trkpt lat="41.8481322" lon="13.1935548"><ele>850.0</ele><time>2026-04-26T14:45:18.975Z</time></trkpt><trkpt lat="41.8481831" lon="13.1934652"><ele>849.9999999999999</ele><time>2026-04-26T14:45:19.962Z</time></trkpt><trkpt lat="41.848251" lon="13.1933849"><ele>850.0</ele><time>2026-04-26T14:45:20.972Z</time></trkpt><trkpt lat="41.8483353" lon="13.1933266"><ele>850.0</ele><time>2026-04-26T14:45:21.965Z</time></trkpt><trkpt lat="41.8484376" lon="13.1932898"><ele>850.0</ele><time>2026-04-26T14:45:22.959Z</time></trkpt><trkpt lat="41.8485551" lon="13.1932662"><ele>850.0</ele><time>2026-04-26T14:45:23.961Z</time></trkpt><trkpt lat="41.8486774" lon="13.1932437"><ele>850.0</ele><time>2026-04-26T14:45:24.963Z</time></trkpt><trkpt lat="41.8488028" lon="13.1932245"><ele>849.6</ele><time>2026-04-26T14:45:25.981Z</time></trkpt><trkpt lat="41.8489153" lon="13.1932051"><ele>849.2</ele><time>2026-04-26T14:45:26.977Z</time></trkpt><trkpt lat="41.8490194" lon="13.1931881"><ele>848.8</ele><time>2026-04-26T14:45:27.96Z</time></trkpt><trkpt lat="41.8491148" lon="13.1931668"><ele>848.4</ele><time>2026-04-26T14:45:28.966Z</time></trkpt><trkpt lat="41.8492078" lon="13.1931459"><ele>848.0</ele><time>2026-04-26T14:45:29.963Z</time></trkpt><trkpt lat="41.8492829" lon="13.1930903"><ele>848.4</ele><time>2026-04-26T14:45:30.969Z</time></trkpt><trkpt lat="41.8493427" lon="13.1930103"><ele>848.8</ele><time>2026-04-26T14:45:31.975Z</time></trkpt><trkpt lat="41.849379" lon="13.1929038"><ele>849.2</ele><time>2026-04-26T14:45:32.961Z</time></trkpt><trkpt lat="41.8494007" lon="13.1927822"><ele>849.6</ele><time>2026-04-26T14:45:33.955Z</time></trkpt><trkpt lat="41.8494169" lon="13.1926474"><ele>850.0</ele><time>2026-04-26T14:45:34.962Z</time></trkpt><trkpt lat="41.8494346" lon="13.1925065"><ele>850.0</ele><time>2026-04-26T14:45:35.965Z</time></trkpt><trkpt lat="41.8494578" lon="13.1923613"><ele>850.0</ele><time>2026-04-26T14:45:36.957Z</time></trkpt><trkpt lat="41.849483" lon="13.1922102"><ele>850.0</ele><time>2026-04-26T14:45:37.957Z</time></trkpt><trkpt lat="41.8495099" lon="13.1920548"><ele>850.0</ele><time>2026-04-26T14:45:38.956Z</time></trkpt><trkpt lat="41.8495375" lon="13.1918996"><ele>849.5</ele><time>2026-04-26T14:45:39.957Z</time></trkpt><trkpt lat="41.8495631" lon="13.19174"><ele>849.0</ele><time>2026-04-26T14:45:40.963Z</time></trkpt><trkpt lat="41.8495858" lon="13.1915786"><ele>848.5</ele><time>2026-04-26T14:45:41.964Z</time></trkpt><trkpt lat="41.8496088" lon="13.1914149"><ele>848.0</ele><time>2026-04-26T14:45:42.956Z</time></trkpt><trkpt lat="41.8496344" lon="13.191249"><ele>847.75</ele><time>2026-04-26T14:45:43.956Z</time></trkpt><trkpt lat="41.8496593" lon="13.1910789"><ele>847.5</ele><time>2026-04-26T14:45:44.966Z</time></trkpt><trkpt lat="41.8496851" lon="13.1909038"><ele>847.25</ele><time>2026-04-26T14:45:45.963Z</time></trkpt><trkpt lat="41.8497106" lon="13.1907327"><ele>847.0</ele><time>2026-04-26T14:45:46.973Z</time></trkpt><trkpt lat="41.8497363" lon="13.1905614"><ele>847.0</ele><time>2026-04-26T14:45:47.955Z</time></trkpt><trkpt lat="41.8497641" lon="13.1903951"><ele>847.0</ele><time>2026-04-26T14:45:48.959Z</time></trkpt><trkpt lat="41.8497955" lon="13.1902331"><ele>847.0</ele><time>2026-04-26T14:45:49.964Z</time></trkpt><trkpt lat="41.8498328" lon="13.1900708"><ele>847.0</ele><time>2026-04-26T14:45:50.97Z</time></trkpt><trkpt lat="41.8498762" lon="13.1899072"><ele>847.0</ele><time>2026-04-26T14:45:51.961Z</time></trkpt><trkpt lat="41.8499213" lon="13.1897415"><ele>847.0</ele><time>2026-04-26T14:45:52.953Z</time></trkpt><trkpt lat="41.8499635" lon="13.1895724"><ele>847.0</ele><time>2026-04-26T14:45:53.973Z</time></trkpt><trkpt lat="41.8500086" lon="13.189406"><ele>847.0</ele><time>2026-04-26T14:45:54.975Z</time></trkpt><trkpt lat="41.8500569" lon="13.1892388"><ele>847.0</ele><time>2026-04-26T14:45:55.955Z</time></trkpt><trkpt lat="41.8501042" lon="13.1890662"><ele>847.0</ele><time>2026-04-26T14:45:56.96Z</time></trkpt><trkpt lat="41.8501522" lon="13.1888816"><ele>847.0</ele><time>2026-04-26T14:45:57.959Z</time></trkpt><trkpt lat="41.8502031" lon="13.1886926"><ele>847.0</ele><time>2026-04-26T14:45:58.953Z</time></trkpt><trkpt lat="41.8502549" lon="13.1885045"><ele>848.75</ele><time>2026-04-26T14:45:59.964Z</time></trkpt><trkpt lat="41.8503056" lon="13.188324"><ele>850.5</ele><time>2026-04-26T14:46:00.961Z</time></trkpt><trkpt lat="41.8503529" lon="13.1881564"><ele>852.25</ele><time>2026-04-26T14:46:01.963Z</time></trkpt><trkpt lat="41.8503967" lon="13.1880042"><ele>854.0</ele><time>2026-04-26T14:46:02.97Z</time></trkpt><trkpt lat="41.8504351" lon="13.1878655"><ele>854.0</ele><time>2026-04-26T14:46:03.965Z</time></trkpt><trkpt lat="41.8504729" lon="13.1877294"><ele>854.0</ele><time>2026-04-26T14:46:04.97Z</time></trkpt><trkpt lat="41.850512" lon="13.1875875"><ele>854.0</ele><time>2026-04-26T14:46:05.962Z</time></trkpt><trkpt lat="41.8505546" lon="13.187444"><ele>854.0</ele><time>2026-04-26T14:46:06.963Z</time></trkpt><trkpt lat="41.8505965" lon="13.1872977"><ele>853.0</ele><time>2026-04-26T14:46:07.964Z</time></trkpt><trkpt lat="41.8506384" lon="13.1871499"><ele>852.0</ele><time>2026-04-26T14:46:08.955Z</time></trkpt><trkpt lat="41.8506793" lon="13.1870003"><ele>851.0</ele><time>2026-04-26T14:46:09.972Z</time></trkpt><trkpt lat="41.8507219" lon="13.1868494"><ele>850.0</ele><time>2026-04-26T14:46:10.964Z</time></trkpt><trkpt lat="41.8507655" lon="13.1866994"><ele>850.0</ele><time>2026-04-26T14:46:11.959Z</time></trkpt><trkpt lat="41.8508064" lon="13.1865501"><ele>850.0</ele><time>2026-04-26T14:46:12.968Z</time></trkpt><trkpt lat="41.8508476" lon="13.1864003"><ele>850.0</ele><time>2026-04-26T14:46:13.968Z</time></trkpt><trkpt lat="41.8508873" lon="13.1862506"><ele>850.0</ele><time>2026-04-26T14:46:14.965Z</time></trkpt><trkpt lat="41.8509255" lon="13.1860999"><ele>852.0</ele><time>2026-04-26T14:46:15.96Z</time></trkpt><trkpt lat="41.8509635" lon="13.1859438"><ele>854.0</ele><time>2026-04-26T14:46:16.953Z</time></trkpt><trkpt lat="41.8509994" lon="13.1857718"><ele>856.0</ele><time>2026-04-26T14:46:17.967Z</time></trkpt><trkpt lat="41.8510341" lon="13.1855781"><ele>858.0</ele><time>2026-04-26T14:46:18.961Z</time></trkpt><trkpt lat="41.8510719" lon="13.1853689"><ele>859.3333333333333</ele><time>2026-04-26T14:46:19.965Z</time></trkpt><trkpt lat="41.8511106" lon="13.1851598"><ele>860.6666666666666</ele><time>2026-04-26T14:46:20.961Z</time></trkpt><trkpt lat="41.851151" lon="13.184949"><ele>862.0</ele><time>2026-04-26T14:46:21.964Z</time></trkpt><trkpt lat="41.8511866" lon="13.1847363"><ele>862.0</ele><time>2026-04-26T14:46:22.961Z</time></trkpt><trkpt lat="41.8512204" lon="13.1845203"><ele>862.0</ele><time>2026-04-26T14:46:23.958Z</time></trkpt><trkpt lat="41.8512531" lon="13.1843024"><ele>862.0</ele><time>2026-04-26T14:46:24.96Z</time></trkpt><trkpt lat="41.8512863" lon="13.1840795"><ele>860.3333333333333</ele><time>2026-04-26T14:46:25.959Z</time></trkpt><trkpt lat="41.8513213" lon="13.1838531"><ele>858.6666666666667</ele><time>2026-04-26T14:46:26.964Z</time></trkpt><trkpt lat="41.8513567" lon="13.183624"><ele>857.0</ele><time>2026-04-26T14:46:27.953Z</time></trkpt><trkpt lat="41.8513914" lon="13.1833919"><ele>854.0</ele><time>2026-04-26T14:46:28.957Z</time></trkpt><trkpt lat="41.8514276" lon="13.1831575"><ele>851.0</ele><time>2026-04-26T14:46:29.968Z</time></trkpt><trkpt lat="41.8514632" lon="13.1829249"><ele>848.0</ele><time>2026-04-26T14:46:30.963Z</time></trkpt><trkpt lat="41.8514975" lon="13.1826916"><ele>848.0</ele><time>2026-04-26T14:46:31.958Z</time></trkpt><trkpt lat="41.8515362" lon="13.1824623"><ele>848.0</ele><time>2026-04-26T14:46:32.958Z</time></trkpt><trkpt lat="41.851572" lon="13.1822293"><ele>848.0</ele><time>2026-04-26T14:46:33.97Z</time></trkpt><trkpt lat="41.8516075" lon="13.1819944"><ele>849.0</ele><time>2026-04-26T14:46:34.953Z</time></trkpt><trkpt lat="41.8516305" lon="13.181758"><ele>850.0</ele><time>2026-04-26T14:46:35.958Z</time></trkpt><trkpt lat="41.8516502" lon="13.1815249"><ele>851.0</ele><time>2026-04-26T14:46:36.96Z</time></trkpt><trkpt lat="41.8516661" lon="13.1812925"><ele>851.6666666666667</ele><time>2026-04-26T14:46:37.957Z</time></trkpt><trkpt lat="41.8516836" lon="13.1810662"><ele>852.3333333333333</ele><time>2026-04-26T14:46:38.957Z</time></trkpt><trkpt lat="41.8516987" lon="13.1808333"><ele>853.0</ele><time>2026-04-26T14:46:39.964Z</time></trkpt><trkpt lat="41.8517132" lon="13.180601"><ele>853.0</ele><time>2026-04-26T14:46:40.961Z</time></trkpt><trkpt lat="41.8517294" lon="13.1803666"><ele>853.0</ele><time>2026-04-26T14:46:41.972Z</time></trkpt><trkpt lat="41.8517458" lon="13.1801332"><ele>853.0</ele><time>2026-04-26T14:46:42.953Z</time></trkpt><trkpt lat="41.851761" lon="13.1798989"><ele>851.0</ele><time>2026-04-26T14:46:43.949Z</time></trkpt><trkpt lat="41.8517768" lon="13.1796686"><ele>849.0</ele><time>2026-04-26T14:46:44.956Z</time></trkpt><trkpt lat="41.8517923" lon="13.1794401"><ele>847.0</ele><time>2026-04-26T14:46:45.954Z</time></trkpt><trkpt lat="41.8518046" lon="13.179218"><ele>847.3333333333333</ele><time>2026-04-26T14:46:46.959Z</time></trkpt><trkpt lat="41.8518149" lon="13.1789993"><ele>847.6666666666667</ele><time>2026-04-26T14:46:47.964Z</time></trkpt><trkpt lat="41.8518296" lon="13.1787781"><ele>848.0</ele><time>2026-04-26T14:46:48.953Z</time></trkpt><trkpt lat="41.8518428" lon="13.1785562"><ele>848.0</ele><time>2026-04-26T14:46:49.963Z</time></trkpt><trkpt lat="41.8518538" lon="13.178331"><ele>848.0</ele><time>2026-04-26T14:46:50.953Z</time></trkpt><trkpt lat="41.8518661" lon="13.1781013"><ele>848.0</ele><time>2026-04-26T14:46:51.959Z</time></trkpt><trkpt lat="41.8518809" lon="13.1778685"><ele>848.3333333333334</ele><time>2026-04-26T14:46:52.958Z</time></trkpt><trkpt lat="41.8518931" lon="13.1776319"><ele>848.6666666666667</ele><time>2026-04-26T14:46:53.957Z</time></trkpt><trkpt lat="41.8519054" lon="13.1773931"><ele>849.0</ele><time>2026-04-26T14:46:54.967Z</time></trkpt><trkpt lat="41.8519147" lon="13.1771538"><ele>849.0</ele><time>2026-04-26T14:46:55.958Z</time></trkpt><trkpt lat="41.8519263" lon="13.1769079"><ele>849.0</ele><time>2026-04-26T14:46:56.97Z</time></trkpt><trkpt lat="41.8519561" lon="13.1766648"><ele>849.0</ele><time>2026-04-26T14:46:57.954Z</time></trkpt><trkpt lat="41.8519699" lon="13.1764338"><ele>848.5</ele><time>2026-04-26T14:46:58.959Z</time></trkpt><trkpt lat="41.8519888" lon="13.1762043"><ele>848.0</ele><time>2026-04-26T14:46:59.96Z</time></trkpt><trkpt lat="41.8520071" lon="13.1760334"><ele>847.5</ele><time>2026-04-26T14:47:00.959Z</time></trkpt><trkpt lat="41.8520205" lon="13.1758796"><ele>847.0</ele><time>2026-04-26T14:47:01.958Z</time></trkpt><trkpt lat="41.8520272" lon="13.175732"><ele>847.5</ele><time>2026-04-26T14:47:02.961Z</time></trkpt><trkpt lat="41.8520317" lon="13.1755948"><ele>848.0</ele><time>2026-04-26T14:47:03.96Z</time></trkpt><trkpt lat="41.8520354" lon="13.1754357"><ele>848.5</ele><time>2026-04-26T14:47:04.955Z</time></trkpt><trkpt lat="41.8520457" lon="13.17527"><ele>849.0</ele><time>2026-04-26T14:47:05.974Z</time></trkpt><trkpt lat="41.8520546" lon="13.1750945"><ele>849.0</ele><time>2026-04-26T14:47:06.958Z</time></trkpt><trkpt lat="41.8520699" lon="13.1749135"><ele>849.0</ele><time>2026-04-26T14:47:07.962Z</time></trkpt><trkpt lat="41.8520835" lon="13.1747195"><ele>849.0</ele><time>2026-04-26T14:47:08.957Z</time></trkpt><trkpt lat="41.8520952" lon="13.1745218"><ele>849.0</ele><time>2026-04-26T14:47:09.966Z</time></trkpt><trkpt lat="41.8521062" lon="13.1743198"><ele>848.0</ele><time>2026-04-26T14:47:10.964Z</time></trkpt><trkpt lat="41.8521173" lon="13.1741125"><ele>847.0</ele><time>2026-04-26T14:47:11.964Z</time></trkpt><trkpt lat="41.8521392" lon="13.1738953"><ele>846.0</ele><time>2026-04-26T14:47:12.976Z</time></trkpt><trkpt lat="41.8521515" lon="13.1736802"><ele>844.6666666666667</ele><time>2026-04-26T14:47:13.966Z</time></trkpt><trkpt lat="41.8521633" lon="13.173462"><ele>843.3333333333334</ele><time>2026-04-26T14:47:14.972Z</time></trkpt><trkpt lat="41.8521746" lon="13.1732356"><ele>842.0</ele><time>2026-04-26T14:47:15.961Z</time></trkpt><trkpt lat="41.8521875" lon="13.1730087"><ele>841.3333333333334</ele><time>2026-04-26T14:47:16.948Z</time></trkpt><trkpt lat="41.8522064" lon="13.1727816"><ele>840.6666666666667</ele><time>2026-04-26T14:47:17.954Z</time></trkpt><trkpt lat="41.8522229" lon="13.1725506"><ele>840.0</ele><time>2026-04-26T14:47:18.962Z</time></trkpt><trkpt lat="41.8522367" lon="13.1723198"><ele>840.0</ele><time>2026-04-26T14:47:19.961Z</time></trkpt><trkpt lat="41.8522493" lon="13.1720865"><ele>840.0</ele><time>2026-04-26T14:47:20.956Z</time></trkpt><trkpt lat="41.8522619" lon="13.1718513"><ele>840.0</ele><time>2026-04-26T14:47:21.955Z</time></trkpt><trkpt lat="41.8522757" lon="13.171617"><ele>840.0</ele><time>2026-04-26T14:47:22.957Z</time></trkpt><trkpt lat="41.8522921" lon="13.1713816"><ele>840.0</ele><time>2026-04-26T14:47:23.956Z</time></trkpt><trkpt lat="41.8523087" lon="13.1711478"><ele>840.0</ele><time>2026-04-26T14:47:24.958Z</time></trkpt><trkpt lat="41.8523293" lon="13.1709145"><ele>839.0</ele><time>2026-04-26T14:47:25.956Z</time></trkpt><trkpt lat="41.8523545" lon="13.1706823"><ele>838.0</ele><time>2026-04-26T14:47:26.956Z</time></trkpt><trkpt lat="41.8523827" lon="13.1704538"><ele>837.0</ele><time>2026-04-26T14:47:27.959Z</time></trkpt><trkpt lat="41.8524131" lon="13.1702271"><ele>837.0</ele><time>2026-04-26T14:47:28.956Z</time></trkpt><trkpt lat="41.8524407" lon="13.1700035"><ele>837.0</ele><time>2026-04-26T14:47:29.955Z</time></trkpt><trkpt lat="41.8524753" lon="13.1697745"><ele>837.0</ele><time>2026-04-26T14:47:30.969Z</time></trkpt><trkpt lat="41.8525194" lon="13.169539"><ele>836.6666666666667</ele><time>2026-04-26T14:47:31.964Z</time></trkpt><trkpt lat="41.8525578" lon="13.1693072"><ele>836.3333333333334</ele><time>2026-04-26T14:47:32.962Z</time></trkpt><trkpt lat="41.8525926" lon="13.1690736"><ele>836.0</ele><time>2026-04-26T14:47:33.971Z</time></trkpt><trkpt lat="41.8526273" lon="13.1688427"><ele>835.6666666666667</ele><time>2026-04-26T14:47:34.949Z</time></trkpt><trkpt lat="41.8526644" lon="13.1686148"><ele>835.3333333333333</ele><time>2026-04-26T14:47:35.952Z</time></trkpt><trkpt lat="41.8526996" lon="13.168385"><ele>835.0</ele><time>2026-04-26T14:47:36.953Z</time></trkpt><trkpt lat="41.8527356" lon="13.1681597"><ele>835.0</ele><time>2026-04-26T14:47:37.959Z</time></trkpt><trkpt lat="41.8527699" lon="13.167943"><ele>835.0</ele><time>2026-04-26T14:47:38.95Z</time></trkpt><trkpt lat="41.8528014" lon="13.167735"><ele>835.0</ele><time>2026-04-26T14:47:39.97Z</time></trkpt><trkpt lat="41.852833" lon="13.1675319"><ele>835.25</ele><time>2026-04-26T14:47:40.963Z</time></trkpt><trkpt lat="41.8528635" lon="13.1673367"><ele>835.5</ele><time>2026-04-26T14:47:41.955Z</time></trkpt><trkpt lat="41.8528913" lon="13.1671569"><ele>835.75</ele><time>2026-04-26T14:47:42.956Z</time></trkpt><trkpt lat="41.8529174" lon="13.1669841"><ele>836.0</ele><time>2026-04-26T14:47:43.953Z</time></trkpt><trkpt lat="41.8529414" lon="13.1668287"><ele>836.0</ele><time>2026-04-26T14:47:44.963Z</time></trkpt><trkpt lat="41.8529596" lon="13.1666883"><ele>836.0</ele><time>2026-04-26T14:47:45.972Z</time></trkpt><trkpt lat="41.8529733" lon="13.1665485"><ele>836.0</ele><time>2026-04-26T14:47:46.963Z</time></trkpt><trkpt lat="41.8529879" lon="13.1663957"><ele>836.0</ele><time>2026-04-26T14:47:47.96Z</time></trkpt><trkpt lat="41.8530128" lon="13.1662157"><ele>835.6666666666667</ele><time>2026-04-26T14:47:48.965Z</time></trkpt><trkpt lat="41.8530479" lon="13.1659989"><ele>835.3333333333333</ele><time>2026-04-26T14:47:49.97Z</time></trkpt><trkpt lat="41.8530889" lon="13.1657615"><ele>835.0</ele><time>2026-04-26T14:47:50.962Z</time></trkpt><trkpt lat="41.8531341" lon="13.1655222"><ele>834.6666666666666</ele><time>2026-04-26T14:47:51.968Z</time></trkpt><trkpt lat="41.8531799" lon="13.1652792"><ele>834.3333333333333</ele><time>2026-04-26T14:47:52.97Z</time></trkpt><trkpt lat="41.8532212" lon="13.1650322"><ele>834.0</ele><time>2026-04-26T14:47:53.958Z</time></trkpt><trkpt lat="41.8532592" lon="13.1647824"><ele>835.0</ele><time>2026-04-26T14:47:54.97Z</time></trkpt><trkpt lat="41.8532995" lon="13.1645327"><ele>836.0</ele><time>2026-04-26T14:47:55.964Z</time></trkpt><trkpt lat="41.8533393" lon="13.1642844"><ele>837.0</ele><time>2026-04-26T14:47:56.968Z</time></trkpt><trkpt lat="41.8533772" lon="13.1640399"><ele>837.0</ele><time>2026-04-26T14:47:57.965Z</time></trkpt><trkpt lat="41.8534149" lon="13.1638012"><ele>837.0</ele><time>2026-04-26T14:47:58.963Z</time></trkpt><trkpt lat="41.8534526" lon="13.1635645"><ele>837.0</ele><time>2026-04-26T14:47:59.969Z</time></trkpt><trkpt lat="41.85349" lon="13.16333"><ele>838.3333333333333</ele><time>2026-04-26T14:48:00.959Z</time></trkpt><trkpt lat="41.8535288" lon="13.1630976"><ele>839.6666666666666</ele><time>2026-04-26T14:48:01.959Z</time></trkpt><trkpt lat="41.8535677" lon="13.1628692"><ele>841.0</ele><time>2026-04-26T14:48:02.964Z</time></trkpt><trkpt lat="41.8536047" lon="13.1626464"><ele>841.0</ele><time>2026-04-26T14:48:03.965Z</time></trkpt><trkpt lat="41.8536399" lon="13.1624292"><ele>841.0</ele><time>2026-04-26T14:48:04.969Z</time></trkpt><trkpt lat="41.8536738" lon="13.1622153"><ele>841.0</ele><time>2026-04-26T14:48:05.964Z</time></trkpt><trkpt lat="41.8537071" lon="13.1620013"><ele>842.6666666666666</ele><time>2026-04-26T14:48:06.972Z</time></trkpt><trkpt lat="41.8537404" lon="13.161785"><ele>844.3333333333333</ele><time>2026-04-26T14:48:07.968Z</time></trkpt><trkpt lat="41.8537755" lon="13.1615673"><ele>846.0</ele><time>2026-04-26T14:48:08.968Z</time></trkpt><trkpt lat="41.8538105" lon="13.161346"><ele>846.3333333333333</ele><time>2026-04-26T14:48:09.956Z</time></trkpt><trkpt lat="41.8538478" lon="13.1611233"><ele>846.6666666666666</ele><time>2026-04-26T14:48:10.969Z</time></trkpt><trkpt lat="41.8538874" lon="13.1608999"><ele>847.0</ele><time>2026-04-26T14:48:11.964Z</time></trkpt><trkpt lat="41.853925" lon="13.1606761"><ele>847.0</ele><time>2026-04-26T14:48:12.97Z</time></trkpt><trkpt lat="41.8539638" lon="13.1604533"><ele>847.0</ele><time>2026-04-26T14:48:13.971Z</time></trkpt><trkpt lat="41.8540116" lon="13.1602368"><ele>847.0</ele><time>2026-04-26T14:48:14.956Z</time></trkpt><trkpt lat="41.8540712" lon="13.1600281"><ele>846.6666666666666</ele><time>2026-04-26T14:48:15.984Z</time></trkpt><trkpt lat="41.8541372" lon="13.1598231"><ele>846.3333333333333</ele><time>2026-04-26T14:48:16.96Z</time></trkpt><trkpt lat="41.8542049" lon="13.1596176"><ele>846.0</ele><time>2026-04-26T14:48:17.954Z</time></trkpt><trkpt lat="41.8542738" lon="13.1594114"><ele>848.3333333333333</ele><time>2026-04-26T14:48:18.963Z</time></trkpt><trkpt lat="41.8543445" lon="13.1592033"><ele>850.6666666666666</ele><time>2026-04-26T14:48:19.965Z</time></trkpt><trkpt lat="41.8544164" lon="13.1589907"><ele>853.0</ele><time>2026-04-26T14:48:20.963Z</time></trkpt><trkpt lat="41.854491" lon="13.1587747"><ele>853.0</ele><time>2026-04-26T14:48:21.965Z</time></trkpt><trkpt lat="41.8545684" lon="13.1585527"><ele>853.0</ele><time>2026-04-26T14:48:22.962Z</time></trkpt><trkpt lat="41.8546432" lon="13.1583357"><ele>853.0</ele><time>2026-04-26T14:48:23.967Z</time></trkpt><trkpt lat="41.8547118" lon="13.1581311"><ele>851.75</ele><time>2026-04-26T14:48:24.963Z</time></trkpt><trkpt lat="41.8547772" lon="13.15794"><ele>850.5</ele><time>2026-04-26T14:48:25.961Z</time></trkpt><trkpt lat="41.8548377" lon="13.157761"><ele>849.25</ele><time>2026-04-26T14:48:26.957Z</time></trkpt><trkpt lat="41.8548953" lon="13.157593"><ele>848.0</ele><time>2026-04-26T14:48:27.953Z</time></trkpt><trkpt lat="41.8549464" lon="13.1574338"><ele>846.75</ele><time>2026-04-26T14:48:28.955Z</time></trkpt><trkpt lat="41.8549914" lon="13.1572718"><ele>845.5</ele><time>2026-04-26T14:48:29.967Z</time></trkpt><trkpt lat="41.8550304" lon="13.157095"><ele>844.25</ele><time>2026-04-26T14:48:30.963Z</time></trkpt><trkpt lat="41.8550634" lon="13.1569031"><ele>843.0</ele><time>2026-04-26T14:48:31.953Z</time></trkpt><trkpt lat="41.855091" lon="13.1566971"><ele>843.3333333333333</ele><time>2026-04-26T14:48:32.964Z</time></trkpt><trkpt lat="41.8551142" lon="13.1564808"><ele>843.6666666666666</ele><time>2026-04-26T14:48:34.014Z</time></trkpt><trkpt lat="41.8551345" lon="13.1562476"><ele>844.0</ele><time>2026-04-26T14:48:34.996Z</time></trkpt><trkpt lat="41.8551573" lon="13.1560098"><ele>847.6666666666666</ele><time>2026-04-26T14:48:35.964Z</time></trkpt><trkpt lat="41.8551924" lon="13.1557778"><ele>851.3333333333333</ele><time>2026-04-26T14:48:36.968Z</time></trkpt><trkpt lat="41.8552407" lon="13.1555506"><ele>855.0</ele><time>2026-04-26T14:48:37.976Z</time></trkpt><trkpt lat="41.8552993" lon="13.1553269"><ele>855.0</ele><time>2026-04-26T14:48:38.987Z</time></trkpt><trkpt lat="41.8553709" lon="13.1551092"><ele>855.0</ele><time>2026-04-26T14:48:39.966Z</time></trkpt><trkpt lat="41.8554535" lon="13.1549011"><ele>855.0</ele><time>2026-04-26T14:48:40.959Z</time></trkpt><trkpt lat="41.8555375" lon="13.1546985"><ele>854.0</ele><time>2026-04-26T14:48:41.967Z</time></trkpt><trkpt lat="41.8556137" lon="13.1544908"><ele>853.0</ele><time>2026-04-26T14:48:42.977Z</time></trkpt><trkpt lat="41.8556796" lon="13.1542755"><ele>852.0</ele><time>2026-04-26T14:48:43.971Z</time></trkpt><trkpt lat="41.8557346" lon="13.1540532"><ele>851.0</ele><time>2026-04-26T14:48:44.957Z</time></trkpt><trkpt lat="41.8557799" lon="13.1538281"><ele>850.0</ele><time>2026-04-26T14:48:45.966Z</time></trkpt><trkpt lat="41.8558155" lon="13.1536064"><ele>849.0</ele><time>2026-04-26T14:48:46.966Z</time></trkpt><trkpt lat="41.8558559" lon="13.1534093"><ele>849.0</ele><time>2026-04-26T14:48:47.961Z</time></trkpt><trkpt lat="41.8558786" lon="13.1532036"><ele>849.0</ele><time>2026-04-26T14:48:48.965Z</time></trkpt><trkpt lat="41.8559054" lon="13.1530131"><ele>849.0</ele><time>2026-04-26T14:48:49.981Z</time></trkpt><trkpt lat="41.8559456" lon="13.1528496"><ele>849.0</ele><time>2026-04-26T14:48:50.987Z</time></trkpt><trkpt lat="41.8560135" lon="13.1527128"><ele>848.75</ele><time>2026-04-26T14:48:51.969Z</time></trkpt><trkpt lat="41.8561081" lon="13.1525989"><ele>848.5</ele><time>2026-04-26T14:48:52.966Z</time></trkpt><trkpt lat="41.8562206" lon="13.1525083"><ele>848.25</ele><time>2026-04-26T14:48:53.965Z</time></trkpt><trkpt lat="41.8563506" lon="13.1524308"><ele>848.0</ele><time>2026-04-26T14:48:54.961Z</time></trkpt><trkpt lat="41.8564913" lon="13.1523435"><ele>848.0</ele><time>2026-04-26T14:48:55.973Z</time></trkpt><trkpt lat="41.8566325" lon="13.1522319"><ele>848.0</ele><time>2026-04-26T14:48:56.973Z</time></trkpt><trkpt lat="41.8567766" lon="13.1521049"><ele>848.0</ele><time>2026-04-26T14:48:57.971Z</time></trkpt><trkpt lat="41.8569229" lon="13.1519699"><ele>846.6666666666667</ele><time>2026-04-26T14:48:58.976Z</time></trkpt><trkpt lat="41.8570704" lon="13.1518336"><ele>845.3333333333333</ele><time>2026-04-26T14:48:59.972Z</time></trkpt><trkpt lat="41.8572115" lon="13.1516899"><ele>844.0</ele><time>2026-04-26T14:49:00.969Z</time></trkpt><trkpt lat="41.8573381" lon="13.1515295"><ele>844.0</ele><time>2026-04-26T14:49:01.966Z</time></trkpt><trkpt lat="41.8574488" lon="13.1513446"><ele>844.0</ele><time>2026-04-26T14:49:02.957Z</time></trkpt><trkpt lat="41.8575489" lon="13.1511407"><ele>844.0</ele><time>2026-04-26T14:49:03.955Z</time></trkpt><trkpt lat="41.8576418" lon="13.1509239"><ele>842.3333333333333</ele><time>2026-04-26T14:49:04.959Z</time></trkpt><trkpt lat="41.8577354" lon="13.1507014"><ele>840.6666666666667</ele><time>2026-04-26T14:49:05.963Z</time></trkpt><trkpt lat="41.8578309" lon="13.1504727"><ele>839.0</ele><time>2026-04-26T14:49:06.956Z</time></trkpt><trkpt lat="41.8579279" lon="13.150237"><ele>839.0</ele><time>2026-04-26T14:49:07.971Z</time></trkpt><trkpt lat="41.8580258" lon="13.1499958"><ele>839.0</ele><time>2026-04-26T14:49:08.957Z</time></trkpt><trkpt lat="41.8581275" lon="13.1497499"><ele>839.0</ele><time>2026-04-26T14:49:09.959Z</time></trkpt><trkpt lat="41.8582316" lon="13.1495002"><ele>838.0</ele><time>2026-04-26T14:49:10.958Z</time></trkpt><trkpt lat="41.8583378" lon="13.1492473"><ele>837.0</ele><time>2026-04-26T14:49:11.961Z</time></trkpt><trkpt lat="41.8584456" lon="13.1489913"><ele>836.0</ele><time>2026-04-26T14:49:12.963Z</time></trkpt><trkpt lat="41.8585527" lon="13.1487336"><ele>836.0</ele><time>2026-04-26T14:49:13.968Z</time></trkpt><trkpt lat="41.8586595" lon="13.1484748"><ele>836.0</ele><time>2026-04-26T14:49:14.959Z</time></trkpt><trkpt lat="41.8587662" lon="13.1482156"><ele>836.0</ele><time>2026-04-26T14:49:15.969Z</time></trkpt><trkpt lat="41.8588726" lon="13.1479546"><ele>834.3333333333334</ele><time>2026-04-26T14:49:16.967Z</time></trkpt><trkpt lat="41.8589811" lon="13.147695"><ele>832.6666666666667</ele><time>2026-04-26T14:49:17.953Z</time></trkpt><trkpt lat="41.8590896" lon="13.1474426"><ele>831.0</ele><time>2026-04-26T14:49:18.959Z</time></trkpt><trkpt lat="41.8591959" lon="13.1471961"><ele>830.0</ele><time>2026-04-26T14:49:19.959Z</time></trkpt><trkpt lat="41.8592987" lon="13.146956"><ele>829.0</ele><time>2026-04-26T14:49:20.961Z</time></trkpt><trkpt lat="41.8593936" lon="13.1467248"><ele>828.0</ele><time>2026-04-26T14:49:21.964Z</time></trkpt><trkpt lat="41.8594723" lon="13.146495"><ele>828.0</ele><time>2026-04-26T14:49:22.958Z</time></trkpt><trkpt lat="41.8595284" lon="13.1462552"><ele>828.0</ele><time>2026-04-26T14:49:23.96Z</time></trkpt><trkpt lat="41.8595627" lon="13.146007"><ele>828.0</ele><time>2026-04-26T14:49:24.955Z</time></trkpt><trkpt lat="41.8595862" lon="13.1457547"><ele>826.3333333333333</ele><time>2026-04-26T14:49:25.967Z</time></trkpt><trkpt lat="41.8596058" lon="13.1455006"><ele>824.6666666666666</ele><time>2026-04-26T14:49:26.959Z</time></trkpt><trkpt lat="41.8596291" lon="13.1452533"><ele>823.0</ele><time>2026-04-26T14:49:27.953Z</time></trkpt><trkpt lat="41.8596645" lon="13.1450247"><ele>822.0</ele><time>2026-04-26T14:49:28.958Z</time></trkpt><trkpt lat="41.8597212" lon="13.1448098"><ele>821.0</ele><time>2026-04-26T14:49:29.96Z</time></trkpt><trkpt lat="41.8597936" lon="13.1445958"><ele>820.0</ele><time>2026-04-26T14:49:30.959Z</time></trkpt><trkpt lat="41.8598725" lon="13.1443748"><ele>820.0</ele><time>2026-04-26T14:49:31.957Z</time></trkpt><trkpt lat="41.8599535" lon="13.1441453"><ele>820.0</ele><time>2026-04-26T14:49:32.958Z</time></trkpt><trkpt lat="41.8600384" lon="13.1439091"><ele>820.0</ele><time>2026-04-26T14:49:33.959Z</time></trkpt><trkpt lat="41.8601254" lon="13.143668"><ele>820.6666666666666</ele><time>2026-04-26T14:49:34.965Z</time></trkpt><trkpt lat="41.8602138" lon="13.1434262"><ele>821.3333333333333</ele><time>2026-04-26T14:49:35.962Z</time></trkpt><trkpt lat="41.8603079" lon="13.1431901"><ele>822.0</ele><time>2026-04-26T14:49:36.96Z</time></trkpt><trkpt lat="41.8604084" lon="13.1429604"><ele>820.6666666666667</ele><time>2026-04-26T14:49:37.956Z</time></trkpt><trkpt lat="41.8605029" lon="13.1427274"><ele>819.3333333333334</ele><time>2026-04-26T14:49:38.964Z</time></trkpt><trkpt lat="41.8605758" lon="13.1424783"><ele>818.0</ele><time>2026-04-26T14:49:39.968Z</time></trkpt><trkpt lat="41.8606242" lon="13.1422147"><ele>815.3333333333334</ele><time>2026-04-26T14:49:40.966Z</time></trkpt><trkpt lat="41.8606523" lon="13.1419405"><ele>812.6666666666667</ele><time>2026-04-26T14:49:41.964Z</time></trkpt><trkpt lat="41.8606664" lon="13.1416605"><ele>810.0</ele><time>2026-04-26T14:49:42.965Z</time></trkpt><trkpt lat="41.8606731" lon="13.1413775"><ele>808.0</ele><time>2026-04-26T14:49:43.962Z</time></trkpt><trkpt lat="41.8606799" lon="13.1411073"><ele>806.0</ele><time>2026-04-26T14:49:44.959Z</time></trkpt><trkpt lat="41.8606745" lon="13.14084"><ele>804.0</ele><time>2026-04-26T14:49:45.97Z</time></trkpt><trkpt lat="41.8606676" lon="13.1405797"><ele>803.0</ele><time>2026-04-26T14:49:46.963Z</time></trkpt><trkpt lat="41.8606781" lon="13.1403204"><ele>802.0</ele><time>2026-04-26T14:49:47.965Z</time></trkpt><trkpt lat="41.8607055" lon="13.1400656"><ele>801.0</ele><time>2026-04-26T14:49:48.962Z</time></trkpt><trkpt lat="41.8607394" lon="13.1398076"><ele>800.0</ele><time>2026-04-26T14:49:49.965Z</time></trkpt><trkpt lat="41.8607723" lon="13.1395492"><ele>799.0</ele><time>2026-04-26T14:49:50.964Z</time></trkpt><trkpt lat="41.8608056" lon="13.1392911"><ele>798.0</ele><time>2026-04-26T14:49:51.974Z</time></trkpt><trkpt lat="41.8608403" lon="13.1390297"><ele>796.6666666666667</ele><time>2026-04-26T14:49:52.973Z</time></trkpt><trkpt lat="41.860872" lon="13.1387618"><ele>795.3333333333334</ele><time>2026-04-26T14:49:53.96Z</time></trkpt><trkpt lat="41.8609033" lon="13.1384904"><ele>794.0</ele><time>2026-04-26T14:49:54.96Z</time></trkpt><trkpt lat="41.8609376" lon="13.1382172"><ele>797.0</ele><time>2026-04-26T14:49:55.966Z</time></trkpt><trkpt lat="41.8609734" lon="13.1379449"><ele>800.0</ele><time>2026-04-26T14:49:56.956Z</time></trkpt><trkpt lat="41.8610066" lon="13.1376745"><ele>803.0</ele><time>2026-04-26T14:49:57.951Z</time></trkpt><trkpt lat="41.861042" lon="13.1374105"><ele>798.3333333333334</ele><time>2026-04-26T14:49:58.963Z</time></trkpt><trkpt lat="41.8610811" lon="13.1371501"><ele>793.6666666666667</ele><time>2026-04-26T14:49:59.962Z</time></trkpt><trkpt lat="41.8611278" lon="13.1369016"><ele>789.0</ele><time>2026-04-26T14:50:00.97Z</time></trkpt><trkpt lat="41.8611828" lon="13.1366626"><ele>785.3333333333333</ele><time>2026-04-26T14:50:01.961Z</time></trkpt><trkpt lat="41.8612451" lon="13.1364237"><ele>781.6666666666666</ele><time>2026-04-26T14:50:02.963Z</time></trkpt><trkpt lat="41.8613081" lon="13.1361818"><ele>778.0</ele><time>2026-04-26T14:50:03.96Z</time></trkpt><trkpt lat="41.8613712" lon="13.1359308"><ele>776.6666666666666</ele><time>2026-04-26T14:50:04.953Z</time></trkpt><trkpt lat="41.8614356" lon="13.1356729"><ele>775.3333333333333</ele><time>2026-04-26T14:50:05.952Z</time></trkpt><trkpt lat="41.8615012" lon="13.1354089"><ele>774.0</ele><time>2026-04-26T14:50:06.95Z</time></trkpt><trkpt lat="41.8615683" lon="13.1351389"><ele>773.3333333333333</ele><time>2026-04-26T14:50:07.952Z</time></trkpt><trkpt lat="41.8616368" lon="13.1348664"><ele>772.6666666666666</ele><time>2026-04-26T14:50:08.969Z</time></trkpt><trkpt lat="41.8617056" lon="13.1345934"><ele>772.0</ele><time>2026-04-26T14:50:09.963Z</time></trkpt><trkpt lat="41.8617714" lon="13.1343248"><ele>771.3333333333333</ele><time>2026-04-26T14:50:10.952Z</time></trkpt><trkpt lat="41.8618278" lon="13.1340601"><ele>770.6666666666667</ele><time>2026-04-26T14:50:11.964Z</time></trkpt><trkpt lat="41.861871" lon="13.1337891"><ele>770.0</ele><time>2026-04-26T14:50:12.963Z</time></trkpt><trkpt lat="41.8619101" lon="13.1335122"><ele>767.0</ele><time>2026-04-26T14:50:13.952Z</time></trkpt><trkpt lat="41.8619539" lon="13.1332308"><ele>764.0</ele><time>2026-04-26T14:50:14.96Z</time></trkpt><trkpt lat="41.8620015" lon="13.1329466"><ele>761.0</ele><time>2026-04-26T14:50:15.961Z</time></trkpt><trkpt lat="41.8620539" lon="13.1326605"><ele>759.0</ele><time>2026-04-26T14:50:16.951Z</time></trkpt><trkpt lat="41.8621132" lon="13.1323755"><ele>757.0</ele><time>2026-04-26T14:50:17.963Z</time></trkpt><trkpt lat="41.8621751" lon="13.1320932"><ele>755.0</ele><time>2026-04-26T14:50:18.955Z</time></trkpt><trkpt lat="41.8622374" lon="13.131816"><ele>756.0</ele><time>2026-04-26T14:50:19.963Z</time></trkpt><trkpt lat="41.8622981" lon="13.1315471"><ele>757.0</ele><time>2026-04-26T14:50:20.952Z</time></trkpt><trkpt lat="41.8623573" lon="13.1312894"><ele>758.0</ele><time>2026-04-26T14:50:21.963Z</time></trkpt><trkpt lat="41.8624125" lon="13.1310501"><ele>758.0</ele><time>2026-04-26T14:50:22.958Z</time></trkpt><trkpt lat="41.8624626" lon="13.130831"><ele>758.0</ele><time>2026-04-26T14:50:23.952Z</time></trkpt><trkpt lat="41.8625074" lon="13.1306345"><ele>758.0</ele><time>2026-04-26T14:50:24.952Z</time></trkpt><trkpt lat="41.8625477" lon="13.1304631"><ele>756.5999999999999</ele><time>2026-04-26T14:50:25.956Z</time></trkpt><trkpt lat="41.8625804" lon="13.1303246"><ele>755.1999999999999</ele><time>2026-04-26T14:50:26.96Z</time></trkpt><trkpt lat="41.8626383" lon="13.130217"><ele>753.8</ele><time>2026-04-26T14:50:27.968Z</time></trkpt><trkpt lat="41.8627217" lon="13.1301393"><ele>752.4</ele><time>2026-04-26T14:50:28.962Z</time></trkpt><trkpt lat="41.8628159" lon="13.1301129"><ele>751.0</ele><time>2026-04-26T14:50:29.976Z</time></trkpt><trkpt lat="41.8629277" lon="13.1301388"><ele>747.75</ele><time>2026-04-26T14:50:30.959Z</time></trkpt><trkpt lat="41.863041" lon="13.1302076"><ele>744.5</ele><time>2026-04-26T14:50:31.961Z</time></trkpt><trkpt lat="41.8631436" lon="13.1303231"><ele>741.25</ele><time>2026-04-26T14:50:32.956Z</time></trkpt><trkpt lat="41.8632393" lon="13.1304689"><ele>738.0</ele><time>2026-04-26T14:50:33.962Z</time></trkpt><trkpt lat="41.8633308" lon="13.1306216"><ele>738.5</ele><time>2026-04-26T14:50:34.96Z</time></trkpt><trkpt lat="41.8634246" lon="13.1307704"><ele>739.0</ele><time>2026-04-26T14:50:35.962Z</time></trkpt><trkpt lat="41.8635187" lon="13.1309074"><ele>739.5</ele><time>2026-04-26T14:50:36.965Z</time></trkpt><trkpt lat="41.8636168" lon="13.1310062"><ele>740.0</ele><time>2026-04-26T14:50:37.959Z</time></trkpt><trkpt lat="41.8637181" lon="13.1310596"><ele>740.0</ele><time>2026-04-26T14:50:38.953Z</time></trkpt><trkpt lat="41.8638099" lon="13.1310545"><ele>740.0</ele><time>2026-04-26T14:50:39.955Z</time></trkpt><trkpt lat="41.8638952" lon="13.1309968"><ele>740.0</ele><time>2026-04-26T14:50:40.963Z</time></trkpt><trkpt lat="41.863981" lon="13.1308992"><ele>740.0</ele><time>2026-04-26T14:50:41.973Z</time></trkpt><trkpt lat="41.8640771" lon="13.1307775"><ele>740.0</ele><time>2026-04-26T14:50:42.951Z</time></trkpt><trkpt lat="41.8641867" lon="13.1306396"><ele>737.6666666666666</ele><time>2026-04-26T14:50:43.956Z</time></trkpt><trkpt lat="41.8643089" lon="13.1304866"><ele>735.3333333333334</ele><time>2026-04-26T14:50:44.957Z</time></trkpt><trkpt lat="41.8644361" lon="13.1303247"><ele>733.0</ele><time>2026-04-26T14:50:45.953Z</time></trkpt><trkpt lat="41.8645671" lon="13.1301549"><ele>733.0</ele><time>2026-04-26T14:50:46.953Z</time></trkpt><trkpt lat="41.8647028" lon="13.1299793"><ele>733.0</ele><time>2026-04-26T14:50:47.972Z</time></trkpt><trkpt lat="41.8648415" lon="13.1298029"><ele>733.0</ele><time>2026-04-26T14:50:48.965Z</time></trkpt><trkpt lat="41.8649795" lon="13.12963"><ele>729.0</ele><time>2026-04-26T14:50:49.952Z</time></trkpt><trkpt lat="41.8651116" lon="13.1294642"><ele>725.0</ele><time>2026-04-26T14:50:50.951Z</time></trkpt><trkpt lat="41.8652355" lon="13.129308"><ele>721.0</ele><time>2026-04-26T14:50:51.963Z</time></trkpt><trkpt lat="41.8653513" lon="13.1291692"><ele>718.5</ele><time>2026-04-26T14:50:52.965Z</time></trkpt><trkpt lat="41.8654657" lon="13.1290534"><ele>716.0</ele><time>2026-04-26T14:50:53.954Z</time></trkpt><trkpt lat="41.8655873" lon="13.128972"><ele>713.5</ele><time>2026-04-26T14:50:54.957Z</time></trkpt><trkpt lat="41.8657222" lon="13.1289235"><ele>711.0</ele><time>2026-04-26T14:50:55.962Z</time></trkpt><trkpt lat="41.8658625" lon="13.1288847"><ele>710.5</ele><time>2026-04-26T14:50:56.957Z</time></trkpt><trkpt lat="41.866007" lon="13.1288568"><ele>710.0</ele><time>2026-04-26T14:50:57.956Z</time></trkpt><trkpt lat="41.8661565" lon="13.1288508"><ele>709.5</ele><time>2026-04-26T14:50:58.958Z</time></trkpt><trkpt lat="41.8663075" lon="13.1288692"><ele>709.0</ele><time>2026-04-26T14:50:59.956Z</time></trkpt><trkpt lat="41.8664599" lon="13.1289043"><ele>709.0</ele><time>2026-04-26T14:51:00.952Z</time></trkpt><trkpt lat="41.866615" lon="13.1289362"><ele>709.0</ele><time>2026-04-26T14:51:01.954Z</time></trkpt><trkpt lat="41.8667747" lon="13.1289547"><ele>709.0</ele><time>2026-04-26T14:51:02.958Z</time></trkpt><trkpt lat="41.866936" lon="13.128956"><ele>710.0</ele><time>2026-04-26T14:51:03.963Z</time></trkpt><trkpt lat="41.8670963" lon="13.1289343"><ele>711.0</ele><time>2026-04-26T14:51:04.957Z</time></trkpt><trkpt lat="41.8672536" lon="13.1288899"><ele>712.0</ele><time>2026-04-26T14:51:05.953Z</time></trkpt><trkpt lat="41.8674081" lon="13.1288206"><ele>712.0</ele><time>2026-04-26T14:51:06.96Z</time></trkpt><trkpt lat="41.8675548" lon="13.1287197"><ele>712.0</ele><time>2026-04-26T14:51:07.966Z</time></trkpt><trkpt lat="41.8676905" lon="13.1285866"><ele>712.0</ele><time>2026-04-26T14:51:08.955Z</time></trkpt><trkpt lat="41.8678134" lon="13.1284252"><ele>712.6666666666667</ele><time>2026-04-26T14:51:09.956Z</time></trkpt><trkpt lat="41.8679239" lon="13.1282368"><ele>713.3333333333334</ele><time>2026-04-26T14:51:10.959Z</time></trkpt><trkpt lat="41.8680186" lon="13.1280203"><ele>714.0</ele><time>2026-04-26T14:51:11.951Z</time></trkpt><trkpt lat="41.8680937" lon="13.1277721"><ele>714.0</ele><time>2026-04-26T14:51:12.955Z</time></trkpt><trkpt lat="41.8681465" lon="13.1274945"><ele>714.0</ele><time>2026-04-26T14:51:13.957Z</time></trkpt><trkpt lat="41.8681832" lon="13.1271939"><ele>714.0</ele><time>2026-04-26T14:51:14.951Z</time></trkpt><trkpt lat="41.868214" lon="13.1268771"><ele>708.5</ele><time>2026-04-26T14:51:15.965Z</time></trkpt><trkpt lat="41.8682437" lon="13.1265512"><ele>703.0</ele><time>2026-04-26T14:51:16.96Z</time></trkpt><trkpt lat="41.8682706" lon="13.1262196"><ele>703.0</ele><time>2026-04-26T14:51:17.964Z</time></trkpt><trkpt lat="41.8682958" lon="13.1258854"><ele>703.0</ele><time>2026-04-26T14:51:18.955Z</time></trkpt><trkpt lat="41.8683209" lon="13.1255527"><ele>701.5</ele><time>2026-04-26T14:51:19.96Z</time></trkpt><trkpt lat="41.8683469" lon="13.1252222"><ele>700.0</ele><time>2026-04-26T14:51:20.957Z</time></trkpt><trkpt lat="41.8683727" lon="13.124896"><ele>700.0</ele><time>2026-04-26T14:51:21.964Z</time></trkpt><trkpt lat="41.8683979" lon="13.124573"><ele>700.0</ele><time>2026-04-26T14:51:22.959Z</time></trkpt><trkpt lat="41.8684234" lon="13.1242544"><ele>714.0</ele><time>2026-04-26T14:51:23.972Z</time></trkpt><trkpt lat="41.8684483" lon="13.123941"><ele>728.0</ele><time>2026-04-26T14:51:24.968Z</time></trkpt><trkpt lat="41.8684717" lon="13.1236332"><ele>728.0</ele><time>2026-04-26T14:51:25.968Z</time></trkpt><trkpt lat="41.8684926" lon="13.1233316"><ele>728.0</ele><time>2026-04-26T14:51:26.966Z</time></trkpt><trkpt lat="41.8685124" lon="13.1230421"><ele>728.0</ele><time>2026-04-26T14:51:27.965Z</time></trkpt><trkpt lat="41.868532" lon="13.1227671"><ele>724.3333333333333</ele><time>2026-04-26T14:51:28.965Z</time></trkpt><trkpt lat="41.8685606" lon="13.1225055"><ele>720.6666666666666</ele><time>2026-04-26T14:51:29.958Z</time></trkpt><trkpt lat="41.8686023" lon="13.12225"><ele>717.0</ele><time>2026-04-26T14:51:30.962Z</time></trkpt><trkpt lat="41.8686603" lon="13.1219986"><ele>711.6666666666666</ele><time>2026-04-26T14:51:31.956Z</time></trkpt><trkpt lat="41.8687363" lon="13.1217527"><ele>706.3333333333333</ele><time>2026-04-26T14:51:32.956Z</time></trkpt><trkpt lat="41.8688303" lon="13.1215155"><ele>701.0</ele><time>2026-04-26T14:51:33.961Z</time></trkpt><trkpt lat="41.8689428" lon="13.1212881"><ele>696.3333333333333</ele><time>2026-04-26T14:51:34.955Z</time></trkpt><trkpt lat="41.8690707" lon="13.1210721"><ele>691.6666666666666</ele><time>2026-04-26T14:51:35.962Z</time></trkpt><trkpt lat="41.8692028" lon="13.1208594"><ele>687.0</ele><time>2026-04-26T14:51:36.961Z</time></trkpt><trkpt lat="41.8693526" lon="13.120659"><ele>685.6666666666666</ele><time>2026-04-26T14:51:37.961Z</time></trkpt><trkpt lat="41.8695132" lon="13.1204651"><ele>684.3333333333333</ele><time>2026-04-26T14:51:38.964Z</time></trkpt><trkpt lat="41.8696782" lon="13.1202716"><ele>683.0</ele><time>2026-04-26T14:51:39.963Z</time></trkpt><trkpt lat="41.8698528" lon="13.1200805"><ele>681.5</ele><time>2026-04-26T14:51:40.961Z</time></trkpt><trkpt lat="41.8700307" lon="13.1198825"><ele>680.0</ele><time>2026-04-26T14:51:41.961Z</time></trkpt><trkpt lat="41.8702083" lon="13.1196945"><ele>680.0</ele><time>2026-04-26T14:51:42.949Z</time></trkpt><trkpt lat="41.8703919" lon="13.1195121"><ele>680.0</ele><time>2026-04-26T14:51:43.961Z</time></trkpt><trkpt lat="41.8705665" lon="13.1193414"><ele>680.0</ele><time>2026-04-26T14:51:44.959Z</time></trkpt><trkpt lat="41.8707293" lon="13.1191839"><ele>677.3333333333333</ele><time>2026-04-26T14:51:45.962Z</time></trkpt><trkpt lat="41.8708831" lon="13.1190429"><ele>674.6666666666666</ele><time>2026-04-26T14:51:46.957Z</time></trkpt><trkpt lat="41.8710384" lon="13.1189182"><ele>672.0</ele><time>2026-04-26T14:51:47.96Z</time></trkpt><trkpt lat="41.8712082" lon="13.1188033"><ele>672.0</ele><time>2026-04-26T14:51:48.966Z</time></trkpt><trkpt lat="41.8713877" lon="13.1186888"><ele>672.0</ele><time>2026-04-26T14:51:49.956Z</time></trkpt><trkpt lat="41.8715702" lon="13.1185761"><ele>672.0</ele><time>2026-04-26T14:51:50.959Z</time></trkpt><trkpt lat="41.8717487" lon="13.118463"><ele>674.6666666666666</ele><time>2026-04-26T14:51:51.968Z</time></trkpt><trkpt lat="41.8719166" lon="13.1183587"><ele>677.3333333333333</ele><time>2026-04-26T14:51:52.951Z</time></trkpt><trkpt lat="41.8720769" lon="13.1182694"><ele>680.0</ele><time>2026-04-26T14:51:53.961Z</time></trkpt><trkpt lat="41.8722309" lon="13.1182074"><ele>681.75</ele><time>2026-04-26T14:51:54.963Z</time></trkpt><trkpt lat="41.8723836" lon="13.1181798"><ele>683.5</ele><time>2026-04-26T14:51:55.951Z</time></trkpt><trkpt lat="41.8725354" lon="13.1181863"><ele>685.25</ele><time>2026-04-26T14:51:56.961Z</time></trkpt><trkpt lat="41.8726748" lon="13.1182023"><ele>687.0</ele><time>2026-04-26T14:51:57.967Z</time></trkpt><trkpt lat="41.8727951" lon="13.1181988"><ele>687.0</ele><time>2026-04-26T14:51:58.95Z</time></trkpt><trkpt lat="41.8728852" lon="13.1181501"><ele>687.0</ele><time>2026-04-26T14:51:59.952Z</time></trkpt><trkpt lat="41.8729592" lon="13.1180491"><ele>687.0</ele><time>2026-04-26T14:52:00.966Z</time></trkpt><trkpt lat="41.8730289" lon="13.1178999"><ele>687.0</ele><time>2026-04-26T14:52:01.967Z</time></trkpt><trkpt lat="41.8731028" lon="13.117707"><ele>687.0</ele><time>2026-04-26T14:52:02.955Z</time></trkpt><trkpt lat="41.8731851" lon="13.1174757"><ele>687.0</ele><time>2026-04-26T14:52:03.965Z</time></trkpt><trkpt lat="41.8732816" lon="13.1172025"><ele>687.0</ele><time>2026-04-26T14:52:04.956Z</time></trkpt><trkpt lat="41.8733933" lon="13.1168918"><ele>689.5</ele><time>2026-04-26T14:52:05.958Z</time></trkpt><trkpt lat="41.8735154" lon="13.1165533"><ele>692.0</ele><time>2026-04-26T14:52:06.965Z</time></trkpt><trkpt lat="41.8736396" lon="13.1162143"><ele>692.0</ele><time>2026-04-26T14:52:07.968Z</time></trkpt><trkpt lat="41.8737575" lon="13.115895"><ele>692.0</ele><time>2026-04-26T14:52:08.968Z</time></trkpt><trkpt lat="41.8738678" lon="13.1156074"><ele>688.3333333333333</ele><time>2026-04-26T14:52:09.955Z</time></trkpt><trkpt lat="41.8739707" lon="13.1153426"><ele>684.6666666666666</ele><time>2026-04-26T14:52:10.962Z</time></trkpt><trkpt lat="41.8740644" lon="13.1151015"><ele>681.0</ele><time>2026-04-26T14:52:11.958Z</time></trkpt><trkpt lat="41.8741456" lon="13.11489"><ele>679.75</ele><time>2026-04-26T14:52:12.955Z</time></trkpt><trkpt lat="41.8742163" lon="13.1147074"><ele>678.5</ele><time>2026-04-26T14:52:13.955Z</time></trkpt><trkpt lat="41.8742787" lon="13.1145525"><ele>677.25</ele><time>2026-04-26T14:52:14.96Z</time></trkpt><trkpt lat="41.8743442" lon="13.1144242"><ele>676.0</ele><time>2026-04-26T14:52:15.965Z</time></trkpt><trkpt lat="41.8744255" lon="13.1143292"><ele>676.0</ele><time>2026-04-26T14:52:16.959Z</time></trkpt><trkpt lat="41.8745224" lon="13.1142687"><ele>676.0</ele><time>2026-04-26T14:52:17.961Z</time></trkpt><trkpt lat="41.8746291" lon="13.114238"><ele>676.0</ele><time>2026-04-26T14:52:18.97Z</time></trkpt><trkpt lat="41.8747445" lon="13.1142189"><ele>676.0</ele><time>2026-04-26T14:52:19.955Z</time></trkpt><trkpt lat="41.8748673" lon="13.1141993"><ele>676.0</ele><time>2026-04-26T14:52:20.958Z</time></trkpt><trkpt lat="41.8749944" lon="13.1141787"><ele>676.0</ele><time>2026-04-26T14:52:21.957Z</time></trkpt><trkpt lat="41.8751229" lon="13.1141581"><ele>676.0</ele><time>2026-04-26T14:52:22.951Z</time></trkpt><trkpt lat="41.8752484" lon="13.11414"><ele>676.0</ele><time>2026-04-26T14:52:23.952Z</time></trkpt><trkpt lat="41.8753635" lon="13.1141197"><ele>675.8</ele><time>2026-04-26T14:52:24.957Z</time></trkpt><trkpt lat="41.8754665" lon="13.114084"><ele>675.5999999999999</ele><time>2026-04-26T14:52:25.95Z</time></trkpt><trkpt lat="41.8755522" lon="13.1140197"><ele>675.4</ele><time>2026-04-26T14:52:26.966Z</time></trkpt><trkpt lat="41.8756144" lon="13.1139173"><ele>675.2</ele><time>2026-04-26T14:52:27.961Z</time></trkpt><trkpt lat="41.8756545" lon="13.1137779"><ele>675.0</ele><time>2026-04-26T14:52:28.954Z</time></trkpt><trkpt lat="41.8756846" lon="13.1136058"><ele>675.0</ele><time>2026-04-26T14:52:29.959Z</time></trkpt><trkpt lat="41.8757152" lon="13.113407"><ele>675.0</ele><time>2026-04-26T14:52:30.956Z</time></trkpt><trkpt lat="41.8757529" lon="13.1131856"><ele>675.0</ele><time>2026-04-26T14:52:31.951Z</time></trkpt><trkpt lat="41.8758002" lon="13.1129556"><ele>674.3333333333334</ele><time>2026-04-26T14:52:32.963Z</time></trkpt><trkpt lat="41.8758515" lon="13.1127159"><ele>673.6666666666667</ele><time>2026-04-26T14:52:33.967Z</time></trkpt><trkpt lat="41.8759001" lon="13.1124617"><ele>673.0</ele><time>2026-04-26T14:52:34.957Z</time></trkpt><trkpt lat="41.8759457" lon="13.1121943"><ele>677.3333333333334</ele><time>2026-04-26T14:52:35.965Z</time></trkpt><trkpt lat="41.8759939" lon="13.1119242"><ele>681.6666666666666</ele><time>2026-04-26T14:52:36.974Z</time></trkpt><trkpt lat="41.8760419" lon="13.1116552"><ele>686.0</ele><time>2026-04-26T14:52:37.96Z</time></trkpt><trkpt lat="41.8760897" lon="13.1113875"><ele>686.0</ele><time>2026-04-26T14:52:38.961Z</time></trkpt><trkpt lat="41.876137" lon="13.1111225"><ele>686.0</ele><time>2026-04-26T14:52:39.954Z</time></trkpt><trkpt lat="41.8761816" lon="13.1108635"><ele>686.0</ele><time>2026-04-26T14:52:40.957Z</time></trkpt><trkpt lat="41.8762232" lon="13.1106147"><ele>685.0</ele><time>2026-04-26T14:52:41.961Z</time></trkpt><trkpt lat="41.8762673" lon="13.1103806"><ele>684.0</ele><time>2026-04-26T14:52:42.958Z</time></trkpt><trkpt lat="41.8763117" lon="13.1101659"><ele>683.0</ele><time>2026-04-26T14:52:43.957Z</time></trkpt><trkpt lat="41.8763804" lon="13.1099599"><ele>681.6666666666666</ele><time>2026-04-26T14:52:44.952Z</time></trkpt><trkpt lat="41.8764657" lon="13.1097629"><ele>680.3333333333334</ele><time>2026-04-26T14:52:45.958Z</time></trkpt><trkpt lat="41.8765701" lon="13.1095641"><ele>679.0</ele><time>2026-04-26T14:52:46.955Z</time></trkpt><trkpt lat="41.8766839" lon="13.1093636"><ele>680.0</ele><time>2026-04-26T14:52:47.958Z</time></trkpt><trkpt lat="41.8767972" lon="13.1091683"><ele>681.0</ele><time>2026-04-26T14:52:48.96Z</time></trkpt><trkpt lat="41.8769054" lon="13.108977"><ele>682.0</ele><time>2026-04-26T14:52:49.961Z</time></trkpt><trkpt lat="41.8770088" lon="13.1088006"><ele>682.0</ele><time>2026-04-26T14:52:50.966Z</time></trkpt><trkpt lat="41.8771095" lon="13.1086409"><ele>682.0</ele><time>2026-04-26T14:52:51.953Z</time></trkpt><trkpt lat="41.8772188" lon="13.1084971"><ele>682.0</ele><time>2026-04-26T14:52:52.966Z</time></trkpt><trkpt lat="41.8773361" lon="13.1083771"><ele>682.0</ele><time>2026-04-26T14:52:53.961Z</time></trkpt><trkpt lat="41.8774631" lon="13.1082907"><ele>682.0</ele><time>2026-04-26T14:52:54.955Z</time></trkpt><trkpt lat="41.8776035" lon="13.108227"><ele>682.0</ele><time>2026-04-26T14:52:55.951Z</time></trkpt><trkpt lat="41.8777518" lon="13.1081773"><ele>682.0</ele><time>2026-04-26T14:52:56.961Z</time></trkpt><trkpt lat="41.8779062" lon="13.1081395"><ele>679.0</ele><time>2026-04-26T14:52:57.959Z</time></trkpt><trkpt lat="41.8780737" lon="13.108106"><ele>676.0</ele><time>2026-04-26T14:52:58.961Z</time></trkpt><trkpt lat="41.8782525" lon="13.1080696"><ele>673.0</ele><time>2026-04-26T14:52:59.961Z</time></trkpt><trkpt lat="41.8784408" lon="13.1080342"><ele>672.6666666666667</ele><time>2026-04-26T14:53:00.954Z</time></trkpt><trkpt lat="41.878629" lon="13.1080023"><ele>672.3333333333334</ele><time>2026-04-26T14:53:01.958Z</time></trkpt><trkpt lat="41.8788132" lon="13.1079728"><ele>672.0</ele><time>2026-04-26T14:53:02.952Z</time></trkpt><trkpt lat="41.8789876" lon="13.107941"><ele>672.0</ele><time>2026-04-26T14:53:03.95Z</time></trkpt><trkpt lat="41.8791518" lon="13.1079077"><ele>672.0</ele><time>2026-04-26T14:53:04.948Z</time></trkpt><trkpt lat="41.8793082" lon="13.1078764"><ele>672.0</ele><time>2026-04-26T14:53:05.959Z</time></trkpt><trkpt lat="41.8794532" lon="13.1078423"><ele>673.25</ele><time>2026-04-26T14:53:06.964Z</time></trkpt><trkpt lat="41.8795846" lon="13.1077897"><ele>674.5</ele><time>2026-04-26T14:53:07.958Z</time></trkpt><trkpt lat="41.8796949" lon="13.1076972"><ele>675.75</ele><time>2026-04-26T14:53:08.955Z</time></trkpt><trkpt lat="41.8797904" lon="13.1075684"><ele>677.0</ele><time>2026-04-26T14:53:09.959Z</time></trkpt><trkpt lat="41.8798848" lon="13.107424"><ele>679.0</ele><time>2026-04-26T14:53:10.962Z</time></trkpt><trkpt lat="41.8799855" lon="13.1072705"><ele>681.0</ele><time>2026-04-26T14:53:11.959Z</time></trkpt><trkpt lat="41.8800947" lon="13.1071096"><ele>683.0</ele><time>2026-04-26T14:53:12.955Z</time></trkpt><trkpt lat="41.8802084" lon="13.1069465"><ele>683.0</ele><time>2026-04-26T14:53:13.955Z</time></trkpt><trkpt lat="41.8803212" lon="13.1067871"><ele>683.0</ele><time>2026-04-26T14:53:14.956Z</time></trkpt><trkpt lat="41.8804326" lon="13.1066358"><ele>683.0</ele><time>2026-04-26T14:53:15.958Z</time></trkpt><trkpt lat="41.8805449" lon="13.106499"><ele>682.0</ele><time>2026-04-26T14:53:16.967Z</time></trkpt><trkpt lat="41.8806648" lon="13.1063867"><ele>681.0</ele><time>2026-04-26T14:53:17.959Z</time></trkpt><trkpt lat="41.8807969" lon="13.1063033"><ele>680.0</ele><time>2026-04-26T14:53:18.955Z</time></trkpt><trkpt lat="41.8809389" lon="13.1062404"><ele>679.0</ele><time>2026-04-26T14:53:19.963Z</time></trkpt><trkpt lat="41.8810826" lon="13.1061801"><ele>679.0</ele><time>2026-04-26T14:53:20.956Z</time></trkpt><trkpt lat="41.8812185" lon="13.1061052"><ele>679.0</ele><time>2026-04-26T14:53:21.959Z</time></trkpt><trkpt lat="41.8813417" lon="13.1060247"><ele>679.0</ele><time>2026-04-26T14:53:22.956Z</time></trkpt><trkpt lat="41.8814603" lon="13.1059568"><ele>679.0</ele><time>2026-04-26T14:53:23.96Z</time></trkpt><trkpt lat="41.8815859" lon="13.1059081"><ele>679.0</ele><time>2026-04-26T14:53:24.961Z</time></trkpt><trkpt lat="41.881725" lon="13.1058782"><ele>679.0</ele><time>2026-04-26T14:53:25.951Z</time></trkpt><trkpt lat="41.8818661" lon="13.1058538"><ele>679.0</ele><time>2026-04-26T14:53:26.961Z</time></trkpt><trkpt lat="41.8820273" lon="13.1058465"><ele>679.0</ele><time>2026-04-26T14:53:27.96Z</time></trkpt><trkpt lat="41.8821905" lon="13.1058279"><ele>679.3333333333334</ele><time>2026-04-26T14:53:28.956Z</time></trkpt><trkpt lat="41.8823468" lon="13.1057852"><ele>679.6666666666666</ele><time>2026-04-26T14:53:29.955Z</time></trkpt><trkpt lat="41.8825" lon="13.1057216"><ele>680.0</ele><time>2026-04-26T14:53:30.964Z</time></trkpt><trkpt lat="41.882649" lon="13.1056374"><ele>680.0</ele><time>2026-04-26T14:53:31.974Z</time></trkpt><trkpt lat="41.8827944" lon="13.1055436"><ele>680.0</ele><time>2026-04-26T14:53:32.961Z</time></trkpt><trkpt lat="41.88294" lon="13.1054383"><ele>680.0</ele><time>2026-04-26T14:53:33.969Z</time></trkpt><trkpt lat="41.8830832" lon="13.1053265"><ele>680.0</ele><time>2026-04-26T14:53:34.96Z</time></trkpt><trkpt lat="41.8832202" lon="13.105207"><ele>680.0</ele><time>2026-04-26T14:53:35.959Z</time></trkpt><trkpt lat="41.8833506" lon="13.1050799"><ele>680.0</ele><time>2026-04-26T14:53:36.961Z</time></trkpt><trkpt lat="41.8834732" lon="13.1049469"><ele>684.25</ele><time>2026-04-26T14:53:37.965Z</time></trkpt><trkpt lat="41.8835846" lon="13.1048161"><ele>688.5</ele><time>2026-04-26T14:53:38.955Z</time></trkpt><trkpt lat="41.8836856" lon="13.1046893"><ele>692.75</ele><time>2026-04-26T14:53:39.959Z</time></trkpt><trkpt lat="41.8837763" lon="13.1045605"><ele>697.0</ele><time>2026-04-26T14:53:40.961Z</time></trkpt><trkpt lat="41.8838527" lon="13.1044191"><ele>697.0</ele><time>2026-04-26T14:53:41.956Z</time></trkpt><trkpt lat="41.8839274" lon="13.1042703"><ele>697.0</ele><time>2026-04-26T14:53:42.97Z</time></trkpt><trkpt lat="41.8839697" lon="13.1040983"><ele>697.0</ele><time>2026-04-26T14:53:43.96Z</time></trkpt><trkpt lat="41.8839983" lon="13.1039175"><ele>697.0</ele><time>2026-04-26T14:53:44.969Z</time></trkpt><trkpt lat="41.8840394" lon="13.1037413"><ele>693.75</ele><time>2026-04-26T14:53:45.953Z</time></trkpt><trkpt lat="41.8840895" lon="13.1035764"><ele>690.5</ele><time>2026-04-26T14:53:46.961Z</time></trkpt><trkpt lat="41.8841366" lon="13.103414"><ele>687.25</ele><time>2026-04-26T14:53:47.966Z</time></trkpt><trkpt lat="41.8842016" lon="13.1032585"><ele>684.0</ele><time>2026-04-26T14:53:48.959Z</time></trkpt><trkpt lat="41.8842685" lon="13.1031039"><ele>684.0</ele><time>2026-04-26T14:53:49.951Z</time></trkpt><trkpt lat="41.8843472" lon="13.1029639"><ele>684.0</ele><time>2026-04-26T14:53:50.959Z</time></trkpt><trkpt lat="41.884429" lon="13.1028385"><ele>684.0</ele><time>2026-04-26T14:53:51.978Z</time></trkpt><trkpt lat="41.8845138" lon="13.1027437"><ele>684.0</ele><time>2026-04-26T14:53:52.959Z</time></trkpt><trkpt lat="41.8846037" lon="13.1026737"><ele>684.0</ele><time>2026-04-26T14:53:53.966Z</time></trkpt><trkpt lat="41.8846952" lon="13.1026261"><ele>684.0</ele><time>2026-04-26T14:53:54.959Z</time></trkpt><trkpt lat="41.8847848" lon="13.1025894"><ele>684.0</ele><time>2026-04-26T14:53:55.955Z</time></trkpt><trkpt lat="41.884873" lon="13.1025518"><ele>684.0</ele><time>2026-04-26T14:53:56.966Z</time></trkpt><trkpt lat="41.8849655" lon="13.1025226"><ele>684.0</ele><time>2026-04-26T14:53:57.964Z</time></trkpt><trkpt lat="41.8850601" lon="13.1025095"><ele>682.0</ele><time>2026-04-26T14:53:58.953Z</time></trkpt><trkpt lat="41.8851572" lon="13.1024936"><ele>680.0</ele><time>2026-04-26T14:53:59.965Z</time></trkpt><trkpt lat="41.8852557" lon="13.1024872"><ele>678.0</ele><time>2026-04-26T14:54:00.967Z</time></trkpt><trkpt lat="41.8853653" lon="13.1025015"><ele>676.0</ele><time>2026-04-26T14:54:01.956Z</time></trkpt><trkpt lat="41.8854847" lon="13.1025076"><ele>674.0</ele><time>2026-04-26T14:54:02.96Z</time></trkpt><trkpt lat="41.8856126" lon="13.1025109"><ele>674.0</ele><time>2026-04-26T14:54:03.981Z</time></trkpt><trkpt lat="41.8857338" lon="13.1025056"><ele>674.0</ele><time>2026-04-26T14:54:04.953Z</time></trkpt><trkpt lat="41.8858536" lon="13.1024961"><ele>674.0</ele><time>2026-04-26T14:54:05.965Z</time></trkpt><trkpt lat="41.8859654" lon="13.1024987"><ele>674.0</ele><time>2026-04-26T14:54:06.962Z</time></trkpt><trkpt lat="41.8860638" lon="13.1025225"><ele>674.3333333333333</ele><time>2026-04-26T14:54:07.958Z</time></trkpt><trkpt lat="41.8861518" lon="13.1025532"><ele>674.6666666666666</ele><time>2026-04-26T14:54:08.959Z</time></trkpt><trkpt lat="41.8862233" lon="13.1025977"><ele>675.0</ele><time>2026-04-26T14:54:09.958Z</time></trkpt><trkpt lat="41.886298" lon="13.1025898"><ele>675.3333333333334</ele><time>2026-04-26T14:54:10.968Z</time></trkpt><trkpt lat="41.8863632" lon="13.102533"><ele>675.6666666666667</ele><time>2026-04-26T14:54:11.952Z</time></trkpt><trkpt lat="41.8864079" lon="13.1024489"><ele>676.0</ele><time>2026-04-26T14:54:12.955Z</time></trkpt><trkpt lat="41.8864523" lon="13.1023536"><ele>672.8333333333334</ele><time>2026-04-26T14:54:13.957Z</time></trkpt><trkpt lat="41.8864881" lon="13.1022526"><ele>669.6666666666667</ele><time>2026-04-26T14:54:14.955Z</time></trkpt><trkpt lat="41.8865269" lon="13.1021493"><ele>666.5</ele><time>2026-04-26T14:54:15.963Z</time></trkpt><trkpt lat="41.8865671" lon="13.1020463"><ele>663.3333333333334</ele><time>2026-04-26T14:54:16.957Z</time></trkpt><trkpt lat="41.8865977" lon="13.1019474"><ele>660.1666666666666</ele><time>2026-04-26T14:54:17.958Z</time></trkpt><trkpt lat="41.8866476" lon="13.1018426"><ele>657.0</ele><time>2026-04-26T14:54:18.962Z</time></trkpt><trkpt lat="41.8867237" lon="13.1017606"><ele>658.25</ele><time>2026-04-26T14:54:19.971Z</time></trkpt><trkpt lat="41.886815" lon="13.1016882"><ele>659.5</ele><time>2026-04-26T14:54:20.968Z</time></trkpt><trkpt lat="41.886922" lon="13.1016165"><ele>660.75</ele><time>2026-04-26T14:54:21.966Z</time></trkpt><trkpt lat="41.887019" lon="13.101536"><ele>662.0</ele><time>2026-04-26T14:54:22.964Z</time></trkpt><trkpt lat="41.8871205" lon="13.1014605"><ele>656.75</ele><time>2026-04-26T14:54:23.976Z</time></trkpt><trkpt lat="41.8872299" lon="13.1013911"><ele>651.5</ele><time>2026-04-26T14:54:24.953Z</time></trkpt><trkpt lat="41.8873414" lon="13.1013209"><ele>646.25</ele><time>2026-04-26T14:54:25.963Z</time></trkpt><trkpt lat="41.8874526" lon="13.1012566"><ele>641.0</ele><time>2026-04-26T14:54:26.963Z</time></trkpt><trkpt lat="41.8875662" lon="13.1011957"><ele>643.5</ele><time>2026-04-26T14:54:27.964Z</time></trkpt><trkpt lat="41.8876782" lon="13.1011277"><ele>646.0</ele><time>2026-04-26T14:54:28.96Z</time></trkpt><trkpt lat="41.8877887" lon="13.1010519"><ele>648.5</ele><time>2026-04-26T14:54:29.965Z</time></trkpt><trkpt lat="41.8878954" lon="13.1009771"><ele>651.0</ele><time>2026-04-26T14:54:30.957Z</time></trkpt><trkpt lat="41.8879843" lon="13.1008751"><ele>651.0</ele><time>2026-04-26T14:54:31.967Z</time></trkpt><trkpt lat="41.8880611" lon="13.1007665"><ele>651.0</ele><time>2026-04-26T14:54:32.959Z</time></trkpt><trkpt lat="41.8881275" lon="13.100673"><ele>651.0</ele><time>2026-04-26T14:54:33.962Z</time></trkpt><trkpt lat="41.8881907" lon="13.100581"><ele>651.0</ele><time>2026-04-26T14:54:34.96Z</time></trkpt><trkpt lat="41.8882578" lon="13.1004762"><ele>651.0</ele><time>2026-04-26T14:54:35.958Z</time></trkpt><trkpt lat="41.8883303" lon="13.1003723"><ele>648.0</ele><time>2026-04-26T14:54:36.963Z</time></trkpt><trkpt lat="41.8884277" lon="13.100278"><ele>645.0</ele><time>2026-04-26T14:54:37.952Z</time></trkpt><trkpt lat="41.8885318" lon="13.1001893"><ele>642.0</ele><time>2026-04-26T14:54:38.951Z</time></trkpt><trkpt lat="41.8886667" lon="13.1001588"><ele>639.0</ele><time>2026-04-26T14:54:39.963Z</time></trkpt><trkpt lat="41.8887987" lon="13.1001669"><ele>639.0</ele><time>2026-04-26T14:54:40.955Z</time></trkpt><trkpt lat="41.8889293" lon="13.1002097"><ele>639.0</ele><time>2026-04-26T14:54:41.955Z</time></trkpt><trkpt lat="41.8890508" lon="13.1002827"><ele>639.0</ele><time>2026-04-26T14:54:42.963Z</time></trkpt><trkpt lat="41.8891557" lon="13.1003704"><ele>639.0</ele><time>2026-04-26T14:54:43.956Z</time></trkpt><trkpt lat="41.8892528" lon="13.1004412"><ele>642.5</ele><time>2026-04-26T14:54:44.952Z</time></trkpt><trkpt lat="41.8893461" lon="13.1004677"><ele>646.0</ele><time>2026-04-26T14:54:45.971Z</time></trkpt><trkpt lat="41.8894305" lon="13.1004841"><ele>649.5</ele><time>2026-04-26T14:54:46.949Z</time></trkpt><trkpt lat="41.8894837" lon="13.1004102"><ele>653.0</ele><time>2026-04-26T14:54:47.95Z</time></trkpt><trkpt lat="41.8895049" lon="13.1003176"><ele>656.5</ele><time>2026-04-26T14:54:48.951Z</time></trkpt><trkpt lat="41.8894979" lon="13.1002035"><ele>660.0</ele><time>2026-04-26T14:54:49.956Z</time></trkpt><trkpt lat="41.889481" lon="13.1000764"><ele>660.0</ele><time>2026-04-26T14:54:50.957Z</time></trkpt><trkpt lat="41.8894603" lon="13.0999324"><ele>660.0</ele><time>2026-04-26T14:54:51.952Z</time></trkpt><trkpt lat="41.8894455" lon="13.0997767"><ele>660.0</ele><time>2026-04-26T14:54:52.958Z</time></trkpt><trkpt lat="41.8894422" lon="13.0996133"><ele>660.0</ele><time>2026-04-26T14:54:53.959Z</time></trkpt><trkpt lat="41.8894467" lon="13.099436"><ele>657.75</ele><time>2026-04-26T14:54:54.958Z</time></trkpt><trkpt lat="41.8894513" lon="13.0992482"><ele>655.5</ele><time>2026-04-26T14:54:55.958Z</time></trkpt><trkpt lat="41.8894561" lon="13.0990514"><ele>653.25</ele><time>2026-04-26T14:54:56.962Z</time></trkpt><trkpt lat="41.8894626" lon="13.0988473"><ele>651.0</ele><time>2026-04-26T14:54:57.954Z</time></trkpt><trkpt lat="41.889475" lon="13.0986384"><ele>646.6666666666666</ele><time>2026-04-26T14:54:58.957Z</time></trkpt><trkpt lat="41.8895005" lon="13.0984267"><ele>642.3333333333333</ele><time>2026-04-26T14:54:59.957Z</time></trkpt><trkpt lat="41.8895338" lon="13.0982121"><ele>638.0</ele><time>2026-04-26T14:55:00.958Z</time></trkpt><trkpt lat="41.8895728" lon="13.0979974"><ele>633.0</ele><time>2026-04-26T14:55:01.957Z</time></trkpt><trkpt lat="41.8896148" lon="13.0977893"><ele>628.0</ele><time>2026-04-26T14:55:02.997Z</time></trkpt><trkpt lat="41.8896565" lon="13.0975906"><ele>623.0</ele><time>2026-04-26T14:55:03.951Z</time></trkpt><trkpt lat="41.8897044" lon="13.0974027"><ele>620.25</ele><time>2026-04-26T14:55:04.963Z</time></trkpt><trkpt lat="41.8897638" lon="13.0972218"><ele>617.5</ele><time>2026-04-26T14:55:05.956Z</time></trkpt><trkpt lat="41.8898376" lon="13.0970499"><ele>614.75</ele><time>2026-04-26T14:55:06.961Z</time></trkpt><trkpt lat="41.8899267" lon="13.0968889"><ele>612.0</ele><time>2026-04-26T14:55:07.962Z</time></trkpt><trkpt lat="41.8900185" lon="13.0967281"><ele>613.3333333333334</ele><time>2026-04-26T14:55:08.954Z</time></trkpt><trkpt lat="41.8901366" lon="13.0965997"><ele>614.6666666666667</ele><time>2026-04-26T14:55:09.954Z</time></trkpt><trkpt lat="41.8902697" lon="13.0964887"><ele>616.0</ele><time>2026-04-26T14:55:10.959Z</time></trkpt><trkpt lat="41.8904185" lon="13.0964017"><ele>611.6666666666667</ele><time>2026-04-26T14:55:11.953Z</time></trkpt><trkpt lat="41.8905666" lon="13.096323"><ele>607.3333333333334</ele><time>2026-04-26T14:55:12.958Z</time></trkpt><trkpt lat="41.8907239" lon="13.0962655"><ele>603.0</ele><time>2026-04-26T14:55:13.959Z</time></trkpt><trkpt lat="41.8908864" lon="13.0962086"><ele>602.0</ele><time>2026-04-26T14:55:14.961Z</time></trkpt><trkpt lat="41.8910513" lon="13.0961691"><ele>601.0</ele><time>2026-04-26T14:55:15.955Z</time></trkpt><trkpt lat="41.8912161" lon="13.0961532"><ele>600.0</ele><time>2026-04-26T14:55:16.951Z</time></trkpt><trkpt lat="41.8913833" lon="13.0961435"><ele>600.0</ele><time>2026-04-26T14:55:17.956Z</time></trkpt><trkpt lat="41.8915558" lon="13.0961705"><ele>600.0</ele><time>2026-04-26T14:55:18.959Z</time></trkpt><trkpt lat="41.8917345" lon="13.0961993"><ele>600.0</ele><time>2026-04-26T14:55:19.949Z</time></trkpt><trkpt lat="41.8919184" lon="13.0962265"><ele>597.6666666666666</ele><time>2026-04-26T14:55:20.954Z</time></trkpt><trkpt lat="41.8920901" lon="13.0962484"><ele>595.3333333333333</ele><time>2026-04-26T14:55:21.955Z</time></trkpt><trkpt lat="41.8922542" lon="13.0962756"><ele>593.0</ele><time>2026-04-26T14:55:22.963Z</time></trkpt><trkpt lat="41.8924083" lon="13.0962962"><ele>593.0</ele><time>2026-04-26T14:55:23.96Z</time></trkpt><trkpt lat="41.8925453" lon="13.0963075"><ele>593.0</ele><time>2026-04-26T14:55:24.954Z</time></trkpt><trkpt lat="41.8926594" lon="13.0962701"><ele>593.0</ele><time>2026-04-26T14:55:25.967Z</time></trkpt><trkpt lat="41.8927638" lon="13.096189"><ele>593.0</ele><time>2026-04-26T14:55:26.967Z</time></trkpt><trkpt lat="41.8928665" lon="13.0960904"><ele>591.75</ele><time>2026-04-26T14:55:27.955Z</time></trkpt><trkpt lat="41.892969" lon="13.0959913"><ele>590.5</ele><time>2026-04-26T14:55:28.955Z</time></trkpt><trkpt lat="41.8930717" lon="13.0959126"><ele>589.25</ele><time>2026-04-26T14:55:29.958Z</time></trkpt><trkpt lat="41.8931713" lon="13.0958695"><ele>588.0</ele><time>2026-04-26T14:55:30.954Z</time></trkpt><trkpt lat="41.8932751" lon="13.0958708"><ele>588.0</ele><time>2026-04-26T14:55:31.957Z</time></trkpt><trkpt lat="41.8933841" lon="13.0959006"><ele>588.0</ele><time>2026-04-26T14:55:32.954Z</time></trkpt><trkpt lat="41.8934963" lon="13.0959334"><ele>588.0</ele><time>2026-04-26T14:55:33.963Z</time></trkpt><trkpt lat="41.8936129" lon="13.0959623"><ele>588.0</ele><time>2026-04-26T14:55:34.955Z</time></trkpt><trkpt lat="41.8937299" lon="13.0959738"><ele>589.0</ele><time>2026-04-26T14:55:35.953Z</time></trkpt><trkpt lat="41.8938394" lon="13.0959439"><ele>590.0</ele><time>2026-04-26T14:55:36.962Z</time></trkpt><trkpt lat="41.8939323" lon="13.0958615"><ele>591.0</ele><time>2026-04-26T14:55:37.964Z</time></trkpt><trkpt lat="41.8940076" lon="13.0957394"><ele>592.0</ele><time>2026-04-26T14:55:38.965Z</time></trkpt><trkpt lat="41.8940868" lon="13.0956083"><ele>588.5</ele><time>2026-04-26T14:55:39.956Z</time></trkpt><trkpt lat="41.8941639" lon="13.095465"><ele>585.0</ele><time>2026-04-26T14:55:40.96Z</time></trkpt><trkpt lat="41.8942623" lon="13.095341"><ele>581.5</ele><time>2026-04-26T14:55:41.961Z</time></trkpt><trkpt lat="41.8943824" lon="13.0952405"><ele>578.0</ele><time>2026-04-26T14:55:42.957Z</time></trkpt><trkpt lat="41.8945128" lon="13.095176"><ele>578.0</ele><time>2026-04-26T14:55:43.961Z</time></trkpt><trkpt lat="41.8946501" lon="13.0951595"><ele>578.0</ele><time>2026-04-26T14:55:44.959Z</time></trkpt><trkpt lat="41.8947885" lon="13.0951829"><ele>578.0</ele><time>2026-04-26T14:55:45.955Z</time></trkpt><trkpt lat="41.8949263" lon="13.0952371"><ele>578.0</ele><time>2026-04-26T14:55:46.955Z</time></trkpt><trkpt lat="41.8950641" lon="13.095285"><ele>578.0</ele><time>2026-04-26T14:55:47.959Z</time></trkpt><trkpt lat="41.8952046" lon="13.095298"><ele>578.0</ele><time>2026-04-26T14:55:48.959Z</time></trkpt><trkpt lat="41.8953459" lon="13.0952685"><ele>578.0</ele><time>2026-04-26T14:55:49.95Z</time></trkpt><trkpt lat="41.895485" lon="13.0952056"><ele>578.0</ele><time>2026-04-26T14:55:50.953Z</time></trkpt><trkpt lat="41.8956271" lon="13.0951185"><ele>578.0</ele><time>2026-04-26T14:55:51.957Z</time></trkpt><trkpt lat="41.8957728" lon="13.0950338"><ele>578.0</ele><time>2026-04-26T14:55:52.947Z</time></trkpt><trkpt lat="41.8959249" lon="13.0949538"><ele>578.0</ele><time>2026-04-26T14:55:53.963Z</time></trkpt><trkpt lat="41.8960776" lon="13.0948728"><ele>573.6666666666666</ele><time>2026-04-26T14:55:54.951Z</time></trkpt><trkpt lat="41.8962262" lon="13.0947767"><ele>569.3333333333334</ele><time>2026-04-26T14:55:55.952Z</time></trkpt><trkpt lat="41.8963698" lon="13.0946732"><ele>565.0</ele><time>2026-04-26T14:55:56.958Z</time></trkpt><trkpt lat="41.8965142" lon="13.0945693"><ele>565.0</ele><time>2026-04-26T14:55:57.969Z</time></trkpt><trkpt lat="41.8966642" lon="13.0944738"><ele>565.0</ele><time>2026-04-26T14:55:58.951Z</time></trkpt><trkpt lat="41.89682" lon="13.0943924"><ele>565.0</ele><time>2026-04-26T14:55:59.962Z</time></trkpt><trkpt lat="41.8969788" lon="13.0943195"><ele>566.3333333333334</ele><time>2026-04-26T14:56:00.954Z</time></trkpt><trkpt lat="41.8971381" lon="13.0942484"><ele>567.6666666666666</ele><time>2026-04-26T14:56:01.954Z</time></trkpt><trkpt lat="41.897293" lon="13.0941668"><ele>569.0</ele><time>2026-04-26T14:56:02.955Z</time></trkpt><trkpt lat="41.8974381" lon="13.0940632"><ele>564.0</ele><time>2026-04-26T14:56:03.956Z</time></trkpt><trkpt lat="41.8975749" lon="13.0939537"><ele>559.0</ele><time>2026-04-26T14:56:04.948Z</time></trkpt><trkpt lat="41.8977023" lon="13.0938435"><ele>554.0</ele><time>2026-04-26T14:56:05.953Z</time></trkpt><trkpt lat="41.8978314" lon="13.0937467"><ele>554.0</ele><time>2026-04-26T14:56:06.959Z</time></trkpt><trkpt lat="41.8979664" lon="13.0936722"><ele>554.0</ele><time>2026-04-26T14:56:07.957Z</time></trkpt><trkpt lat="41.8981095" lon="13.0936299"><ele>554.0</ele><time>2026-04-26T14:56:08.958Z</time></trkpt><trkpt lat="41.8982587" lon="13.0936228"><ele>554.0</ele><time>2026-04-26T14:56:09.956Z</time></trkpt><trkpt lat="41.8984031" lon="13.0936422"><ele>556.0</ele><time>2026-04-26T14:56:10.959Z</time></trkpt><trkpt lat="41.8985343" lon="13.0936647"><ele>558.0</ele><time>2026-04-26T14:56:11.967Z</time></trkpt><trkpt lat="41.8986506" lon="13.0936598"><ele>560.0</ele><time>2026-04-26T14:56:12.952Z</time></trkpt><trkpt lat="41.8987572" lon="13.0936034"><ele>562.0</ele><time>2026-04-26T14:56:13.953Z</time></trkpt><trkpt lat="41.8988567" lon="13.0935041"><ele>562.0</ele><time>2026-04-26T14:56:14.964Z</time></trkpt><trkpt lat="41.898954" lon="13.0933859"><ele>562.0</ele><time>2026-04-26T14:56:15.954Z</time></trkpt><trkpt lat="41.8990558" lon="13.0932681"><ele>562.0</ele><time>2026-04-26T14:56:16.961Z</time></trkpt><trkpt lat="41.899172" lon="13.0931713"><ele>562.0</ele><time>2026-04-26T14:56:17.961Z</time></trkpt><trkpt lat="41.8993001" lon="13.093101"><ele>558.0</ele><time>2026-04-26T14:56:18.951Z</time></trkpt><trkpt lat="41.8994374" lon="13.0930622"><ele>554.0</ele><time>2026-04-26T14:56:19.962Z</time></trkpt><trkpt lat="41.8995782" lon="13.093067"><ele>550.0</ele><time>2026-04-26T14:56:20.973Z</time></trkpt><trkpt lat="41.8997173" lon="13.0930841"><ele>546.0</ele><time>2026-04-26T14:56:21.952Z</time></trkpt><trkpt lat="41.8998616" lon="13.0930937"><ele>546.0</ele><time>2026-04-26T14:56:22.983Z</time></trkpt><trkpt lat="41.8999901" lon="13.0930406"><ele>546.0</ele><time>2026-04-26T14:56:23.966Z</time></trkpt><trkpt lat="41.9001046" lon="13.0929355"><ele>546.0</ele><time>2026-04-26T14:56:24.96Z</time></trkpt><trkpt lat="41.9002134" lon="13.0928183"><ele>546.0</ele><time>2026-04-26T14:56:25.959Z</time></trkpt><trkpt lat="41.9003285" lon="13.0926979"><ele>543.6666666666666</ele><time>2026-04-26T14:56:26.964Z</time></trkpt><trkpt lat="41.9004525" lon="13.0925846"><ele>541.3333333333333</ele><time>2026-04-26T14:56:27.965Z</time></trkpt><trkpt lat="41.9005821" lon="13.0924712"><ele>539.0</ele><time>2026-04-26T14:56:28.956Z</time></trkpt><trkpt lat="41.9007156" lon="13.0923624"><ele>539.0</ele><time>2026-04-26T14:56:29.958Z</time></trkpt><trkpt lat="41.9008513" lon="13.0922696"><ele>539.0</ele><time>2026-04-26T14:56:30.961Z</time></trkpt><trkpt lat="41.9009863" lon="13.0921932"><ele>539.0</ele><time>2026-04-26T14:56:31.957Z</time></trkpt><trkpt lat="41.9011193" lon="13.0921191"><ele>539.0</ele><time>2026-04-26T14:56:32.962Z</time></trkpt><trkpt lat="41.9012531" lon="13.0920291"><ele>543.6666666666666</ele><time>2026-04-26T14:56:33.954Z</time></trkpt><trkpt lat="41.9013827" lon="13.0919202"><ele>548.3333333333334</ele><time>2026-04-26T14:56:34.955Z</time></trkpt><trkpt lat="41.9015151" lon="13.0918166"><ele>553.0</ele><time>2026-04-26T14:56:35.964Z</time></trkpt><trkpt lat="41.9016461" lon="13.0916881"><ele>549.6666666666667</ele><time>2026-04-26T14:56:36.956Z</time></trkpt><trkpt lat="41.9017745" lon="13.0915595"><ele>546.3333333333334</ele><time>2026-04-26T14:56:37.953Z</time></trkpt><trkpt lat="41.9018974" lon="13.0914284"><ele>543.0</ele><time>2026-04-26T14:56:38.959Z</time></trkpt><trkpt lat="41.9020155" lon="13.0913107"><ele>543.0</ele><time>2026-04-26T14:56:39.963Z</time></trkpt><trkpt lat="41.9021364" lon="13.0911943"><ele>543.0</ele><time>2026-04-26T14:56:40.953Z</time></trkpt><trkpt lat="41.9022781" lon="13.0911137"><ele>543.0</ele><time>2026-04-26T14:56:41.955Z</time></trkpt><trkpt lat="41.9024402" lon="13.0910407"><ele>543.0</ele><time>2026-04-26T14:56:42.961Z</time></trkpt><trkpt lat="41.9026205" lon="13.0909694"><ele>543.0</ele><time>2026-04-26T14:56:43.954Z</time></trkpt><trkpt lat="41.9028003" lon="13.0909058"><ele>543.0</ele><time>2026-04-26T14:56:44.968Z</time></trkpt><trkpt lat="41.9029883" lon="13.0908365"><ele>543.0</ele><time>2026-04-26T14:56:45.973Z</time></trkpt><trkpt lat="41.9031716" lon="13.0907616"><ele>543.0</ele><time>2026-04-26T14:56:46.955Z</time></trkpt><trkpt lat="41.9033559" lon="13.0906863"><ele>543.0</ele><time>2026-04-26T14:56:47.966Z</time></trkpt><trkpt lat="41.9035392" lon="13.0906127"><ele>539.0</ele><time>2026-04-26T14:56:48.959Z</time></trkpt><trkpt lat="41.9037245" lon="13.0905431"><ele>535.0</ele><time>2026-04-26T14:56:49.954Z</time></trkpt><trkpt lat="41.9039071" lon="13.0904716"><ele>531.0</ele><time>2026-04-26T14:56:50.957Z</time></trkpt><trkpt lat="41.9040885" lon="13.0904017"><ele>531.6666666666666</ele><time>2026-04-26T14:56:51.953Z</time></trkpt><trkpt lat="41.9042734" lon="13.0903359"><ele>532.3333333333333</ele><time>2026-04-26T14:56:52.983Z</time></trkpt><trkpt lat="41.9044605" lon="13.0902754"><ele>533.0</ele><time>2026-04-26T14:56:53.971Z</time></trkpt><trkpt lat="41.9046503" lon="13.0902188"><ele>533.0</ele><time>2026-04-26T14:56:54.957Z</time></trkpt><trkpt lat="41.904844" lon="13.0901694"><ele>533.0</ele><time>2026-04-26T14:56:55.956Z</time></trkpt><trkpt lat="41.9050394" lon="13.0901182"><ele>533.0</ele><time>2026-04-26T14:56:56.955Z</time></trkpt><trkpt lat="41.9052362" lon="13.0900683"><ele>530.3333333333333</ele><time>2026-04-26T14:56:57.957Z</time></trkpt><trkpt lat="41.9054341" lon="13.0900191"><ele>527.6666666666666</ele><time>2026-04-26T14:56:58.973Z</time></trkpt><trkpt lat="41.905633" lon="13.0899713"><ele>525.0</ele><time>2026-04-26T14:56:59.964Z</time></trkpt><trkpt lat="41.9058278" lon="13.0899212"><ele>522.6666666666666</ele><time>2026-04-26T14:57:00.969Z</time></trkpt><trkpt lat="41.9060194" lon="13.0898684"><ele>520.3333333333333</ele><time>2026-04-26T14:57:01.959Z</time></trkpt><trkpt lat="41.9062053" lon="13.0898251"><ele>518.0</ele><time>2026-04-26T14:57:02.964Z</time></trkpt><trkpt lat="41.9063832" lon="13.0898123"><ele>518.0</ele><time>2026-04-26T14:57:03.965Z</time></trkpt><trkpt lat="41.9065482" lon="13.0898442"><ele>518.0</ele><time>2026-04-26T14:57:04.963Z</time></trkpt><trkpt lat="41.9066954" lon="13.0899125"><ele>518.0</ele><time>2026-04-26T14:57:05.958Z</time></trkpt><trkpt lat="41.9068288" lon="13.0900014"><ele>515.5</ele><time>2026-04-26T14:57:06.951Z</time></trkpt><trkpt lat="41.9069493" lon="13.0900977"><ele>513.0</ele><time>2026-04-26T14:57:07.956Z</time></trkpt><trkpt lat="41.907056" lon="13.0901966"><ele>510.5</ele><time>2026-04-26T14:57:08.957Z</time></trkpt><trkpt lat="41.9071302" lon="13.0903112"><ele>508.0</ele><time>2026-04-26T14:57:09.976Z</time></trkpt><trkpt lat="41.9071604" lon="13.0904564"><ele>508.0</ele><time>2026-04-26T14:57:10.962Z</time></trkpt><trkpt lat="41.9071512" lon="13.0906038"><ele>508.0</ele><time>2026-04-26T14:57:11.964Z</time></trkpt><trkpt lat="41.9071105" lon="13.0907594"><ele>508.0</ele><time>2026-04-26T14:57:12.964Z</time></trkpt><trkpt lat="41.9070507" lon="13.0909183"><ele>508.0</ele><time>2026-04-26T14:57:13.974Z</time></trkpt><trkpt lat="41.9069825" lon="13.0910787"><ele>506.75</ele><time>2026-04-26T14:57:14.956Z</time></trkpt><trkpt lat="41.9069478" lon="13.091259"><ele>505.5</ele><time>2026-04-26T14:57:15.959Z</time></trkpt><trkpt lat="41.9069446" lon="13.0914553"><ele>504.25</ele><time>2026-04-26T14:57:16.951Z</time></trkpt><trkpt lat="41.9069548" lon="13.0916575"><ele>503.0</ele><time>2026-04-26T14:57:17.958Z</time></trkpt><trkpt lat="41.9069611" lon="13.0918621"><ele>502.0</ele><time>2026-04-26T14:57:18.959Z</time></trkpt><trkpt lat="41.9069682" lon="13.0920826"><ele>501.0</ele><time>2026-04-26T14:57:19.968Z</time></trkpt><trkpt lat="41.9069744" lon="13.0923105"><ele>500.0</ele><time>2026-04-26T14:57:20.955Z</time></trkpt><trkpt lat="41.9069894" lon="13.0925395"><ele>499.3333333333333</ele><time>2026-04-26T14:57:21.963Z</time></trkpt><trkpt lat="41.9070143" lon="13.0927602"><ele>498.66666666666663</ele><time>2026-04-26T14:57:22.971Z</time></trkpt><trkpt lat="41.9070366" lon="13.092971"><ele>498.0</ele><time>2026-04-26T14:57:23.975Z</time></trkpt><trkpt lat="41.9070408" lon="13.0931797"><ele>497.0</ele><time>2026-04-26T14:57:24.964Z</time></trkpt><trkpt lat="41.9070228" lon="13.093388"><ele>496.0</ele><time>2026-04-26T14:57:26.011Z</time></trkpt><trkpt lat="41.9069919" lon="13.0935998"><ele>495.0</ele><time>2026-04-26T14:57:26.973Z</time></trkpt><trkpt lat="41.9069507" lon="13.0938162"><ele>495.0</ele><time>2026-04-26T14:57:27.96Z</time></trkpt><trkpt lat="41.9069069" lon="13.0940376"><ele>495.0</ele><time>2026-04-26T14:57:28.964Z</time></trkpt><trkpt lat="41.9068623" lon="13.0942659"><ele>495.0</ele><time>2026-04-26T14:57:29.963Z</time></trkpt><trkpt lat="41.906815" lon="13.0944985"><ele>494.0</ele><time>2026-04-26T14:57:30.962Z</time></trkpt><trkpt lat="41.9067692" lon="13.09473"><ele>493.0</ele><time>2026-04-26T14:57:31.99Z</time></trkpt><trkpt lat="41.9067371" lon="13.0949619"><ele>492.0</ele><time>2026-04-26T14:57:32.963Z</time></trkpt><trkpt lat="41.9067272" lon="13.0951962"><ele>491.66666666666663</ele><time>2026-04-26T14:57:33.963Z</time></trkpt><trkpt lat="41.9067362" lon="13.0954295"><ele>491.3333333333333</ele><time>2026-04-26T14:57:34.966Z</time></trkpt><trkpt lat="41.9067572" lon="13.0956604"><ele>491.0</ele><time>2026-04-26T14:57:35.979Z</time></trkpt><trkpt lat="41.9067791" lon="13.0958885"><ele>491.0</ele><time>2026-04-26T14:57:36.986Z</time></trkpt><trkpt lat="41.9067925" lon="13.0961264"><ele>491.0</ele><time>2026-04-26T14:57:37.98Z</time></trkpt><trkpt lat="41.9067841" lon="13.0963595"><ele>491.0</ele><time>2026-04-26T14:57:38.974Z</time></trkpt><trkpt lat="41.9067696" lon="13.0965854"><ele>491.0</ele><time>2026-04-26T14:57:40.008Z</time></trkpt><trkpt lat="41.9067452" lon="13.0968204"><ele>491.0</ele><time>2026-04-26T14:57:40.966Z</time></trkpt><trkpt lat="41.9067228" lon="13.0970578"><ele>491.0</ele><time>2026-04-26T14:57:41.988Z</time></trkpt><trkpt lat="41.906713" lon="13.097322"><ele>507.5</ele><time>2026-04-26T14:57:42.964Z</time></trkpt><trkpt lat="41.9067181" lon="13.0976177"><ele>524.0</ele><time>2026-04-26T14:57:43.973Z</time></trkpt><trkpt lat="41.9067336" lon="13.0979254"><ele>524.0</ele><time>2026-04-26T14:57:44.978Z</time></trkpt><trkpt lat="41.9067424" lon="13.0982167"><ele>524.0</ele><time>2026-04-26T14:57:45.971Z</time></trkpt><trkpt lat="41.9067426" lon="13.098486"><ele>524.0</ele><time>2026-04-26T14:57:46.961Z</time></trkpt><trkpt lat="41.9067267" lon="13.0987362"><ele>525.0</ele><time>2026-04-26T14:57:47.955Z</time></trkpt><trkpt lat="41.9067039" lon="13.0989659"><ele>526.0</ele><time>2026-04-26T14:57:48.958Z</time></trkpt><trkpt lat="41.9066829" lon="13.0991819"><ele>527.0</ele><time>2026-04-26T14:57:49.964Z</time></trkpt><trkpt lat="41.9066748" lon="13.0993951"><ele>527.3333333333333</ele><time>2026-04-26T14:57:50.954Z</time></trkpt><trkpt lat="41.9066872" lon="13.0996029"><ele>527.6666666666666</ele><time>2026-04-26T14:57:51.958Z</time></trkpt><trkpt lat="41.9067273" lon="13.0998023"><ele>528.0</ele><time>2026-04-26T14:57:52.957Z</time></trkpt><trkpt lat="41.9067955" lon="13.0999871"><ele>524.5</ele><time>2026-04-26T14:57:53.954Z</time></trkpt><trkpt lat="41.9068877" lon="13.1001473"><ele>521.0</ele><time>2026-04-26T14:57:54.952Z</time></trkpt><trkpt lat="41.9069937" lon="13.100279"><ele>517.5</ele><time>2026-04-26T14:57:55.958Z</time></trkpt><trkpt lat="41.9070874" lon="13.1003961"><ele>514.0</ele><time>2026-04-26T14:57:56.956Z</time></trkpt><trkpt lat="41.9071414" lon="13.1005216"><ele>514.0</ele><time>2026-04-26T14:57:57.955Z</time></trkpt><trkpt lat="41.9071582" lon="13.1006521"><ele>514.0</ele><time>2026-04-26T14:57:58.957Z</time></trkpt><trkpt lat="41.90715" lon="13.1007854"><ele>514.0</ele><time>2026-04-26T14:57:59.961Z</time></trkpt><trkpt lat="41.9071039" lon="13.1009273"><ele>514.0</ele><time>2026-04-26T14:58:00.966Z</time></trkpt><trkpt lat="41.9070375" lon="13.1010741"><ele>514.0</ele><time>2026-04-26T14:58:01.955Z</time></trkpt><trkpt lat="41.9069673" lon="13.1012216"><ele>515.3333333333334</ele><time>2026-04-26T14:58:02.951Z</time></trkpt><trkpt lat="41.9069034" lon="13.101418"><ele>516.6666666666666</ele><time>2026-04-26T14:58:03.962Z</time></trkpt><trkpt lat="41.9068538" lon="13.101622"><ele>518.0</ele><time>2026-04-26T14:58:04.952Z</time></trkpt><trkpt lat="41.9068068" lon="13.1018248"><ele>518.5</ele><time>2026-04-26T14:58:05.951Z</time></trkpt><trkpt lat="41.9067666" lon="13.1020149"><ele>519.0</ele><time>2026-04-26T14:58:06.955Z</time></trkpt><trkpt lat="41.9067328" lon="13.1021942"><ele>519.5</ele><time>2026-04-26T14:58:07.954Z</time></trkpt><trkpt lat="41.9067053" lon="13.1023557"><ele>520.0</ele><time>2026-04-26T14:58:08.955Z</time></trkpt><trkpt lat="41.9066938" lon="13.1025"><ele>520.4</ele><time>2026-04-26T14:58:09.957Z</time></trkpt><trkpt lat="41.906707" lon="13.1026284"><ele>520.8</ele><time>2026-04-26T14:58:10.955Z</time></trkpt><trkpt lat="41.9067468" lon="13.1027387"><ele>521.2</ele><time>2026-04-26T14:58:11.956Z</time></trkpt><trkpt lat="41.9068203" lon="13.1028291"><ele>521.6</ele><time>2026-04-26T14:58:12.949Z</time></trkpt><trkpt lat="41.9069113" lon="13.1029061"><ele>522.0</ele><time>2026-04-26T14:58:13.954Z</time></trkpt><trkpt lat="41.9070062" lon="13.102982"><ele>522.0</ele><time>2026-04-26T14:58:14.959Z</time></trkpt><trkpt lat="41.9071038" lon="13.1030661"><ele>522.0</ele><time>2026-04-26T14:58:15.964Z</time></trkpt><trkpt lat="41.9072002" lon="13.1031497"><ele>522.0</ele><time>2026-04-26T14:58:16.958Z</time></trkpt><trkpt lat="41.9072918" lon="13.1032179"><ele>522.0</ele><time>2026-04-26T14:58:17.961Z</time></trkpt><trkpt lat="41.9073795" lon="13.1032642"><ele>522.0</ele><time>2026-04-26T14:58:18.955Z</time></trkpt><trkpt lat="41.90747" lon="13.1032793"><ele>522.0</ele><time>2026-04-26T14:58:19.956Z</time></trkpt><trkpt lat="41.9075591" lon="13.1032667"><ele>522.0</ele><time>2026-04-26T14:58:20.953Z</time></trkpt><trkpt lat="41.9076438" lon="13.103249"><ele>522.0</ele><time>2026-04-26T14:58:21.959Z</time></trkpt><trkpt lat="41.9077293" lon="13.1032503"><ele>522.0</ele><time>2026-04-26T14:58:22.957Z</time></trkpt><trkpt lat="41.9078139" lon="13.1032813"><ele>522.0</ele><time>2026-04-26T14:58:23.95Z</time></trkpt><trkpt lat="41.9078921" lon="13.1033458"><ele>522.0</ele><time>2026-04-26T14:58:24.953Z</time></trkpt><trkpt lat="41.9079559" lon="13.1034427"><ele>522.0</ele><time>2026-04-26T14:58:25.957Z</time></trkpt><trkpt lat="41.9080063" lon="13.1035645"><ele>522.0</ele><time>2026-04-26T14:58:26.952Z</time></trkpt><trkpt lat="41.9080451" lon="13.1036974"><ele>522.0</ele><time>2026-04-26T14:58:27.964Z</time></trkpt><trkpt lat="41.9080781" lon="13.1038408"><ele>522.0</ele><time>2026-04-26T14:58:28.956Z</time></trkpt><trkpt lat="41.9081096" lon="13.1039839"><ele>522.0</ele><time>2026-04-26T14:58:29.956Z</time></trkpt><trkpt lat="41.9081452" lon="13.1041148"><ele>523.6</ele><time>2026-04-26T14:58:30.954Z</time></trkpt><trkpt lat="41.9081973" lon="13.1042293"><ele>525.2</ele><time>2026-04-26T14:58:31.958Z</time></trkpt><trkpt lat="41.9082445" lon="13.1043323"><ele>526.8</ele><time>2026-04-26T14:58:32.952Z</time></trkpt><trkpt lat="41.908323" lon="13.1043642"><ele>528.4</ele><time>2026-04-26T14:58:33.955Z</time></trkpt><trkpt lat="41.9084206" lon="13.1043499"><ele>530.0</ele><time>2026-04-26T14:58:34.955Z</time></trkpt><trkpt lat="41.9085196" lon="13.1043117"><ele>530.25</ele><time>2026-04-26T14:58:35.957Z</time></trkpt><trkpt lat="41.9086277" lon="13.1042677"><ele>530.5</ele><time>2026-04-26T14:58:36.958Z</time></trkpt><trkpt lat="41.9087439" lon="13.104226"><ele>530.75</ele><time>2026-04-26T14:58:37.958Z</time></trkpt><trkpt lat="41.9088605" lon="13.1042039"><ele>531.0</ele><time>2026-04-26T14:58:38.964Z</time></trkpt><trkpt lat="41.9089714" lon="13.1042007"><ele>531.0</ele><time>2026-04-26T14:58:39.964Z</time></trkpt><trkpt lat="41.9090817" lon="13.1041986"><ele>531.0</ele><time>2026-04-26T14:58:40.959Z</time></trkpt><trkpt lat="41.9091917" lon="13.1041771"><ele>531.0</ele><time>2026-04-26T14:58:41.962Z</time></trkpt><trkpt lat="41.9092975" lon="13.1041313"><ele>531.0</ele><time>2026-04-26T14:58:42.964Z</time></trkpt><trkpt lat="41.9094002" lon="13.1040538"><ele>528.75</ele><time>2026-04-26T14:58:43.964Z</time></trkpt><trkpt lat="41.9094995" lon="13.1039413"><ele>526.5</ele><time>2026-04-26T14:58:44.954Z</time></trkpt><trkpt lat="41.9096061" lon="13.1038043"><ele>524.25</ele><time>2026-04-26T14:58:45.964Z</time></trkpt><trkpt lat="41.9097216" lon="13.1036636"><ele>522.0</ele><time>2026-04-26T14:58:46.964Z</time></trkpt><trkpt lat="41.9098415" lon="13.1035256"><ele>522.0</ele><time>2026-04-26T14:58:47.957Z</time></trkpt><trkpt lat="41.9099677" lon="13.1033968"><ele>522.0</ele><time>2026-04-26T14:58:48.955Z</time></trkpt><trkpt lat="41.9101025" lon="13.1032787"><ele>522.0</ele><time>2026-04-26T14:58:49.966Z</time></trkpt><trkpt lat="41.9102368" lon="13.1031641"><ele>521.0</ele><time>2026-04-26T14:58:50.965Z</time></trkpt><trkpt lat="41.9103687" lon="13.1030507"><ele>520.0</ele><time>2026-04-26T14:58:51.963Z</time></trkpt><trkpt lat="41.9104986" lon="13.1029379"><ele>519.0</ele><time>2026-04-26T14:58:52.957Z</time></trkpt><trkpt lat="41.9106309" lon="13.1028272"><ele>519.0</ele><time>2026-04-26T14:58:53.965Z</time></trkpt><trkpt lat="41.9107491" lon="13.1027104"><ele>519.0</ele><time>2026-04-26T14:58:54.964Z</time></trkpt><trkpt lat="41.9108587" lon="13.1025762"><ele>519.0</ele><time>2026-04-26T14:58:55.955Z</time></trkpt><trkpt lat="41.9109613" lon="13.102443"><ele>519.0</ele><time>2026-04-26T14:58:56.952Z</time></trkpt><trkpt lat="41.9110589" lon="13.1023236"><ele>517.5</ele><time>2026-04-26T14:58:57.959Z</time></trkpt><trkpt lat="41.9111512" lon="13.1022046"><ele>516.0</ele><time>2026-04-26T14:58:58.956Z</time></trkpt><trkpt lat="41.9112437" lon="13.1020909"><ele>514.5</ele><time>2026-04-26T14:58:59.962Z</time></trkpt><trkpt lat="41.9113374" lon="13.1019946"><ele>513.0</ele><time>2026-04-26T14:59:00.962Z</time></trkpt><trkpt lat="41.9114447" lon="13.1019311"><ele>513.0</ele><time>2026-04-26T14:59:01.964Z</time></trkpt><trkpt lat="41.9115677" lon="13.101903"><ele>513.0</ele><time>2026-04-26T14:59:02.958Z</time></trkpt><trkpt lat="41.9117153" lon="13.1018969"><ele>513.0</ele><time>2026-04-26T14:59:03.959Z</time></trkpt><trkpt lat="41.9118803" lon="13.1018987"><ele>513.0</ele><time>2026-04-26T14:59:04.966Z</time></trkpt><trkpt lat="41.9120466" lon="13.101903"><ele>512.3333333333334</ele><time>2026-04-26T14:59:05.962Z</time></trkpt><trkpt lat="41.9122099" lon="13.1019086"><ele>511.6666666666667</ele><time>2026-04-26T14:59:06.958Z</time></trkpt><trkpt lat="41.9123688" lon="13.1019155"><ele>511.0</ele><time>2026-04-26T14:59:07.963Z</time></trkpt><trkpt lat="41.9125184" lon="13.101927"><ele>511.5</ele><time>2026-04-26T14:59:08.96Z</time></trkpt><trkpt lat="41.9126588" lon="13.1019451"><ele>512.0</ele><time>2026-04-26T14:59:09.956Z</time></trkpt><trkpt lat="41.9128005" lon="13.1019357"><ele>512.5</ele><time>2026-04-26T14:59:10.963Z</time></trkpt><trkpt lat="41.912942" lon="13.1019271"><ele>513.0</ele><time>2026-04-26T14:59:11.962Z</time></trkpt><trkpt lat="41.9130816" lon="13.101901"><ele>513.0</ele><time>2026-04-26T14:59:12.959Z</time></trkpt><trkpt lat="41.9132179" lon="13.1018664"><ele>513.0</ele><time>2026-04-26T14:59:13.953Z</time></trkpt><trkpt lat="41.9133456" lon="13.1018383"><ele>513.0</ele><time>2026-04-26T14:59:14.955Z</time></trkpt><trkpt lat="41.9134806" lon="13.1018098"><ele>513.0</ele><time>2026-04-26T14:59:15.953Z</time></trkpt><trkpt lat="41.9136206" lon="13.101781"><ele>513.75</ele><time>2026-04-26T14:59:16.953Z</time></trkpt><trkpt lat="41.9137584" lon="13.1017408"><ele>514.5</ele><time>2026-04-26T14:59:17.948Z</time></trkpt><trkpt lat="41.9138922" lon="13.1016952"><ele>515.25</ele><time>2026-04-26T14:59:18.953Z</time></trkpt><trkpt lat="41.9140201" lon="13.1016429"><ele>516.0</ele><time>2026-04-26T14:59:19.958Z</time></trkpt><trkpt lat="41.9141416" lon="13.1015759"><ele>513.75</ele><time>2026-04-26T14:59:20.958Z</time></trkpt><trkpt lat="41.9142579" lon="13.1015083"><ele>511.5</ele><time>2026-04-26T14:59:21.95Z</time></trkpt><trkpt lat="41.9143746" lon="13.1014426"><ele>509.25</ele><time>2026-04-26T14:59:22.956Z</time></trkpt><trkpt lat="41.9144823" lon="13.1013761"><ele>507.0</ele><time>2026-04-26T14:59:23.953Z</time></trkpt><trkpt lat="41.914581" lon="13.1013166"><ele>507.0</ele><time>2026-04-26T14:59:24.965Z</time></trkpt><trkpt lat="41.914674" lon="13.10127"><ele>507.00000000000006</ele><time>2026-04-26T14:59:25.966Z</time></trkpt><trkpt lat="41.9147647" lon="13.1012437"><ele>507.00000000000006</ele><time>2026-04-26T14:59:26.959Z</time></trkpt><trkpt lat="41.914859" lon="13.1012524"><ele>507.0</ele><time>2026-04-26T14:59:27.959Z</time></trkpt><trkpt lat="41.9149572" lon="13.1013017"><ele>507.0</ele><time>2026-04-26T14:59:28.965Z</time></trkpt><trkpt lat="41.9150554" lon="13.1013892"><ele>507.75</ele><time>2026-04-26T14:59:29.963Z</time></trkpt><trkpt lat="41.915156" lon="13.1014836"><ele>508.5</ele><time>2026-04-26T14:59:30.957Z</time></trkpt><trkpt lat="41.9152578" lon="13.1015542"><ele>509.25</ele><time>2026-04-26T14:59:31.957Z</time></trkpt><trkpt lat="41.9153628" lon="13.1016016"><ele>510.0</ele><time>2026-04-26T14:59:32.959Z</time></trkpt><trkpt lat="41.9154701" lon="13.1016238"><ele>510.0</ele><time>2026-04-26T14:59:33.965Z</time></trkpt><trkpt lat="41.9155753" lon="13.101615"><ele>510.0</ele><time>2026-04-26T14:59:34.959Z</time></trkpt><trkpt lat="41.9156764" lon="13.1016077"><ele>510.0</ele><time>2026-04-26T14:59:35.958Z</time></trkpt><trkpt lat="41.9157757" lon="13.1015354"><ele>510.0</ele><time>2026-04-26T14:59:36.954Z</time></trkpt><trkpt lat="41.9158611" lon="13.1014688"><ele>510.0</ele><time>2026-04-26T14:59:37.967Z</time></trkpt><trkpt lat="41.9159467" lon="13.1014016"><ele>509.6666666666667</ele><time>2026-04-26T14:59:38.956Z</time></trkpt><trkpt lat="41.9160251" lon="13.1013312"><ele>509.33333333333337</ele><time>2026-04-26T14:59:39.949Z</time></trkpt><trkpt lat="41.9161122" lon="13.1012827"><ele>509.0</ele><time>2026-04-26T14:59:40.956Z</time></trkpt><trkpt lat="41.9162015" lon="13.1012593"><ele>508.6666666666667</ele><time>2026-04-26T14:59:41.952Z</time></trkpt><trkpt lat="41.9162878" lon="13.1012499"><ele>508.33333333333337</ele><time>2026-04-26T14:59:42.957Z</time></trkpt><trkpt lat="41.9163704" lon="13.1012595"><ele>508.0</ele><time>2026-04-26T14:59:43.965Z</time></trkpt><trkpt lat="41.9164455" lon="13.1013029"><ele>508.0</ele><time>2026-04-26T14:59:44.961Z</time></trkpt><trkpt lat="41.916504" lon="13.101386"><ele>507.99999999999994</ele><time>2026-04-26T14:59:45.958Z</time></trkpt><trkpt lat="41.9165458" lon="13.1015002"><ele>507.99999999999994</ele><time>2026-04-26T14:59:46.948Z</time></trkpt><trkpt lat="41.9165787" lon="13.1016337"><ele>508.0</ele><time>2026-04-26T14:59:47.96Z</time></trkpt><trkpt lat="41.9166157" lon="13.1017741"><ele>508.0</ele><time>2026-04-26T14:59:48.953Z</time></trkpt><trkpt lat="41.9166577" lon="13.1019168"><ele>507.75</ele><time>2026-04-26T14:59:49.966Z</time></trkpt><trkpt lat="41.9167108" lon="13.1020608"><ele>507.5</ele><time>2026-04-26T14:59:50.959Z</time></trkpt><trkpt lat="41.9167873" lon="13.1021941"><ele>507.25</ele><time>2026-04-26T14:59:51.957Z</time></trkpt><trkpt lat="41.9168796" lon="13.1023069"><ele>507.0</ele><time>2026-04-26T14:59:52.961Z</time></trkpt><trkpt lat="41.9169771" lon="13.1024032"><ele>504.75</ele><time>2026-04-26T14:59:53.97Z</time></trkpt><trkpt lat="41.9170719" lon="13.1024909"><ele>502.5</ele><time>2026-04-26T14:59:54.948Z</time></trkpt><trkpt lat="41.9171666" lon="13.1025778"><ele>500.25</ele><time>2026-04-26T14:59:55.952Z</time></trkpt><trkpt lat="41.917261" lon="13.1026659"><ele>498.0</ele><time>2026-04-26T14:59:56.949Z</time></trkpt><trkpt lat="41.9173615" lon="13.1027429"><ele>498.0</ele><time>2026-04-26T14:59:57.958Z</time></trkpt><trkpt lat="41.9174746" lon="13.1028005"><ele>498.0</ele><time>2026-04-26T14:59:58.956Z</time></trkpt><trkpt lat="41.9175987" lon="13.1028259"><ele>498.0</ele><time>2026-04-26T14:59:59.967Z</time></trkpt><trkpt lat="41.9177303" lon="13.1028189"><ele>498.0</ele><time>2026-04-26T15:00:00.958Z</time></trkpt><trkpt lat="41.9178603" lon="13.1027798"><ele>494.75</ele><time>2026-04-26T15:00:01.977Z</time></trkpt><trkpt lat="41.9179874" lon="13.1027151"><ele>491.5</ele><time>2026-04-26T15:00:02.958Z</time></trkpt><trkpt lat="41.9181142" lon="13.1026434"><ele>488.25</ele><time>2026-04-26T15:00:03.963Z</time></trkpt><trkpt lat="41.9182391" lon="13.1025702"><ele>485.0</ele><time>2026-04-26T15:00:04.959Z</time></trkpt><trkpt lat="41.9183608" lon="13.1025046"><ele>483.25</ele><time>2026-04-26T15:00:05.964Z</time></trkpt><trkpt lat="41.9184767" lon="13.1024356"><ele>481.5</ele><time>2026-04-26T15:00:06.957Z</time></trkpt><trkpt lat="41.9185877" lon="13.1023633"><ele>479.75</ele><time>2026-04-26T15:00:07.959Z</time></trkpt><trkpt lat="41.9186989" lon="13.1022972"><ele>478.0</ele><time>2026-04-26T15:00:08.954Z</time></trkpt><trkpt lat="41.9188115" lon="13.1022404"><ele>476.25</ele><time>2026-04-26T15:00:09.955Z</time></trkpt><trkpt lat="41.9189308" lon="13.1022001"><ele>474.5</ele><time>2026-04-26T15:00:10.955Z</time></trkpt><trkpt lat="41.9190441" lon="13.1021664"><ele>472.75</ele><time>2026-04-26T15:00:11.968Z</time></trkpt><trkpt lat="41.9191636" lon="13.1021797"><ele>471.0</ele><time>2026-04-26T15:00:12.955Z</time></trkpt><trkpt lat="41.9192722" lon="13.1022223"><ele>469.75</ele><time>2026-04-26T15:00:13.955Z</time></trkpt><trkpt lat="41.9193747" lon="13.1022898"><ele>468.5</ele><time>2026-04-26T15:00:14.965Z</time></trkpt><trkpt lat="41.9194757" lon="13.1024026"><ele>467.25</ele><time>2026-04-26T15:00:15.968Z</time></trkpt><trkpt lat="41.9195596" lon="13.1025305"><ele>466.0</ele><time>2026-04-26T15:00:16.956Z</time></trkpt><trkpt lat="41.9196098" lon="13.1026631"><ele>468.5</ele><time>2026-04-26T15:00:17.96Z</time></trkpt><trkpt lat="41.9196376" lon="13.1027994"><ele>471.0</ele><time>2026-04-26T15:00:18.96Z</time></trkpt><trkpt lat="41.9196688" lon="13.1029352"><ele>473.5</ele><time>2026-04-26T15:00:19.96Z</time></trkpt><trkpt lat="41.9196716" lon="13.1030962"><ele>476.0</ele><time>2026-04-26T15:00:20.956Z</time></trkpt><trkpt lat="41.9196593" lon="13.1032684"><ele>480.0</ele><time>2026-04-26T15:00:21.956Z</time></trkpt><trkpt lat="41.9196387" lon="13.10346"><ele>484.0</ele><time>2026-04-26T15:00:22.953Z</time></trkpt><trkpt lat="41.919621" lon="13.1036482"><ele>488.0</ele><time>2026-04-26T15:00:23.955Z</time></trkpt><trkpt lat="41.9194256" lon="13.1047752"><ele>476.5</ele><time>2026-04-26T15:00:28.951Z</time></trkpt><trkpt lat="41.9193698" lon="13.1050536"><ele>465.0</ele><time>2026-04-26T15:00:29.95Z</time></trkpt><trkpt lat="41.9192672" lon="13.1054491"><ele>464.0</ele><time>2026-04-26T15:00:30.953Z</time></trkpt><trkpt lat="41.9191741" lon="13.1057638"><ele>463.0</ele><time>2026-04-26T15:00:31.952Z</time></trkpt><trkpt lat="41.9191131" lon="13.1059934"><ele>462.0</ele><time>2026-04-26T15:00:32.963Z</time></trkpt><trkpt lat="41.9190895" lon="13.1062047"><ele>462.0</ele><time>2026-04-26T15:00:33.97Z</time></trkpt><trkpt lat="41.9190763" lon="13.1063935"><ele>462.0</ele><time>2026-04-26T15:00:34.958Z</time></trkpt><trkpt lat="41.9190821" lon="13.1065769"><ele>462.0</ele><time>2026-04-26T15:00:35.963Z</time></trkpt><trkpt lat="41.9190716" lon="13.1067483"><ele>462.0</ele><time>2026-04-26T15:00:36.951Z</time></trkpt><trkpt lat="41.9190636" lon="13.1069072"><ele>460.40000000000003</ele><time>2026-04-26T15:00:37.956Z</time></trkpt><trkpt lat="41.9190717" lon="13.1070639"><ele>458.80000000000007</ele><time>2026-04-26T15:00:38.958Z</time></trkpt><trkpt lat="41.919114" lon="13.1071836"><ele>457.2</ele><time>2026-04-26T15:00:39.959Z</time></trkpt><trkpt lat="41.9191833" lon="13.1072778"><ele>455.6</ele><time>2026-04-26T15:00:40.959Z</time></trkpt><trkpt lat="41.9192745" lon="13.1073264"><ele>454.0</ele><time>2026-04-26T15:00:41.96Z</time></trkpt><trkpt lat="41.9193789" lon="13.1073506"><ele>448.25</ele><time>2026-04-26T15:00:42.956Z</time></trkpt><trkpt lat="41.9195066" lon="13.107353"><ele>442.5</ele><time>2026-04-26T15:00:43.954Z</time></trkpt><trkpt lat="41.9196504" lon="13.10735"><ele>436.75</ele><time>2026-04-26T15:00:44.956Z</time></trkpt><trkpt lat="41.9198032" lon="13.1073437"><ele>431.0</ele><time>2026-04-26T15:00:45.962Z</time></trkpt><trkpt lat="41.9199582" lon="13.1073373"><ele>429.0</ele><time>2026-04-26T15:00:46.957Z</time></trkpt><trkpt lat="41.9201141" lon="13.1073332"><ele>427.0</ele><time>2026-04-26T15:00:47.955Z</time></trkpt><trkpt lat="41.9202651" lon="13.1073208"><ele>425.0</ele><time>2026-04-26T15:00:48.957Z</time></trkpt><trkpt lat="41.9204116" lon="13.1073049"><ele>425.0</ele><time>2026-04-26T15:00:49.958Z</time></trkpt><trkpt lat="41.9205483" lon="13.1072869"><ele>425.0</ele><time>2026-04-26T15:00:50.954Z</time></trkpt><trkpt lat="41.9206763" lon="13.1072612"><ele>425.0</ele><time>2026-04-26T15:00:51.96Z</time></trkpt><trkpt lat="41.920791" lon="13.1072021"><ele>425.0</ele><time>2026-04-26T15:00:52.962Z</time></trkpt><trkpt lat="41.9208926" lon="13.1071233"><ele>430.0</ele><time>2026-04-26T15:00:53.966Z</time></trkpt><trkpt lat="41.9209925" lon="13.107033"><ele>435.0</ele><time>2026-04-26T15:00:54.967Z</time></trkpt><trkpt lat="41.9210947" lon="13.1069393"><ele>440.0</ele><time>2026-04-26T15:00:55.96Z</time></trkpt><trkpt lat="41.9211969" lon="13.1068605"><ele>445.0</ele><time>2026-04-26T15:00:56.968Z</time></trkpt><trkpt lat="41.9213063" lon="13.1067905"><ele>445.0</ele><time>2026-04-26T15:00:57.952Z</time></trkpt><trkpt lat="41.921422" lon="13.1067204"><ele>445.0</ele><time>2026-04-26T15:00:58.963Z</time></trkpt><trkpt lat="41.9215363" lon="13.1066516"><ele>445.0</ele><time>2026-04-26T15:00:59.969Z</time></trkpt><trkpt lat="41.9216638" lon="13.1066025"><ele>445.0</ele><time>2026-04-26T15:01:00.956Z</time></trkpt><trkpt lat="41.9217917" lon="13.1065513"><ele>440.75</ele><time>2026-04-26T15:01:01.956Z</time></trkpt><trkpt lat="41.9219207" lon="13.1065127"><ele>436.5</ele><time>2026-04-26T15:01:02.957Z</time></trkpt><trkpt lat="41.9220562" lon="13.1064697"><ele>432.25</ele><time>2026-04-26T15:01:03.957Z</time></trkpt><trkpt lat="41.9221914" lon="13.1064239"><ele>428.0</ele><time>2026-04-26T15:01:04.957Z</time></trkpt><trkpt lat="41.9223299" lon="13.1063771"><ele>428.0</ele><time>2026-04-26T15:01:05.957Z</time></trkpt><trkpt lat="41.9224728" lon="13.1063322"><ele>428.0</ele><time>2026-04-26T15:01:06.962Z</time></trkpt><trkpt lat="41.9226163" lon="13.1062844"><ele>428.0</ele><time>2026-04-26T15:01:07.954Z</time></trkpt><trkpt lat="41.9227576" lon="13.1062336"><ele>428.0</ele><time>2026-04-26T15:01:08.954Z</time></trkpt><trkpt lat="41.9228958" lon="13.1061717"><ele>429.5</ele><time>2026-04-26T15:01:09.967Z</time></trkpt><trkpt lat="41.9230277" lon="13.1060966"><ele>431.0</ele><time>2026-04-26T15:01:10.967Z</time></trkpt><trkpt lat="41.9231548" lon="13.1060059"><ele>432.5</ele><time>2026-04-26T15:01:11.952Z</time></trkpt><trkpt lat="41.9232741" lon="13.1059157"><ele>434.0</ele><time>2026-04-26T15:01:12.96Z</time></trkpt><trkpt lat="41.9233895" lon="13.1058321"><ele>437.0</ele><time>2026-04-26T15:01:13.956Z</time></trkpt><trkpt lat="41.9235013" lon="13.1057558"><ele>440.0</ele><time>2026-04-26T15:01:14.958Z</time></trkpt><trkpt lat="41.9236091" lon="13.1056885"><ele>443.0</ele><time>2026-04-26T15:01:15.963Z</time></trkpt><trkpt lat="41.9237171" lon="13.105633"><ele>446.0</ele><time>2026-04-26T15:01:16.954Z</time></trkpt><trkpt lat="41.9238267" lon="13.1055855"><ele>441.8</ele><time>2026-04-26T15:01:17.957Z</time></trkpt><trkpt lat="41.9239362" lon="13.105534"><ele>437.6</ele><time>2026-04-26T15:01:18.955Z</time></trkpt><trkpt lat="41.9240406" lon="13.1054708"><ele>433.4</ele><time>2026-04-26T15:01:19.954Z</time></trkpt><trkpt lat="41.9241402" lon="13.1053999"><ele>429.2</ele><time>2026-04-26T15:01:20.954Z</time></trkpt><trkpt lat="41.9242315" lon="13.1053322"><ele>425.0</ele><time>2026-04-26T15:01:21.954Z</time></trkpt><trkpt lat="41.924319" lon="13.1052777"><ele>425.0</ele><time>2026-04-26T15:01:22.953Z</time></trkpt><trkpt lat="41.9244073" lon="13.1052338"><ele>425.0</ele><time>2026-04-26T15:01:23.962Z</time></trkpt><trkpt lat="41.9245208" lon="13.1052289"><ele>425.0</ele><time>2026-04-26T15:01:24.955Z</time></trkpt><trkpt lat="41.9246359" lon="13.105244"><ele>425.0</ele><time>2026-04-26T15:01:25.964Z</time></trkpt><trkpt lat="41.924745" lon="13.1052417"><ele>425.0</ele><time>2026-04-26T15:01:26.955Z</time></trkpt><trkpt lat="41.9248527" lon="13.1052213"><ele>425.0</ele><time>2026-04-26T15:01:27.963Z</time></trkpt><trkpt lat="41.9249707" lon="13.1052019"><ele>425.0</ele><time>2026-04-26T15:01:28.947Z</time></trkpt><trkpt lat="41.9250778" lon="13.1051665"><ele>425.0</ele><time>2026-04-26T15:01:29.96Z</time></trkpt><trkpt lat="41.9251831" lon="13.1051242"><ele>425.0</ele><time>2026-04-26T15:01:30.961Z</time></trkpt><trkpt lat="41.9252897" lon="13.1050607"><ele>425.5</ele><time>2026-04-26T15:01:31.957Z</time></trkpt><trkpt lat="41.9253953" lon="13.104999"><ele>426.0</ele><time>2026-04-26T15:01:32.953Z</time></trkpt><trkpt lat="41.9254914" lon="13.1049097"><ele>426.5</ele><time>2026-04-26T15:01:33.958Z</time></trkpt><trkpt lat="41.9255782" lon="13.1047923"><ele>427.0</ele><time>2026-04-26T15:01:34.956Z</time></trkpt><trkpt lat="41.9256517" lon="13.104667"><ele>427.0</ele><time>2026-04-26T15:01:35.957Z</time></trkpt><trkpt lat="41.9257146" lon="13.1045263"><ele>427.0</ele><time>2026-04-26T15:01:36.958Z</time></trkpt><trkpt lat="41.9257669" lon="13.1043727"><ele>427.0</ele><time>2026-04-26T15:01:37.966Z</time></trkpt><trkpt lat="41.9258162" lon="13.1042185"><ele>427.0</ele><time>2026-04-26T15:01:38.961Z</time></trkpt><trkpt lat="41.925866" lon="13.1040611"><ele>430.5</ele><time>2026-04-26T15:01:39.968Z</time></trkpt><trkpt lat="41.9259159" lon="13.1039017"><ele>434.0</ele><time>2026-04-26T15:01:40.959Z</time></trkpt><trkpt lat="41.925965" lon="13.103738"><ele>437.5</ele><time>2026-04-26T15:01:41.955Z</time></trkpt><trkpt lat="41.9260091" lon="13.1035739"><ele>441.0</ele><time>2026-04-26T15:01:42.963Z</time></trkpt><trkpt lat="41.9260411" lon="13.1034098"><ele>435.5</ele><time>2026-04-26T15:01:43.96Z</time></trkpt><trkpt lat="41.926054" lon="13.103246"><ele>430.0</ele><time>2026-04-26T15:01:44.948Z</time></trkpt><trkpt lat="41.9260654" lon="13.1031031"><ele>424.5</ele><time>2026-04-26T15:01:45.961Z</time></trkpt><trkpt lat="41.9260685" lon="13.1029362"><ele>419.0</ele><time>2026-04-26T15:01:46.957Z</time></trkpt><trkpt lat="41.9260739" lon="13.1027785"><ele>419.0</ele><time>2026-04-26T15:01:47.962Z</time></trkpt><trkpt lat="41.9260862" lon="13.1026166"><ele>419.0</ele><time>2026-04-26T15:01:48.951Z</time></trkpt><trkpt lat="41.9260827" lon="13.1024703"><ele>419.0</ele><time>2026-04-26T15:01:49.96Z</time></trkpt><trkpt lat="41.9260786" lon="13.1023358"><ele>419.0</ele><time>2026-04-26T15:01:50.961Z</time></trkpt><trkpt lat="41.9260521" lon="13.1022069"><ele>419.0</ele><time>2026-04-26T15:01:51.965Z</time></trkpt><trkpt lat="41.9260049" lon="13.1020926"><ele>419.4</ele><time>2026-04-26T15:01:52.963Z</time></trkpt><trkpt lat="41.9259446" lon="13.1019923"><ele>419.79999999999995</ele><time>2026-04-26T15:01:53.96Z</time></trkpt><trkpt lat="41.9258747" lon="13.1019004"><ele>420.20000000000005</ele><time>2026-04-26T15:01:54.954Z</time></trkpt><trkpt lat="41.9257986" lon="13.1018079"><ele>420.6</ele><time>2026-04-26T15:01:55.967Z</time></trkpt><trkpt lat="41.9257231" lon="13.101731"><ele>421.0</ele><time>2026-04-26T15:01:56.959Z</time></trkpt><trkpt lat="41.9256615" lon="13.1016203"><ele>418.4</ele><time>2026-04-26T15:01:57.959Z</time></trkpt><trkpt lat="41.9256071" lon="13.1015072"><ele>415.8</ele><time>2026-04-26T15:01:58.953Z</time></trkpt><trkpt lat="41.9255946" lon="13.1013554"><ele>413.2</ele><time>2026-04-26T15:01:59.96Z</time></trkpt><trkpt lat="41.9255992" lon="13.1012012"><ele>410.59999999999997</ele><time>2026-04-26T15:02:00.961Z</time></trkpt><trkpt lat="41.9256061" lon="13.1010571"><ele>408.0</ele><time>2026-04-26T15:02:01.952Z</time></trkpt><trkpt lat="41.9256235" lon="13.1009058"><ele>408.0</ele><time>2026-04-26T15:02:02.967Z</time></trkpt><trkpt lat="41.925636" lon="13.1007596"><ele>408.0</ele><time>2026-04-26T15:02:03.955Z</time></trkpt><trkpt lat="41.925651" lon="13.1006114"><ele>408.0</ele><time>2026-04-26T15:02:04.955Z</time></trkpt><trkpt lat="41.9256671" lon="13.1004722"><ele>408.0</ele><time>2026-04-26T15:02:05.961Z</time></trkpt><trkpt lat="41.9256831" lon="13.1003353"><ele>408.0</ele><time>2026-04-26T15:02:06.963Z</time></trkpt><trkpt lat="41.9257127" lon="13.1002078"><ele>407.0</ele><time>2026-04-26T15:02:07.955Z</time></trkpt><trkpt lat="41.9257118" lon="13.1000916"><ele>406.0</ele><time>2026-04-26T15:02:08.965Z</time></trkpt><trkpt lat="41.9257213" lon="13.09998"><ele>405.0</ele><time>2026-04-26T15:02:09.96Z</time></trkpt><trkpt lat="41.9257427" lon="13.0998807"><ele>404.0</ele><time>2026-04-26T15:02:10.957Z</time></trkpt><trkpt lat="41.9257626" lon="13.0997805"><ele>403.0</ele><time>2026-04-26T15:02:11.967Z</time></trkpt><trkpt lat="41.9257827" lon="13.0996809"><ele>402.0</ele><time>2026-04-26T15:02:12.955Z</time></trkpt><trkpt lat="41.9257965" lon="13.0995834"><ele>401.8333333333333</ele><time>2026-04-26T15:02:13.956Z</time></trkpt><trkpt lat="41.9258085" lon="13.0994906"><ele>401.66666666666663</ele><time>2026-04-26T15:02:14.962Z</time></trkpt><trkpt lat="41.9258191" lon="13.0993978"><ele>401.5</ele><time>2026-04-26T15:02:15.961Z</time></trkpt><trkpt lat="41.9258253" lon="13.0993063"><ele>401.3333333333333</ele><time>2026-04-26T15:02:16.949Z</time></trkpt><trkpt lat="41.925825" lon="13.0992203"><ele>401.16666666666663</ele><time>2026-04-26T15:02:17.958Z</time></trkpt><trkpt lat="41.9258153" lon="13.0991327"><ele>401.0</ele><time>2026-04-26T15:02:18.957Z</time></trkpt><trkpt lat="41.9258154" lon="13.0989705"><ele>400.8</ele><time>2026-04-26T15:02:20.959Z</time></trkpt><trkpt lat="41.9258166" lon="13.0988224"><ele>400.6</ele><time>2026-04-26T15:02:22.953Z</time></trkpt><trkpt lat="41.9258151" lon="13.0986864"><ele>400.4</ele><time>2026-04-26T15:02:24.96Z</time></trkpt><trkpt lat="41.9258234" lon="13.0985637"><ele>400.2</ele><time>2026-04-26T15:02:26.956Z</time></trkpt><trkpt lat="41.9258263" lon="13.0984454"><ele>400.0</ele><time>2026-04-26T15:02:28.959Z</time></trkpt><trkpt lat="41.9258475" lon="13.0983305"><ele>401.33333333333337</ele><time>2026-04-26T15:02:30.975Z</time></trkpt><trkpt lat="41.9258628" lon="13.0982205"><ele>402.6666666666667</ele><time>2026-04-26T15:02:32.962Z</time></trkpt><trkpt lat="41.9258811" lon="13.0981339"><ele>404.0</ele><time>2026-04-26T15:02:34.97Z</time></trkpt><trkpt lat="41.9259225" lon="13.0980471"><ele>405.33333333333337</ele><time>2026-04-26T15:02:37.958Z</time></trkpt><trkpt lat="41.925973" lon="13.0979844"><ele>406.6666666666667</ele><time>2026-04-26T15:02:39.969Z</time></trkpt><trkpt lat="41.9260421" lon="13.0979125"><ele>408.0</ele><time>2026-04-26T15:02:41.966Z</time></trkpt><trkpt lat="41.926121" lon="13.0978261"><ele>409.4</ele><time>2026-04-26T15:02:43.96Z</time></trkpt><trkpt lat="41.9261948" lon="13.0977209"><ele>410.79999999999995</ele><time>2026-04-26T15:02:45.966Z</time></trkpt><trkpt lat="41.9262747" lon="13.0976123"><ele>412.2</ele><time>2026-04-26T15:02:47.961Z</time></trkpt><trkpt lat="41.9263602" lon="13.0974965"><ele>413.6</ele><time>2026-04-26T15:02:49.96Z</time></trkpt><trkpt lat="41.9264101" lon="13.0974421"><ele>415.0</ele><time>2026-04-26T15:02:50.958Z</time></trkpt><trkpt lat="41.9264644" lon="13.0973919"><ele>417.50000000000006</ele><time>2026-04-26T15:02:51.954Z</time></trkpt><trkpt lat="41.9265184" lon="13.0973397"><ele>420.0</ele><time>2026-04-26T15:02:52.957Z</time></trkpt><trkpt lat="41.9265727" lon="13.0972904"><ele>422.5</ele><time>2026-04-26T15:02:53.961Z</time></trkpt><trkpt lat="41.9266262" lon="13.0972444"><ele>425.0</ele><time>2026-04-26T15:02:54.965Z</time></trkpt><trkpt lat="41.9267336" lon="13.0971638"><ele>427.50000000000006</ele><time>2026-04-26T15:02:56.957Z</time></trkpt><trkpt lat="41.9268363" lon="13.0971131"><ele>430.0</ele><time>2026-04-26T15:02:58.959Z</time></trkpt><trkpt lat="41.9269468" lon="13.0971322"><ele>430.83333333333337</ele><time>2026-04-26T15:03:00.962Z</time></trkpt><trkpt lat="41.9270419" lon="13.0970683"><ele>431.6666666666667</ele><time>2026-04-26T15:03:02.961Z</time></trkpt><trkpt lat="41.9271052" lon="13.0969328"><ele>432.5</ele><time>2026-04-26T15:03:04.951Z</time></trkpt><trkpt lat="41.9271276" lon="13.0968508"><ele>433.33333333333337</ele><time>2026-04-26T15:03:05.954Z</time></trkpt><trkpt lat="41.9271447" lon="13.0967614"><ele>434.1666666666667</ele><time>2026-04-26T15:03:06.952Z</time></trkpt><trkpt lat="41.9271454" lon="13.0966751"><ele>435.0</ele><time>2026-04-26T15:03:07.959Z</time></trkpt><trkpt lat="41.9270678" lon="13.0965593"><ele>435.0</ele><time>2026-04-26T15:03:09.959Z</time></trkpt><trkpt lat="41.9269504" lon="13.0965833"><ele>435.0</ele><time>2026-04-26T15:03:11.956Z</time></trkpt><trkpt lat="41.9268877" lon="13.0966287"><ele>435.0</ele><time>2026-04-26T15:03:12.957Z</time></trkpt><trkpt lat="41.9268178" lon="13.0966721"><ele>435.0</ele><time>2026-04-26T15:03:13.961Z</time></trkpt><trkpt lat="41.9267485" lon="13.0967138"><ele>435.0</ele><time>2026-04-26T15:03:14.957Z</time></trkpt><trkpt lat="41.9266688" lon="13.0967456"><ele>435.0</ele><time>2026-04-26T15:03:15.96Z</time></trkpt><trkpt lat="41.9265866" lon="13.0967801"><ele>434.0</ele><time>2026-04-26T15:03:16.962Z</time></trkpt><trkpt lat="41.9265003" lon="13.0968184"><ele>433.0</ele><time>2026-04-26T15:03:17.957Z</time></trkpt><trkpt lat="41.9264124" lon="13.0968572"><ele>432.0</ele><time>2026-04-26T15:03:18.954Z</time></trkpt><trkpt lat="41.9263218" lon="13.096893"><ele>431.0</ele><time>2026-04-26T15:03:19.966Z</time></trkpt><trkpt lat="41.9262298" lon="13.0969217"><ele>430.0</ele><time>2026-04-26T15:03:20.955Z</time></trkpt><trkpt lat="41.9261332" lon="13.0969445"><ele>430.00000000000006</ele><time>2026-04-26T15:03:21.966Z</time></trkpt><trkpt lat="41.9260403" lon="13.0969577"><ele>430.0</ele><time>2026-04-26T15:03:22.973Z</time></trkpt><trkpt lat="41.9259472" lon="13.0969638"><ele>430.0</ele><time>2026-04-26T15:03:23.967Z</time></trkpt><trkpt lat="41.925859" lon="13.0969661"><ele>430.0</ele><time>2026-04-26T15:03:24.966Z</time></trkpt><trkpt lat="41.9257771" lon="13.0969617"><ele>430.00000000000006</ele><time>2026-04-26T15:03:25.963Z</time></trkpt><trkpt lat="41.9257003" lon="13.0969501"><ele>430.0</ele><time>2026-04-26T15:03:26.961Z</time></trkpt><trkpt lat="41.9256265" lon="13.0969268"><ele>430.6666666666667</ele><time>2026-04-26T15:03:27.961Z</time></trkpt><trkpt lat="41.9255568" lon="13.096896"><ele>431.33333333333337</ele><time>2026-04-26T15:03:28.961Z</time></trkpt><trkpt lat="41.9254869" lon="13.096863"><ele>432.0</ele><time>2026-04-26T15:03:29.953Z</time></trkpt><trkpt lat="41.9254158" lon="13.09683"><ele>432.66666666666663</ele><time>2026-04-26T15:03:30.963Z</time></trkpt><trkpt lat="41.9253429" lon="13.0967968"><ele>433.3333333333333</ele><time>2026-04-26T15:03:31.958Z</time></trkpt><trkpt lat="41.9252697" lon="13.0967626"><ele>434.0</ele><time>2026-04-26T15:03:32.956Z</time></trkpt><trkpt lat="41.925197" lon="13.0967287"><ele>434.0</ele><time>2026-04-26T15:03:33.957Z</time></trkpt><trkpt lat="41.9251279" lon="13.0966859"><ele>434.0</ele><time>2026-04-26T15:03:34.96Z</time></trkpt><trkpt lat="41.9250564" lon="13.0966521"><ele>434.0</ele><time>2026-04-26T15:03:35.972Z</time></trkpt><trkpt lat="41.9249888" lon="13.0966147"><ele>434.0</ele><time>2026-04-26T15:03:36.961Z</time></trkpt><trkpt lat="41.9249289" lon="13.0965492"><ele>434.0</ele><time>2026-04-26T15:03:37.955Z</time></trkpt><trkpt lat="41.9248743" lon="13.0964886"><ele>434.0</ele><time>2026-04-26T15:03:38.962Z</time></trkpt><trkpt lat="41.9248238" lon="13.0964245"><ele>434.0</ele><time>2026-04-26T15:03:39.957Z</time></trkpt><trkpt lat="41.9247724" lon="13.0963723"><ele>435.79999999999995</ele><time>2026-04-26T15:03:40.961Z</time></trkpt><trkpt lat="41.9247178" lon="13.0963239"><ele>437.59999999999997</ele><time>2026-04-26T15:03:41.956Z</time></trkpt><trkpt lat="41.9246103" lon="13.0962447"><ele>439.4</ele><time>2026-04-26T15:03:43.957Z</time></trkpt><trkpt lat="41.9245193" lon="13.0961769"><ele>441.2</ele><time>2026-04-26T15:03:45.961Z</time></trkpt><trkpt lat="41.9244401" lon="13.0961061"><ele>443.0</ele><time>2026-04-26T15:03:47.955Z</time></trkpt><trkpt lat="41.924358" lon="13.0960671"><ele>442.99999999999994</ele><time>2026-04-26T15:03:49.966Z</time></trkpt><trkpt lat="41.9242456" lon="13.0960548"><ele>443.0</ele><time>2026-04-26T15:03:51.973Z</time></trkpt><trkpt lat="41.9241669" lon="13.0960381"><ele>443.0</ele><time>2026-04-26T15:03:54.96Z</time></trkpt><trkpt lat="41.924116" lon="13.0959497"><ele>443.0</ele><time>2026-04-26T15:03:58.963Z</time></trkpt><trkpt lat="41.9241122" lon="13.0958569"><ele>442.99999999999994</ele><time>2026-04-26T15:04:00.966Z</time></trkpt><trkpt lat="41.9241214" lon="13.0957514"><ele>443.0</ele><time>2026-04-26T15:04:02.957Z</time></trkpt><trkpt lat="41.9241276" lon="13.0956318"><ele>437.0</ele><time>2026-04-26T15:04:04.965Z</time></trkpt><trkpt lat="41.924136" lon="13.0954898"><ele>431.0</ele><time>2026-04-26T15:04:06.959Z</time></trkpt><trkpt lat="41.9241498" lon="13.0953348"><ele>425.0</ele><time>2026-04-26T15:04:08.958Z</time></trkpt><trkpt lat="41.9241619" lon="13.0951693"><ele>419.0</ele><time>2026-04-26T15:04:10.956Z</time></trkpt><trkpt lat="41.9241743" lon="13.0950107"><ele>417.99999999999994</ele><time>2026-04-26T15:04:12.968Z</time></trkpt><trkpt lat="41.9241893" lon="13.0948848"><ele>417.0</ele><time>2026-04-26T15:04:14.966Z</time></trkpt><trkpt lat="41.9242119" lon="13.094799"><ele>416.0</ele><time>2026-04-26T15:04:16.967Z</time></trkpt><trkpt lat="41.9242351" lon="13.0947137"><ele>415.0</ele><time>2026-04-26T15:04:18.959Z</time></trkpt><trkpt lat="41.9242672" lon="13.0946012"><ele>413.99999999999994</ele><time>2026-04-26T15:04:20.968Z</time></trkpt><trkpt lat="41.9243031" lon="13.0944486"><ele>413.0</ele><time>2026-04-26T15:04:22.963Z</time></trkpt><trkpt lat="41.9243282" lon="13.0943617"><ele>414.8333333333333</ele><time>2026-04-26T15:04:23.956Z</time></trkpt><trkpt lat="41.924358" lon="13.0942664"><ele>416.66666666666663</ele><time>2026-04-26T15:04:24.969Z</time></trkpt><trkpt lat="41.9243958" lon="13.0941666"><ele>418.5</ele><time>2026-04-26T15:04:25.979Z</time></trkpt><trkpt lat="41.9244372" lon="13.094067"><ele>420.33333333333337</ele><time>2026-04-26T15:04:26.956Z</time></trkpt><trkpt lat="41.9244845" lon="13.0939689"><ele>422.1666666666667</ele><time>2026-04-26T15:04:27.959Z</time></trkpt><trkpt lat="41.9245347" lon="13.0938737"><ele>424.0</ele><time>2026-04-26T15:04:28.961Z</time></trkpt><trkpt lat="41.9245868" lon="13.0937826"><ele>424.00000000000006</ele><time>2026-04-26T15:04:29.951Z</time></trkpt><trkpt lat="41.9246409" lon="13.0936939"><ele>424.0</ele><time>2026-04-26T15:04:30.958Z</time></trkpt><trkpt lat="41.9246963" lon="13.0936075"><ele>424.0</ele><time>2026-04-26T15:04:31.948Z</time></trkpt><trkpt lat="41.92475" lon="13.0935254"><ele>424.0</ele><time>2026-04-26T15:04:32.956Z</time></trkpt><trkpt lat="41.9248039" lon="13.0934481"><ele>424.00000000000006</ele><time>2026-04-26T15:04:33.963Z</time></trkpt><trkpt lat="41.9248564" lon="13.0933708"><ele>424.0</ele><time>2026-04-26T15:04:34.956Z</time></trkpt><trkpt lat="41.9248934" lon="13.0932849"><ele>423.83333333333337</ele><time>2026-04-26T15:04:35.956Z</time></trkpt><trkpt lat="41.924945" lon="13.0932055"><ele>423.6666666666667</ele><time>2026-04-26T15:04:36.959Z</time></trkpt><trkpt lat="41.9249959" lon="13.0931272"><ele>423.5</ele><time>2026-04-26T15:04:37.957Z</time></trkpt><trkpt lat="41.9250483" lon="13.0930534"><ele>423.33333333333337</ele><time>2026-04-26T15:04:38.955Z</time></trkpt><trkpt lat="41.9251025" lon="13.0929821"><ele>423.1666666666667</ele><time>2026-04-26T15:04:39.955Z</time></trkpt><trkpt lat="41.9251582" lon="13.0929085"><ele>423.0</ele><time>2026-04-26T15:04:40.967Z</time></trkpt><trkpt lat="41.9252199" lon="13.0928408"><ele>423.0</ele><time>2026-04-26T15:04:41.956Z</time></trkpt><trkpt lat="41.9252825" lon="13.0927706"><ele>423.0</ele><time>2026-04-26T15:04:42.967Z</time></trkpt><trkpt lat="41.9253427" lon="13.0927055"><ele>423.0</ele><time>2026-04-26T15:04:43.973Z</time></trkpt><trkpt lat="41.9254025" lon="13.0926355"><ele>423.0</ele><time>2026-04-26T15:04:44.956Z</time></trkpt><trkpt lat="41.925466" lon="13.0925622"><ele>423.0</ele><time>2026-04-26T15:04:45.97Z</time></trkpt><trkpt lat="41.9255249" lon="13.0924912"><ele>423.0</ele><time>2026-04-26T15:04:46.961Z</time></trkpt><trkpt lat="41.9255841" lon="13.0924205"><ele>421.8333333333333</ele><time>2026-04-26T15:04:47.952Z</time></trkpt><trkpt lat="41.9256376" lon="13.0923537"><ele>420.66666666666663</ele><time>2026-04-26T15:04:48.964Z</time></trkpt><trkpt lat="41.9256819" lon="13.0922819"><ele>419.5</ele><time>2026-04-26T15:04:49.97Z</time></trkpt><trkpt lat="41.9257584" lon="13.0921898"><ele>418.3333333333333</ele><time>2026-04-26T15:04:51.959Z</time></trkpt><trkpt lat="41.9258338" lon="13.0921755"><ele>417.16666666666663</ele><time>2026-04-26T15:04:54.968Z</time></trkpt><trkpt lat="41.9259016" lon="13.0921649"><ele>416.0</ele><time>2026-04-26T15:05:00.981Z</time></trkpt><trkpt lat="41.9259101" lon="13.0920689"><ele>415.8</ele><time>2026-04-26T15:05:02.957Z</time></trkpt><trkpt lat="41.9258954" lon="13.0919003"><ele>415.6</ele><time>2026-04-26T15:05:04.969Z</time></trkpt><trkpt lat="41.9258959" lon="13.0918076"><ele>415.4</ele><time>2026-04-26T15:05:05.956Z</time></trkpt><trkpt lat="41.9258984" lon="13.0917195"><ele>415.2</ele><time>2026-04-26T15:05:06.96Z</time></trkpt><trkpt lat="41.9258722" lon="13.0915852"><ele>415.0</ele><time>2026-04-26T15:05:08.963Z</time></trkpt><trkpt lat="41.9258288" lon="13.0914777"><ele>415.0</ele><time>2026-04-26T15:05:10.957Z</time></trkpt><trkpt lat="41.9258226" lon="13.0913478"><ele>415.0</ele><time>2026-04-26T15:05:12.963Z</time></trkpt><trkpt lat="41.9258502" lon="13.0912323"><ele>415.0</ele><time>2026-04-26T15:05:14.969Z</time></trkpt><trkpt lat="41.9259077" lon="13.0911327"><ele>415.0</ele><time>2026-04-26T15:05:18.969Z</time></trkpt><trkpt lat="41.9259852" lon="13.0910632"><ele>415.0</ele><time>2026-04-26T15:05:20.959Z</time></trkpt><trkpt lat="41.9260973" lon="13.0909876"><ele>418.0</ele><time>2026-04-26T15:05:22.958Z</time></trkpt><trkpt lat="41.9261549" lon="13.0909478"><ele>421.0</ele><time>2026-04-26T15:05:23.96Z</time></trkpt><trkpt lat="41.9262106" lon="13.0909079"><ele>424.0</ele><time>2026-04-26T15:05:24.967Z</time></trkpt><trkpt lat="41.9262699" lon="13.0908697"><ele>427.0</ele><time>2026-04-26T15:05:25.978Z</time></trkpt><trkpt lat="41.9263301" lon="13.0908348"><ele>430.0</ele><time>2026-04-26T15:05:26.958Z</time></trkpt><trkpt lat="41.9264395" lon="13.0908105"><ele>433.0</ele><time>2026-04-26T15:05:28.958Z</time></trkpt><trkpt lat="41.9264948" lon="13.0908704"><ele>436.0</ele><time>2026-04-26T15:05:30.966Z</time></trkpt><trkpt lat="41.9264857" lon="13.091008"><ele>436.00000000000006</ele><time>2026-04-26T15:05:32.967Z</time></trkpt><trkpt lat="41.9264814" lon="13.0910939"><ele>436.0</ele><time>2026-04-26T15:05:33.962Z</time></trkpt><trkpt lat="41.926481" lon="13.0911943"><ele>436.0</ele><time>2026-04-26T15:05:34.963Z</time></trkpt><trkpt lat="41.9264797" lon="13.0913096"><ele>436.0</ele><time>2026-04-26T15:05:35.961Z</time></trkpt><trkpt lat="41.926476" lon="13.091433"><ele>436.00000000000006</ele><time>2026-04-26T15:05:36.949Z</time></trkpt><trkpt lat="41.9264733" lon="13.0915593"><ele>436.0</ele><time>2026-04-26T15:05:37.953Z</time></trkpt><trkpt lat="41.9264723" lon="13.0916856"><ele>437.33333333333337</ele><time>2026-04-26T15:05:38.962Z</time></trkpt><trkpt lat="41.926472" lon="13.091813"><ele>438.6666666666667</ele><time>2026-04-26T15:05:39.959Z</time></trkpt><trkpt lat="41.9264721" lon="13.0919357"><ele>440.0</ele><time>2026-04-26T15:05:40.965Z</time></trkpt><trkpt lat="41.9264719" lon="13.0920533"><ele>441.33333333333337</ele><time>2026-04-26T15:05:41.958Z</time></trkpt><trkpt lat="41.926472" lon="13.0921687"><ele>442.6666666666667</ele><time>2026-04-26T15:05:42.958Z</time></trkpt><trkpt lat="41.9264707" lon="13.0922826"><ele>444.0</ele><time>2026-04-26T15:05:43.964Z</time></trkpt><trkpt lat="41.9264687" lon="13.0923943"><ele>445.57142857142856</ele><time>2026-04-26T15:05:44.962Z</time></trkpt><trkpt lat="41.9264592" lon="13.0924999"><ele>447.14285714285717</ele><time>2026-04-26T15:05:45.951Z</time></trkpt><trkpt lat="41.9264472" lon="13.0925999"><ele>448.7142857142857</ele><time>2026-04-26T15:05:46.959Z</time></trkpt><trkpt lat="41.9264262" lon="13.0926935"><ele>450.2857142857143</ele><time>2026-04-26T15:05:47.964Z</time></trkpt><trkpt lat="41.9263987" lon="13.0927832"><ele>451.8571428571429</ele><time>2026-04-26T15:05:48.966Z</time></trkpt><trkpt lat="41.9263647" lon="13.0928733"><ele>453.42857142857144</ele><time>2026-04-26T15:05:49.958Z</time></trkpt><trkpt lat="41.9263371" lon="13.0929634"><ele>455.0</ele><time>2026-04-26T15:05:50.967Z</time></trkpt><trkpt lat="41.9263122" lon="13.0930469"><ele>454.99999999999994</ele><time>2026-04-26T15:05:51.959Z</time></trkpt><trkpt lat="41.9262732" lon="13.0931679"><ele>455.0</ele><time>2026-04-26T15:05:53.974Z</time></trkpt><trkpt lat="41.9262474" lon="13.0932523"><ele>455.0</ele><time>2026-04-26T15:05:56.988Z</time></trkpt><trkpt lat="41.9262926" lon="13.093315"><ele>455.0</ele><time>2026-04-26T15:06:03.953Z</time></trkpt><trkpt lat="41.9262889" lon="13.093209"><ele>454.99999999999994</ele><time>2026-04-26T15:06:07.953Z</time></trkpt><trkpt lat="41.9262811" lon="13.0930858"><ele>455.0</ele><time>2026-04-26T15:06:09.96Z</time></trkpt><trkpt lat="41.9263437" lon="13.0929251"><ele>454.99999999999994</ele><time>2026-04-26T15:06:11.958Z</time></trkpt><trkpt lat="41.9263817" lon="13.0928254"><ele>455.0</ele><time>2026-04-26T15:06:12.955Z</time></trkpt><trkpt lat="41.926422" lon="13.0927203"><ele>455.0</ele><time>2026-04-26T15:06:13.958Z</time></trkpt><trkpt lat="41.9264513" lon="13.0926098"><ele>455.0</ele><time>2026-04-26T15:06:14.966Z</time></trkpt><trkpt lat="41.9264696" lon="13.0924952"><ele>454.99999999999994</ele><time>2026-04-26T15:06:15.96Z</time></trkpt><trkpt lat="41.9264766" lon="13.0923834"><ele>455.0</ele><time>2026-04-26T15:06:16.958Z</time></trkpt><trkpt lat="41.92648" lon="13.09228"><ele>452.8</ele><time>2026-04-26T15:06:17.966Z</time></trkpt><trkpt lat="41.9264756" lon="13.092126"><ele>450.6</ele><time>2026-04-26T15:06:19.962Z</time></trkpt><trkpt lat="41.9264777" lon="13.0920309"><ele>448.4</ele><time>2026-04-26T15:06:20.954Z</time></trkpt><trkpt lat="41.926482" lon="13.0919137"><ele>446.2</ele><time>2026-04-26T15:06:21.954Z</time></trkpt><trkpt lat="41.9264848" lon="13.0917894"><ele>444.0</ele><time>2026-04-26T15:06:22.96Z</time></trkpt><trkpt lat="41.9264858" lon="13.0916604"><ele>442.4</ele><time>2026-04-26T15:06:23.959Z</time></trkpt><trkpt lat="41.9264737" lon="13.0915286"><ele>440.79999999999995</ele><time>2026-04-26T15:06:24.951Z</time></trkpt><trkpt lat="41.9264725" lon="13.0913939"><ele>439.20000000000005</ele><time>2026-04-26T15:06:25.957Z</time></trkpt><trkpt lat="41.9264802" lon="13.0912675"><ele>437.6</ele><time>2026-04-26T15:06:26.952Z</time></trkpt><trkpt lat="41.9264866" lon="13.0911416"><ele>436.0</ele><time>2026-04-26T15:06:27.953Z</time></trkpt><trkpt lat="41.9264914" lon="13.0910282"><ele>436.0</ele><time>2026-04-26T15:06:28.961Z</time></trkpt><trkpt lat="41.9264942" lon="13.090926"><ele>436.0</ele><time>2026-04-26T15:06:29.958Z</time></trkpt><trkpt lat="41.9264857" lon="13.0907829"><ele>436.0</ele><time>2026-04-26T15:06:31.96Z</time></trkpt><trkpt lat="41.9264028" lon="13.0907474"><ele>436.0</ele><time>2026-04-26T15:06:33.973Z</time></trkpt><trkpt lat="41.9262829" lon="13.0908064"><ele>436.0</ele><time>2026-04-26T15:06:35.967Z</time></trkpt><trkpt lat="41.9262116" lon="13.0908589"><ele>436.0</ele><time>2026-04-26T15:06:36.965Z</time></trkpt><trkpt lat="41.926138" lon="13.0909139"><ele>436.0</ele><time>2026-04-26T15:06:37.965Z</time></trkpt><trkpt lat="41.9260615" lon="13.0909736"><ele>436.0</ele><time>2026-04-26T15:06:38.965Z</time></trkpt><trkpt lat="41.9259969" lon="13.0910312"><ele>436.0</ele><time>2026-04-26T15:06:39.964Z</time></trkpt><trkpt lat="41.9259409" lon="13.0910851"><ele>436.0</ele><time>2026-04-26T15:06:40.963Z</time></trkpt><trkpt lat="41.9258039" lon="13.0912141"><ele>432.0</ele><time>2026-04-26T15:06:53.97Z</time></trkpt><trkpt lat="41.9257657" lon="13.0913775"><ele>428.0</ele><time>2026-04-26T15:06:55.971Z</time></trkpt><trkpt lat="41.9257564" lon="13.0914912"><ele>424.0</ele><time>2026-04-26T15:06:56.962Z</time></trkpt><trkpt lat="41.9257556" lon="13.0916181"><ele>420.0</ele><time>2026-04-26T15:06:57.965Z</time></trkpt><trkpt lat="41.9257527" lon="13.0917498"><ele>416.0</ele><time>2026-04-26T15:06:58.954Z</time></trkpt><trkpt lat="41.9257494" lon="13.091885"><ele>416.0</ele><time>2026-04-26T15:06:59.95Z</time></trkpt><trkpt lat="41.9257457" lon="13.0920206"><ele>416.0</ele><time>2026-04-26T15:07:00.961Z</time></trkpt><trkpt lat="41.9257254" lon="13.0921483"><ele>416.0</ele><time>2026-04-26T15:07:01.965Z</time></trkpt><trkpt lat="41.9256838" lon="13.0922511"><ele>416.0</ele><time>2026-04-26T15:07:02.967Z</time></trkpt><trkpt lat="41.925646" lon="13.0923448"><ele>416.0</ele><time>2026-04-26T15:07:03.966Z</time></trkpt><trkpt lat="41.9255836" lon="13.0924279"><ele>417.16666666666663</ele><time>2026-04-26T15:07:04.972Z</time></trkpt><trkpt lat="41.9255229" lon="13.0925039"><ele>418.3333333333333</ele><time>2026-04-26T15:07:05.953Z</time></trkpt><trkpt lat="41.9254657" lon="13.0925734"><ele>419.5</ele><time>2026-04-26T15:07:06.964Z</time></trkpt><trkpt lat="41.9254082" lon="13.0926395"><ele>420.66666666666663</ele><time>2026-04-26T15:07:07.968Z</time></trkpt><trkpt lat="41.9253514" lon="13.0927051"><ele>421.8333333333333</ele><time>2026-04-26T15:07:08.953Z</time></trkpt><trkpt lat="41.9252951" lon="13.0927714"><ele>423.0</ele><time>2026-04-26T15:07:10.057Z</time></trkpt><trkpt lat="41.9252392" lon="13.0928366"><ele>423.0</ele><time>2026-04-26T15:07:10.964Z</time></trkpt><trkpt lat="41.9251898" lon="13.092901"><ele>423.0</ele><time>2026-04-26T15:07:11.965Z</time></trkpt><trkpt lat="41.925102" lon="13.0930084"><ele>423.0</ele><time>2026-04-26T15:07:13.962Z</time></trkpt><trkpt lat="41.9250218" lon="13.093121"><ele>423.0</ele><time>2026-04-26T15:07:15.96Z</time></trkpt><trkpt lat="41.9249451" lon="13.0932211"><ele>423.0</ele><time>2026-04-26T15:07:17.954Z</time></trkpt><trkpt lat="41.9248852" lon="13.0933114"><ele>423.2</ele><time>2026-04-26T15:07:19.966Z</time></trkpt><trkpt lat="41.9248337" lon="13.0934005"><ele>423.4</ele><time>2026-04-26T15:07:21.959Z</time></trkpt><trkpt lat="41.9247731" lon="13.093466"><ele>423.59999999999997</ele><time>2026-04-26T15:07:23.982Z</time></trkpt><trkpt lat="41.9246893" lon="13.0935244"><ele>423.79999999999995</ele><time>2026-04-26T15:07:26.97Z</time></trkpt><trkpt lat="41.9246269" lon="13.0936152"><ele>424.0</ele><time>2026-04-26T15:07:28.976Z</time></trkpt><trkpt lat="41.924553" lon="13.0937475"><ele>424.00000000000006</ele><time>2026-04-26T15:07:30.951Z</time></trkpt><trkpt lat="41.9245104" lon="13.0938231"><ele>424.0</ele><time>2026-04-26T15:07:31.951Z</time></trkpt><trkpt lat="41.9244675" lon="13.0939016"><ele>424.0</ele><time>2026-04-26T15:07:32.955Z</time></trkpt><trkpt lat="41.9244252" lon="13.0939761"><ele>424.0</ele><time>2026-04-26T15:07:33.956Z</time></trkpt><trkpt lat="41.9243597" lon="13.094062"><ele>424.00000000000006</ele><time>2026-04-26T15:07:35.958Z</time></trkpt><trkpt lat="41.9242929" lon="13.094072"><ele>424.0</ele><time>2026-04-26T15:07:38.967Z</time></trkpt><trkpt lat="41.9242638" lon="13.0939413"><ele>424.0</ele><time>2026-04-26T15:07:41.953Z</time></trkpt><trkpt lat="41.9242783" lon="13.093819"><ele>424.0</ele><time>2026-04-26T15:07:42.954Z</time></trkpt><trkpt lat="41.9242842" lon="13.0936748"><ele>424.0</ele><time>2026-04-26T15:07:43.957Z</time></trkpt><trkpt lat="41.9242924" lon="13.0935313"><ele>424.0</ele><time>2026-04-26T15:07:44.971Z</time></trkpt><trkpt lat="41.9243012" lon="13.0933828"><ele>424.0</ele><time>2026-04-26T15:07:45.958Z</time></trkpt><trkpt lat="41.9243077" lon="13.0932306"><ele>422.0</ele><time>2026-04-26T15:07:46.957Z</time></trkpt><trkpt lat="41.9243132" lon="13.0930811"><ele>420.0</ele><time>2026-04-26T15:07:47.953Z</time></trkpt><trkpt lat="41.9243225" lon="13.0929386"><ele>418.0</ele><time>2026-04-26T15:07:48.955Z</time></trkpt><trkpt lat="41.924334" lon="13.0928104"><ele>416.0</ele><time>2026-04-26T15:07:49.953Z</time></trkpt><trkpt lat="41.9243496" lon="13.092688"><ele>414.0</ele><time>2026-04-26T15:07:50.957Z</time></trkpt><trkpt lat="41.9243658" lon="13.0925656"><ele>414.0</ele><time>2026-04-26T15:07:51.955Z</time></trkpt><trkpt lat="41.9243826" lon="13.0924453"><ele>414.0</ele><time>2026-04-26T15:07:52.956Z</time></trkpt><trkpt lat="41.9243948" lon="13.0923274"><ele>414.0</ele><time>2026-04-26T15:07:53.953Z</time></trkpt><trkpt lat="41.9244156" lon="13.0922123"><ele>414.0</ele><time>2026-04-26T15:07:54.958Z</time></trkpt><trkpt lat="41.9244434" lon="13.0921079"><ele>414.0</ele><time>2026-04-26T15:07:55.954Z</time></trkpt><trkpt lat="41.9244691" lon="13.092004"><ele>414.0</ele><time>2026-04-26T15:07:56.954Z</time></trkpt><trkpt lat="41.9244848" lon="13.0918915"><ele>411.3333333333333</ele><time>2026-04-26T15:07:57.954Z</time></trkpt><trkpt lat="41.9244967" lon="13.0917853"><ele>408.66666666666663</ele><time>2026-04-26T15:07:58.96Z</time></trkpt><trkpt lat="41.9244823" lon="13.0916691"><ele>406.0</ele><time>2026-04-26T15:07:59.963Z</time></trkpt><trkpt lat="41.9244709" lon="13.0915591"><ele>403.3333333333333</ele><time>2026-04-26T15:08:00.953Z</time></trkpt><trkpt lat="41.9244692" lon="13.0914442"><ele>400.66666666666663</ele><time>2026-04-26T15:08:01.958Z</time></trkpt><trkpt lat="41.9244748" lon="13.091329"><ele>398.0</ele><time>2026-04-26T15:08:02.958Z</time></trkpt><trkpt lat="41.9244815" lon="13.091224"><ele>397.66666666666663</ele><time>2026-04-26T15:08:03.952Z</time></trkpt><trkpt lat="41.9244888" lon="13.0911175"><ele>397.3333333333333</ele><time>2026-04-26T15:08:04.953Z</time></trkpt><trkpt lat="41.9244972" lon="13.0910101"><ele>397.0</ele><time>2026-04-26T15:08:05.94Z</time></trkpt><trkpt lat="41.9245021" lon="13.0908965"><ele>396.66666666666663</ele><time>2026-04-26T15:08:06.958Z</time></trkpt><trkpt lat="41.9245079" lon="13.0907841"><ele>396.3333333333333</ele><time>2026-04-26T15:08:07.97Z</time></trkpt><trkpt lat="41.924513" lon="13.0906749"><ele>396.0</ele><time>2026-04-26T15:08:08.956Z</time></trkpt><trkpt lat="41.9245177" lon="13.0905751"><ele>394.6666666666667</ele><time>2026-04-26T15:08:09.965Z</time></trkpt><trkpt lat="41.9245242" lon="13.0904709"><ele>393.33333333333337</ele><time>2026-04-26T15:08:10.961Z</time></trkpt><trkpt lat="41.9245302" lon="13.0903688"><ele>392.0</ele><time>2026-04-26T15:08:11.953Z</time></trkpt><trkpt lat="41.9245317" lon="13.0902777"><ele>390.6666666666667</ele><time>2026-04-26T15:08:12.96Z</time></trkpt><trkpt lat="41.9245413" lon="13.0901221"><ele>389.33333333333337</ele><time>2026-04-26T15:08:14.978Z</time></trkpt><trkpt lat="41.9245517" lon="13.0900236"><ele>388.0</ele><time>2026-04-26T15:08:16.968Z</time></trkpt><trkpt lat="41.9245293" lon="13.0897519"><ele>387.0</ele><time>2026-04-26T15:09:45.915Z</time></trkpt><trkpt lat="41.9245376" lon="13.0895777"><ele>386.0</ele><time>2026-04-26T15:09:46.926Z</time></trkpt><trkpt lat="41.9245467" lon="13.0893803"><ele>385.0</ele><time>2026-04-26T15:09:47.922Z</time></trkpt><trkpt lat="41.9245573" lon="13.0891686"><ele>384.0</ele><time>2026-04-26T15:09:48.929Z</time></trkpt><trkpt lat="41.9245685" lon="13.0889499"><ele>383.0</ele><time>2026-04-26T15:09:49.924Z</time></trkpt><trkpt lat="41.924579" lon="13.0887382"><ele>382.0</ele><time>2026-04-26T15:09:50.924Z</time></trkpt><trkpt lat="41.9245923" lon="13.0885453"><ele>381.0</ele><time>2026-04-26T15:09:51.932Z</time></trkpt><trkpt lat="41.9246089" lon="13.0883554"><ele>380.0</ele><time>2026-04-26T15:09:52.922Z</time></trkpt><trkpt lat="41.9246275" lon="13.0881686"><ele>378.0</ele><time>2026-04-26T15:09:53.928Z</time></trkpt><trkpt lat="41.9246422" lon="13.0879867"><ele>376.0</ele><time>2026-04-26T15:09:54.924Z</time></trkpt><trkpt lat="41.9246958" lon="13.0872763"><ele>375.25</ele><time>2026-04-26T15:09:58.93Z</time></trkpt><trkpt lat="41.9247134" lon="13.0871107"><ele>374.5</ele><time>2026-04-26T15:09:59.921Z</time></trkpt><trkpt lat="41.9247244" lon="13.0869484"><ele>373.75</ele><time>2026-04-26T15:10:00.927Z</time></trkpt><trkpt lat="41.9247344" lon="13.086796"><ele>373.0</ele><time>2026-04-26T15:10:01.913Z</time></trkpt><trkpt lat="41.9247412" lon="13.0866517"><ele>372.79999999999995</ele><time>2026-04-26T15:10:02.936Z</time></trkpt><trkpt lat="41.9247474" lon="13.0865153"><ele>372.6</ele><time>2026-04-26T15:10:03.933Z</time></trkpt><trkpt lat="41.924753" lon="13.0863866"><ele>372.4</ele><time>2026-04-26T15:10:04.923Z</time></trkpt><trkpt lat="41.9247659" lon="13.0862656"><ele>372.20000000000005</ele><time>2026-04-26T15:10:05.932Z</time></trkpt><trkpt lat="41.9247891" lon="13.086156"><ele>372.0</ele><time>2026-04-26T15:10:06.924Z</time></trkpt><trkpt lat="41.9248245" lon="13.0860571"><ele>372.0</ele><time>2026-04-26T15:10:07.923Z</time></trkpt><trkpt lat="41.9248693" lon="13.0859607"><ele>372.0</ele><time>2026-04-26T15:10:08.918Z</time></trkpt><trkpt lat="41.9249228" lon="13.0858602"><ele>372.0</ele><time>2026-04-26T15:10:09.927Z</time></trkpt><trkpt lat="41.924983" lon="13.0857551"><ele>372.0</ele><time>2026-04-26T15:10:10.92Z</time></trkpt><trkpt lat="41.9250477" lon="13.0856419"><ele>372.0</ele><time>2026-04-26T15:10:11.935Z</time></trkpt><trkpt lat="41.9251149" lon="13.0855209"><ele>371.6</ele><time>2026-04-26T15:10:12.932Z</time></trkpt><trkpt lat="41.925182" lon="13.0854"><ele>371.20000000000005</ele><time>2026-04-26T15:10:13.92Z</time></trkpt><trkpt lat="41.9252505" lon="13.0852834"><ele>370.8</ele><time>2026-04-26T15:10:14.932Z</time></trkpt><trkpt lat="41.925317" lon="13.085166"><ele>370.4</ele><time>2026-04-26T15:10:15.921Z</time></trkpt><trkpt lat="41.9253833" lon="13.0850474"><ele>370.0</ele><time>2026-04-26T15:10:16.925Z</time></trkpt><trkpt lat="41.92545" lon="13.0849273"><ele>369.6</ele><time>2026-04-26T15:10:17.931Z</time></trkpt><trkpt lat="41.9255177" lon="13.0848076"><ele>369.2</ele><time>2026-04-26T15:10:18.934Z</time></trkpt><trkpt lat="41.9255868" lon="13.0846883"><ele>368.79999999999995</ele><time>2026-04-26T15:10:19.919Z</time></trkpt><trkpt lat="41.9256545" lon="13.0845692"><ele>368.4</ele><time>2026-04-26T15:10:20.926Z</time></trkpt><trkpt lat="41.9257242" lon="13.0844517"><ele>368.0</ele><time>2026-04-26T15:10:21.925Z</time></trkpt><trkpt lat="41.9257936" lon="13.0843349"><ele>368.0</ele><time>2026-04-26T15:10:22.925Z</time></trkpt><trkpt lat="41.9258644" lon="13.0842153"><ele>368.0</ele><time>2026-04-26T15:10:23.917Z</time></trkpt><trkpt lat="41.9261049" lon="13.0837795"><ele>370.6666666666667</ele><time>2026-04-26T15:10:26.931Z</time></trkpt><trkpt lat="41.9261874" lon="13.0835995"><ele>373.3333333333333</ele><time>2026-04-26T15:10:27.933Z</time></trkpt><trkpt lat="41.9262584" lon="13.0834089"><ele>376.0</ele><time>2026-04-26T15:10:28.926Z</time></trkpt><trkpt lat="41.9263262" lon="13.0832225"><ele>376.0</ele><time>2026-04-26T15:10:29.916Z</time></trkpt><trkpt lat="41.9263901" lon="13.0830376"><ele>376.0</ele><time>2026-04-26T15:10:30.926Z</time></trkpt><trkpt lat="41.9264511" lon="13.0828391"><ele>376.0</ele><time>2026-04-26T15:10:31.922Z</time></trkpt><trkpt lat="41.9265192" lon="13.0826272"><ele>377.66666666666663</ele><time>2026-04-26T15:10:32.929Z</time></trkpt><trkpt lat="41.9265933" lon="13.0824084"><ele>379.3333333333333</ele><time>2026-04-26T15:10:33.923Z</time></trkpt><trkpt lat="41.9266682" lon="13.0821799"><ele>381.0</ele><time>2026-04-26T15:10:34.927Z</time></trkpt><trkpt lat="41.9267462" lon="13.0819358"><ele>381.0</ele><time>2026-04-26T15:10:35.919Z</time></trkpt><trkpt lat="41.9268289" lon="13.0816665"><ele>381.0</ele><time>2026-04-26T15:10:36.931Z</time></trkpt><trkpt lat="41.9269064" lon="13.0813716"><ele>381.0</ele><time>2026-04-26T15:10:37.921Z</time></trkpt><trkpt lat="41.9269866" lon="13.0810704"><ele>378.0</ele><time>2026-04-26T15:10:38.928Z</time></trkpt><trkpt lat="41.9270329" lon="13.080708"><ele>375.0</ele><time>2026-04-26T15:10:39.931Z</time></trkpt><trkpt lat="41.9270554" lon="13.0803515"><ele>375.0</ele><time>2026-04-26T15:10:40.928Z</time></trkpt><trkpt lat="41.9270715" lon="13.0800141"><ele>375.0</ele><time>2026-04-26T15:10:41.928Z</time></trkpt><trkpt lat="41.927084" lon="13.0796988"><ele>384.0</ele><time>2026-04-26T15:10:42.93Z</time></trkpt><trkpt lat="41.9270487" lon="13.0787666"><ele>384.0</ele><time>2026-04-26T15:10:45.931Z</time></trkpt><trkpt lat="41.9270077" lon="13.0784605"><ele>384.0</ele><time>2026-04-26T15:10:46.931Z</time></trkpt><trkpt lat="41.9269573" lon="13.0781632"><ele>383.6666666666667</ele><time>2026-04-26T15:10:47.929Z</time></trkpt><trkpt lat="41.9269003" lon="13.0778732"><ele>383.33333333333337</ele><time>2026-04-26T15:10:48.936Z</time></trkpt><trkpt lat="41.9268332" lon="13.0775926"><ele>383.0</ele><time>2026-04-26T15:10:49.92Z</time></trkpt><trkpt lat="41.9267619" lon="13.0773263"><ele>380.6666666666667</ele><time>2026-04-26T15:10:50.93Z</time></trkpt><trkpt lat="41.9266727" lon="13.0770715"><ele>378.3333333333333</ele><time>2026-04-26T15:10:51.912Z</time></trkpt><trkpt lat="41.9265698" lon="13.0768402"><ele>376.0</ele><time>2026-04-26T15:10:52.923Z</time></trkpt><trkpt lat="41.9264547" lon="13.0766211"><ele>376.66666666666663</ele><time>2026-04-26T15:10:53.913Z</time></trkpt><trkpt lat="41.9263429" lon="13.076405"><ele>377.3333333333333</ele><time>2026-04-26T15:10:54.931Z</time></trkpt><trkpt lat="41.92623" lon="13.0761907"><ele>378.0</ele><time>2026-04-26T15:10:55.92Z</time></trkpt><trkpt lat="41.926119" lon="13.0759747"><ele>377.6666666666667</ele><time>2026-04-26T15:10:56.92Z</time></trkpt><trkpt lat="41.9260135" lon="13.0757552"><ele>377.33333333333337</ele><time>2026-04-26T15:10:57.932Z</time></trkpt><trkpt lat="41.9259242" lon="13.0755282"><ele>377.0</ele><time>2026-04-26T15:10:58.927Z</time></trkpt><trkpt lat="41.9258635" lon="13.0752969"><ele>377.0</ele><time>2026-04-26T15:10:59.926Z</time></trkpt><trkpt lat="41.9258403" lon="13.0750699"><ele>377.0</ele><time>2026-04-26T15:11:00.924Z</time></trkpt><trkpt lat="41.9258533" lon="13.0748539"><ele>377.0</ele><time>2026-04-26T15:11:01.928Z</time></trkpt><trkpt lat="41.925976" lon="13.0744545"><ele>377.0</ele><time>2026-04-26T15:11:03.927Z</time></trkpt><trkpt lat="41.9260661" lon="13.0742516"><ele>377.0</ele><time>2026-04-26T15:11:04.929Z</time></trkpt><trkpt lat="41.9261644" lon="13.0740377"><ele>377.0</ele><time>2026-04-26T15:11:05.919Z</time></trkpt><trkpt lat="41.9262672" lon="13.0738133"><ele>375.6666666666667</ele><time>2026-04-26T15:11:06.915Z</time></trkpt><trkpt lat="41.9263742" lon="13.0735779"><ele>374.3333333333333</ele><time>2026-04-26T15:11:07.93Z</time></trkpt><trkpt lat="41.9264814" lon="13.0733347"><ele>373.0</ele><time>2026-04-26T15:11:08.929Z</time></trkpt><trkpt lat="41.9265908" lon="13.0730934"><ele>373.3333333333333</ele><time>2026-04-26T15:11:09.919Z</time></trkpt><trkpt lat="41.9267008" lon="13.0728582"><ele>373.6666666666667</ele><time>2026-04-26T15:11:10.926Z</time></trkpt><trkpt lat="41.9268151" lon="13.0726347"><ele>374.0</ele><time>2026-04-26T15:11:11.935Z</time></trkpt><trkpt lat="41.9269348" lon="13.0724309"><ele>371.0</ele><time>2026-04-26T15:11:12.918Z</time></trkpt><trkpt lat="41.9270615" lon="13.0722533"><ele>368.0</ele><time>2026-04-26T15:11:13.92Z</time></trkpt><trkpt lat="41.9271986" lon="13.0721059"><ele>365.0</ele><time>2026-04-26T15:11:14.916Z</time></trkpt><trkpt lat="41.9273488" lon="13.0719941"><ele>365.0</ele><time>2026-04-26T15:11:15.924Z</time></trkpt><trkpt lat="41.9275112" lon="13.0719172"><ele>365.0</ele><time>2026-04-26T15:11:16.913Z</time></trkpt><trkpt lat="41.9276835" lon="13.0718724"><ele>365.0</ele><time>2026-04-26T15:11:17.923Z</time></trkpt><trkpt lat="41.9278605" lon="13.0718705"><ele>363.33333333333337</ele><time>2026-04-26T15:11:18.914Z</time></trkpt><trkpt lat="41.9280418" lon="13.0719073"><ele>361.6666666666667</ele><time>2026-04-26T15:11:19.926Z</time></trkpt><trkpt lat="41.9282307" lon="13.0719649"><ele>360.0</ele><time>2026-04-26T15:11:20.926Z</time></trkpt><trkpt lat="41.9286446" lon="13.0720953"><ele>359.6666666666667</ele><time>2026-04-26T15:11:22.927Z</time></trkpt><trkpt lat="41.9288571" lon="13.0721628"><ele>359.33333333333337</ele><time>2026-04-26T15:11:23.932Z</time></trkpt><trkpt lat="41.9290703" lon="13.072229"><ele>359.0</ele><time>2026-04-26T15:11:24.919Z</time></trkpt><trkpt lat="41.9294991" lon="13.0723579"><ele>358.33333333333337</ele><time>2026-04-26T15:11:26.93Z</time></trkpt><trkpt lat="41.9297148" lon="13.0724183"><ele>357.6666666666667</ele><time>2026-04-26T15:11:27.923Z</time></trkpt><trkpt lat="41.9299322" lon="13.0724667"><ele>357.0</ele><time>2026-04-26T15:11:28.928Z</time></trkpt><trkpt lat="41.9301525" lon="13.0724919"><ele>359.0</ele><time>2026-04-26T15:11:29.915Z</time></trkpt><trkpt lat="41.9303776" lon="13.072487"><ele>361.0</ele><time>2026-04-26T15:11:30.925Z</time></trkpt><trkpt lat="41.930608" lon="13.0724517"><ele>359.0</ele><time>2026-04-26T15:11:31.925Z</time></trkpt><trkpt lat="41.9310633" lon="13.072293"><ele>359.0</ele><time>2026-04-26T15:11:33.928Z</time></trkpt><trkpt lat="41.9312838" lon="13.0721926"><ele>359.0</ele><time>2026-04-26T15:11:34.929Z</time></trkpt><trkpt lat="41.9315004" lon="13.0720908"><ele>359.0</ele><time>2026-04-26T15:11:35.92Z</time></trkpt><trkpt lat="41.9317141" lon="13.0719921"><ele>359.0</ele><time>2026-04-26T15:11:36.927Z</time></trkpt><trkpt lat="41.9319257" lon="13.0718996"><ele>359.0</ele><time>2026-04-26T15:11:37.927Z</time></trkpt><trkpt lat="41.932139" lon="13.0718163"><ele>359.6666666666667</ele><time>2026-04-26T15:11:38.929Z</time></trkpt><trkpt lat="41.9323543" lon="13.0717432"><ele>360.3333333333333</ele><time>2026-04-26T15:11:39.923Z</time></trkpt><trkpt lat="41.9325715" lon="13.0716762"><ele>361.0</ele><time>2026-04-26T15:11:40.924Z</time></trkpt><trkpt lat="41.9327907" lon="13.0716126"><ele>358.0</ele><time>2026-04-26T15:11:41.934Z</time></trkpt><trkpt lat="41.9330128" lon="13.0715518"><ele>355.0</ele><time>2026-04-26T15:11:42.926Z</time></trkpt><trkpt lat="41.9332384" lon="13.0714944"><ele>355.5</ele><time>2026-04-26T15:11:43.925Z</time></trkpt><trkpt lat="41.9334657" lon="13.0714424"><ele>356.0</ele><time>2026-04-26T15:11:44.923Z</time></trkpt><trkpt lat="41.9336882" lon="13.0713921"><ele>356.0</ele><time>2026-04-26T15:11:45.925Z</time></trkpt><trkpt lat="41.9338995" lon="13.0713284"><ele>356.0</ele><time>2026-04-26T15:11:46.919Z</time></trkpt><trkpt lat="41.9340986" lon="13.0712376"><ele>356.0</ele><time>2026-04-26T15:11:47.934Z</time></trkpt><trkpt lat="41.9342831" lon="13.0711084"><ele>356.0</ele><time>2026-04-26T15:11:48.919Z</time></trkpt><trkpt lat="41.9344545" lon="13.0709447"><ele>356.0</ele><time>2026-04-26T15:11:49.928Z</time></trkpt><trkpt lat="41.9346193" lon="13.0707535"><ele>356.0</ele><time>2026-04-26T15:11:50.923Z</time></trkpt><trkpt lat="41.9347844" lon="13.0705403"><ele>356.0</ele><time>2026-04-26T15:11:51.927Z</time></trkpt><trkpt lat="41.9349553" lon="13.0703168"><ele>356.0</ele><time>2026-04-26T15:11:52.916Z</time></trkpt><trkpt lat="41.9351319" lon="13.0700906"><ele>357.5</ele><time>2026-04-26T15:11:53.918Z</time></trkpt><trkpt lat="41.9353087" lon="13.069866"><ele>359.0</ele><time>2026-04-26T15:11:54.924Z</time></trkpt><trkpt lat="41.9354842" lon="13.0696416"><ele>359.0</ele><time>2026-04-26T15:11:55.915Z</time></trkpt><trkpt lat="41.9356583" lon="13.0694165"><ele>359.0</ele><time>2026-04-26T15:11:56.918Z</time></trkpt><trkpt lat="41.9358324" lon="13.0691917"><ele>360.0</ele><time>2026-04-26T15:11:57.923Z</time></trkpt><trkpt lat="41.9360099" lon="13.0689696"><ele>361.0</ele><time>2026-04-26T15:11:58.929Z</time></trkpt><trkpt lat="41.9361929" lon="13.0687513"><ele>361.0</ele><time>2026-04-26T15:11:59.928Z</time></trkpt><trkpt lat="41.9363827" lon="13.0685384"><ele>361.0</ele><time>2026-04-26T15:12:00.932Z</time></trkpt><trkpt lat="41.9365791" lon="13.0683312"><ele>360.5</ele><time>2026-04-26T15:12:01.927Z</time></trkpt><trkpt lat="41.9367797" lon="13.0681299"><ele>360.0</ele><time>2026-04-26T15:12:02.93Z</time></trkpt><trkpt lat="41.9369821" lon="13.0679353"><ele>360.0</ele><time>2026-04-26T15:12:03.928Z</time></trkpt><trkpt lat="41.9371851" lon="13.0677465"><ele>360.0</ele><time>2026-04-26T15:12:04.93Z</time></trkpt><trkpt lat="41.9373878" lon="13.0675622"><ele>358.5</ele><time>2026-04-26T15:12:05.926Z</time></trkpt><trkpt lat="41.9375882" lon="13.0673794"><ele>357.0</ele><time>2026-04-26T15:12:06.93Z</time></trkpt><trkpt lat="41.9377834" lon="13.0671908"><ele>357.0</ele><time>2026-04-26T15:12:07.917Z</time></trkpt><trkpt lat="41.9379694" lon="13.0669885"><ele>357.0</ele><time>2026-04-26T15:12:08.92Z</time></trkpt><trkpt lat="41.9381516" lon="13.0667794"><ele>355.0</ele><time>2026-04-26T15:12:09.928Z</time></trkpt><trkpt lat="41.9383362" lon="13.0665791"><ele>353.0</ele><time>2026-04-26T15:12:10.93Z</time></trkpt><trkpt lat="41.9385284" lon="13.0663944"><ele>353.0</ele><time>2026-04-26T15:12:11.929Z</time></trkpt><trkpt lat="41.9387287" lon="13.0662261"><ele>353.0</ele><time>2026-04-26T15:12:12.931Z</time></trkpt><trkpt lat="41.9389369" lon="13.0660759"><ele>353.0</ele><time>2026-04-26T15:12:13.931Z</time></trkpt><trkpt lat="41.9391522" lon="13.0659374"><ele>353.0</ele><time>2026-04-26T15:12:14.936Z</time></trkpt><trkpt lat="41.9393702" lon="13.0658037"><ele>352.5</ele><time>2026-04-26T15:12:15.927Z</time></trkpt><trkpt lat="41.9395903" lon="13.0656725"><ele>352.0</ele><time>2026-04-26T15:12:16.931Z</time></trkpt><trkpt lat="41.939811" lon="13.0655436"><ele>352.0</ele><time>2026-04-26T15:12:17.932Z</time></trkpt><trkpt lat="41.9400304" lon="13.0654153"><ele>352.0</ele><time>2026-04-26T15:12:18.93Z</time></trkpt><trkpt lat="41.9402484" lon="13.065286"><ele>352.5</ele><time>2026-04-26T15:12:19.924Z</time></trkpt><trkpt lat="41.9404646" lon="13.0651572"><ele>353.0</ele><time>2026-04-26T15:12:20.93Z</time></trkpt><trkpt lat="41.9406805" lon="13.0650305"><ele>352.0</ele><time>2026-04-26T15:12:21.928Z</time></trkpt><trkpt lat="41.9408968" lon="13.0649062"><ele>351.0</ele><time>2026-04-26T15:12:22.928Z</time></trkpt><trkpt lat="41.9411071" lon="13.0647866"><ele>351.0</ele><time>2026-04-26T15:12:23.928Z</time></trkpt><trkpt lat="41.941306" lon="13.0646707"><ele>351.0</ele><time>2026-04-26T15:12:24.917Z</time></trkpt><trkpt lat="41.9414977" lon="13.0645593"><ele>351.0</ele><time>2026-04-26T15:12:25.946Z</time></trkpt><trkpt lat="41.9416812" lon="13.0644552"><ele>354.0</ele><time>2026-04-26T15:12:26.928Z</time></trkpt><trkpt lat="41.9418609" lon="13.0643599"><ele>357.0</ele><time>2026-04-26T15:12:27.944Z</time></trkpt><trkpt lat="41.9420377" lon="13.0642722"><ele>360.0</ele><time>2026-04-26T15:12:28.931Z</time></trkpt><trkpt lat="41.9422155" lon="13.064191"><ele>357.6666666666667</ele><time>2026-04-26T15:12:29.925Z</time></trkpt><trkpt lat="41.9423966" lon="13.0641122"><ele>355.33333333333337</ele><time>2026-04-26T15:12:30.951Z</time></trkpt><trkpt lat="41.9425789" lon="13.06403"><ele>353.0</ele><time>2026-04-26T15:12:31.933Z</time></trkpt><trkpt lat="41.9427593" lon="13.0639409"><ele>353.0</ele><time>2026-04-26T15:12:32.93Z</time></trkpt><trkpt lat="41.9429361" lon="13.0638403"><ele>353.0</ele><time>2026-04-26T15:12:33.94Z</time></trkpt><trkpt lat="41.9431076" lon="13.0637254"><ele>353.0</ele><time>2026-04-26T15:12:34.927Z</time></trkpt><trkpt lat="41.9432738" lon="13.0635968"><ele>352.6666666666667</ele><time>2026-04-26T15:12:35.936Z</time></trkpt><trkpt lat="41.9434347" lon="13.0634575"><ele>352.3333333333333</ele><time>2026-04-26T15:12:36.922Z</time></trkpt><trkpt lat="41.9435893" lon="13.0633116"><ele>352.0</ele><time>2026-04-26T15:12:37.935Z</time></trkpt><trkpt lat="41.9437332" lon="13.0631716"><ele>352.0</ele><time>2026-04-26T15:12:38.917Z</time></trkpt><trkpt lat="41.9438722" lon="13.063033"><ele>352.0</ele><time>2026-04-26T15:12:39.934Z</time></trkpt><trkpt lat="41.9440088" lon="13.0628922"><ele>352.0</ele><time>2026-04-26T15:12:40.934Z</time></trkpt><trkpt lat="41.9441425" lon="13.0627499"><ele>351.3333333333333</ele><time>2026-04-26T15:12:41.922Z</time></trkpt><trkpt lat="41.944271" lon="13.062613"><ele>350.6666666666667</ele><time>2026-04-26T15:12:42.931Z</time></trkpt><trkpt lat="41.944397" lon="13.0624862"><ele>350.0</ele><time>2026-04-26T15:12:43.939Z</time></trkpt><trkpt lat="41.944531" lon="13.0623795"><ele>350.0</ele><time>2026-04-26T15:12:44.912Z</time></trkpt><trkpt lat="41.9446782" lon="13.0623038"><ele>350.0</ele><time>2026-04-26T15:12:45.92Z</time></trkpt><trkpt lat="41.9448362" lon="13.0622588"><ele>350.0</ele><time>2026-04-26T15:12:46.926Z</time></trkpt><trkpt lat="41.9450064" lon="13.0622341"><ele>350.0</ele><time>2026-04-26T15:12:47.921Z</time></trkpt><trkpt lat="41.945187" lon="13.0622187"><ele>350.0</ele><time>2026-04-26T15:12:48.931Z</time></trkpt><trkpt lat="41.9453701" lon="13.0622039"><ele>350.0</ele><time>2026-04-26T15:12:49.936Z</time></trkpt><trkpt lat="41.9455469" lon="13.062191"><ele>350.0</ele><time>2026-04-26T15:12:50.934Z</time></trkpt><trkpt lat="41.9457173" lon="13.0621806"><ele>350.0</ele><time>2026-04-26T15:12:51.927Z</time></trkpt><trkpt lat="41.945883" lon="13.0621705"><ele>350.0</ele><time>2026-04-26T15:12:52.914Z</time></trkpt><trkpt lat="41.9460465" lon="13.062156"><ele>350.33333333333337</ele><time>2026-04-26T15:12:53.929Z</time></trkpt><trkpt lat="41.9462075" lon="13.0621189"><ele>350.6666666666667</ele><time>2026-04-26T15:12:54.923Z</time></trkpt><trkpt lat="41.9463624" lon="13.0620418"><ele>351.0</ele><time>2026-04-26T15:12:55.914Z</time></trkpt><trkpt lat="41.9465061" lon="13.0619237"><ele>351.0</ele><time>2026-04-26T15:12:56.924Z</time></trkpt><trkpt lat="41.9466327" lon="13.0617706"><ele>351.0</ele><time>2026-04-26T15:12:57.92Z</time></trkpt><trkpt lat="41.9467381" lon="13.0615887"><ele>351.0</ele><time>2026-04-26T15:12:58.92Z</time></trkpt><trkpt lat="41.9468262" lon="13.0613871"><ele>351.0</ele><time>2026-04-26T15:12:59.927Z</time></trkpt><trkpt lat="41.94691" lon="13.0611783"><ele>351.0</ele><time>2026-04-26T15:13:00.923Z</time></trkpt><trkpt lat="41.9470009" lon="13.0609718"><ele>351.0</ele><time>2026-04-26T15:13:01.936Z</time></trkpt><trkpt lat="41.9470975" lon="13.0607731"><ele>350.3333333333333</ele><time>2026-04-26T15:13:02.926Z</time></trkpt><trkpt lat="41.9471992" lon="13.060584"><ele>349.66666666666663</ele><time>2026-04-26T15:13:03.932Z</time></trkpt><trkpt lat="41.9473092" lon="13.0604098"><ele>349.0</ele><time>2026-04-26T15:13:04.922Z</time></trkpt><trkpt lat="41.9474278" lon="13.0602549"><ele>349.66666666666663</ele><time>2026-04-26T15:13:05.924Z</time></trkpt><trkpt lat="41.9475511" lon="13.060118"><ele>350.3333333333333</ele><time>2026-04-26T15:13:06.912Z</time></trkpt><trkpt lat="41.9476747" lon="13.0599912"><ele>351.0</ele><time>2026-04-26T15:13:07.919Z</time></trkpt><trkpt lat="41.9477959" lon="13.0598644"><ele>349.6666666666667</ele><time>2026-04-26T15:13:08.926Z</time></trkpt><trkpt lat="41.9479159" lon="13.059734"><ele>348.33333333333337</ele><time>2026-04-26T15:13:09.932Z</time></trkpt><trkpt lat="41.9480359" lon="13.0596013"><ele>347.0</ele><time>2026-04-26T15:13:10.931Z</time></trkpt><trkpt lat="41.9481594" lon="13.0594667"><ele>347.0</ele><time>2026-04-26T15:13:11.935Z</time></trkpt><trkpt lat="41.9482891" lon="13.0593344"><ele>347.0</ele><time>2026-04-26T15:13:12.94Z</time></trkpt><trkpt lat="41.9484264" lon="13.059208"><ele>347.0</ele><time>2026-04-26T15:13:13.934Z</time></trkpt><trkpt lat="41.9485706" lon="13.0590867"><ele>346.6666666666667</ele><time>2026-04-26T15:13:14.934Z</time></trkpt><trkpt lat="41.948718" lon="13.0589662"><ele>346.3333333333333</ele><time>2026-04-26T15:13:15.935Z</time></trkpt><trkpt lat="41.9488675" lon="13.0588459"><ele>346.0</ele><time>2026-04-26T15:13:16.927Z</time></trkpt><trkpt lat="41.9490168" lon="13.0587268"><ele>346.0</ele><time>2026-04-26T15:13:17.931Z</time></trkpt><trkpt lat="41.9491653" lon="13.0586069"><ele>346.0</ele><time>2026-04-26T15:13:18.931Z</time></trkpt><trkpt lat="41.9493131" lon="13.0584822"><ele>346.0</ele><time>2026-04-26T15:13:19.938Z</time></trkpt><trkpt lat="41.94946" lon="13.0583523"><ele>345.66666666666663</ele><time>2026-04-26T15:13:20.93Z</time></trkpt><trkpt lat="41.9496052" lon="13.0582175"><ele>345.3333333333333</ele><time>2026-04-26T15:13:21.931Z</time></trkpt><trkpt lat="41.9497514" lon="13.0580954"><ele>345.0</ele><time>2026-04-26T15:13:22.921Z</time></trkpt><trkpt lat="41.9498896" lon="13.0579581"><ele>345.0</ele><time>2026-04-26T15:13:23.915Z</time></trkpt><trkpt lat="41.9500332" lon="13.0578164"><ele>345.0</ele><time>2026-04-26T15:13:24.931Z</time></trkpt><trkpt lat="41.9501717" lon="13.0576706"><ele>345.0</ele><time>2026-04-26T15:13:25.931Z</time></trkpt><trkpt lat="41.9503133" lon="13.0575216"><ele>345.3333333333333</ele><time>2026-04-26T15:13:26.93Z</time></trkpt><trkpt lat="41.9504508" lon="13.057375"><ele>345.66666666666663</ele><time>2026-04-26T15:13:27.933Z</time></trkpt><trkpt lat="41.9505879" lon="13.0572231"><ele>346.0</ele><time>2026-04-26T15:13:28.933Z</time></trkpt><trkpt lat="41.9507214" lon="13.0570687"><ele>346.0</ele><time>2026-04-26T15:13:29.932Z</time></trkpt><trkpt lat="41.9508509" lon="13.0569068"><ele>346.0</ele><time>2026-04-26T15:13:30.928Z</time></trkpt><trkpt lat="41.9509789" lon="13.0567413"><ele>346.0</ele><time>2026-04-26T15:13:31.925Z</time></trkpt><trkpt lat="41.9511061" lon="13.0565757"><ele>346.0</ele><time>2026-04-26T15:13:32.93Z</time></trkpt><trkpt lat="41.9512328" lon="13.0564056"><ele>346.0</ele><time>2026-04-26T15:13:33.935Z</time></trkpt><trkpt lat="41.9513617" lon="13.0562331"><ele>346.0</ele><time>2026-04-26T15:13:34.94Z</time></trkpt><trkpt lat="41.9514924" lon="13.0560568"><ele>346.0</ele><time>2026-04-26T15:13:35.94Z</time></trkpt><trkpt lat="41.9516208" lon="13.055886"><ele>346.0</ele><time>2026-04-26T15:13:36.927Z</time></trkpt><trkpt lat="41.9517479" lon="13.0557199"><ele>346.0</ele><time>2026-04-26T15:13:37.928Z</time></trkpt><trkpt lat="41.9518718" lon="13.0555565"><ele>346.0</ele><time>2026-04-26T15:13:38.922Z</time></trkpt><trkpt lat="41.9519905" lon="13.0553935"><ele>346.0</ele><time>2026-04-26T15:13:39.934Z</time></trkpt><trkpt lat="41.9521074" lon="13.0552299"><ele>346.0</ele><time>2026-04-26T15:13:40.918Z</time></trkpt><trkpt lat="41.9522301" lon="13.0550653"><ele>345.66666666666663</ele><time>2026-04-26T15:13:41.933Z</time></trkpt><trkpt lat="41.9523623" lon="13.0549008"><ele>345.3333333333333</ele><time>2026-04-26T15:13:42.943Z</time></trkpt><trkpt lat="41.9525" lon="13.0547429"><ele>345.0</ele><time>2026-04-26T15:13:43.927Z</time></trkpt><trkpt lat="41.9526384" lon="13.0545957"><ele>345.0</ele><time>2026-04-26T15:13:44.93Z</time></trkpt><trkpt lat="41.952779" lon="13.0544577"><ele>345.0</ele><time>2026-04-26T15:13:45.921Z</time></trkpt><trkpt lat="41.95292" lon="13.0543299"><ele>345.0</ele><time>2026-04-26T15:13:46.927Z</time></trkpt><trkpt lat="41.9530612" lon="13.0542132"><ele>344.75</ele><time>2026-04-26T15:13:47.915Z</time></trkpt><trkpt lat="41.9532008" lon="13.0541083"><ele>344.5</ele><time>2026-04-26T15:13:48.929Z</time></trkpt><trkpt lat="41.9533334" lon="13.0540173"><ele>344.25</ele><time>2026-04-26T15:13:49.939Z</time></trkpt><trkpt lat="41.9534589" lon="13.0539378"><ele>344.0</ele><time>2026-04-26T15:13:50.923Z</time></trkpt><trkpt lat="41.9535814" lon="13.0538774"><ele>345.0</ele><time>2026-04-26T15:13:51.925Z</time></trkpt><trkpt lat="41.9537032" lon="13.0538103"><ele>346.0</ele><time>2026-04-26T15:13:52.92Z</time></trkpt><trkpt lat="41.9538209" lon="13.0537494"><ele>347.0</ele><time>2026-04-26T15:13:53.917Z</time></trkpt><trkpt lat="41.9539395" lon="13.0536941"><ele>348.0</ele><time>2026-04-26T15:13:54.916Z</time></trkpt><trkpt lat="41.9540538" lon="13.0536447"><ele>348.0</ele><time>2026-04-26T15:13:55.932Z</time></trkpt><trkpt lat="41.9541639" lon="13.0535992"><ele>348.0</ele><time>2026-04-26T15:13:56.929Z</time></trkpt><trkpt lat="41.95427" lon="13.0535575"><ele>348.0</ele><time>2026-04-26T15:13:57.919Z</time></trkpt><trkpt lat="41.9543802" lon="13.0535219"><ele>348.0</ele><time>2026-04-26T15:13:58.928Z</time></trkpt><trkpt lat="41.9544919" lon="13.0534924"><ele>348.0</ele><time>2026-04-26T15:13:59.921Z</time></trkpt><trkpt lat="41.9546061" lon="13.0534664"><ele>348.0</ele><time>2026-04-26T15:14:00.934Z</time></trkpt><trkpt lat="41.95472" lon="13.0534352"><ele>348.0</ele><time>2026-04-26T15:14:01.927Z</time></trkpt><trkpt lat="41.9548336" lon="13.0533958"><ele>348.0</ele><time>2026-04-26T15:14:02.925Z</time></trkpt><trkpt lat="41.954945" lon="13.0533445"><ele>347.0</ele><time>2026-04-26T15:14:03.918Z</time></trkpt><trkpt lat="41.9550554" lon="13.0532801"><ele>346.0</ele><time>2026-04-26T15:14:04.931Z</time></trkpt><trkpt lat="41.9551645" lon="13.0532058"><ele>345.0</ele><time>2026-04-26T15:14:05.925Z</time></trkpt><trkpt lat="41.9552719" lon="13.0531265"><ele>344.0</ele><time>2026-04-26T15:14:06.923Z</time></trkpt><trkpt lat="41.9553754" lon="13.0530464"><ele>344.0</ele><time>2026-04-26T15:14:07.918Z</time></trkpt><trkpt lat="41.9554735" lon="13.052966"><ele>344.0</ele><time>2026-04-26T15:14:08.93Z</time></trkpt><trkpt lat="41.9555656" lon="13.0528898"><ele>344.0</ele><time>2026-04-26T15:14:09.919Z</time></trkpt><trkpt lat="41.955644" lon="13.052826"><ele>344.0</ele><time>2026-04-26T15:14:10.925Z</time></trkpt><trkpt lat="41.9557043" lon="13.0527795"><ele>344.0</ele><time>2026-04-26T15:14:11.934Z</time></trkpt><trkpt lat="41.9557601" lon="13.0527357"><ele>344.0</ele><time>2026-04-26T15:14:12.952Z</time></trkpt><trkpt lat="41.9558664" lon="13.0526456"><ele>344.0</ele><time>2026-04-26T15:14:14.926Z</time></trkpt><trkpt lat="41.9559291" lon="13.0525986"><ele>344.0</ele><time>2026-04-26T15:14:15.931Z</time></trkpt><trkpt lat="41.9560003" lon="13.0525498"><ele>344.0</ele><time>2026-04-26T15:14:16.934Z</time></trkpt><trkpt lat="41.9560873" lon="13.0524959"><ele>344.0</ele><time>2026-04-26T15:14:17.927Z</time></trkpt><trkpt lat="41.956191" lon="13.052434"><ele>344.0</ele><time>2026-04-26T15:14:18.926Z</time></trkpt><trkpt lat="41.9563098" lon="13.0523671"><ele>343.75</ele><time>2026-04-26T15:14:19.926Z</time></trkpt><trkpt lat="41.9564307" lon="13.0523041"><ele>343.5</ele><time>2026-04-26T15:14:20.929Z</time></trkpt><trkpt lat="41.9565507" lon="13.052245"><ele>343.25</ele><time>2026-04-26T15:14:21.927Z</time></trkpt><trkpt lat="41.9566684" lon="13.0521879"><ele>343.0</ele><time>2026-04-26T15:14:22.925Z</time></trkpt><trkpt lat="41.9567838" lon="13.0521289"><ele>343.0</ele><time>2026-04-26T15:14:23.928Z</time></trkpt><trkpt lat="41.9568996" lon="13.0520687"><ele>343.0</ele><time>2026-04-26T15:14:24.929Z</time></trkpt><trkpt lat="41.9570172" lon="13.0520061"><ele>343.0</ele><time>2026-04-26T15:14:25.923Z</time></trkpt><trkpt lat="41.9571378" lon="13.0519434"><ele>343.0</ele><time>2026-04-26T15:14:26.926Z</time></trkpt><trkpt lat="41.9572648" lon="13.0518771"><ele>343.0</ele><time>2026-04-26T15:14:27.928Z</time></trkpt><trkpt lat="41.9573975" lon="13.0518049"><ele>343.0</ele><time>2026-04-26T15:14:28.927Z</time></trkpt><trkpt lat="41.9575303" lon="13.0517287"><ele>343.0</ele><time>2026-04-26T15:14:29.922Z</time></trkpt><trkpt lat="41.9576593" lon="13.0516514"><ele>343.0</ele><time>2026-04-26T15:14:30.923Z</time></trkpt><trkpt lat="41.9577812" lon="13.0515687"><ele>343.25</ele><time>2026-04-26T15:14:31.916Z</time></trkpt><trkpt lat="41.9578961" lon="13.0514789"><ele>343.5</ele><time>2026-04-26T15:14:32.927Z</time></trkpt><trkpt lat="41.9580076" lon="13.0513833"><ele>343.75</ele><time>2026-04-26T15:14:33.922Z</time></trkpt><trkpt lat="41.9581146" lon="13.0512737"><ele>344.0</ele><time>2026-04-26T15:14:34.931Z</time></trkpt><trkpt lat="41.9582148" lon="13.0511528"><ele>344.0</ele><time>2026-04-26T15:14:35.929Z</time></trkpt><trkpt lat="41.9583065" lon="13.0510275"><ele>344.0</ele><time>2026-04-26T15:14:36.929Z</time></trkpt><trkpt lat="41.9583895" lon="13.0508986"><ele>344.0</ele><time>2026-04-26T15:14:37.922Z</time></trkpt><trkpt lat="41.9584638" lon="13.0507656"><ele>344.0</ele><time>2026-04-26T15:14:38.936Z</time></trkpt><trkpt lat="41.9585367" lon="13.0506106"><ele>346.6666666666667</ele><time>2026-04-26T15:14:39.917Z</time></trkpt><trkpt lat="41.9586234" lon="13.0504161"><ele>349.3333333333333</ele><time>2026-04-26T15:14:40.93Z</time></trkpt><trkpt lat="41.9587272" lon="13.0501997"><ele>352.0</ele><time>2026-04-26T15:14:41.929Z</time></trkpt><trkpt lat="41.958835" lon="13.0499792"><ele>351.0</ele><time>2026-04-26T15:14:42.928Z</time></trkpt><trkpt lat="41.9589578" lon="13.0497596"><ele>350.0</ele><time>2026-04-26T15:14:43.93Z</time></trkpt><trkpt lat="41.9591088" lon="13.0495477"><ele>349.0</ele><time>2026-04-26T15:14:44.921Z</time></trkpt><trkpt lat="41.959245" lon="13.0493673"><ele>350.0</ele><time>2026-04-26T15:14:45.93Z</time></trkpt><trkpt lat="41.9593695" lon="13.049208"><ele>351.0</ele><time>2026-04-26T15:14:46.928Z</time></trkpt><trkpt lat="41.9594835" lon="13.0490632"><ele>352.0</ele><time>2026-04-26T15:14:47.927Z</time></trkpt><trkpt lat="41.9595952" lon="13.0489405"><ele>352.0</ele><time>2026-04-26T15:14:48.93Z</time></trkpt><trkpt lat="41.9597066" lon="13.0488298"><ele>352.0</ele><time>2026-04-26T15:14:49.929Z</time></trkpt><trkpt lat="41.9598167" lon="13.0487248"><ele>352.0</ele><time>2026-04-26T15:14:50.931Z</time></trkpt><trkpt lat="41.959929" lon="13.0486236"><ele>352.0</ele><time>2026-04-26T15:14:51.915Z</time></trkpt><trkpt lat="41.9600443" lon="13.0485248"><ele>352.25</ele><time>2026-04-26T15:14:52.929Z</time></trkpt><trkpt lat="41.960168" lon="13.0484322"><ele>352.5</ele><time>2026-04-26T15:14:53.927Z</time></trkpt><trkpt lat="41.9603018" lon="13.048348"><ele>352.75</ele><time>2026-04-26T15:14:54.917Z</time></trkpt><trkpt lat="41.9604436" lon="13.0482648"><ele>353.0</ele><time>2026-04-26T15:14:55.915Z</time></trkpt><trkpt lat="41.9605955" lon="13.048174"><ele>353.33333333333337</ele><time>2026-04-26T15:14:56.915Z</time></trkpt><trkpt lat="41.9607549" lon="13.0480796"><ele>353.6666666666667</ele><time>2026-04-26T15:14:57.927Z</time></trkpt><trkpt lat="41.960925" lon="13.0479819"><ele>354.0</ele><time>2026-04-26T15:14:58.913Z</time></trkpt><trkpt lat="41.9611018" lon="13.0478854"><ele>351.0</ele><time>2026-04-26T15:14:59.937Z</time></trkpt><trkpt lat="41.9612823" lon="13.0477914"><ele>348.0</ele><time>2026-04-26T15:15:00.917Z</time></trkpt><trkpt lat="41.9614602" lon="13.0476993"><ele>345.0</ele><time>2026-04-26T15:15:01.925Z</time></trkpt><trkpt lat="41.961631" lon="13.0476106"><ele>345.3333333333333</ele><time>2026-04-26T15:15:02.933Z</time></trkpt><trkpt lat="41.9617928" lon="13.0475273"><ele>345.66666666666663</ele><time>2026-04-26T15:15:03.92Z</time></trkpt><trkpt lat="41.9619506" lon="13.0474444"><ele>346.0</ele><time>2026-04-26T15:15:04.912Z</time></trkpt><trkpt lat="41.9621077" lon="13.0473606"><ele>344.3333333333333</ele><time>2026-04-26T15:15:05.928Z</time></trkpt><trkpt lat="41.9622649" lon="13.0472758"><ele>342.6666666666667</ele><time>2026-04-26T15:15:06.931Z</time></trkpt><trkpt lat="41.9624236" lon="13.0471901"><ele>341.0</ele><time>2026-04-26T15:15:07.918Z</time></trkpt><trkpt lat="41.9625869" lon="13.0470988"><ele>341.0</ele><time>2026-04-26T15:15:08.925Z</time></trkpt><trkpt lat="41.9627578" lon="13.047002"><ele>341.0</ele><time>2026-04-26T15:15:09.927Z</time></trkpt><trkpt lat="41.9629337" lon="13.0469081"><ele>341.0</ele><time>2026-04-26T15:15:10.931Z</time></trkpt><trkpt lat="41.9631082" lon="13.0468199"><ele>341.0</ele><time>2026-04-26T15:15:11.93Z</time></trkpt><trkpt lat="41.9632767" lon="13.0467411"><ele>341.0</ele><time>2026-04-26T15:15:12.929Z</time></trkpt><trkpt lat="41.963436" lon="13.0466686"><ele>341.0</ele><time>2026-04-26T15:15:13.928Z</time></trkpt><trkpt lat="41.9635854" lon="13.0466008"><ele>341.0</ele><time>2026-04-26T15:15:14.923Z</time></trkpt><trkpt lat="41.9637263" lon="13.0465302"><ele>341.0</ele><time>2026-04-26T15:15:15.932Z</time></trkpt><trkpt lat="41.9638611" lon="13.0464534"><ele>341.0</ele><time>2026-04-26T15:15:16.916Z</time></trkpt><trkpt lat="41.9639888" lon="13.046364"><ele>341.0</ele><time>2026-04-26T15:15:17.933Z</time></trkpt><trkpt lat="41.9641099" lon="13.046267"><ele>342.75</ele><time>2026-04-26T15:15:18.934Z</time></trkpt><trkpt lat="41.9642187" lon="13.0461643"><ele>344.5</ele><time>2026-04-26T15:15:19.931Z</time></trkpt><trkpt lat="41.9643168" lon="13.0460455"><ele>346.25</ele><time>2026-04-26T15:15:20.919Z</time></trkpt><trkpt lat="41.9644133" lon="13.0459077"><ele>348.0</ele><time>2026-04-26T15:15:21.939Z</time></trkpt><trkpt lat="41.9645102" lon="13.0457558"><ele>349.0</ele><time>2026-04-26T15:15:22.925Z</time></trkpt><trkpt lat="41.9646028" lon="13.045594"><ele>350.0</ele><time>2026-04-26T15:15:23.934Z</time></trkpt><trkpt lat="41.9646901" lon="13.0454105"><ele>351.0</ele><time>2026-04-26T15:15:24.923Z</time></trkpt><trkpt lat="41.964772" lon="13.0451905"><ele>351.0</ele><time>2026-04-26T15:15:25.913Z</time></trkpt><trkpt lat="41.9648525" lon="13.0449626"><ele>351.0</ele><time>2026-04-26T15:15:26.932Z</time></trkpt><trkpt lat="41.9649263" lon="13.0447467"><ele>351.0</ele><time>2026-04-26T15:15:27.935Z</time></trkpt><trkpt lat="41.9649884" lon="13.0445484"><ele>351.25</ele><time>2026-04-26T15:15:28.926Z</time></trkpt><trkpt lat="41.9650424" lon="13.0443664"><ele>351.5</ele><time>2026-04-26T15:15:29.924Z</time></trkpt><trkpt lat="41.9650876" lon="13.0441961"><ele>351.75</ele><time>2026-04-26T15:15:30.934Z</time></trkpt><trkpt lat="41.9651283" lon="13.0440303"><ele>352.0</ele><time>2026-04-26T15:15:31.923Z</time></trkpt><trkpt lat="41.9651688" lon="13.0438665"><ele>352.0</ele><time>2026-04-26T15:15:32.928Z</time></trkpt><trkpt lat="41.9652132" lon="13.0437042"><ele>352.0</ele><time>2026-04-26T15:15:33.914Z</time></trkpt><trkpt lat="41.9652679" lon="13.043547"><ele>352.0</ele><time>2026-04-26T15:15:34.924Z</time></trkpt><trkpt lat="41.9653346" lon="13.0433982"><ele>352.0</ele><time>2026-04-26T15:15:35.919Z</time></trkpt><trkpt lat="41.9654105" lon="13.043252"><ele>348.5</ele><time>2026-04-26T15:15:36.926Z</time></trkpt><trkpt lat="41.9654982" lon="13.0431219"><ele>345.0</ele><time>2026-04-26T15:15:37.925Z</time></trkpt><trkpt lat="41.9655967" lon="13.0430017"><ele>341.5</ele><time>2026-04-26T15:15:38.916Z</time></trkpt><trkpt lat="41.9657103" lon="13.0428766"><ele>338.0</ele><time>2026-04-26T15:15:39.929Z</time></trkpt><trkpt lat="41.965852" lon="13.0427441"><ele>338.33333333333337</ele><time>2026-04-26T15:15:40.924Z</time></trkpt><trkpt lat="41.9660261" lon="13.042604"><ele>338.6666666666667</ele><time>2026-04-26T15:15:41.928Z</time></trkpt><trkpt lat="41.9662196" lon="13.0424425"><ele>339.0</ele><time>2026-04-26T15:15:42.935Z</time></trkpt><trkpt lat="41.9664255" lon="13.0422799"><ele>337.5</ele><time>2026-04-26T15:15:43.913Z</time></trkpt><trkpt lat="41.9666414" lon="13.0421208"><ele>336.0</ele><time>2026-04-26T15:15:44.94Z</time></trkpt><trkpt lat="41.966856" lon="13.0419608"><ele>336.0</ele><time>2026-04-26T15:15:45.928Z</time></trkpt><trkpt lat="41.9670692" lon="13.041792"><ele>336.0</ele><time>2026-04-26T15:15:46.919Z</time></trkpt><trkpt lat="41.967277" lon="13.041622"><ele>336.5</ele><time>2026-04-26T15:15:47.92Z</time></trkpt><trkpt lat="41.9674781" lon="13.0414576"><ele>337.0</ele><time>2026-04-26T15:15:48.925Z</time></trkpt><trkpt lat="41.967673" lon="13.0412928"><ele>337.0</ele><time>2026-04-26T15:15:49.919Z</time></trkpt><trkpt lat="41.9678688" lon="13.0411325"><ele>337.0</ele><time>2026-04-26T15:15:50.928Z</time></trkpt><trkpt lat="41.9680707" lon="13.0409852"><ele>337.0</ele><time>2026-04-26T15:15:51.926Z</time></trkpt><trkpt lat="41.9682765" lon="13.0408453"><ele>337.0</ele><time>2026-04-26T15:15:52.929Z</time></trkpt><trkpt lat="41.968482" lon="13.0407045"><ele>338.5</ele><time>2026-04-26T15:15:53.929Z</time></trkpt><trkpt lat="41.9686857" lon="13.0405615"><ele>340.0</ele><time>2026-04-26T15:15:54.92Z</time></trkpt><trkpt lat="41.9688856" lon="13.040418"><ele>340.0</ele><time>2026-04-26T15:15:55.92Z</time></trkpt><trkpt lat="41.9690687" lon="13.0402667"><ele>340.0</ele><time>2026-04-26T15:15:56.919Z</time></trkpt><trkpt lat="41.9692323" lon="13.0400908"><ele>340.0</ele><time>2026-04-26T15:15:57.918Z</time></trkpt><trkpt lat="41.96938" lon="13.0398921"><ele>341.3333333333333</ele><time>2026-04-26T15:15:58.921Z</time></trkpt><trkpt lat="41.9695179" lon="13.0396796"><ele>342.6666666666667</ele><time>2026-04-26T15:15:59.917Z</time></trkpt><trkpt lat="41.9696488" lon="13.0394671"><ele>344.0</ele><time>2026-04-26T15:16:00.928Z</time></trkpt><trkpt lat="41.9697732" lon="13.0392667"><ele>343.6666666666667</ele><time>2026-04-26T15:16:01.92Z</time></trkpt><trkpt lat="41.969894" lon="13.0390837"><ele>343.3333333333333</ele><time>2026-04-26T15:16:02.927Z</time></trkpt><trkpt lat="41.9700114" lon="13.0389181"><ele>343.0</ele><time>2026-04-26T15:16:03.932Z</time></trkpt><trkpt lat="41.9701298" lon="13.0387672"><ele>343.0</ele><time>2026-04-26T15:16:04.936Z</time></trkpt><trkpt lat="41.9702519" lon="13.0386342"><ele>343.0</ele><time>2026-04-26T15:16:05.936Z</time></trkpt><trkpt lat="41.9703798" lon="13.0385195"><ele>343.0</ele><time>2026-04-26T15:16:06.931Z</time></trkpt><trkpt lat="41.9705139" lon="13.0384243"><ele>343.0</ele><time>2026-04-26T15:16:07.926Z</time></trkpt><trkpt lat="41.970655" lon="13.0383447"><ele>343.0</ele><time>2026-04-26T15:16:08.929Z</time></trkpt><trkpt lat="41.970802" lon="13.0382795"><ele>343.0</ele><time>2026-04-26T15:16:09.932Z</time></trkpt><trkpt lat="41.9709544" lon="13.038231"><ele>342.0</ele><time>2026-04-26T15:16:10.931Z</time></trkpt><trkpt lat="41.9711083" lon="13.0382002"><ele>341.0</ele><time>2026-04-26T15:16:11.935Z</time></trkpt><trkpt lat="41.9712625" lon="13.0381853"><ele>340.0</ele><time>2026-04-26T15:16:12.93Z</time></trkpt><trkpt lat="41.9714152" lon="13.0381821"><ele>340.0</ele><time>2026-04-26T15:16:13.925Z</time></trkpt><trkpt lat="41.9715656" lon="13.038179"><ele>340.0</ele><time>2026-04-26T15:16:14.928Z</time></trkpt><trkpt lat="41.9717161" lon="13.0381757"><ele>340.0</ele><time>2026-04-26T15:16:15.927Z</time></trkpt><trkpt lat="41.9718672" lon="13.0381718"><ele>339.3333333333333</ele><time>2026-04-26T15:16:16.927Z</time></trkpt><trkpt lat="41.9720208" lon="13.038167"><ele>338.6666666666667</ele><time>2026-04-26T15:16:17.929Z</time></trkpt><trkpt lat="41.972177" lon="13.0381621"><ele>338.0</ele><time>2026-04-26T15:16:18.928Z</time></trkpt><trkpt lat="41.9723348" lon="13.0381581"><ele>338.0</ele><time>2026-04-26T15:16:19.931Z</time></trkpt><trkpt lat="41.9724937" lon="13.0381536"><ele>338.0</ele><time>2026-04-26T15:16:20.928Z</time></trkpt><trkpt lat="41.9726536" lon="13.0381478"><ele>338.0</ele><time>2026-04-26T15:16:21.932Z</time></trkpt><trkpt lat="41.9728154" lon="13.0381427"><ele>337.0</ele><time>2026-04-26T15:16:22.932Z</time></trkpt><trkpt lat="41.9729783" lon="13.038137"><ele>336.0</ele><time>2026-04-26T15:16:23.921Z</time></trkpt><trkpt lat="41.9731433" lon="13.0381329"><ele>335.0</ele><time>2026-04-26T15:16:24.928Z</time></trkpt><trkpt lat="41.9733082" lon="13.0381242"><ele>335.6666666666667</ele><time>2026-04-26T15:16:25.936Z</time></trkpt><trkpt lat="41.9734698" lon="13.0381174"><ele>336.3333333333333</ele><time>2026-04-26T15:16:26.93Z</time></trkpt><trkpt lat="41.9736343" lon="13.0380823"><ele>337.0</ele><time>2026-04-26T15:16:27.928Z</time></trkpt><trkpt lat="41.973801" lon="13.0380288"><ele>337.0</ele><time>2026-04-26T15:16:28.915Z</time></trkpt><trkpt lat="41.9739629" lon="13.0379609"><ele>337.0</ele><time>2026-04-26T15:16:29.916Z</time></trkpt><trkpt lat="41.9741222" lon="13.037868"><ele>337.0</ele><time>2026-04-26T15:16:30.934Z</time></trkpt><trkpt lat="41.9742826" lon="13.0377643"><ele>336.66666666666663</ele><time>2026-04-26T15:16:31.92Z</time></trkpt><trkpt lat="41.9744492" lon="13.0376138"><ele>336.3333333333333</ele><time>2026-04-26T15:16:32.915Z</time></trkpt><trkpt lat="41.9746243" lon="13.0374652"><ele>336.0</ele><time>2026-04-26T15:16:33.917Z</time></trkpt><trkpt lat="41.9748081" lon="13.0373078"><ele>336.0</ele><time>2026-04-26T15:16:34.928Z</time></trkpt><trkpt lat="41.9750021" lon="13.0371437"><ele>336.0</ele><time>2026-04-26T15:16:35.929Z</time></trkpt><trkpt lat="41.9751947" lon="13.0369683"><ele>335.5</ele><time>2026-04-26T15:16:36.929Z</time></trkpt><trkpt lat="41.9753879" lon="13.0367881"><ele>335.0</ele><time>2026-04-26T15:16:37.928Z</time></trkpt><trkpt lat="41.975583" lon="13.0366042"><ele>335.0</ele><time>2026-04-26T15:16:38.929Z</time></trkpt><trkpt lat="41.9757812" lon="13.0364213"><ele>335.0</ele><time>2026-04-26T15:16:39.932Z</time></trkpt><trkpt lat="41.9759791" lon="13.0362394"><ele>338.0</ele><time>2026-04-26T15:16:40.929Z</time></trkpt><trkpt lat="41.9761824" lon="13.0360629"><ele>341.0</ele><time>2026-04-26T15:16:41.937Z</time></trkpt><trkpt lat="41.9763812" lon="13.0358898"><ele>338.5</ele><time>2026-04-26T15:16:42.93Z</time></trkpt><trkpt lat="41.9765798" lon="13.0357211"><ele>336.0</ele><time>2026-04-26T15:16:43.941Z</time></trkpt><trkpt lat="41.9767777" lon="13.0355599"><ele>336.0</ele><time>2026-04-26T15:16:44.935Z</time></trkpt><trkpt lat="41.9769739" lon="13.035403"><ele>336.0</ele><time>2026-04-26T15:16:45.931Z</time></trkpt><trkpt lat="41.9771651" lon="13.0352454"><ele>336.0</ele><time>2026-04-26T15:16:46.935Z</time></trkpt><trkpt lat="41.9773536" lon="13.0350906"><ele>336.0</ele><time>2026-04-26T15:16:47.929Z</time></trkpt><trkpt lat="41.9775384" lon="13.0349387"><ele>336.0</ele><time>2026-04-26T15:16:48.937Z</time></trkpt><trkpt lat="41.9777191" lon="13.0347872"><ele>336.0</ele><time>2026-04-26T15:16:49.935Z</time></trkpt><trkpt lat="41.9778948" lon="13.0346364"><ele>336.0</ele><time>2026-04-26T15:16:50.928Z</time></trkpt><trkpt lat="41.978065" lon="13.0344838"><ele>336.0</ele><time>2026-04-26T15:16:51.927Z</time></trkpt><trkpt lat="41.9782277" lon="13.0343234"><ele>337.6666666666667</ele><time>2026-04-26T15:16:52.933Z</time></trkpt><trkpt lat="41.9783805" lon="13.0341537"><ele>339.33333333333337</ele><time>2026-04-26T15:16:53.931Z</time></trkpt><trkpt lat="41.9785248" lon="13.0339713"><ele>341.0</ele><time>2026-04-26T15:16:54.935Z</time></trkpt><trkpt lat="41.9786642" lon="13.0337826"><ele>341.0</ele><time>2026-04-26T15:16:55.925Z</time></trkpt><trkpt lat="41.9788006" lon="13.0335913"><ele>341.0</ele><time>2026-04-26T15:16:56.943Z</time></trkpt><trkpt lat="41.9789341" lon="13.033401"><ele>341.0</ele><time>2026-04-26T15:16:57.928Z</time></trkpt><trkpt lat="41.9790646" lon="13.0332131"><ele>341.33333333333337</ele><time>2026-04-26T15:16:58.935Z</time></trkpt><trkpt lat="41.9791909" lon="13.0330324"><ele>341.6666666666667</ele><time>2026-04-26T15:16:59.928Z</time></trkpt><trkpt lat="41.9793102" lon="13.0328635"><ele>342.0</ele><time>2026-04-26T15:17:00.931Z</time></trkpt><trkpt lat="41.9794181" lon="13.0327119"><ele>342.0</ele><time>2026-04-26T15:17:01.94Z</time></trkpt><trkpt lat="41.9795184" lon="13.032574"><ele>342.0</ele><time>2026-04-26T15:17:02.924Z</time></trkpt><trkpt lat="41.9796134" lon="13.0324428"><ele>342.0</ele><time>2026-04-26T15:17:03.933Z</time></trkpt><trkpt lat="41.9797052" lon="13.0323175"><ele>342.0</ele><time>2026-04-26T15:17:04.93Z</time></trkpt><trkpt lat="41.9797928" lon="13.0321965"><ele>340.5</ele><time>2026-04-26T15:17:05.919Z</time></trkpt><trkpt lat="41.9798764" lon="13.0320797"><ele>339.0</ele><time>2026-04-26T15:17:06.934Z</time></trkpt><trkpt lat="41.9799573" lon="13.0319658"><ele>337.5</ele><time>2026-04-26T15:17:07.928Z</time></trkpt><trkpt lat="41.9800374" lon="13.0318534"><ele>336.0</ele><time>2026-04-26T15:17:08.931Z</time></trkpt><trkpt lat="41.9801146" lon="13.0317423"><ele>338.6</ele><time>2026-04-26T15:17:09.916Z</time></trkpt><trkpt lat="41.9801901" lon="13.0316339"><ele>341.20000000000005</ele><time>2026-04-26T15:17:10.929Z</time></trkpt><trkpt lat="41.9802655" lon="13.031529"><ele>343.79999999999995</ele><time>2026-04-26T15:17:11.935Z</time></trkpt><trkpt lat="41.9803425" lon="13.0314262"><ele>346.4</ele><time>2026-04-26T15:17:12.921Z</time></trkpt><trkpt lat="41.980421" lon="13.031321"><ele>349.0</ele><time>2026-04-26T15:17:13.931Z</time></trkpt><trkpt lat="41.9805007" lon="13.0312097"><ele>349.0</ele><time>2026-04-26T15:17:14.918Z</time></trkpt><trkpt lat="41.980581" lon="13.0310919"><ele>349.0</ele><time>2026-04-26T15:17:15.932Z</time></trkpt><trkpt lat="41.9806624" lon="13.0309672"><ele>349.0</ele><time>2026-04-26T15:17:16.923Z</time></trkpt><trkpt lat="41.9807454" lon="13.0308349"><ele>349.0</ele><time>2026-04-26T15:17:17.931Z</time></trkpt><trkpt lat="41.9808295" lon="13.0306936"><ele>347.0</ele><time>2026-04-26T15:17:18.917Z</time></trkpt><trkpt lat="41.9809205" lon="13.0305391"><ele>345.0</ele><time>2026-04-26T15:17:19.933Z</time></trkpt><trkpt lat="41.9810279" lon="13.0303765"><ele>343.0</ele><time>2026-04-26T15:17:20.923Z</time></trkpt><trkpt lat="41.9811552" lon="13.0302217"><ele>343.0</ele><time>2026-04-26T15:17:21.932Z</time></trkpt><trkpt lat="41.981304" lon="13.0300821"><ele>343.0</ele><time>2026-04-26T15:17:22.928Z</time></trkpt><trkpt lat="41.9814694" lon="13.0299637"><ele>343.0</ele><time>2026-04-26T15:17:23.914Z</time></trkpt><trkpt lat="41.9816494" lon="13.0298739"><ele>339.0</ele><time>2026-04-26T15:17:24.924Z</time></trkpt><trkpt lat="41.981837" lon="13.0298205"><ele>335.0</ele><time>2026-04-26T15:17:25.924Z</time></trkpt><trkpt lat="41.9820282" lon="13.0298015"><ele>331.0</ele><time>2026-04-26T15:17:26.922Z</time></trkpt><trkpt lat="41.9822299" lon="13.0297984"><ele>331.0</ele><time>2026-04-26T15:17:27.925Z</time></trkpt><trkpt lat="41.9824562" lon="13.0297992"><ele>331.0</ele><time>2026-04-26T15:17:28.923Z</time></trkpt><trkpt lat="41.9827164" lon="13.0298027"><ele>331.5</ele><time>2026-04-26T15:17:29.926Z</time></trkpt><trkpt lat="41.9830143" lon="13.0298079"><ele>332.0</ele><time>2026-04-26T15:17:30.919Z</time></trkpt><trkpt lat="41.9833452" lon="13.0298228"><ele>333.5</ele><time>2026-04-26T15:17:31.912Z</time></trkpt><trkpt lat="41.9837043" lon="13.0298511"><ele>335.0</ele><time>2026-04-26T15:17:32.909Z</time></trkpt><trkpt lat="41.9840725" lon="13.0298868"><ele>334.5</ele><time>2026-04-26T15:17:33.922Z</time></trkpt><trkpt lat="41.9844267" lon="13.0299174"><ele>334.0</ele><time>2026-04-26T15:17:34.921Z</time></trkpt><trkpt lat="41.9847632" lon="13.0299422"><ele>333.5</ele><time>2026-04-26T15:17:35.919Z</time></trkpt><trkpt lat="41.9850828" lon="13.0299646"><ele>333.0</ele><time>2026-04-26T15:17:36.926Z</time></trkpt><trkpt lat="41.9853876" lon="13.0299863"><ele>333.0</ele><time>2026-04-26T15:17:37.925Z</time></trkpt><trkpt lat="41.9856809" lon="13.0300071"><ele>333.0</ele><time>2026-04-26T15:17:38.928Z</time></trkpt><trkpt lat="41.9859648" lon="13.0300295"><ele>331.5</ele><time>2026-04-26T15:17:39.93Z</time></trkpt><trkpt lat="41.9862406" lon="13.0300463"><ele>330.0</ele><time>2026-04-26T15:17:40.923Z</time></trkpt><trkpt lat="41.9865093" lon="13.0300561"><ele>329.5</ele><time>2026-04-26T15:17:41.933Z</time></trkpt><trkpt lat="41.9867721" lon="13.0300557"><ele>329.0</ele><time>2026-04-26T15:17:42.924Z</time></trkpt><trkpt lat="41.9870292" lon="13.0300422"><ele>329.0</ele><time>2026-04-26T15:17:43.928Z</time></trkpt><trkpt lat="41.9872835" lon="13.0300146"><ele>329.0</ele><time>2026-04-26T15:17:44.928Z</time></trkpt><trkpt lat="41.9875363" lon="13.029971"><ele>329.0</ele><time>2026-04-26T15:17:45.92Z</time></trkpt><trkpt lat="41.9877849" lon="13.0299112"><ele>329.0</ele><time>2026-04-26T15:17:46.927Z</time></trkpt><trkpt lat="41.9880274" lon="13.0298389"><ele>329.0</ele><time>2026-04-26T15:17:47.927Z</time></trkpt><trkpt lat="41.9882633" lon="13.0297576"><ele>329.0</ele><time>2026-04-26T15:17:48.924Z</time></trkpt><trkpt lat="41.9884906" lon="13.0296673"><ele>331.0</ele><time>2026-04-26T15:17:49.929Z</time></trkpt><trkpt lat="41.9887072" lon="13.0295635"><ele>333.0</ele><time>2026-04-26T15:17:50.944Z</time></trkpt><trkpt lat="41.9889146" lon="13.0294475"><ele>333.0</ele><time>2026-04-26T15:17:51.929Z</time></trkpt><trkpt lat="41.9891082" lon="13.0293255"><ele>333.0</ele><time>2026-04-26T15:17:52.94Z</time></trkpt><trkpt lat="41.989284" lon="13.0292035"><ele>333.0</ele><time>2026-04-26T15:17:53.928Z</time></trkpt><trkpt lat="41.9894438" lon="13.0290817"><ele>333.0</ele><time>2026-04-26T15:17:54.927Z</time></trkpt><trkpt lat="41.9895929" lon="13.0289607"><ele>333.0</ele><time>2026-04-26T15:17:55.928Z</time></trkpt><trkpt lat="41.9897365" lon="13.0288359"><ele>333.0</ele><time>2026-04-26T15:17:56.934Z</time></trkpt><trkpt lat="41.9898795" lon="13.0287051"><ele>334.0</ele><time>2026-04-26T15:17:57.927Z</time></trkpt><trkpt lat="41.9900215" lon="13.0285674"><ele>335.0</ele><time>2026-04-26T15:17:58.922Z</time></trkpt><trkpt lat="41.9901598" lon="13.0284184"><ele>336.0</ele><time>2026-04-26T15:17:59.933Z</time></trkpt><trkpt lat="41.990294" lon="13.0282503"><ele>336.0</ele><time>2026-04-26T15:18:00.931Z</time></trkpt><trkpt lat="41.9904346" lon="13.0280616"><ele>336.0</ele><time>2026-04-26T15:18:01.929Z</time></trkpt><trkpt lat="41.9905877" lon="13.0278574"><ele>336.0</ele><time>2026-04-26T15:18:02.93Z</time></trkpt><trkpt lat="41.9907496" lon="13.027639"><ele>336.0</ele><time>2026-04-26T15:18:03.931Z</time></trkpt><trkpt lat="41.9909151" lon="13.0274129"><ele>336.0</ele><time>2026-04-26T15:18:04.93Z</time></trkpt><trkpt lat="41.9910798" lon="13.0271821"><ele>336.0</ele><time>2026-04-26T15:18:05.929Z</time></trkpt><trkpt lat="41.9912391" lon="13.0269469"><ele>336.0</ele><time>2026-04-26T15:18:06.929Z</time></trkpt><trkpt lat="41.9913867" lon="13.0267071"><ele>336.0</ele><time>2026-04-26T15:18:07.937Z</time></trkpt><trkpt lat="41.9915151" lon="13.026459"><ele>336.0</ele><time>2026-04-26T15:18:08.92Z</time></trkpt><trkpt lat="41.9916202" lon="13.0262009"><ele>336.0</ele><time>2026-04-26T15:18:09.931Z</time></trkpt><trkpt lat="41.9917042" lon="13.0259362"><ele>335.0</ele><time>2026-04-26T15:18:10.922Z</time></trkpt><trkpt lat="41.9917739" lon="13.0256698"><ele>334.0</ele><time>2026-04-26T15:18:11.939Z</time></trkpt><trkpt lat="41.9918362" lon="13.0254005"><ele>333.0</ele><time>2026-04-26T15:18:12.929Z</time></trkpt><trkpt lat="41.991894" lon="13.0251287"><ele>332.0</ele><time>2026-04-26T15:18:13.928Z</time></trkpt><trkpt lat="41.9919505" lon="13.0248555"><ele>331.0</ele><time>2026-04-26T15:18:14.929Z</time></trkpt><trkpt lat="41.9920065" lon="13.0245828"><ele>330.0</ele><time>2026-04-26T15:18:15.931Z</time></trkpt><trkpt lat="41.9920615" lon="13.0243198"><ele>329.6666666666667</ele><time>2026-04-26T15:18:16.934Z</time></trkpt><trkpt lat="41.99212" lon="13.0240686"><ele>329.33333333333337</ele><time>2026-04-26T15:18:17.93Z</time></trkpt><trkpt lat="41.9921893" lon="13.0238288"><ele>329.0</ele><time>2026-04-26T15:18:18.926Z</time></trkpt><trkpt lat="41.9922768" lon="13.0236061"><ele>329.0</ele><time>2026-04-26T15:18:19.941Z</time></trkpt><trkpt lat="41.9923866" lon="13.0234089"><ele>329.0</ele><time>2026-04-26T15:18:20.922Z</time></trkpt><trkpt lat="41.9925161" lon="13.0232377"><ele>329.0</ele><time>2026-04-26T15:18:21.927Z</time></trkpt><trkpt lat="41.9926628" lon="13.0230932"><ele>329.33333333333337</ele><time>2026-04-26T15:18:22.931Z</time></trkpt><trkpt lat="41.9928229" lon="13.0229731"><ele>329.6666666666667</ele><time>2026-04-26T15:18:23.922Z</time></trkpt><trkpt lat="41.9929884" lon="13.022873"><ele>330.0</ele><time>2026-04-26T15:18:24.92Z</time></trkpt><trkpt lat="41.9931487" lon="13.0227846"><ele>330.0</ele><time>2026-04-26T15:18:25.928Z</time></trkpt><trkpt lat="41.9932999" lon="13.0227023"><ele>330.0</ele><time>2026-04-26T15:18:26.925Z</time></trkpt><trkpt lat="41.9934441" lon="13.0226244"><ele>330.0</ele><time>2026-04-26T15:18:27.928Z</time></trkpt><trkpt lat="41.9935833" lon="13.0225495"><ele>330.25</ele><time>2026-04-26T15:18:28.923Z</time></trkpt><trkpt lat="41.9937182" lon="13.0224771"><ele>330.5</ele><time>2026-04-26T15:18:29.932Z</time></trkpt><trkpt lat="41.993848" lon="13.0224075"><ele>330.75</ele><time>2026-04-26T15:18:30.932Z</time></trkpt><trkpt lat="41.9939744" lon="13.022341"><ele>331.0</ele><time>2026-04-26T15:18:31.929Z</time></trkpt><trkpt lat="41.9941003" lon="13.0222747"><ele>331.5</ele><time>2026-04-26T15:18:32.93Z</time></trkpt><trkpt lat="41.9942281" lon="13.0222067"><ele>332.0</ele><time>2026-04-26T15:18:33.936Z</time></trkpt><trkpt lat="41.9943603" lon="13.0221354"><ele>332.5</ele><time>2026-04-26T15:18:34.932Z</time></trkpt><trkpt lat="41.9944974" lon="13.0220612"><ele>333.0</ele><time>2026-04-26T15:18:35.93Z</time></trkpt><trkpt lat="41.9946363" lon="13.0219869"><ele>333.0</ele><time>2026-04-26T15:18:36.932Z</time></trkpt><trkpt lat="41.9947772" lon="13.0219118"><ele>333.0</ele><time>2026-04-26T15:18:37.934Z</time></trkpt><trkpt lat="41.9949216" lon="13.0218345"><ele>333.0</ele><time>2026-04-26T15:18:38.927Z</time></trkpt><trkpt lat="41.995069" lon="13.0217534"><ele>333.3333333333333</ele><time>2026-04-26T15:18:39.933Z</time></trkpt><trkpt lat="41.9952193" lon="13.0216685"><ele>333.66666666666663</ele><time>2026-04-26T15:18:40.922Z</time></trkpt><trkpt lat="41.9953714" lon="13.0215832"><ele>334.0</ele><time>2026-04-26T15:18:41.915Z</time></trkpt><trkpt lat="41.9955256" lon="13.0214996"><ele>333.66666666666663</ele><time>2026-04-26T15:18:42.931Z</time></trkpt><trkpt lat="41.9956818" lon="13.0214185"><ele>333.3333333333333</ele><time>2026-04-26T15:18:43.932Z</time></trkpt><trkpt lat="41.9958391" lon="13.0213427"><ele>333.0</ele><time>2026-04-26T15:18:44.92Z</time></trkpt><trkpt lat="41.9959998" lon="13.021279"><ele>333.0</ele><time>2026-04-26T15:18:45.918Z</time></trkpt><trkpt lat="41.9961647" lon="13.0212341"><ele>333.0</ele><time>2026-04-26T15:18:46.919Z</time></trkpt><trkpt lat="41.996335" lon="13.0212016"><ele>333.0</ele><time>2026-04-26T15:18:47.923Z</time></trkpt><trkpt lat="41.9965135" lon="13.0211731"><ele>333.6666666666667</ele><time>2026-04-26T15:18:48.923Z</time></trkpt><trkpt lat="41.9967039" lon="13.0211491"><ele>334.33333333333337</ele><time>2026-04-26T15:18:49.928Z</time></trkpt><trkpt lat="41.9969102" lon="13.021126"><ele>335.0</ele><time>2026-04-26T15:18:50.924Z</time></trkpt><trkpt lat="41.997129" lon="13.0211044"><ele>335.0</ele><time>2026-04-26T15:18:51.922Z</time></trkpt><trkpt lat="41.9973429" lon="13.0210905"><ele>335.0</ele><time>2026-04-26T15:18:52.924Z</time></trkpt><trkpt lat="41.9975408" lon="13.0210832"><ele>335.0</ele><time>2026-04-26T15:18:53.935Z</time></trkpt><trkpt lat="41.9977165" lon="13.0210787"><ele>335.0</ele><time>2026-04-26T15:18:54.94Z</time></trkpt><trkpt lat="41.997879" lon="13.0210834"><ele>335.0</ele><time>2026-04-26T15:18:55.926Z</time></trkpt><trkpt lat="41.9980354" lon="13.0211023"><ele>335.0</ele><time>2026-04-26T15:18:56.918Z</time></trkpt><trkpt lat="41.9981872" lon="13.0211335"><ele>335.6666666666667</ele><time>2026-04-26T15:18:57.923Z</time></trkpt><trkpt lat="41.9983425" lon="13.0212026"><ele>336.3333333333333</ele><time>2026-04-26T15:18:58.927Z</time></trkpt><trkpt lat="41.9985027" lon="13.0212894"><ele>337.0</ele><time>2026-04-26T15:18:59.935Z</time></trkpt><trkpt lat="41.998672" lon="13.0213969"><ele>337.0</ele><time>2026-04-26T15:19:00.925Z</time></trkpt><trkpt lat="41.9988513" lon="13.0215154"><ele>337.0</ele><time>2026-04-26T15:19:01.923Z</time></trkpt><trkpt lat="41.9990344" lon="13.0216473"><ele>337.0</ele><time>2026-04-26T15:19:02.921Z</time></trkpt><trkpt lat="41.9992229" lon="13.0217817"><ele>335.3333333333333</ele><time>2026-04-26T15:19:03.923Z</time></trkpt><trkpt lat="41.999415" lon="13.0219167"><ele>333.6666666666667</ele><time>2026-04-26T15:19:04.933Z</time></trkpt><trkpt lat="41.9996018" lon="13.0220448"><ele>332.0</ele><time>2026-04-26T15:19:05.915Z</time></trkpt><trkpt lat="41.9997901" lon="13.0221627"><ele>332.0</ele><time>2026-04-26T15:19:06.92Z</time></trkpt><trkpt lat="41.999989" lon="13.0222727"><ele>332.0</ele><time>2026-04-26T15:19:07.929Z</time></trkpt><trkpt lat="42.0002003" lon="13.0223764"><ele>332.0</ele><time>2026-04-26T15:19:08.928Z</time></trkpt><trkpt lat="42.0004219" lon="13.0224722"><ele>330.5</ele><time>2026-04-26T15:19:09.932Z</time></trkpt><trkpt lat="42.0006518" lon="13.02256"><ele>329.0</ele><time>2026-04-26T15:19:10.928Z</time></trkpt><trkpt lat="42.0008873" lon="13.0226366"><ele>329.0</ele><time>2026-04-26T15:19:11.926Z</time></trkpt><trkpt lat="42.0011262" lon="13.0227049"><ele>329.0</ele><time>2026-04-26T15:19:12.93Z</time></trkpt><trkpt lat="42.0013688" lon="13.0227682"><ele>329.0</ele><time>2026-04-26T15:19:13.929Z</time></trkpt><trkpt lat="42.0016148" lon="13.0228373"><ele>329.0</ele><time>2026-04-26T15:19:14.918Z</time></trkpt><trkpt lat="42.0018607" lon="13.0229214"><ele>330.0</ele><time>2026-04-26T15:19:15.92Z</time></trkpt><trkpt lat="42.0021035" lon="13.0230317"><ele>331.0</ele><time>2026-04-26T15:19:16.918Z</time></trkpt><trkpt lat="42.0023423" lon="13.0231669"><ele>332.5</ele><time>2026-04-26T15:19:17.924Z</time></trkpt><trkpt lat="42.0025797" lon="13.023316"><ele>334.0</ele><time>2026-04-26T15:19:18.926Z</time></trkpt><trkpt lat="42.0028206" lon="13.0234681"><ele>334.0</ele><time>2026-04-26T15:19:19.924Z</time></trkpt><trkpt lat="42.0030606" lon="13.0236166"><ele>334.0</ele><time>2026-04-26T15:19:20.93Z</time></trkpt><trkpt lat="42.0032948" lon="13.0237604"><ele>332.0</ele><time>2026-04-26T15:19:21.939Z</time></trkpt><trkpt lat="42.0035185" lon="13.0238923"><ele>330.0</ele><time>2026-04-26T15:19:22.926Z</time></trkpt><trkpt lat="42.003731" lon="13.0240061"><ele>330.0</ele><time>2026-04-26T15:19:23.927Z</time></trkpt><trkpt lat="42.0039192" lon="13.0240536"><ele>330.0</ele><time>2026-04-26T15:19:24.928Z</time></trkpt><trkpt lat="42.0041015" lon="13.0240691"><ele>330.0</ele><time>2026-04-26T15:19:25.933Z</time></trkpt><trkpt lat="42.0042702" lon="13.0240375"><ele>329.3333333333333</ele><time>2026-04-26T15:19:26.918Z</time></trkpt><trkpt lat="42.0044452" lon="13.0239576"><ele>328.66666666666663</ele><time>2026-04-26T15:19:27.918Z</time></trkpt><trkpt lat="42.0046466" lon="13.0238644"><ele>328.0</ele><time>2026-04-26T15:19:28.928Z</time></trkpt><trkpt lat="42.0048621" lon="13.023773"><ele>328.0</ele><time>2026-04-26T15:19:29.924Z</time></trkpt><trkpt lat="42.0050699" lon="13.023715"><ele>328.0</ele><time>2026-04-26T15:19:30.918Z</time></trkpt><trkpt lat="42.0052745" lon="13.0236979"><ele>328.0</ele><time>2026-04-26T15:19:31.935Z</time></trkpt><trkpt lat="42.0054644" lon="13.0237175"><ele>328.0</ele><time>2026-04-26T15:19:32.922Z</time></trkpt><trkpt lat="42.0056452" lon="13.0237886"><ele>328.0</ele><time>2026-04-26T15:19:33.924Z</time></trkpt><trkpt lat="42.0058135" lon="13.0239103"><ele>328.0</ele><time>2026-04-26T15:19:34.922Z</time></trkpt><trkpt lat="42.0059803" lon="13.0240438"><ele>332.66666666666663</ele><time>2026-04-26T15:19:35.927Z</time></trkpt><trkpt lat="42.006163" lon="13.0241491"><ele>337.3333333333333</ele><time>2026-04-26T15:19:36.927Z</time></trkpt><trkpt lat="42.0063562" lon="13.0242249"><ele>342.0</ele><time>2026-04-26T15:19:37.931Z</time></trkpt><trkpt lat="42.0065564" lon="13.0242814"><ele>338.0</ele><time>2026-04-26T15:19:38.927Z</time></trkpt><trkpt lat="42.006752" lon="13.0243506"><ele>334.0</ele><time>2026-04-26T15:19:39.928Z</time></trkpt><trkpt lat="42.0069409" lon="13.0244395"><ele>330.0</ele><time>2026-04-26T15:19:40.93Z</time></trkpt><trkpt lat="42.0071143" lon="13.0245693"><ele>330.0</ele><time>2026-04-26T15:19:41.918Z</time></trkpt><trkpt lat="42.0072753" lon="13.0247369"><ele>330.0</ele><time>2026-04-26T15:19:42.925Z</time></trkpt><trkpt lat="42.0074303" lon="13.0249298"><ele>330.0</ele><time>2026-04-26T15:19:43.928Z</time></trkpt><trkpt lat="42.0075836" lon="13.0251239"><ele>329.6666666666667</ele><time>2026-04-26T15:19:44.935Z</time></trkpt><trkpt lat="42.0077393" lon="13.0253207"><ele>329.33333333333337</ele><time>2026-04-26T15:19:45.932Z</time></trkpt><trkpt lat="42.0078996" lon="13.0255169"><ele>329.0</ele><time>2026-04-26T15:19:46.933Z</time></trkpt><trkpt lat="42.008055" lon="13.0257066"><ele>328.0</ele><time>2026-04-26T15:19:47.919Z</time></trkpt><trkpt lat="42.0081978" lon="13.0258918"><ele>327.0</ele><time>2026-04-26T15:19:48.93Z</time></trkpt><trkpt lat="42.0083297" lon="13.0260651"><ele>326.0</ele><time>2026-04-26T15:19:49.922Z</time></trkpt><trkpt lat="42.0084562" lon="13.0262227"><ele>326.0</ele><time>2026-04-26T15:19:50.931Z</time></trkpt><trkpt lat="42.008576" lon="13.0263673"><ele>326.0</ele><time>2026-04-26T15:19:51.938Z</time></trkpt><trkpt lat="42.0086966" lon="13.0264936"><ele>326.0</ele><time>2026-04-26T15:19:52.919Z</time></trkpt><trkpt lat="42.0088282" lon="13.0266017"><ele>326.0</ele><time>2026-04-26T15:19:53.956Z</time></trkpt><trkpt lat="42.0089707" lon="13.0266896"><ele>326.0</ele><time>2026-04-26T15:19:54.945Z</time></trkpt><trkpt lat="42.0091263" lon="13.0267643"><ele>326.0</ele><time>2026-04-26T15:19:55.929Z</time></trkpt><trkpt lat="42.0092914" lon="13.0268195"><ele>326.0</ele><time>2026-04-26T15:19:56.928Z</time></trkpt><trkpt lat="42.0094605" lon="13.0268498"><ele>326.0</ele><time>2026-04-26T15:19:57.936Z</time></trkpt><trkpt lat="42.0096289" lon="13.0268538"><ele>326.0</ele><time>2026-04-26T15:19:58.926Z</time></trkpt><trkpt lat="42.009798" lon="13.0268295"><ele>326.0</ele><time>2026-04-26T15:19:59.927Z</time></trkpt><trkpt lat="42.009964" lon="13.0267808"><ele>326.0</ele><time>2026-04-26T15:20:00.937Z</time></trkpt><trkpt lat="42.0101255" lon="13.0267105"><ele>326.0</ele><time>2026-04-26T15:20:01.927Z</time></trkpt><trkpt lat="42.0102811" lon="13.0266161"><ele>328.0</ele><time>2026-04-26T15:20:02.932Z</time></trkpt><trkpt lat="42.0104241" lon="13.0265016"><ele>330.0</ele><time>2026-04-26T15:20:03.933Z</time></trkpt><trkpt lat="42.0105607" lon="13.0263527"><ele>332.0</ele><time>2026-04-26T15:20:04.918Z</time></trkpt><trkpt lat="42.010704" lon="13.0261671"><ele>331.0</ele><time>2026-04-26T15:20:05.934Z</time></trkpt><trkpt lat="42.0108651" lon="13.0259652"><ele>330.0</ele><time>2026-04-26T15:20:06.932Z</time></trkpt><trkpt lat="42.0110392" lon="13.0257504"><ele>328.0</ele><time>2026-04-26T15:20:07.933Z</time></trkpt><trkpt lat="42.0112192" lon="13.0255251"><ele>326.0</ele><time>2026-04-26T15:20:08.92Z</time></trkpt><trkpt lat="42.0114057" lon="13.0252954"><ele>326.0</ele><time>2026-04-26T15:20:09.935Z</time></trkpt><trkpt lat="42.0115989" lon="13.0250585"><ele>326.0</ele><time>2026-04-26T15:20:10.931Z</time></trkpt><trkpt lat="42.0117985" lon="13.024818"><ele>324.5</ele><time>2026-04-26T15:20:11.933Z</time></trkpt><trkpt lat="42.0120041" lon="13.0245706"><ele>323.0</ele><time>2026-04-26T15:20:12.929Z</time></trkpt><trkpt lat="42.0122148" lon="13.0243181"><ele>322.5</ele><time>2026-04-26T15:20:13.922Z</time></trkpt><trkpt lat="42.0124302" lon="13.0240628"><ele>322.0</ele><time>2026-04-26T15:20:14.946Z</time></trkpt><trkpt lat="42.0126471" lon="13.0238038"><ele>322.0</ele><time>2026-04-26T15:20:15.938Z</time></trkpt><trkpt lat="42.0128621" lon="13.0235455"><ele>322.0</ele><time>2026-04-26T15:20:16.932Z</time></trkpt><trkpt lat="42.0130751" lon="13.0232876"><ele>322.0</ele><time>2026-04-26T15:20:17.931Z</time></trkpt><trkpt lat="42.0132849" lon="13.023033"><ele>322.0</ele><time>2026-04-26T15:20:18.925Z</time></trkpt><trkpt lat="42.0134928" lon="13.022784"><ele>324.0</ele><time>2026-04-26T15:20:19.929Z</time></trkpt><trkpt lat="42.0136971" lon="13.0225403"><ele>326.0</ele><time>2026-04-26T15:20:20.921Z</time></trkpt><trkpt lat="42.013898" lon="13.0223015"><ele>326.0</ele><time>2026-04-26T15:20:21.927Z</time></trkpt><trkpt lat="42.0140958" lon="13.0220662"><ele>326.0</ele><time>2026-04-26T15:20:22.922Z</time></trkpt><trkpt lat="42.0142893" lon="13.0218352"><ele>326.5</ele><time>2026-04-26T15:20:23.94Z</time></trkpt><trkpt lat="42.0144793" lon="13.0216072"><ele>327.0</ele><time>2026-04-26T15:20:24.931Z</time></trkpt><trkpt lat="42.0146661" lon="13.0213822"><ele>327.0</ele><time>2026-04-26T15:20:25.942Z</time></trkpt><trkpt lat="42.0148531" lon="13.0211591"><ele>327.0</ele><time>2026-04-26T15:20:26.937Z</time></trkpt><trkpt lat="42.015036" lon="13.0209377"><ele>328.5</ele><time>2026-04-26T15:20:27.932Z</time></trkpt><trkpt lat="42.0152118" lon="13.0207144"><ele>330.0</ele><time>2026-04-26T15:20:28.938Z</time></trkpt><trkpt lat="42.0153776" lon="13.0204881"><ele>330.0</ele><time>2026-04-26T15:20:29.921Z</time></trkpt><trkpt lat="42.0155313" lon="13.0202561"><ele>330.0</ele><time>2026-04-26T15:20:30.939Z</time></trkpt><trkpt lat="42.015672" lon="13.0200183"><ele>330.0</ele><time>2026-04-26T15:20:31.932Z</time></trkpt><trkpt lat="42.0158028" lon="13.0197786"><ele>330.0</ele><time>2026-04-26T15:20:32.933Z</time></trkpt><trkpt lat="42.0159251" lon="13.0195381"><ele>330.0</ele><time>2026-04-26T15:20:33.927Z</time></trkpt><trkpt lat="42.0160374" lon="13.0192934"><ele>330.0</ele><time>2026-04-26T15:20:34.927Z</time></trkpt><trkpt lat="42.0161353" lon="13.0190385"><ele>330.0</ele><time>2026-04-26T15:20:35.933Z</time></trkpt><trkpt lat="42.0162169" lon="13.0187717"><ele>330.0</ele><time>2026-04-26T15:20:36.937Z</time></trkpt><trkpt lat="42.0162887" lon="13.0184935"><ele>329.0</ele><time>2026-04-26T15:20:37.943Z</time></trkpt><trkpt lat="42.0163586" lon="13.0182149"><ele>328.0</ele><time>2026-04-26T15:20:38.931Z</time></trkpt><trkpt lat="42.0164262" lon="13.0179406"><ele>327.0</ele><time>2026-04-26T15:20:39.93Z</time></trkpt><trkpt lat="42.0164908" lon="13.0176757"><ele>326.6666666666667</ele><time>2026-04-26T15:20:40.935Z</time></trkpt><trkpt lat="42.0165546" lon="13.0174257"><ele>326.33333333333337</ele><time>2026-04-26T15:20:41.943Z</time></trkpt><trkpt lat="42.0166186" lon="13.0171859"><ele>326.0</ele><time>2026-04-26T15:20:42.934Z</time></trkpt><trkpt lat="42.0166826" lon="13.0169515"><ele>326.6666666666667</ele><time>2026-04-26T15:20:43.932Z</time></trkpt><trkpt lat="42.016746" lon="13.0167221"><ele>327.3333333333333</ele><time>2026-04-26T15:20:44.936Z</time></trkpt><trkpt lat="42.016809" lon="13.0164983"><ele>328.0</ele><time>2026-04-26T15:20:45.937Z</time></trkpt><trkpt lat="42.0168726" lon="13.0162803"><ele>328.3333333333333</ele><time>2026-04-26T15:20:46.94Z</time></trkpt><trkpt lat="42.0169364" lon="13.0160668"><ele>328.6666666666667</ele><time>2026-04-26T15:20:47.928Z</time></trkpt><trkpt lat="42.017002" lon="13.0158556"><ele>329.0</ele><time>2026-04-26T15:20:48.927Z</time></trkpt><trkpt lat="42.0170731" lon="13.0156477"><ele>328.33333333333337</ele><time>2026-04-26T15:20:49.942Z</time></trkpt><trkpt lat="42.0171546" lon="13.0154466"><ele>327.6666666666667</ele><time>2026-04-26T15:20:50.94Z</time></trkpt><trkpt lat="42.0172491" lon="13.0152567"><ele>327.0</ele><time>2026-04-26T15:20:51.932Z</time></trkpt><trkpt lat="42.017356" lon="13.0150769"><ele>326.6666666666667</ele><time>2026-04-26T15:20:52.925Z</time></trkpt><trkpt lat="42.0174766" lon="13.0148963"><ele>326.33333333333337</ele><time>2026-04-26T15:20:53.931Z</time></trkpt><trkpt lat="42.0176039" lon="13.0147197"><ele>326.0</ele><time>2026-04-26T15:20:54.912Z</time></trkpt><trkpt lat="42.0177379" lon="13.0145368"><ele>326.0</ele><time>2026-04-26T15:20:55.939Z</time></trkpt><trkpt lat="42.0178702" lon="13.0143628"><ele>326.0</ele><time>2026-04-26T15:20:56.911Z</time></trkpt><trkpt lat="42.018005" lon="13.0141861"><ele>326.0</ele><time>2026-04-26T15:20:57.936Z</time></trkpt><trkpt lat="42.0181414" lon="13.0140123"><ele>325.6666666666667</ele><time>2026-04-26T15:20:58.936Z</time></trkpt><trkpt lat="42.018284" lon="13.0138408"><ele>325.3333333333333</ele><time>2026-04-26T15:20:59.935Z</time></trkpt><trkpt lat="42.0184281" lon="13.0136712"><ele>325.0</ele><time>2026-04-26T15:21:00.934Z</time></trkpt><trkpt lat="42.0185735" lon="13.0135006"><ele>324.3333333333333</ele><time>2026-04-26T15:21:01.934Z</time></trkpt><trkpt lat="42.0187203" lon="13.0133261"><ele>323.6666666666667</ele><time>2026-04-26T15:21:02.93Z</time></trkpt><trkpt lat="42.018867" lon="13.0131466"><ele>323.0</ele><time>2026-04-26T15:21:03.937Z</time></trkpt><trkpt lat="42.019015" lon="13.0129653"><ele>322.6666666666667</ele><time>2026-04-26T15:21:04.935Z</time></trkpt><trkpt lat="42.0191652" lon="13.0127806"><ele>322.3333333333333</ele><time>2026-04-26T15:21:05.937Z</time></trkpt><trkpt lat="42.0193193" lon="13.0125996"><ele>322.0</ele><time>2026-04-26T15:21:06.941Z</time></trkpt><trkpt lat="42.0194773" lon="13.0124163"><ele>322.0</ele><time>2026-04-26T15:21:07.937Z</time></trkpt><trkpt lat="42.0196393" lon="13.0122375"><ele>322.0</ele><time>2026-04-26T15:21:08.929Z</time></trkpt><trkpt lat="42.0198012" lon="13.0120523"><ele>322.0</ele><time>2026-04-26T15:21:09.938Z</time></trkpt><trkpt lat="42.0199656" lon="13.0118637"><ele>322.0</ele><time>2026-04-26T15:21:10.936Z</time></trkpt><trkpt lat="42.0201269" lon="13.0116772"><ele>322.0</ele><time>2026-04-26T15:21:11.925Z</time></trkpt><trkpt lat="42.0202877" lon="13.0114838"><ele>322.0</ele><time>2026-04-26T15:21:12.941Z</time></trkpt><trkpt lat="42.020447" lon="13.0112929"><ele>322.0</ele><time>2026-04-26T15:21:13.94Z</time></trkpt><trkpt lat="42.0206079" lon="13.0111036"><ele>322.0</ele><time>2026-04-26T15:21:14.934Z</time></trkpt><trkpt lat="42.0207648" lon="13.0109172"><ele>322.0</ele><time>2026-04-26T15:21:15.938Z</time></trkpt><trkpt lat="42.0209152" lon="13.0107345"><ele>322.66666666666663</ele><time>2026-04-26T15:21:16.925Z</time></trkpt><trkpt lat="42.0210528" lon="13.0105501"><ele>323.3333333333333</ele><time>2026-04-26T15:21:17.936Z</time></trkpt><trkpt lat="42.0211748" lon="13.0103604"><ele>324.0</ele><time>2026-04-26T15:21:18.928Z</time></trkpt><trkpt lat="42.0212783" lon="13.0101678"><ele>323.75</ele><time>2026-04-26T15:21:19.93Z</time></trkpt><trkpt lat="42.0213603" lon="13.0099701"><ele>323.5</ele><time>2026-04-26T15:21:20.94Z</time></trkpt><trkpt lat="42.0214208" lon="13.0097798"><ele>323.25</ele><time>2026-04-26T15:21:21.933Z</time></trkpt><trkpt lat="42.0214631" lon="13.0096209"><ele>323.0</ele><time>2026-04-26T15:21:22.934Z</time></trkpt><trkpt lat="42.0214938" lon="13.0095032"><ele>323.0</ele><time>2026-04-26T15:21:23.946Z</time></trkpt><trkpt lat="42.0215125" lon="13.0094174"><ele>323.0</ele><time>2026-04-26T15:21:24.928Z</time></trkpt><trkpt lat="42.0215286" lon="13.0093225"><ele>323.0</ele><time>2026-04-26T15:21:25.908Z</time></trkpt><trkpt lat="42.0215523" lon="13.0092053"><ele>323.0</ele><time>2026-04-26T15:21:26.923Z</time></trkpt><trkpt lat="42.0215464" lon="13.0090305"><ele>323.0</ele><time>2026-04-26T15:21:27.915Z</time></trkpt><trkpt lat="42.0215322" lon="13.0088346"><ele>323.0</ele><time>2026-04-26T15:21:28.933Z</time></trkpt><trkpt lat="42.0215048" lon="13.0086288"><ele>323.0</ele><time>2026-04-26T15:21:29.919Z</time></trkpt><trkpt lat="42.0214748" lon="13.0084285"><ele>323.0</ele><time>2026-04-26T15:21:30.926Z</time></trkpt><trkpt lat="42.0214078" lon="13.0082205"><ele>323.33333333333337</ele><time>2026-04-26T15:21:31.928Z</time></trkpt><trkpt lat="42.0213342" lon="13.0080115"><ele>323.6666666666667</ele><time>2026-04-26T15:21:32.921Z</time></trkpt><trkpt lat="42.0212438" lon="13.0078167"><ele>324.0</ele><time>2026-04-26T15:21:33.926Z</time></trkpt><trkpt lat="42.02115" lon="13.0076261"><ele>326.0</ele><time>2026-04-26T15:21:34.923Z</time></trkpt><trkpt lat="42.0210473" lon="13.0074311"><ele>328.0</ele><time>2026-04-26T15:21:35.93Z</time></trkpt><trkpt lat="42.0209488" lon="13.0072326"><ele>330.0</ele><time>2026-04-26T15:21:36.926Z</time></trkpt><trkpt lat="42.0208463" lon="13.0070303"><ele>328.6666666666667</ele><time>2026-04-26T15:21:37.93Z</time></trkpt><trkpt lat="42.0207408" lon="13.0068269"><ele>327.33333333333337</ele><time>2026-04-26T15:21:38.929Z</time></trkpt><trkpt lat="42.0206354" lon="13.0066198"><ele>326.0</ele><time>2026-04-26T15:21:39.929Z</time></trkpt><trkpt lat="42.0205287" lon="13.0064138"><ele>326.0</ele><time>2026-04-26T15:21:40.937Z</time></trkpt><trkpt lat="42.020418" lon="13.0062037"><ele>326.0</ele><time>2026-04-26T15:21:41.928Z</time></trkpt><trkpt lat="42.0203083" lon="13.0059884"><ele>326.0</ele><time>2026-04-26T15:21:42.928Z</time></trkpt><trkpt lat="42.0202018" lon="13.0057724"><ele>326.0</ele><time>2026-04-26T15:21:43.931Z</time></trkpt><trkpt lat="42.0200947" lon="13.0055564"><ele>326.0</ele><time>2026-04-26T15:21:44.923Z</time></trkpt><trkpt lat="42.0199894" lon="13.0053434"><ele>326.0</ele><time>2026-04-26T15:21:45.945Z</time></trkpt><trkpt lat="42.0198853" lon="13.0051351"><ele>326.33333333333337</ele><time>2026-04-26T15:21:46.932Z</time></trkpt><trkpt lat="42.0197831" lon="13.0049314"><ele>326.6666666666667</ele><time>2026-04-26T15:21:47.926Z</time></trkpt><trkpt lat="42.0196794" lon="13.0047296"><ele>327.0</ele><time>2026-04-26T15:21:48.926Z</time></trkpt><trkpt lat="42.0195772" lon="13.0045284"><ele>327.0</ele><time>2026-04-26T15:21:49.933Z</time></trkpt><trkpt lat="42.0194744" lon="13.0043313"><ele>327.0</ele><time>2026-04-26T15:21:50.923Z</time></trkpt><trkpt lat="42.0193749" lon="13.0041395"><ele>327.0</ele><time>2026-04-26T15:21:51.93Z</time></trkpt><trkpt lat="42.0192823" lon="13.0039532"><ele>326.6666666666667</ele><time>2026-04-26T15:21:52.934Z</time></trkpt><trkpt lat="42.0191938" lon="13.0037703"><ele>326.33333333333337</ele><time>2026-04-26T15:21:53.929Z</time></trkpt><trkpt lat="42.0191083" lon="13.0035936"><ele>326.0</ele><time>2026-04-26T15:21:54.919Z</time></trkpt><trkpt lat="42.0190243" lon="13.0034251"><ele>326.25</ele><time>2026-04-26T15:21:55.923Z</time></trkpt><trkpt lat="42.0189442" lon="13.0032609"><ele>326.5</ele><time>2026-04-26T15:21:56.929Z</time></trkpt><trkpt lat="42.0188676" lon="13.0030937"><ele>326.75</ele><time>2026-04-26T15:21:57.925Z</time></trkpt><trkpt lat="42.0187987" lon="13.0029179"><ele>327.0</ele><time>2026-04-26T15:21:58.918Z</time></trkpt><trkpt lat="42.0187356" lon="13.0027231"><ele>327.0</ele><time>2026-04-26T15:21:59.915Z</time></trkpt><trkpt lat="42.018684" lon="13.0025142"><ele>327.0</ele><time>2026-04-26T15:22:00.927Z</time></trkpt><trkpt lat="42.0186432" lon="13.0022976"><ele>327.0</ele><time>2026-04-26T15:22:01.921Z</time></trkpt><trkpt lat="42.0186163" lon="13.0020747"><ele>327.0</ele><time>2026-04-26T15:22:02.933Z</time></trkpt><trkpt lat="42.0185999" lon="13.0018451"><ele>327.0</ele><time>2026-04-26T15:22:03.931Z</time></trkpt><trkpt lat="42.0185976" lon="13.0016119"><ele>327.0</ele><time>2026-04-26T15:22:04.928Z</time></trkpt><trkpt lat="42.0186127" lon="13.0013769"><ele>327.0</ele><time>2026-04-26T15:22:05.919Z</time></trkpt><trkpt lat="42.0186442" lon="13.001135"><ele>327.0</ele><time>2026-04-26T15:22:06.94Z</time></trkpt><trkpt lat="42.018688" lon="13.0008809"><ele>327.0</ele><time>2026-04-26T15:22:07.931Z</time></trkpt><trkpt lat="42.0187412" lon="13.0006054"><ele>327.5</ele><time>2026-04-26T15:22:08.922Z</time></trkpt><trkpt lat="42.0188047" lon="13.0003058"><ele>328.0</ele><time>2026-04-26T15:22:09.921Z</time></trkpt><trkpt lat="42.0188753" lon="13.0000064"><ele>328.0</ele><time>2026-04-26T15:22:10.921Z</time></trkpt><trkpt lat="42.0189484" lon="12.9997146"><ele>328.0</ele><time>2026-04-26T15:22:11.927Z</time></trkpt><trkpt lat="42.0190162" lon="12.9994337"><ele>328.0</ele><time>2026-04-26T15:22:12.936Z</time></trkpt><trkpt lat="42.0190777" lon="12.9991691"><ele>328.0</ele><time>2026-04-26T15:22:13.928Z</time></trkpt><trkpt lat="42.019135" lon="12.9989196"><ele>328.0</ele><time>2026-04-26T15:22:14.926Z</time></trkpt><trkpt lat="42.0191912" lon="12.9986796"><ele>328.0</ele><time>2026-04-26T15:22:15.919Z</time></trkpt><trkpt lat="42.0192432" lon="12.998447"><ele>329.0</ele><time>2026-04-26T15:22:16.925Z</time></trkpt><trkpt lat="42.0192928" lon="12.9982201"><ele>330.0</ele><time>2026-04-26T15:22:17.926Z</time></trkpt><trkpt lat="42.0193448" lon="12.9979991"><ele>331.0</ele><time>2026-04-26T15:22:18.931Z</time></trkpt><trkpt lat="42.0193983" lon="12.9977825"><ele>331.0</ele><time>2026-04-26T15:22:19.919Z</time></trkpt><trkpt lat="42.0194548" lon="12.9975667"><ele>331.0</ele><time>2026-04-26T15:22:20.921Z</time></trkpt><trkpt lat="42.0195164" lon="12.9973485"><ele>331.0</ele><time>2026-04-26T15:22:21.921Z</time></trkpt><trkpt lat="42.0195837" lon="12.9971205"><ele>330.3333333333333</ele><time>2026-04-26T15:22:22.921Z</time></trkpt><trkpt lat="42.0196589" lon="12.9968725"><ele>329.6666666666667</ele><time>2026-04-26T15:22:23.921Z</time></trkpt><trkpt lat="42.0197471" lon="12.9965927"><ele>329.0</ele><time>2026-04-26T15:22:24.924Z</time></trkpt><trkpt lat="42.0198518" lon="12.9963094"><ele>329.0</ele><time>2026-04-26T15:22:25.919Z</time></trkpt><trkpt lat="42.019951" lon="12.996046"><ele>329.0</ele><time>2026-04-26T15:22:26.926Z</time></trkpt><trkpt lat="42.0200629" lon="12.9958094"><ele>329.0</ele><time>2026-04-26T15:22:27.927Z</time></trkpt><trkpt lat="42.0201626" lon="12.9955829"><ele>329.0</ele><time>2026-04-26T15:22:28.923Z</time></trkpt><trkpt lat="42.0202501" lon="12.9953827"><ele>329.0</ele><time>2026-04-26T15:22:29.928Z</time></trkpt><trkpt lat="42.0203296" lon="12.9952083"><ele>329.0</ele><time>2026-04-26T15:22:30.916Z</time></trkpt><trkpt lat="42.020407" lon="12.995049"><ele>328.4</ele><time>2026-04-26T15:22:31.927Z</time></trkpt><trkpt lat="42.0204808" lon="12.9949117"><ele>327.79999999999995</ele><time>2026-04-26T15:22:32.91Z</time></trkpt><trkpt lat="42.020547" lon="12.9947831"><ele>327.20000000000005</ele><time>2026-04-26T15:22:33.91Z</time></trkpt><trkpt lat="42.0206035" lon="12.9946646"><ele>326.6</ele><time>2026-04-26T15:22:34.909Z</time></trkpt><trkpt lat="42.020657" lon="12.9945506"><ele>326.0</ele><time>2026-04-26T15:22:35.916Z</time></trkpt><trkpt lat="42.0207103" lon="12.9944395"><ele>326.0</ele><time>2026-04-26T15:22:36.912Z</time></trkpt><trkpt lat="42.0207636" lon="12.9943307"><ele>326.0</ele><time>2026-04-26T15:22:37.916Z</time></trkpt><trkpt lat="42.0208157" lon="12.9942299"><ele>326.0</ele><time>2026-04-26T15:22:38.914Z</time></trkpt><trkpt lat="42.020866" lon="12.9941346"><ele>326.0</ele><time>2026-04-26T15:22:39.93Z</time></trkpt><trkpt lat="42.0209155" lon="12.9940354"><ele>326.0</ele><time>2026-04-26T15:22:40.921Z</time></trkpt><trkpt lat="42.0209652" lon="12.9939324"><ele>327.0</ele><time>2026-04-26T15:22:41.919Z</time></trkpt><trkpt lat="42.0210168" lon="12.9938236"><ele>328.0</ele><time>2026-04-26T15:22:42.919Z</time></trkpt><trkpt lat="42.0210752" lon="12.9937071"><ele>329.0</ele><time>2026-04-26T15:22:43.919Z</time></trkpt><trkpt lat="42.0211384" lon="12.9935718"><ele>330.0</ele><time>2026-04-26T15:22:44.919Z</time></trkpt><trkpt lat="42.0212073" lon="12.9934183"><ele>328.0</ele><time>2026-04-26T15:22:45.927Z</time></trkpt><trkpt lat="42.0212848" lon="12.9932461"><ele>326.0</ele><time>2026-04-26T15:22:46.921Z</time></trkpt><trkpt lat="42.0213699" lon="12.9930569"><ele>324.0</ele><time>2026-04-26T15:22:47.928Z</time></trkpt><trkpt lat="42.0214592" lon="12.9928516"><ele>324.0</ele><time>2026-04-26T15:22:48.921Z</time></trkpt><trkpt lat="42.0215564" lon="12.9926333"><ele>324.0</ele><time>2026-04-26T15:22:49.918Z</time></trkpt><trkpt lat="42.0216627" lon="12.9924103"><ele>324.0</ele><time>2026-04-26T15:22:50.918Z</time></trkpt><trkpt lat="42.0217687" lon="12.9921907"><ele>324.3333333333333</ele><time>2026-04-26T15:22:51.919Z</time></trkpt><trkpt lat="42.0218697" lon="12.9919818"><ele>324.66666666666663</ele><time>2026-04-26T15:22:52.927Z</time></trkpt><trkpt lat="42.0219627" lon="12.9917874"><ele>325.0</ele><time>2026-04-26T15:22:53.928Z</time></trkpt><trkpt lat="42.022052" lon="12.991593"><ele>325.0</ele><time>2026-04-26T15:22:54.919Z</time></trkpt><trkpt lat="42.0221474" lon="12.991383"><ele>325.0</ele><time>2026-04-26T15:22:55.922Z</time></trkpt><trkpt lat="42.0222506" lon="12.9911642"><ele>325.0</ele><time>2026-04-26T15:22:56.914Z</time></trkpt><trkpt lat="42.0223627" lon="12.9909403"><ele>325.0</ele><time>2026-04-26T15:22:57.922Z</time></trkpt><trkpt lat="42.0224788" lon="12.9907146"><ele>325.0</ele><time>2026-04-26T15:22:58.919Z</time></trkpt><trkpt lat="42.022592" lon="12.9904914"><ele>325.0</ele><time>2026-04-26T15:22:59.919Z</time></trkpt><trkpt lat="42.0226962" lon="12.9902843"><ele>326.0</ele><time>2026-04-26T15:23:00.922Z</time></trkpt><trkpt lat="42.0227889" lon="12.9900962"><ele>327.0</ele><time>2026-04-26T15:23:01.919Z</time></trkpt><trkpt lat="42.0228822" lon="12.9899374"><ele>328.0</ele><time>2026-04-26T15:23:02.917Z</time></trkpt><trkpt lat="42.0229864" lon="12.9897991"><ele>328.0</ele><time>2026-04-26T15:23:03.92Z</time></trkpt><trkpt lat="42.0230849" lon="12.9896693"><ele>328.0</ele><time>2026-04-26T15:23:04.918Z</time></trkpt><trkpt lat="42.023187" lon="12.9895437"><ele>328.0</ele><time>2026-04-26T15:23:05.926Z</time></trkpt><trkpt lat="42.0232912" lon="12.989412"><ele>328.0</ele><time>2026-04-26T15:23:06.911Z</time></trkpt><trkpt lat="42.0234133" lon="12.9892704"><ele>328.3333333333333</ele><time>2026-04-26T15:23:07.911Z</time></trkpt><trkpt lat="42.0235463" lon="12.989122"><ele>328.6666666666667</ele><time>2026-04-26T15:23:08.922Z</time></trkpt><trkpt lat="42.0236801" lon="12.9889704"><ele>329.0</ele><time>2026-04-26T15:23:09.938Z</time></trkpt><trkpt lat="42.0238043" lon="12.9888242"><ele>329.0</ele><time>2026-04-26T15:23:10.917Z</time></trkpt><trkpt lat="42.0239279" lon="12.9886396"><ele>329.0</ele><time>2026-04-26T15:23:11.923Z</time></trkpt><trkpt lat="42.024039" lon="12.9884149"><ele>329.0</ele><time>2026-04-26T15:23:12.93Z</time></trkpt><trkpt lat="42.0241381" lon="12.9881677"><ele>328.6666666666667</ele><time>2026-04-26T15:23:13.929Z</time></trkpt><trkpt lat="42.0242118" lon="12.9879187"><ele>328.3333333333333</ele><time>2026-04-26T15:23:14.93Z</time></trkpt><trkpt lat="42.0242597" lon="12.9876715"><ele>328.0</ele><time>2026-04-26T15:23:15.925Z</time></trkpt><trkpt lat="42.0242857" lon="12.9874254"><ele>328.0</ele><time>2026-04-26T15:23:16.932Z</time></trkpt><trkpt lat="42.0243012" lon="12.9871904"><ele>328.0</ele><time>2026-04-26T15:23:17.931Z</time></trkpt><trkpt lat="42.0243177" lon="12.9869596"><ele>328.0</ele><time>2026-04-26T15:23:18.929Z</time></trkpt><trkpt lat="42.0243356" lon="12.9867352"><ele>327.3333333333333</ele><time>2026-04-26T15:23:19.922Z</time></trkpt><trkpt lat="42.0243481" lon="12.9865082"><ele>326.6666666666667</ele><time>2026-04-26T15:23:20.93Z</time></trkpt><trkpt lat="42.0243625" lon="12.9862911"><ele>326.0</ele><time>2026-04-26T15:23:21.927Z</time></trkpt><trkpt lat="42.0243789" lon="12.9860722"><ele>326.0</ele><time>2026-04-26T15:23:22.926Z</time></trkpt><trkpt lat="42.0244062" lon="12.9858523"><ele>326.0</ele><time>2026-04-26T15:23:23.925Z</time></trkpt><trkpt lat="42.0244346" lon="12.9856358"><ele>326.0</ele><time>2026-04-26T15:23:24.925Z</time></trkpt><trkpt lat="42.0244722" lon="12.9854074"><ele>326.6666666666667</ele><time>2026-04-26T15:23:25.927Z</time></trkpt><trkpt lat="42.024514" lon="12.9851629"><ele>327.3333333333333</ele><time>2026-04-26T15:23:26.931Z</time></trkpt><trkpt lat="42.0245724" lon="12.9849191"><ele>328.0</ele><time>2026-04-26T15:23:27.927Z</time></trkpt><trkpt lat="42.0246381" lon="12.9846806"><ele>326.66666666666663</ele><time>2026-04-26T15:23:28.925Z</time></trkpt><trkpt lat="42.0247122" lon="12.9844515"><ele>325.3333333333333</ele><time>2026-04-26T15:23:29.927Z</time></trkpt><trkpt lat="42.0247937" lon="12.9842308"><ele>324.0</ele><time>2026-04-26T15:23:30.928Z</time></trkpt><trkpt lat="42.0248811" lon="12.9840142"><ele>326.6666666666667</ele><time>2026-04-26T15:23:31.93Z</time></trkpt><trkpt lat="42.0249838" lon="12.9838027"><ele>329.33333333333337</ele><time>2026-04-26T15:23:32.926Z</time></trkpt><trkpt lat="42.0251013" lon="12.9835975"><ele>332.0</ele><time>2026-04-26T15:23:33.923Z</time></trkpt><trkpt lat="42.0252329" lon="12.9833907"><ele>329.33333333333337</ele><time>2026-04-26T15:23:34.925Z</time></trkpt><trkpt lat="42.0253724" lon="12.9831773"><ele>326.6666666666667</ele><time>2026-04-26T15:23:35.932Z</time></trkpt><trkpt lat="42.025522" lon="12.9829554"><ele>324.0</ele><time>2026-04-26T15:23:36.923Z</time></trkpt><trkpt lat="42.0256797" lon="12.9827147"><ele>323.5</ele><time>2026-04-26T15:23:37.929Z</time></trkpt><trkpt lat="42.0258523" lon="12.9824553"><ele>323.0</ele><time>2026-04-26T15:23:38.914Z</time></trkpt><trkpt lat="42.0260359" lon="12.9821807"><ele>323.0</ele><time>2026-04-26T15:23:39.927Z</time></trkpt><trkpt lat="42.0262457" lon="12.9818922"><ele>323.0</ele><time>2026-04-26T15:23:40.911Z</time></trkpt><trkpt lat="42.0264502" lon="12.981608"><ele>322.5</ele><time>2026-04-26T15:23:41.924Z</time></trkpt><trkpt lat="42.0266389" lon="12.9813376"><ele>322.0</ele><time>2026-04-26T15:23:42.926Z</time></trkpt><trkpt lat="42.0268063" lon="12.9810736"><ele>322.0</ele><time>2026-04-26T15:23:43.922Z</time></trkpt><trkpt lat="42.0269419" lon="12.9808162"><ele>322.0</ele><time>2026-04-26T15:23:44.922Z</time></trkpt><trkpt lat="42.0270477" lon="12.9805615"><ele>322.0</ele><time>2026-04-26T15:23:45.929Z</time></trkpt><trkpt lat="42.0271312" lon="12.9803067"><ele>322.0</ele><time>2026-04-26T15:23:46.918Z</time></trkpt><trkpt lat="42.0272111" lon="12.9800372"><ele>322.0</ele><time>2026-04-26T15:23:47.927Z</time></trkpt><trkpt lat="42.0272752" lon="12.9797313"><ele>321.0</ele><time>2026-04-26T15:23:48.931Z</time></trkpt><trkpt lat="42.0273221" lon="12.9794178"><ele>320.0</ele><time>2026-04-26T15:23:49.93Z</time></trkpt><trkpt lat="42.027365" lon="12.979079"><ele>320.0</ele><time>2026-04-26T15:23:50.927Z</time></trkpt><trkpt lat="42.0273954" lon="12.9787262"><ele>320.0</ele><time>2026-04-26T15:23:51.939Z</time></trkpt><trkpt lat="42.027426" lon="12.9783748"><ele>320.0</ele><time>2026-04-26T15:23:52.932Z</time></trkpt><trkpt lat="42.0274548" lon="12.9780287"><ele>320.0</ele><time>2026-04-26T15:23:53.93Z</time></trkpt><trkpt lat="42.0274859" lon="12.9777149"><ele>322.33333333333337</ele><time>2026-04-26T15:23:54.926Z</time></trkpt><trkpt lat="42.02751" lon="12.9774144"><ele>324.6666666666667</ele><time>2026-04-26T15:23:55.935Z</time></trkpt><trkpt lat="42.0275467" lon="12.977146"><ele>327.0</ele><time>2026-04-26T15:23:56.925Z</time></trkpt><trkpt lat="42.0275921" lon="12.9768926"><ele>326.0</ele><time>2026-04-26T15:23:57.923Z</time></trkpt><trkpt lat="42.027662" lon="12.9766661"><ele>325.0</ele><time>2026-04-26T15:23:58.922Z</time></trkpt><trkpt lat="42.0277591" lon="12.9764691"><ele>324.0</ele><time>2026-04-26T15:23:59.92Z</time></trkpt><trkpt lat="42.0278847" lon="12.9762994"><ele>324.0</ele><time>2026-04-26T15:24:00.932Z</time></trkpt><trkpt lat="42.0280387" lon="12.9761565"><ele>324.0</ele><time>2026-04-26T15:24:01.927Z</time></trkpt><trkpt lat="42.028218" lon="12.976045"><ele>324.0</ele><time>2026-04-26T15:24:02.921Z</time></trkpt><trkpt lat="42.0284167" lon="12.9759679"><ele>324.6666666666667</ele><time>2026-04-26T15:24:03.928Z</time></trkpt><trkpt lat="42.0286244" lon="12.9759004"><ele>325.33333333333337</ele><time>2026-04-26T15:24:04.925Z</time></trkpt><trkpt lat="42.0288355" lon="12.9758087"><ele>326.0</ele><time>2026-04-26T15:24:05.927Z</time></trkpt><trkpt lat="42.0290324" lon="12.9756715"><ele>333.5</ele><time>2026-04-26T15:24:06.931Z</time></trkpt><trkpt lat="42.0292109" lon="12.9754875"><ele>341.0</ele><time>2026-04-26T15:24:07.916Z</time></trkpt><trkpt lat="42.0293643" lon="12.975261"><ele>335.0</ele><time>2026-04-26T15:24:08.92Z</time></trkpt><trkpt lat="42.0294869" lon="12.9750075"><ele>329.0</ele><time>2026-04-26T15:24:09.927Z</time></trkpt><trkpt lat="42.0295975" lon="12.9747521"><ele>323.0</ele><time>2026-04-26T15:24:10.922Z</time></trkpt><trkpt lat="42.0297145" lon="12.9745139"><ele>323.0</ele><time>2026-04-26T15:24:11.923Z</time></trkpt><trkpt lat="42.0298529" lon="12.9743114"><ele>323.0</ele><time>2026-04-26T15:24:12.93Z</time></trkpt><trkpt lat="42.0299953" lon="12.9741146"><ele>323.0</ele><time>2026-04-26T15:24:13.935Z</time></trkpt><trkpt lat="42.0301859" lon="12.9739708"><ele>326.0</ele><time>2026-04-26T15:24:14.926Z</time></trkpt><trkpt lat="42.0303788" lon="12.973832"><ele>329.0</ele><time>2026-04-26T15:24:15.926Z</time></trkpt><trkpt lat="42.0305802" lon="12.9736656"><ele>329.0</ele><time>2026-04-26T15:24:16.927Z</time></trkpt><trkpt lat="42.0307771" lon="12.9734735"><ele>329.0</ele><time>2026-04-26T15:24:17.925Z</time></trkpt><trkpt lat="42.0309532" lon="12.9732524"><ele>326.5</ele><time>2026-04-26T15:24:18.917Z</time></trkpt><trkpt lat="42.031114" lon="12.9730219"><ele>324.0</ele><time>2026-04-26T15:24:19.927Z</time></trkpt><trkpt lat="42.0312615" lon="12.9727964"><ele>324.0</ele><time>2026-04-26T15:24:20.931Z</time></trkpt><trkpt lat="42.0314014" lon="12.972567"><ele>324.0</ele><time>2026-04-26T15:24:21.93Z</time></trkpt><trkpt lat="42.0315285" lon="12.9723371"><ele>324.0</ele><time>2026-04-26T15:24:22.919Z</time></trkpt><trkpt lat="42.0316337" lon="12.9721212"><ele>325.0</ele><time>2026-04-26T15:24:23.924Z</time></trkpt><trkpt lat="42.0317237" lon="12.9719125"><ele>326.0</ele><time>2026-04-26T15:24:24.932Z</time></trkpt><trkpt lat="42.0318049" lon="12.9717183"><ele>327.0</ele><time>2026-04-26T15:24:25.93Z</time></trkpt><trkpt lat="42.0318815" lon="12.9715345"><ele>325.0</ele><time>2026-04-26T15:24:26.928Z</time></trkpt><trkpt lat="42.0319568" lon="12.971354"><ele>323.0</ele><time>2026-04-26T15:24:27.927Z</time></trkpt><trkpt lat="42.0320347" lon="12.9711805"><ele>321.0</ele><time>2026-04-26T15:24:28.922Z</time></trkpt><trkpt lat="42.0321188" lon="12.9710095"><ele>321.0</ele><time>2026-04-26T15:24:29.919Z</time></trkpt><trkpt lat="42.0322385" lon="12.9708651"><ele>321.0</ele><time>2026-04-26T15:24:30.926Z</time></trkpt><trkpt lat="42.0323724" lon="12.9707554"><ele>321.0</ele><time>2026-04-26T15:24:31.93Z</time></trkpt><trkpt lat="42.0325235" lon="12.9706563"><ele>320.0</ele><time>2026-04-26T15:24:32.927Z</time></trkpt><trkpt lat="42.0326977" lon="12.970538"><ele>319.0</ele><time>2026-04-26T15:24:33.927Z</time></trkpt><trkpt lat="42.0328974" lon="12.9704078"><ele>318.0</ele><time>2026-04-26T15:24:34.938Z</time></trkpt><trkpt lat="42.0330897" lon="12.9702684"><ele>318.0</ele><time>2026-04-26T15:24:35.928Z</time></trkpt><trkpt lat="42.0332694" lon="12.9701296"><ele>318.0</ele><time>2026-04-26T15:24:36.926Z</time></trkpt><trkpt lat="42.0334334" lon="12.9699831"><ele>318.0</ele><time>2026-04-26T15:24:37.922Z</time></trkpt><trkpt lat="42.0335777" lon="12.9698234"><ele>318.6666666666667</ele><time>2026-04-26T15:24:38.924Z</time></trkpt><trkpt lat="42.0337184" lon="12.9696735"><ele>319.33333333333337</ele><time>2026-04-26T15:24:39.929Z</time></trkpt><trkpt lat="42.0338167" lon="12.9694938"><ele>320.0</ele><time>2026-04-26T15:24:40.923Z</time></trkpt><trkpt lat="42.033853" lon="12.969265"><ele>319.6666666666667</ele><time>2026-04-26T15:24:41.92Z</time></trkpt><trkpt lat="42.0338538" lon="12.9690271"><ele>319.3333333333333</ele><time>2026-04-26T15:24:42.922Z</time></trkpt><trkpt lat="42.0338116" lon="12.968767"><ele>319.0</ele><time>2026-04-26T15:24:43.928Z</time></trkpt><trkpt lat="42.0337556" lon="12.9684759"><ele>320.5</ele><time>2026-04-26T15:24:44.923Z</time></trkpt><trkpt lat="42.0336948" lon="12.9681698"><ele>322.0</ele><time>2026-04-26T15:24:45.929Z</time></trkpt><trkpt lat="42.0336263" lon="12.9678615"><ele>322.0</ele><time>2026-04-26T15:24:46.936Z</time></trkpt><trkpt lat="42.0335646" lon="12.9675696"><ele>322.0</ele><time>2026-04-26T15:24:47.927Z</time></trkpt><trkpt lat="42.0335138" lon="12.9672815"><ele>322.0</ele><time>2026-04-26T15:24:48.921Z</time></trkpt><trkpt lat="42.0334772" lon="12.9670021"><ele>322.3333333333333</ele><time>2026-04-26T15:24:49.91Z</time></trkpt><trkpt lat="42.0334701" lon="12.9667226"><ele>322.6666666666667</ele><time>2026-04-26T15:24:50.924Z</time></trkpt><trkpt lat="42.0334852" lon="12.9664486"><ele>323.0</ele><time>2026-04-26T15:24:51.919Z</time></trkpt><trkpt lat="42.0335147" lon="12.9661834"><ele>323.0</ele><time>2026-04-26T15:24:52.925Z</time></trkpt><trkpt lat="42.0335612" lon="12.9659215"><ele>323.0</ele><time>2026-04-26T15:24:53.928Z</time></trkpt><trkpt lat="42.0336305" lon="12.965652"><ele>323.0</ele><time>2026-04-26T15:24:54.924Z</time></trkpt><trkpt lat="42.0337191" lon="12.9653744"><ele>323.0</ele><time>2026-04-26T15:24:55.931Z</time></trkpt><trkpt lat="42.0338181" lon="12.9650876"><ele>323.0</ele><time>2026-04-26T15:24:56.933Z</time></trkpt><trkpt lat="42.0339155" lon="12.9647993"><ele>323.0</ele><time>2026-04-26T15:24:57.932Z</time></trkpt><trkpt lat="42.0340059" lon="12.9645132"><ele>323.0</ele><time>2026-04-26T15:24:58.933Z</time></trkpt><trkpt lat="42.0340883" lon="12.9642267"><ele>323.0</ele><time>2026-04-26T15:24:59.936Z</time></trkpt><trkpt lat="42.0341685" lon="12.9639379"><ele>323.0</ele><time>2026-04-26T15:25:00.94Z</time></trkpt><trkpt lat="42.0342465" lon="12.9636451"><ele>322.5</ele><time>2026-04-26T15:25:01.933Z</time></trkpt><trkpt lat="42.0343208" lon="12.9633539"><ele>322.0</ele><time>2026-04-26T15:25:02.933Z</time></trkpt><trkpt lat="42.0343882" lon="12.9630694"><ele>322.0</ele><time>2026-04-26T15:25:03.926Z</time></trkpt><trkpt lat="42.0344378" lon="12.9627864"><ele>322.0</ele><time>2026-04-26T15:25:04.926Z</time></trkpt><trkpt lat="42.0344623" lon="12.9625087"><ele>322.0</ele><time>2026-04-26T15:25:05.939Z</time></trkpt><trkpt lat="42.0344702" lon="12.9622374"><ele>321.66666666666663</ele><time>2026-04-26T15:25:06.927Z</time></trkpt><trkpt lat="42.0344755" lon="12.9619752"><ele>321.3333333333333</ele><time>2026-04-26T15:25:07.934Z</time></trkpt><trkpt lat="42.0344994" lon="12.9617197"><ele>321.0</ele><time>2026-04-26T15:25:08.921Z</time></trkpt><trkpt lat="42.034562" lon="12.9614806"><ele>321.0</ele><time>2026-04-26T15:25:09.921Z</time></trkpt><trkpt lat="42.0346531" lon="12.9612582"><ele>321.0</ele><time>2026-04-26T15:25:10.935Z</time></trkpt><trkpt lat="42.0347644" lon="12.9610321"><ele>321.0</ele><time>2026-04-26T15:25:11.932Z</time></trkpt><trkpt lat="42.0348868" lon="12.9608006"><ele>322.6666666666667</ele><time>2026-04-26T15:25:12.928Z</time></trkpt><trkpt lat="42.0350013" lon="12.9605625"><ele>324.33333333333337</ele><time>2026-04-26T15:25:13.927Z</time></trkpt><trkpt lat="42.0351123" lon="12.9603203"><ele>326.0</ele><time>2026-04-26T15:25:14.934Z</time></trkpt><trkpt lat="42.0352218" lon="12.9601065"><ele>324.33333333333337</ele><time>2026-04-26T15:25:15.927Z</time></trkpt><trkpt lat="42.035341" lon="12.9599268"><ele>322.6666666666667</ele><time>2026-04-26T15:25:16.934Z</time></trkpt><trkpt lat="42.0354811" lon="12.9597831"><ele>321.0</ele><time>2026-04-26T15:25:17.937Z</time></trkpt><trkpt lat="42.0356492" lon="12.959673"><ele>324.0</ele><time>2026-04-26T15:25:18.928Z</time></trkpt><trkpt lat="42.0358435" lon="12.9595747"><ele>327.0</ele><time>2026-04-26T15:25:19.91Z</time></trkpt><trkpt lat="42.0360602" lon="12.9594783"><ele>330.0</ele><time>2026-04-26T15:25:20.93Z</time></trkpt><trkpt lat="42.0362786" lon="12.9593921"><ele>330.0</ele><time>2026-04-26T15:25:21.924Z</time></trkpt><trkpt lat="42.0364919" lon="12.9593095"><ele>330.0</ele><time>2026-04-26T15:25:22.923Z</time></trkpt><trkpt lat="42.0366909" lon="12.9592188"><ele>330.0</ele><time>2026-04-26T15:25:23.92Z</time></trkpt><trkpt lat="42.0368755" lon="12.959105"><ele>326.6666666666667</ele><time>2026-04-26T15:25:24.924Z</time></trkpt><trkpt lat="42.0370441" lon="12.9589614"><ele>323.33333333333337</ele><time>2026-04-26T15:25:25.923Z</time></trkpt><trkpt lat="42.0372035" lon="12.9588064"><ele>320.0</ele><time>2026-04-26T15:25:26.931Z</time></trkpt><trkpt lat="42.0373561" lon="12.9586571"><ele>320.0</ele><time>2026-04-26T15:25:27.93Z</time></trkpt><trkpt lat="42.0374985" lon="12.958514"><ele>320.0</ele><time>2026-04-26T15:25:28.919Z</time></trkpt><trkpt lat="42.0376333" lon="12.9583766"><ele>320.0</ele><time>2026-04-26T15:25:29.931Z</time></trkpt><trkpt lat="42.0377565" lon="12.9582348"><ele>320.0</ele><time>2026-04-26T15:25:30.926Z</time></trkpt><trkpt lat="42.0378619" lon="12.9580842"><ele>320.0</ele><time>2026-04-26T15:25:31.928Z</time></trkpt><trkpt lat="42.0379442" lon="12.9579245"><ele>320.0</ele><time>2026-04-26T15:25:32.929Z</time></trkpt><trkpt lat="42.0380051" lon="12.9577567"><ele>320.0</ele><time>2026-04-26T15:25:33.927Z</time></trkpt><trkpt lat="42.0380428" lon="12.9575774"><ele>319.5</ele><time>2026-04-26T15:25:34.929Z</time></trkpt><trkpt lat="42.0380596" lon="12.9573891"><ele>319.0</ele><time>2026-04-26T15:25:35.929Z</time></trkpt><trkpt lat="42.0380523" lon="12.9571995"><ele>318.5</ele><time>2026-04-26T15:25:36.922Z</time></trkpt><trkpt lat="42.0380241" lon="12.9570117"><ele>318.0</ele><time>2026-04-26T15:25:37.933Z</time></trkpt><trkpt lat="42.0379797" lon="12.9568273"><ele>317.6666666666667</ele><time>2026-04-26T15:25:38.931Z</time></trkpt><trkpt lat="42.0379204" lon="12.9566389"><ele>317.33333333333337</ele><time>2026-04-26T15:25:39.931Z</time></trkpt><trkpt lat="42.0378504" lon="12.9564464"><ele>317.0</ele><time>2026-04-26T15:25:40.931Z</time></trkpt><trkpt lat="42.0377681" lon="12.9562398"><ele>317.0</ele><time>2026-04-26T15:25:41.932Z</time></trkpt><trkpt lat="42.0376853" lon="12.9560149"><ele>317.0</ele><time>2026-04-26T15:25:42.932Z</time></trkpt><trkpt lat="42.0375987" lon="12.9557703"><ele>317.0</ele><time>2026-04-26T15:25:43.94Z</time></trkpt><trkpt lat="42.037492" lon="12.9554921"><ele>317.0</ele><time>2026-04-26T15:25:44.929Z</time></trkpt><trkpt lat="42.0373662" lon="12.9551846"><ele>317.0</ele><time>2026-04-26T15:25:45.934Z</time></trkpt><trkpt lat="42.037232" lon="12.9548889"><ele>317.0</ele><time>2026-04-26T15:25:46.934Z</time></trkpt><trkpt lat="42.0370938" lon="12.9546088"><ele>317.0</ele><time>2026-04-26T15:25:47.921Z</time></trkpt><trkpt lat="42.0369552" lon="12.9543328"><ele>317.5</ele><time>2026-04-26T15:25:48.931Z</time></trkpt><trkpt lat="42.0368188" lon="12.9540558"><ele>318.0</ele><time>2026-04-26T15:25:49.925Z</time></trkpt><trkpt lat="42.0366848" lon="12.9537791"><ele>317.0</ele><time>2026-04-26T15:25:50.936Z</time></trkpt><trkpt lat="42.0365524" lon="12.9535043"><ele>316.0</ele><time>2026-04-26T15:25:51.924Z</time></trkpt><trkpt lat="42.0364198" lon="12.9532337"><ele>316.0</ele><time>2026-04-26T15:25:52.93Z</time></trkpt><trkpt lat="42.0362864" lon="12.9529669"><ele>316.0</ele><time>2026-04-26T15:25:53.939Z</time></trkpt><trkpt lat="42.036152" lon="12.9527049"><ele>315.0</ele><time>2026-04-26T15:25:54.932Z</time></trkpt><trkpt lat="42.0360177" lon="12.9524476"><ele>314.0</ele><time>2026-04-26T15:25:55.922Z</time></trkpt><trkpt lat="42.0358824" lon="12.952195"><ele>313.5</ele><time>2026-04-26T15:25:56.937Z</time></trkpt><trkpt lat="42.0357492" lon="12.9519458"><ele>313.0</ele><time>2026-04-26T15:25:57.936Z</time></trkpt><trkpt lat="42.0356188" lon="12.9516994"><ele>312.66666666666663</ele><time>2026-04-26T15:25:58.922Z</time></trkpt><trkpt lat="42.0354876" lon="12.9514582"><ele>312.3333333333333</ele><time>2026-04-26T15:25:59.943Z</time></trkpt><trkpt lat="42.0353548" lon="12.9512277"><ele>312.0</ele><time>2026-04-26T15:26:00.933Z</time></trkpt><trkpt lat="42.0352219" lon="12.9510137"><ele>312.0</ele><time>2026-04-26T15:26:01.941Z</time></trkpt><trkpt lat="42.0350973" lon="12.9508135"><ele>312.0</ele><time>2026-04-26T15:26:02.942Z</time></trkpt><trkpt lat="42.0349841" lon="12.9506241"><ele>312.0</ele><time>2026-04-26T15:26:03.928Z</time></trkpt><trkpt lat="42.0348783" lon="12.9504433"><ele>312.0</ele><time>2026-04-26T15:26:04.927Z</time></trkpt><trkpt lat="42.034789" lon="12.9502706"><ele>312.0</ele><time>2026-04-26T15:26:05.944Z</time></trkpt><trkpt lat="42.0347265" lon="12.9500904"><ele>312.0</ele><time>2026-04-26T15:26:06.931Z</time></trkpt><trkpt lat="42.0346702" lon="12.9499172"><ele>312.0</ele><time>2026-04-26T15:26:07.924Z</time></trkpt><trkpt lat="42.0346268" lon="12.9497477"><ele>312.75</ele><time>2026-04-26T15:26:08.93Z</time></trkpt><trkpt lat="42.0345885" lon="12.9495772"><ele>313.5</ele><time>2026-04-26T15:26:09.933Z</time></trkpt><trkpt lat="42.0345629" lon="12.9494136"><ele>314.25</ele><time>2026-04-26T15:26:10.934Z</time></trkpt><trkpt lat="42.0345345" lon="12.9492519"><ele>315.0</ele><time>2026-04-26T15:26:11.936Z</time></trkpt><trkpt lat="42.0345008" lon="12.9490898"><ele>315.0</ele><time>2026-04-26T15:26:12.943Z</time></trkpt><trkpt lat="42.0344669" lon="12.9489198"><ele>315.0</ele><time>2026-04-26T15:26:13.938Z</time></trkpt><trkpt lat="42.034437" lon="12.9487475"><ele>315.0</ele><time>2026-04-26T15:26:14.935Z</time></trkpt><trkpt lat="42.0344069" lon="12.9485859"><ele>315.0</ele><time>2026-04-26T15:26:15.932Z</time></trkpt><trkpt lat="42.034375" lon="12.9484285"><ele>315.75</ele><time>2026-04-26T15:26:16.934Z</time></trkpt><trkpt lat="42.0343369" lon="12.9482714"><ele>316.5</ele><time>2026-04-26T15:26:17.93Z</time></trkpt><trkpt lat="42.0342957" lon="12.9481119"><ele>317.25</ele><time>2026-04-26T15:26:18.923Z</time></trkpt><trkpt lat="42.0342416" lon="12.9479488"><ele>318.0</ele><time>2026-04-26T15:26:19.928Z</time></trkpt><trkpt lat="42.0341854" lon="12.9477821"><ele>316.0</ele><time>2026-04-26T15:26:20.933Z</time></trkpt><trkpt lat="42.0341361" lon="12.9476007"><ele>314.0</ele><time>2026-04-26T15:26:21.935Z</time></trkpt><trkpt lat="42.0340963" lon="12.9474171"><ele>312.0</ele><time>2026-04-26T15:26:22.923Z</time></trkpt><trkpt lat="42.0340725" lon="12.9472344"><ele>310.0</ele><time>2026-04-26T15:26:23.932Z</time></trkpt><trkpt lat="42.0340567" lon="12.9470564"><ele>310.0</ele><time>2026-04-26T15:26:24.931Z</time></trkpt><trkpt lat="42.0340341" lon="12.9468908"><ele>310.0</ele><time>2026-04-26T15:26:25.932Z</time></trkpt><trkpt lat="42.0339999" lon="12.9467385"><ele>310.0</ele><time>2026-04-26T15:26:26.928Z</time></trkpt><trkpt lat="42.0339503" lon="12.9465968"><ele>310.0</ele><time>2026-04-26T15:26:27.907Z</time></trkpt><trkpt lat="42.0338786" lon="12.9464598"><ele>310.5</ele><time>2026-04-26T15:26:28.915Z</time></trkpt><trkpt lat="42.0337938" lon="12.9463275"><ele>311.0</ele><time>2026-04-26T15:26:29.923Z</time></trkpt><trkpt lat="42.0336992" lon="12.9462016"><ele>311.5</ele><time>2026-04-26T15:26:30.933Z</time></trkpt><trkpt lat="42.0335938" lon="12.9460972"><ele>312.0</ele><time>2026-04-26T15:26:31.924Z</time></trkpt><trkpt lat="42.0334848" lon="12.9460158"><ele>312.0</ele><time>2026-04-26T15:26:32.923Z</time></trkpt><trkpt lat="42.0333765" lon="12.9459527"><ele>312.0</ele><time>2026-04-26T15:26:33.933Z</time></trkpt><trkpt lat="42.0332672" lon="12.9459064"><ele>312.0</ele><time>2026-04-26T15:26:34.926Z</time></trkpt><trkpt lat="42.0331582" lon="12.9458703"><ele>312.0</ele><time>2026-04-26T15:26:35.929Z</time></trkpt><trkpt lat="42.0330494" lon="12.9458386"><ele>312.5</ele><time>2026-04-26T15:26:36.932Z</time></trkpt><trkpt lat="42.0329407" lon="12.9458104"><ele>313.0</ele><time>2026-04-26T15:26:37.933Z</time></trkpt><trkpt lat="42.0328294" lon="12.9457853"><ele>313.5</ele><time>2026-04-26T15:26:38.932Z</time></trkpt><trkpt lat="42.0327164" lon="12.9457567"><ele>314.0</ele><time>2026-04-26T15:26:39.92Z</time></trkpt><trkpt lat="42.0326012" lon="12.945726"><ele>314.0</ele><time>2026-04-26T15:26:40.926Z</time></trkpt><trkpt lat="42.0324831" lon="12.9456933"><ele>314.0</ele><time>2026-04-26T15:26:41.939Z</time></trkpt><trkpt lat="42.0323649" lon="12.9456469"><ele>314.0</ele><time>2026-04-26T15:26:42.936Z</time></trkpt><trkpt lat="42.0322476" lon="12.9455797"><ele>314.0</ele><time>2026-04-26T15:26:43.92Z</time></trkpt><trkpt lat="42.0321335" lon="12.9454919"><ele>312.75</ele><time>2026-04-26T15:26:44.926Z</time></trkpt><trkpt lat="42.0320216" lon="12.9453908"><ele>311.5</ele><time>2026-04-26T15:26:45.93Z</time></trkpt><trkpt lat="42.0319129" lon="12.9452836"><ele>310.25</ele><time>2026-04-26T15:26:46.936Z</time></trkpt><trkpt lat="42.0318068" lon="12.9451769"><ele>309.0</ele><time>2026-04-26T15:26:47.928Z</time></trkpt><trkpt lat="42.0317002" lon="12.9450755"><ele>309.5</ele><time>2026-04-26T15:26:48.927Z</time></trkpt><trkpt lat="42.0315896" lon="12.9449819"><ele>310.0</ele><time>2026-04-26T15:26:49.93Z</time></trkpt><trkpt lat="42.0314727" lon="12.9449014"><ele>310.5</ele><time>2026-04-26T15:26:50.926Z</time></trkpt><trkpt lat="42.0313535" lon="12.9448361"><ele>311.0</ele><time>2026-04-26T15:26:51.93Z</time></trkpt><trkpt lat="42.0312328" lon="12.9447861"><ele>311.0</ele><time>2026-04-26T15:26:52.933Z</time></trkpt><trkpt lat="42.0311123" lon="12.9447434"><ele>311.0</ele><time>2026-04-26T15:26:53.933Z</time></trkpt><trkpt lat="42.0309948" lon="12.9447011"><ele>311.0</ele><time>2026-04-26T15:26:54.931Z</time></trkpt><trkpt lat="42.0308787" lon="12.9446598"><ele>311.0</ele><time>2026-04-26T15:26:55.932Z</time></trkpt><trkpt lat="42.0307587" lon="12.9446155"><ele>310.25</ele><time>2026-04-26T15:26:56.931Z</time></trkpt><trkpt lat="42.0306325" lon="12.9445678"><ele>309.5</ele><time>2026-04-26T15:26:57.931Z</time></trkpt><trkpt lat="42.0305034" lon="12.944518"><ele>308.75</ele><time>2026-04-26T15:26:58.931Z</time></trkpt><trkpt lat="42.0303746" lon="12.9444646"><ele>308.0</ele><time>2026-04-26T15:26:59.931Z</time></trkpt><trkpt lat="42.030245" lon="12.9444066"><ele>308.0</ele><time>2026-04-26T15:27:00.928Z</time></trkpt><trkpt lat="42.0301125" lon="12.944345"><ele>308.0</ele><time>2026-04-26T15:27:01.919Z</time></trkpt><trkpt lat="42.0299753" lon="12.9442764"><ele>308.0</ele><time>2026-04-26T15:27:02.917Z</time></trkpt><trkpt lat="42.0298259" lon="12.9442021"><ele>308.0</ele><time>2026-04-26T15:27:03.913Z</time></trkpt><trkpt lat="42.0296509" lon="12.944104"><ele>307.6666666666667</ele><time>2026-04-26T15:27:04.916Z</time></trkpt><trkpt lat="42.0294701" lon="12.9439869"><ele>307.3333333333333</ele><time>2026-04-26T15:27:05.92Z</time></trkpt><trkpt lat="42.0293028" lon="12.9438662"><ele>307.0</ele><time>2026-04-26T15:27:06.913Z</time></trkpt><trkpt lat="42.0291545" lon="12.9437491"><ele>306.75</ele><time>2026-04-26T15:27:07.931Z</time></trkpt><trkpt lat="42.0290246" lon="12.9436318"><ele>306.5</ele><time>2026-04-26T15:27:08.913Z</time></trkpt><trkpt lat="42.0289104" lon="12.9435095"><ele>306.25</ele><time>2026-04-26T15:27:09.924Z</time></trkpt><trkpt lat="42.0288094" lon="12.9433732"><ele>306.0</ele><time>2026-04-26T15:27:10.927Z</time></trkpt><trkpt lat="42.0287194" lon="12.943221"><ele>306.0</ele><time>2026-04-26T15:27:11.93Z</time></trkpt><trkpt lat="42.0286425" lon="12.9430559"><ele>306.0</ele><time>2026-04-26T15:27:12.927Z</time></trkpt><trkpt lat="42.0285804" lon="12.942878"><ele>306.0</ele><time>2026-04-26T15:27:13.926Z</time></trkpt><trkpt lat="42.0285305" lon="12.9426868"><ele>306.0</ele><time>2026-04-26T15:27:14.933Z</time></trkpt><trkpt lat="42.0284885" lon="12.9424767"><ele>304.6666666666667</ele><time>2026-04-26T15:27:15.924Z</time></trkpt><trkpt lat="42.0284509" lon="12.9422233"><ele>303.33333333333337</ele><time>2026-04-26T15:27:16.928Z</time></trkpt><trkpt lat="42.0284191" lon="12.9419103"><ele>302.0</ele><time>2026-04-26T15:27:17.926Z</time></trkpt><trkpt lat="42.0283926" lon="12.9415357"><ele>301.5</ele><time>2026-04-26T15:27:18.926Z</time></trkpt><trkpt lat="42.0283673" lon="12.9411123"><ele>301.0</ele><time>2026-04-26T15:27:19.924Z</time></trkpt><trkpt lat="42.0283408" lon="12.9406683"><ele>301.0</ele><time>2026-04-26T15:27:20.919Z</time></trkpt><trkpt lat="42.0283139" lon="12.9402265"><ele>301.0</ele><time>2026-04-26T15:27:21.928Z</time></trkpt><trkpt lat="42.0282859" lon="12.9398087"><ele>301.0</ele><time>2026-04-26T15:27:22.92Z</time></trkpt><trkpt lat="42.0282504" lon="12.9394114"><ele>301.0</ele><time>2026-04-26T15:27:23.928Z</time></trkpt><trkpt lat="42.0282005" lon="12.9390322"><ele>301.0</ele><time>2026-04-26T15:27:24.924Z</time></trkpt><trkpt lat="42.0281331" lon="12.9386668"><ele>301.0</ele><time>2026-04-26T15:27:25.92Z</time></trkpt><trkpt lat="42.028052" lon="12.9383146"><ele>302.0</ele><time>2026-04-26T15:27:26.925Z</time></trkpt><trkpt lat="42.0279569" lon="12.9379703"><ele>303.0</ele><time>2026-04-26T15:27:27.923Z</time></trkpt><trkpt lat="42.0278475" lon="12.9376294"><ele>303.5</ele><time>2026-04-26T15:27:28.92Z</time></trkpt><trkpt lat="42.0277238" lon="12.9372949"><ele>304.0</ele><time>2026-04-26T15:27:29.937Z</time></trkpt><trkpt lat="42.0275839" lon="12.9369675"><ele>304.0</ele><time>2026-04-26T15:27:30.928Z</time></trkpt><trkpt lat="42.027432" lon="12.9366512"><ele>304.0</ele><time>2026-04-26T15:27:31.921Z</time></trkpt><trkpt lat="42.0272573" lon="12.9363375"><ele>304.0</ele><time>2026-04-26T15:27:32.928Z</time></trkpt><trkpt lat="42.0270648" lon="12.9360037"><ele>304.0</ele><time>2026-04-26T15:27:33.929Z</time></trkpt><trkpt lat="42.0268741" lon="12.9356729"><ele>304.5</ele><time>2026-04-26T15:27:34.933Z</time></trkpt><trkpt lat="42.0266875" lon="12.9353445"><ele>305.0</ele><time>2026-04-26T15:27:35.923Z</time></trkpt><trkpt lat="42.0265056" lon="12.9350164"><ele>305.5</ele><time>2026-04-26T15:27:36.919Z</time></trkpt><trkpt lat="42.0263233" lon="12.9346889"><ele>306.0</ele><time>2026-04-26T15:27:37.916Z</time></trkpt><trkpt lat="42.0261386" lon="12.9343622"><ele>308.0</ele><time>2026-04-26T15:27:38.931Z</time></trkpt><trkpt lat="42.025957" lon="12.9340387"><ele>310.0</ele><time>2026-04-26T15:27:39.917Z</time></trkpt><trkpt lat="42.0257757" lon="12.9337187"><ele>306.5</ele><time>2026-04-26T15:27:40.926Z</time></trkpt><trkpt lat="42.0255932" lon="12.9333992"><ele>303.0</ele><time>2026-04-26T15:27:41.926Z</time></trkpt><trkpt lat="42.0254098" lon="12.9330762"><ele>303.0</ele><time>2026-04-26T15:27:42.924Z</time></trkpt><trkpt lat="42.025227" lon="12.9327529"><ele>303.0</ele><time>2026-04-26T15:27:43.926Z</time></trkpt><trkpt lat="42.0250469" lon="12.9324311"><ele>300.0</ele><time>2026-04-26T15:27:44.933Z</time></trkpt><trkpt lat="42.0248638" lon="12.9321097"><ele>297.0</ele><time>2026-04-26T15:27:45.935Z</time></trkpt><trkpt lat="42.0246773" lon="12.9317935"><ele>299.5</ele><time>2026-04-26T15:27:46.919Z</time></trkpt><trkpt lat="42.0244863" lon="12.9314843"><ele>302.0</ele><time>2026-04-26T15:27:47.927Z</time></trkpt><trkpt lat="42.0242898" lon="12.9311838"><ele>300.5</ele><time>2026-04-26T15:27:48.924Z</time></trkpt><trkpt lat="42.0240905" lon="12.9308967"><ele>299.0</ele><time>2026-04-26T15:27:49.928Z</time></trkpt><trkpt lat="42.0238886" lon="12.9306225"><ele>299.0</ele><time>2026-04-26T15:27:50.928Z</time></trkpt><trkpt lat="42.0236826" lon="12.93036"><ele>299.0</ele><time>2026-04-26T15:27:51.922Z</time></trkpt><trkpt lat="42.0234692" lon="12.9301087"><ele>297.5</ele><time>2026-04-26T15:27:52.935Z</time></trkpt><trkpt lat="42.0232486" lon="12.9298679"><ele>296.0</ele><time>2026-04-26T15:27:53.921Z</time></trkpt><trkpt lat="42.0230206" lon="12.9296338"><ele>296.0</ele><time>2026-04-26T15:27:54.93Z</time></trkpt><trkpt lat="42.0227859" lon="12.9294076"><ele>296.0</ele><time>2026-04-26T15:27:55.935Z</time></trkpt><trkpt lat="42.0225452" lon="12.9291968"><ele>297.0</ele><time>2026-04-26T15:27:56.932Z</time></trkpt><trkpt lat="42.0222965" lon="12.9289837"><ele>298.0</ele><time>2026-04-26T15:27:57.923Z</time></trkpt><trkpt lat="42.0220489" lon="12.9287903"><ele>298.0</ele><time>2026-04-26T15:27:58.923Z</time></trkpt><trkpt lat="42.0217954" lon="12.9285976"><ele>298.0</ele><time>2026-04-26T15:27:59.926Z</time></trkpt><trkpt lat="42.0215396" lon="12.9284049"><ele>300.0</ele><time>2026-04-26T15:28:00.929Z</time></trkpt><trkpt lat="42.021281" lon="12.9282113"><ele>302.0</ele><time>2026-04-26T15:28:01.924Z</time></trkpt><trkpt lat="42.021023" lon="12.9280164"><ele>300.0</ele><time>2026-04-26T15:28:02.922Z</time></trkpt><trkpt lat="42.0207701" lon="12.9278177"><ele>298.0</ele><time>2026-04-26T15:28:03.937Z</time></trkpt><trkpt lat="42.0205227" lon="12.9276188"><ele>298.5</ele><time>2026-04-26T15:28:04.924Z</time></trkpt><trkpt lat="42.0202797" lon="12.9274178"><ele>299.0</ele><time>2026-04-26T15:28:05.936Z</time></trkpt><trkpt lat="42.0200396" lon="12.9272199"><ele>296.5</ele><time>2026-04-26T15:28:06.94Z</time></trkpt><trkpt lat="42.0198023" lon="12.9270248"><ele>294.0</ele><time>2026-04-26T15:28:07.918Z</time></trkpt><trkpt lat="42.0195677" lon="12.9268333"><ele>295.0</ele><time>2026-04-26T15:28:08.911Z</time></trkpt><trkpt lat="42.0193405" lon="12.9266463"><ele>296.0</ele><time>2026-04-26T15:28:09.932Z</time></trkpt><trkpt lat="42.0191241" lon="12.9264643"><ele>296.0</ele><time>2026-04-26T15:28:10.922Z</time></trkpt><trkpt lat="42.0189204" lon="12.9262917"><ele>296.0</ele><time>2026-04-26T15:28:11.906Z</time></trkpt><trkpt lat="42.0187333" lon="12.9261188"><ele>296.0</ele><time>2026-04-26T15:28:12.938Z</time></trkpt><trkpt lat="42.0185625" lon="12.9259387"><ele>296.0</ele><time>2026-04-26T15:28:13.925Z</time></trkpt><trkpt lat="42.0184195" lon="12.925768"><ele>296.0</ele><time>2026-04-26T15:28:14.92Z</time></trkpt><trkpt lat="42.0182848" lon="12.9255967"><ele>297.0</ele><time>2026-04-26T15:28:15.929Z</time></trkpt><trkpt lat="42.0181723" lon="12.9254369"><ele>298.0</ele><time>2026-04-26T15:28:16.93Z</time></trkpt><trkpt lat="42.0180699" lon="12.9252874"><ele>299.0</ele><time>2026-04-26T15:28:17.932Z</time></trkpt><trkpt lat="42.0179794" lon="12.9251386"><ele>299.75</ele><time>2026-04-26T15:28:18.928Z</time></trkpt><trkpt lat="42.0179017" lon="12.9249907"><ele>300.5</ele><time>2026-04-26T15:28:19.929Z</time></trkpt><trkpt lat="42.0178403" lon="12.9248439"><ele>301.25</ele><time>2026-04-26T15:28:20.928Z</time></trkpt><trkpt lat="42.0177927" lon="12.9247059"><ele>302.0</ele><time>2026-04-26T15:28:21.933Z</time></trkpt><trkpt lat="42.0177514" lon="12.9245653"><ele>302.0</ele><time>2026-04-26T15:28:22.93Z</time></trkpt><trkpt lat="42.0177063" lon="12.9244054"><ele>302.0</ele><time>2026-04-26T15:28:23.92Z</time></trkpt><trkpt lat="42.0176563" lon="12.9242286"><ele>302.0</ele><time>2026-04-26T15:28:24.927Z</time></trkpt><trkpt lat="42.0176058" lon="12.9240414"><ele>302.0</ele><time>2026-04-26T15:28:25.933Z</time></trkpt><trkpt lat="42.0175575" lon="12.9238534"><ele>301.75</ele><time>2026-04-26T15:28:26.929Z</time></trkpt><trkpt lat="42.0175099" lon="12.923667"><ele>301.5</ele><time>2026-04-26T15:28:27.919Z</time></trkpt><trkpt lat="42.0174662" lon="12.923495"><ele>301.25</ele><time>2026-04-26T15:28:28.936Z</time></trkpt><trkpt lat="42.017426" lon="12.9233362"><ele>301.0</ele><time>2026-04-26T15:28:29.929Z</time></trkpt><trkpt lat="42.0173865" lon="12.9231809"><ele>301.0</ele><time>2026-04-26T15:28:30.923Z</time></trkpt><trkpt lat="42.0173435" lon="12.9230149"><ele>301.0</ele><time>2026-04-26T15:28:31.925Z</time></trkpt><trkpt lat="42.0172889" lon="12.9228123"><ele>301.0</ele><time>2026-04-26T15:28:32.922Z</time></trkpt><trkpt lat="42.0172223" lon="12.9225696"><ele>301.66666666666663</ele><time>2026-04-26T15:28:33.93Z</time></trkpt><trkpt lat="42.0171463" lon="12.9223009"><ele>302.3333333333333</ele><time>2026-04-26T15:28:34.924Z</time></trkpt><trkpt lat="42.0170668" lon="12.9220135"><ele>303.0</ele><time>2026-04-26T15:28:35.927Z</time></trkpt><trkpt lat="42.0169923" lon="12.9217213"><ele>304.0</ele><time>2026-04-26T15:28:36.915Z</time></trkpt><trkpt lat="42.0169242" lon="12.9214452"><ele>305.0</ele><time>2026-04-26T15:28:37.922Z</time></trkpt><trkpt lat="42.0168611" lon="12.9211939"><ele>306.0</ele><time>2026-04-26T15:28:38.925Z</time></trkpt><trkpt lat="42.0168029" lon="12.9209671"><ele>306.5</ele><time>2026-04-26T15:28:39.927Z</time></trkpt><trkpt lat="42.0167515" lon="12.9207635"><ele>307.0</ele><time>2026-04-26T15:28:40.928Z</time></trkpt><trkpt lat="42.0167081" lon="12.9205904"><ele>307.5</ele><time>2026-04-26T15:28:41.926Z</time></trkpt><trkpt lat="42.0166687" lon="12.9204422"><ele>308.0</ele><time>2026-04-26T15:28:42.92Z</time></trkpt><trkpt lat="42.0166319" lon="12.9202997"><ele>306.75</ele><time>2026-04-26T15:28:43.92Z</time></trkpt><trkpt lat="42.0165942" lon="12.9201567"><ele>305.5</ele><time>2026-04-26T15:28:44.934Z</time></trkpt><trkpt lat="42.0165587" lon="12.9200114"><ele>304.25</ele><time>2026-04-26T15:28:45.917Z</time></trkpt><trkpt lat="42.0165224" lon="12.9198649"><ele>303.0</ele><time>2026-04-26T15:28:46.921Z</time></trkpt><trkpt lat="42.016483" lon="12.9197181"><ele>303.0</ele><time>2026-04-26T15:28:47.921Z</time></trkpt><trkpt lat="42.0164426" lon="12.9195698"><ele>303.0</ele><time>2026-04-26T15:28:48.93Z</time></trkpt><trkpt lat="42.0164034" lon="12.9194196"><ele>303.0</ele><time>2026-04-26T15:28:49.942Z</time></trkpt><trkpt lat="42.0163653" lon="12.9192701"><ele>303.0</ele><time>2026-04-26T15:28:50.934Z</time></trkpt><trkpt lat="42.0163291" lon="12.9191322"><ele>303.8</ele><time>2026-04-26T15:28:51.925Z</time></trkpt><trkpt lat="42.0162961" lon="12.919003"><ele>304.6</ele><time>2026-04-26T15:28:52.921Z</time></trkpt><trkpt lat="42.0162651" lon="12.9188788"><ele>305.4</ele><time>2026-04-26T15:28:53.935Z</time></trkpt><trkpt lat="42.0162328" lon="12.9187608"><ele>306.2</ele><time>2026-04-26T15:28:54.933Z</time></trkpt><trkpt lat="42.0162013" lon="12.9186479"><ele>307.0</ele><time>2026-04-26T15:28:55.934Z</time></trkpt><trkpt lat="42.0161727" lon="12.9185387"><ele>307.0</ele><time>2026-04-26T15:28:56.937Z</time></trkpt><trkpt lat="42.0161454" lon="12.9184308"><ele>307.0</ele><time>2026-04-26T15:28:57.938Z</time></trkpt><trkpt lat="42.0161168" lon="12.9183183"><ele>307.0</ele><time>2026-04-26T15:28:58.936Z</time></trkpt><trkpt lat="42.0160837" lon="12.9182016"><ele>307.0</ele><time>2026-04-26T15:28:59.936Z</time></trkpt><trkpt lat="42.0160498" lon="12.9180806"><ele>307.0</ele><time>2026-04-26T15:29:00.931Z</time></trkpt><trkpt lat="42.0160177" lon="12.9179556"><ele>307.8333333333333</ele><time>2026-04-26T15:29:01.93Z</time></trkpt><trkpt lat="42.0159876" lon="12.9178327"><ele>308.66666666666663</ele><time>2026-04-26T15:29:02.932Z</time></trkpt><trkpt lat="42.0159617" lon="12.9177193"><ele>309.5</ele><time>2026-04-26T15:29:03.929Z</time></trkpt><trkpt lat="42.0159412" lon="12.9176136"><ele>310.3333333333333</ele><time>2026-04-26T15:29:04.923Z</time></trkpt><trkpt lat="42.0159273" lon="12.9175118"><ele>311.1666666666667</ele><time>2026-04-26T15:29:05.919Z</time></trkpt><trkpt lat="42.0159216" lon="12.9174117"><ele>312.0</ele><time>2026-04-26T15:29:06.93Z</time></trkpt><trkpt lat="42.0159224" lon="12.9173165"><ele>312.6666666666667</ele><time>2026-04-26T15:29:07.936Z</time></trkpt><trkpt lat="42.0159532" lon="12.917166"><ele>313.3333333333333</ele><time>2026-04-26T15:29:09.923Z</time></trkpt><trkpt lat="42.0160121" lon="12.9170724"><ele>314.0</ele><time>2026-04-26T15:29:11.921Z</time></trkpt><trkpt lat="42.0160774" lon="12.9170203"><ele>314.66666666666663</ele><time>2026-04-26T15:29:13.929Z</time></trkpt><trkpt lat="42.0161445" lon="12.9169928"><ele>315.3333333333333</ele><time>2026-04-26T15:29:15.926Z</time></trkpt><trkpt lat="42.0162225" lon="12.9169985"><ele>316.0</ele><time>2026-04-26T15:29:17.919Z</time></trkpt><trkpt lat="42.0163052" lon="12.9170412"><ele>316.0</ele><time>2026-04-26T15:29:19.908Z</time></trkpt><trkpt lat="42.0163955" lon="12.9171322"><ele>316.0</ele><time>2026-04-26T15:29:21.929Z</time></trkpt><trkpt lat="42.0164483" lon="12.9171824"><ele>316.0</ele><time>2026-04-26T15:29:22.918Z</time></trkpt><trkpt lat="42.0165036" lon="12.9172328"><ele>316.0</ele><time>2026-04-26T15:29:23.937Z</time></trkpt><trkpt lat="42.0165649" lon="12.9172841"><ele>316.0</ele><time>2026-04-26T15:29:24.93Z</time></trkpt><trkpt lat="42.0166303" lon="12.9173311"><ele>316.0</ele><time>2026-04-26T15:29:25.925Z</time></trkpt><trkpt lat="42.0166994" lon="12.9173689"><ele>317.0</ele><time>2026-04-26T15:29:26.931Z</time></trkpt><trkpt lat="42.0167677" lon="12.9173943"><ele>318.0</ele><time>2026-04-26T15:29:27.93Z</time></trkpt><trkpt lat="42.0168705" lon="12.9174222"><ele>319.0</ele><time>2026-04-26T15:29:29.924Z</time></trkpt><trkpt lat="42.0169464" lon="12.9174393"><ele>320.0</ele><time>2026-04-26T15:29:31.916Z</time></trkpt><trkpt lat="42.0170538" lon="12.9174573"><ele>321.0</ele><time>2026-04-26T15:29:33.921Z</time></trkpt><trkpt lat="42.0171271" lon="12.9174553"><ele>322.0</ele><time>2026-04-26T15:29:34.931Z</time></trkpt><trkpt lat="42.0172122" lon="12.9174424"><ele>322.0</ele><time>2026-04-26T15:29:35.928Z</time></trkpt><trkpt lat="42.0173142" lon="12.9174266"><ele>322.0</ele><time>2026-04-26T15:29:36.928Z</time></trkpt><trkpt lat="42.0174308" lon="12.9174141"><ele>322.0</ele><time>2026-04-26T15:29:37.931Z</time></trkpt><trkpt lat="42.0175542" lon="12.9174133"><ele>322.0</ele><time>2026-04-26T15:29:38.929Z</time></trkpt><trkpt lat="42.0176833" lon="12.9174254"><ele>322.25</ele><time>2026-04-26T15:29:39.93Z</time></trkpt><trkpt lat="42.0178103" lon="12.917445"><ele>322.5</ele><time>2026-04-26T15:29:40.926Z</time></trkpt><trkpt lat="42.0179344" lon="12.9174644"><ele>322.75</ele><time>2026-04-26T15:29:41.929Z</time></trkpt><trkpt lat="42.0180571" lon="12.9174759"><ele>323.0</ele><time>2026-04-26T15:29:42.922Z</time></trkpt><trkpt lat="42.0181797" lon="12.9174783"><ele>323.0</ele><time>2026-04-26T15:29:43.919Z</time></trkpt><trkpt lat="42.0183077" lon="12.9174666"><ele>323.0</ele><time>2026-04-26T15:29:44.931Z</time></trkpt><trkpt lat="42.0184419" lon="12.9174372"><ele>323.0</ele><time>2026-04-26T15:29:45.933Z</time></trkpt><trkpt lat="42.01858" lon="12.9173894"><ele>323.0</ele><time>2026-04-26T15:29:46.932Z</time></trkpt><trkpt lat="42.0187177" lon="12.9173272"><ele>323.5</ele><time>2026-04-26T15:29:47.911Z</time></trkpt><trkpt lat="42.0188548" lon="12.9172556"><ele>324.0</ele><time>2026-04-26T15:29:48.918Z</time></trkpt><trkpt lat="42.0189917" lon="12.9171797"><ele>324.5</ele><time>2026-04-26T15:29:49.927Z</time></trkpt><trkpt lat="42.0191278" lon="12.9171042"><ele>325.0</ele><time>2026-04-26T15:29:50.933Z</time></trkpt><trkpt lat="42.0192634" lon="12.9170303"><ele>325.25</ele><time>2026-04-26T15:29:51.929Z</time></trkpt><trkpt lat="42.0193969" lon="12.9169539"><ele>325.5</ele><time>2026-04-26T15:29:52.933Z</time></trkpt><trkpt lat="42.0195214" lon="12.9168735"><ele>325.75</ele><time>2026-04-26T15:29:53.927Z</time></trkpt><trkpt lat="42.0196354" lon="12.9167837"><ele>326.0</ele><time>2026-04-26T15:29:54.913Z</time></trkpt><trkpt lat="42.0197379" lon="12.9166755"><ele>326.0</ele><time>2026-04-26T15:29:55.911Z</time></trkpt><trkpt lat="42.0198245" lon="12.9165439"><ele>326.0</ele><time>2026-04-26T15:29:56.924Z</time></trkpt><trkpt lat="42.0198929" lon="12.9163904"><ele>326.0</ele><time>2026-04-26T15:29:57.923Z</time></trkpt><trkpt lat="42.01994" lon="12.9162232"><ele>326.0</ele><time>2026-04-26T15:29:58.928Z</time></trkpt><trkpt lat="42.019965" lon="12.916049"><ele>325.5</ele><time>2026-04-26T15:29:59.93Z</time></trkpt><trkpt lat="42.0199688" lon="12.9158715"><ele>325.0</ele><time>2026-04-26T15:30:00.924Z</time></trkpt><trkpt lat="42.0199518" lon="12.9156944"><ele>324.5</ele><time>2026-04-26T15:30:01.922Z</time></trkpt><trkpt lat="42.0199133" lon="12.9155223"><ele>324.0</ele><time>2026-04-26T15:30:02.924Z</time></trkpt><trkpt lat="42.0198501" lon="12.9153562"><ele>324.0</ele><time>2026-04-26T15:30:03.926Z</time></trkpt><trkpt lat="42.0197583" lon="12.9151999"><ele>324.0</ele><time>2026-04-26T15:30:04.935Z</time></trkpt><trkpt lat="42.019641" lon="12.9150689"><ele>324.0</ele><time>2026-04-26T15:30:05.913Z</time></trkpt><trkpt lat="42.0195074" lon="12.9149678"><ele>324.3333333333333</ele><time>2026-04-26T15:30:06.92Z</time></trkpt><trkpt lat="42.0193645" lon="12.9148849"><ele>324.66666666666663</ele><time>2026-04-26T15:30:07.925Z</time></trkpt><trkpt lat="42.0192194" lon="12.9148045"><ele>325.0</ele><time>2026-04-26T15:30:08.927Z</time></trkpt><trkpt lat="42.0190733" lon="12.914717"><ele>327.3333333333333</ele><time>2026-04-26T15:30:09.924Z</time></trkpt><trkpt lat="42.0189285" lon="12.9146187"><ele>329.6666666666667</ele><time>2026-04-26T15:30:10.936Z</time></trkpt><trkpt lat="42.0187861" lon="12.9145073"><ele>332.0</ele><time>2026-04-26T15:30:11.936Z</time></trkpt><trkpt lat="42.0186498" lon="12.9143795"><ele>331.6666666666667</ele><time>2026-04-26T15:30:12.913Z</time></trkpt><trkpt lat="42.0185217" lon="12.9142338"><ele>331.3333333333333</ele><time>2026-04-26T15:30:13.923Z</time></trkpt><trkpt lat="42.0184012" lon="12.9140745"><ele>331.0</ele><time>2026-04-26T15:30:14.931Z</time></trkpt><trkpt lat="42.018292" lon="12.9139018"><ele>331.0</ele><time>2026-04-26T15:30:15.931Z</time></trkpt><trkpt lat="42.0181969" lon="12.9137135"><ele>331.0</ele><time>2026-04-26T15:30:16.923Z</time></trkpt><trkpt lat="42.0181112" lon="12.9135098"><ele>331.0</ele><time>2026-04-26T15:30:17.926Z</time></trkpt><trkpt lat="42.0180287" lon="12.9132914"><ele>331.0</ele><time>2026-04-26T15:30:18.911Z</time></trkpt><trkpt lat="42.0179513" lon="12.9130672"><ele>331.0</ele><time>2026-04-26T15:30:19.92Z</time></trkpt><trkpt lat="42.0178757" lon="12.912842"><ele>331.0</ele><time>2026-04-26T15:30:20.933Z</time></trkpt><trkpt lat="42.0177985" lon="12.9126155"><ele>328.66666666666663</ele><time>2026-04-26T15:30:21.934Z</time></trkpt><trkpt lat="42.0177179" lon="12.9123874"><ele>326.3333333333333</ele><time>2026-04-26T15:30:22.928Z</time></trkpt><trkpt lat="42.0176376" lon="12.9121537"><ele>324.0</ele><time>2026-04-26T15:30:23.93Z</time></trkpt><trkpt lat="42.0175602" lon="12.9119239"><ele>323.0</ele><time>2026-04-26T15:30:24.921Z</time></trkpt><trkpt lat="42.0174886" lon="12.9116981"><ele>322.0</ele><time>2026-04-26T15:30:25.932Z</time></trkpt><trkpt lat="42.0174202" lon="12.9114793"><ele>321.0</ele><time>2026-04-26T15:30:26.923Z</time></trkpt><trkpt lat="42.0173513" lon="12.9112653"><ele>324.3333333333333</ele><time>2026-04-26T15:30:27.925Z</time></trkpt><trkpt lat="42.0172796" lon="12.9110462"><ele>327.66666666666663</ele><time>2026-04-26T15:30:28.921Z</time></trkpt><trkpt lat="42.0172023" lon="12.910819"><ele>331.0</ele><time>2026-04-26T15:30:29.933Z</time></trkpt><trkpt lat="42.0171157" lon="12.9105703"><ele>331.0</ele><time>2026-04-26T15:30:30.929Z</time></trkpt><trkpt lat="42.0170278" lon="12.910314"><ele>331.0</ele><time>2026-04-26T15:30:31.927Z</time></trkpt><trkpt lat="42.0169377" lon="12.9100571"><ele>331.0</ele><time>2026-04-26T15:30:32.929Z</time></trkpt><trkpt lat="42.0168458" lon="12.9098029"><ele>330.3333333333333</ele><time>2026-04-26T15:30:33.926Z</time></trkpt><trkpt lat="42.0167477" lon="12.9095482"><ele>329.6666666666667</ele><time>2026-04-26T15:30:34.925Z</time></trkpt><trkpt lat="42.0166424" lon="12.9092926"><ele>329.0</ele><time>2026-04-26T15:30:35.929Z</time></trkpt><trkpt lat="42.0165307" lon="12.9090398"><ele>326.6666666666667</ele><time>2026-04-26T15:30:36.941Z</time></trkpt><trkpt lat="42.0164218" lon="12.9088016"><ele>324.3333333333333</ele><time>2026-04-26T15:30:37.929Z</time></trkpt><trkpt lat="42.0163106" lon="12.9085493"><ele>322.0</ele><time>2026-04-26T15:30:38.923Z</time></trkpt><trkpt lat="42.0161887" lon="12.9082807"><ele>323.0</ele><time>2026-04-26T15:30:39.916Z</time></trkpt><trkpt lat="42.0160606" lon="12.9080545"><ele>324.0</ele><time>2026-04-26T15:30:40.923Z</time></trkpt><trkpt lat="42.0159207" lon="12.9078061"><ele>325.0</ele><time>2026-04-26T15:30:41.928Z</time></trkpt><trkpt lat="42.0157733" lon="12.9075574"><ele>325.0</ele><time>2026-04-26T15:30:42.931Z</time></trkpt><trkpt lat="42.015649" lon="12.9073113"><ele>325.0</ele><time>2026-04-26T15:30:43.918Z</time></trkpt><trkpt lat="42.015521" lon="12.9070694"><ele>325.0</ele><time>2026-04-26T15:30:44.928Z</time></trkpt><trkpt lat="42.0153865" lon="12.9068183"><ele>327.0</ele><time>2026-04-26T15:30:45.924Z</time></trkpt><trkpt lat="42.0152442" lon="12.9065633"><ele>329.0</ele><time>2026-04-26T15:30:46.925Z</time></trkpt><trkpt lat="42.0150967" lon="12.9062903"><ele>358.0</ele><time>2026-04-26T15:30:47.92Z</time></trkpt><trkpt lat="42.0149477" lon="12.9060178"><ele>387.0</ele><time>2026-04-26T15:30:48.924Z</time></trkpt><trkpt lat="42.0148006" lon="12.905749"><ele>391.0</ele><time>2026-04-26T15:30:49.926Z</time></trkpt><trkpt lat="42.0146571" lon="12.9054835"><ele>395.0</ele><time>2026-04-26T15:30:50.914Z</time></trkpt><trkpt lat="42.0132367" lon="12.8991806"><ele>368.0</ele><time>2026-04-26T15:31:09.863Z</time></trkpt><trkpt lat="42.0131576" lon="12.8987268"><ele>341.0</ele><time>2026-04-26T15:31:10.915Z</time></trkpt><trkpt lat="42.0131202" lon="12.8982509"><ele>341.0</ele><time>2026-04-26T15:31:11.917Z</time></trkpt><trkpt lat="42.0130718" lon="12.8978401"><ele>341.0</ele><time>2026-04-26T15:31:12.933Z</time></trkpt><trkpt lat="42.0129781" lon="12.8974356"><ele>340.5</ele><time>2026-04-26T15:31:13.926Z</time></trkpt><trkpt lat="42.0128608" lon="12.8970186"><ele>340.0</ele><time>2026-04-26T15:31:14.912Z</time></trkpt><trkpt lat="42.0127163" lon="12.8966077"><ele>343.5</ele><time>2026-04-26T15:31:15.923Z</time></trkpt><trkpt lat="42.0125666" lon="12.8961625"><ele>347.0</ele><time>2026-04-26T15:31:16.924Z</time></trkpt><trkpt lat="42.012412" lon="12.8957401"><ele>347.0</ele><time>2026-04-26T15:31:17.931Z</time></trkpt><trkpt lat="42.0122592" lon="12.8953473"><ele>347.0</ele><time>2026-04-26T15:31:18.928Z</time></trkpt><trkpt lat="42.0121257" lon="12.894975"><ele>340.5</ele><time>2026-04-26T15:31:19.92Z</time></trkpt><trkpt lat="42.0119935" lon="12.8946099"><ele>334.0</ele><time>2026-04-26T15:31:20.923Z</time></trkpt><trkpt lat="42.0118544" lon="12.8942527"><ele>340.0</ele><time>2026-04-26T15:31:21.922Z</time></trkpt><trkpt lat="42.0117089" lon="12.8939052"><ele>346.0</ele><time>2026-04-26T15:31:22.928Z</time></trkpt><trkpt lat="42.0115587" lon="12.893565"><ele>339.5</ele><time>2026-04-26T15:31:23.931Z</time></trkpt><trkpt lat="42.0113981" lon="12.893234"><ele>333.0</ele><time>2026-04-26T15:31:24.933Z</time></trkpt><trkpt lat="42.0112326" lon="12.8929121"><ele>333.0</ele><time>2026-04-26T15:31:25.923Z</time></trkpt><trkpt lat="42.0110596" lon="12.8925975"><ele>333.0</ele><time>2026-04-26T15:31:26.926Z</time></trkpt><trkpt lat="42.0108836" lon="12.8922899"><ele>335.0</ele><time>2026-04-26T15:31:27.929Z</time></trkpt><trkpt lat="42.0107012" lon="12.8919905"><ele>337.0</ele><time>2026-04-26T15:31:28.923Z</time></trkpt><trkpt lat="42.0105072" lon="12.8917069"><ele>328.0</ele><time>2026-04-26T15:31:29.932Z</time></trkpt><trkpt lat="42.0103049" lon="12.8914261"><ele>319.0</ele><time>2026-04-26T15:31:30.943Z</time></trkpt><trkpt lat="42.0100915" lon="12.8911528"><ele>323.5</ele><time>2026-04-26T15:31:31.922Z</time></trkpt><trkpt lat="42.0098713" lon="12.8908853"><ele>328.0</ele><time>2026-04-26T15:31:32.914Z</time></trkpt><trkpt lat="42.0096453" lon="12.8906211"><ele>328.0</ele><time>2026-04-26T15:31:33.931Z</time></trkpt><trkpt lat="42.0094137" lon="12.890365"><ele>328.0</ele><time>2026-04-26T15:31:34.919Z</time></trkpt><trkpt lat="42.0091748" lon="12.8901237"><ele>332.5</ele><time>2026-04-26T15:31:35.923Z</time></trkpt><trkpt lat="42.0089336" lon="12.8898965"><ele>337.0</ele><time>2026-04-26T15:31:36.925Z</time></trkpt><trkpt lat="42.0086888" lon="12.8896774"><ele>337.0</ele><time>2026-04-26T15:31:37.926Z</time></trkpt><trkpt lat="42.0084415" lon="12.8894618"><ele>337.0</ele><time>2026-04-26T15:31:38.927Z</time></trkpt><trkpt lat="42.0081944" lon="12.8892538"><ele>331.0</ele><time>2026-04-26T15:31:39.928Z</time></trkpt><trkpt lat="42.0079497" lon="12.889053"><ele>325.0</ele><time>2026-04-26T15:31:40.932Z</time></trkpt><trkpt lat="42.007702" lon="12.8888568"><ele>324.0</ele><time>2026-04-26T15:31:41.923Z</time></trkpt><trkpt lat="42.0074527" lon="12.8886643"><ele>323.0</ele><time>2026-04-26T15:31:42.922Z</time></trkpt><trkpt lat="42.007208" lon="12.8884666"><ele>313.0</ele><time>2026-04-26T15:31:43.923Z</time></trkpt><trkpt lat="42.0069629" lon="12.8882724"><ele>303.0</ele><time>2026-04-26T15:31:44.931Z</time></trkpt><trkpt lat="42.0067091" lon="12.8880719"><ele>311.5</ele><time>2026-04-26T15:31:45.929Z</time></trkpt><trkpt lat="42.0064655" lon="12.8878816"><ele>320.0</ele><time>2026-04-26T15:31:46.927Z</time></trkpt><trkpt lat="42.0062209" lon="12.8876854"><ele>318.0</ele><time>2026-04-26T15:31:47.925Z</time></trkpt><trkpt lat="42.0059622" lon="12.8874768"><ele>316.0</ele><time>2026-04-26T15:31:48.939Z</time></trkpt><trkpt lat="42.0057229" lon="12.8872709"><ele>314.5</ele><time>2026-04-26T15:31:49.93Z</time></trkpt><trkpt lat="42.0054666" lon="12.8870553"><ele>313.0</ele><time>2026-04-26T15:31:50.939Z</time></trkpt><trkpt lat="42.0051923" lon="12.8868236"><ele>313.5</ele><time>2026-04-26T15:31:51.944Z</time></trkpt><trkpt lat="42.0048952" lon="12.8866109"><ele>314.0</ele><time>2026-04-26T15:31:52.934Z</time></trkpt><trkpt lat="42.004607" lon="12.8863784"><ele>314.0</ele><time>2026-04-26T15:31:53.942Z</time></trkpt><trkpt lat="42.0043188" lon="12.8861616"><ele>314.0</ele><time>2026-04-26T15:31:54.935Z</time></trkpt><trkpt lat="42.0040487" lon="12.88594"><ele>323.5</ele><time>2026-04-26T15:31:55.937Z</time></trkpt><trkpt lat="42.0037758" lon="12.8857238"><ele>333.0</ele><time>2026-04-26T15:31:56.935Z</time></trkpt><trkpt lat="42.0035142" lon="12.8855171"><ele>337.5</ele><time>2026-04-26T15:31:57.928Z</time></trkpt><trkpt lat="42.0032788" lon="12.8853202"><ele>342.0</ele><time>2026-04-26T15:31:58.936Z</time></trkpt><trkpt lat="42.0030087" lon="12.8851098"><ele>344.5</ele><time>2026-04-26T15:31:59.938Z</time></trkpt><trkpt lat="42.0027502" lon="12.8849011"><ele>347.0</ele><time>2026-04-26T15:32:00.939Z</time></trkpt><trkpt lat="42.0024945" lon="12.8847088"><ele>347.0</ele><time>2026-04-26T15:32:01.937Z</time></trkpt><trkpt lat="42.0022441" lon="12.884515"><ele>347.0</ele><time>2026-04-26T15:32:02.919Z</time></trkpt><trkpt lat="42.001994" lon="12.8843192"><ele>343.5</ele><time>2026-04-26T15:32:03.923Z</time></trkpt><trkpt lat="42.0017445" lon="12.8841193"><ele>340.0</ele><time>2026-04-26T15:32:04.935Z</time></trkpt><trkpt lat="42.0014954" lon="12.8839214"><ele>340.0</ele><time>2026-04-26T15:32:05.923Z</time></trkpt><trkpt lat="42.0012461" lon="12.8837204"><ele>340.0</ele><time>2026-04-26T15:32:06.94Z</time></trkpt><trkpt lat="42.0009953" lon="12.8835233"><ele>340.5</ele><time>2026-04-26T15:32:07.947Z</time></trkpt><trkpt lat="42.0007449" lon="12.8833255"><ele>341.0</ele><time>2026-04-26T15:32:08.929Z</time></trkpt><trkpt lat="42.0004877" lon="12.8831243"><ele>341.0</ele><time>2026-04-26T15:32:09.932Z</time></trkpt><trkpt lat="42.0002331" lon="12.8829239"><ele>341.0</ele><time>2026-04-26T15:32:10.921Z</time></trkpt><trkpt lat="41.9999743" lon="12.8827211"><ele>335.5</ele><time>2026-04-26T15:32:11.928Z</time></trkpt><trkpt lat="41.9997065" lon="12.8825125"><ele>330.0</ele><time>2026-04-26T15:32:12.925Z</time></trkpt><trkpt lat="41.9994255" lon="12.8823048"><ele>329.5</ele><time>2026-04-26T15:32:13.941Z</time></trkpt><trkpt lat="41.9991275" lon="12.8820994"><ele>329.0</ele><time>2026-04-26T15:32:14.921Z</time></trkpt><trkpt lat="41.9988101" lon="12.8818974"><ele>329.5</ele><time>2026-04-26T15:32:15.928Z</time></trkpt><trkpt lat="41.9984842" lon="12.8817143"><ele>330.0</ele><time>2026-04-26T15:32:16.928Z</time></trkpt><trkpt lat="41.998152" lon="12.8815555"><ele>330.0</ele><time>2026-04-26T15:32:17.935Z</time></trkpt><trkpt lat="41.9978157" lon="12.8814187"><ele>330.0</ele><time>2026-04-26T15:32:18.941Z</time></trkpt><trkpt lat="41.9974807" lon="12.8813084"><ele>336.0</ele><time>2026-04-26T15:32:19.936Z</time></trkpt><trkpt lat="41.9971448" lon="12.8812188"><ele>342.0</ele><time>2026-04-26T15:32:20.924Z</time></trkpt><trkpt lat="41.9968099" lon="12.8811481"><ele>344.5</ele><time>2026-04-26T15:32:21.928Z</time></trkpt><trkpt lat="41.9964736" lon="12.8810907"><ele>347.0</ele><time>2026-04-26T15:32:22.932Z</time></trkpt><trkpt lat="41.9961371" lon="12.8810384"><ele>346.0</ele><time>2026-04-26T15:32:23.919Z</time></trkpt><trkpt lat="41.9958022" lon="12.8809856"><ele>345.0</ele><time>2026-04-26T15:32:24.939Z</time></trkpt><trkpt lat="41.9954673" lon="12.8809324"><ele>336.5</ele><time>2026-04-26T15:32:25.932Z</time></trkpt><trkpt lat="41.9951332" lon="12.8808795"><ele>328.0</ele><time>2026-04-26T15:32:26.933Z</time></trkpt><trkpt lat="41.9947992" lon="12.8808288"><ele>328.0</ele><time>2026-04-26T15:32:27.934Z</time></trkpt><trkpt lat="41.9944652" lon="12.8807778"><ele>328.0</ele><time>2026-04-26T15:32:28.932Z</time></trkpt><trkpt lat="41.9941311" lon="12.8807278"><ele>330.5</ele><time>2026-04-26T15:32:29.931Z</time></trkpt><trkpt lat="41.9937974" lon="12.8806776"><ele>333.0</ele><time>2026-04-26T15:32:30.937Z</time></trkpt><trkpt lat="41.9934647" lon="12.8806284"><ele>336.0</ele><time>2026-04-26T15:32:31.94Z</time></trkpt><trkpt lat="41.993134" lon="12.8805778"><ele>339.0</ele><time>2026-04-26T15:32:32.935Z</time></trkpt><trkpt lat="41.9928039" lon="12.8805265"><ele>332.0</ele><time>2026-04-26T15:32:33.925Z</time></trkpt><trkpt lat="41.9924742" lon="12.8804759"><ele>325.0</ele><time>2026-04-26T15:32:34.926Z</time></trkpt><trkpt lat="41.9921447" lon="12.8804255"><ele>325.0</ele><time>2026-04-26T15:32:35.928Z</time></trkpt><trkpt lat="41.9918145" lon="12.8803748"><ele>325.0</ele><time>2026-04-26T15:32:36.926Z</time></trkpt><trkpt lat="41.9914852" lon="12.8803248"><ele>322.0</ele><time>2026-04-26T15:32:37.926Z</time></trkpt><trkpt lat="41.9911562" lon="12.8802746"><ele>319.0</ele><time>2026-04-26T15:32:38.917Z</time></trkpt><trkpt lat="41.9908279" lon="12.8802229"><ele>329.5</ele><time>2026-04-26T15:32:39.933Z</time></trkpt><trkpt lat="41.9904995" lon="12.8801686"><ele>340.0</ele><time>2026-04-26T15:32:40.933Z</time></trkpt><trkpt lat="41.9901717" lon="12.8801141"><ele>338.5</ele><time>2026-04-26T15:32:41.937Z</time></trkpt><trkpt lat="41.9898431" lon="12.8800617"><ele>337.0</ele><time>2026-04-26T15:32:42.926Z</time></trkpt><trkpt lat="41.9895147" lon="12.8800103"><ele>337.0</ele><time>2026-04-26T15:32:43.932Z</time></trkpt><trkpt lat="41.9891856" lon="12.8799597"><ele>337.0</ele><time>2026-04-26T15:32:44.938Z</time></trkpt><trkpt lat="41.9888561" lon="12.8799092"><ele>336.5</ele><time>2026-04-26T15:32:45.934Z</time></trkpt><trkpt lat="41.9885244" lon="12.8798592"><ele>336.0</ele><time>2026-04-26T15:32:46.938Z</time></trkpt><trkpt lat="41.9881913" lon="12.8798084"><ele>337.0</ele><time>2026-04-26T15:32:47.939Z</time></trkpt><trkpt lat="41.987858" lon="12.8797581"><ele>338.0</ele><time>2026-04-26T15:32:48.94Z</time></trkpt><trkpt lat="41.9875235" lon="12.8797075"><ele>339.5</ele><time>2026-04-26T15:32:49.936Z</time></trkpt><trkpt lat="41.9871875" lon="12.8796559"><ele>341.0</ele><time>2026-04-26T15:32:50.94Z</time></trkpt><trkpt lat="41.98685" lon="12.8796043"><ele>334.0</ele><time>2026-04-26T15:32:51.941Z</time></trkpt><trkpt lat="41.9865111" lon="12.8795524"><ele>327.0</ele><time>2026-04-26T15:32:52.939Z</time></trkpt><trkpt lat="41.9861698" lon="12.8795006"><ele>320.0</ele><time>2026-04-26T15:32:53.927Z</time></trkpt><trkpt lat="41.985828" lon="12.8794487"><ele>313.0</ele><time>2026-04-26T15:32:54.937Z</time></trkpt><trkpt lat="41.9854861" lon="12.8793953"><ele>313.0</ele><time>2026-04-26T15:32:55.93Z</time></trkpt><trkpt lat="41.9851459" lon="12.8793401"><ele>313.0</ele><time>2026-04-26T15:32:56.926Z</time></trkpt><trkpt lat="41.9848091" lon="12.8792862"><ele>314.0</ele><time>2026-04-26T15:32:57.927Z</time></trkpt><trkpt lat="41.9844773" lon="12.8792333"><ele>315.0</ele><time>2026-04-26T15:32:58.921Z</time></trkpt><trkpt lat="41.9841513" lon="12.8791822"><ele>326.5</ele><time>2026-04-26T15:32:59.924Z</time></trkpt><trkpt lat="41.9838312" lon="12.8791314"><ele>338.0</ele><time>2026-04-26T15:33:00.925Z</time></trkpt><trkpt lat="41.9835183" lon="12.8790813"><ele>339.5</ele><time>2026-04-26T15:33:01.92Z</time></trkpt><trkpt lat="41.9832134" lon="12.8790324"><ele>341.0</ele><time>2026-04-26T15:33:02.916Z</time></trkpt><trkpt lat="41.9829185" lon="12.8789853"><ele>341.0</ele><time>2026-04-26T15:33:03.917Z</time></trkpt><trkpt lat="41.9826314" lon="12.8789404"><ele>341.0</ele><time>2026-04-26T15:33:04.907Z</time></trkpt><trkpt lat="41.982351" lon="12.878898"><ele>335.5</ele><time>2026-04-26T15:33:05.912Z</time></trkpt><trkpt lat="41.9820775" lon="12.878857"><ele>330.0</ele><time>2026-04-26T15:33:06.926Z</time></trkpt><trkpt lat="41.9818105" lon="12.8788178"><ele>323.0</ele><time>2026-04-26T15:33:07.914Z</time></trkpt><trkpt lat="41.9815468" lon="12.8787783"><ele>316.0</ele><time>2026-04-26T15:33:08.925Z</time></trkpt><trkpt lat="41.9812855" lon="12.878739"><ele>316.0</ele><time>2026-04-26T15:33:09.925Z</time></trkpt><trkpt lat="41.9810262" lon="12.8786986"><ele>316.0</ele><time>2026-04-26T15:33:10.935Z</time></trkpt><trkpt lat="41.9807668" lon="12.8786584"><ele>310.0</ele><time>2026-04-26T15:33:11.933Z</time></trkpt><trkpt lat="41.9805068" lon="12.8786182"><ele>304.0</ele><time>2026-04-26T15:33:12.934Z</time></trkpt><trkpt lat="41.9802464" lon="12.8785769"><ele>305.0</ele><time>2026-04-26T15:33:13.931Z</time></trkpt><trkpt lat="41.9799879" lon="12.8785348"><ele>306.0</ele><time>2026-04-26T15:33:14.936Z</time></trkpt><trkpt lat="41.9797317" lon="12.8784933"><ele>306.0</ele><time>2026-04-26T15:33:15.922Z</time></trkpt><trkpt lat="41.9794763" lon="12.8784529"><ele>306.0</ele><time>2026-04-26T15:33:16.924Z</time></trkpt><trkpt lat="41.97922" lon="12.8784135"><ele>303.5</ele><time>2026-04-26T15:33:17.942Z</time></trkpt><trkpt lat="41.9789636" lon="12.8783755"><ele>301.0</ele><time>2026-04-26T15:33:18.934Z</time></trkpt><trkpt lat="41.9787079" lon="12.8783377"><ele>301.0</ele><time>2026-04-26T15:33:19.926Z</time></trkpt><trkpt lat="41.9784537" lon="12.8782984"><ele>301.0</ele><time>2026-04-26T15:33:20.929Z</time></trkpt><trkpt lat="41.9782012" lon="12.8782588"><ele>307.5</ele><time>2026-04-26T15:33:21.924Z</time></trkpt><trkpt lat="41.9779501" lon="12.8782187"><ele>314.0</ele><time>2026-04-26T15:33:22.933Z</time></trkpt><trkpt lat="41.9776976" lon="12.8781788"><ele>322.0</ele><time>2026-04-26T15:33:23.925Z</time></trkpt><trkpt lat="41.9774441" lon="12.8781387"><ele>330.0</ele><time>2026-04-26T15:33:24.928Z</time></trkpt><trkpt lat="41.9771894" lon="12.8780979"><ele>330.0</ele><time>2026-04-26T15:33:25.919Z</time></trkpt><trkpt lat="41.9769336" lon="12.8780567"><ele>330.0</ele><time>2026-04-26T15:33:26.937Z</time></trkpt><trkpt lat="41.9766771" lon="12.8780141"><ele>336.0</ele><time>2026-04-26T15:33:27.929Z</time></trkpt><trkpt lat="41.9764208" lon="12.8779701"><ele>342.0</ele><time>2026-04-26T15:33:28.929Z</time></trkpt><trkpt lat="41.9761647" lon="12.8779255"><ele>342.0</ele><time>2026-04-26T15:33:29.924Z</time></trkpt><trkpt lat="41.9759056" lon="12.87788"><ele>342.0</ele><time>2026-04-26T15:33:30.927Z</time></trkpt><trkpt lat="41.9756425" lon="12.8778354"><ele>344.0</ele><time>2026-04-26T15:33:31.927Z</time></trkpt><trkpt lat="41.9753828" lon="12.8777972"><ele>346.0</ele><time>2026-04-26T15:33:32.925Z</time></trkpt><trkpt lat="41.9751095" lon="12.8777558"><ele>335.0</ele><time>2026-04-26T15:33:33.909Z</time></trkpt><trkpt lat="41.9733365" lon="12.8774478"><ele>335.0</ele><time>2026-04-26T15:33:39.915Z</time></trkpt><trkpt lat="41.9729884" lon="12.8774226"><ele>335.0</ele><time>2026-04-26T15:33:40.935Z</time></trkpt><trkpt lat="41.9726185" lon="12.8773656"><ele>331.0</ele><time>2026-04-26T15:33:41.937Z</time></trkpt><trkpt lat="41.9722385" lon="12.8773047"><ele>327.0</ele><time>2026-04-26T15:33:42.934Z</time></trkpt><trkpt lat="41.9718593" lon="12.8772361"><ele>323.0</ele><time>2026-04-26T15:33:43.925Z</time></trkpt><trkpt lat="41.9714967" lon="12.8771556"><ele>319.0</ele><time>2026-04-26T15:33:44.934Z</time></trkpt><trkpt lat="41.9711305" lon="12.8770582"><ele>316.5</ele><time>2026-04-26T15:33:45.928Z</time></trkpt><trkpt lat="41.9707704" lon="12.8769558"><ele>314.0</ele><time>2026-04-26T15:33:46.922Z</time></trkpt><trkpt lat="41.9704189" lon="12.8768427"><ele>314.0</ele><time>2026-04-26T15:33:47.945Z</time></trkpt><trkpt lat="41.9700692" lon="12.8767193"><ele>314.0</ele><time>2026-04-26T15:33:48.938Z</time></trkpt><trkpt lat="41.9697266" lon="12.8765869"><ele>314.0</ele><time>2026-04-26T15:33:49.925Z</time></trkpt><trkpt lat="41.969385" lon="12.8764498"><ele>314.0</ele><time>2026-04-26T15:33:50.917Z</time></trkpt><trkpt lat="41.9690464" lon="12.8763024"><ele>311.5</ele><time>2026-04-26T15:33:51.934Z</time></trkpt><trkpt lat="41.9687132" lon="12.8761498"><ele>309.0</ele><time>2026-04-26T15:33:52.924Z</time></trkpt><trkpt lat="41.9683831" lon="12.8759901"><ele>308.0</ele><time>2026-04-26T15:33:53.947Z</time></trkpt><trkpt lat="41.9680564" lon="12.8758209"><ele>307.0</ele><time>2026-04-26T15:33:54.933Z</time></trkpt><trkpt lat="41.9677305" lon="12.875642"><ele>308.0</ele><time>2026-04-26T15:33:55.919Z</time></trkpt><trkpt lat="41.9674064" lon="12.8754526"><ele>309.0</ele><time>2026-04-26T15:33:56.929Z</time></trkpt><trkpt lat="41.9670867" lon="12.875255"><ele>310.5</ele><time>2026-04-26T15:33:57.922Z</time></trkpt><trkpt lat="41.9667719" lon="12.8750507"><ele>312.0</ele><time>2026-04-26T15:33:58.936Z</time></trkpt><trkpt lat="41.9664597" lon="12.8748383"><ele>312.0</ele><time>2026-04-26T15:33:59.936Z</time></trkpt><trkpt lat="41.9661528" lon="12.8746217"><ele>312.0</ele><time>2026-04-26T15:34:00.917Z</time></trkpt><trkpt lat="41.9658519" lon="12.8744035"><ele>311.0</ele><time>2026-04-26T15:34:01.93Z</time></trkpt><trkpt lat="41.9655568" lon="12.8741849"><ele>310.0</ele><time>2026-04-26T15:34:02.932Z</time></trkpt><trkpt lat="41.9652674" lon="12.8739682"><ele>309.5</ele><time>2026-04-26T15:34:03.925Z</time></trkpt><trkpt lat="41.9649818" lon="12.8737528"><ele>309.0</ele><time>2026-04-26T15:34:04.925Z</time></trkpt><trkpt lat="41.9646998" lon="12.8735373"><ele>308.5</ele><time>2026-04-26T15:34:05.933Z</time></trkpt><trkpt lat="41.9644198" lon="12.8733213"><ele>308.0</ele><time>2026-04-26T15:34:06.934Z</time></trkpt><trkpt lat="41.9641431" lon="12.8731037"><ele>304.5</ele><time>2026-04-26T15:34:07.938Z</time></trkpt><trkpt lat="41.9638706" lon="12.8728869"><ele>301.0</ele><time>2026-04-26T15:34:08.936Z</time></trkpt><trkpt lat="41.9636031" lon="12.8726701"><ele>298.5</ele><time>2026-04-26T15:34:09.936Z</time></trkpt><trkpt lat="41.9633411" lon="12.8724541"><ele>296.0</ele><time>2026-04-26T15:34:10.936Z</time></trkpt><trkpt lat="41.9630852" lon="12.8722399"><ele>296.0</ele><time>2026-04-26T15:34:11.945Z</time></trkpt><trkpt lat="41.9628405" lon="12.8720311"><ele>296.0</ele><time>2026-04-26T15:34:12.936Z</time></trkpt><trkpt lat="41.9626234" lon="12.871843"><ele>291.33333333333337</ele><time>2026-04-26T15:34:13.931Z</time></trkpt><trkpt lat="41.9624268" lon="12.8716713"><ele>286.6666666666667</ele><time>2026-04-26T15:34:14.938Z</time></trkpt><trkpt lat="41.9622494" lon="12.8715153"><ele>282.0</ele><time>2026-04-26T15:34:15.919Z</time></trkpt><trkpt lat="41.9620834" lon="12.871369"><ele>282.0</ele><time>2026-04-26T15:34:16.935Z</time></trkpt><trkpt lat="41.9619244" lon="12.8712284"><ele>282.0</ele><time>2026-04-26T15:34:17.911Z</time></trkpt><trkpt lat="41.961772" lon="12.8710939"><ele>282.0</ele><time>2026-04-26T15:34:18.931Z</time></trkpt><trkpt lat="41.9616265" lon="12.8709643"><ele>280.3333333333333</ele><time>2026-04-26T15:34:19.922Z</time></trkpt><trkpt lat="41.9614867" lon="12.8708378"><ele>278.66666666666663</ele><time>2026-04-26T15:34:20.924Z</time></trkpt><trkpt lat="41.9613506" lon="12.8707133"><ele>277.0</ele><time>2026-04-26T15:34:21.948Z</time></trkpt><trkpt lat="41.9612168" lon="12.8705889"><ele>277.0</ele><time>2026-04-26T15:34:22.932Z</time></trkpt><trkpt lat="41.9610828" lon="12.8704646"><ele>277.0</ele><time>2026-04-26T15:34:23.936Z</time></trkpt><trkpt lat="41.9609466" lon="12.8703377"><ele>277.0</ele><time>2026-04-26T15:34:24.93Z</time></trkpt><trkpt lat="41.9608074" lon="12.8702075"><ele>275.66666666666663</ele><time>2026-04-26T15:34:25.933Z</time></trkpt><trkpt lat="41.9606646" lon="12.8700735"><ele>274.3333333333333</ele><time>2026-04-26T15:34:26.931Z</time></trkpt><trkpt lat="41.9605179" lon="12.8699349"><ele>273.0</ele><time>2026-04-26T15:34:27.926Z</time></trkpt><trkpt lat="41.960367" lon="12.8697903"><ele>273.0</ele><time>2026-04-26T15:34:28.946Z</time></trkpt><trkpt lat="41.9602105" lon="12.8696403"><ele>273.0</ele><time>2026-04-26T15:34:29.942Z</time></trkpt><trkpt lat="41.9600504" lon="12.8694876"><ele>273.0</ele><time>2026-04-26T15:34:30.93Z</time></trkpt><trkpt lat="41.9598889" lon="12.8693323"><ele>270.3333333333333</ele><time>2026-04-26T15:34:31.926Z</time></trkpt><trkpt lat="41.9597275" lon="12.869176"><ele>267.66666666666663</ele><time>2026-04-26T15:34:32.938Z</time></trkpt><trkpt lat="41.9595676" lon="12.8690201"><ele>265.0</ele><time>2026-04-26T15:34:33.943Z</time></trkpt><trkpt lat="41.959407" lon="12.8688619"><ele>265.0</ele><time>2026-04-26T15:34:34.931Z</time></trkpt><trkpt lat="41.9592446" lon="12.8687014"><ele>265.0</ele><time>2026-04-26T15:34:35.927Z</time></trkpt><trkpt lat="41.9590824" lon="12.8685382"><ele>265.0</ele><time>2026-04-26T15:34:36.923Z</time></trkpt><trkpt lat="41.9589199" lon="12.8683723"><ele>263.0</ele><time>2026-04-26T15:34:37.937Z</time></trkpt><trkpt lat="41.9587569" lon="12.8682054"><ele>261.0</ele><time>2026-04-26T15:34:38.911Z</time></trkpt><trkpt lat="41.9585937" lon="12.8680404"><ele>259.0</ele><time>2026-04-26T15:34:39.922Z</time></trkpt><trkpt lat="41.9584331" lon="12.8678749"><ele>258.3333333333333</ele><time>2026-04-26T15:34:40.915Z</time></trkpt><trkpt lat="41.9582734" lon="12.8677068"><ele>257.6666666666667</ele><time>2026-04-26T15:34:41.927Z</time></trkpt><trkpt lat="41.9581112" lon="12.8675312"><ele>257.0</ele><time>2026-04-26T15:34:42.932Z</time></trkpt><trkpt lat="41.9579402" lon="12.8673453"><ele>256.5</ele><time>2026-04-26T15:34:43.937Z</time></trkpt><trkpt lat="41.9577616" lon="12.867153"><ele>256.0</ele><time>2026-04-26T15:34:44.933Z</time></trkpt><trkpt lat="41.9575762" lon="12.8669538"><ele>256.0</ele><time>2026-04-26T15:34:45.932Z</time></trkpt><trkpt lat="41.9573848" lon="12.8667461"><ele>256.0</ele><time>2026-04-26T15:34:46.926Z</time></trkpt><trkpt lat="41.9571892" lon="12.8665308"><ele>256.0</ele><time>2026-04-26T15:34:47.928Z</time></trkpt><trkpt lat="41.9569895" lon="12.8663077"><ele>256.0</ele><time>2026-04-26T15:34:48.929Z</time></trkpt><trkpt lat="41.9567837" lon="12.8660781"><ele>257.5</ele><time>2026-04-26T15:34:49.932Z</time></trkpt><trkpt lat="41.9565775" lon="12.8658453"><ele>259.0</ele><time>2026-04-26T15:34:50.934Z</time></trkpt><trkpt lat="41.956372" lon="12.8656105"><ele>259.0</ele><time>2026-04-26T15:34:51.93Z</time></trkpt><trkpt lat="41.9561665" lon="12.8653715"><ele>259.0</ele><time>2026-04-26T15:34:52.924Z</time></trkpt><trkpt lat="41.9559608" lon="12.8651398"><ele>262.5</ele><time>2026-04-26T15:34:53.929Z</time></trkpt><trkpt lat="41.9557476" lon="12.8649013"><ele>266.0</ele><time>2026-04-26T15:34:54.938Z</time></trkpt><trkpt lat="41.955542" lon="12.8646539"><ele>266.0</ele><time>2026-04-26T15:34:55.931Z</time></trkpt><trkpt lat="41.955333" lon="12.8644119"><ele>266.0</ele><time>2026-04-26T15:34:56.94Z</time></trkpt><trkpt lat="41.9551281" lon="12.8641618"><ele>265.0</ele><time>2026-04-26T15:34:57.94Z</time></trkpt><trkpt lat="41.9549258" lon="12.8639149"><ele>264.0</ele><time>2026-04-26T15:34:58.936Z</time></trkpt><trkpt lat="41.9547273" lon="12.8636741"><ele>263.0</ele><time>2026-04-26T15:34:59.937Z</time></trkpt><trkpt lat="41.954535" lon="12.8634319"><ele>262.0</ele><time>2026-04-26T15:35:00.931Z</time></trkpt><trkpt lat="41.9543443" lon="12.8631888"><ele>263.0</ele><time>2026-04-26T15:35:01.932Z</time></trkpt><trkpt lat="41.9541566" lon="12.8629499"><ele>264.0</ele><time>2026-04-26T15:35:02.931Z</time></trkpt><trkpt lat="41.9539743" lon="12.8627146"><ele>264.0</ele><time>2026-04-26T15:35:03.926Z</time></trkpt><trkpt lat="41.9537967" lon="12.8624846"><ele>264.0</ele><time>2026-04-26T15:35:04.944Z</time></trkpt><trkpt lat="41.9536248" lon="12.8622626"><ele>264.0</ele><time>2026-04-26T15:35:05.933Z</time></trkpt><trkpt lat="41.9534585" lon="12.8620415"><ele>264.0</ele><time>2026-04-26T15:35:06.924Z</time></trkpt><trkpt lat="41.9532945" lon="12.8618188"><ele>267.5</ele><time>2026-04-26T15:35:07.92Z</time></trkpt><trkpt lat="41.9531306" lon="12.8616"><ele>271.0</ele><time>2026-04-26T15:35:08.938Z</time></trkpt><trkpt lat="41.9529693" lon="12.8613821"><ele>271.0</ele><time>2026-04-26T15:35:09.938Z</time></trkpt><trkpt lat="41.9528089" lon="12.8611621"><ele>271.0</ele><time>2026-04-26T15:35:10.936Z</time></trkpt><trkpt lat="41.9526492" lon="12.860938"><ele>273.0</ele><time>2026-04-26T15:35:11.946Z</time></trkpt><trkpt lat="41.9524884" lon="12.8607101"><ele>275.0</ele><time>2026-04-26T15:35:12.939Z</time></trkpt><trkpt lat="41.9523262" lon="12.8604806"><ele>275.0</ele><time>2026-04-26T15:35:13.941Z</time></trkpt><trkpt lat="41.9521628" lon="12.8602491"><ele>275.0</ele><time>2026-04-26T15:35:14.946Z</time></trkpt><trkpt lat="41.9519977" lon="12.8600163"><ele>277.5</ele><time>2026-04-26T15:35:15.939Z</time></trkpt><trkpt lat="41.9518296" lon="12.8597785"><ele>280.0</ele><time>2026-04-26T15:35:16.932Z</time></trkpt><trkpt lat="41.9516551" lon="12.8595335"><ele>281.0</ele><time>2026-04-26T15:35:17.934Z</time></trkpt><trkpt lat="41.9514728" lon="12.8592775"><ele>282.0</ele><time>2026-04-26T15:35:18.928Z</time></trkpt><trkpt lat="41.9512857" lon="12.8590123"><ele>282.0</ele><time>2026-04-26T15:35:19.935Z</time></trkpt><trkpt lat="41.9510981" lon="12.8587428"><ele>282.0</ele><time>2026-04-26T15:35:20.929Z</time></trkpt><trkpt lat="41.9509125" lon="12.8584765"><ele>280.5</ele><time>2026-04-26T15:35:21.932Z</time></trkpt><trkpt lat="41.9507321" lon="12.8582191"><ele>279.0</ele><time>2026-04-26T15:35:22.926Z</time></trkpt><trkpt lat="41.9505601" lon="12.8579746"><ele>279.0</ele><time>2026-04-26T15:35:23.934Z</time></trkpt><trkpt lat="41.9503941" lon="12.8577377"><ele>279.0</ele><time>2026-04-26T15:35:24.932Z</time></trkpt><trkpt lat="41.9502294" lon="12.8575058"><ele>277.0</ele><time>2026-04-26T15:35:25.931Z</time></trkpt><trkpt lat="41.9500658" lon="12.8572809"><ele>275.0</ele><time>2026-04-26T15:35:26.929Z</time></trkpt><trkpt lat="41.9499023" lon="12.8570621"><ele>275.0</ele><time>2026-04-26T15:35:27.926Z</time></trkpt><trkpt lat="41.9497382" lon="12.856848"><ele>275.0</ele><time>2026-04-26T15:35:28.937Z</time></trkpt><trkpt lat="41.9495756" lon="12.8566387"><ele>272.6666666666667</ele><time>2026-04-26T15:35:29.934Z</time></trkpt><trkpt lat="41.9494174" lon="12.8564373"><ele>270.3333333333333</ele><time>2026-04-26T15:35:30.941Z</time></trkpt><trkpt lat="41.9492631" lon="12.8562434"><ele>268.0</ele><time>2026-04-26T15:35:31.945Z</time></trkpt><trkpt lat="41.9491111" lon="12.8560555"><ele>267.66666666666663</ele><time>2026-04-26T15:35:32.926Z</time></trkpt><trkpt lat="41.9489585" lon="12.8558697"><ele>267.3333333333333</ele><time>2026-04-26T15:35:33.941Z</time></trkpt><trkpt lat="41.9488033" lon="12.8556849"><ele>267.0</ele><time>2026-04-26T15:35:34.939Z</time></trkpt><trkpt lat="41.9486468" lon="12.8555017"><ele>267.0</ele><time>2026-04-26T15:35:35.932Z</time></trkpt><trkpt lat="41.9484892" lon="12.8553212"><ele>267.0</ele><time>2026-04-26T15:35:36.942Z</time></trkpt><trkpt lat="41.9483323" lon="12.8551448"><ele>267.0</ele><time>2026-04-26T15:35:37.935Z</time></trkpt><trkpt lat="41.9481779" lon="12.8549741"><ele>273.3333333333333</ele><time>2026-04-26T15:35:38.929Z</time></trkpt><trkpt lat="41.9480265" lon="12.8548074"><ele>279.66666666666663</ele><time>2026-04-26T15:35:39.933Z</time></trkpt><trkpt lat="41.9478741" lon="12.8546421"><ele>286.0</ele><time>2026-04-26T15:35:40.94Z</time></trkpt><trkpt lat="41.9477189" lon="12.8544758"><ele>286.0</ele><time>2026-04-26T15:35:41.945Z</time></trkpt><trkpt lat="41.9475616" lon="12.8543099"><ele>286.0</ele><time>2026-04-26T15:35:42.937Z</time></trkpt><trkpt lat="41.9474013" lon="12.854145"><ele>286.0</ele><time>2026-04-26T15:35:43.933Z</time></trkpt><trkpt lat="41.9472393" lon="12.8539824"><ele>291.0</ele><time>2026-04-26T15:35:44.938Z</time></trkpt><trkpt lat="41.9470749" lon="12.8538215"><ele>296.0</ele><time>2026-04-26T15:35:45.947Z</time></trkpt><trkpt lat="41.9469068" lon="12.853659"><ele>301.0</ele><time>2026-04-26T15:35:46.95Z</time></trkpt><trkpt lat="41.9467336" lon="12.8534957"><ele>299.66666666666663</ele><time>2026-04-26T15:35:47.94Z</time></trkpt><trkpt lat="41.946556" lon="12.8533302"><ele>298.3333333333333</ele><time>2026-04-26T15:35:48.923Z</time></trkpt><trkpt lat="41.9463766" lon="12.8531634"><ele>297.0</ele><time>2026-04-26T15:35:49.927Z</time></trkpt><trkpt lat="41.9461978" lon="12.8529986"><ele>297.0</ele><time>2026-04-26T15:35:50.941Z</time></trkpt><trkpt lat="41.9460182" lon="12.8528363"><ele>297.0</ele><time>2026-04-26T15:35:51.942Z</time></trkpt><trkpt lat="41.9458386" lon="12.8526763"><ele>297.0</ele><time>2026-04-26T15:35:52.936Z</time></trkpt><trkpt lat="41.945659" lon="12.8525167"><ele>300.0</ele><time>2026-04-26T15:35:53.942Z</time></trkpt><trkpt lat="41.9454775" lon="12.8523561"><ele>303.0</ele><time>2026-04-26T15:35:54.938Z</time></trkpt><trkpt lat="41.9452937" lon="12.852197"><ele>306.0</ele><time>2026-04-26T15:35:55.938Z</time></trkpt><trkpt lat="41.9451108" lon="12.8520415"><ele>307.6666666666667</ele><time>2026-04-26T15:35:56.93Z</time></trkpt><trkpt lat="41.944932" lon="12.8518915"><ele>309.33333333333337</ele><time>2026-04-26T15:35:57.946Z</time></trkpt><trkpt lat="41.9447567" lon="12.8517449"><ele>311.0</ele><time>2026-04-26T15:35:58.95Z</time></trkpt><trkpt lat="41.9445849" lon="12.8516034"><ele>311.0</ele><time>2026-04-26T15:35:59.941Z</time></trkpt><trkpt lat="41.9444042" lon="12.8514521"><ele>311.0</ele><time>2026-04-26T15:36:00.942Z</time></trkpt><trkpt lat="41.9441953" lon="12.851283"><ele>314.5</ele><time>2026-04-26T15:36:01.943Z</time></trkpt><trkpt lat="41.9439586" lon="12.851107"><ele>318.0</ele><time>2026-04-26T15:36:02.942Z</time></trkpt><trkpt lat="41.943727" lon="12.8509371"><ele>318.0</ele><time>2026-04-26T15:36:03.94Z</time></trkpt><trkpt lat="41.9435143" lon="12.8507783"><ele>318.0</ele><time>2026-04-26T15:36:04.937Z</time></trkpt><trkpt lat="41.9433156" lon="12.8506301"><ele>318.0</ele><time>2026-04-26T15:36:05.935Z</time></trkpt><trkpt lat="41.9431198" lon="12.8504881"><ele>318.0</ele><time>2026-04-26T15:36:06.925Z</time></trkpt><trkpt lat="41.9429258" lon="12.8503493"><ele>318.0</ele><time>2026-04-26T15:36:07.915Z</time></trkpt><trkpt lat="41.9427295" lon="12.850212"><ele>312.0</ele><time>2026-04-26T15:36:08.945Z</time></trkpt><trkpt lat="41.9425305" lon="12.8500747"><ele>306.0</ele><time>2026-04-26T15:36:09.92Z</time></trkpt><trkpt lat="41.9423291" lon="12.8499368"><ele>306.0</ele><time>2026-04-26T15:36:10.922Z</time></trkpt><trkpt lat="41.9421263" lon="12.8497995"><ele>306.0</ele><time>2026-04-26T15:36:11.93Z</time></trkpt><trkpt lat="41.941924" lon="12.8496639"><ele>306.0</ele><time>2026-04-26T15:36:12.912Z</time></trkpt><trkpt lat="41.9417233" lon="12.8495309"><ele>306.0</ele><time>2026-04-26T15:36:13.935Z</time></trkpt><trkpt lat="41.9415269" lon="12.8494026"><ele>306.0</ele><time>2026-04-26T15:36:14.93Z</time></trkpt><trkpt lat="41.9413329" lon="12.849278"><ele>306.0</ele><time>2026-04-26T15:36:15.933Z</time></trkpt><trkpt lat="41.9411382" lon="12.8491564"><ele>306.0</ele><time>2026-04-26T15:36:16.936Z</time></trkpt><trkpt lat="41.9409465" lon="12.8490384"><ele>306.0</ele><time>2026-04-26T15:36:17.93Z</time></trkpt><trkpt lat="41.9407589" lon="12.8489246"><ele>306.6666666666667</ele><time>2026-04-26T15:36:18.934Z</time></trkpt><trkpt lat="41.9405738" lon="12.8488159"><ele>307.33333333333337</ele><time>2026-04-26T15:36:19.944Z</time></trkpt><trkpt lat="41.9403897" lon="12.8487094"><ele>308.0</ele><time>2026-04-26T15:36:20.932Z</time></trkpt><trkpt lat="41.9402056" lon="12.8485994"><ele>306.6666666666667</ele><time>2026-04-26T15:36:21.933Z</time></trkpt><trkpt lat="41.9400181" lon="12.8484829"><ele>305.3333333333333</ele><time>2026-04-26T15:36:22.938Z</time></trkpt><trkpt lat="41.9398188" lon="12.848359"><ele>304.0</ele><time>2026-04-26T15:36:23.939Z</time></trkpt><trkpt lat="41.9395939" lon="12.8482259"><ele>302.5</ele><time>2026-04-26T15:36:24.939Z</time></trkpt><trkpt lat="41.93935" lon="12.8480902"><ele>301.0</ele><time>2026-04-26T15:36:25.945Z</time></trkpt><trkpt lat="41.9390976" lon="12.8479566"><ele>301.0</ele><time>2026-04-26T15:36:26.956Z</time></trkpt><trkpt lat="41.938845" lon="12.8478261"><ele>301.0</ele><time>2026-04-26T15:36:27.936Z</time></trkpt><trkpt lat="41.9385945" lon="12.8476994"><ele>291.0</ele><time>2026-04-26T15:36:28.918Z</time></trkpt><trkpt lat="41.9383461" lon="12.8475768"><ele>281.0</ele><time>2026-04-26T15:36:29.926Z</time></trkpt><trkpt lat="41.9380997" lon="12.8474576"><ele>281.0</ele><time>2026-04-26T15:36:30.928Z</time></trkpt><trkpt lat="41.9378554" lon="12.8473413"><ele>281.0</ele><time>2026-04-26T15:36:31.932Z</time></trkpt><trkpt lat="41.937614" lon="12.8472288"><ele>287.0</ele><time>2026-04-26T15:36:32.935Z</time></trkpt><trkpt lat="41.9373751" lon="12.8471212"><ele>293.0</ele><time>2026-04-26T15:36:33.923Z</time></trkpt><trkpt lat="41.9371374" lon="12.847017"><ele>293.0</ele><time>2026-04-26T15:36:34.938Z</time></trkpt><trkpt lat="41.9369003" lon="12.8469147"><ele>293.0</ele><time>2026-04-26T15:36:35.948Z</time></trkpt><trkpt lat="41.9366623" lon="12.8468138"><ele>295.0</ele><time>2026-04-26T15:36:36.938Z</time></trkpt><trkpt lat="41.9364221" lon="12.8467163"><ele>297.0</ele><time>2026-04-26T15:36:37.934Z</time></trkpt><trkpt lat="41.9361797" lon="12.8466204"><ele>297.0</ele><time>2026-04-26T15:36:38.921Z</time></trkpt><trkpt lat="41.9359356" lon="12.8465268"><ele>297.0</ele><time>2026-04-26T15:36:39.927Z</time></trkpt><trkpt lat="41.935689" lon="12.8464369"><ele>297.5</ele><time>2026-04-26T15:36:40.924Z</time></trkpt><trkpt lat="41.9354393" lon="12.8463512"><ele>298.0</ele><time>2026-04-26T15:36:41.929Z</time></trkpt><trkpt lat="41.9351874" lon="12.8462676"><ele>303.5</ele><time>2026-04-26T15:36:42.935Z</time></trkpt><trkpt lat="41.934937" lon="12.8461845"><ele>309.0</ele><time>2026-04-26T15:36:43.922Z</time></trkpt><trkpt lat="41.9346933" lon="12.8461029"><ele>309.0</ele><time>2026-04-26T15:36:44.929Z</time></trkpt><trkpt lat="41.9344598" lon="12.8460262"><ele>309.0</ele><time>2026-04-26T15:36:45.934Z</time></trkpt><trkpt lat="41.9342332" lon="12.8459557"><ele>302.0</ele><time>2026-04-26T15:36:46.941Z</time></trkpt><trkpt lat="41.9340084" lon="12.8458892"><ele>295.0</ele><time>2026-04-26T15:36:47.938Z</time></trkpt><trkpt lat="41.9337863" lon="12.8458254"><ele>295.0</ele><time>2026-04-26T15:36:48.943Z</time></trkpt><trkpt lat="41.9335655" lon="12.8457631"><ele>295.0</ele><time>2026-04-26T15:36:49.949Z</time></trkpt><trkpt lat="41.9333447" lon="12.8457016"><ele>290.5</ele><time>2026-04-26T15:36:50.936Z</time></trkpt><trkpt lat="41.9331236" lon="12.8456414"><ele>286.0</ele><time>2026-04-26T15:36:51.918Z</time></trkpt><trkpt lat="41.932902" lon="12.8455822"><ele>286.0</ele><time>2026-04-26T15:36:52.937Z</time></trkpt><trkpt lat="41.9326802" lon="12.8455235"><ele>286.0</ele><time>2026-04-26T15:36:53.937Z</time></trkpt><trkpt lat="41.9324573" lon="12.8454651"><ele>287.5</ele><time>2026-04-26T15:36:54.932Z</time></trkpt><trkpt lat="41.9322334" lon="12.8454079"><ele>289.0</ele><time>2026-04-26T15:36:55.94Z</time></trkpt><trkpt lat="41.9320086" lon="12.8453518"><ele>289.0</ele><time>2026-04-26T15:36:56.936Z</time></trkpt><trkpt lat="41.9317821" lon="12.8452955"><ele>289.0</ele><time>2026-04-26T15:36:57.942Z</time></trkpt><trkpt lat="41.9315523" lon="12.845238"><ele>295.0</ele><time>2026-04-26T15:36:58.932Z</time></trkpt><trkpt lat="41.9313169" lon="12.8451782"><ele>301.0</ele><time>2026-04-26T15:36:59.931Z</time></trkpt><trkpt lat="41.9310759" lon="12.8451147"><ele>301.5</ele><time>2026-04-26T15:37:00.928Z</time></trkpt><trkpt lat="41.9308293" lon="12.8450468"><ele>302.0</ele><time>2026-04-26T15:37:01.929Z</time></trkpt><trkpt lat="41.9305775" lon="12.8449744"><ele>302.0</ele><time>2026-04-26T15:37:02.932Z</time></trkpt><trkpt lat="41.9303221" lon="12.8448976"><ele>302.0</ele><time>2026-04-26T15:37:03.922Z</time></trkpt><trkpt lat="41.9300663" lon="12.844815"><ele>301.5</ele><time>2026-04-26T15:37:04.924Z</time></trkpt><trkpt lat="41.9298121" lon="12.8447272"><ele>301.0</ele><time>2026-04-26T15:37:05.925Z</time></trkpt><trkpt lat="41.929559" lon="12.8446335"><ele>301.0</ele><time>2026-04-26T15:37:06.934Z</time></trkpt><trkpt lat="41.929307" lon="12.8445353"><ele>301.0</ele><time>2026-04-26T15:37:07.925Z</time></trkpt><trkpt lat="41.9290551" lon="12.8444306"><ele>297.5</ele><time>2026-04-26T15:37:08.939Z</time></trkpt><trkpt lat="41.9288044" lon="12.844317"><ele>294.0</ele><time>2026-04-26T15:37:09.952Z</time></trkpt><trkpt lat="41.9285545" lon="12.8441958"><ele>296.0</ele><time>2026-04-26T15:37:10.927Z</time></trkpt><trkpt lat="41.9283062" lon="12.8440668"><ele>298.0</ele><time>2026-04-26T15:37:11.919Z</time></trkpt><trkpt lat="41.9280599" lon="12.8439312"><ele>298.0</ele><time>2026-04-26T15:37:12.946Z</time></trkpt><trkpt lat="41.9278165" lon="12.8437875"><ele>298.0</ele><time>2026-04-26T15:37:13.929Z</time></trkpt><trkpt lat="41.9275771" lon="12.8436373"><ele>300.0</ele><time>2026-04-26T15:37:14.928Z</time></trkpt><trkpt lat="41.927344" lon="12.8434816"><ele>302.0</ele><time>2026-04-26T15:37:15.925Z</time></trkpt><trkpt lat="41.9271167" lon="12.8433219"><ele>298.0</ele><time>2026-04-26T15:37:16.942Z</time></trkpt><trkpt lat="41.9268979" lon="12.8431616"><ele>294.0</ele><time>2026-04-26T15:37:17.924Z</time></trkpt><trkpt lat="41.9266882" lon="12.8430023"><ele>292.5</ele><time>2026-04-26T15:37:18.931Z</time></trkpt><trkpt lat="41.926485" lon="12.8428419"><ele>291.0</ele><time>2026-04-26T15:37:19.935Z</time></trkpt><trkpt lat="41.926285" lon="12.8426758"><ele>286.5</ele><time>2026-04-26T15:37:20.931Z</time></trkpt><trkpt lat="41.9260878" lon="12.8425032"><ele>282.0</ele><time>2026-04-26T15:37:21.926Z</time></trkpt><trkpt lat="41.9258915" lon="12.8423256"><ele>282.0</ele><time>2026-04-26T15:37:22.931Z</time></trkpt><trkpt lat="41.9256966" lon="12.8421424"><ele>282.0</ele><time>2026-04-26T15:37:23.929Z</time></trkpt><trkpt lat="41.925502" lon="12.8419548"><ele>281.5</ele><time>2026-04-26T15:37:24.92Z</time></trkpt><trkpt lat="41.9253093" lon="12.8417607"><ele>281.0</ele><time>2026-04-26T15:37:25.922Z</time></trkpt><trkpt lat="41.9251197" lon="12.8415596"><ele>281.5</ele><time>2026-04-26T15:37:26.931Z</time></trkpt><trkpt lat="41.9249357" lon="12.841355"><ele>282.0</ele><time>2026-04-26T15:37:27.928Z</time></trkpt><trkpt lat="41.9247596" lon="12.8411534"><ele>285.6666666666667</ele><time>2026-04-26T15:37:28.932Z</time></trkpt><trkpt lat="41.9245929" lon="12.8409556"><ele>289.33333333333337</ele><time>2026-04-26T15:37:29.932Z</time></trkpt><trkpt lat="41.9244323" lon="12.8407632"><ele>293.0</ele><time>2026-04-26T15:37:30.93Z</time></trkpt><trkpt lat="41.9242704" lon="12.8405662"><ele>249.0</ele><time>2026-04-26T15:37:31.925Z</time></trkpt><trkpt lat="41.9174647" lon="12.8289194"><ele>249.0</ele><time>2026-04-26T15:38:22.932Z</time></trkpt><trkpt lat="41.9173008" lon="12.8286237"><ele>249.0</ele><time>2026-04-26T15:38:23.948Z</time></trkpt><trkpt lat="41.9171468" lon="12.8283303"><ele>246.5</ele><time>2026-04-26T15:38:24.929Z</time></trkpt><trkpt lat="41.9169975" lon="12.8280342"><ele>244.0</ele><time>2026-04-26T15:38:25.951Z</time></trkpt><trkpt lat="41.9168381" lon="12.8277267"><ele>240.5</ele><time>2026-04-26T15:38:26.939Z</time></trkpt><trkpt lat="41.9166677" lon="12.8274112"><ele>237.0</ele><time>2026-04-26T15:38:27.924Z</time></trkpt><trkpt lat="41.9164929" lon="12.8270949"><ele>234.5</ele><time>2026-04-26T15:38:28.942Z</time></trkpt><trkpt lat="41.916319" lon="12.8267736"><ele>232.0</ele><time>2026-04-26T15:38:29.936Z</time></trkpt><trkpt lat="41.9161484" lon="12.8264554"><ele>232.0</ele><time>2026-04-26T15:38:30.944Z</time></trkpt><trkpt lat="41.9159785" lon="12.8261361"><ele>232.0</ele><time>2026-04-26T15:38:31.934Z</time></trkpt><trkpt lat="41.9158194" lon="12.8258163"><ele>229.5</ele><time>2026-04-26T15:38:32.942Z</time></trkpt><trkpt lat="41.9156559" lon="12.8254912"><ele>227.0</ele><time>2026-04-26T15:38:33.941Z</time></trkpt><trkpt lat="41.915496" lon="12.8251538"><ele>223.0</ele><time>2026-04-26T15:38:34.935Z</time></trkpt><trkpt lat="41.9153434" lon="12.8248024"><ele>219.0</ele><time>2026-04-26T15:38:35.936Z</time></trkpt><trkpt lat="41.9151939" lon="12.8244521"><ele>219.0</ele><time>2026-04-26T15:38:36.941Z</time></trkpt><trkpt lat="41.915046" lon="12.8240904"><ele>219.0</ele><time>2026-04-26T15:38:37.938Z</time></trkpt><trkpt lat="41.9149019" lon="12.8237226"><ele>218.0</ele><time>2026-04-26T15:38:38.939Z</time></trkpt><trkpt lat="41.9147576" lon="12.8233486"><ele>217.0</ele><time>2026-04-26T15:38:39.951Z</time></trkpt><trkpt lat="41.9146194" lon="12.8229655"><ele>215.0</ele><time>2026-04-26T15:38:40.943Z</time></trkpt><trkpt lat="41.914488" lon="12.8225667"><ele>213.0</ele><time>2026-04-26T15:38:41.937Z</time></trkpt><trkpt lat="41.9143576" lon="12.8221651"><ele>215.0</ele><time>2026-04-26T15:38:42.947Z</time></trkpt><trkpt lat="41.9142372" lon="12.8217686"><ele>217.0</ele><time>2026-04-26T15:38:43.934Z</time></trkpt><trkpt lat="41.9141268" lon="12.8213636"><ele>216.5</ele><time>2026-04-26T15:38:44.948Z</time></trkpt><trkpt lat="41.9140188" lon="12.8209515"><ele>216.0</ele><time>2026-04-26T15:38:45.955Z</time></trkpt><trkpt lat="41.9139164" lon="12.8205341"><ele>215.0</ele><time>2026-04-26T15:38:46.943Z</time></trkpt><trkpt lat="41.9138216" lon="12.8201126"><ele>214.0</ele><time>2026-04-26T15:38:47.935Z</time></trkpt><trkpt lat="41.913738" lon="12.8196983"><ele>212.5</ele><time>2026-04-26T15:38:48.934Z</time></trkpt><trkpt lat="41.9136613" lon="12.819271"><ele>211.0</ele><time>2026-04-26T15:38:49.953Z</time></trkpt><trkpt lat="41.9135954" lon="12.81884"><ele>211.5</ele><time>2026-04-26T15:38:50.945Z</time></trkpt><trkpt lat="41.9135408" lon="12.8184074"><ele>212.0</ele><time>2026-04-26T15:38:51.941Z</time></trkpt><trkpt lat="41.9134955" lon="12.8179726"><ele>211.5</ele><time>2026-04-26T15:38:52.928Z</time></trkpt><trkpt lat="41.913459" lon="12.8175349"><ele>211.0</ele><time>2026-04-26T15:38:53.95Z</time></trkpt><trkpt lat="41.9134346" lon="12.8170943"><ele>212.0</ele><time>2026-04-26T15:38:54.935Z</time></trkpt><trkpt lat="41.913421" lon="12.8166546"><ele>213.0</ele><time>2026-04-26T15:38:55.94Z</time></trkpt><trkpt lat="41.9134147" lon="12.8162165"><ele>213.0</ele><time>2026-04-26T15:38:56.937Z</time></trkpt><trkpt lat="41.9134221" lon="12.8157856"><ele>213.0</ele><time>2026-04-26T15:38:57.946Z</time></trkpt><trkpt lat="41.9134376" lon="12.8153642"><ele>213.0</ele><time>2026-04-26T15:38:58.926Z</time></trkpt><trkpt lat="41.9134644" lon="12.8149583"><ele>213.0</ele><time>2026-04-26T15:38:59.943Z</time></trkpt><trkpt lat="41.9134963" lon="12.8145705"><ele>213.0</ele><time>2026-04-26T15:39:00.945Z</time></trkpt><trkpt lat="41.9135332" lon="12.8142059"><ele>213.0</ele><time>2026-04-26T15:39:01.952Z</time></trkpt><trkpt lat="41.9135844" lon="12.8138663"><ele>213.0</ele><time>2026-04-26T15:39:02.929Z</time></trkpt><trkpt lat="41.9136189" lon="12.8135338"><ele>213.0</ele><time>2026-04-26T15:39:03.943Z</time></trkpt><trkpt lat="41.9136629" lon="12.8132123"><ele>213.0</ele><time>2026-04-26T15:39:04.939Z</time></trkpt><trkpt lat="41.9137072" lon="12.8128879"><ele>213.0</ele><time>2026-04-26T15:39:05.953Z</time></trkpt><trkpt lat="41.9137595" lon="12.8125619"><ele>213.0</ele><time>2026-04-26T15:39:06.938Z</time></trkpt><trkpt lat="41.913815" lon="12.8122345"><ele>213.0</ele><time>2026-04-26T15:39:07.94Z</time></trkpt><trkpt lat="41.9138727" lon="12.8119134"><ele>212.0</ele><time>2026-04-26T15:39:08.935Z</time></trkpt><trkpt lat="41.9139437" lon="12.8115806"><ele>211.0</ele><time>2026-04-26T15:39:09.931Z</time></trkpt><trkpt lat="41.9140139" lon="12.8112515"><ele>210.5</ele><time>2026-04-26T15:39:10.948Z</time></trkpt><trkpt lat="41.9140929" lon="12.8109199"><ele>210.0</ele><time>2026-04-26T15:39:11.946Z</time></trkpt><trkpt lat="41.9141743" lon="12.8105839"><ele>208.0</ele><time>2026-04-26T15:39:12.939Z</time></trkpt><trkpt lat="41.9142573" lon="12.8102502"><ele>206.0</ele><time>2026-04-26T15:39:13.937Z</time></trkpt><trkpt lat="41.9143433" lon="12.8099145"><ele>206.0</ele><time>2026-04-26T15:39:14.945Z</time></trkpt><trkpt lat="41.9144308" lon="12.8095773"><ele>206.0</ele><time>2026-04-26T15:39:15.932Z</time></trkpt><trkpt lat="41.91452" lon="12.8092397"><ele>206.5</ele><time>2026-04-26T15:39:16.93Z</time></trkpt><trkpt lat="41.9146113" lon="12.8089031"><ele>207.0</ele><time>2026-04-26T15:39:17.935Z</time></trkpt><trkpt lat="41.9147026" lon="12.8085682"><ele>204.0</ele><time>2026-04-26T15:39:18.933Z</time></trkpt><trkpt lat="41.9147947" lon="12.8082296"><ele>201.0</ele><time>2026-04-26T15:39:19.934Z</time></trkpt><trkpt lat="41.914892" lon="12.8078869"><ele>198.0</ele><time>2026-04-26T15:39:20.932Z</time></trkpt><trkpt lat="41.9149882" lon="12.8075472"><ele>195.0</ele><time>2026-04-26T15:39:21.943Z</time></trkpt><trkpt lat="41.9150769" lon="12.8072176"><ele>189.5</ele><time>2026-04-26T15:39:22.936Z</time></trkpt><trkpt lat="41.9151666" lon="12.8068975"><ele>184.0</ele><time>2026-04-26T15:39:23.94Z</time></trkpt><trkpt lat="41.9152558" lon="12.8065887"><ele>184.0</ele><time>2026-04-26T15:39:24.931Z</time></trkpt><trkpt lat="41.9153436" lon="12.8062816"><ele>184.0</ele><time>2026-04-26T15:39:25.939Z</time></trkpt><trkpt lat="41.9154302" lon="12.8059735"><ele>188.0</ele><time>2026-04-26T15:39:26.927Z</time></trkpt><trkpt lat="41.9155158" lon="12.8056642"><ele>192.0</ele><time>2026-04-26T15:39:27.948Z</time></trkpt><trkpt lat="41.9156024" lon="12.8053524"><ele>191.0</ele><time>2026-04-26T15:39:28.932Z</time></trkpt><trkpt lat="41.9156909" lon="12.8050352"><ele>190.0</ele><time>2026-04-26T15:39:29.934Z</time></trkpt><trkpt lat="41.9157779" lon="12.80472"><ele>190.0</ele><time>2026-04-26T15:39:30.934Z</time></trkpt><trkpt lat="41.9158658" lon="12.8044014"><ele>190.0</ele><time>2026-04-26T15:39:31.937Z</time></trkpt><trkpt lat="41.9159537" lon="12.8040808"><ele>187.0</ele><time>2026-04-26T15:39:32.935Z</time></trkpt><trkpt lat="41.916043" lon="12.8037595"><ele>184.0</ele><time>2026-04-26T15:39:33.936Z</time></trkpt><trkpt lat="41.9161331" lon="12.8034379"><ele>183.0</ele><time>2026-04-26T15:39:34.946Z</time></trkpt><trkpt lat="41.9162241" lon="12.8031156"><ele>182.0</ele><time>2026-04-26T15:39:35.931Z</time></trkpt><trkpt lat="41.9163148" lon="12.802793"><ele>179.0</ele><time>2026-04-26T15:39:36.941Z</time></trkpt><trkpt lat="41.9164048" lon="12.8024699"><ele>176.0</ele><time>2026-04-26T15:39:37.932Z</time></trkpt><trkpt lat="41.9164945" lon="12.8021463"><ele>172.5</ele><time>2026-04-26T15:39:38.943Z</time></trkpt><trkpt lat="41.9165843" lon="12.801824"><ele>169.0</ele><time>2026-04-26T15:39:39.941Z</time></trkpt><trkpt lat="41.9166751" lon="12.8015038"><ele>169.0</ele><time>2026-04-26T15:39:40.935Z</time></trkpt><trkpt lat="41.9167645" lon="12.8011869"><ele>169.0</ele><time>2026-04-26T15:39:41.935Z</time></trkpt><trkpt lat="41.9168529" lon="12.8008714"><ele>169.5</ele><time>2026-04-26T15:39:42.936Z</time></trkpt><trkpt lat="41.9169408" lon="12.8005546"><ele>170.0</ele><time>2026-04-26T15:39:43.95Z</time></trkpt><trkpt lat="41.9170291" lon="12.8002388"><ele>172.5</ele><time>2026-04-26T15:39:44.94Z</time></trkpt><trkpt lat="41.9171176" lon="12.7999226"><ele>175.0</ele><time>2026-04-26T15:39:45.935Z</time></trkpt><trkpt lat="41.9172069" lon="12.7996021"><ele>175.5</ele><time>2026-04-26T15:39:46.93Z</time></trkpt><trkpt lat="41.9172976" lon="12.7992773"><ele>176.0</ele><time>2026-04-26T15:39:47.941Z</time></trkpt><trkpt lat="41.9173894" lon="12.798949"><ele>176.0</ele><time>2026-04-26T15:39:48.936Z</time></trkpt><trkpt lat="41.9174825" lon="12.7986155"><ele>176.0</ele><time>2026-04-26T15:39:49.929Z</time></trkpt><trkpt lat="41.9175767" lon="12.798279"><ele>174.5</ele><time>2026-04-26T15:39:50.934Z</time></trkpt><trkpt lat="41.9176718" lon="12.7979427"><ele>173.0</ele><time>2026-04-26T15:39:51.944Z</time></trkpt><trkpt lat="41.9177656" lon="12.7976071"><ele>173.0</ele><time>2026-04-26T15:39:52.937Z</time></trkpt><trkpt lat="41.917859" lon="12.7972695"><ele>173.0</ele><time>2026-04-26T15:39:53.937Z</time></trkpt><trkpt lat="41.9179515" lon="12.7969329"><ele>172.0</ele><time>2026-04-26T15:39:54.946Z</time></trkpt><trkpt lat="41.918043" lon="12.7965971"><ele>171.0</ele><time>2026-04-26T15:39:55.941Z</time></trkpt><trkpt lat="41.9181362" lon="12.7962601"><ele>171.0</ele><time>2026-04-26T15:39:56.938Z</time></trkpt><trkpt lat="41.9182304" lon="12.7959267"><ele>171.0</ele><time>2026-04-26T15:39:57.942Z</time></trkpt><trkpt lat="41.9183248" lon="12.795593"><ele>167.5</ele><time>2026-04-26T15:39:58.94Z</time></trkpt><trkpt lat="41.9184175" lon="12.7952587"><ele>164.0</ele><time>2026-04-26T15:39:59.941Z</time></trkpt><trkpt lat="41.9185095" lon="12.7949229"><ele>164.0</ele><time>2026-04-26T15:40:00.943Z</time></trkpt><trkpt lat="41.9186033" lon="12.7945849"><ele>164.0</ele><time>2026-04-26T15:40:01.949Z</time></trkpt><trkpt lat="41.918698" lon="12.7942433"><ele>164.0</ele><time>2026-04-26T15:40:02.933Z</time></trkpt><trkpt lat="41.9187948" lon="12.7938962"><ele>164.0</ele><time>2026-04-26T15:40:03.934Z</time></trkpt><trkpt lat="41.9188936" lon="12.7935433"><ele>163.0</ele><time>2026-04-26T15:40:04.929Z</time></trkpt><trkpt lat="41.9189934" lon="12.7931868"><ele>162.0</ele><time>2026-04-26T15:40:05.954Z</time></trkpt><trkpt lat="41.9190931" lon="12.792833"><ele>160.5</ele><time>2026-04-26T15:40:06.946Z</time></trkpt><trkpt lat="41.919201" lon="12.7924667"><ele>159.0</ele><time>2026-04-26T15:40:07.952Z</time></trkpt><trkpt lat="41.9193053" lon="12.7920999"><ele>157.0</ele><time>2026-04-26T15:40:08.938Z</time></trkpt><trkpt lat="41.9194101" lon="12.7917319"><ele>155.0</ele><time>2026-04-26T15:40:09.943Z</time></trkpt><trkpt lat="41.9195149" lon="12.7913576"><ele>154.0</ele><time>2026-04-26T15:40:10.942Z</time></trkpt><trkpt lat="41.9196226" lon="12.7909729"><ele>153.0</ele><time>2026-04-26T15:40:11.951Z</time></trkpt><trkpt lat="41.919731" lon="12.7905816"><ele>153.0</ele><time>2026-04-26T15:40:12.954Z</time></trkpt><trkpt lat="41.9198384" lon="12.7901872"><ele>153.0</ele><time>2026-04-26T15:40:13.961Z</time></trkpt><trkpt lat="41.9199481" lon="12.7897944"><ele>151.0</ele><time>2026-04-26T15:40:14.945Z</time></trkpt><trkpt lat="41.9200576" lon="12.789398"><ele>149.0</ele><time>2026-04-26T15:40:15.929Z</time></trkpt><trkpt lat="41.9201671" lon="12.7890033"><ele>147.0</ele><time>2026-04-26T15:40:16.937Z</time></trkpt><trkpt lat="41.9202781" lon="12.7886062"><ele>145.0</ele><time>2026-04-26T15:40:17.944Z</time></trkpt><trkpt lat="41.9203894" lon="12.7882095"><ele>145.0</ele><time>2026-04-26T15:40:18.939Z</time></trkpt><trkpt lat="41.9204996" lon="12.787813"><ele>145.0</ele><time>2026-04-26T15:40:19.936Z</time></trkpt><trkpt lat="41.9206061" lon="12.7874171"><ele>143.0</ele><time>2026-04-26T15:40:20.938Z</time></trkpt><trkpt lat="41.9207163" lon="12.7870202"><ele>141.0</ele><time>2026-04-26T15:40:21.935Z</time></trkpt><trkpt lat="41.9208262" lon="12.7866255"><ele>140.0</ele><time>2026-04-26T15:40:22.944Z</time></trkpt><trkpt lat="41.9209384" lon="12.7862327"><ele>139.0</ele><time>2026-04-26T15:40:23.943Z</time></trkpt><trkpt lat="41.9210484" lon="12.7858415"><ele>137.5</ele><time>2026-04-26T15:40:24.934Z</time></trkpt><trkpt lat="41.9211571" lon="12.7854539"><ele>136.0</ele><time>2026-04-26T15:40:25.931Z</time></trkpt><trkpt lat="41.9212652" lon="12.7850702"><ele>135.5</ele><time>2026-04-26T15:40:26.94Z</time></trkpt><trkpt lat="41.9213731" lon="12.7846909"><ele>135.0</ele><time>2026-04-26T15:40:27.939Z</time></trkpt><trkpt lat="41.9214792" lon="12.7843154"><ele>134.0</ele><time>2026-04-26T15:40:28.938Z</time></trkpt><trkpt lat="41.921584" lon="12.7839435"><ele>133.0</ele><time>2026-04-26T15:40:29.937Z</time></trkpt><trkpt lat="41.9216869" lon="12.7835742"><ele>129.5</ele><time>2026-04-26T15:40:30.923Z</time></trkpt><trkpt lat="41.9217884" lon="12.7832061"><ele>126.0</ele><time>2026-04-26T15:40:31.945Z</time></trkpt><trkpt lat="41.9218896" lon="12.7828411"><ele>126.5</ele><time>2026-04-26T15:40:32.931Z</time></trkpt><trkpt lat="41.9219904" lon="12.7824801"><ele>127.0</ele><time>2026-04-26T15:40:33.94Z</time></trkpt><trkpt lat="41.9220917" lon="12.7821219"><ele>126.5</ele><time>2026-04-26T15:40:34.936Z</time></trkpt><trkpt lat="41.9221927" lon="12.7817656"><ele>126.0</ele><time>2026-04-26T15:40:35.929Z</time></trkpt><trkpt lat="41.9222924" lon="12.7814104"><ele>126.0</ele><time>2026-04-26T15:40:36.937Z</time></trkpt><trkpt lat="41.922392" lon="12.7810539"><ele>126.0</ele><time>2026-04-26T15:40:37.927Z</time></trkpt><trkpt lat="41.9224915" lon="12.7806951"><ele>124.5</ele><time>2026-04-26T15:40:38.935Z</time></trkpt><trkpt lat="41.9225926" lon="12.7803333"><ele>123.0</ele><time>2026-04-26T15:40:39.951Z</time></trkpt><trkpt lat="41.9226944" lon="12.7799691"><ele>123.0</ele><time>2026-04-26T15:40:40.938Z</time></trkpt><trkpt lat="41.9227962" lon="12.7796046"><ele>123.0</ele><time>2026-04-26T15:40:41.944Z</time></trkpt><trkpt lat="41.9228969" lon="12.7792424"><ele>122.0</ele><time>2026-04-26T15:40:42.946Z</time></trkpt><trkpt lat="41.9229975" lon="12.7788812"><ele>121.0</ele><time>2026-04-26T15:40:43.934Z</time></trkpt><trkpt lat="41.9230972" lon="12.7785203"><ele>121.5</ele><time>2026-04-26T15:40:44.939Z</time></trkpt><trkpt lat="41.9231976" lon="12.7781581"><ele>122.0</ele><time>2026-04-26T15:40:45.929Z</time></trkpt><trkpt lat="41.9233" lon="12.7777878"><ele>119.5</ele><time>2026-04-26T15:40:46.937Z</time></trkpt><trkpt lat="41.9234039" lon="12.7774144"><ele>117.0</ele><time>2026-04-26T15:40:47.946Z</time></trkpt><trkpt lat="41.9235086" lon="12.7770386"><ele>117.5</ele><time>2026-04-26T15:40:48.935Z</time></trkpt><trkpt lat="41.9236135" lon="12.7766617"><ele>118.0</ele><time>2026-04-26T15:40:49.951Z</time></trkpt><trkpt lat="41.9237182" lon="12.776284"><ele>116.5</ele><time>2026-04-26T15:40:50.932Z</time></trkpt><trkpt lat="41.9238232" lon="12.7759062"><ele>115.0</ele><time>2026-04-26T15:40:51.944Z</time></trkpt><trkpt lat="41.9239287" lon="12.7755279"><ele>112.0</ele><time>2026-04-26T15:40:52.943Z</time></trkpt><trkpt lat="41.9240348" lon="12.7751489"><ele>109.0</ele><time>2026-04-26T15:40:53.935Z</time></trkpt><trkpt lat="41.9241398" lon="12.7747689"><ele>108.5</ele><time>2026-04-26T15:40:54.923Z</time></trkpt><trkpt lat="41.924245" lon="12.7743917"><ele>108.0</ele><time>2026-04-26T15:40:55.944Z</time></trkpt><trkpt lat="41.9243497" lon="12.7740193"><ele>105.5</ele><time>2026-04-26T15:40:56.93Z</time></trkpt><trkpt lat="41.924453" lon="12.7736513"><ele>103.0</ele><time>2026-04-26T15:40:57.942Z</time></trkpt><trkpt lat="41.9245554" lon="12.7732883"><ele>97.5</ele><time>2026-04-26T15:40:58.96Z</time></trkpt><trkpt lat="41.9246579" lon="12.7729306"><ele>92.0</ele><time>2026-04-26T15:40:59.935Z</time></trkpt><trkpt lat="41.9247589" lon="12.7725758"><ele>91.0</ele><time>2026-04-26T15:41:00.926Z</time></trkpt><trkpt lat="41.9248599" lon="12.7722204"><ele>90.0</ele><time>2026-04-26T15:41:01.96Z</time></trkpt><trkpt lat="41.9249593" lon="12.771865"><ele>86.5</ele><time>2026-04-26T15:41:02.942Z</time></trkpt><trkpt lat="41.9250588" lon="12.7715084"><ele>83.0</ele><time>2026-04-26T15:41:03.938Z</time></trkpt><trkpt lat="41.9251576" lon="12.7711498"><ele>89.0</ele><time>2026-04-26T15:41:04.94Z</time></trkpt><trkpt lat="41.9252564" lon="12.7707875"><ele>95.0</ele><time>2026-04-26T15:41:05.93Z</time></trkpt><trkpt lat="41.9253571" lon="12.7704224"><ele>101.0</ele><time>2026-04-26T15:41:06.955Z</time></trkpt><trkpt lat="41.9254581" lon="12.7700546"><ele>107.0</ele><time>2026-04-26T15:41:07.949Z</time></trkpt><trkpt lat="41.9255598" lon="12.7696846"><ele>107.0</ele><time>2026-04-26T15:41:08.945Z</time></trkpt><trkpt lat="41.9256627" lon="12.7693124"><ele>107.0</ele><time>2026-04-26T15:41:09.933Z</time></trkpt><trkpt lat="41.9257673" lon="12.7689404"><ele>107.0</ele><time>2026-04-26T15:41:10.944Z</time></trkpt><trkpt lat="41.9258724" lon="12.7685659"><ele>107.0</ele><time>2026-04-26T15:41:11.945Z</time></trkpt><trkpt lat="41.9259778" lon="12.7681888"><ele>107.0</ele><time>2026-04-26T15:41:12.936Z</time></trkpt><trkpt lat="41.9260827" lon="12.7678089"><ele>107.0</ele><time>2026-04-26T15:41:13.968Z</time></trkpt><trkpt lat="41.9261869" lon="12.767427"><ele>107.0</ele><time>2026-04-26T15:41:14.912Z</time></trkpt><trkpt lat="41.9262902" lon="12.767043"><ele>107.0</ele><time>2026-04-26T15:41:15.942Z</time></trkpt><trkpt lat="41.9263924" lon="12.7666562"><ele>106.0</ele><time>2026-04-26T15:41:16.935Z</time></trkpt><trkpt lat="41.9264916" lon="12.7662674"><ele>105.0</ele><time>2026-04-26T15:41:17.936Z</time></trkpt><trkpt lat="41.926586" lon="12.765876"><ele>103.5</ele><time>2026-04-26T15:41:18.923Z</time></trkpt><trkpt lat="41.9266777" lon="12.7654807"><ele>102.0</ele><time>2026-04-26T15:41:19.936Z</time></trkpt><trkpt lat="41.9267694" lon="12.7650775"><ele>101.5</ele><time>2026-04-26T15:41:20.928Z</time></trkpt><trkpt lat="41.9268594" lon="12.7646678"><ele>101.0</ele><time>2026-04-26T15:41:21.936Z</time></trkpt><trkpt lat="41.9269473" lon="12.7642528"><ele>101.0</ele><time>2026-04-26T15:41:22.922Z</time></trkpt><trkpt lat="41.9270309" lon="12.7638316"><ele>101.0</ele><time>2026-04-26T15:41:23.949Z</time></trkpt><trkpt lat="41.9271101" lon="12.7634072"><ele>97.0</ele><time>2026-04-26T15:41:24.935Z</time></trkpt><trkpt lat="41.9271849" lon="12.7629825"><ele>93.0</ele><time>2026-04-26T15:41:25.937Z</time></trkpt><trkpt lat="41.9272559" lon="12.7625582"><ele>86.5</ele><time>2026-04-26T15:41:26.939Z</time></trkpt><trkpt lat="41.9273239" lon="12.7621352"><ele>80.0</ele><time>2026-04-26T15:41:27.933Z</time></trkpt><trkpt lat="41.9273889" lon="12.7617155"><ele>76.5</ele><time>2026-04-26T15:41:28.936Z</time></trkpt><trkpt lat="41.9274497" lon="12.7612983"><ele>73.0</ele><time>2026-04-26T15:41:29.93Z</time></trkpt><trkpt lat="41.9275064" lon="12.7608839"><ele>70.0</ele><time>2026-04-26T15:41:30.927Z</time></trkpt><trkpt lat="41.927558" lon="12.7604727"><ele>67.0</ele><time>2026-04-26T15:41:31.921Z</time></trkpt><trkpt lat="41.9276048" lon="12.7600654"><ele>67.0</ele><time>2026-04-26T15:41:32.933Z</time></trkpt><trkpt lat="41.9276478" lon="12.7596615"><ele>67.0</ele><time>2026-04-26T15:41:33.931Z</time></trkpt><trkpt lat="41.9276862" lon="12.759261"><ele>65.0</ele><time>2026-04-26T15:41:34.937Z</time></trkpt><trkpt lat="41.9277222" lon="12.7588645"><ele>63.0</ele><time>2026-04-26T15:41:35.949Z</time></trkpt><trkpt lat="41.9277544" lon="12.7584708"><ele>62.0</ele><time>2026-04-26T15:41:36.955Z</time></trkpt><trkpt lat="41.9277821" lon="12.7580799"><ele>61.0</ele><time>2026-04-26T15:41:37.938Z</time></trkpt><trkpt lat="41.9278066" lon="12.7576921"><ele>61.0</ele><time>2026-04-26T15:41:38.944Z</time></trkpt><trkpt lat="41.927828" lon="12.7573071"><ele>61.0</ele><time>2026-04-26T15:41:39.926Z</time></trkpt><trkpt lat="41.9278461" lon="12.7569265"><ele>62.5</ele><time>2026-04-26T15:41:40.955Z</time></trkpt><trkpt lat="41.9278611" lon="12.7565509"><ele>64.0</ele><time>2026-04-26T15:41:41.952Z</time></trkpt><trkpt lat="41.927873" lon="12.7561769"><ele>65.5</ele><time>2026-04-26T15:41:42.933Z</time></trkpt><trkpt lat="41.9278815" lon="12.7558031"><ele>67.0</ele><time>2026-04-26T15:41:43.941Z</time></trkpt><trkpt lat="41.9278876" lon="12.7554275"><ele>67.0</ele><time>2026-04-26T15:41:44.931Z</time></trkpt><trkpt lat="41.927891" lon="12.7550501"><ele>67.0</ele><time>2026-04-26T15:41:45.937Z</time></trkpt><trkpt lat="41.9278928" lon="12.7546703"><ele>66.0</ele><time>2026-04-26T15:41:46.947Z</time></trkpt><trkpt lat="41.9278925" lon="12.7542886"><ele>65.0</ele><time>2026-04-26T15:41:47.94Z</time></trkpt><trkpt lat="41.9278893" lon="12.7539047"><ele>66.5</ele><time>2026-04-26T15:41:48.948Z</time></trkpt><trkpt lat="41.9278817" lon="12.7535184"><ele>68.0</ele><time>2026-04-26T15:41:49.936Z</time></trkpt><trkpt lat="41.9278757" lon="12.753164"><ele>68.0</ele><time>2026-04-26T15:41:50.94Z</time></trkpt><trkpt lat="41.9278552" lon="12.7527876"><ele>68.0</ele><time>2026-04-26T15:41:51.937Z</time></trkpt><trkpt lat="41.927839" lon="12.7524001"><ele>71.5</ele><time>2026-04-26T15:41:52.945Z</time></trkpt><trkpt lat="41.9278277" lon="12.7520077"><ele>75.0</ele><time>2026-04-26T15:41:53.927Z</time></trkpt><trkpt lat="41.9278144" lon="12.7516138"><ele>76.5</ele><time>2026-04-26T15:41:54.929Z</time></trkpt><trkpt lat="41.9278014" lon="12.7512211"><ele>78.0</ele><time>2026-04-26T15:41:55.935Z</time></trkpt><trkpt lat="41.927788" lon="12.750828"><ele>78.0</ele><time>2026-04-26T15:41:56.961Z</time></trkpt><trkpt lat="41.9277753" lon="12.7504363"><ele>78.0</ele><time>2026-04-26T15:41:57.942Z</time></trkpt><trkpt lat="41.9277627" lon="12.75004"><ele>77.5</ele><time>2026-04-26T15:41:58.944Z</time></trkpt><trkpt lat="41.9277495" lon="12.7496384"><ele>77.0</ele><time>2026-04-26T15:41:59.942Z</time></trkpt><trkpt lat="41.9277363" lon="12.7492314"><ele>73.5</ele><time>2026-04-26T15:42:00.934Z</time></trkpt><trkpt lat="41.9277203" lon="12.7488217"><ele>70.0</ele><time>2026-04-26T15:42:01.939Z</time></trkpt><trkpt lat="41.9277073" lon="12.7484047"><ele>64.5</ele><time>2026-04-26T15:42:02.933Z</time></trkpt><trkpt lat="41.9276927" lon="12.7479877"><ele>59.0</ele><time>2026-04-26T15:42:03.953Z</time></trkpt><trkpt lat="41.9276811" lon="12.7475699"><ele>55.0</ele><time>2026-04-26T15:42:04.937Z</time></trkpt><trkpt lat="41.9276673" lon="12.7471488"><ele>51.0</ele><time>2026-04-26T15:42:05.939Z</time></trkpt><trkpt lat="41.927654" lon="12.7467253"><ele>48.5</ele><time>2026-04-26T15:42:06.946Z</time></trkpt><trkpt lat="41.9276384" lon="12.7463008"><ele>46.0</ele><time>2026-04-26T15:42:07.939Z</time></trkpt><trkpt lat="41.9276244" lon="12.7458765"><ele>46.0</ele><time>2026-04-26T15:42:08.943Z</time></trkpt><trkpt lat="41.9276098" lon="12.7454515"><ele>46.0</ele><time>2026-04-26T15:42:09.959Z</time></trkpt><trkpt lat="41.9275948" lon="12.7450258"><ele>46.0</ele><time>2026-04-26T15:42:10.935Z</time></trkpt><trkpt lat="41.9275791" lon="12.7446016"><ele>46.0</ele><time>2026-04-26T15:42:11.929Z</time></trkpt><trkpt lat="41.9275636" lon="12.744178"><ele>47.0</ele><time>2026-04-26T15:42:12.935Z</time></trkpt><trkpt lat="41.9275492" lon="12.7437548"><ele>48.0</ele><time>2026-04-26T15:42:13.953Z</time></trkpt><trkpt lat="41.9275356" lon="12.743334"><ele>47.5</ele><time>2026-04-26T15:42:14.936Z</time></trkpt><trkpt lat="41.9275213" lon="12.7429159"><ele>47.0</ele><time>2026-04-26T15:42:15.941Z</time></trkpt><trkpt lat="41.9275072" lon="12.7424996"><ele>47.0</ele><time>2026-04-26T15:42:16.943Z</time></trkpt><trkpt lat="41.9274929" lon="12.7420844"><ele>47.0</ele><time>2026-04-26T15:42:17.936Z</time></trkpt><trkpt lat="41.9274785" lon="12.7416717"><ele>47.0</ele><time>2026-04-26T15:42:18.941Z</time></trkpt><trkpt lat="41.9274651" lon="12.7412605"><ele>47.0</ele><time>2026-04-26T15:42:19.936Z</time></trkpt><trkpt lat="41.9274525" lon="12.7408486"><ele>48.0</ele><time>2026-04-26T15:42:20.946Z</time></trkpt><trkpt lat="41.9274455" lon="12.7404366"><ele>49.0</ele><time>2026-04-26T15:42:21.941Z</time></trkpt><trkpt lat="41.927431" lon="12.7400345"><ele>49.0</ele><time>2026-04-26T15:42:22.929Z</time></trkpt><trkpt lat="41.9274153" lon="12.7396217"><ele>49.0</ele><time>2026-04-26T15:42:23.929Z</time></trkpt><trkpt lat="41.9274004" lon="12.7392153"><ele>49.5</ele><time>2026-04-26T15:42:24.944Z</time></trkpt><trkpt lat="41.9273804" lon="12.7388039"><ele>50.0</ele><time>2026-04-26T15:42:25.931Z</time></trkpt><trkpt lat="41.9273635" lon="12.7383936"><ele>50.5</ele><time>2026-04-26T15:42:26.937Z</time></trkpt><trkpt lat="41.9273466" lon="12.7379756"><ele>51.0</ele><time>2026-04-26T15:42:27.936Z</time></trkpt><trkpt lat="41.9273329" lon="12.7375398"><ele>51.0</ele><time>2026-04-26T15:42:28.946Z</time></trkpt><trkpt lat="41.9273181" lon="12.7370726"><ele>51.0</ele><time>2026-04-26T15:42:29.935Z</time></trkpt><trkpt lat="41.9273018" lon="12.7365846"><ele>49.5</ele><time>2026-04-26T15:42:30.949Z</time></trkpt><trkpt lat="41.9272861" lon="12.7361005"><ele>48.0</ele><time>2026-04-26T15:42:31.951Z</time></trkpt><trkpt lat="41.9272699" lon="12.7356268"><ele>46.5</ele><time>2026-04-26T15:42:32.938Z</time></trkpt><trkpt lat="41.9272526" lon="12.7351624"><ele>45.0</ele><time>2026-04-26T15:42:33.933Z</time></trkpt><trkpt lat="41.9272351" lon="12.7347057"><ele>44.0</ele><time>2026-04-26T15:42:34.931Z</time></trkpt><trkpt lat="41.9272196" lon="12.7342585"><ele>43.0</ele><time>2026-04-26T15:42:35.942Z</time></trkpt><trkpt lat="41.9272063" lon="12.7338184"><ele>42.0</ele><time>2026-04-26T15:42:36.935Z</time></trkpt><trkpt lat="41.9271919" lon="12.7333849"><ele>41.0</ele><time>2026-04-26T15:42:37.939Z</time></trkpt><trkpt lat="41.9271785" lon="12.7329559"><ele>40.5</ele><time>2026-04-26T15:42:38.992Z</time></trkpt><trkpt lat="41.9271647" lon="12.7325308"><ele>40.0</ele><time>2026-04-26T15:42:39.932Z</time></trkpt><trkpt lat="41.9271493" lon="12.7321088"><ele>38.5</ele><time>2026-04-26T15:42:40.919Z</time></trkpt><trkpt lat="41.9271339" lon="12.7316873"><ele>37.0</ele><time>2026-04-26T15:42:41.955Z</time></trkpt><trkpt lat="41.9271196" lon="12.7312671"><ele>36.5</ele><time>2026-04-26T15:42:42.931Z</time></trkpt><trkpt lat="41.9271055" lon="12.7308494"><ele>36.0</ele><time>2026-04-26T15:42:43.933Z</time></trkpt><trkpt lat="41.9270909" lon="12.7304313"><ele>36.5</ele><time>2026-04-26T15:42:44.926Z</time></trkpt><trkpt lat="41.9270762" lon="12.730013"><ele>37.0</ele><time>2026-04-26T15:42:45.94Z</time></trkpt><trkpt lat="41.9270623" lon="12.7295925"><ele>37.5</ele><time>2026-04-26T15:42:46.934Z</time></trkpt><trkpt lat="41.9270473" lon="12.729172"><ele>38.0</ele><time>2026-04-26T15:42:47.941Z</time></trkpt><trkpt lat="41.9270336" lon="12.7287503"><ele>38.5</ele><time>2026-04-26T15:42:48.946Z</time></trkpt><trkpt lat="41.92702" lon="12.7283305"><ele>39.0</ele><time>2026-04-26T15:42:49.95Z</time></trkpt><trkpt lat="41.9270052" lon="12.7279101"><ele>40.0</ele><time>2026-04-26T15:42:50.939Z</time></trkpt><trkpt lat="41.9269911" lon="12.7274917"><ele>41.0</ele><time>2026-04-26T15:42:51.931Z</time></trkpt><trkpt lat="41.926977" lon="12.7270735"><ele>41.5</ele><time>2026-04-26T15:42:52.93Z</time></trkpt><trkpt lat="41.9269628" lon="12.7266538"><ele>42.0</ele><time>2026-04-26T15:42:53.946Z</time></trkpt><trkpt lat="41.9269488" lon="12.7262312"><ele>42.0</ele><time>2026-04-26T15:42:54.931Z</time></trkpt><trkpt lat="41.9269349" lon="12.7258051"><ele>42.0</ele><time>2026-04-26T15:42:55.943Z</time></trkpt><trkpt lat="41.9269198" lon="12.7253757"><ele>41.5</ele><time>2026-04-26T15:42:56.93Z</time></trkpt><trkpt lat="41.9269047" lon="12.724944"><ele>41.0</ele><time>2026-04-26T15:42:57.945Z</time></trkpt><trkpt lat="41.9268905" lon="12.7245099"><ele>40.0</ele><time>2026-04-26T15:42:58.937Z</time></trkpt><trkpt lat="41.9268766" lon="12.7240726"><ele>39.0</ele><time>2026-04-26T15:42:59.932Z</time></trkpt><trkpt lat="41.9268618" lon="12.7236332"><ele>38.5</ele><time>2026-04-26T15:43:00.951Z</time></trkpt><trkpt lat="41.9268467" lon="12.7231923"><ele>38.0</ele><time>2026-04-26T15:43:01.951Z</time></trkpt><trkpt lat="41.926831" lon="12.7227504"><ele>39.0</ele><time>2026-04-26T15:43:02.94Z</time></trkpt><trkpt lat="41.926815" lon="12.7223076"><ele>40.0</ele><time>2026-04-26T15:43:03.931Z</time></trkpt><trkpt lat="41.9268003" lon="12.7218669"><ele>40.5</ele><time>2026-04-26T15:43:04.925Z</time></trkpt><trkpt lat="41.9267865" lon="12.7214286"><ele>41.0</ele><time>2026-04-26T15:43:05.943Z</time></trkpt><trkpt lat="41.9267728" lon="12.7209934"><ele>40.0</ele><time>2026-04-26T15:43:06.929Z</time></trkpt><trkpt lat="41.9267577" lon="12.7205623"><ele>39.0</ele><time>2026-04-26T15:43:07.941Z</time></trkpt><trkpt lat="41.9267425" lon="12.7201367"><ele>39.0</ele><time>2026-04-26T15:43:08.926Z</time></trkpt><trkpt lat="41.9267268" lon="12.7197157"><ele>39.0</ele><time>2026-04-26T15:43:09.934Z</time></trkpt><trkpt lat="41.9267115" lon="12.7193004"><ele>40.0</ele><time>2026-04-26T15:43:10.93Z</time></trkpt><trkpt lat="41.9266963" lon="12.7188879"><ele>41.0</ele><time>2026-04-26T15:43:11.915Z</time></trkpt><trkpt lat="41.9266813" lon="12.7184787"><ele>41.0</ele><time>2026-04-26T15:43:12.934Z</time></trkpt><trkpt lat="41.9266672" lon="12.7180717"><ele>41.0</ele><time>2026-04-26T15:43:13.939Z</time></trkpt><trkpt lat="41.9266538" lon="12.7176701"><ele>40.0</ele><time>2026-04-26T15:43:14.931Z</time></trkpt><trkpt lat="41.9266411" lon="12.7172753"><ele>39.0</ele><time>2026-04-26T15:43:15.947Z</time></trkpt><trkpt lat="41.9266286" lon="12.7168871"><ele>37.5</ele><time>2026-04-26T15:43:16.934Z</time></trkpt><trkpt lat="41.9266168" lon="12.7165066"><ele>36.0</ele><time>2026-04-26T15:43:17.941Z</time></trkpt><trkpt lat="41.9266042" lon="12.7161332"><ele>36.5</ele><time>2026-04-26T15:43:18.941Z</time></trkpt><trkpt lat="41.9265908" lon="12.7157673"><ele>37.0</ele><time>2026-04-26T15:43:19.939Z</time></trkpt><trkpt lat="41.9265763" lon="12.7154093"><ele>36.5</ele><time>2026-04-26T15:43:20.943Z</time></trkpt><trkpt lat="41.926562" lon="12.7150631"><ele>36.0</ele><time>2026-04-26T15:43:21.947Z</time></trkpt><trkpt lat="41.9265494" lon="12.7147326"><ele>36.0</ele><time>2026-04-26T15:43:22.939Z</time></trkpt><trkpt lat="41.9265384" lon="12.7144186"><ele>36.0</ele><time>2026-04-26T15:43:23.941Z</time></trkpt><trkpt lat="41.9265297" lon="12.7141201"><ele>37.666666666666664</ele><time>2026-04-26T15:43:24.95Z</time></trkpt><trkpt lat="41.9265212" lon="12.7138356"><ele>39.33333333333333</ele><time>2026-04-26T15:43:25.939Z</time></trkpt><trkpt lat="41.9265133" lon="12.7135642"><ele>41.0</ele><time>2026-04-26T15:43:26.94Z</time></trkpt><trkpt lat="41.9265051" lon="12.7132976"><ele>41.33333333333333</ele><time>2026-04-26T15:43:27.944Z</time></trkpt><trkpt lat="41.9264962" lon="12.7130343"><ele>41.666666666666664</ele><time>2026-04-26T15:43:28.927Z</time></trkpt><trkpt lat="41.9264874" lon="12.7127738"><ele>42.0</ele><time>2026-04-26T15:43:29.944Z</time></trkpt><trkpt lat="41.9264782" lon="12.7125176"><ele>40.666666666666664</ele><time>2026-04-26T15:43:30.936Z</time></trkpt><trkpt lat="41.9264689" lon="12.7122653"><ele>39.33333333333333</ele><time>2026-04-26T15:43:31.935Z</time></trkpt><trkpt lat="41.9264609" lon="12.7120155"><ele>38.0</ele><time>2026-04-26T15:43:32.936Z</time></trkpt><trkpt lat="41.9264524" lon="12.7117646"><ele>37.666666666666664</ele><time>2026-04-26T15:43:33.941Z</time></trkpt><trkpt lat="41.9264432" lon="12.7115061"><ele>37.333333333333336</ele><time>2026-04-26T15:43:34.931Z</time></trkpt><trkpt lat="41.926433" lon="12.7112409"><ele>37.0</ele><time>2026-04-26T15:43:35.935Z</time></trkpt><trkpt lat="41.9264217" lon="12.7109728"><ele>37.0</ele><time>2026-04-26T15:43:36.936Z</time></trkpt><trkpt lat="41.9264097" lon="12.7107018"><ele>37.0</ele><time>2026-04-26T15:43:37.937Z</time></trkpt><trkpt lat="41.926399" lon="12.7104297"><ele>37.0</ele><time>2026-04-26T15:43:38.933Z</time></trkpt><trkpt lat="41.9263906" lon="12.7101585"><ele>38.0</ele><time>2026-04-26T15:43:39.936Z</time></trkpt><trkpt lat="41.926382" lon="12.7098888"><ele>39.0</ele><time>2026-04-26T15:43:40.94Z</time></trkpt><trkpt lat="41.9263735" lon="12.7096235"><ele>40.0</ele><time>2026-04-26T15:43:41.94Z</time></trkpt><trkpt lat="41.9263669" lon="12.709367"><ele>41.66666666666667</ele><time>2026-04-26T15:43:42.933Z</time></trkpt><trkpt lat="41.9263631" lon="12.7091252"><ele>43.333333333333336</ele><time>2026-04-26T15:43:43.946Z</time></trkpt><trkpt lat="41.9263606" lon="12.7088991"><ele>45.0</ele><time>2026-04-26T15:43:44.924Z</time></trkpt><trkpt lat="41.9263604" lon="12.7086888"><ele>45.25</ele><time>2026-04-26T15:43:45.944Z</time></trkpt><trkpt lat="41.9263608" lon="12.7084929"><ele>45.5</ele><time>2026-04-26T15:43:46.939Z</time></trkpt><trkpt lat="41.9263622" lon="12.7083084"><ele>45.75</ele><time>2026-04-26T15:43:47.931Z</time></trkpt><trkpt lat="41.9263642" lon="12.7081341"><ele>46.0</ele><time>2026-04-26T15:43:48.934Z</time></trkpt><trkpt lat="41.9263666" lon="12.7079592"><ele>46.0</ele><time>2026-04-26T15:43:49.937Z</time></trkpt><trkpt lat="41.9263703" lon="12.7077811"><ele>46.0</ele><time>2026-04-26T15:43:50.926Z</time></trkpt><trkpt lat="41.9263756" lon="12.7076"><ele>46.0</ele><time>2026-04-26T15:43:51.933Z</time></trkpt><trkpt lat="41.9263821" lon="12.7074159"><ele>46.0</ele><time>2026-04-26T15:43:52.935Z</time></trkpt><trkpt lat="41.926389" lon="12.7072296"><ele>46.25</ele><time>2026-04-26T15:43:53.929Z</time></trkpt><trkpt lat="41.9263953" lon="12.7070418"><ele>46.5</ele><time>2026-04-26T15:43:54.937Z</time></trkpt><trkpt lat="41.9264002" lon="12.7068545"><ele>46.75</ele><time>2026-04-26T15:43:55.935Z</time></trkpt><trkpt lat="41.9264035" lon="12.7066703"><ele>47.0</ele><time>2026-04-26T15:43:56.935Z</time></trkpt><trkpt lat="41.9264051" lon="12.7064938"><ele>47.6</ele><time>2026-04-26T15:43:57.924Z</time></trkpt><trkpt lat="41.9264057" lon="12.7063259"><ele>48.2</ele><time>2026-04-26T15:43:58.928Z</time></trkpt><trkpt lat="41.9264061" lon="12.7061674"><ele>48.8</ele><time>2026-04-26T15:43:59.938Z</time></trkpt><trkpt lat="41.9264061" lon="12.7060245"><ele>49.4</ele><time>2026-04-26T15:44:00.935Z</time></trkpt><trkpt lat="41.9264027" lon="12.7059021"><ele>50.0</ele><time>2026-04-26T15:44:01.929Z</time></trkpt><trkpt lat="41.9263943" lon="12.7057927"><ele>50.16666666666667</ele><time>2026-04-26T15:44:02.928Z</time></trkpt><trkpt lat="41.9263855" lon="12.7056921"><ele>50.333333333333336</ele><time>2026-04-26T15:44:03.928Z</time></trkpt><trkpt lat="41.9263831" lon="12.705598"><ele>50.5</ele><time>2026-04-26T15:44:04.929Z</time></trkpt><trkpt lat="41.9263875" lon="12.7055083"><ele>50.66666666666667</ele><time>2026-04-26T15:44:05.93Z</time></trkpt><trkpt lat="41.9263935" lon="12.7054215"><ele>50.833333333333336</ele><time>2026-04-26T15:44:06.937Z</time></trkpt><trkpt lat="41.9264032" lon="12.7052608"><ele>51.0</ele><time>2026-04-26T15:44:08.923Z</time></trkpt><trkpt lat="41.9263962" lon="12.7051193"><ele>51.166666666666664</ele><time>2026-04-26T15:44:10.933Z</time></trkpt><trkpt lat="41.9263939" lon="12.7049961"><ele>51.33333333333333</ele><time>2026-04-26T15:44:12.934Z</time></trkpt><trkpt lat="41.9264028" lon="12.704891"><ele>51.5</ele><time>2026-04-26T15:44:14.935Z</time></trkpt><trkpt lat="41.9264056" lon="12.7048008"><ele>51.666666666666664</ele><time>2026-04-26T15:44:16.927Z</time></trkpt><trkpt lat="41.9264039" lon="12.7046934"><ele>51.83333333333333</ele><time>2026-04-26T15:44:19.927Z</time></trkpt><trkpt lat="41.9264068" lon="12.704597"><ele>52.0</ele><time>2026-04-26T15:44:22.93Z</time></trkpt><trkpt lat="41.9264208" lon="12.7044774"><ele>51.99999999999999</ele><time>2026-04-26T15:44:37.933Z</time></trkpt><trkpt lat="41.9264285" lon="12.7043532"><ele>52.0</ele><time>2026-04-26T15:44:39.928Z</time></trkpt><trkpt lat="41.9264319" lon="12.7042651"><ele>52.0</ele><time>2026-04-26T15:44:41.929Z</time></trkpt><trkpt lat="41.9264621" lon="12.704128"><ele>52.0</ele><time>2026-04-26T15:44:50.936Z</time></trkpt><trkpt lat="41.9265023" lon="12.7039955"><ele>51.99999999999999</ele><time>2026-04-26T15:45:07.939Z</time></trkpt><trkpt lat="41.9265161" lon="12.7039044"><ele>52.0</ele><time>2026-04-26T15:45:09.925Z</time></trkpt><trkpt lat="41.9265125" lon="12.7037698"><ele>51.99999999999999</ele><time>2026-04-26T15:45:14.929Z</time></trkpt><trkpt lat="41.9265094" lon="12.7036546"><ele>52.0</ele><time>2026-04-26T15:45:17.94Z</time></trkpt><trkpt lat="41.9265097" lon="12.703532"><ele>52.0</ele><time>2026-04-26T15:45:20.926Z</time></trkpt><trkpt lat="41.9265093" lon="12.7034126"><ele>52.0</ele><time>2026-04-26T15:45:22.917Z</time></trkpt><trkpt lat="41.9265013" lon="12.7033203"><ele>51.99999999999999</ele><time>2026-04-26T15:45:23.927Z</time></trkpt><trkpt lat="41.9264917" lon="12.703225"><ele>52.0</ele><time>2026-04-26T15:45:24.919Z</time></trkpt><trkpt lat="41.9264732" lon="12.7031045"><ele>52.75</ele><time>2026-04-26T15:45:25.925Z</time></trkpt><trkpt lat="41.9264556" lon="12.7029659"><ele>53.5</ele><time>2026-04-26T15:45:26.924Z</time></trkpt><trkpt lat="41.9264383" lon="12.7027932"><ele>54.25</ele><time>2026-04-26T15:45:27.924Z</time></trkpt><trkpt lat="41.9264197" lon="12.702599"><ele>55.0</ele><time>2026-04-26T15:45:28.935Z</time></trkpt><trkpt lat="41.9263945" lon="12.7023985"><ele>54.666666666666664</ele><time>2026-04-26T15:45:29.927Z</time></trkpt><trkpt lat="41.9263657" lon="12.7021777"><ele>54.33333333333333</ele><time>2026-04-26T15:45:30.933Z</time></trkpt><trkpt lat="41.9263322" lon="12.7019482"><ele>54.0</ele><time>2026-04-26T15:45:31.944Z</time></trkpt><trkpt lat="41.9262983" lon="12.701701"><ele>54.0</ele><time>2026-04-26T15:45:32.941Z</time></trkpt><trkpt lat="41.9262666" lon="12.7014409"><ele>54.0</ele><time>2026-04-26T15:45:33.935Z</time></trkpt><trkpt lat="41.9262371" lon="12.7011689"><ele>54.0</ele><time>2026-04-26T15:45:34.932Z</time></trkpt><trkpt lat="41.9262093" lon="12.7008868"><ele>53.66666666666667</ele><time>2026-04-26T15:45:35.932Z</time></trkpt><trkpt lat="41.9261789" lon="12.7005953"><ele>53.333333333333336</ele><time>2026-04-26T15:45:36.943Z</time></trkpt><trkpt lat="41.9261515" lon="12.7002992"><ele>53.0</ele><time>2026-04-26T15:45:37.937Z</time></trkpt><trkpt lat="41.9261256" lon="12.699986"><ele>51.5</ele><time>2026-04-26T15:45:38.945Z</time></trkpt><trkpt lat="41.9260982" lon="12.6996574"><ele>50.0</ele><time>2026-04-26T15:45:39.938Z</time></trkpt><trkpt lat="41.9260694" lon="12.6993154"><ele>47.5</ele><time>2026-04-26T15:45:40.942Z</time></trkpt><trkpt lat="41.9260403" lon="12.6989665"><ele>45.0</ele><time>2026-04-26T15:45:41.937Z</time></trkpt><trkpt lat="41.9260109" lon="12.6986101"><ele>42.5</ele><time>2026-04-26T15:45:42.939Z</time></trkpt><trkpt lat="41.9259832" lon="12.698249"><ele>40.0</ele><time>2026-04-26T15:45:43.935Z</time></trkpt><trkpt lat="41.9259553" lon="12.6978851"><ele>38.5</ele><time>2026-04-26T15:45:44.943Z</time></trkpt><trkpt lat="41.9259279" lon="12.6975198"><ele>37.0</ele><time>2026-04-26T15:45:45.933Z</time></trkpt><trkpt lat="41.9258986" lon="12.6971527"><ele>40.5</ele><time>2026-04-26T15:45:46.944Z</time></trkpt><trkpt lat="41.9258667" lon="12.6967837"><ele>44.0</ele><time>2026-04-26T15:45:47.937Z</time></trkpt><trkpt lat="41.9258319" lon="12.6964132"><ele>45.0</ele><time>2026-04-26T15:45:48.934Z</time></trkpt><trkpt lat="41.9257939" lon="12.6960414"><ele>46.0</ele><time>2026-04-26T15:45:49.929Z</time></trkpt><trkpt lat="41.9257523" lon="12.6956662"><ele>46.0</ele><time>2026-04-26T15:45:50.934Z</time></trkpt><trkpt lat="41.9257087" lon="12.6952886"><ele>46.0</ele><time>2026-04-26T15:45:51.932Z</time></trkpt><trkpt lat="41.925663" lon="12.6949064"><ele>46.5</ele><time>2026-04-26T15:45:52.938Z</time></trkpt><trkpt lat="41.9256165" lon="12.6945219"><ele>47.0</ele><time>2026-04-26T15:45:53.929Z</time></trkpt><trkpt lat="41.9255675" lon="12.6941314"><ele>47.0</ele><time>2026-04-26T15:45:54.936Z</time></trkpt><trkpt lat="41.9255147" lon="12.6937391"><ele>47.0</ele><time>2026-04-26T15:45:55.929Z</time></trkpt><trkpt lat="41.9254597" lon="12.6933465"><ele>48.5</ele><time>2026-04-26T15:45:56.934Z</time></trkpt><trkpt lat="41.9254026" lon="12.6929545"><ele>50.0</ele><time>2026-04-26T15:45:57.928Z</time></trkpt><trkpt lat="41.9253434" lon="12.6925608"><ele>50.5</ele><time>2026-04-26T15:45:58.923Z</time></trkpt><trkpt lat="41.9252816" lon="12.6921751"><ele>51.0</ele><time>2026-04-26T15:45:59.943Z</time></trkpt><trkpt lat="41.9252104" lon="12.6917803"><ele>51.0</ele><time>2026-04-26T15:46:00.942Z</time></trkpt><trkpt lat="41.9251379" lon="12.6913843"><ele>51.0</ele><time>2026-04-26T15:46:01.939Z</time></trkpt><trkpt lat="41.9250655" lon="12.690985"><ele>49.0</ele><time>2026-04-26T15:46:02.941Z</time></trkpt><trkpt lat="41.9249911" lon="12.6905885"><ele>47.0</ele><time>2026-04-26T15:46:03.941Z</time></trkpt><trkpt lat="41.9249176" lon="12.6901911"><ele>46.5</ele><time>2026-04-26T15:46:04.927Z</time></trkpt><trkpt lat="41.924842" lon="12.6897917"><ele>46.0</ele><time>2026-04-26T15:46:05.928Z</time></trkpt><trkpt lat="41.924768" lon="12.6893917"><ele>46.0</ele><time>2026-04-26T15:46:06.938Z</time></trkpt><trkpt lat="41.9246888" lon="12.688995"><ele>46.0</ele><time>2026-04-26T15:46:07.936Z</time></trkpt><trkpt lat="41.9246037" lon="12.6885997"><ele>46.0</ele><time>2026-04-26T15:46:08.937Z</time></trkpt><trkpt lat="41.924517" lon="12.6882038"><ele>46.0</ele><time>2026-04-26T15:46:09.932Z</time></trkpt><trkpt lat="41.9244265" lon="12.6878088"><ele>43.5</ele><time>2026-04-26T15:46:10.937Z</time></trkpt><trkpt lat="41.9243347" lon="12.6874154"><ele>41.0</ele><time>2026-04-26T15:46:11.922Z</time></trkpt><trkpt lat="41.9242401" lon="12.6870226"><ele>42.5</ele><time>2026-04-26T15:46:12.927Z</time></trkpt><trkpt lat="41.9241448" lon="12.6866297"><ele>44.0</ele><time>2026-04-26T15:46:13.926Z</time></trkpt><trkpt lat="41.924047" lon="12.6862367"><ele>46.0</ele><time>2026-04-26T15:46:14.933Z</time></trkpt><trkpt lat="41.923946" lon="12.685845"><ele>48.0</ele><time>2026-04-26T15:46:15.931Z</time></trkpt><trkpt lat="41.9238421" lon="12.6854538"><ele>48.5</ele><time>2026-04-26T15:46:16.925Z</time></trkpt><trkpt lat="41.9237365" lon="12.6850609"><ele>49.0</ele><time>2026-04-26T15:46:17.929Z</time></trkpt><trkpt lat="41.9236319" lon="12.6846655"><ele>49.0</ele><time>2026-04-26T15:46:18.93Z</time></trkpt><trkpt lat="41.9235292" lon="12.6842674"><ele>49.0</ele><time>2026-04-26T15:46:19.922Z</time></trkpt><trkpt lat="41.9234265" lon="12.6838684"><ele>49.0</ele><time>2026-04-26T15:46:20.933Z</time></trkpt><trkpt lat="41.9233235" lon="12.6834684"><ele>49.0</ele><time>2026-04-26T15:46:21.939Z</time></trkpt><trkpt lat="41.9232214" lon="12.6830761"><ele>51.0</ele><time>2026-04-26T15:46:22.931Z</time></trkpt><trkpt lat="41.9231216" lon="12.682677"><ele>53.0</ele><time>2026-04-26T15:46:23.926Z</time></trkpt><trkpt lat="41.92302" lon="12.6822739"><ele>54.0</ele><time>2026-04-26T15:46:24.924Z</time></trkpt><trkpt lat="41.922918" lon="12.6818662"><ele>55.0</ele><time>2026-04-26T15:46:25.932Z</time></trkpt><trkpt lat="41.9228143" lon="12.6814584"><ele>54.0</ele><time>2026-04-26T15:46:26.932Z</time></trkpt><trkpt lat="41.9227085" lon="12.6810484"><ele>53.0</ele><time>2026-04-26T15:46:27.93Z</time></trkpt><trkpt lat="41.9226033" lon="12.6806395"><ele>52.0</ele><time>2026-04-26T15:46:28.933Z</time></trkpt><trkpt lat="41.9225011" lon="12.6802284"><ele>51.0</ele><time>2026-04-26T15:46:29.926Z</time></trkpt><trkpt lat="41.9223964" lon="12.6798155"><ele>49.5</ele><time>2026-04-26T15:46:30.932Z</time></trkpt><trkpt lat="41.9222914" lon="12.6794025"><ele>48.0</ele><time>2026-04-26T15:46:31.924Z</time></trkpt><trkpt lat="41.9221869" lon="12.6789875"><ele>46.5</ele><time>2026-04-26T15:46:32.933Z</time></trkpt><trkpt lat="41.9220824" lon="12.6785753"><ele>45.0</ele><time>2026-04-26T15:46:33.928Z</time></trkpt><trkpt lat="41.9219779" lon="12.6781629"><ele>44.5</ele><time>2026-04-26T15:46:34.934Z</time></trkpt><trkpt lat="41.9218741" lon="12.67775"><ele>44.0</ele><time>2026-04-26T15:46:35.936Z</time></trkpt><trkpt lat="41.9217701" lon="12.6773351"><ele>39.5</ele><time>2026-04-26T15:46:36.925Z</time></trkpt><trkpt lat="41.9216664" lon="12.6769221"><ele>35.0</ele><time>2026-04-26T15:46:37.933Z</time></trkpt><trkpt lat="41.9215625" lon="12.6765102"><ele>34.0</ele><time>2026-04-26T15:46:38.931Z</time></trkpt><trkpt lat="41.921458" lon="12.676101"><ele>33.0</ele><time>2026-04-26T15:46:39.937Z</time></trkpt><trkpt lat="41.9213525" lon="12.6756921"><ele>33.0</ele><time>2026-04-26T15:46:40.924Z</time></trkpt><trkpt lat="41.921246" lon="12.6752838"><ele>33.0</ele><time>2026-04-26T15:46:41.936Z</time></trkpt><trkpt lat="41.9211395" lon="12.6748754"><ele>35.5</ele><time>2026-04-26T15:46:42.921Z</time></trkpt><trkpt lat="41.9210315" lon="12.6744678"><ele>38.0</ele><time>2026-04-26T15:46:43.94Z</time></trkpt><trkpt lat="41.9209236" lon="12.6740607"><ele>42.5</ele><time>2026-04-26T15:46:44.927Z</time></trkpt><trkpt lat="41.920817" lon="12.6736622"><ele>47.0</ele><time>2026-04-26T15:46:45.932Z</time></trkpt><trkpt lat="41.9207096" lon="12.673262"><ele>47.0</ele><time>2026-04-26T15:46:46.93Z</time></trkpt><trkpt lat="41.9206056" lon="12.6728645"><ele>47.0</ele><time>2026-04-26T15:46:47.926Z</time></trkpt><trkpt lat="41.9205028" lon="12.6724666"><ele>46.5</ele><time>2026-04-26T15:46:48.929Z</time></trkpt><trkpt lat="41.9203985" lon="12.6720723"><ele>46.0</ele><time>2026-04-26T15:46:49.934Z</time></trkpt><trkpt lat="41.9202976" lon="12.6716837"><ele>44.0</ele><time>2026-04-26T15:46:50.929Z</time></trkpt><trkpt lat="41.9201939" lon="12.6712942"><ele>42.0</ele><time>2026-04-26T15:46:51.926Z</time></trkpt><trkpt lat="41.9200929" lon="12.6709126"><ele>38.5</ele><time>2026-04-26T15:46:52.926Z</time></trkpt><trkpt lat="41.9199917" lon="12.6705339"><ele>35.0</ele><time>2026-04-26T15:46:53.935Z</time></trkpt><trkpt lat="41.9198965" lon="12.6701533"><ele>33.5</ele><time>2026-04-26T15:46:54.93Z</time></trkpt><trkpt lat="41.9197931" lon="12.6697774"><ele>32.0</ele><time>2026-04-26T15:46:55.927Z</time></trkpt><trkpt lat="41.9196906" lon="12.6694069"><ele>32.0</ele><time>2026-04-26T15:46:56.93Z</time></trkpt><trkpt lat="41.9195955" lon="12.6690483"><ele>32.0</ele><time>2026-04-26T15:46:57.93Z</time></trkpt><trkpt lat="41.9195043" lon="12.6686919"><ele>34.0</ele><time>2026-04-26T15:46:58.918Z</time></trkpt><trkpt lat="41.9194121" lon="12.6683458"><ele>36.0</ele><time>2026-04-26T15:46:59.94Z</time></trkpt><trkpt lat="41.9193233" lon="12.6680068"><ele>40.0</ele><time>2026-04-26T15:47:00.925Z</time></trkpt><trkpt lat="41.9192362" lon="12.6676722"><ele>44.0</ele><time>2026-04-26T15:47:01.928Z</time></trkpt><trkpt lat="41.9191517" lon="12.6673374"><ele>44.0</ele><time>2026-04-26T15:47:02.925Z</time></trkpt><trkpt lat="41.9190575" lon="12.6669829"><ele>44.0</ele><time>2026-04-26T15:47:03.945Z</time></trkpt><trkpt lat="41.9189673" lon="12.666625"><ele>42.0</ele><time>2026-04-26T15:47:04.931Z</time></trkpt><trkpt lat="41.9188741" lon="12.6662534"><ele>40.0</ele><time>2026-04-26T15:47:05.921Z</time></trkpt><trkpt lat="41.9187772" lon="12.6658728"><ele>38.5</ele><time>2026-04-26T15:47:06.933Z</time></trkpt><trkpt lat="41.9186909" lon="12.6654857"><ele>37.0</ele><time>2026-04-26T15:47:07.981Z</time></trkpt><trkpt lat="41.9185391" lon="12.664687"><ele>34.5</ele><time>2026-04-26T15:47:09.927Z</time></trkpt><trkpt lat="41.9184823" lon="12.6642802"><ele>32.0</ele><time>2026-04-26T15:47:10.951Z</time></trkpt><trkpt lat="41.9184371" lon="12.6638716"><ele>31.0</ele><time>2026-04-26T15:47:11.927Z</time></trkpt><trkpt lat="41.918403" lon="12.6634607"><ele>30.0</ele><time>2026-04-26T15:47:12.925Z</time></trkpt><trkpt lat="41.9183787" lon="12.6630488"><ele>37.0</ele><time>2026-04-26T15:47:13.917Z</time></trkpt><trkpt lat="41.9183575" lon="12.6626367"><ele>44.0</ele><time>2026-04-26T15:47:14.933Z</time></trkpt><trkpt lat="41.918344" lon="12.6622236"><ele>45.5</ele><time>2026-04-26T15:47:15.934Z</time></trkpt><trkpt lat="41.9183387" lon="12.6618104"><ele>47.0</ele><time>2026-04-26T15:47:16.923Z</time></trkpt><trkpt lat="41.9183442" lon="12.6613981"><ele>47.5</ele><time>2026-04-26T15:47:17.971Z</time></trkpt><trkpt lat="41.9183591" lon="12.6609833"><ele>48.0</ele><time>2026-04-26T15:47:18.933Z</time></trkpt><trkpt lat="41.9184149" lon="12.660159"><ele>46.5</ele><time>2026-04-26T15:47:20.93Z</time></trkpt><trkpt lat="41.9184572" lon="12.6597497"><ele>45.0</ele><time>2026-04-26T15:47:21.931Z</time></trkpt><trkpt lat="41.9185081" lon="12.6593432"><ele>43.0</ele><time>2026-04-26T15:47:22.933Z</time></trkpt><trkpt lat="41.9185702" lon="12.6589385"><ele>41.0</ele><time>2026-04-26T15:47:23.931Z</time></trkpt><trkpt lat="41.9186439" lon="12.6585399"><ele>38.0</ele><time>2026-04-26T15:47:24.934Z</time></trkpt><trkpt lat="41.9187291" lon="12.6581444"><ele>35.0</ele><time>2026-04-26T15:47:25.94Z</time></trkpt><trkpt lat="41.9188244" lon="12.6577516"><ele>34.0</ele><time>2026-04-26T15:47:26.928Z</time></trkpt><trkpt lat="41.9189306" lon="12.6573639"><ele>33.0</ele><time>2026-04-26T15:47:27.949Z</time></trkpt><trkpt lat="41.9190461" lon="12.6569799"><ele>33.5</ele><time>2026-04-26T15:47:28.932Z</time></trkpt><trkpt lat="41.9191682" lon="12.6565996"><ele>34.0</ele><time>2026-04-26T15:47:29.934Z</time></trkpt><trkpt lat="41.9192984" lon="12.6562247"><ele>32.0</ele><time>2026-04-26T15:47:30.935Z</time></trkpt><trkpt lat="41.9194357" lon="12.6558545"><ele>30.0</ele><time>2026-04-26T15:47:31.931Z</time></trkpt><trkpt lat="41.9195809" lon="12.6554901"><ele>33.5</ele><time>2026-04-26T15:47:32.93Z</time></trkpt><trkpt lat="41.919736" lon="12.6551321"><ele>37.0</ele><time>2026-04-26T15:47:33.947Z</time></trkpt><trkpt lat="41.9199003" lon="12.6547821"><ele>33.0</ele><time>2026-04-26T15:47:34.942Z</time></trkpt><trkpt lat="41.9200731" lon="12.6544391"><ele>29.0</ele><time>2026-04-26T15:47:35.926Z</time></trkpt><trkpt lat="41.9202548" lon="12.6541045"><ele>29.0</ele><time>2026-04-26T15:47:36.941Z</time></trkpt><trkpt lat="41.9204443" lon="12.6537766"><ele>29.0</ele><time>2026-04-26T15:47:37.936Z</time></trkpt><trkpt lat="41.9206399" lon="12.6534563"><ele>29.5</ele><time>2026-04-26T15:47:38.936Z</time></trkpt><trkpt lat="41.9208398" lon="12.6531413"><ele>30.0</ele><time>2026-04-26T15:47:39.948Z</time></trkpt><trkpt lat="41.9210411" lon="12.6528279"><ele>32.0</ele><time>2026-04-26T15:47:40.941Z</time></trkpt><trkpt lat="41.9212416" lon="12.6525135"><ele>34.0</ele><time>2026-04-26T15:47:41.933Z</time></trkpt><trkpt lat="41.9214384" lon="12.652195"><ele>33.0</ele><time>2026-04-26T15:47:42.928Z</time></trkpt><trkpt lat="41.9216298" lon="12.651872"><ele>32.0</ele><time>2026-04-26T15:47:43.956Z</time></trkpt><trkpt lat="41.9218157" lon="12.6515445"><ele>32.0</ele><time>2026-04-26T15:47:44.937Z</time></trkpt><trkpt lat="41.9219951" lon="12.6512099"><ele>32.0</ele><time>2026-04-26T15:47:45.935Z</time></trkpt><trkpt lat="41.9221676" lon="12.6508685"><ele>32.5</ele><time>2026-04-26T15:47:46.929Z</time></trkpt><trkpt lat="41.9223313" lon="12.6505198"><ele>33.0</ele><time>2026-04-26T15:47:47.933Z</time></trkpt><trkpt lat="41.9224857" lon="12.6501637"><ele>33.0</ele><time>2026-04-26T15:47:48.937Z</time></trkpt><trkpt lat="41.9226315" lon="12.6498006"><ele>33.0</ele><time>2026-04-26T15:47:49.93Z</time></trkpt><trkpt lat="41.9227693" lon="12.6494315"><ele>31.0</ele><time>2026-04-26T15:47:50.934Z</time></trkpt><trkpt lat="41.9229005" lon="12.649058"><ele>29.0</ele><time>2026-04-26T15:47:51.937Z</time></trkpt><trkpt lat="41.9230241" lon="12.6486805"><ele>29.0</ele><time>2026-04-26T15:47:52.929Z</time></trkpt><trkpt lat="41.923138" lon="12.6482979"><ele>29.0</ele><time>2026-04-26T15:47:53.93Z</time></trkpt><trkpt lat="41.9232435" lon="12.6479107"><ele>28.5</ele><time>2026-04-26T15:47:54.934Z</time></trkpt><trkpt lat="41.9233408" lon="12.64752"><ele>28.0</ele><time>2026-04-26T15:47:55.937Z</time></trkpt><trkpt lat="41.9234291" lon="12.6471253"><ele>27.5</ele><time>2026-04-26T15:47:56.932Z</time></trkpt><trkpt lat="41.9235058" lon="12.6467264"><ele>27.0</ele><time>2026-04-26T15:47:57.93Z</time></trkpt><trkpt lat="41.9235724" lon="12.6463244"><ele>26.5</ele><time>2026-04-26T15:47:58.93Z</time></trkpt><trkpt lat="41.9236288" lon="12.6459186"><ele>26.0</ele><time>2026-04-26T15:47:59.929Z</time></trkpt><trkpt lat="41.923672" lon="12.6455099"><ele>27.5</ele><time>2026-04-26T15:48:00.925Z</time></trkpt><trkpt lat="41.9237024" lon="12.6450988"><ele>29.0</ele><time>2026-04-26T15:48:01.933Z</time></trkpt><trkpt lat="41.9237208" lon="12.6446864"><ele>30.5</ele><time>2026-04-26T15:48:02.939Z</time></trkpt><trkpt lat="41.9237277" lon="12.644274"><ele>32.0</ele><time>2026-04-26T15:48:03.925Z</time></trkpt><trkpt lat="41.9237237" lon="12.6438618"><ele>31.5</ele><time>2026-04-26T15:48:04.961Z</time></trkpt><trkpt lat="41.9237101" lon="12.6434494"><ele>31.0</ele><time>2026-04-26T15:48:05.95Z</time></trkpt><trkpt lat="41.9236888" lon="12.6430374"><ele>31.5</ele><time>2026-04-26T15:48:06.967Z</time></trkpt><trkpt lat="41.9236617" lon="12.6426264"><ele>32.0</ele><time>2026-04-26T15:48:07.955Z</time></trkpt><trkpt lat="41.9236312" lon="12.6422161"><ele>35.5</ele><time>2026-04-26T15:48:08.958Z</time></trkpt><trkpt lat="41.9236002" lon="12.6418064"><ele>39.0</ele><time>2026-04-26T15:48:09.955Z</time></trkpt><trkpt lat="41.9235712" lon="12.6413957"><ele>40.0</ele><time>2026-04-26T15:48:10.958Z</time></trkpt><trkpt lat="41.9235423" lon="12.6409856"><ele>41.0</ele><time>2026-04-26T15:48:11.968Z</time></trkpt><trkpt lat="41.9235144" lon="12.6405756"><ele>38.5</ele><time>2026-04-26T15:48:12.961Z</time></trkpt><trkpt lat="41.9234851" lon="12.6401646"><ele>36.0</ele><time>2026-04-26T15:48:13.972Z</time></trkpt><trkpt lat="41.9234538" lon="12.6397537"><ele>34.5</ele><time>2026-04-26T15:48:14.98Z</time></trkpt><trkpt lat="41.9234229" lon="12.6393428"><ele>33.0</ele><time>2026-04-26T15:48:15.957Z</time></trkpt><trkpt lat="41.9233927" lon="12.6389315"><ele>31.0</ele><time>2026-04-26T15:48:16.958Z</time></trkpt><trkpt lat="41.9233636" lon="12.6385202"><ele>29.0</ele><time>2026-04-26T15:48:17.959Z</time></trkpt><trkpt lat="41.923335" lon="12.6381096"><ele>29.5</ele><time>2026-04-26T15:48:18.955Z</time></trkpt><trkpt lat="41.9233062" lon="12.6376989"><ele>30.0</ele><time>2026-04-26T15:48:19.963Z</time></trkpt><trkpt lat="41.9232765" lon="12.6372886"><ele>30.0</ele><time>2026-04-26T15:48:20.957Z</time></trkpt><trkpt lat="41.9232464" lon="12.636878"><ele>30.0</ele><time>2026-04-26T15:48:21.952Z</time></trkpt><trkpt lat="41.9232175" lon="12.6364669"><ele>29.0</ele><time>2026-04-26T15:48:22.964Z</time></trkpt><trkpt lat="41.9231904" lon="12.6360553"><ele>28.0</ele><time>2026-04-26T15:48:23.97Z</time></trkpt><trkpt lat="41.9231652" lon="12.635644"><ele>30.0</ele><time>2026-04-26T15:48:24.956Z</time></trkpt><trkpt lat="41.9231413" lon="12.6352327"><ele>32.0</ele><time>2026-04-26T15:48:25.958Z</time></trkpt><trkpt lat="41.9231196" lon="12.6348234"><ele>32.0</ele><time>2026-04-26T15:48:26.959Z</time></trkpt><trkpt lat="41.9230994" lon="12.6344155"><ele>32.0</ele><time>2026-04-26T15:48:27.957Z</time></trkpt><trkpt lat="41.9230786" lon="12.6340105"><ele>31.0</ele><time>2026-04-26T15:48:28.954Z</time></trkpt><trkpt lat="41.9230574" lon="12.6336062"><ele>30.0</ele><time>2026-04-26T15:48:29.955Z</time></trkpt><trkpt lat="41.9230398" lon="12.6331996"><ele>30.0</ele><time>2026-04-26T15:48:30.969Z</time></trkpt><trkpt lat="41.9230284" lon="12.6327911"><ele>30.0</ele><time>2026-04-26T15:48:31.967Z</time></trkpt><trkpt lat="41.9230234" lon="12.6323819"><ele>30.5</ele><time>2026-04-26T15:48:32.965Z</time></trkpt><trkpt lat="41.9230234" lon="12.6319712"><ele>31.0</ele><time>2026-04-26T15:48:33.96Z</time></trkpt><trkpt lat="41.9230288" lon="12.6315597"><ele>31.0</ele><time>2026-04-26T15:48:34.961Z</time></trkpt><trkpt lat="41.9230393" lon="12.6311475"><ele>31.0</ele><time>2026-04-26T15:48:35.96Z</time></trkpt><trkpt lat="41.9230529" lon="12.6307359"><ele>30.5</ele><time>2026-04-26T15:48:36.955Z</time></trkpt><trkpt lat="41.9230688" lon="12.6303239"><ele>30.0</ele><time>2026-04-26T15:48:37.96Z</time></trkpt><trkpt lat="41.9230874" lon="12.6299111"><ele>29.5</ele><time>2026-04-26T15:48:38.958Z</time></trkpt><trkpt lat="41.9231108" lon="12.6294974"><ele>29.0</ele><time>2026-04-26T15:48:39.96Z</time></trkpt><trkpt lat="41.9231369" lon="12.6290848"><ele>28.0</ele><time>2026-04-26T15:48:40.966Z</time></trkpt><trkpt lat="41.9231673" lon="12.628673"><ele>27.0</ele><time>2026-04-26T15:48:41.966Z</time></trkpt><trkpt lat="41.9232014" lon="12.6282622"><ele>27.0</ele><time>2026-04-26T15:48:42.964Z</time></trkpt><trkpt lat="41.923237" lon="12.6278523"><ele>27.0</ele><time>2026-04-26T15:48:43.966Z</time></trkpt><trkpt lat="41.9232747" lon="12.6274423"><ele>26.5</ele><time>2026-04-26T15:48:44.952Z</time></trkpt><trkpt lat="41.9233141" lon="12.6270324"><ele>26.0</ele><time>2026-04-26T15:48:45.957Z</time></trkpt><trkpt lat="41.9233541" lon="12.6266227"><ele>25.5</ele><time>2026-04-26T15:48:46.959Z</time></trkpt><trkpt lat="41.9233953" lon="12.6262134"><ele>25.0</ele><time>2026-04-26T15:48:47.964Z</time></trkpt><trkpt lat="41.9234376" lon="12.6258042"><ele>25.0</ele><time>2026-04-26T15:48:48.97Z</time></trkpt><trkpt lat="41.9234802" lon="12.6253953"><ele>25.0</ele><time>2026-04-26T15:48:49.961Z</time></trkpt><trkpt lat="41.9235216" lon="12.6249859"><ele>28.5</ele><time>2026-04-26T15:48:50.959Z</time></trkpt><trkpt lat="41.9235609" lon="12.624576"><ele>32.0</ele><time>2026-04-26T15:48:51.959Z</time></trkpt><trkpt lat="41.9235976" lon="12.6241658"><ele>32.0</ele><time>2026-04-26T15:48:52.953Z</time></trkpt><trkpt lat="41.9236315" lon="12.6237548"><ele>32.0</ele><time>2026-04-26T15:48:53.967Z</time></trkpt><trkpt lat="41.9236628" lon="12.6233441"><ele>31.0</ele><time>2026-04-26T15:48:54.965Z</time></trkpt><trkpt lat="41.9236907" lon="12.622933"><ele>30.0</ele><time>2026-04-26T15:48:55.959Z</time></trkpt><trkpt lat="41.9237124" lon="12.6225205"><ele>29.5</ele><time>2026-04-26T15:48:56.956Z</time></trkpt><trkpt lat="41.923727" lon="12.6221069"><ele>29.0</ele><time>2026-04-26T15:48:57.961Z</time></trkpt><trkpt lat="41.9237349" lon="12.6216931"><ele>29.0</ele><time>2026-04-26T15:48:58.958Z</time></trkpt><trkpt lat="41.9237347" lon="12.6212797"><ele>29.0</ele><time>2026-04-26T15:48:59.96Z</time></trkpt><trkpt lat="41.9237242" lon="12.6208667"><ele>29.5</ele><time>2026-04-26T15:49:00.963Z</time></trkpt><trkpt lat="41.9237041" lon="12.620455"><ele>30.0</ele><time>2026-04-26T15:49:01.958Z</time></trkpt><trkpt lat="41.9236764" lon="12.6200441"><ele>30.0</ele><time>2026-04-26T15:49:02.959Z</time></trkpt><trkpt lat="41.9236403" lon="12.6196339"><ele>30.0</ele><time>2026-04-26T15:49:03.958Z</time></trkpt><trkpt lat="41.9235931" lon="12.6192255"><ele>30.0</ele><time>2026-04-26T15:49:04.959Z</time></trkpt><trkpt lat="41.9235352" lon="12.6188198"><ele>30.0</ele><time>2026-04-26T15:49:05.959Z</time></trkpt><trkpt lat="41.9234703" lon="12.6184166"><ele>30.0</ele><time>2026-04-26T15:49:06.954Z</time></trkpt><trkpt lat="41.9233994" lon="12.6180154"><ele>30.0</ele><time>2026-04-26T15:49:07.957Z</time></trkpt><trkpt lat="41.9233217" lon="12.6176165"><ele>27.5</ele><time>2026-04-26T15:49:08.964Z</time></trkpt><trkpt lat="41.9232347" lon="12.6172209"><ele>25.0</ele><time>2026-04-26T15:49:09.963Z</time></trkpt><trkpt lat="41.9231374" lon="12.6168306"><ele>25.0</ele><time>2026-04-26T15:49:10.954Z</time></trkpt><trkpt lat="41.9230301" lon="12.6164446"><ele>25.0</ele><time>2026-04-26T15:49:11.963Z</time></trkpt><trkpt lat="41.922914" lon="12.6160631"><ele>26.5</ele><time>2026-04-26T15:49:12.959Z</time></trkpt><trkpt lat="41.9227893" lon="12.6156864"><ele>28.0</ele><time>2026-04-26T15:49:13.956Z</time></trkpt><trkpt lat="41.9226574" lon="12.6153138"><ele>33.0</ele><time>2026-04-26T15:49:14.957Z</time></trkpt><trkpt lat="41.9225195" lon="12.6149445"><ele>38.0</ele><time>2026-04-26T15:49:15.953Z</time></trkpt><trkpt lat="41.9223754" lon="12.6145804"><ele>39.5</ele><time>2026-04-26T15:49:16.954Z</time></trkpt><trkpt lat="41.922223" lon="12.614221"><ele>41.0</ele><time>2026-04-26T15:49:17.957Z</time></trkpt><trkpt lat="41.9220671" lon="12.6139051"><ele>41.5</ele><time>2026-04-26T15:49:18.958Z</time></trkpt><trkpt lat="41.9218927" lon="12.6135715"><ele>42.0</ele><time>2026-04-26T15:49:19.972Z</time></trkpt><trkpt lat="41.9217202" lon="12.6132484"><ele>42.5</ele><time>2026-04-26T15:49:20.957Z</time></trkpt><trkpt lat="41.9215336" lon="12.6129184"><ele>43.0</ele><time>2026-04-26T15:49:21.962Z</time></trkpt><trkpt lat="41.9213516" lon="12.6125947"><ele>42.0</ele><time>2026-04-26T15:49:22.962Z</time></trkpt><trkpt lat="41.9211563" lon="12.6122731"><ele>41.0</ele><time>2026-04-26T15:49:23.956Z</time></trkpt><trkpt lat="41.9209629" lon="12.611952"><ele>39.0</ele><time>2026-04-26T15:49:24.959Z</time></trkpt><trkpt lat="41.9207677" lon="12.6116363"><ele>37.0</ele><time>2026-04-26T15:49:25.97Z</time></trkpt><trkpt lat="41.9205665" lon="12.6113221"><ele>35.0</ele><time>2026-04-26T15:49:26.958Z</time></trkpt><trkpt lat="41.9203692" lon="12.6110092"><ele>33.0</ele><time>2026-04-26T15:49:27.961Z</time></trkpt><trkpt lat="41.9201732" lon="12.6106909"><ele>33.0</ele><time>2026-04-26T15:49:28.96Z</time></trkpt><trkpt lat="41.9199752" lon="12.6103744"><ele>33.0</ele><time>2026-04-26T15:49:29.956Z</time></trkpt><trkpt lat="41.9197781" lon="12.6100572"><ele>33.0</ele><time>2026-04-26T15:49:30.958Z</time></trkpt><trkpt lat="41.9195788" lon="12.6097387"><ele>33.0</ele><time>2026-04-26T15:49:31.969Z</time></trkpt><trkpt lat="41.9193829" lon="12.609419"><ele>35.5</ele><time>2026-04-26T15:49:32.958Z</time></trkpt><trkpt lat="41.9191892" lon="12.6090994"><ele>38.0</ele><time>2026-04-26T15:49:33.951Z</time></trkpt><trkpt lat="41.9189954" lon="12.6087784"><ele>36.0</ele><time>2026-04-26T15:49:34.962Z</time></trkpt><trkpt lat="41.9188024" lon="12.6084565"><ele>34.0</ele><time>2026-04-26T15:49:35.956Z</time></trkpt><trkpt lat="41.9186115" lon="12.6081336"><ele>32.5</ele><time>2026-04-26T15:49:36.947Z</time></trkpt><trkpt lat="41.9184215" lon="12.6078078"><ele>31.0</ele><time>2026-04-26T15:49:37.953Z</time></trkpt><trkpt lat="41.9182323" lon="12.6074817"><ele>31.0</ele><time>2026-04-26T15:49:38.96Z</time></trkpt><trkpt lat="41.9180447" lon="12.6071527"><ele>31.0</ele><time>2026-04-26T15:49:39.971Z</time></trkpt><trkpt lat="41.9178601" lon="12.6068212"><ele>30.5</ele><time>2026-04-26T15:49:40.973Z</time></trkpt><trkpt lat="41.9176776" lon="12.6064871"><ele>30.0</ele><time>2026-04-26T15:49:41.954Z</time></trkpt><trkpt lat="41.9174976" lon="12.6061527"><ele>31.5</ele><time>2026-04-26T15:49:42.946Z</time></trkpt><trkpt lat="41.9173208" lon="12.605815"><ele>33.0</ele><time>2026-04-26T15:49:43.963Z</time></trkpt><trkpt lat="41.917143" lon="12.6054775"><ele>33.0</ele><time>2026-04-26T15:49:44.923Z</time></trkpt><trkpt lat="41.9169676" lon="12.6051369"><ele>33.0</ele><time>2026-04-26T15:49:45.918Z</time></trkpt><trkpt lat="41.9167965" lon="12.6047927"><ele>33.0</ele><time>2026-04-26T15:49:46.925Z</time></trkpt><trkpt lat="41.916631" lon="12.6044433"><ele>35.0</ele><time>2026-04-26T15:49:47.928Z</time></trkpt></trkseg></trk></gpx>